<?xml version="1.0" encoding="UTF-8" standalone="no" ?>
<gpx xmlns="http://www.topografix.com/GPX/1/1" xmlns:xsi="http://www.w3.org/2001/XMLSchema-instance" xsi:schemaLocation="http://www.topografix.com/GPX/1/1 http://www.topografix.com/GPX/1/1/gpx.xsd" version="1.1" creator="VisuGPX - https://www.visugpx.com">
  <metadata>
    <name>sortiejeudi25012024</name>
  </metadata>
  <trk>
    <name><![CDATA[Sortie club à 5 sans pluie. Grisaille et routes boueuses dans la première partie, beau soleil pour le final.]]></name>
    <trkseg>
      <trkpt lat="48.83657" lon="-1.59882">
        <ele>9.7</ele>
        <time>2024-01-25T12:16:21Z</time>
      </trkpt>
      <trkpt lat="48.83656" lon="-1.59883">
        <ele>9.7</ele>
        <time>2024-01-25T12:16:22Z</time>
      </trkpt>
      <trkpt lat="48.83656" lon="-1.59883">
        <ele>9.7</ele>
        <time>2024-01-25T12:16:23Z</time>
      </trkpt>
      <trkpt lat="48.83656" lon="-1.59883">
        <ele>9.7</ele>
        <time>2024-01-25T12:16:24Z</time>
      </trkpt>
      <trkpt lat="48.83656" lon="-1.59883">
        <ele>9.7</ele>
        <time>2024-01-25T12:16:25Z</time>
      </trkpt>
      <trkpt lat="48.83656" lon="-1.59882">
        <ele>9.7</ele>
        <time>2024-01-25T12:16:26Z</time>
      </trkpt>
      <trkpt lat="48.83656" lon="-1.59882">
        <ele>9.7</ele>
        <time>2024-01-25T12:16:27Z</time>
      </trkpt>
      <trkpt lat="48.83657" lon="-1.59881">
        <ele>9.7</ele>
        <time>2024-01-25T12:16:28Z</time>
      </trkpt>
      <trkpt lat="48.83657" lon="-1.59881">
        <ele>9.7</ele>
        <time>2024-01-25T12:16:29Z</time>
      </trkpt>
      <trkpt lat="48.83657" lon="-1.59881">
        <ele>9.7</ele>
        <time>2024-01-25T12:16:30Z</time>
      </trkpt>
      <trkpt lat="48.83657" lon="-1.59881">
        <ele>9.7</ele>
        <time>2024-01-25T12:16:31Z</time>
      </trkpt>
      <trkpt lat="48.83657" lon="-1.59881">
        <ele>9.7</ele>
        <time>2024-01-25T12:16:32Z</time>
      </trkpt>
      <trkpt lat="48.83657" lon="-1.59881">
        <ele>9.7</ele>
        <time>2024-01-25T12:16:33Z</time>
      </trkpt>
      <trkpt lat="48.83657" lon="-1.59881">
        <ele>9.7</ele>
        <time>2024-01-25T12:16:34Z</time>
      </trkpt>
      <trkpt lat="48.83657" lon="-1.5988">
        <ele>9.7</ele>
        <time>2024-01-25T12:16:35Z</time>
      </trkpt>
      <trkpt lat="48.83658" lon="-1.5988">
        <ele>9.7</ele>
        <time>2024-01-25T12:16:36Z</time>
      </trkpt>
      <trkpt lat="48.83658" lon="-1.5988">
        <ele>9.7</ele>
        <time>2024-01-25T12:16:37Z</time>
      </trkpt>
      <trkpt lat="48.83658" lon="-1.5988">
        <ele>9.7</ele>
        <time>2024-01-25T12:16:38Z</time>
      </trkpt>
      <trkpt lat="48.83658" lon="-1.5988">
        <ele>9.7</ele>
        <time>2024-01-25T12:16:39Z</time>
      </trkpt>
      <trkpt lat="48.83658" lon="-1.59879">
        <ele>9.7</ele>
        <time>2024-01-25T12:16:40Z</time>
      </trkpt>
      <trkpt lat="48.83658" lon="-1.59879">
        <ele>9.7</ele>
        <time>2024-01-25T12:16:41Z</time>
      </trkpt>
      <trkpt lat="48.83657" lon="-1.59878">
        <ele>9.7</ele>
        <time>2024-01-25T12:16:42Z</time>
      </trkpt>
      <trkpt lat="48.83657" lon="-1.59878">
        <ele>9.7</ele>
        <time>2024-01-25T12:16:43Z</time>
      </trkpt>
      <trkpt lat="48.83657" lon="-1.59878">
        <ele>9.7</ele>
        <time>2024-01-25T12:16:44Z</time>
      </trkpt>
      <trkpt lat="48.83657" lon="-1.59878">
        <ele>9.7</ele>
        <time>2024-01-25T12:16:45Z</time>
      </trkpt>
      <trkpt lat="48.83657" lon="-1.59878">
        <ele>9.7</ele>
        <time>2024-01-25T12:16:46Z</time>
      </trkpt>
      <trkpt lat="48.83657" lon="-1.59878">
        <ele>9.7</ele>
        <time>2024-01-25T12:16:47Z</time>
      </trkpt>
      <trkpt lat="48.83657" lon="-1.59878">
        <ele>9.7</ele>
        <time>2024-01-25T12:16:48Z</time>
      </trkpt>
      <trkpt lat="48.83657" lon="-1.59878">
        <ele>9.7</ele>
        <time>2024-01-25T12:16:49Z</time>
      </trkpt>
      <trkpt lat="48.83657" lon="-1.59877">
        <ele>9.7</ele>
        <time>2024-01-25T12:16:50Z</time>
      </trkpt>
      <trkpt lat="48.83657" lon="-1.59876">
        <ele>9.7</ele>
        <time>2024-01-25T12:16:51Z</time>
      </trkpt>
      <trkpt lat="48.83658" lon="-1.59875">
        <ele>9.7</ele>
        <time>2024-01-25T12:16:52Z</time>
      </trkpt>
      <trkpt lat="48.83659" lon="-1.59874">
        <ele>9.7</ele>
        <time>2024-01-25T12:16:53Z</time>
      </trkpt>
      <trkpt lat="48.83659" lon="-1.59874">
        <ele>9.7</ele>
        <time>2024-01-25T12:16:54Z</time>
      </trkpt>
      <trkpt lat="48.8366" lon="-1.59873">
        <ele>9.7</ele>
        <time>2024-01-25T12:16:55Z</time>
      </trkpt>
      <trkpt lat="48.8366" lon="-1.59873">
        <ele>9.7</ele>
        <time>2024-01-25T12:16:56Z</time>
      </trkpt>
      <trkpt lat="48.8366" lon="-1.59873">
        <ele>9.7</ele>
        <time>2024-01-25T12:16:57Z</time>
      </trkpt>
      <trkpt lat="48.83661" lon="-1.59873">
        <ele>9.7</ele>
        <time>2024-01-25T12:16:58Z</time>
      </trkpt>
      <trkpt lat="48.83661" lon="-1.59873">
        <ele>9.7</ele>
        <time>2024-01-25T12:16:59Z</time>
      </trkpt>
      <trkpt lat="48.83661" lon="-1.59872">
        <ele>9.7</ele>
        <time>2024-01-25T12:17:00Z</time>
      </trkpt>
      <trkpt lat="48.83661" lon="-1.59872">
        <ele>9.7</ele>
        <time>2024-01-25T12:17:01Z</time>
      </trkpt>
      <trkpt lat="48.83662" lon="-1.59871">
        <ele>9.7</ele>
        <time>2024-01-25T12:17:02Z</time>
      </trkpt>
      <trkpt lat="48.83662" lon="-1.59871">
        <ele>9.7</ele>
        <time>2024-01-25T12:17:03Z</time>
      </trkpt>
      <trkpt lat="48.83663" lon="-1.59871">
        <ele>9.7</ele>
        <time>2024-01-25T12:17:04Z</time>
      </trkpt>
      <trkpt lat="48.83663" lon="-1.5987">
        <ele>9.7</ele>
        <time>2024-01-25T12:17:05Z</time>
      </trkpt>
      <trkpt lat="48.83663" lon="-1.59871">
        <ele>9.7</ele>
        <time>2024-01-25T12:17:06Z</time>
      </trkpt>
      <trkpt lat="48.83664" lon="-1.59871">
        <ele>9.7</ele>
        <time>2024-01-25T12:17:07Z</time>
      </trkpt>
      <trkpt lat="48.83664" lon="-1.59871">
        <ele>9.7</ele>
        <time>2024-01-25T12:17:08Z</time>
      </trkpt>
      <trkpt lat="48.83663" lon="-1.59872">
        <ele>9.7</ele>
        <time>2024-01-25T12:17:09Z</time>
      </trkpt>
      <trkpt lat="48.83663" lon="-1.59872">
        <ele>9.7</ele>
        <time>2024-01-25T12:17:10Z</time>
      </trkpt>
      <trkpt lat="48.83663" lon="-1.59873">
        <ele>9.7</ele>
        <time>2024-01-25T12:17:11Z</time>
      </trkpt>
      <trkpt lat="48.83662" lon="-1.59874">
        <ele>9.8</ele>
        <time>2024-01-25T12:17:12Z</time>
      </trkpt>
      <trkpt lat="48.83661" lon="-1.59876">
        <ele>9.8</ele>
        <time>2024-01-25T12:17:13Z</time>
      </trkpt>
      <trkpt lat="48.83658" lon="-1.59878">
        <ele>9.8</ele>
        <time>2024-01-25T12:17:14Z</time>
      </trkpt>
      <trkpt lat="48.83657" lon="-1.5988">
        <ele>9.8</ele>
        <time>2024-01-25T12:17:15Z</time>
      </trkpt>
      <trkpt lat="48.83655" lon="-1.59882">
        <ele>9.8</ele>
        <time>2024-01-25T12:17:16Z</time>
      </trkpt>
      <trkpt lat="48.83653" lon="-1.59885">
        <ele>9.8</ele>
        <time>2024-01-25T12:17:18Z</time>
      </trkpt>
      <trkpt lat="48.83651" lon="-1.59886">
        <ele>9.8</ele>
        <time>2024-01-25T12:17:19Z</time>
      </trkpt>
      <trkpt lat="48.83649" lon="-1.59886">
        <ele>9.8</ele>
        <time>2024-01-25T12:17:20Z</time>
      </trkpt>
      <trkpt lat="48.83645" lon="-1.59877">
        <ele>9.9</ele>
        <time>2024-01-25T12:17:21Z</time>
      </trkpt>
      <trkpt lat="48.83643" lon="-1.59868">
        <ele>10</ele>
        <time>2024-01-25T12:17:22Z</time>
      </trkpt>
      <trkpt lat="48.83641" lon="-1.5986">
        <ele>10</ele>
        <time>2024-01-25T12:17:23Z</time>
      </trkpt>
      <trkpt lat="48.83637" lon="-1.5985">
        <ele>10.2</ele>
        <time>2024-01-25T12:17:24Z</time>
      </trkpt>
      <trkpt lat="48.83634" lon="-1.59843">
        <ele>10.2</ele>
        <time>2024-01-25T12:17:25Z</time>
      </trkpt>
      <trkpt lat="48.8363" lon="-1.59834">
        <ele>10.3</ele>
        <time>2024-01-25T12:17:26Z</time>
      </trkpt>
      <trkpt lat="48.83625" lon="-1.59825">
        <ele>10.5</ele>
        <time>2024-01-25T12:17:28Z</time>
      </trkpt>
      <trkpt lat="48.8362" lon="-1.59818">
        <ele>10.5</ele>
        <time>2024-01-25T12:17:29Z</time>
      </trkpt>
      <trkpt lat="48.83616" lon="-1.59813">
        <ele>10.6</ele>
        <time>2024-01-25T12:17:30Z</time>
      </trkpt>
      <trkpt lat="48.83612" lon="-1.59807">
        <ele>10.6</ele>
        <time>2024-01-25T12:17:31Z</time>
      </trkpt>
      <trkpt lat="48.83609" lon="-1.59802">
        <ele>10.6</ele>
        <time>2024-01-25T12:17:32Z</time>
      </trkpt>
      <trkpt lat="48.83606" lon="-1.59795">
        <ele>10.7</ele>
        <time>2024-01-25T12:17:33Z</time>
      </trkpt>
      <trkpt lat="48.83603" lon="-1.5979">
        <ele>10.7</ele>
        <time>2024-01-25T12:17:34Z</time>
      </trkpt>
      <trkpt lat="48.83599" lon="-1.59784">
        <ele>10.6</ele>
        <time>2024-01-25T12:17:35Z</time>
      </trkpt>
      <trkpt lat="48.83596" lon="-1.59777">
        <ele>10.6</ele>
        <time>2024-01-25T12:17:36Z</time>
      </trkpt>
      <trkpt lat="48.83593" lon="-1.5977">
        <ele>10.6</ele>
        <time>2024-01-25T12:17:37Z</time>
      </trkpt>
      <trkpt lat="48.8359" lon="-1.59764">
        <ele>10.6</ele>
        <time>2024-01-25T12:17:38Z</time>
      </trkpt>
      <trkpt lat="48.83587" lon="-1.59757">
        <ele>10.6</ele>
        <time>2024-01-25T12:17:39Z</time>
      </trkpt>
      <trkpt lat="48.83585" lon="-1.59751">
        <ele>10.6</ele>
        <time>2024-01-25T12:17:40Z</time>
      </trkpt>
      <trkpt lat="48.83584" lon="-1.59745">
        <ele>10.6</ele>
        <time>2024-01-25T12:17:41Z</time>
      </trkpt>
      <trkpt lat="48.83582" lon="-1.59738">
        <ele>10.6</ele>
        <time>2024-01-25T12:17:42Z</time>
      </trkpt>
      <trkpt lat="48.83581" lon="-1.59732">
        <ele>10.6</ele>
        <time>2024-01-25T12:17:43Z</time>
      </trkpt>
      <trkpt lat="48.83578" lon="-1.59727">
        <ele>10.6</ele>
        <time>2024-01-25T12:17:44Z</time>
      </trkpt>
      <trkpt lat="48.83574" lon="-1.59719">
        <ele>10.6</ele>
        <time>2024-01-25T12:17:45Z</time>
      </trkpt>
      <trkpt lat="48.83572" lon="-1.5971">
        <ele>10.5</ele>
        <time>2024-01-25T12:17:46Z</time>
      </trkpt>
      <trkpt lat="48.8357" lon="-1.59701">
        <ele>10.5</ele>
        <time>2024-01-25T12:17:47Z</time>
      </trkpt>
      <trkpt lat="48.83569" lon="-1.59692">
        <ele>10.5</ele>
        <time>2024-01-25T12:17:48Z</time>
      </trkpt>
      <trkpt lat="48.83567" lon="-1.59683">
        <ele>10.5</ele>
        <time>2024-01-25T12:17:49Z</time>
      </trkpt>
      <trkpt lat="48.83565" lon="-1.59675">
        <ele>10.5</ele>
        <time>2024-01-25T12:17:50Z</time>
      </trkpt>
      <trkpt lat="48.83565" lon="-1.59666">
        <ele>10.5</ele>
        <time>2024-01-25T12:17:51Z</time>
      </trkpt>
      <trkpt lat="48.83565" lon="-1.59658">
        <ele>10.5</ele>
        <time>2024-01-25T12:17:52Z</time>
      </trkpt>
      <trkpt lat="48.83565" lon="-1.5965">
        <ele>10.5</ele>
        <time>2024-01-25T12:17:53Z</time>
      </trkpt>
      <trkpt lat="48.83566" lon="-1.59642">
        <ele>10.5</ele>
        <time>2024-01-25T12:17:54Z</time>
      </trkpt>
      <trkpt lat="48.83566" lon="-1.59633">
        <ele>10.5</ele>
        <time>2024-01-25T12:17:55Z</time>
      </trkpt>
      <trkpt lat="48.83567" lon="-1.59625">
        <ele>10.5</ele>
        <time>2024-01-25T12:17:56Z</time>
      </trkpt>
      <trkpt lat="48.83567" lon="-1.59617">
        <ele>10.5</ele>
        <time>2024-01-25T12:17:57Z</time>
      </trkpt>
      <trkpt lat="48.83567" lon="-1.59608">
        <ele>10.5</ele>
        <time>2024-01-25T12:17:58Z</time>
      </trkpt>
      <trkpt lat="48.83568" lon="-1.59599">
        <ele>10.5</ele>
        <time>2024-01-25T12:17:59Z</time>
      </trkpt>
      <trkpt lat="48.83569" lon="-1.5959">
        <ele>10.5</ele>
        <time>2024-01-25T12:18:00Z</time>
      </trkpt>
      <trkpt lat="48.8357" lon="-1.59581">
        <ele>10.5</ele>
        <time>2024-01-25T12:18:01Z</time>
      </trkpt>
      <trkpt lat="48.8357" lon="-1.59572">
        <ele>10.5</ele>
        <time>2024-01-25T12:18:02Z</time>
      </trkpt>
      <trkpt lat="48.83568" lon="-1.59564">
        <ele>10.5</ele>
        <time>2024-01-25T12:18:03Z</time>
      </trkpt>
      <trkpt lat="48.83567" lon="-1.59555">
        <ele>10.5</ele>
        <time>2024-01-25T12:18:04Z</time>
      </trkpt>
      <trkpt lat="48.83566" lon="-1.59547">
        <ele>10.5</ele>
        <time>2024-01-25T12:18:05Z</time>
      </trkpt>
      <trkpt lat="48.83566" lon="-1.59539">
        <ele>10.5</ele>
        <time>2024-01-25T12:18:06Z</time>
      </trkpt>
      <trkpt lat="48.83565" lon="-1.5953">
        <ele>10.5</ele>
        <time>2024-01-25T12:18:07Z</time>
      </trkpt>
      <trkpt lat="48.83561" lon="-1.59522">
        <ele>10.4</ele>
        <time>2024-01-25T12:18:08Z</time>
      </trkpt>
      <trkpt lat="48.83557" lon="-1.59514">
        <ele>10.4</ele>
        <time>2024-01-25T12:18:09Z</time>
      </trkpt>
      <trkpt lat="48.83554" lon="-1.59507">
        <ele>10.4</ele>
        <time>2024-01-25T12:18:10Z</time>
      </trkpt>
      <trkpt lat="48.83552" lon="-1.59499">
        <ele>10.4</ele>
        <time>2024-01-25T12:18:11Z</time>
      </trkpt>
      <trkpt lat="48.8355" lon="-1.59492">
        <ele>10.3</ele>
        <time>2024-01-25T12:18:12Z</time>
      </trkpt>
      <trkpt lat="48.83547" lon="-1.59484">
        <ele>10.3</ele>
        <time>2024-01-25T12:18:13Z</time>
      </trkpt>
      <trkpt lat="48.83544" lon="-1.59477">
        <ele>10.3</ele>
        <time>2024-01-25T12:18:14Z</time>
      </trkpt>
      <trkpt lat="48.83542" lon="-1.5947">
        <ele>10.3</ele>
        <time>2024-01-25T12:18:15Z</time>
      </trkpt>
      <trkpt lat="48.83539" lon="-1.59463">
        <ele>10.2</ele>
        <time>2024-01-25T12:18:16Z</time>
      </trkpt>
      <trkpt lat="48.83536" lon="-1.59456">
        <ele>10.2</ele>
        <time>2024-01-25T12:18:17Z</time>
      </trkpt>
      <trkpt lat="48.83534" lon="-1.59449">
        <ele>10.2</ele>
        <time>2024-01-25T12:18:18Z</time>
      </trkpt>
      <trkpt lat="48.83531" lon="-1.59442">
        <ele>10.2</ele>
        <time>2024-01-25T12:18:19Z</time>
      </trkpt>
      <trkpt lat="48.83528" lon="-1.59434">
        <ele>10.1</ele>
        <time>2024-01-25T12:18:20Z</time>
      </trkpt>
      <trkpt lat="48.83524" lon="-1.59427">
        <ele>10.1</ele>
        <time>2024-01-25T12:18:21Z</time>
      </trkpt>
      <trkpt lat="48.83519" lon="-1.59419">
        <ele>10</ele>
        <time>2024-01-25T12:18:22Z</time>
      </trkpt>
      <trkpt lat="48.83514" lon="-1.59412">
        <ele>9.9</ele>
        <time>2024-01-25T12:18:23Z</time>
      </trkpt>
      <trkpt lat="48.8351" lon="-1.59404">
        <ele>9.8</ele>
        <time>2024-01-25T12:18:24Z</time>
      </trkpt>
      <trkpt lat="48.83505" lon="-1.59396">
        <ele>9.7</ele>
        <time>2024-01-25T12:18:25Z</time>
      </trkpt>
      <trkpt lat="48.835" lon="-1.59389">
        <ele>9.6</ele>
        <time>2024-01-25T12:18:26Z</time>
      </trkpt>
      <trkpt lat="48.83495" lon="-1.59381">
        <ele>9.5</ele>
        <time>2024-01-25T12:18:27Z</time>
      </trkpt>
      <trkpt lat="48.83492" lon="-1.59374">
        <ele>9.4</ele>
        <time>2024-01-25T12:18:28Z</time>
      </trkpt>
      <trkpt lat="48.83488" lon="-1.59368">
        <ele>9.3</ele>
        <time>2024-01-25T12:18:29Z</time>
      </trkpt>
      <trkpt lat="48.83483" lon="-1.5936">
        <ele>9.3</ele>
        <time>2024-01-25T12:18:30Z</time>
      </trkpt>
      <trkpt lat="48.83478" lon="-1.59352">
        <ele>9.2</ele>
        <time>2024-01-25T12:18:31Z</time>
      </trkpt>
      <trkpt lat="48.83475" lon="-1.59345">
        <ele>9.2</ele>
        <time>2024-01-25T12:18:32Z</time>
      </trkpt>
      <trkpt lat="48.8347" lon="-1.59338">
        <ele>9.2</ele>
        <time>2024-01-25T12:18:33Z</time>
      </trkpt>
      <trkpt lat="48.83465" lon="-1.59331">
        <ele>9.2</ele>
        <time>2024-01-25T12:18:34Z</time>
      </trkpt>
      <trkpt lat="48.83461" lon="-1.59324">
        <ele>9.2</ele>
        <time>2024-01-25T12:18:35Z</time>
      </trkpt>
      <trkpt lat="48.83456" lon="-1.59316">
        <ele>9.3</ele>
        <time>2024-01-25T12:18:36Z</time>
      </trkpt>
      <trkpt lat="48.83452" lon="-1.59309">
        <ele>9.4</ele>
        <time>2024-01-25T12:18:37Z</time>
      </trkpt>
      <trkpt lat="48.83448" lon="-1.59301">
        <ele>9.6</ele>
        <time>2024-01-25T12:18:38Z</time>
      </trkpt>
      <trkpt lat="48.83444" lon="-1.59293">
        <ele>9.8</ele>
        <time>2024-01-25T12:18:39Z</time>
      </trkpt>
      <trkpt lat="48.83439" lon="-1.59285">
        <ele>10</ele>
        <time>2024-01-25T12:18:40Z</time>
      </trkpt>
      <trkpt lat="48.83434" lon="-1.59276">
        <ele>10.4</ele>
        <time>2024-01-25T12:18:41Z</time>
      </trkpt>
      <trkpt lat="48.83429" lon="-1.59268">
        <ele>10.8</ele>
        <time>2024-01-25T12:18:42Z</time>
      </trkpt>
      <trkpt lat="48.83425" lon="-1.5926">
        <ele>11.1</ele>
        <time>2024-01-25T12:18:43Z</time>
      </trkpt>
      <trkpt lat="48.83423" lon="-1.59252">
        <ele>11.5</ele>
        <time>2024-01-25T12:18:44Z</time>
      </trkpt>
      <trkpt lat="48.83421" lon="-1.59245">
        <ele>11.8</ele>
        <time>2024-01-25T12:18:45Z</time>
      </trkpt>
      <trkpt lat="48.83419" lon="-1.59239">
        <ele>12.1</ele>
        <time>2024-01-25T12:18:46Z</time>
      </trkpt>
      <trkpt lat="48.83417" lon="-1.59232">
        <ele>12.3</ele>
        <time>2024-01-25T12:18:47Z</time>
      </trkpt>
      <trkpt lat="48.83415" lon="-1.59228">
        <ele>12.5</ele>
        <time>2024-01-25T12:18:48Z</time>
      </trkpt>
      <trkpt lat="48.83413" lon="-1.59222">
        <ele>12.8</ele>
        <time>2024-01-25T12:18:49Z</time>
      </trkpt>
      <trkpt lat="48.83412" lon="-1.59216">
        <ele>13.3</ele>
        <time>2024-01-25T12:18:50Z</time>
      </trkpt>
      <trkpt lat="48.8341" lon="-1.5921">
        <ele>13.7</ele>
        <time>2024-01-25T12:18:51Z</time>
      </trkpt>
      <trkpt lat="48.83408" lon="-1.59204">
        <ele>14.1</ele>
        <time>2024-01-25T12:18:52Z</time>
      </trkpt>
      <trkpt lat="48.83407" lon="-1.592">
        <ele>14.5</ele>
        <time>2024-01-25T12:18:53Z</time>
      </trkpt>
      <trkpt lat="48.83405" lon="-1.59195">
        <ele>14.8</ele>
        <time>2024-01-25T12:18:54Z</time>
      </trkpt>
      <trkpt lat="48.83403" lon="-1.5919">
        <ele>15.2</ele>
        <time>2024-01-25T12:18:55Z</time>
      </trkpt>
      <trkpt lat="48.83402" lon="-1.59184">
        <ele>15.7</ele>
        <time>2024-01-25T12:18:56Z</time>
      </trkpt>
      <trkpt lat="48.834" lon="-1.59178">
        <ele>15.7</ele>
        <time>2024-01-25T12:18:57Z</time>
      </trkpt>
      <trkpt lat="48.83399" lon="-1.59174">
        <ele>15.7</ele>
        <time>2024-01-25T12:18:58Z</time>
      </trkpt>
      <trkpt lat="48.83396" lon="-1.59169">
        <ele>15.8</ele>
        <time>2024-01-25T12:19:00Z</time>
      </trkpt>
      <trkpt lat="48.83392" lon="-1.5916">
        <ele>16.1</ele>
        <time>2024-01-25T12:19:01Z</time>
      </trkpt>
      <trkpt lat="48.8339" lon="-1.59155">
        <ele>16.2</ele>
        <time>2024-01-25T12:19:02Z</time>
      </trkpt>
      <trkpt lat="48.83388" lon="-1.5915">
        <ele>16.4</ele>
        <time>2024-01-25T12:19:03Z</time>
      </trkpt>
      <trkpt lat="48.83386" lon="-1.59145">
        <ele>16.5</ele>
        <time>2024-01-25T12:19:04Z</time>
      </trkpt>
      <trkpt lat="48.83383" lon="-1.59139">
        <ele>16.7</ele>
        <time>2024-01-25T12:19:05Z</time>
      </trkpt>
      <trkpt lat="48.83381" lon="-1.59134">
        <ele>16.8</ele>
        <time>2024-01-25T12:19:06Z</time>
      </trkpt>
      <trkpt lat="48.83379" lon="-1.59129">
        <ele>17</ele>
        <time>2024-01-25T12:19:07Z</time>
      </trkpt>
      <trkpt lat="48.83377" lon="-1.59123">
        <ele>17.2</ele>
        <time>2024-01-25T12:19:08Z</time>
      </trkpt>
      <trkpt lat="48.83376" lon="-1.59117">
        <ele>17.4</ele>
        <time>2024-01-25T12:19:09Z</time>
      </trkpt>
      <trkpt lat="48.83375" lon="-1.59112">
        <ele>17.5</ele>
        <time>2024-01-25T12:19:10Z</time>
      </trkpt>
      <trkpt lat="48.83374" lon="-1.59107">
        <ele>17.7</ele>
        <time>2024-01-25T12:19:11Z</time>
      </trkpt>
      <trkpt lat="48.83373" lon="-1.59102">
        <ele>17.8</ele>
        <time>2024-01-25T12:19:12Z</time>
      </trkpt>
      <trkpt lat="48.83372" lon="-1.59097">
        <ele>18</ele>
        <time>2024-01-25T12:19:13Z</time>
      </trkpt>
      <trkpt lat="48.83371" lon="-1.59092">
        <ele>18.2</ele>
        <time>2024-01-25T12:19:14Z</time>
      </trkpt>
      <trkpt lat="48.8337" lon="-1.59086">
        <ele>18.4</ele>
        <time>2024-01-25T12:19:15Z</time>
      </trkpt>
      <trkpt lat="48.83368" lon="-1.59081">
        <ele>18.6</ele>
        <time>2024-01-25T12:19:16Z</time>
      </trkpt>
      <trkpt lat="48.83366" lon="-1.59076">
        <ele>18.8</ele>
        <time>2024-01-25T12:19:17Z</time>
      </trkpt>
      <trkpt lat="48.83366" lon="-1.59071">
        <ele>19</ele>
        <time>2024-01-25T12:19:18Z</time>
      </trkpt>
      <trkpt lat="48.83367" lon="-1.59066">
        <ele>19.2</ele>
        <time>2024-01-25T12:19:19Z</time>
      </trkpt>
      <trkpt lat="48.83367" lon="-1.59059">
        <ele>19.5</ele>
        <time>2024-01-25T12:19:20Z</time>
      </trkpt>
      <trkpt lat="48.83366" lon="-1.59054">
        <ele>19.7</ele>
        <time>2024-01-25T12:19:21Z</time>
      </trkpt>
      <trkpt lat="48.83368" lon="-1.59049">
        <ele>19.9</ele>
        <time>2024-01-25T12:19:22Z</time>
      </trkpt>
      <trkpt lat="48.83367" lon="-1.59044">
        <ele>20.2</ele>
        <time>2024-01-25T12:19:23Z</time>
      </trkpt>
      <trkpt lat="48.83365" lon="-1.5904">
        <ele>20.5</ele>
        <time>2024-01-25T12:19:24Z</time>
      </trkpt>
      <trkpt lat="48.83363" lon="-1.59034">
        <ele>20.8</ele>
        <time>2024-01-25T12:19:25Z</time>
      </trkpt>
      <trkpt lat="48.83362" lon="-1.59029">
        <ele>21.1</ele>
        <time>2024-01-25T12:19:26Z</time>
      </trkpt>
      <trkpt lat="48.83361" lon="-1.59023">
        <ele>21.4</ele>
        <time>2024-01-25T12:19:27Z</time>
      </trkpt>
      <trkpt lat="48.8336" lon="-1.59016">
        <ele>21.7</ele>
        <time>2024-01-25T12:19:28Z</time>
      </trkpt>
      <trkpt lat="48.83361" lon="-1.59009">
        <ele>22.1</ele>
        <time>2024-01-25T12:19:29Z</time>
      </trkpt>
      <trkpt lat="48.8336" lon="-1.59003">
        <ele>22.4</ele>
        <time>2024-01-25T12:19:30Z</time>
      </trkpt>
      <trkpt lat="48.83361" lon="-1.58997">
        <ele>22.7</ele>
        <time>2024-01-25T12:19:31Z</time>
      </trkpt>
      <trkpt lat="48.8336" lon="-1.5899">
        <ele>23</ele>
        <time>2024-01-25T12:19:32Z</time>
      </trkpt>
      <trkpt lat="48.8336" lon="-1.58985">
        <ele>23.3</ele>
        <time>2024-01-25T12:19:33Z</time>
      </trkpt>
      <trkpt lat="48.83362" lon="-1.58978">
        <ele>23.6</ele>
        <time>2024-01-25T12:19:34Z</time>
      </trkpt>
      <trkpt lat="48.83363" lon="-1.58974">
        <ele>23.9</ele>
        <time>2024-01-25T12:19:35Z</time>
      </trkpt>
      <trkpt lat="48.83365" lon="-1.58969">
        <ele>24.2</ele>
        <time>2024-01-25T12:19:36Z</time>
      </trkpt>
      <trkpt lat="48.83366" lon="-1.58964">
        <ele>24.4</ele>
        <time>2024-01-25T12:19:37Z</time>
      </trkpt>
      <trkpt lat="48.83368" lon="-1.5896">
        <ele>24.7</ele>
        <time>2024-01-25T12:19:38Z</time>
      </trkpt>
      <trkpt lat="48.83369" lon="-1.58955">
        <ele>25.1</ele>
        <time>2024-01-25T12:19:39Z</time>
      </trkpt>
      <trkpt lat="48.83371" lon="-1.58951">
        <ele>25.4</ele>
        <time>2024-01-25T12:19:40Z</time>
      </trkpt>
      <trkpt lat="48.83371" lon="-1.58946">
        <ele>25.7</ele>
        <time>2024-01-25T12:19:41Z</time>
      </trkpt>
      <trkpt lat="48.83373" lon="-1.58941">
        <ele>26</ele>
        <time>2024-01-25T12:19:42Z</time>
      </trkpt>
      <trkpt lat="48.83374" lon="-1.58936">
        <ele>26.3</ele>
        <time>2024-01-25T12:19:43Z</time>
      </trkpt>
      <trkpt lat="48.83375" lon="-1.58931">
        <ele>26.6</ele>
        <time>2024-01-25T12:19:44Z</time>
      </trkpt>
      <trkpt lat="48.83376" lon="-1.58929">
        <ele>26.8</ele>
        <time>2024-01-25T12:19:45Z</time>
      </trkpt>
      <trkpt lat="48.83378" lon="-1.58925">
        <ele>27</ele>
        <time>2024-01-25T12:19:46Z</time>
      </trkpt>
      <trkpt lat="48.83379" lon="-1.58921">
        <ele>27.3</ele>
        <time>2024-01-25T12:19:47Z</time>
      </trkpt>
      <trkpt lat="48.8338" lon="-1.58916">
        <ele>27.6</ele>
        <time>2024-01-25T12:19:48Z</time>
      </trkpt>
      <trkpt lat="48.8338" lon="-1.58911">
        <ele>27.8</ele>
        <time>2024-01-25T12:19:49Z</time>
      </trkpt>
      <trkpt lat="48.8338" lon="-1.58905">
        <ele>28.2</ele>
        <time>2024-01-25T12:19:50Z</time>
      </trkpt>
      <trkpt lat="48.83379" lon="-1.58903">
        <ele>28.3</ele>
        <time>2024-01-25T12:19:51Z</time>
      </trkpt>
      <trkpt lat="48.83379" lon="-1.58899">
        <ele>28.5</ele>
        <time>2024-01-25T12:19:52Z</time>
      </trkpt>
      <trkpt lat="48.83379" lon="-1.58894">
        <ele>28.8</ele>
        <time>2024-01-25T12:19:53Z</time>
      </trkpt>
      <trkpt lat="48.83379" lon="-1.58888">
        <ele>29.2</ele>
        <time>2024-01-25T12:19:54Z</time>
      </trkpt>
      <trkpt lat="48.83378" lon="-1.58885">
        <ele>29.3</ele>
        <time>2024-01-25T12:19:55Z</time>
      </trkpt>
      <trkpt lat="48.83378" lon="-1.58881">
        <ele>29.6</ele>
        <time>2024-01-25T12:19:56Z</time>
      </trkpt>
      <trkpt lat="48.83376" lon="-1.58877">
        <ele>29.8</ele>
        <time>2024-01-25T12:19:57Z</time>
      </trkpt>
      <trkpt lat="48.83375" lon="-1.58873">
        <ele>30.1</ele>
        <time>2024-01-25T12:19:58Z</time>
      </trkpt>
      <trkpt lat="48.83374" lon="-1.58869">
        <ele>30.3</ele>
        <time>2024-01-25T12:19:59Z</time>
      </trkpt>
      <trkpt lat="48.83372" lon="-1.58864">
        <ele>30.6</ele>
        <time>2024-01-25T12:20:00Z</time>
      </trkpt>
      <trkpt lat="48.8337" lon="-1.58859">
        <ele>31</ele>
        <time>2024-01-25T12:20:01Z</time>
      </trkpt>
      <trkpt lat="48.83368" lon="-1.58854">
        <ele>31.2</ele>
        <time>2024-01-25T12:20:02Z</time>
      </trkpt>
      <trkpt lat="48.83366" lon="-1.58848">
        <ele>31.6</ele>
        <time>2024-01-25T12:20:03Z</time>
      </trkpt>
      <trkpt lat="48.83364" lon="-1.58844">
        <ele>31.9</ele>
        <time>2024-01-25T12:20:04Z</time>
      </trkpt>
      <trkpt lat="48.83362" lon="-1.58834">
        <ele>32.4</ele>
        <time>2024-01-25T12:20:06Z</time>
      </trkpt>
      <trkpt lat="48.83361" lon="-1.58828">
        <ele>32.7</ele>
        <time>2024-01-25T12:20:07Z</time>
      </trkpt>
      <trkpt lat="48.83361" lon="-1.58827">
        <ele>32.8</ele>
        <time>2024-01-25T12:20:08Z</time>
      </trkpt>
      <trkpt lat="48.8336" lon="-1.58823">
        <ele>33</ele>
        <time>2024-01-25T12:20:09Z</time>
      </trkpt>
      <trkpt lat="48.8336" lon="-1.58816">
        <ele>33.3</ele>
        <time>2024-01-25T12:20:11Z</time>
      </trkpt>
      <trkpt lat="48.8336" lon="-1.5881">
        <ele>33.7</ele>
        <time>2024-01-25T12:20:12Z</time>
      </trkpt>
      <trkpt lat="48.8336" lon="-1.58804">
        <ele>34</ele>
        <time>2024-01-25T12:20:13Z</time>
      </trkpt>
      <trkpt lat="48.83359" lon="-1.58798">
        <ele>34.3</ele>
        <time>2024-01-25T12:20:14Z</time>
      </trkpt>
      <trkpt lat="48.83358" lon="-1.58792">
        <ele>34.6</ele>
        <time>2024-01-25T12:20:15Z</time>
      </trkpt>
      <trkpt lat="48.83357" lon="-1.58786">
        <ele>34.9</ele>
        <time>2024-01-25T12:20:16Z</time>
      </trkpt>
      <trkpt lat="48.83353" lon="-1.58776">
        <ele>35.5</ele>
        <time>2024-01-25T12:20:17Z</time>
      </trkpt>
      <trkpt lat="48.83351" lon="-1.58771">
        <ele>35.7</ele>
        <time>2024-01-25T12:20:18Z</time>
      </trkpt>
      <trkpt lat="48.83348" lon="-1.58763">
        <ele>36.2</ele>
        <time>2024-01-25T12:20:20Z</time>
      </trkpt>
      <trkpt lat="48.83346" lon="-1.58758">
        <ele>36.4</ele>
        <time>2024-01-25T12:20:21Z</time>
      </trkpt>
      <trkpt lat="48.83345" lon="-1.58754">
        <ele>36.6</ele>
        <time>2024-01-25T12:20:23Z</time>
      </trkpt>
      <trkpt lat="48.83344" lon="-1.58749">
        <ele>36.7</ele>
        <time>2024-01-25T12:20:24Z</time>
      </trkpt>
      <trkpt lat="48.83343" lon="-1.58742">
        <ele>36.9</ele>
        <time>2024-01-25T12:20:25Z</time>
      </trkpt>
      <trkpt lat="48.83341" lon="-1.58735">
        <ele>37</ele>
        <time>2024-01-25T12:20:26Z</time>
      </trkpt>
      <trkpt lat="48.8334" lon="-1.58733">
        <ele>37.1</ele>
        <time>2024-01-25T12:20:27Z</time>
      </trkpt>
      <trkpt lat="48.8334" lon="-1.58727">
        <ele>37.2</ele>
        <time>2024-01-25T12:20:28Z</time>
      </trkpt>
      <trkpt lat="48.8334" lon="-1.58723">
        <ele>37.3</ele>
        <time>2024-01-25T12:20:29Z</time>
      </trkpt>
      <trkpt lat="48.83339" lon="-1.58717">
        <ele>37.4</ele>
        <time>2024-01-25T12:20:30Z</time>
      </trkpt>
      <trkpt lat="48.83338" lon="-1.58712">
        <ele>37.5</ele>
        <time>2024-01-25T12:20:31Z</time>
      </trkpt>
      <trkpt lat="48.83337" lon="-1.58707">
        <ele>37.5</ele>
        <time>2024-01-25T12:20:32Z</time>
      </trkpt>
      <trkpt lat="48.83336" lon="-1.58701">
        <ele>37.5</ele>
        <time>2024-01-25T12:20:33Z</time>
      </trkpt>
      <trkpt lat="48.83335" lon="-1.58697">
        <ele>37.5</ele>
        <time>2024-01-25T12:20:34Z</time>
      </trkpt>
      <trkpt lat="48.83333" lon="-1.5869">
        <ele>37.6</ele>
        <time>2024-01-25T12:20:35Z</time>
      </trkpt>
      <trkpt lat="48.83332" lon="-1.58684">
        <ele>37.6</ele>
        <time>2024-01-25T12:20:36Z</time>
      </trkpt>
      <trkpt lat="48.8333" lon="-1.5868">
        <ele>37.6</ele>
        <time>2024-01-25T12:20:37Z</time>
      </trkpt>
      <trkpt lat="48.83329" lon="-1.58674">
        <ele>37.6</ele>
        <time>2024-01-25T12:20:38Z</time>
      </trkpt>
      <trkpt lat="48.83328" lon="-1.58668">
        <ele>37.6</ele>
        <time>2024-01-25T12:20:39Z</time>
      </trkpt>
      <trkpt lat="48.83325" lon="-1.58661">
        <ele>37.5</ele>
        <time>2024-01-25T12:20:40Z</time>
      </trkpt>
      <trkpt lat="48.83323" lon="-1.58654">
        <ele>37.5</ele>
        <time>2024-01-25T12:20:41Z</time>
      </trkpt>
      <trkpt lat="48.83321" lon="-1.58646">
        <ele>37.5</ele>
        <time>2024-01-25T12:20:42Z</time>
      </trkpt>
      <trkpt lat="48.83319" lon="-1.5864">
        <ele>37.4</ele>
        <time>2024-01-25T12:20:43Z</time>
      </trkpt>
      <trkpt lat="48.83315" lon="-1.5863">
        <ele>37.4</ele>
        <time>2024-01-25T12:20:44Z</time>
      </trkpt>
      <trkpt lat="48.83312" lon="-1.58622">
        <ele>37.3</ele>
        <time>2024-01-25T12:20:45Z</time>
      </trkpt>
      <trkpt lat="48.83309" lon="-1.58614">
        <ele>37.2</ele>
        <time>2024-01-25T12:20:46Z</time>
      </trkpt>
      <trkpt lat="48.83307" lon="-1.58607">
        <ele>37.1</ele>
        <time>2024-01-25T12:20:47Z</time>
      </trkpt>
      <trkpt lat="48.83303" lon="-1.58595">
        <ele>36.9</ele>
        <time>2024-01-25T12:20:48Z</time>
      </trkpt>
      <trkpt lat="48.83301" lon="-1.58586">
        <ele>36.8</ele>
        <time>2024-01-25T12:20:49Z</time>
      </trkpt>
      <trkpt lat="48.83299" lon="-1.58577">
        <ele>36.7</ele>
        <time>2024-01-25T12:20:50Z</time>
      </trkpt>
      <trkpt lat="48.83297" lon="-1.58568">
        <ele>36.5</ele>
        <time>2024-01-25T12:20:51Z</time>
      </trkpt>
      <trkpt lat="48.83295" lon="-1.58558">
        <ele>36.3</ele>
        <time>2024-01-25T12:20:52Z</time>
      </trkpt>
      <trkpt lat="48.83292" lon="-1.58548">
        <ele>36.1</ele>
        <time>2024-01-25T12:20:53Z</time>
      </trkpt>
      <trkpt lat="48.83289" lon="-1.58538">
        <ele>35.8</ele>
        <time>2024-01-25T12:20:54Z</time>
      </trkpt>
      <trkpt lat="48.83286" lon="-1.58529">
        <ele>35.4</ele>
        <time>2024-01-25T12:20:55Z</time>
      </trkpt>
      <trkpt lat="48.83282" lon="-1.5852">
        <ele>35.1</ele>
        <time>2024-01-25T12:20:56Z</time>
      </trkpt>
      <trkpt lat="48.83277" lon="-1.5851">
        <ele>34.6</ele>
        <time>2024-01-25T12:20:57Z</time>
      </trkpt>
      <trkpt lat="48.83271" lon="-1.58501">
        <ele>34.1</ele>
        <time>2024-01-25T12:20:58Z</time>
      </trkpt>
      <trkpt lat="48.83265" lon="-1.58492">
        <ele>33.5</ele>
        <time>2024-01-25T12:20:59Z</time>
      </trkpt>
      <trkpt lat="48.83258" lon="-1.58483">
        <ele>32.9</ele>
        <time>2024-01-25T12:21:00Z</time>
      </trkpt>
      <trkpt lat="48.83251" lon="-1.58474">
        <ele>32.3</ele>
        <time>2024-01-25T12:21:01Z</time>
      </trkpt>
      <trkpt lat="48.83245" lon="-1.58465">
        <ele>31.7</ele>
        <time>2024-01-25T12:21:02Z</time>
      </trkpt>
      <trkpt lat="48.83238" lon="-1.58456">
        <ele>31.1</ele>
        <time>2024-01-25T12:21:03Z</time>
      </trkpt>
      <trkpt lat="48.83232" lon="-1.58445">
        <ele>30.4</ele>
        <time>2024-01-25T12:21:04Z</time>
      </trkpt>
      <trkpt lat="48.83226" lon="-1.58435">
        <ele>29.8</ele>
        <time>2024-01-25T12:21:05Z</time>
      </trkpt>
      <trkpt lat="48.8322" lon="-1.58425">
        <ele>29.2</ele>
        <time>2024-01-25T12:21:06Z</time>
      </trkpt>
      <trkpt lat="48.83213" lon="-1.58415">
        <ele>28.5</ele>
        <time>2024-01-25T12:21:07Z</time>
      </trkpt>
      <trkpt lat="48.83206" lon="-1.58405">
        <ele>27.9</ele>
        <time>2024-01-25T12:21:08Z</time>
      </trkpt>
      <trkpt lat="48.83199" lon="-1.58394">
        <ele>27.3</ele>
        <time>2024-01-25T12:21:09Z</time>
      </trkpt>
      <trkpt lat="48.83194" lon="-1.58382">
        <ele>26.7</ele>
        <time>2024-01-25T12:21:10Z</time>
      </trkpt>
      <trkpt lat="48.83188" lon="-1.5837">
        <ele>26.1</ele>
        <time>2024-01-25T12:21:11Z</time>
      </trkpt>
      <trkpt lat="48.83182" lon="-1.58357">
        <ele>25.7</ele>
        <time>2024-01-25T12:21:12Z</time>
      </trkpt>
      <trkpt lat="48.83177" lon="-1.58344">
        <ele>25.2</ele>
        <time>2024-01-25T12:21:13Z</time>
      </trkpt>
      <trkpt lat="48.83173" lon="-1.58331">
        <ele>24.7</ele>
        <time>2024-01-25T12:21:14Z</time>
      </trkpt>
      <trkpt lat="48.83169" lon="-1.58318">
        <ele>24.3</ele>
        <time>2024-01-25T12:21:15Z</time>
      </trkpt>
      <trkpt lat="48.83165" lon="-1.58305">
        <ele>23.8</ele>
        <time>2024-01-25T12:21:16Z</time>
      </trkpt>
      <trkpt lat="48.8316" lon="-1.58293">
        <ele>23.5</ele>
        <time>2024-01-25T12:21:17Z</time>
      </trkpt>
      <trkpt lat="48.83155" lon="-1.58281">
        <ele>23.3</ele>
        <time>2024-01-25T12:21:18Z</time>
      </trkpt>
      <trkpt lat="48.8315" lon="-1.58269">
        <ele>22.8</ele>
        <time>2024-01-25T12:21:19Z</time>
      </trkpt>
      <trkpt lat="48.83146" lon="-1.58257">
        <ele>22.3</ele>
        <time>2024-01-25T12:21:20Z</time>
      </trkpt>
      <trkpt lat="48.8314" lon="-1.58246">
        <ele>21.9</ele>
        <time>2024-01-25T12:21:21Z</time>
      </trkpt>
      <trkpt lat="48.83133" lon="-1.58237">
        <ele>21.6</ele>
        <time>2024-01-25T12:21:22Z</time>
      </trkpt>
      <trkpt lat="48.83126" lon="-1.58229">
        <ele>21.5</ele>
        <time>2024-01-25T12:21:23Z</time>
      </trkpt>
      <trkpt lat="48.83118" lon="-1.5822">
        <ele>21.4</ele>
        <time>2024-01-25T12:21:24Z</time>
      </trkpt>
      <trkpt lat="48.8311" lon="-1.58212">
        <ele>21.5</ele>
        <time>2024-01-25T12:21:25Z</time>
      </trkpt>
      <trkpt lat="48.83102" lon="-1.58204">
        <ele>21.8</ele>
        <time>2024-01-25T12:21:26Z</time>
      </trkpt>
      <trkpt lat="48.83095" lon="-1.58197">
        <ele>21.8</ele>
        <time>2024-01-25T12:21:27Z</time>
      </trkpt>
      <trkpt lat="48.83088" lon="-1.58191">
        <ele>22.1</ele>
        <time>2024-01-25T12:21:28Z</time>
      </trkpt>
      <trkpt lat="48.8308" lon="-1.58185">
        <ele>22.4</ele>
        <time>2024-01-25T12:21:29Z</time>
      </trkpt>
      <trkpt lat="48.83074" lon="-1.5818">
        <ele>22.7</ele>
        <time>2024-01-25T12:21:30Z</time>
      </trkpt>
      <trkpt lat="48.83069" lon="-1.58175">
        <ele>23</ele>
        <time>2024-01-25T12:21:31Z</time>
      </trkpt>
      <trkpt lat="48.83063" lon="-1.5817">
        <ele>23.3</ele>
        <time>2024-01-25T12:21:32Z</time>
      </trkpt>
      <trkpt lat="48.83058" lon="-1.58165">
        <ele>23.7</ele>
        <time>2024-01-25T12:21:33Z</time>
      </trkpt>
      <trkpt lat="48.83052" lon="-1.58161">
        <ele>24.1</ele>
        <time>2024-01-25T12:21:34Z</time>
      </trkpt>
      <trkpt lat="48.83047" lon="-1.58158">
        <ele>24.4</ele>
        <time>2024-01-25T12:21:35Z</time>
      </trkpt>
      <trkpt lat="48.83042" lon="-1.58154">
        <ele>24.7</ele>
        <time>2024-01-25T12:21:36Z</time>
      </trkpt>
      <trkpt lat="48.83038" lon="-1.58152">
        <ele>25</ele>
        <time>2024-01-25T12:21:37Z</time>
      </trkpt>
      <trkpt lat="48.83034" lon="-1.5815">
        <ele>25.2</ele>
        <time>2024-01-25T12:21:38Z</time>
      </trkpt>
      <trkpt lat="48.83031" lon="-1.5815">
        <ele>25.4</ele>
        <time>2024-01-25T12:21:39Z</time>
      </trkpt>
      <trkpt lat="48.83027" lon="-1.58149">
        <ele>25.7</ele>
        <time>2024-01-25T12:21:40Z</time>
      </trkpt>
      <trkpt lat="48.83024" lon="-1.58148">
        <ele>26</ele>
        <time>2024-01-25T12:21:41Z</time>
      </trkpt>
      <trkpt lat="48.83021" lon="-1.58147">
        <ele>26.3</ele>
        <time>2024-01-25T12:21:42Z</time>
      </trkpt>
      <trkpt lat="48.83016" lon="-1.58143">
        <ele>26.7</ele>
        <time>2024-01-25T12:21:43Z</time>
      </trkpt>
      <trkpt lat="48.83013" lon="-1.5814">
        <ele>27.1</ele>
        <time>2024-01-25T12:21:44Z</time>
      </trkpt>
      <trkpt lat="48.8301" lon="-1.58137">
        <ele>27.4</ele>
        <time>2024-01-25T12:21:45Z</time>
      </trkpt>
      <trkpt lat="48.83008" lon="-1.58134">
        <ele>27.7</ele>
        <time>2024-01-25T12:21:46Z</time>
      </trkpt>
      <trkpt lat="48.83005" lon="-1.58131">
        <ele>28</ele>
        <time>2024-01-25T12:21:47Z</time>
      </trkpt>
      <trkpt lat="48.83002" lon="-1.58127">
        <ele>28.4</ele>
        <time>2024-01-25T12:21:48Z</time>
      </trkpt>
      <trkpt lat="48.82999" lon="-1.58124">
        <ele>28.7</ele>
        <time>2024-01-25T12:21:49Z</time>
      </trkpt>
      <trkpt lat="48.82996" lon="-1.5812">
        <ele>29.1</ele>
        <time>2024-01-25T12:21:50Z</time>
      </trkpt>
      <trkpt lat="48.82993" lon="-1.58118">
        <ele>29.4</ele>
        <time>2024-01-25T12:21:51Z</time>
      </trkpt>
      <trkpt lat="48.8299" lon="-1.58115">
        <ele>29.8</ele>
        <time>2024-01-25T12:21:52Z</time>
      </trkpt>
      <trkpt lat="48.82986" lon="-1.58112">
        <ele>30.2</ele>
        <time>2024-01-25T12:21:53Z</time>
      </trkpt>
      <trkpt lat="48.82983" lon="-1.5811">
        <ele>30.5</ele>
        <time>2024-01-25T12:21:54Z</time>
      </trkpt>
      <trkpt lat="48.82979" lon="-1.58108">
        <ele>30.9</ele>
        <time>2024-01-25T12:21:55Z</time>
      </trkpt>
      <trkpt lat="48.82975" lon="-1.58106">
        <ele>31.4</ele>
        <time>2024-01-25T12:21:56Z</time>
      </trkpt>
      <trkpt lat="48.82972" lon="-1.58103">
        <ele>31.7</ele>
        <time>2024-01-25T12:21:57Z</time>
      </trkpt>
      <trkpt lat="48.82968" lon="-1.58101">
        <ele>32.1</ele>
        <time>2024-01-25T12:21:58Z</time>
      </trkpt>
      <trkpt lat="48.82965" lon="-1.58099">
        <ele>32.4</ele>
        <time>2024-01-25T12:21:59Z</time>
      </trkpt>
      <trkpt lat="48.82962" lon="-1.58096">
        <ele>32.8</ele>
        <time>2024-01-25T12:22:00Z</time>
      </trkpt>
      <trkpt lat="48.82958" lon="-1.58093">
        <ele>33</ele>
        <time>2024-01-25T12:22:01Z</time>
      </trkpt>
      <trkpt lat="48.82956" lon="-1.5809">
        <ele>33.1</ele>
        <time>2024-01-25T12:22:02Z</time>
      </trkpt>
      <trkpt lat="48.82954" lon="-1.58088">
        <ele>33.3</ele>
        <time>2024-01-25T12:22:03Z</time>
      </trkpt>
      <trkpt lat="48.82951" lon="-1.58085">
        <ele>33.4</ele>
        <time>2024-01-25T12:22:04Z</time>
      </trkpt>
      <trkpt lat="48.82947" lon="-1.58084">
        <ele>33.6</ele>
        <time>2024-01-25T12:22:05Z</time>
      </trkpt>
      <trkpt lat="48.82943" lon="-1.58083">
        <ele>33.9</ele>
        <time>2024-01-25T12:22:06Z</time>
      </trkpt>
      <trkpt lat="48.82939" lon="-1.58082">
        <ele>34.2</ele>
        <time>2024-01-25T12:22:07Z</time>
      </trkpt>
      <trkpt lat="48.82936" lon="-1.58081">
        <ele>34.5</ele>
        <time>2024-01-25T12:22:08Z</time>
      </trkpt>
      <trkpt lat="48.82933" lon="-1.58079">
        <ele>34.7</ele>
        <time>2024-01-25T12:22:09Z</time>
      </trkpt>
      <trkpt lat="48.8293" lon="-1.58077">
        <ele>35</ele>
        <time>2024-01-25T12:22:10Z</time>
      </trkpt>
      <trkpt lat="48.82927" lon="-1.58074">
        <ele>35.2</ele>
        <time>2024-01-25T12:22:11Z</time>
      </trkpt>
      <trkpt lat="48.82925" lon="-1.58071">
        <ele>35.5</ele>
        <time>2024-01-25T12:22:12Z</time>
      </trkpt>
      <trkpt lat="48.82924" lon="-1.58067">
        <ele>35.7</ele>
        <time>2024-01-25T12:22:13Z</time>
      </trkpt>
      <trkpt lat="48.82922" lon="-1.58063">
        <ele>35.9</ele>
        <time>2024-01-25T12:22:14Z</time>
      </trkpt>
      <trkpt lat="48.8292" lon="-1.58059">
        <ele>36.1</ele>
        <time>2024-01-25T12:22:15Z</time>
      </trkpt>
      <trkpt lat="48.82918" lon="-1.58054">
        <ele>36.4</ele>
        <time>2024-01-25T12:22:16Z</time>
      </trkpt>
      <trkpt lat="48.82916" lon="-1.5805">
        <ele>36.6</ele>
        <time>2024-01-25T12:22:17Z</time>
      </trkpt>
      <trkpt lat="48.82913" lon="-1.58044">
        <ele>36.9</ele>
        <time>2024-01-25T12:22:19Z</time>
      </trkpt>
      <trkpt lat="48.8291" lon="-1.5804">
        <ele>37.1</ele>
        <time>2024-01-25T12:22:20Z</time>
      </trkpt>
      <trkpt lat="48.82908" lon="-1.58036">
        <ele>37.2</ele>
        <time>2024-01-25T12:22:21Z</time>
      </trkpt>
      <trkpt lat="48.82905" lon="-1.58031">
        <ele>37.4</ele>
        <time>2024-01-25T12:22:22Z</time>
      </trkpt>
      <trkpt lat="48.82902" lon="-1.58027">
        <ele>37.5</ele>
        <time>2024-01-25T12:22:23Z</time>
      </trkpt>
      <trkpt lat="48.82899" lon="-1.58022">
        <ele>37.6</ele>
        <time>2024-01-25T12:22:24Z</time>
      </trkpt>
      <trkpt lat="48.82895" lon="-1.58018">
        <ele>37.7</ele>
        <time>2024-01-25T12:22:25Z</time>
      </trkpt>
      <trkpt lat="48.8289" lon="-1.5801">
        <ele>37.7</ele>
        <time>2024-01-25T12:22:26Z</time>
      </trkpt>
      <trkpt lat="48.82886" lon="-1.58005">
        <ele>37.8</ele>
        <time>2024-01-25T12:22:27Z</time>
      </trkpt>
      <trkpt lat="48.82883" lon="-1.58">
        <ele>37.8</ele>
        <time>2024-01-25T12:22:28Z</time>
      </trkpt>
      <trkpt lat="48.8288" lon="-1.57996">
        <ele>37.9</ele>
        <time>2024-01-25T12:22:29Z</time>
      </trkpt>
      <trkpt lat="48.82878" lon="-1.57992">
        <ele>37.9</ele>
        <time>2024-01-25T12:22:30Z</time>
      </trkpt>
      <trkpt lat="48.82875" lon="-1.57988">
        <ele>37.9</ele>
        <time>2024-01-25T12:22:31Z</time>
      </trkpt>
      <trkpt lat="48.82873" lon="-1.57983">
        <ele>37.9</ele>
        <time>2024-01-25T12:22:32Z</time>
      </trkpt>
      <trkpt lat="48.82871" lon="-1.5798">
        <ele>37.9</ele>
        <time>2024-01-25T12:22:33Z</time>
      </trkpt>
      <trkpt lat="48.82868" lon="-1.57976">
        <ele>37.9</ele>
        <time>2024-01-25T12:22:34Z</time>
      </trkpt>
      <trkpt lat="48.82864" lon="-1.57973">
        <ele>37.9</ele>
        <time>2024-01-25T12:22:35Z</time>
      </trkpt>
      <trkpt lat="48.82859" lon="-1.57969">
        <ele>37.9</ele>
        <time>2024-01-25T12:22:36Z</time>
      </trkpt>
      <trkpt lat="48.82854" lon="-1.57965">
        <ele>37.9</ele>
        <time>2024-01-25T12:22:37Z</time>
      </trkpt>
      <trkpt lat="48.82849" lon="-1.57961">
        <ele>37.9</ele>
        <time>2024-01-25T12:22:38Z</time>
      </trkpt>
      <trkpt lat="48.82844" lon="-1.57958">
        <ele>37.9</ele>
        <time>2024-01-25T12:22:39Z</time>
      </trkpt>
      <trkpt lat="48.82839" lon="-1.57954">
        <ele>37.9</ele>
        <time>2024-01-25T12:22:40Z</time>
      </trkpt>
      <trkpt lat="48.82834" lon="-1.57951">
        <ele>37.8</ele>
        <time>2024-01-25T12:22:41Z</time>
      </trkpt>
      <trkpt lat="48.82829" lon="-1.57947">
        <ele>37.8</ele>
        <time>2024-01-25T12:22:42Z</time>
      </trkpt>
      <trkpt lat="48.82824" lon="-1.57942">
        <ele>37.8</ele>
        <time>2024-01-25T12:22:43Z</time>
      </trkpt>
      <trkpt lat="48.8282" lon="-1.57938">
        <ele>37.7</ele>
        <time>2024-01-25T12:22:44Z</time>
      </trkpt>
      <trkpt lat="48.82815" lon="-1.57933">
        <ele>37.6</ele>
        <time>2024-01-25T12:22:45Z</time>
      </trkpt>
      <trkpt lat="48.82811" lon="-1.57928">
        <ele>37.5</ele>
        <time>2024-01-25T12:22:46Z</time>
      </trkpt>
      <trkpt lat="48.82807" lon="-1.57923">
        <ele>37.4</ele>
        <time>2024-01-25T12:22:47Z</time>
      </trkpt>
      <trkpt lat="48.82802" lon="-1.57918">
        <ele>37.3</ele>
        <time>2024-01-25T12:22:48Z</time>
      </trkpt>
      <trkpt lat="48.82797" lon="-1.57913">
        <ele>37.1</ele>
        <time>2024-01-25T12:22:49Z</time>
      </trkpt>
      <trkpt lat="48.82792" lon="-1.57908">
        <ele>37</ele>
        <time>2024-01-25T12:22:50Z</time>
      </trkpt>
      <trkpt lat="48.82786" lon="-1.57904">
        <ele>36.8</ele>
        <time>2024-01-25T12:22:51Z</time>
      </trkpt>
      <trkpt lat="48.8278" lon="-1.57901">
        <ele>36.6</ele>
        <time>2024-01-25T12:22:52Z</time>
      </trkpt>
      <trkpt lat="48.82773" lon="-1.57896">
        <ele>36.4</ele>
        <time>2024-01-25T12:22:53Z</time>
      </trkpt>
      <trkpt lat="48.82766" lon="-1.57893">
        <ele>36</ele>
        <time>2024-01-25T12:22:54Z</time>
      </trkpt>
      <trkpt lat="48.82758" lon="-1.57889">
        <ele>35.6</ele>
        <time>2024-01-25T12:22:55Z</time>
      </trkpt>
      <trkpt lat="48.8275" lon="-1.57885">
        <ele>35.2</ele>
        <time>2024-01-25T12:22:56Z</time>
      </trkpt>
      <trkpt lat="48.82743" lon="-1.57881">
        <ele>34.7</ele>
        <time>2024-01-25T12:22:57Z</time>
      </trkpt>
      <trkpt lat="48.82735" lon="-1.57876">
        <ele>34.2</ele>
        <time>2024-01-25T12:22:58Z</time>
      </trkpt>
      <trkpt lat="48.82726" lon="-1.57871">
        <ele>33.6</ele>
        <time>2024-01-25T12:22:59Z</time>
      </trkpt>
      <trkpt lat="48.82718" lon="-1.57866">
        <ele>33</ele>
        <time>2024-01-25T12:23:00Z</time>
      </trkpt>
      <trkpt lat="48.8271" lon="-1.57861">
        <ele>32.4</ele>
        <time>2024-01-25T12:23:01Z</time>
      </trkpt>
      <trkpt lat="48.82701" lon="-1.57856">
        <ele>31.8</ele>
        <time>2024-01-25T12:23:02Z</time>
      </trkpt>
      <trkpt lat="48.82693" lon="-1.5785">
        <ele>31.1</ele>
        <time>2024-01-25T12:23:03Z</time>
      </trkpt>
      <trkpt lat="48.82684" lon="-1.57845">
        <ele>30.4</ele>
        <time>2024-01-25T12:23:04Z</time>
      </trkpt>
      <trkpt lat="48.82675" lon="-1.57839">
        <ele>29.8</ele>
        <time>2024-01-25T12:23:05Z</time>
      </trkpt>
      <trkpt lat="48.82667" lon="-1.57835">
        <ele>29.2</ele>
        <time>2024-01-25T12:23:06Z</time>
      </trkpt>
      <trkpt lat="48.82658" lon="-1.5783">
        <ele>28.6</ele>
        <time>2024-01-25T12:23:07Z</time>
      </trkpt>
      <trkpt lat="48.82649" lon="-1.57825">
        <ele>28</ele>
        <time>2024-01-25T12:23:08Z</time>
      </trkpt>
      <trkpt lat="48.8264" lon="-1.57821">
        <ele>27.4</ele>
        <time>2024-01-25T12:23:09Z</time>
      </trkpt>
      <trkpt lat="48.82631" lon="-1.57816">
        <ele>26.9</ele>
        <time>2024-01-25T12:23:10Z</time>
      </trkpt>
      <trkpt lat="48.82622" lon="-1.57811">
        <ele>26.3</ele>
        <time>2024-01-25T12:23:11Z</time>
      </trkpt>
      <trkpt lat="48.82613" lon="-1.57806">
        <ele>25.8</ele>
        <time>2024-01-25T12:23:12Z</time>
      </trkpt>
      <trkpt lat="48.82605" lon="-1.578">
        <ele>25.3</ele>
        <time>2024-01-25T12:23:13Z</time>
      </trkpt>
      <trkpt lat="48.82596" lon="-1.57794">
        <ele>24.9</ele>
        <time>2024-01-25T12:23:14Z</time>
      </trkpt>
      <trkpt lat="48.82587" lon="-1.57787">
        <ele>24.6</ele>
        <time>2024-01-25T12:23:15Z</time>
      </trkpt>
      <trkpt lat="48.82579" lon="-1.5778">
        <ele>24.4</ele>
        <time>2024-01-25T12:23:16Z</time>
      </trkpt>
      <trkpt lat="48.8257" lon="-1.57772">
        <ele>24.2</ele>
        <time>2024-01-25T12:23:17Z</time>
      </trkpt>
      <trkpt lat="48.82562" lon="-1.57764">
        <ele>24.1</ele>
        <time>2024-01-25T12:23:18Z</time>
      </trkpt>
      <trkpt lat="48.82555" lon="-1.57756">
        <ele>24</ele>
        <time>2024-01-25T12:23:19Z</time>
      </trkpt>
      <trkpt lat="48.82547" lon="-1.5775">
        <ele>23.9</ele>
        <time>2024-01-25T12:23:20Z</time>
      </trkpt>
      <trkpt lat="48.8254" lon="-1.57743">
        <ele>23.9</ele>
        <time>2024-01-25T12:23:21Z</time>
      </trkpt>
      <trkpt lat="48.82534" lon="-1.57736">
        <ele>23.9</ele>
        <time>2024-01-25T12:23:22Z</time>
      </trkpt>
      <trkpt lat="48.82527" lon="-1.5773">
        <ele>23.9</ele>
        <time>2024-01-25T12:23:23Z</time>
      </trkpt>
      <trkpt lat="48.82521" lon="-1.57724">
        <ele>24</ele>
        <time>2024-01-25T12:23:24Z</time>
      </trkpt>
      <trkpt lat="48.82514" lon="-1.57718">
        <ele>24.2</ele>
        <time>2024-01-25T12:23:25Z</time>
      </trkpt>
      <trkpt lat="48.82508" lon="-1.57712">
        <ele>24.3</ele>
        <time>2024-01-25T12:23:26Z</time>
      </trkpt>
      <trkpt lat="48.82502" lon="-1.57706">
        <ele>24.4</ele>
        <time>2024-01-25T12:23:27Z</time>
      </trkpt>
      <trkpt lat="48.82496" lon="-1.577">
        <ele>24.6</ele>
        <time>2024-01-25T12:23:28Z</time>
      </trkpt>
      <trkpt lat="48.82491" lon="-1.57695">
        <ele>24.7</ele>
        <time>2024-01-25T12:23:29Z</time>
      </trkpt>
      <trkpt lat="48.82485" lon="-1.5769">
        <ele>24.9</ele>
        <time>2024-01-25T12:23:30Z</time>
      </trkpt>
      <trkpt lat="48.82481" lon="-1.57685">
        <ele>25</ele>
        <time>2024-01-25T12:23:31Z</time>
      </trkpt>
      <trkpt lat="48.82476" lon="-1.57679">
        <ele>25.2</ele>
        <time>2024-01-25T12:23:32Z</time>
      </trkpt>
      <trkpt lat="48.82472" lon="-1.57673">
        <ele>25.3</ele>
        <time>2024-01-25T12:23:33Z</time>
      </trkpt>
      <trkpt lat="48.82469" lon="-1.57668">
        <ele>25.3</ele>
        <time>2024-01-25T12:23:34Z</time>
      </trkpt>
      <trkpt lat="48.82465" lon="-1.57662">
        <ele>25.4</ele>
        <time>2024-01-25T12:23:35Z</time>
      </trkpt>
      <trkpt lat="48.82462" lon="-1.57655">
        <ele>25.5</ele>
        <time>2024-01-25T12:23:36Z</time>
      </trkpt>
      <trkpt lat="48.82458" lon="-1.5765">
        <ele>25.6</ele>
        <time>2024-01-25T12:23:37Z</time>
      </trkpt>
      <trkpt lat="48.82455" lon="-1.57644">
        <ele>25.7</ele>
        <time>2024-01-25T12:23:38Z</time>
      </trkpt>
      <trkpt lat="48.82451" lon="-1.57638">
        <ele>25.8</ele>
        <time>2024-01-25T12:23:39Z</time>
      </trkpt>
      <trkpt lat="48.82447" lon="-1.57633">
        <ele>25.8</ele>
        <time>2024-01-25T12:23:40Z</time>
      </trkpt>
      <trkpt lat="48.82443" lon="-1.57627">
        <ele>25.9</ele>
        <time>2024-01-25T12:23:41Z</time>
      </trkpt>
      <trkpt lat="48.82439" lon="-1.57621">
        <ele>25.9</ele>
        <time>2024-01-25T12:23:42Z</time>
      </trkpt>
      <trkpt lat="48.82435" lon="-1.57616">
        <ele>25.9</ele>
        <time>2024-01-25T12:23:43Z</time>
      </trkpt>
      <trkpt lat="48.82431" lon="-1.5761">
        <ele>26</ele>
        <time>2024-01-25T12:23:44Z</time>
      </trkpt>
      <trkpt lat="48.82427" lon="-1.57604">
        <ele>26</ele>
        <time>2024-01-25T12:23:45Z</time>
      </trkpt>
      <trkpt lat="48.82423" lon="-1.57599">
        <ele>26.1</ele>
        <time>2024-01-25T12:23:46Z</time>
      </trkpt>
      <trkpt lat="48.82419" lon="-1.57593">
        <ele>26.1</ele>
        <time>2024-01-25T12:23:47Z</time>
      </trkpt>
      <trkpt lat="48.82415" lon="-1.57587">
        <ele>26.2</ele>
        <time>2024-01-25T12:23:48Z</time>
      </trkpt>
      <trkpt lat="48.82411" lon="-1.5758">
        <ele>26.2</ele>
        <time>2024-01-25T12:23:49Z</time>
      </trkpt>
      <trkpt lat="48.82406" lon="-1.57574">
        <ele>26.2</ele>
        <time>2024-01-25T12:23:50Z</time>
      </trkpt>
      <trkpt lat="48.82402" lon="-1.57568">
        <ele>26.2</ele>
        <time>2024-01-25T12:23:51Z</time>
      </trkpt>
      <trkpt lat="48.82397" lon="-1.57561">
        <ele>26.3</ele>
        <time>2024-01-25T12:23:52Z</time>
      </trkpt>
      <trkpt lat="48.82393" lon="-1.57555">
        <ele>26.3</ele>
        <time>2024-01-25T12:23:53Z</time>
      </trkpt>
      <trkpt lat="48.82389" lon="-1.5755">
        <ele>26.4</ele>
        <time>2024-01-25T12:23:54Z</time>
      </trkpt>
      <trkpt lat="48.82385" lon="-1.57545">
        <ele>26.4</ele>
        <time>2024-01-25T12:23:55Z</time>
      </trkpt>
      <trkpt lat="48.8238" lon="-1.5754">
        <ele>26.4</ele>
        <time>2024-01-25T12:23:56Z</time>
      </trkpt>
      <trkpt lat="48.82375" lon="-1.57536">
        <ele>26.5</ele>
        <time>2024-01-25T12:23:57Z</time>
      </trkpt>
      <trkpt lat="48.8237" lon="-1.57531">
        <ele>26.5</ele>
        <time>2024-01-25T12:23:58Z</time>
      </trkpt>
      <trkpt lat="48.82366" lon="-1.57527">
        <ele>26.6</ele>
        <time>2024-01-25T12:23:59Z</time>
      </trkpt>
      <trkpt lat="48.82361" lon="-1.57524">
        <ele>26.6</ele>
        <time>2024-01-25T12:24:00Z</time>
      </trkpt>
      <trkpt lat="48.82357" lon="-1.5752">
        <ele>26.6</ele>
        <time>2024-01-25T12:24:01Z</time>
      </trkpt>
      <trkpt lat="48.82352" lon="-1.57517">
        <ele>26.7</ele>
        <time>2024-01-25T12:24:02Z</time>
      </trkpt>
      <trkpt lat="48.82347" lon="-1.57515">
        <ele>26.7</ele>
        <time>2024-01-25T12:24:03Z</time>
      </trkpt>
      <trkpt lat="48.82342" lon="-1.57512">
        <ele>26.7</ele>
        <time>2024-01-25T12:24:04Z</time>
      </trkpt>
      <trkpt lat="48.82338" lon="-1.57509">
        <ele>26.7</ele>
        <time>2024-01-25T12:24:05Z</time>
      </trkpt>
      <trkpt lat="48.82333" lon="-1.57506">
        <ele>26.7</ele>
        <time>2024-01-25T12:24:06Z</time>
      </trkpt>
      <trkpt lat="48.82327" lon="-1.57504">
        <ele>26.7</ele>
        <time>2024-01-25T12:24:07Z</time>
      </trkpt>
      <trkpt lat="48.82321" lon="-1.57502">
        <ele>26.7</ele>
        <time>2024-01-25T12:24:08Z</time>
      </trkpt>
      <trkpt lat="48.82316" lon="-1.57499">
        <ele>26.7</ele>
        <time>2024-01-25T12:24:09Z</time>
      </trkpt>
      <trkpt lat="48.82311" lon="-1.57496">
        <ele>26.7</ele>
        <time>2024-01-25T12:24:10Z</time>
      </trkpt>
      <trkpt lat="48.82305" lon="-1.57493">
        <ele>26.6</ele>
        <time>2024-01-25T12:24:11Z</time>
      </trkpt>
      <trkpt lat="48.823" lon="-1.57491">
        <ele>26.6</ele>
        <time>2024-01-25T12:24:12Z</time>
      </trkpt>
      <trkpt lat="48.82295" lon="-1.57489">
        <ele>26.4</ele>
        <time>2024-01-25T12:24:13Z</time>
      </trkpt>
      <trkpt lat="48.8229" lon="-1.57487">
        <ele>26.3</ele>
        <time>2024-01-25T12:24:14Z</time>
      </trkpt>
      <trkpt lat="48.82285" lon="-1.57484">
        <ele>26.1</ele>
        <time>2024-01-25T12:24:15Z</time>
      </trkpt>
      <trkpt lat="48.8228" lon="-1.57481">
        <ele>25.8</ele>
        <time>2024-01-25T12:24:16Z</time>
      </trkpt>
      <trkpt lat="48.82275" lon="-1.57479">
        <ele>25.6</ele>
        <time>2024-01-25T12:24:17Z</time>
      </trkpt>
      <trkpt lat="48.82269" lon="-1.57476">
        <ele>25.3</ele>
        <time>2024-01-25T12:24:18Z</time>
      </trkpt>
      <trkpt lat="48.82264" lon="-1.57474">
        <ele>24.9</ele>
        <time>2024-01-25T12:24:19Z</time>
      </trkpt>
      <trkpt lat="48.82258" lon="-1.5747">
        <ele>24.5</ele>
        <time>2024-01-25T12:24:20Z</time>
      </trkpt>
      <trkpt lat="48.82253" lon="-1.57466">
        <ele>24</ele>
        <time>2024-01-25T12:24:21Z</time>
      </trkpt>
      <trkpt lat="48.82247" lon="-1.57462">
        <ele>23.6</ele>
        <time>2024-01-25T12:24:22Z</time>
      </trkpt>
      <trkpt lat="48.82241" lon="-1.57458">
        <ele>23.1</ele>
        <time>2024-01-25T12:24:23Z</time>
      </trkpt>
      <trkpt lat="48.82234" lon="-1.57454">
        <ele>22.6</ele>
        <time>2024-01-25T12:24:24Z</time>
      </trkpt>
      <trkpt lat="48.82228" lon="-1.57449">
        <ele>22.1</ele>
        <time>2024-01-25T12:24:25Z</time>
      </trkpt>
      <trkpt lat="48.82221" lon="-1.57444">
        <ele>21.7</ele>
        <time>2024-01-25T12:24:26Z</time>
      </trkpt>
      <trkpt lat="48.82215" lon="-1.57438">
        <ele>21.2</ele>
        <time>2024-01-25T12:24:27Z</time>
      </trkpt>
      <trkpt lat="48.82209" lon="-1.57432">
        <ele>20.8</ele>
        <time>2024-01-25T12:24:28Z</time>
      </trkpt>
      <trkpt lat="48.82203" lon="-1.57426">
        <ele>20.3</ele>
        <time>2024-01-25T12:24:29Z</time>
      </trkpt>
      <trkpt lat="48.82197" lon="-1.57419">
        <ele>19.8</ele>
        <time>2024-01-25T12:24:30Z</time>
      </trkpt>
      <trkpt lat="48.82191" lon="-1.57412">
        <ele>19.2</ele>
        <time>2024-01-25T12:24:31Z</time>
      </trkpt>
      <trkpt lat="48.82185" lon="-1.57403">
        <ele>18.6</ele>
        <time>2024-01-25T12:24:32Z</time>
      </trkpt>
      <trkpt lat="48.8218" lon="-1.57395">
        <ele>18</ele>
        <time>2024-01-25T12:24:33Z</time>
      </trkpt>
      <trkpt lat="48.82175" lon="-1.57386">
        <ele>17.4</ele>
        <time>2024-01-25T12:24:34Z</time>
      </trkpt>
      <trkpt lat="48.8217" lon="-1.57379">
        <ele>16.9</ele>
        <time>2024-01-25T12:24:35Z</time>
      </trkpt>
      <trkpt lat="48.82166" lon="-1.57372">
        <ele>16.5</ele>
        <time>2024-01-25T12:24:36Z</time>
      </trkpt>
      <trkpt lat="48.82162" lon="-1.57367">
        <ele>16.1</ele>
        <time>2024-01-25T12:24:37Z</time>
      </trkpt>
      <trkpt lat="48.8216" lon="-1.57362">
        <ele>16.1</ele>
        <time>2024-01-25T12:24:38Z</time>
      </trkpt>
      <trkpt lat="48.82158" lon="-1.57358">
        <ele>16.1</ele>
        <time>2024-01-25T12:24:39Z</time>
      </trkpt>
      <trkpt lat="48.82155" lon="-1.57352">
        <ele>15.9</ele>
        <time>2024-01-25T12:24:40Z</time>
      </trkpt>
      <trkpt lat="48.82152" lon="-1.57347">
        <ele>15.5</ele>
        <time>2024-01-25T12:24:41Z</time>
      </trkpt>
      <trkpt lat="48.82149" lon="-1.57342">
        <ele>15.1</ele>
        <time>2024-01-25T12:24:42Z</time>
      </trkpt>
      <trkpt lat="48.82147" lon="-1.57336">
        <ele>14.9</ele>
        <time>2024-01-25T12:24:43Z</time>
      </trkpt>
      <trkpt lat="48.82148" lon="-1.5733">
        <ele>14.9</ele>
        <time>2024-01-25T12:24:44Z</time>
      </trkpt>
      <trkpt lat="48.82152" lon="-1.57324">
        <ele>14.9</ele>
        <time>2024-01-25T12:24:46Z</time>
      </trkpt>
      <trkpt lat="48.82156" lon="-1.57319">
        <ele>14.7</ele>
        <time>2024-01-25T12:24:47Z</time>
      </trkpt>
      <trkpt lat="48.82159" lon="-1.57314">
        <ele>14.7</ele>
        <time>2024-01-25T12:24:48Z</time>
      </trkpt>
      <trkpt lat="48.82159" lon="-1.57309">
        <ele>14.6</ele>
        <time>2024-01-25T12:24:49Z</time>
      </trkpt>
      <trkpt lat="48.82159" lon="-1.57307">
        <ele>14.6</ele>
        <time>2024-01-25T12:24:50Z</time>
      </trkpt>
      <trkpt lat="48.82158" lon="-1.57302">
        <ele>14.5</ele>
        <time>2024-01-25T12:24:51Z</time>
      </trkpt>
      <trkpt lat="48.82157" lon="-1.573">
        <ele>14.5</ele>
        <time>2024-01-25T12:24:52Z</time>
      </trkpt>
      <trkpt lat="48.82157" lon="-1.57294">
        <ele>14.4</ele>
        <time>2024-01-25T12:24:53Z</time>
      </trkpt>
      <trkpt lat="48.82157" lon="-1.57293">
        <ele>14.4</ele>
        <time>2024-01-25T12:24:54Z</time>
      </trkpt>
      <trkpt lat="48.82158" lon="-1.57288">
        <ele>14.4</ele>
        <time>2024-01-25T12:24:55Z</time>
      </trkpt>
      <trkpt lat="48.82158" lon="-1.57286">
        <ele>14.3</ele>
        <time>2024-01-25T12:24:56Z</time>
      </trkpt>
      <trkpt lat="48.82159" lon="-1.5728">
        <ele>14.3</ele>
        <time>2024-01-25T12:24:57Z</time>
      </trkpt>
      <trkpt lat="48.8216" lon="-1.57278">
        <ele>14.3</ele>
        <time>2024-01-25T12:24:58Z</time>
      </trkpt>
      <trkpt lat="48.82161" lon="-1.57273">
        <ele>14.2</ele>
        <time>2024-01-25T12:24:59Z</time>
      </trkpt>
      <trkpt lat="48.82161" lon="-1.57272">
        <ele>14.2</ele>
        <time>2024-01-25T12:25:00Z</time>
      </trkpt>
      <trkpt lat="48.82161" lon="-1.57268">
        <ele>14.1</ele>
        <time>2024-01-25T12:25:01Z</time>
      </trkpt>
      <trkpt lat="48.82161" lon="-1.57266">
        <ele>14.1</ele>
        <time>2024-01-25T12:25:02Z</time>
      </trkpt>
      <trkpt lat="48.8216" lon="-1.57265">
        <ele>14.1</ele>
        <time>2024-01-25T12:25:03Z</time>
      </trkpt>
      <trkpt lat="48.8216" lon="-1.57265">
        <ele>14.1</ele>
        <time>2024-01-25T12:25:04Z</time>
      </trkpt>
      <trkpt lat="48.8216" lon="-1.57265">
        <ele>14.1</ele>
        <time>2024-01-25T12:25:05Z</time>
      </trkpt>
      <trkpt lat="48.8216" lon="-1.57265">
        <ele>14.1</ele>
        <time>2024-01-25T12:25:06Z</time>
      </trkpt>
      <trkpt lat="48.8216" lon="-1.57265">
        <ele>14.1</ele>
        <time>2024-01-25T12:25:07Z</time>
      </trkpt>
      <trkpt lat="48.8216" lon="-1.57265">
        <ele>14.1</ele>
        <time>2024-01-25T12:25:08Z</time>
      </trkpt>
      <trkpt lat="48.82159" lon="-1.57265">
        <ele>14.1</ele>
        <time>2024-01-25T12:25:09Z</time>
      </trkpt>
      <trkpt lat="48.82159" lon="-1.57264">
        <ele>14.1</ele>
        <time>2024-01-25T12:25:11Z</time>
      </trkpt>
      <trkpt lat="48.82159" lon="-1.57264">
        <ele>14.1</ele>
        <time>2024-01-25T12:25:12Z</time>
      </trkpt>
      <trkpt lat="48.82159" lon="-1.57264">
        <ele>14.1</ele>
        <time>2024-01-25T12:25:13Z</time>
      </trkpt>
      <trkpt lat="48.82159" lon="-1.57264">
        <ele>14.1</ele>
        <time>2024-01-25T12:25:14Z</time>
      </trkpt>
      <trkpt lat="48.82159" lon="-1.57264">
        <ele>14.1</ele>
        <time>2024-01-25T12:25:15Z</time>
      </trkpt>
      <trkpt lat="48.82159" lon="-1.57264">
        <ele>14.1</ele>
        <time>2024-01-25T12:25:16Z</time>
      </trkpt>
      <trkpt lat="48.82158" lon="-1.57264">
        <ele>14.1</ele>
        <time>2024-01-25T12:25:17Z</time>
      </trkpt>
      <trkpt lat="48.82158" lon="-1.57264">
        <ele>14.1</ele>
        <time>2024-01-25T12:25:18Z</time>
      </trkpt>
      <trkpt lat="48.82158" lon="-1.57264">
        <ele>14.1</ele>
        <time>2024-01-25T12:25:19Z</time>
      </trkpt>
      <trkpt lat="48.82158" lon="-1.57264">
        <ele>14.1</ele>
        <time>2024-01-25T12:25:20Z</time>
      </trkpt>
      <trkpt lat="48.82158" lon="-1.57264">
        <ele>14.1</ele>
        <time>2024-01-25T12:25:21Z</time>
      </trkpt>
      <trkpt lat="48.82158" lon="-1.57264">
        <ele>14.1</ele>
        <time>2024-01-25T12:25:22Z</time>
      </trkpt>
      <trkpt lat="48.82158" lon="-1.57264">
        <ele>14.1</ele>
        <time>2024-01-25T12:25:23Z</time>
      </trkpt>
      <trkpt lat="48.82157" lon="-1.57264">
        <ele>14.1</ele>
        <time>2024-01-25T12:25:24Z</time>
      </trkpt>
      <trkpt lat="48.82157" lon="-1.57264">
        <ele>14.1</ele>
        <time>2024-01-25T12:25:25Z</time>
      </trkpt>
      <trkpt lat="48.82157" lon="-1.57264">
        <ele>14.1</ele>
        <time>2024-01-25T12:25:26Z</time>
      </trkpt>
      <trkpt lat="48.82157" lon="-1.57264">
        <ele>14.1</ele>
        <time>2024-01-25T12:25:27Z</time>
      </trkpt>
      <trkpt lat="48.82157" lon="-1.57264">
        <ele>14.1</ele>
        <time>2024-01-25T12:25:28Z</time>
      </trkpt>
      <trkpt lat="48.82157" lon="-1.57264">
        <ele>14.1</ele>
        <time>2024-01-25T12:25:29Z</time>
      </trkpt>
      <trkpt lat="48.82157" lon="-1.57264">
        <ele>14.1</ele>
        <time>2024-01-25T12:25:30Z</time>
      </trkpt>
      <trkpt lat="48.82156" lon="-1.57264">
        <ele>14.1</ele>
        <time>2024-01-25T12:25:31Z</time>
      </trkpt>
      <trkpt lat="48.82156" lon="-1.57264">
        <ele>14.1</ele>
        <time>2024-01-25T12:25:32Z</time>
      </trkpt>
      <trkpt lat="48.82156" lon="-1.57263">
        <ele>14.1</ele>
        <time>2024-01-25T12:25:33Z</time>
      </trkpt>
      <trkpt lat="48.82156" lon="-1.57263">
        <ele>14.1</ele>
        <time>2024-01-25T12:25:34Z</time>
      </trkpt>
      <trkpt lat="48.82156" lon="-1.57263">
        <ele>14.1</ele>
        <time>2024-01-25T12:25:35Z</time>
      </trkpt>
      <trkpt lat="48.82153" lon="-1.57262">
        <ele>14</ele>
        <time>2024-01-25T12:25:36Z</time>
      </trkpt>
      <trkpt lat="48.82152" lon="-1.57261">
        <ele>14</ele>
        <time>2024-01-25T12:25:37Z</time>
      </trkpt>
      <trkpt lat="48.82152" lon="-1.57261">
        <ele>14</ele>
        <time>2024-01-25T12:25:38Z</time>
      </trkpt>
      <trkpt lat="48.82152" lon="-1.57261">
        <ele>14</ele>
        <time>2024-01-25T12:25:39Z</time>
      </trkpt>
      <trkpt lat="48.82151" lon="-1.57261">
        <ele>14</ele>
        <time>2024-01-25T12:25:40Z</time>
      </trkpt>
      <trkpt lat="48.82151" lon="-1.57261">
        <ele>14</ele>
        <time>2024-01-25T12:25:41Z</time>
      </trkpt>
      <trkpt lat="48.82151" lon="-1.57261">
        <ele>14</ele>
        <time>2024-01-25T12:25:42Z</time>
      </trkpt>
      <trkpt lat="48.82151" lon="-1.57261">
        <ele>14</ele>
        <time>2024-01-25T12:25:43Z</time>
      </trkpt>
      <trkpt lat="48.82151" lon="-1.57261">
        <ele>14</ele>
        <time>2024-01-25T12:25:44Z</time>
      </trkpt>
      <trkpt lat="48.82151" lon="-1.57261">
        <ele>14</ele>
        <time>2024-01-25T12:25:45Z</time>
      </trkpt>
      <trkpt lat="48.82151" lon="-1.57261">
        <ele>14</ele>
        <time>2024-01-25T12:25:46Z</time>
      </trkpt>
      <trkpt lat="48.82151" lon="-1.57261">
        <ele>14</ele>
        <time>2024-01-25T12:25:48Z</time>
      </trkpt>
      <trkpt lat="48.82151" lon="-1.57261">
        <ele>14</ele>
        <time>2024-01-25T12:25:49Z</time>
      </trkpt>
      <trkpt lat="48.82151" lon="-1.57261">
        <ele>14</ele>
        <time>2024-01-25T12:25:50Z</time>
      </trkpt>
      <trkpt lat="48.82151" lon="-1.57261">
        <ele>14</ele>
        <time>2024-01-25T12:25:51Z</time>
      </trkpt>
      <trkpt lat="48.82151" lon="-1.57261">
        <ele>14</ele>
        <time>2024-01-25T12:25:52Z</time>
      </trkpt>
      <trkpt lat="48.82151" lon="-1.57261">
        <ele>14</ele>
        <time>2024-01-25T12:25:53Z</time>
      </trkpt>
      <trkpt lat="48.82151" lon="-1.57261">
        <ele>14</ele>
        <time>2024-01-25T12:25:54Z</time>
      </trkpt>
      <trkpt lat="48.82151" lon="-1.57261">
        <ele>14</ele>
        <time>2024-01-25T12:25:55Z</time>
      </trkpt>
      <trkpt lat="48.82151" lon="-1.57261">
        <ele>14</ele>
        <time>2024-01-25T12:25:56Z</time>
      </trkpt>
      <trkpt lat="48.82151" lon="-1.57261">
        <ele>14</ele>
        <time>2024-01-25T12:25:57Z</time>
      </trkpt>
      <trkpt lat="48.82151" lon="-1.57261">
        <ele>14</ele>
        <time>2024-01-25T12:25:58Z</time>
      </trkpt>
      <trkpt lat="48.82151" lon="-1.57261">
        <ele>14</ele>
        <time>2024-01-25T12:25:59Z</time>
      </trkpt>
      <trkpt lat="48.82151" lon="-1.57261">
        <ele>14</ele>
        <time>2024-01-25T12:26:00Z</time>
      </trkpt>
      <trkpt lat="48.82151" lon="-1.57261">
        <ele>14</ele>
        <time>2024-01-25T12:26:01Z</time>
      </trkpt>
      <trkpt lat="48.82151" lon="-1.57261">
        <ele>14</ele>
        <time>2024-01-25T12:26:02Z</time>
      </trkpt>
      <trkpt lat="48.82151" lon="-1.57261">
        <ele>14</ele>
        <time>2024-01-25T12:26:03Z</time>
      </trkpt>
      <trkpt lat="48.82151" lon="-1.57261">
        <ele>14</ele>
        <time>2024-01-25T12:26:04Z</time>
      </trkpt>
      <trkpt lat="48.82151" lon="-1.57261">
        <ele>14</ele>
        <time>2024-01-25T12:26:05Z</time>
      </trkpt>
      <trkpt lat="48.82151" lon="-1.57261">
        <ele>14</ele>
        <time>2024-01-25T12:26:06Z</time>
      </trkpt>
      <trkpt lat="48.82151" lon="-1.57261">
        <ele>14</ele>
        <time>2024-01-25T12:26:07Z</time>
      </trkpt>
      <trkpt lat="48.82151" lon="-1.57261">
        <ele>14</ele>
        <time>2024-01-25T12:26:08Z</time>
      </trkpt>
      <trkpt lat="48.82151" lon="-1.57261">
        <ele>14</ele>
        <time>2024-01-25T12:26:09Z</time>
      </trkpt>
      <trkpt lat="48.82151" lon="-1.57261">
        <ele>14</ele>
        <time>2024-01-25T12:26:10Z</time>
      </trkpt>
      <trkpt lat="48.82151" lon="-1.57261">
        <ele>14</ele>
        <time>2024-01-25T12:26:11Z</time>
      </trkpt>
      <trkpt lat="48.82151" lon="-1.57261">
        <ele>14</ele>
        <time>2024-01-25T12:26:12Z</time>
      </trkpt>
      <trkpt lat="48.82151" lon="-1.57261">
        <ele>14</ele>
        <time>2024-01-25T12:26:13Z</time>
      </trkpt>
      <trkpt lat="48.82151" lon="-1.57261">
        <ele>14</ele>
        <time>2024-01-25T12:26:14Z</time>
      </trkpt>
      <trkpt lat="48.82151" lon="-1.57261">
        <ele>14</ele>
        <time>2024-01-25T12:26:15Z</time>
      </trkpt>
      <trkpt lat="48.82151" lon="-1.57261">
        <ele>14</ele>
        <time>2024-01-25T12:26:16Z</time>
      </trkpt>
      <trkpt lat="48.82151" lon="-1.57261">
        <ele>14</ele>
        <time>2024-01-25T12:26:17Z</time>
      </trkpt>
      <trkpt lat="48.82151" lon="-1.57261">
        <ele>14</ele>
        <time>2024-01-25T12:26:18Z</time>
      </trkpt>
      <trkpt lat="48.82151" lon="-1.57261">
        <ele>14</ele>
        <time>2024-01-25T12:26:19Z</time>
      </trkpt>
      <trkpt lat="48.82151" lon="-1.57261">
        <ele>14</ele>
        <time>2024-01-25T12:26:20Z</time>
      </trkpt>
      <trkpt lat="48.82151" lon="-1.57261">
        <ele>14</ele>
        <time>2024-01-25T12:26:21Z</time>
      </trkpt>
      <trkpt lat="48.82151" lon="-1.57261">
        <ele>14</ele>
        <time>2024-01-25T12:26:22Z</time>
      </trkpt>
      <trkpt lat="48.82151" lon="-1.57261">
        <ele>14</ele>
        <time>2024-01-25T12:26:23Z</time>
      </trkpt>
      <trkpt lat="48.82151" lon="-1.57261">
        <ele>14</ele>
        <time>2024-01-25T12:26:24Z</time>
      </trkpt>
      <trkpt lat="48.82151" lon="-1.57261">
        <ele>14</ele>
        <time>2024-01-25T12:26:25Z</time>
      </trkpt>
      <trkpt lat="48.82151" lon="-1.57261">
        <ele>14</ele>
        <time>2024-01-25T12:26:26Z</time>
      </trkpt>
      <trkpt lat="48.82151" lon="-1.57261">
        <ele>14</ele>
        <time>2024-01-25T12:26:27Z</time>
      </trkpt>
      <trkpt lat="48.82151" lon="-1.57261">
        <ele>14</ele>
        <time>2024-01-25T12:26:28Z</time>
      </trkpt>
      <trkpt lat="48.82151" lon="-1.57261">
        <ele>14</ele>
        <time>2024-01-25T12:26:29Z</time>
      </trkpt>
      <trkpt lat="48.82151" lon="-1.57261">
        <ele>14</ele>
        <time>2024-01-25T12:26:30Z</time>
      </trkpt>
      <trkpt lat="48.82151" lon="-1.57261">
        <ele>14</ele>
        <time>2024-01-25T12:26:31Z</time>
      </trkpt>
      <trkpt lat="48.82151" lon="-1.57261">
        <ele>14</ele>
        <time>2024-01-25T12:26:33Z</time>
      </trkpt>
      <trkpt lat="48.82151" lon="-1.57261">
        <ele>14</ele>
        <time>2024-01-25T12:26:34Z</time>
      </trkpt>
      <trkpt lat="48.82151" lon="-1.57261">
        <ele>14</ele>
        <time>2024-01-25T12:26:35Z</time>
      </trkpt>
      <trkpt lat="48.82151" lon="-1.57261">
        <ele>14</ele>
        <time>2024-01-25T12:26:36Z</time>
      </trkpt>
      <trkpt lat="48.82151" lon="-1.57261">
        <ele>14</ele>
        <time>2024-01-25T12:26:37Z</time>
      </trkpt>
      <trkpt lat="48.82151" lon="-1.57261">
        <ele>14</ele>
        <time>2024-01-25T12:26:38Z</time>
      </trkpt>
      <trkpt lat="48.82151" lon="-1.57261">
        <ele>14</ele>
        <time>2024-01-25T12:26:39Z</time>
      </trkpt>
      <trkpt lat="48.82151" lon="-1.57261">
        <ele>14</ele>
        <time>2024-01-25T12:26:40Z</time>
      </trkpt>
      <trkpt lat="48.82151" lon="-1.57261">
        <ele>14</ele>
        <time>2024-01-25T12:26:41Z</time>
      </trkpt>
      <trkpt lat="48.82151" lon="-1.57261">
        <ele>14</ele>
        <time>2024-01-25T12:26:42Z</time>
      </trkpt>
      <trkpt lat="48.82151" lon="-1.57261">
        <ele>14</ele>
        <time>2024-01-25T12:26:43Z</time>
      </trkpt>
      <trkpt lat="48.82151" lon="-1.57261">
        <ele>14</ele>
        <time>2024-01-25T12:26:44Z</time>
      </trkpt>
      <trkpt lat="48.82151" lon="-1.57261">
        <ele>14</ele>
        <time>2024-01-25T12:26:45Z</time>
      </trkpt>
      <trkpt lat="48.82151" lon="-1.57261">
        <ele>14</ele>
        <time>2024-01-25T12:26:46Z</time>
      </trkpt>
      <trkpt lat="48.82151" lon="-1.57261">
        <ele>14</ele>
        <time>2024-01-25T12:26:47Z</time>
      </trkpt>
      <trkpt lat="48.82151" lon="-1.57261">
        <ele>14</ele>
        <time>2024-01-25T12:26:48Z</time>
      </trkpt>
      <trkpt lat="48.82151" lon="-1.57261">
        <ele>14</ele>
        <time>2024-01-25T12:26:49Z</time>
      </trkpt>
      <trkpt lat="48.82151" lon="-1.57261">
        <ele>14</ele>
        <time>2024-01-25T12:26:50Z</time>
      </trkpt>
      <trkpt lat="48.82151" lon="-1.57261">
        <ele>14</ele>
        <time>2024-01-25T12:26:51Z</time>
      </trkpt>
      <trkpt lat="48.82151" lon="-1.57261">
        <ele>14</ele>
        <time>2024-01-25T12:26:52Z</time>
      </trkpt>
      <trkpt lat="48.82151" lon="-1.57261">
        <ele>14</ele>
        <time>2024-01-25T12:26:53Z</time>
      </trkpt>
      <trkpt lat="48.82151" lon="-1.57261">
        <ele>14</ele>
        <time>2024-01-25T12:26:54Z</time>
      </trkpt>
      <trkpt lat="48.82151" lon="-1.57261">
        <ele>14</ele>
        <time>2024-01-25T12:26:55Z</time>
      </trkpt>
      <trkpt lat="48.82151" lon="-1.57261">
        <ele>14</ele>
        <time>2024-01-25T12:26:56Z</time>
      </trkpt>
      <trkpt lat="48.82151" lon="-1.57261">
        <ele>14</ele>
        <time>2024-01-25T12:26:57Z</time>
      </trkpt>
      <trkpt lat="48.82151" lon="-1.57261">
        <ele>14</ele>
        <time>2024-01-25T12:26:58Z</time>
      </trkpt>
      <trkpt lat="48.82151" lon="-1.57261">
        <ele>14</ele>
        <time>2024-01-25T12:26:59Z</time>
      </trkpt>
      <trkpt lat="48.82151" lon="-1.57261">
        <ele>14</ele>
        <time>2024-01-25T12:27:00Z</time>
      </trkpt>
      <trkpt lat="48.82151" lon="-1.57261">
        <ele>14</ele>
        <time>2024-01-25T12:27:01Z</time>
      </trkpt>
      <trkpt lat="48.82151" lon="-1.57261">
        <ele>14</ele>
        <time>2024-01-25T12:27:02Z</time>
      </trkpt>
      <trkpt lat="48.82151" lon="-1.57261">
        <ele>14</ele>
        <time>2024-01-25T12:27:03Z</time>
      </trkpt>
      <trkpt lat="48.82151" lon="-1.57261">
        <ele>14</ele>
        <time>2024-01-25T12:27:04Z</time>
      </trkpt>
      <trkpt lat="48.82151" lon="-1.57261">
        <ele>14</ele>
        <time>2024-01-25T12:27:05Z</time>
      </trkpt>
      <trkpt lat="48.82151" lon="-1.57261">
        <ele>14</ele>
        <time>2024-01-25T12:27:06Z</time>
      </trkpt>
      <trkpt lat="48.82151" lon="-1.57261">
        <ele>14</ele>
        <time>2024-01-25T12:27:07Z</time>
      </trkpt>
      <trkpt lat="48.82151" lon="-1.57261">
        <ele>14</ele>
        <time>2024-01-25T12:27:08Z</time>
      </trkpt>
      <trkpt lat="48.82151" lon="-1.57261">
        <ele>14</ele>
        <time>2024-01-25T12:27:09Z</time>
      </trkpt>
      <trkpt lat="48.82151" lon="-1.57261">
        <ele>14</ele>
        <time>2024-01-25T12:27:10Z</time>
      </trkpt>
      <trkpt lat="48.82151" lon="-1.57261">
        <ele>14</ele>
        <time>2024-01-25T12:27:11Z</time>
      </trkpt>
      <trkpt lat="48.82151" lon="-1.57261">
        <ele>14</ele>
        <time>2024-01-25T12:27:12Z</time>
      </trkpt>
      <trkpt lat="48.82151" lon="-1.57261">
        <ele>14</ele>
        <time>2024-01-25T12:27:13Z</time>
      </trkpt>
      <trkpt lat="48.82151" lon="-1.57261">
        <ele>14</ele>
        <time>2024-01-25T12:27:14Z</time>
      </trkpt>
      <trkpt lat="48.82151" lon="-1.57261">
        <ele>14</ele>
        <time>2024-01-25T12:27:15Z</time>
      </trkpt>
      <trkpt lat="48.82151" lon="-1.57261">
        <ele>14</ele>
        <time>2024-01-25T12:27:16Z</time>
      </trkpt>
      <trkpt lat="48.82151" lon="-1.57261">
        <ele>14</ele>
        <time>2024-01-25T12:27:17Z</time>
      </trkpt>
      <trkpt lat="48.82151" lon="-1.57261">
        <ele>14</ele>
        <time>2024-01-25T12:27:18Z</time>
      </trkpt>
      <trkpt lat="48.82151" lon="-1.57261">
        <ele>14</ele>
        <time>2024-01-25T12:27:19Z</time>
      </trkpt>
      <trkpt lat="48.82151" lon="-1.57261">
        <ele>14</ele>
        <time>2024-01-25T12:27:20Z</time>
      </trkpt>
      <trkpt lat="48.82151" lon="-1.57261">
        <ele>14</ele>
        <time>2024-01-25T12:27:21Z</time>
      </trkpt>
      <trkpt lat="48.82151" lon="-1.57261">
        <ele>14</ele>
        <time>2024-01-25T12:27:22Z</time>
      </trkpt>
      <trkpt lat="48.82151" lon="-1.57261">
        <ele>14</ele>
        <time>2024-01-25T12:27:23Z</time>
      </trkpt>
      <trkpt lat="48.82151" lon="-1.57261">
        <ele>14</ele>
        <time>2024-01-25T12:27:24Z</time>
      </trkpt>
      <trkpt lat="48.82151" lon="-1.57261">
        <ele>14</ele>
        <time>2024-01-25T12:27:25Z</time>
      </trkpt>
      <trkpt lat="48.82151" lon="-1.57261">
        <ele>14</ele>
        <time>2024-01-25T12:27:26Z</time>
      </trkpt>
      <trkpt lat="48.82151" lon="-1.57261">
        <ele>14</ele>
        <time>2024-01-25T12:27:27Z</time>
      </trkpt>
      <trkpt lat="48.82151" lon="-1.57261">
        <ele>14</ele>
        <time>2024-01-25T12:27:28Z</time>
      </trkpt>
      <trkpt lat="48.82151" lon="-1.57261">
        <ele>14</ele>
        <time>2024-01-25T12:27:29Z</time>
      </trkpt>
      <trkpt lat="48.82151" lon="-1.57261">
        <ele>14</ele>
        <time>2024-01-25T12:27:30Z</time>
      </trkpt>
      <trkpt lat="48.82151" lon="-1.57261">
        <ele>14</ele>
        <time>2024-01-25T12:27:31Z</time>
      </trkpt>
      <trkpt lat="48.82151" lon="-1.57261">
        <ele>14</ele>
        <time>2024-01-25T12:27:32Z</time>
      </trkpt>
      <trkpt lat="48.82151" lon="-1.57261">
        <ele>14</ele>
        <time>2024-01-25T12:27:33Z</time>
      </trkpt>
      <trkpt lat="48.82151" lon="-1.57261">
        <ele>14</ele>
        <time>2024-01-25T12:27:34Z</time>
      </trkpt>
      <trkpt lat="48.82151" lon="-1.57261">
        <ele>14</ele>
        <time>2024-01-25T12:27:35Z</time>
      </trkpt>
      <trkpt lat="48.82151" lon="-1.57261">
        <ele>14</ele>
        <time>2024-01-25T12:27:36Z</time>
      </trkpt>
      <trkpt lat="48.82151" lon="-1.57261">
        <ele>14</ele>
        <time>2024-01-25T12:27:37Z</time>
      </trkpt>
      <trkpt lat="48.82151" lon="-1.57261">
        <ele>14</ele>
        <time>2024-01-25T12:27:38Z</time>
      </trkpt>
      <trkpt lat="48.82151" lon="-1.57261">
        <ele>14</ele>
        <time>2024-01-25T12:27:39Z</time>
      </trkpt>
      <trkpt lat="48.82151" lon="-1.57261">
        <ele>14</ele>
        <time>2024-01-25T12:27:40Z</time>
      </trkpt>
      <trkpt lat="48.82151" lon="-1.57261">
        <ele>14</ele>
        <time>2024-01-25T12:27:41Z</time>
      </trkpt>
      <trkpt lat="48.82151" lon="-1.57261">
        <ele>14</ele>
        <time>2024-01-25T12:27:42Z</time>
      </trkpt>
      <trkpt lat="48.82151" lon="-1.57261">
        <ele>14</ele>
        <time>2024-01-25T12:27:43Z</time>
      </trkpt>
      <trkpt lat="48.82151" lon="-1.57261">
        <ele>14</ele>
        <time>2024-01-25T12:27:44Z</time>
      </trkpt>
      <trkpt lat="48.82151" lon="-1.57261">
        <ele>14</ele>
        <time>2024-01-25T12:27:45Z</time>
      </trkpt>
      <trkpt lat="48.82151" lon="-1.57261">
        <ele>14</ele>
        <time>2024-01-25T12:27:46Z</time>
      </trkpt>
      <trkpt lat="48.82151" lon="-1.57261">
        <ele>14</ele>
        <time>2024-01-25T12:27:47Z</time>
      </trkpt>
      <trkpt lat="48.82151" lon="-1.57261">
        <ele>14</ele>
        <time>2024-01-25T12:27:48Z</time>
      </trkpt>
      <trkpt lat="48.82151" lon="-1.57261">
        <ele>14</ele>
        <time>2024-01-25T12:27:49Z</time>
      </trkpt>
      <trkpt lat="48.82151" lon="-1.57261">
        <ele>14</ele>
        <time>2024-01-25T12:27:50Z</time>
      </trkpt>
      <trkpt lat="48.82151" lon="-1.57261">
        <ele>14</ele>
        <time>2024-01-25T12:27:51Z</time>
      </trkpt>
      <trkpt lat="48.82151" lon="-1.57261">
        <ele>14</ele>
        <time>2024-01-25T12:27:52Z</time>
      </trkpt>
      <trkpt lat="48.82151" lon="-1.57261">
        <ele>14</ele>
        <time>2024-01-25T12:27:53Z</time>
      </trkpt>
      <trkpt lat="48.82151" lon="-1.57261">
        <ele>14</ele>
        <time>2024-01-25T12:27:54Z</time>
      </trkpt>
      <trkpt lat="48.82151" lon="-1.57261">
        <ele>14</ele>
        <time>2024-01-25T12:27:55Z</time>
      </trkpt>
      <trkpt lat="48.82151" lon="-1.57261">
        <ele>14</ele>
        <time>2024-01-25T12:27:56Z</time>
      </trkpt>
      <trkpt lat="48.82151" lon="-1.57261">
        <ele>14</ele>
        <time>2024-01-25T12:27:57Z</time>
      </trkpt>
      <trkpt lat="48.82151" lon="-1.57261">
        <ele>14</ele>
        <time>2024-01-25T12:27:58Z</time>
      </trkpt>
      <trkpt lat="48.82151" lon="-1.57261">
        <ele>14</ele>
        <time>2024-01-25T12:27:59Z</time>
      </trkpt>
      <trkpt lat="48.82151" lon="-1.57261">
        <ele>14</ele>
        <time>2024-01-25T12:28:00Z</time>
      </trkpt>
      <trkpt lat="48.82151" lon="-1.57261">
        <ele>14</ele>
        <time>2024-01-25T12:28:01Z</time>
      </trkpt>
      <trkpt lat="48.82151" lon="-1.57261">
        <ele>14</ele>
        <time>2024-01-25T12:28:02Z</time>
      </trkpt>
      <trkpt lat="48.82151" lon="-1.57261">
        <ele>14</ele>
        <time>2024-01-25T12:28:03Z</time>
      </trkpt>
      <trkpt lat="48.82151" lon="-1.57261">
        <ele>14</ele>
        <time>2024-01-25T12:28:04Z</time>
      </trkpt>
      <trkpt lat="48.82151" lon="-1.57261">
        <ele>14</ele>
        <time>2024-01-25T12:28:05Z</time>
      </trkpt>
      <trkpt lat="48.82151" lon="-1.57261">
        <ele>14</ele>
        <time>2024-01-25T12:28:06Z</time>
      </trkpt>
      <trkpt lat="48.82151" lon="-1.57261">
        <ele>14</ele>
        <time>2024-01-25T12:28:07Z</time>
      </trkpt>
      <trkpt lat="48.82151" lon="-1.57261">
        <ele>14</ele>
        <time>2024-01-25T12:28:08Z</time>
      </trkpt>
      <trkpt lat="48.82151" lon="-1.57261">
        <ele>14</ele>
        <time>2024-01-25T12:28:09Z</time>
      </trkpt>
      <trkpt lat="48.82151" lon="-1.57261">
        <ele>14</ele>
        <time>2024-01-25T12:28:10Z</time>
      </trkpt>
      <trkpt lat="48.82151" lon="-1.57261">
        <ele>14</ele>
        <time>2024-01-25T12:28:11Z</time>
      </trkpt>
      <trkpt lat="48.82151" lon="-1.57261">
        <ele>14</ele>
        <time>2024-01-25T12:28:12Z</time>
      </trkpt>
      <trkpt lat="48.82151" lon="-1.57261">
        <ele>14</ele>
        <time>2024-01-25T12:28:13Z</time>
      </trkpt>
      <trkpt lat="48.82151" lon="-1.57261">
        <ele>14</ele>
        <time>2024-01-25T12:28:14Z</time>
      </trkpt>
      <trkpt lat="48.82151" lon="-1.57261">
        <ele>14</ele>
        <time>2024-01-25T12:28:15Z</time>
      </trkpt>
      <trkpt lat="48.82151" lon="-1.57261">
        <ele>14</ele>
        <time>2024-01-25T12:28:16Z</time>
      </trkpt>
      <trkpt lat="48.82151" lon="-1.57261">
        <ele>14</ele>
        <time>2024-01-25T12:28:17Z</time>
      </trkpt>
      <trkpt lat="48.82151" lon="-1.57261">
        <ele>14</ele>
        <time>2024-01-25T12:28:18Z</time>
      </trkpt>
      <trkpt lat="48.82151" lon="-1.57261">
        <ele>14</ele>
        <time>2024-01-25T12:28:19Z</time>
      </trkpt>
      <trkpt lat="48.82151" lon="-1.57261">
        <ele>14</ele>
        <time>2024-01-25T12:28:20Z</time>
      </trkpt>
      <trkpt lat="48.82151" lon="-1.57261">
        <ele>14</ele>
        <time>2024-01-25T12:28:21Z</time>
      </trkpt>
      <trkpt lat="48.82151" lon="-1.57261">
        <ele>14</ele>
        <time>2024-01-25T12:28:22Z</time>
      </trkpt>
      <trkpt lat="48.82151" lon="-1.57261">
        <ele>14</ele>
        <time>2024-01-25T12:28:23Z</time>
      </trkpt>
      <trkpt lat="48.82151" lon="-1.57261">
        <ele>14</ele>
        <time>2024-01-25T12:28:24Z</time>
      </trkpt>
      <trkpt lat="48.82151" lon="-1.57261">
        <ele>14</ele>
        <time>2024-01-25T12:28:25Z</time>
      </trkpt>
      <trkpt lat="48.82151" lon="-1.57261">
        <ele>14</ele>
        <time>2024-01-25T12:28:26Z</time>
      </trkpt>
      <trkpt lat="48.82151" lon="-1.57261">
        <ele>14</ele>
        <time>2024-01-25T12:28:27Z</time>
      </trkpt>
      <trkpt lat="48.82151" lon="-1.57261">
        <ele>14</ele>
        <time>2024-01-25T12:28:28Z</time>
      </trkpt>
      <trkpt lat="48.82151" lon="-1.57261">
        <ele>14</ele>
        <time>2024-01-25T12:28:29Z</time>
      </trkpt>
      <trkpt lat="48.82151" lon="-1.57261">
        <ele>14</ele>
        <time>2024-01-25T12:28:30Z</time>
      </trkpt>
      <trkpt lat="48.82151" lon="-1.57261">
        <ele>14</ele>
        <time>2024-01-25T12:28:31Z</time>
      </trkpt>
      <trkpt lat="48.82151" lon="-1.57261">
        <ele>14</ele>
        <time>2024-01-25T12:28:32Z</time>
      </trkpt>
      <trkpt lat="48.82151" lon="-1.57261">
        <ele>14</ele>
        <time>2024-01-25T12:28:33Z</time>
      </trkpt>
      <trkpt lat="48.82151" lon="-1.57261">
        <ele>14</ele>
        <time>2024-01-25T12:28:34Z</time>
      </trkpt>
      <trkpt lat="48.82151" lon="-1.57261">
        <ele>14</ele>
        <time>2024-01-25T12:28:35Z</time>
      </trkpt>
      <trkpt lat="48.82151" lon="-1.57261">
        <ele>14</ele>
        <time>2024-01-25T12:28:36Z</time>
      </trkpt>
      <trkpt lat="48.82151" lon="-1.57261">
        <ele>14</ele>
        <time>2024-01-25T12:28:37Z</time>
      </trkpt>
      <trkpt lat="48.82151" lon="-1.57261">
        <ele>14</ele>
        <time>2024-01-25T12:28:38Z</time>
      </trkpt>
      <trkpt lat="48.82151" lon="-1.57261">
        <ele>14</ele>
        <time>2024-01-25T12:28:39Z</time>
      </trkpt>
      <trkpt lat="48.82151" lon="-1.57261">
        <ele>14</ele>
        <time>2024-01-25T12:28:40Z</time>
      </trkpt>
      <trkpt lat="48.82151" lon="-1.57261">
        <ele>14</ele>
        <time>2024-01-25T12:28:41Z</time>
      </trkpt>
      <trkpt lat="48.82151" lon="-1.57261">
        <ele>14</ele>
        <time>2024-01-25T12:28:42Z</time>
      </trkpt>
      <trkpt lat="48.82151" lon="-1.57261">
        <ele>14</ele>
        <time>2024-01-25T12:28:43Z</time>
      </trkpt>
      <trkpt lat="48.82151" lon="-1.57261">
        <ele>14</ele>
        <time>2024-01-25T12:28:44Z</time>
      </trkpt>
      <trkpt lat="48.82151" lon="-1.57261">
        <ele>14</ele>
        <time>2024-01-25T12:28:45Z</time>
      </trkpt>
      <trkpt lat="48.82151" lon="-1.57261">
        <ele>14</ele>
        <time>2024-01-25T12:28:46Z</time>
      </trkpt>
      <trkpt lat="48.82151" lon="-1.57261">
        <ele>14</ele>
        <time>2024-01-25T12:28:47Z</time>
      </trkpt>
      <trkpt lat="48.82151" lon="-1.57261">
        <ele>14</ele>
        <time>2024-01-25T12:28:48Z</time>
      </trkpt>
      <trkpt lat="48.82151" lon="-1.57261">
        <ele>14</ele>
        <time>2024-01-25T12:28:49Z</time>
      </trkpt>
      <trkpt lat="48.82151" lon="-1.57261">
        <ele>14</ele>
        <time>2024-01-25T12:28:50Z</time>
      </trkpt>
      <trkpt lat="48.82151" lon="-1.57261">
        <ele>14</ele>
        <time>2024-01-25T12:28:51Z</time>
      </trkpt>
      <trkpt lat="48.82151" lon="-1.57261">
        <ele>14</ele>
        <time>2024-01-25T12:28:52Z</time>
      </trkpt>
      <trkpt lat="48.82151" lon="-1.57261">
        <ele>14</ele>
        <time>2024-01-25T12:28:53Z</time>
      </trkpt>
      <trkpt lat="48.82151" lon="-1.57261">
        <ele>14</ele>
        <time>2024-01-25T12:28:54Z</time>
      </trkpt>
      <trkpt lat="48.82151" lon="-1.57261">
        <ele>14</ele>
        <time>2024-01-25T12:28:55Z</time>
      </trkpt>
      <trkpt lat="48.82151" lon="-1.57261">
        <ele>14</ele>
        <time>2024-01-25T12:28:56Z</time>
      </trkpt>
      <trkpt lat="48.82151" lon="-1.57261">
        <ele>14</ele>
        <time>2024-01-25T12:28:57Z</time>
      </trkpt>
      <trkpt lat="48.82151" lon="-1.57261">
        <ele>14</ele>
        <time>2024-01-25T12:28:58Z</time>
      </trkpt>
      <trkpt lat="48.82151" lon="-1.57261">
        <ele>14</ele>
        <time>2024-01-25T12:28:59Z</time>
      </trkpt>
      <trkpt lat="48.82151" lon="-1.57261">
        <ele>14</ele>
        <time>2024-01-25T12:29:00Z</time>
      </trkpt>
      <trkpt lat="48.82151" lon="-1.57261">
        <ele>14</ele>
        <time>2024-01-25T12:29:01Z</time>
      </trkpt>
      <trkpt lat="48.82151" lon="-1.57261">
        <ele>14</ele>
        <time>2024-01-25T12:29:02Z</time>
      </trkpt>
      <trkpt lat="48.82151" lon="-1.57261">
        <ele>14</ele>
        <time>2024-01-25T12:29:03Z</time>
      </trkpt>
      <trkpt lat="48.82151" lon="-1.57261">
        <ele>14</ele>
        <time>2024-01-25T12:29:04Z</time>
      </trkpt>
      <trkpt lat="48.82151" lon="-1.57261">
        <ele>14</ele>
        <time>2024-01-25T12:29:05Z</time>
      </trkpt>
      <trkpt lat="48.82151" lon="-1.57261">
        <ele>14</ele>
        <time>2024-01-25T12:29:06Z</time>
      </trkpt>
      <trkpt lat="48.82151" lon="-1.57261">
        <ele>14</ele>
        <time>2024-01-25T12:29:07Z</time>
      </trkpt>
      <trkpt lat="48.82151" lon="-1.57261">
        <ele>14</ele>
        <time>2024-01-25T12:29:08Z</time>
      </trkpt>
      <trkpt lat="48.82151" lon="-1.57261">
        <ele>14</ele>
        <time>2024-01-25T12:29:09Z</time>
      </trkpt>
      <trkpt lat="48.82151" lon="-1.57261">
        <ele>14</ele>
        <time>2024-01-25T12:29:10Z</time>
      </trkpt>
      <trkpt lat="48.82151" lon="-1.57261">
        <ele>14</ele>
        <time>2024-01-25T12:29:11Z</time>
      </trkpt>
      <trkpt lat="48.82151" lon="-1.57261">
        <ele>14</ele>
        <time>2024-01-25T12:29:12Z</time>
      </trkpt>
      <trkpt lat="48.82151" lon="-1.57261">
        <ele>14</ele>
        <time>2024-01-25T12:29:13Z</time>
      </trkpt>
      <trkpt lat="48.82151" lon="-1.57261">
        <ele>14</ele>
        <time>2024-01-25T12:29:14Z</time>
      </trkpt>
      <trkpt lat="48.82151" lon="-1.57261">
        <ele>14</ele>
        <time>2024-01-25T12:29:15Z</time>
      </trkpt>
      <trkpt lat="48.82151" lon="-1.57261">
        <ele>14</ele>
        <time>2024-01-25T12:29:16Z</time>
      </trkpt>
      <trkpt lat="48.82151" lon="-1.57261">
        <ele>14</ele>
        <time>2024-01-25T12:29:17Z</time>
      </trkpt>
      <trkpt lat="48.82151" lon="-1.57261">
        <ele>14</ele>
        <time>2024-01-25T12:29:18Z</time>
      </trkpt>
      <trkpt lat="48.82151" lon="-1.57261">
        <ele>14</ele>
        <time>2024-01-25T12:29:19Z</time>
      </trkpt>
      <trkpt lat="48.82151" lon="-1.57261">
        <ele>14</ele>
        <time>2024-01-25T12:29:20Z</time>
      </trkpt>
      <trkpt lat="48.82151" lon="-1.57261">
        <ele>14</ele>
        <time>2024-01-25T12:29:21Z</time>
      </trkpt>
      <trkpt lat="48.82151" lon="-1.57261">
        <ele>14</ele>
        <time>2024-01-25T12:29:22Z</time>
      </trkpt>
      <trkpt lat="48.82151" lon="-1.57261">
        <ele>14</ele>
        <time>2024-01-25T12:29:23Z</time>
      </trkpt>
      <trkpt lat="48.82151" lon="-1.57261">
        <ele>14</ele>
        <time>2024-01-25T12:29:24Z</time>
      </trkpt>
      <trkpt lat="48.82151" lon="-1.57261">
        <ele>14</ele>
        <time>2024-01-25T12:29:25Z</time>
      </trkpt>
      <trkpt lat="48.82151" lon="-1.57261">
        <ele>14</ele>
        <time>2024-01-25T12:29:26Z</time>
      </trkpt>
      <trkpt lat="48.82151" lon="-1.57261">
        <ele>14</ele>
        <time>2024-01-25T12:29:27Z</time>
      </trkpt>
      <trkpt lat="48.82151" lon="-1.57261">
        <ele>14</ele>
        <time>2024-01-25T12:29:28Z</time>
      </trkpt>
      <trkpt lat="48.82151" lon="-1.57261">
        <ele>14</ele>
        <time>2024-01-25T12:29:29Z</time>
      </trkpt>
      <trkpt lat="48.82151" lon="-1.57261">
        <ele>14</ele>
        <time>2024-01-25T12:29:30Z</time>
      </trkpt>
      <trkpt lat="48.82151" lon="-1.57261">
        <ele>14</ele>
        <time>2024-01-25T12:29:31Z</time>
      </trkpt>
      <trkpt lat="48.82151" lon="-1.57261">
        <ele>14</ele>
        <time>2024-01-25T12:29:32Z</time>
      </trkpt>
      <trkpt lat="48.82151" lon="-1.57261">
        <ele>14</ele>
        <time>2024-01-25T12:29:33Z</time>
      </trkpt>
      <trkpt lat="48.82151" lon="-1.57261">
        <ele>14</ele>
        <time>2024-01-25T12:29:34Z</time>
      </trkpt>
      <trkpt lat="48.82151" lon="-1.57261">
        <ele>14</ele>
        <time>2024-01-25T12:29:35Z</time>
      </trkpt>
      <trkpt lat="48.82151" lon="-1.57261">
        <ele>14</ele>
        <time>2024-01-25T12:29:36Z</time>
      </trkpt>
      <trkpt lat="48.82151" lon="-1.57261">
        <ele>14</ele>
        <time>2024-01-25T12:29:37Z</time>
      </trkpt>
      <trkpt lat="48.82151" lon="-1.57261">
        <ele>14</ele>
        <time>2024-01-25T12:29:38Z</time>
      </trkpt>
      <trkpt lat="48.82151" lon="-1.57261">
        <ele>14</ele>
        <time>2024-01-25T12:29:39Z</time>
      </trkpt>
      <trkpt lat="48.82151" lon="-1.57261">
        <ele>14</ele>
        <time>2024-01-25T12:29:40Z</time>
      </trkpt>
      <trkpt lat="48.82151" lon="-1.57261">
        <ele>14</ele>
        <time>2024-01-25T12:29:41Z</time>
      </trkpt>
      <trkpt lat="48.82151" lon="-1.57261">
        <ele>14</ele>
        <time>2024-01-25T12:29:42Z</time>
      </trkpt>
      <trkpt lat="48.82151" lon="-1.57261">
        <ele>14</ele>
        <time>2024-01-25T12:29:43Z</time>
      </trkpt>
      <trkpt lat="48.82151" lon="-1.57261">
        <ele>14</ele>
        <time>2024-01-25T12:29:44Z</time>
      </trkpt>
      <trkpt lat="48.82151" lon="-1.57261">
        <ele>14</ele>
        <time>2024-01-25T12:29:45Z</time>
      </trkpt>
      <trkpt lat="48.82151" lon="-1.57261">
        <ele>14</ele>
        <time>2024-01-25T12:29:46Z</time>
      </trkpt>
      <trkpt lat="48.82151" lon="-1.57261">
        <ele>14</ele>
        <time>2024-01-25T12:29:47Z</time>
      </trkpt>
      <trkpt lat="48.82151" lon="-1.57261">
        <ele>14</ele>
        <time>2024-01-25T12:29:48Z</time>
      </trkpt>
      <trkpt lat="48.82151" lon="-1.57261">
        <ele>14</ele>
        <time>2024-01-25T12:29:49Z</time>
      </trkpt>
      <trkpt lat="48.82151" lon="-1.57261">
        <ele>14</ele>
        <time>2024-01-25T12:29:50Z</time>
      </trkpt>
      <trkpt lat="48.82151" lon="-1.57261">
        <ele>14</ele>
        <time>2024-01-25T12:29:51Z</time>
      </trkpt>
      <trkpt lat="48.82151" lon="-1.57261">
        <ele>14</ele>
        <time>2024-01-25T12:29:52Z</time>
      </trkpt>
      <trkpt lat="48.82151" lon="-1.57261">
        <ele>14</ele>
        <time>2024-01-25T12:29:53Z</time>
      </trkpt>
      <trkpt lat="48.82151" lon="-1.57261">
        <ele>14</ele>
        <time>2024-01-25T12:29:54Z</time>
      </trkpt>
      <trkpt lat="48.82151" lon="-1.57261">
        <ele>14</ele>
        <time>2024-01-25T12:29:55Z</time>
      </trkpt>
      <trkpt lat="48.82151" lon="-1.57261">
        <ele>14</ele>
        <time>2024-01-25T12:29:56Z</time>
      </trkpt>
      <trkpt lat="48.82151" lon="-1.57261">
        <ele>14</ele>
        <time>2024-01-25T12:29:57Z</time>
      </trkpt>
      <trkpt lat="48.82151" lon="-1.57261">
        <ele>14</ele>
        <time>2024-01-25T12:29:58Z</time>
      </trkpt>
      <trkpt lat="48.82151" lon="-1.57261">
        <ele>14</ele>
        <time>2024-01-25T12:29:59Z</time>
      </trkpt>
      <trkpt lat="48.82151" lon="-1.57261">
        <ele>14</ele>
        <time>2024-01-25T12:30:00Z</time>
      </trkpt>
      <trkpt lat="48.82151" lon="-1.57261">
        <ele>14</ele>
        <time>2024-01-25T12:30:01Z</time>
      </trkpt>
      <trkpt lat="48.82151" lon="-1.57261">
        <ele>14</ele>
        <time>2024-01-25T12:30:02Z</time>
      </trkpt>
      <trkpt lat="48.82151" lon="-1.57261">
        <ele>14</ele>
        <time>2024-01-25T12:30:03Z</time>
      </trkpt>
      <trkpt lat="48.82151" lon="-1.57261">
        <ele>14</ele>
        <time>2024-01-25T12:30:04Z</time>
      </trkpt>
      <trkpt lat="48.82151" lon="-1.57261">
        <ele>14</ele>
        <time>2024-01-25T12:30:05Z</time>
      </trkpt>
      <trkpt lat="48.82151" lon="-1.57261">
        <ele>14</ele>
        <time>2024-01-25T12:30:06Z</time>
      </trkpt>
      <trkpt lat="48.82151" lon="-1.57261">
        <ele>14</ele>
        <time>2024-01-25T12:30:07Z</time>
      </trkpt>
      <trkpt lat="48.82151" lon="-1.57261">
        <ele>14</ele>
        <time>2024-01-25T12:30:08Z</time>
      </trkpt>
      <trkpt lat="48.82151" lon="-1.57261">
        <ele>14</ele>
        <time>2024-01-25T12:30:09Z</time>
      </trkpt>
      <trkpt lat="48.82151" lon="-1.57261">
        <ele>14</ele>
        <time>2024-01-25T12:30:10Z</time>
      </trkpt>
      <trkpt lat="48.82151" lon="-1.57261">
        <ele>14</ele>
        <time>2024-01-25T12:30:11Z</time>
      </trkpt>
      <trkpt lat="48.82151" lon="-1.57261">
        <ele>14</ele>
        <time>2024-01-25T12:30:12Z</time>
      </trkpt>
      <trkpt lat="48.82151" lon="-1.57261">
        <ele>14</ele>
        <time>2024-01-25T12:30:13Z</time>
      </trkpt>
      <trkpt lat="48.82151" lon="-1.57261">
        <ele>14</ele>
        <time>2024-01-25T12:30:14Z</time>
      </trkpt>
      <trkpt lat="48.82151" lon="-1.57261">
        <ele>14</ele>
        <time>2024-01-25T12:30:15Z</time>
      </trkpt>
      <trkpt lat="48.82151" lon="-1.57261">
        <ele>14</ele>
        <time>2024-01-25T12:30:16Z</time>
      </trkpt>
      <trkpt lat="48.82151" lon="-1.57261">
        <ele>14</ele>
        <time>2024-01-25T12:30:17Z</time>
      </trkpt>
      <trkpt lat="48.82151" lon="-1.57261">
        <ele>14</ele>
        <time>2024-01-25T12:30:18Z</time>
      </trkpt>
      <trkpt lat="48.82151" lon="-1.57261">
        <ele>14</ele>
        <time>2024-01-25T12:30:19Z</time>
      </trkpt>
      <trkpt lat="48.82151" lon="-1.57261">
        <ele>14</ele>
        <time>2024-01-25T12:30:20Z</time>
      </trkpt>
      <trkpt lat="48.82151" lon="-1.57261">
        <ele>14</ele>
        <time>2024-01-25T12:30:21Z</time>
      </trkpt>
      <trkpt lat="48.82151" lon="-1.57261">
        <ele>14</ele>
        <time>2024-01-25T12:30:22Z</time>
      </trkpt>
      <trkpt lat="48.82151" lon="-1.57261">
        <ele>14</ele>
        <time>2024-01-25T12:30:23Z</time>
      </trkpt>
      <trkpt lat="48.82151" lon="-1.57261">
        <ele>14</ele>
        <time>2024-01-25T12:30:24Z</time>
      </trkpt>
      <trkpt lat="48.82151" lon="-1.57261">
        <ele>14</ele>
        <time>2024-01-25T12:30:25Z</time>
      </trkpt>
      <trkpt lat="48.82151" lon="-1.57261">
        <ele>14</ele>
        <time>2024-01-25T12:30:26Z</time>
      </trkpt>
      <trkpt lat="48.82151" lon="-1.57261">
        <ele>14</ele>
        <time>2024-01-25T12:30:27Z</time>
      </trkpt>
      <trkpt lat="48.82151" lon="-1.57261">
        <ele>14</ele>
        <time>2024-01-25T12:30:28Z</time>
      </trkpt>
      <trkpt lat="48.82151" lon="-1.57261">
        <ele>14</ele>
        <time>2024-01-25T12:30:30Z</time>
      </trkpt>
      <trkpt lat="48.82151" lon="-1.57261">
        <ele>14</ele>
        <time>2024-01-25T12:30:31Z</time>
      </trkpt>
      <trkpt lat="48.82151" lon="-1.57261">
        <ele>14</ele>
        <time>2024-01-25T12:30:32Z</time>
      </trkpt>
      <trkpt lat="48.82151" lon="-1.57261">
        <ele>14</ele>
        <time>2024-01-25T12:30:33Z</time>
      </trkpt>
      <trkpt lat="48.82151" lon="-1.57261">
        <ele>14</ele>
        <time>2024-01-25T12:30:34Z</time>
      </trkpt>
      <trkpt lat="48.82151" lon="-1.57261">
        <ele>14</ele>
        <time>2024-01-25T12:30:35Z</time>
      </trkpt>
      <trkpt lat="48.82151" lon="-1.57261">
        <ele>14</ele>
        <time>2024-01-25T12:30:36Z</time>
      </trkpt>
      <trkpt lat="48.82151" lon="-1.57261">
        <ele>14</ele>
        <time>2024-01-25T12:30:37Z</time>
      </trkpt>
      <trkpt lat="48.82151" lon="-1.57261">
        <ele>14</ele>
        <time>2024-01-25T12:30:38Z</time>
      </trkpt>
      <trkpt lat="48.82151" lon="-1.57261">
        <ele>14</ele>
        <time>2024-01-25T12:30:39Z</time>
      </trkpt>
      <trkpt lat="48.82151" lon="-1.57261">
        <ele>14</ele>
        <time>2024-01-25T12:30:40Z</time>
      </trkpt>
      <trkpt lat="48.82151" lon="-1.57261">
        <ele>14</ele>
        <time>2024-01-25T12:30:41Z</time>
      </trkpt>
      <trkpt lat="48.82151" lon="-1.57261">
        <ele>14</ele>
        <time>2024-01-25T12:30:42Z</time>
      </trkpt>
      <trkpt lat="48.82151" lon="-1.57261">
        <ele>14</ele>
        <time>2024-01-25T12:30:43Z</time>
      </trkpt>
      <trkpt lat="48.82151" lon="-1.57261">
        <ele>14</ele>
        <time>2024-01-25T12:30:44Z</time>
      </trkpt>
      <trkpt lat="48.82151" lon="-1.57261">
        <ele>14</ele>
        <time>2024-01-25T12:30:45Z</time>
      </trkpt>
      <trkpt lat="48.82151" lon="-1.57261">
        <ele>14</ele>
        <time>2024-01-25T12:30:46Z</time>
      </trkpt>
      <trkpt lat="48.82151" lon="-1.57261">
        <ele>14</ele>
        <time>2024-01-25T12:30:47Z</time>
      </trkpt>
      <trkpt lat="48.82151" lon="-1.57261">
        <ele>14</ele>
        <time>2024-01-25T12:30:48Z</time>
      </trkpt>
      <trkpt lat="48.82151" lon="-1.57261">
        <ele>14</ele>
        <time>2024-01-25T12:30:49Z</time>
      </trkpt>
      <trkpt lat="48.82151" lon="-1.57261">
        <ele>14</ele>
        <time>2024-01-25T12:30:50Z</time>
      </trkpt>
      <trkpt lat="48.82151" lon="-1.57261">
        <ele>14</ele>
        <time>2024-01-25T12:30:51Z</time>
      </trkpt>
      <trkpt lat="48.82151" lon="-1.57261">
        <ele>14</ele>
        <time>2024-01-25T12:30:52Z</time>
      </trkpt>
      <trkpt lat="48.82151" lon="-1.57261">
        <ele>14</ele>
        <time>2024-01-25T12:30:54Z</time>
      </trkpt>
      <trkpt lat="48.82151" lon="-1.57261">
        <ele>14</ele>
        <time>2024-01-25T12:30:55Z</time>
      </trkpt>
      <trkpt lat="48.82151" lon="-1.57261">
        <ele>14</ele>
        <time>2024-01-25T12:30:56Z</time>
      </trkpt>
      <trkpt lat="48.82151" lon="-1.57261">
        <ele>14</ele>
        <time>2024-01-25T12:30:57Z</time>
      </trkpt>
      <trkpt lat="48.82151" lon="-1.57261">
        <ele>14</ele>
        <time>2024-01-25T12:30:58Z</time>
      </trkpt>
      <trkpt lat="48.82151" lon="-1.57261">
        <ele>14</ele>
        <time>2024-01-25T12:30:59Z</time>
      </trkpt>
      <trkpt lat="48.82151" lon="-1.57261">
        <ele>14</ele>
        <time>2024-01-25T12:31:00Z</time>
      </trkpt>
      <trkpt lat="48.82151" lon="-1.57261">
        <ele>14</ele>
        <time>2024-01-25T12:31:01Z</time>
      </trkpt>
      <trkpt lat="48.82151" lon="-1.57261">
        <ele>14</ele>
        <time>2024-01-25T12:31:02Z</time>
      </trkpt>
      <trkpt lat="48.8215" lon="-1.57264">
        <ele>14</ele>
        <time>2024-01-25T12:31:03Z</time>
      </trkpt>
      <trkpt lat="48.82149" lon="-1.57268">
        <ele>14</ele>
        <time>2024-01-25T12:31:04Z</time>
      </trkpt>
      <trkpt lat="48.82148" lon="-1.57274">
        <ele>14</ele>
        <time>2024-01-25T12:31:05Z</time>
      </trkpt>
      <trkpt lat="48.82148" lon="-1.57275">
        <ele>14</ele>
        <time>2024-01-25T12:31:06Z</time>
      </trkpt>
      <trkpt lat="48.82148" lon="-1.57278">
        <ele>14.1</ele>
        <time>2024-01-25T12:31:07Z</time>
      </trkpt>
      <trkpt lat="48.82148" lon="-1.5728">
        <ele>14.1</ele>
        <time>2024-01-25T12:31:08Z</time>
      </trkpt>
      <trkpt lat="48.82148" lon="-1.57285">
        <ele>14.1</ele>
        <time>2024-01-25T12:31:09Z</time>
      </trkpt>
      <trkpt lat="48.82148" lon="-1.57286">
        <ele>14.2</ele>
        <time>2024-01-25T12:31:10Z</time>
      </trkpt>
      <trkpt lat="48.82147" lon="-1.57288">
        <ele>14.2</ele>
        <time>2024-01-25T12:31:11Z</time>
      </trkpt>
      <trkpt lat="48.82146" lon="-1.5729">
        <ele>14.2</ele>
        <time>2024-01-25T12:31:12Z</time>
      </trkpt>
      <trkpt lat="48.82146" lon="-1.57292">
        <ele>14.2</ele>
        <time>2024-01-25T12:31:13Z</time>
      </trkpt>
      <trkpt lat="48.82146" lon="-1.57294">
        <ele>14.3</ele>
        <time>2024-01-25T12:31:14Z</time>
      </trkpt>
      <trkpt lat="48.82146" lon="-1.573">
        <ele>14.3</ele>
        <time>2024-01-25T12:31:15Z</time>
      </trkpt>
      <trkpt lat="48.82146" lon="-1.57301">
        <ele>14.4</ele>
        <time>2024-01-25T12:31:16Z</time>
      </trkpt>
      <trkpt lat="48.82146" lon="-1.57304">
        <ele>14.4</ele>
        <time>2024-01-25T12:31:17Z</time>
      </trkpt>
      <trkpt lat="48.82147" lon="-1.57306">
        <ele>14.4</ele>
        <time>2024-01-25T12:31:18Z</time>
      </trkpt>
      <trkpt lat="48.82147" lon="-1.57308">
        <ele>14.5</ele>
        <time>2024-01-25T12:31:19Z</time>
      </trkpt>
      <trkpt lat="48.82148" lon="-1.5731">
        <ele>14.5</ele>
        <time>2024-01-25T12:31:20Z</time>
      </trkpt>
      <trkpt lat="48.8215" lon="-1.5731">
        <ele>14.5</ele>
        <time>2024-01-25T12:31:21Z</time>
      </trkpt>
      <trkpt lat="48.82151" lon="-1.5731">
        <ele>14.5</ele>
        <time>2024-01-25T12:31:22Z</time>
      </trkpt>
      <trkpt lat="48.82152" lon="-1.5731">
        <ele>14.6</ele>
        <time>2024-01-25T12:31:23Z</time>
      </trkpt>
      <trkpt lat="48.82152" lon="-1.5731">
        <ele>14.6</ele>
        <time>2024-01-25T12:31:24Z</time>
      </trkpt>
      <trkpt lat="48.82153" lon="-1.5731">
        <ele>14.6</ele>
        <time>2024-01-25T12:31:25Z</time>
      </trkpt>
      <trkpt lat="48.82154" lon="-1.57312">
        <ele>14.6</ele>
        <time>2024-01-25T12:31:26Z</time>
      </trkpt>
      <trkpt lat="48.82155" lon="-1.57314">
        <ele>14.7</ele>
        <time>2024-01-25T12:31:27Z</time>
      </trkpt>
      <trkpt lat="48.82156" lon="-1.57317">
        <ele>14.7</ele>
        <time>2024-01-25T12:31:28Z</time>
      </trkpt>
      <trkpt lat="48.82156" lon="-1.57321">
        <ele>14.8</ele>
        <time>2024-01-25T12:31:29Z</time>
      </trkpt>
      <trkpt lat="48.82157" lon="-1.57322">
        <ele>14.8</ele>
        <time>2024-01-25T12:31:30Z</time>
      </trkpt>
      <trkpt lat="48.82157" lon="-1.57327">
        <ele>14.9</ele>
        <time>2024-01-25T12:31:31Z</time>
      </trkpt>
      <trkpt lat="48.82157" lon="-1.57328">
        <ele>14.9</ele>
        <time>2024-01-25T12:31:32Z</time>
      </trkpt>
      <trkpt lat="48.82157" lon="-1.57333">
        <ele>15</ele>
        <time>2024-01-25T12:31:33Z</time>
      </trkpt>
      <trkpt lat="48.82157" lon="-1.57335">
        <ele>15</ele>
        <time>2024-01-25T12:31:34Z</time>
      </trkpt>
      <trkpt lat="48.82156" lon="-1.57341">
        <ele>15.2</ele>
        <time>2024-01-25T12:31:35Z</time>
      </trkpt>
      <trkpt lat="48.82156" lon="-1.57342">
        <ele>15.2</ele>
        <time>2024-01-25T12:31:36Z</time>
      </trkpt>
      <trkpt lat="48.82156" lon="-1.57348">
        <ele>15.5</ele>
        <time>2024-01-25T12:31:37Z</time>
      </trkpt>
      <trkpt lat="48.82155" lon="-1.57351">
        <ele>15.5</ele>
        <time>2024-01-25T12:31:38Z</time>
      </trkpt>
      <trkpt lat="48.82155" lon="-1.57355">
        <ele>15.6</ele>
        <time>2024-01-25T12:31:39Z</time>
      </trkpt>
      <trkpt lat="48.82156" lon="-1.57359">
        <ele>15.7</ele>
        <time>2024-01-25T12:31:40Z</time>
      </trkpt>
      <trkpt lat="48.82157" lon="-1.57364">
        <ele>15.8</ele>
        <time>2024-01-25T12:31:41Z</time>
      </trkpt>
      <trkpt lat="48.82158" lon="-1.57365">
        <ele>15.8</ele>
        <time>2024-01-25T12:31:42Z</time>
      </trkpt>
      <trkpt lat="48.82159" lon="-1.5737">
        <ele>16.1</ele>
        <time>2024-01-25T12:31:43Z</time>
      </trkpt>
      <trkpt lat="48.8216" lon="-1.57371">
        <ele>16.1</ele>
        <time>2024-01-25T12:31:44Z</time>
      </trkpt>
      <trkpt lat="48.8216" lon="-1.57375">
        <ele>16.4</ele>
        <time>2024-01-25T12:31:45Z</time>
      </trkpt>
      <trkpt lat="48.82161" lon="-1.57377">
        <ele>16.4</ele>
        <time>2024-01-25T12:31:46Z</time>
      </trkpt>
      <trkpt lat="48.82161" lon="-1.57382">
        <ele>16.7</ele>
        <time>2024-01-25T12:31:47Z</time>
      </trkpt>
      <trkpt lat="48.82161" lon="-1.57385">
        <ele>16.8</ele>
        <time>2024-01-25T12:31:48Z</time>
      </trkpt>
      <trkpt lat="48.82163" lon="-1.57389">
        <ele>17.1</ele>
        <time>2024-01-25T12:31:49Z</time>
      </trkpt>
      <trkpt lat="48.82164" lon="-1.57393">
        <ele>17.3</ele>
        <time>2024-01-25T12:31:50Z</time>
      </trkpt>
      <trkpt lat="48.82166" lon="-1.57397">
        <ele>17.5</ele>
        <time>2024-01-25T12:31:51Z</time>
      </trkpt>
      <trkpt lat="48.82168" lon="-1.57401">
        <ele>17.8</ele>
        <time>2024-01-25T12:31:52Z</time>
      </trkpt>
      <trkpt lat="48.8217" lon="-1.57404">
        <ele>18</ele>
        <time>2024-01-25T12:31:53Z</time>
      </trkpt>
      <trkpt lat="48.82174" lon="-1.57409">
        <ele>18.4</ele>
        <time>2024-01-25T12:31:55Z</time>
      </trkpt>
      <trkpt lat="48.82177" lon="-1.57411">
        <ele>18.7</ele>
        <time>2024-01-25T12:31:56Z</time>
      </trkpt>
      <trkpt lat="48.8218" lon="-1.57412">
        <ele>18.9</ele>
        <time>2024-01-25T12:31:57Z</time>
      </trkpt>
      <trkpt lat="48.82183" lon="-1.57414">
        <ele>19.1</ele>
        <time>2024-01-25T12:31:58Z</time>
      </trkpt>
      <trkpt lat="48.82186" lon="-1.57415">
        <ele>19.3</ele>
        <time>2024-01-25T12:31:59Z</time>
      </trkpt>
      <trkpt lat="48.82189" lon="-1.57417">
        <ele>19.5</ele>
        <time>2024-01-25T12:32:00Z</time>
      </trkpt>
      <trkpt lat="48.8219" lon="-1.57417">
        <ele>19.6</ele>
        <time>2024-01-25T12:32:01Z</time>
      </trkpt>
      <trkpt lat="48.82192" lon="-1.5742">
        <ele>19.8</ele>
        <time>2024-01-25T12:32:02Z</time>
      </trkpt>
      <trkpt lat="48.82193" lon="-1.57421">
        <ele>19.9</ele>
        <time>2024-01-25T12:32:03Z</time>
      </trkpt>
      <trkpt lat="48.82196" lon="-1.57423">
        <ele>20.2</ele>
        <time>2024-01-25T12:32:04Z</time>
      </trkpt>
      <trkpt lat="48.82198" lon="-1.57424">
        <ele>20.3</ele>
        <time>2024-01-25T12:32:05Z</time>
      </trkpt>
      <trkpt lat="48.82201" lon="-1.57426">
        <ele>20.5</ele>
        <time>2024-01-25T12:32:06Z</time>
      </trkpt>
      <trkpt lat="48.82202" lon="-1.57426">
        <ele>20.6</ele>
        <time>2024-01-25T12:32:07Z</time>
      </trkpt>
      <trkpt lat="48.82206" lon="-1.57428">
        <ele>20.8</ele>
        <time>2024-01-25T12:32:08Z</time>
      </trkpt>
      <trkpt lat="48.82209" lon="-1.57429">
        <ele>21</ele>
        <time>2024-01-25T12:32:09Z</time>
      </trkpt>
      <trkpt lat="48.82211" lon="-1.57432">
        <ele>21.2</ele>
        <time>2024-01-25T12:32:10Z</time>
      </trkpt>
      <trkpt lat="48.82214" lon="-1.57435">
        <ele>21.4</ele>
        <time>2024-01-25T12:32:11Z</time>
      </trkpt>
      <trkpt lat="48.82214" lon="-1.57437">
        <ele>21.4</ele>
        <time>2024-01-25T12:32:12Z</time>
      </trkpt>
      <trkpt lat="48.82217" lon="-1.5744">
        <ele>21.7</ele>
        <time>2024-01-25T12:32:13Z</time>
      </trkpt>
      <trkpt lat="48.82218" lon="-1.57441">
        <ele>21.7</ele>
        <time>2024-01-25T12:32:14Z</time>
      </trkpt>
      <trkpt lat="48.82221" lon="-1.57444">
        <ele>22</ele>
        <time>2024-01-25T12:32:15Z</time>
      </trkpt>
      <trkpt lat="48.82222" lon="-1.57445">
        <ele>22</ele>
        <time>2024-01-25T12:32:16Z</time>
      </trkpt>
      <trkpt lat="48.82225" lon="-1.57446">
        <ele>22.3</ele>
        <time>2024-01-25T12:32:17Z</time>
      </trkpt>
      <trkpt lat="48.82229" lon="-1.57449">
        <ele>22.5</ele>
        <time>2024-01-25T12:32:18Z</time>
      </trkpt>
      <trkpt lat="48.8223" lon="-1.57449">
        <ele>22.6</ele>
        <time>2024-01-25T12:32:19Z</time>
      </trkpt>
      <trkpt lat="48.82234" lon="-1.57451">
        <ele>22.9</ele>
        <time>2024-01-25T12:32:20Z</time>
      </trkpt>
      <trkpt lat="48.82237" lon="-1.57453">
        <ele>23.1</ele>
        <time>2024-01-25T12:32:21Z</time>
      </trkpt>
      <trkpt lat="48.8224" lon="-1.57455">
        <ele>23.4</ele>
        <time>2024-01-25T12:32:22Z</time>
      </trkpt>
      <trkpt lat="48.82244" lon="-1.57457">
        <ele>23.6</ele>
        <time>2024-01-25T12:32:23Z</time>
      </trkpt>
      <trkpt lat="48.82246" lon="-1.57459">
        <ele>23.8</ele>
        <time>2024-01-25T12:32:24Z</time>
      </trkpt>
      <trkpt lat="48.82249" lon="-1.57461">
        <ele>24.1</ele>
        <time>2024-01-25T12:32:25Z</time>
      </trkpt>
      <trkpt lat="48.82251" lon="-1.57462">
        <ele>24.2</ele>
        <time>2024-01-25T12:32:26Z</time>
      </trkpt>
      <trkpt lat="48.82253" lon="-1.57464">
        <ele>24.4</ele>
        <time>2024-01-25T12:32:27Z</time>
      </trkpt>
      <trkpt lat="48.82257" lon="-1.57467">
        <ele>24.6</ele>
        <time>2024-01-25T12:32:28Z</time>
      </trkpt>
      <trkpt lat="48.82258" lon="-1.57468">
        <ele>24.7</ele>
        <time>2024-01-25T12:32:29Z</time>
      </trkpt>
      <trkpt lat="48.82261" lon="-1.57471">
        <ele>25</ele>
        <time>2024-01-25T12:32:30Z</time>
      </trkpt>
      <trkpt lat="48.82262" lon="-1.57472">
        <ele>25.1</ele>
        <time>2024-01-25T12:32:31Z</time>
      </trkpt>
      <trkpt lat="48.82266" lon="-1.57474">
        <ele>25.3</ele>
        <time>2024-01-25T12:32:32Z</time>
      </trkpt>
      <trkpt lat="48.82267" lon="-1.57474">
        <ele>25.4</ele>
        <time>2024-01-25T12:32:33Z</time>
      </trkpt>
      <trkpt lat="48.8227" lon="-1.57476">
        <ele>25.5</ele>
        <time>2024-01-25T12:32:34Z</time>
      </trkpt>
      <trkpt lat="48.82273" lon="-1.57478">
        <ele>25.7</ele>
        <time>2024-01-25T12:32:35Z</time>
      </trkpt>
      <trkpt lat="48.82277" lon="-1.5748">
        <ele>25.9</ele>
        <time>2024-01-25T12:32:36Z</time>
      </trkpt>
      <trkpt lat="48.82278" lon="-1.57481">
        <ele>25.9</ele>
        <time>2024-01-25T12:32:37Z</time>
      </trkpt>
      <trkpt lat="48.82281" lon="-1.57483">
        <ele>26.1</ele>
        <time>2024-01-25T12:32:38Z</time>
      </trkpt>
      <trkpt lat="48.82282" lon="-1.57484">
        <ele>26.1</ele>
        <time>2024-01-25T12:32:39Z</time>
      </trkpt>
      <trkpt lat="48.82286" lon="-1.57486">
        <ele>26.3</ele>
        <time>2024-01-25T12:32:40Z</time>
      </trkpt>
      <trkpt lat="48.82287" lon="-1.57487">
        <ele>26.3</ele>
        <time>2024-01-25T12:32:41Z</time>
      </trkpt>
      <trkpt lat="48.8229" lon="-1.57488">
        <ele>26.4</ele>
        <time>2024-01-25T12:32:42Z</time>
      </trkpt>
      <trkpt lat="48.82294" lon="-1.5749">
        <ele>26.5</ele>
        <time>2024-01-25T12:32:43Z</time>
      </trkpt>
      <trkpt lat="48.82297" lon="-1.57491">
        <ele>26.6</ele>
        <time>2024-01-25T12:32:44Z</time>
      </trkpt>
      <trkpt lat="48.82301" lon="-1.57493">
        <ele>26.6</ele>
        <time>2024-01-25T12:32:45Z</time>
      </trkpt>
      <trkpt lat="48.82304" lon="-1.57495">
        <ele>26.7</ele>
        <time>2024-01-25T12:32:46Z</time>
      </trkpt>
      <trkpt lat="48.82307" lon="-1.57496">
        <ele>26.7</ele>
        <time>2024-01-25T12:32:47Z</time>
      </trkpt>
      <trkpt lat="48.8231" lon="-1.57497">
        <ele>26.7</ele>
        <time>2024-01-25T12:32:48Z</time>
      </trkpt>
      <trkpt lat="48.82314" lon="-1.57499">
        <ele>26.7</ele>
        <time>2024-01-25T12:32:49Z</time>
      </trkpt>
      <trkpt lat="48.82317" lon="-1.575">
        <ele>26.7</ele>
        <time>2024-01-25T12:32:50Z</time>
      </trkpt>
      <trkpt lat="48.82321" lon="-1.57502">
        <ele>26.7</ele>
        <time>2024-01-25T12:32:51Z</time>
      </trkpt>
      <trkpt lat="48.82325" lon="-1.57503">
        <ele>26.7</ele>
        <time>2024-01-25T12:32:52Z</time>
      </trkpt>
      <trkpt lat="48.82329" lon="-1.57504">
        <ele>26.7</ele>
        <time>2024-01-25T12:32:53Z</time>
      </trkpt>
      <trkpt lat="48.82333" lon="-1.57505">
        <ele>26.7</ele>
        <time>2024-01-25T12:32:54Z</time>
      </trkpt>
      <trkpt lat="48.82336" lon="-1.57506">
        <ele>26.7</ele>
        <time>2024-01-25T12:32:55Z</time>
      </trkpt>
      <trkpt lat="48.8234" lon="-1.57507">
        <ele>26.7</ele>
        <time>2024-01-25T12:32:56Z</time>
      </trkpt>
      <trkpt lat="48.82343" lon="-1.57508">
        <ele>26.7</ele>
        <time>2024-01-25T12:32:57Z</time>
      </trkpt>
      <trkpt lat="48.82346" lon="-1.5751">
        <ele>26.7</ele>
        <time>2024-01-25T12:32:58Z</time>
      </trkpt>
      <trkpt lat="48.82349" lon="-1.57513">
        <ele>26.7</ele>
        <time>2024-01-25T12:32:59Z</time>
      </trkpt>
      <trkpt lat="48.82352" lon="-1.57515">
        <ele>26.7</ele>
        <time>2024-01-25T12:33:00Z</time>
      </trkpt>
      <trkpt lat="48.82355" lon="-1.57517">
        <ele>26.6</ele>
        <time>2024-01-25T12:33:01Z</time>
      </trkpt>
      <trkpt lat="48.82358" lon="-1.5752">
        <ele>26.6</ele>
        <time>2024-01-25T12:33:02Z</time>
      </trkpt>
      <trkpt lat="48.82361" lon="-1.57522">
        <ele>26.6</ele>
        <time>2024-01-25T12:33:03Z</time>
      </trkpt>
      <trkpt lat="48.82364" lon="-1.57524">
        <ele>26.6</ele>
        <time>2024-01-25T12:33:04Z</time>
      </trkpt>
      <trkpt lat="48.82366" lon="-1.57527">
        <ele>26.5</ele>
        <time>2024-01-25T12:33:05Z</time>
      </trkpt>
      <trkpt lat="48.82369" lon="-1.57529">
        <ele>26.5</ele>
        <time>2024-01-25T12:33:06Z</time>
      </trkpt>
      <trkpt lat="48.82373" lon="-1.57532">
        <ele>26.5</ele>
        <time>2024-01-25T12:33:07Z</time>
      </trkpt>
      <trkpt lat="48.82376" lon="-1.57535">
        <ele>26.5</ele>
        <time>2024-01-25T12:33:08Z</time>
      </trkpt>
      <trkpt lat="48.82379" lon="-1.57538">
        <ele>26.4</ele>
        <time>2024-01-25T12:33:09Z</time>
      </trkpt>
      <trkpt lat="48.82382" lon="-1.57542">
        <ele>26.4</ele>
        <time>2024-01-25T12:33:10Z</time>
      </trkpt>
      <trkpt lat="48.82385" lon="-1.57546">
        <ele>26.4</ele>
        <time>2024-01-25T12:33:11Z</time>
      </trkpt>
      <trkpt lat="48.82389" lon="-1.5755">
        <ele>26.3</ele>
        <time>2024-01-25T12:33:12Z</time>
      </trkpt>
      <trkpt lat="48.82391" lon="-1.57554">
        <ele>26.3</ele>
        <time>2024-01-25T12:33:13Z</time>
      </trkpt>
      <trkpt lat="48.82394" lon="-1.57558">
        <ele>26.3</ele>
        <time>2024-01-25T12:33:14Z</time>
      </trkpt>
      <trkpt lat="48.82397" lon="-1.57562">
        <ele>26.3</ele>
        <time>2024-01-25T12:33:15Z</time>
      </trkpt>
      <trkpt lat="48.82399" lon="-1.57566">
        <ele>26.2</ele>
        <time>2024-01-25T12:33:16Z</time>
      </trkpt>
      <trkpt lat="48.82402" lon="-1.5757">
        <ele>26.2</ele>
        <time>2024-01-25T12:33:17Z</time>
      </trkpt>
      <trkpt lat="48.82404" lon="-1.57575">
        <ele>26.2</ele>
        <time>2024-01-25T12:33:18Z</time>
      </trkpt>
      <trkpt lat="48.82407" lon="-1.5758">
        <ele>26.2</ele>
        <time>2024-01-25T12:33:19Z</time>
      </trkpt>
      <trkpt lat="48.8241" lon="-1.57585">
        <ele>26.2</ele>
        <time>2024-01-25T12:33:20Z</time>
      </trkpt>
      <trkpt lat="48.82413" lon="-1.57588">
        <ele>26.2</ele>
        <time>2024-01-25T12:33:21Z</time>
      </trkpt>
      <trkpt lat="48.82415" lon="-1.57592">
        <ele>26.1</ele>
        <time>2024-01-25T12:33:22Z</time>
      </trkpt>
      <trkpt lat="48.82418" lon="-1.57596">
        <ele>26.1</ele>
        <time>2024-01-25T12:33:23Z</time>
      </trkpt>
      <trkpt lat="48.8242" lon="-1.57601">
        <ele>26</ele>
        <time>2024-01-25T12:33:24Z</time>
      </trkpt>
      <trkpt lat="48.82423" lon="-1.57606">
        <ele>26</ele>
        <time>2024-01-25T12:33:25Z</time>
      </trkpt>
      <trkpt lat="48.82425" lon="-1.5761">
        <ele>26</ele>
        <time>2024-01-25T12:33:26Z</time>
      </trkpt>
      <trkpt lat="48.82428" lon="-1.57614">
        <ele>26</ele>
        <time>2024-01-25T12:33:27Z</time>
      </trkpt>
      <trkpt lat="48.82431" lon="-1.57619">
        <ele>25.9</ele>
        <time>2024-01-25T12:33:28Z</time>
      </trkpt>
      <trkpt lat="48.82434" lon="-1.57623">
        <ele>25.9</ele>
        <time>2024-01-25T12:33:29Z</time>
      </trkpt>
      <trkpt lat="48.82436" lon="-1.57627">
        <ele>25.9</ele>
        <time>2024-01-25T12:33:30Z</time>
      </trkpt>
      <trkpt lat="48.82439" lon="-1.57632">
        <ele>25.9</ele>
        <time>2024-01-25T12:33:31Z</time>
      </trkpt>
      <trkpt lat="48.82442" lon="-1.57636">
        <ele>25.8</ele>
        <time>2024-01-25T12:33:32Z</time>
      </trkpt>
      <trkpt lat="48.82444" lon="-1.5764">
        <ele>25.8</ele>
        <time>2024-01-25T12:33:33Z</time>
      </trkpt>
      <trkpt lat="48.82447" lon="-1.57644">
        <ele>25.7</ele>
        <time>2024-01-25T12:33:34Z</time>
      </trkpt>
      <trkpt lat="48.8245" lon="-1.57648">
        <ele>25.7</ele>
        <time>2024-01-25T12:33:35Z</time>
      </trkpt>
      <trkpt lat="48.82453" lon="-1.57653">
        <ele>25.6</ele>
        <time>2024-01-25T12:33:36Z</time>
      </trkpt>
      <trkpt lat="48.82456" lon="-1.57657">
        <ele>25.5</ele>
        <time>2024-01-25T12:33:37Z</time>
      </trkpt>
      <trkpt lat="48.82459" lon="-1.57661">
        <ele>25.5</ele>
        <time>2024-01-25T12:33:38Z</time>
      </trkpt>
      <trkpt lat="48.82463" lon="-1.57665">
        <ele>25.4</ele>
        <time>2024-01-25T12:33:39Z</time>
      </trkpt>
      <trkpt lat="48.82466" lon="-1.5767">
        <ele>25.3</ele>
        <time>2024-01-25T12:33:40Z</time>
      </trkpt>
      <trkpt lat="48.8247" lon="-1.57674">
        <ele>25.3</ele>
        <time>2024-01-25T12:33:41Z</time>
      </trkpt>
      <trkpt lat="48.82473" lon="-1.57679">
        <ele>25.2</ele>
        <time>2024-01-25T12:33:42Z</time>
      </trkpt>
      <trkpt lat="48.82476" lon="-1.57683">
        <ele>25.1</ele>
        <time>2024-01-25T12:33:43Z</time>
      </trkpt>
      <trkpt lat="48.8248" lon="-1.57686">
        <ele>25</ele>
        <time>2024-01-25T12:33:44Z</time>
      </trkpt>
      <trkpt lat="48.82484" lon="-1.5769">
        <ele>24.9</ele>
        <time>2024-01-25T12:33:45Z</time>
      </trkpt>
      <trkpt lat="48.82488" lon="-1.57694">
        <ele>24.7</ele>
        <time>2024-01-25T12:33:46Z</time>
      </trkpt>
      <trkpt lat="48.82492" lon="-1.57698">
        <ele>24.6</ele>
        <time>2024-01-25T12:33:47Z</time>
      </trkpt>
      <trkpt lat="48.82496" lon="-1.57703">
        <ele>24.5</ele>
        <time>2024-01-25T12:33:48Z</time>
      </trkpt>
      <trkpt lat="48.82501" lon="-1.57707">
        <ele>24.4</ele>
        <time>2024-01-25T12:33:49Z</time>
      </trkpt>
      <trkpt lat="48.82505" lon="-1.57711">
        <ele>24.3</ele>
        <time>2024-01-25T12:33:50Z</time>
      </trkpt>
      <trkpt lat="48.8251" lon="-1.57715">
        <ele>24.2</ele>
        <time>2024-01-25T12:33:51Z</time>
      </trkpt>
      <trkpt lat="48.82514" lon="-1.57719">
        <ele>24.1</ele>
        <time>2024-01-25T12:33:52Z</time>
      </trkpt>
      <trkpt lat="48.82519" lon="-1.57723">
        <ele>24</ele>
        <time>2024-01-25T12:33:53Z</time>
      </trkpt>
      <trkpt lat="48.82524" lon="-1.57727">
        <ele>24</ele>
        <time>2024-01-25T12:33:54Z</time>
      </trkpt>
      <trkpt lat="48.82528" lon="-1.57732">
        <ele>23.9</ele>
        <time>2024-01-25T12:33:55Z</time>
      </trkpt>
      <trkpt lat="48.82533" lon="-1.57736">
        <ele>23.9</ele>
        <time>2024-01-25T12:33:56Z</time>
      </trkpt>
      <trkpt lat="48.82537" lon="-1.5774">
        <ele>23.9</ele>
        <time>2024-01-25T12:33:57Z</time>
      </trkpt>
      <trkpt lat="48.82541" lon="-1.57744">
        <ele>23.9</ele>
        <time>2024-01-25T12:33:58Z</time>
      </trkpt>
      <trkpt lat="48.82545" lon="-1.57749">
        <ele>23.9</ele>
        <time>2024-01-25T12:33:59Z</time>
      </trkpt>
      <trkpt lat="48.82549" lon="-1.57753">
        <ele>23.9</ele>
        <time>2024-01-25T12:34:00Z</time>
      </trkpt>
      <trkpt lat="48.82553" lon="-1.57757">
        <ele>24</ele>
        <time>2024-01-25T12:34:01Z</time>
      </trkpt>
      <trkpt lat="48.82557" lon="-1.57761">
        <ele>24</ele>
        <time>2024-01-25T12:34:02Z</time>
      </trkpt>
      <trkpt lat="48.82561" lon="-1.57765">
        <ele>24.1</ele>
        <time>2024-01-25T12:34:03Z</time>
      </trkpt>
      <trkpt lat="48.82565" lon="-1.57769">
        <ele>24.2</ele>
        <time>2024-01-25T12:34:04Z</time>
      </trkpt>
      <trkpt lat="48.82569" lon="-1.57774">
        <ele>24.2</ele>
        <time>2024-01-25T12:34:05Z</time>
      </trkpt>
      <trkpt lat="48.82573" lon="-1.57778">
        <ele>24.3</ele>
        <time>2024-01-25T12:34:06Z</time>
      </trkpt>
      <trkpt lat="48.82578" lon="-1.57781">
        <ele>24.4</ele>
        <time>2024-01-25T12:34:07Z</time>
      </trkpt>
      <trkpt lat="48.82582" lon="-1.57785">
        <ele>24.5</ele>
        <time>2024-01-25T12:34:08Z</time>
      </trkpt>
      <trkpt lat="48.82586" lon="-1.57789">
        <ele>24.6</ele>
        <time>2024-01-25T12:34:09Z</time>
      </trkpt>
      <trkpt lat="48.82591" lon="-1.57792">
        <ele>24.7</ele>
        <time>2024-01-25T12:34:10Z</time>
      </trkpt>
      <trkpt lat="48.82594" lon="-1.57796">
        <ele>24.9</ele>
        <time>2024-01-25T12:34:11Z</time>
      </trkpt>
      <trkpt lat="48.82598" lon="-1.57799">
        <ele>25.1</ele>
        <time>2024-01-25T12:34:12Z</time>
      </trkpt>
      <trkpt lat="48.82602" lon="-1.57801">
        <ele>25.2</ele>
        <time>2024-01-25T12:34:13Z</time>
      </trkpt>
      <trkpt lat="48.82605" lon="-1.57804">
        <ele>25.4</ele>
        <time>2024-01-25T12:34:14Z</time>
      </trkpt>
      <trkpt lat="48.82608" lon="-1.57807">
        <ele>25.6</ele>
        <time>2024-01-25T12:34:15Z</time>
      </trkpt>
      <trkpt lat="48.82611" lon="-1.57809">
        <ele>25.8</ele>
        <time>2024-01-25T12:34:16Z</time>
      </trkpt>
      <trkpt lat="48.82615" lon="-1.57811">
        <ele>26</ele>
        <time>2024-01-25T12:34:17Z</time>
      </trkpt>
      <trkpt lat="48.82618" lon="-1.57813">
        <ele>26.1</ele>
        <time>2024-01-25T12:34:18Z</time>
      </trkpt>
      <trkpt lat="48.82621" lon="-1.57816">
        <ele>26.3</ele>
        <time>2024-01-25T12:34:19Z</time>
      </trkpt>
      <trkpt lat="48.82623" lon="-1.57818">
        <ele>26.5</ele>
        <time>2024-01-25T12:34:21Z</time>
      </trkpt>
      <trkpt lat="48.82626" lon="-1.57819">
        <ele>26.6</ele>
        <time>2024-01-25T12:34:22Z</time>
      </trkpt>
      <trkpt lat="48.8263" lon="-1.57821">
        <ele>26.9</ele>
        <time>2024-01-25T12:34:23Z</time>
      </trkpt>
      <trkpt lat="48.82634" lon="-1.57824">
        <ele>27.1</ele>
        <time>2024-01-25T12:34:24Z</time>
      </trkpt>
      <trkpt lat="48.82637" lon="-1.57825">
        <ele>27.4</ele>
        <time>2024-01-25T12:34:25Z</time>
      </trkpt>
      <trkpt lat="48.82641" lon="-1.57827">
        <ele>27.6</ele>
        <time>2024-01-25T12:34:26Z</time>
      </trkpt>
      <trkpt lat="48.82645" lon="-1.57828">
        <ele>27.9</ele>
        <time>2024-01-25T12:34:27Z</time>
      </trkpt>
      <trkpt lat="48.82648" lon="-1.5783">
        <ele>28</ele>
        <time>2024-01-25T12:34:28Z</time>
      </trkpt>
      <trkpt lat="48.82651" lon="-1.57832">
        <ele>28.2</ele>
        <time>2024-01-25T12:34:29Z</time>
      </trkpt>
      <trkpt lat="48.82653" lon="-1.57834">
        <ele>28.4</ele>
        <time>2024-01-25T12:34:30Z</time>
      </trkpt>
      <trkpt lat="48.82657" lon="-1.57835">
        <ele>28.6</ele>
        <time>2024-01-25T12:34:31Z</time>
      </trkpt>
      <trkpt lat="48.82658" lon="-1.57836">
        <ele>28.7</ele>
        <time>2024-01-25T12:34:32Z</time>
      </trkpt>
      <trkpt lat="48.82661" lon="-1.57838">
        <ele>28.9</ele>
        <time>2024-01-25T12:34:33Z</time>
      </trkpt>
      <trkpt lat="48.82664" lon="-1.57839">
        <ele>29.1</ele>
        <time>2024-01-25T12:34:34Z</time>
      </trkpt>
      <trkpt lat="48.82665" lon="-1.57839">
        <ele>29.1</ele>
        <time>2024-01-25T12:34:35Z</time>
      </trkpt>
      <trkpt lat="48.82668" lon="-1.57841">
        <ele>29.3</ele>
        <time>2024-01-25T12:34:36Z</time>
      </trkpt>
      <trkpt lat="48.82669" lon="-1.57842">
        <ele>29.4</ele>
        <time>2024-01-25T12:34:37Z</time>
      </trkpt>
      <trkpt lat="48.82672" lon="-1.57844">
        <ele>29.6</ele>
        <time>2024-01-25T12:34:38Z</time>
      </trkpt>
      <trkpt lat="48.82674" lon="-1.57845">
        <ele>29.7</ele>
        <time>2024-01-25T12:34:39Z</time>
      </trkpt>
      <trkpt lat="48.82677" lon="-1.57847">
        <ele>30</ele>
        <time>2024-01-25T12:34:40Z</time>
      </trkpt>
      <trkpt lat="48.82678" lon="-1.57848">
        <ele>30.1</ele>
        <time>2024-01-25T12:34:41Z</time>
      </trkpt>
      <trkpt lat="48.82681" lon="-1.57849">
        <ele>30.3</ele>
        <time>2024-01-25T12:34:42Z</time>
      </trkpt>
      <trkpt lat="48.82682" lon="-1.57849">
        <ele>30.3</ele>
        <time>2024-01-25T12:34:43Z</time>
      </trkpt>
      <trkpt lat="48.82685" lon="-1.57851">
        <ele>30.5</ele>
        <time>2024-01-25T12:34:44Z</time>
      </trkpt>
      <trkpt lat="48.82687" lon="-1.57852">
        <ele>30.7</ele>
        <time>2024-01-25T12:34:45Z</time>
      </trkpt>
      <trkpt lat="48.82688" lon="-1.57853">
        <ele>30.8</ele>
        <time>2024-01-25T12:34:46Z</time>
      </trkpt>
      <trkpt lat="48.82691" lon="-1.57855">
        <ele>31</ele>
        <time>2024-01-25T12:34:47Z</time>
      </trkpt>
      <trkpt lat="48.82692" lon="-1.57856">
        <ele>31.1</ele>
        <time>2024-01-25T12:34:48Z</time>
      </trkpt>
      <trkpt lat="48.82695" lon="-1.57857">
        <ele>31.3</ele>
        <time>2024-01-25T12:34:49Z</time>
      </trkpt>
      <trkpt lat="48.82696" lon="-1.57858">
        <ele>31.4</ele>
        <time>2024-01-25T12:34:50Z</time>
      </trkpt>
      <trkpt lat="48.827" lon="-1.5786">
        <ele>31.7</ele>
        <time>2024-01-25T12:34:51Z</time>
      </trkpt>
      <trkpt lat="48.82702" lon="-1.57861">
        <ele>31.8</ele>
        <time>2024-01-25T12:34:52Z</time>
      </trkpt>
      <trkpt lat="48.82704" lon="-1.57862">
        <ele>32</ele>
        <time>2024-01-25T12:34:53Z</time>
      </trkpt>
      <trkpt lat="48.82707" lon="-1.57863">
        <ele>32.3</ele>
        <time>2024-01-25T12:34:54Z</time>
      </trkpt>
      <trkpt lat="48.8271" lon="-1.57865">
        <ele>32.5</ele>
        <time>2024-01-25T12:34:55Z</time>
      </trkpt>
      <trkpt lat="48.82713" lon="-1.57865">
        <ele>32.7</ele>
        <time>2024-01-25T12:34:56Z</time>
      </trkpt>
      <trkpt lat="48.82716" lon="-1.57867">
        <ele>32.8</ele>
        <time>2024-01-25T12:34:57Z</time>
      </trkpt>
      <trkpt lat="48.82719" lon="-1.57869">
        <ele>33.1</ele>
        <time>2024-01-25T12:34:58Z</time>
      </trkpt>
      <trkpt lat="48.8272" lon="-1.5787">
        <ele>33.1</ele>
        <time>2024-01-25T12:34:59Z</time>
      </trkpt>
      <trkpt lat="48.82723" lon="-1.57872">
        <ele>33.4</ele>
        <time>2024-01-25T12:35:00Z</time>
      </trkpt>
      <trkpt lat="48.82724" lon="-1.57873">
        <ele>33.4</ele>
        <time>2024-01-25T12:35:01Z</time>
      </trkpt>
      <trkpt lat="48.82727" lon="-1.57876">
        <ele>33.7</ele>
        <time>2024-01-25T12:35:02Z</time>
      </trkpt>
      <trkpt lat="48.82728" lon="-1.57877">
        <ele>33.8</ele>
        <time>2024-01-25T12:35:03Z</time>
      </trkpt>
      <trkpt lat="48.8273" lon="-1.57878">
        <ele>33.9</ele>
        <time>2024-01-25T12:35:04Z</time>
      </trkpt>
      <trkpt lat="48.82731" lon="-1.57879">
        <ele>34</ele>
        <time>2024-01-25T12:35:05Z</time>
      </trkpt>
      <trkpt lat="48.82733" lon="-1.5788">
        <ele>34.1</ele>
        <time>2024-01-25T12:35:06Z</time>
      </trkpt>
      <trkpt lat="48.82734" lon="-1.5788">
        <ele>34.2</ele>
        <time>2024-01-25T12:35:07Z</time>
      </trkpt>
      <trkpt lat="48.82735" lon="-1.57878">
        <ele>34.2</ele>
        <time>2024-01-25T12:35:08Z</time>
      </trkpt>
      <trkpt lat="48.82736" lon="-1.57877">
        <ele>34.3</ele>
        <time>2024-01-25T12:35:09Z</time>
      </trkpt>
      <trkpt lat="48.82737" lon="-1.57876">
        <ele>34.3</ele>
        <time>2024-01-25T12:35:10Z</time>
      </trkpt>
      <trkpt lat="48.82737" lon="-1.57873">
        <ele>34.4</ele>
        <time>2024-01-25T12:35:11Z</time>
      </trkpt>
      <trkpt lat="48.82739" lon="-1.57873">
        <ele>34.5</ele>
        <time>2024-01-25T12:35:12Z</time>
      </trkpt>
      <trkpt lat="48.82742" lon="-1.57873">
        <ele>34.6</ele>
        <time>2024-01-25T12:35:13Z</time>
      </trkpt>
      <trkpt lat="48.82743" lon="-1.57874">
        <ele>34.7</ele>
        <time>2024-01-25T12:35:14Z</time>
      </trkpt>
      <trkpt lat="48.82747" lon="-1.57874">
        <ele>34.8</ele>
        <time>2024-01-25T12:35:15Z</time>
      </trkpt>
      <trkpt lat="48.8275" lon="-1.57875">
        <ele>34.9</ele>
        <time>2024-01-25T12:35:16Z</time>
      </trkpt>
      <trkpt lat="48.82753" lon="-1.57875">
        <ele>35.1</ele>
        <time>2024-01-25T12:35:17Z</time>
      </trkpt>
      <trkpt lat="48.82757" lon="-1.57875">
        <ele>35.2</ele>
        <time>2024-01-25T12:35:18Z</time>
      </trkpt>
      <trkpt lat="48.82761" lon="-1.57876">
        <ele>35.3</ele>
        <time>2024-01-25T12:35:19Z</time>
      </trkpt>
      <trkpt lat="48.82764" lon="-1.57875">
        <ele>35.3</ele>
        <time>2024-01-25T12:35:20Z</time>
      </trkpt>
      <trkpt lat="48.82767" lon="-1.57874">
        <ele>35.4</ele>
        <time>2024-01-25T12:35:21Z</time>
      </trkpt>
      <trkpt lat="48.8277" lon="-1.57872">
        <ele>35.5</ele>
        <time>2024-01-25T12:35:22Z</time>
      </trkpt>
      <trkpt lat="48.82772" lon="-1.57869">
        <ele>35.5</ele>
        <time>2024-01-25T12:35:23Z</time>
      </trkpt>
      <trkpt lat="48.82774" lon="-1.57868">
        <ele>35.5</ele>
        <time>2024-01-25T12:35:24Z</time>
      </trkpt>
      <trkpt lat="48.82777" lon="-1.57865">
        <ele>35.6</ele>
        <time>2024-01-25T12:35:25Z</time>
      </trkpt>
      <trkpt lat="48.82779" lon="-1.5786">
        <ele>35.6</ele>
        <time>2024-01-25T12:35:26Z</time>
      </trkpt>
      <trkpt lat="48.82782" lon="-1.57854">
        <ele>35.6</ele>
        <time>2024-01-25T12:35:27Z</time>
      </trkpt>
      <trkpt lat="48.82784" lon="-1.57849">
        <ele>35.7</ele>
        <time>2024-01-25T12:35:28Z</time>
      </trkpt>
      <trkpt lat="48.82786" lon="-1.57842">
        <ele>35.8</ele>
        <time>2024-01-25T12:35:29Z</time>
      </trkpt>
      <trkpt lat="48.82788" lon="-1.57836">
        <ele>35.9</ele>
        <time>2024-01-25T12:35:30Z</time>
      </trkpt>
      <trkpt lat="48.82791" lon="-1.57829">
        <ele>35.9</ele>
        <time>2024-01-25T12:35:31Z</time>
      </trkpt>
      <trkpt lat="48.82794" lon="-1.57822">
        <ele>35.9</ele>
        <time>2024-01-25T12:35:32Z</time>
      </trkpt>
      <trkpt lat="48.82796" lon="-1.57815">
        <ele>36</ele>
        <time>2024-01-25T12:35:33Z</time>
      </trkpt>
      <trkpt lat="48.82798" lon="-1.57808">
        <ele>36</ele>
        <time>2024-01-25T12:35:34Z</time>
      </trkpt>
      <trkpt lat="48.82801" lon="-1.57802">
        <ele>36.1</ele>
        <time>2024-01-25T12:35:35Z</time>
      </trkpt>
      <trkpt lat="48.82803" lon="-1.57795">
        <ele>36.2</ele>
        <time>2024-01-25T12:35:36Z</time>
      </trkpt>
      <trkpt lat="48.82806" lon="-1.57788">
        <ele>36.3</ele>
        <time>2024-01-25T12:35:37Z</time>
      </trkpt>
      <trkpt lat="48.82808" lon="-1.57781">
        <ele>36.4</ele>
        <time>2024-01-25T12:35:38Z</time>
      </trkpt>
      <trkpt lat="48.8281" lon="-1.57775">
        <ele>36.5</ele>
        <time>2024-01-25T12:35:39Z</time>
      </trkpt>
      <trkpt lat="48.82812" lon="-1.5777">
        <ele>36.6</ele>
        <time>2024-01-25T12:35:41Z</time>
      </trkpt>
      <trkpt lat="48.82815" lon="-1.57764">
        <ele>36.7</ele>
        <time>2024-01-25T12:35:42Z</time>
      </trkpt>
      <trkpt lat="48.82818" lon="-1.57759">
        <ele>36.8</ele>
        <time>2024-01-25T12:35:43Z</time>
      </trkpt>
      <trkpt lat="48.82821" lon="-1.57753">
        <ele>36.9</ele>
        <time>2024-01-25T12:35:44Z</time>
      </trkpt>
      <trkpt lat="48.82824" lon="-1.57745">
        <ele>37.1</ele>
        <time>2024-01-25T12:35:45Z</time>
      </trkpt>
      <trkpt lat="48.82827" lon="-1.57741">
        <ele>37.2</ele>
        <time>2024-01-25T12:35:46Z</time>
      </trkpt>
      <trkpt lat="48.82829" lon="-1.57736">
        <ele>37.3</ele>
        <time>2024-01-25T12:35:47Z</time>
      </trkpt>
      <trkpt lat="48.82832" lon="-1.57732">
        <ele>37.4</ele>
        <time>2024-01-25T12:35:48Z</time>
      </trkpt>
      <trkpt lat="48.82834" lon="-1.57727">
        <ele>37.6</ele>
        <time>2024-01-25T12:35:49Z</time>
      </trkpt>
      <trkpt lat="48.82836" lon="-1.57724">
        <ele>37.7</ele>
        <time>2024-01-25T12:35:50Z</time>
      </trkpt>
      <trkpt lat="48.82838" lon="-1.5772">
        <ele>37.8</ele>
        <time>2024-01-25T12:35:51Z</time>
      </trkpt>
      <trkpt lat="48.8284" lon="-1.57717">
        <ele>37.8</ele>
        <time>2024-01-25T12:35:52Z</time>
      </trkpt>
      <trkpt lat="48.82842" lon="-1.57714">
        <ele>37.9</ele>
        <time>2024-01-25T12:35:53Z</time>
      </trkpt>
      <trkpt lat="48.82845" lon="-1.5771">
        <ele>38</ele>
        <time>2024-01-25T12:35:54Z</time>
      </trkpt>
      <trkpt lat="48.82848" lon="-1.57705">
        <ele>38.1</ele>
        <time>2024-01-25T12:35:55Z</time>
      </trkpt>
      <trkpt lat="48.82848" lon="-1.57703">
        <ele>38.1</ele>
        <time>2024-01-25T12:35:56Z</time>
      </trkpt>
      <trkpt lat="48.82851" lon="-1.577">
        <ele>38.2</ele>
        <time>2024-01-25T12:35:57Z</time>
      </trkpt>
      <trkpt lat="48.82853" lon="-1.57696">
        <ele>38.3</ele>
        <time>2024-01-25T12:35:58Z</time>
      </trkpt>
      <trkpt lat="48.82856" lon="-1.57693">
        <ele>38.4</ele>
        <time>2024-01-25T12:35:59Z</time>
      </trkpt>
      <trkpt lat="48.82858" lon="-1.57689">
        <ele>38.5</ele>
        <time>2024-01-25T12:36:00Z</time>
      </trkpt>
      <trkpt lat="48.82861" lon="-1.57686">
        <ele>38.5</ele>
        <time>2024-01-25T12:36:01Z</time>
      </trkpt>
      <trkpt lat="48.82863" lon="-1.57682">
        <ele>38.6</ele>
        <time>2024-01-25T12:36:02Z</time>
      </trkpt>
      <trkpt lat="48.82866" lon="-1.57679">
        <ele>38.7</ele>
        <time>2024-01-25T12:36:03Z</time>
      </trkpt>
      <trkpt lat="48.82869" lon="-1.57675">
        <ele>38.8</ele>
        <time>2024-01-25T12:36:04Z</time>
      </trkpt>
      <trkpt lat="48.82871" lon="-1.57672">
        <ele>38.9</ele>
        <time>2024-01-25T12:36:05Z</time>
      </trkpt>
      <trkpt lat="48.82874" lon="-1.57668">
        <ele>39</ele>
        <time>2024-01-25T12:36:06Z</time>
      </trkpt>
      <trkpt lat="48.82876" lon="-1.57665">
        <ele>39.1</ele>
        <time>2024-01-25T12:36:07Z</time>
      </trkpt>
      <trkpt lat="48.82879" lon="-1.57661">
        <ele>39.1</ele>
        <time>2024-01-25T12:36:08Z</time>
      </trkpt>
      <trkpt lat="48.82882" lon="-1.57658">
        <ele>39.2</ele>
        <time>2024-01-25T12:36:09Z</time>
      </trkpt>
      <trkpt lat="48.82885" lon="-1.57655">
        <ele>39.3</ele>
        <time>2024-01-25T12:36:10Z</time>
      </trkpt>
      <trkpt lat="48.82887" lon="-1.57651">
        <ele>39.3</ele>
        <time>2024-01-25T12:36:11Z</time>
      </trkpt>
      <trkpt lat="48.82889" lon="-1.57647">
        <ele>39.4</ele>
        <time>2024-01-25T12:36:12Z</time>
      </trkpt>
      <trkpt lat="48.82892" lon="-1.57644">
        <ele>39.5</ele>
        <time>2024-01-25T12:36:13Z</time>
      </trkpt>
      <trkpt lat="48.82894" lon="-1.57641">
        <ele>39.5</ele>
        <time>2024-01-25T12:36:14Z</time>
      </trkpt>
      <trkpt lat="48.82897" lon="-1.57638">
        <ele>39.5</ele>
        <time>2024-01-25T12:36:15Z</time>
      </trkpt>
      <trkpt lat="48.82899" lon="-1.57636">
        <ele>39.6</ele>
        <time>2024-01-25T12:36:16Z</time>
      </trkpt>
      <trkpt lat="48.82903" lon="-1.57633">
        <ele>39.6</ele>
        <time>2024-01-25T12:36:17Z</time>
      </trkpt>
      <trkpt lat="48.82906" lon="-1.5763">
        <ele>39.7</ele>
        <time>2024-01-25T12:36:18Z</time>
      </trkpt>
      <trkpt lat="48.82908" lon="-1.57627">
        <ele>39.7</ele>
        <time>2024-01-25T12:36:19Z</time>
      </trkpt>
      <trkpt lat="48.82911" lon="-1.57624">
        <ele>39.8</ele>
        <time>2024-01-25T12:36:20Z</time>
      </trkpt>
      <trkpt lat="48.82914" lon="-1.57622">
        <ele>39.8</ele>
        <time>2024-01-25T12:36:21Z</time>
      </trkpt>
      <trkpt lat="48.82917" lon="-1.57619">
        <ele>39.8</ele>
        <time>2024-01-25T12:36:22Z</time>
      </trkpt>
      <trkpt lat="48.8292" lon="-1.57617">
        <ele>39.9</ele>
        <time>2024-01-25T12:36:23Z</time>
      </trkpt>
      <trkpt lat="48.82924" lon="-1.57615">
        <ele>39.9</ele>
        <time>2024-01-25T12:36:24Z</time>
      </trkpt>
      <trkpt lat="48.82927" lon="-1.57613">
        <ele>39.9</ele>
        <time>2024-01-25T12:36:25Z</time>
      </trkpt>
      <trkpt lat="48.82931" lon="-1.5761">
        <ele>40</ele>
        <time>2024-01-25T12:36:26Z</time>
      </trkpt>
      <trkpt lat="48.82934" lon="-1.57607">
        <ele>40</ele>
        <time>2024-01-25T12:36:27Z</time>
      </trkpt>
      <trkpt lat="48.82937" lon="-1.57605">
        <ele>40</ele>
        <time>2024-01-25T12:36:28Z</time>
      </trkpt>
      <trkpt lat="48.8294" lon="-1.57603">
        <ele>40</ele>
        <time>2024-01-25T12:36:29Z</time>
      </trkpt>
      <trkpt lat="48.82943" lon="-1.57602">
        <ele>40</ele>
        <time>2024-01-25T12:36:30Z</time>
      </trkpt>
      <trkpt lat="48.82947" lon="-1.576">
        <ele>40</ele>
        <time>2024-01-25T12:36:31Z</time>
      </trkpt>
      <trkpt lat="48.8295" lon="-1.57599">
        <ele>40</ele>
        <time>2024-01-25T12:36:32Z</time>
      </trkpt>
      <trkpt lat="48.82953" lon="-1.57597">
        <ele>40</ele>
        <time>2024-01-25T12:36:33Z</time>
      </trkpt>
      <trkpt lat="48.82957" lon="-1.57595">
        <ele>40</ele>
        <time>2024-01-25T12:36:34Z</time>
      </trkpt>
      <trkpt lat="48.82961" lon="-1.57593">
        <ele>40</ele>
        <time>2024-01-25T12:36:35Z</time>
      </trkpt>
      <trkpt lat="48.82964" lon="-1.57592">
        <ele>40</ele>
        <time>2024-01-25T12:36:36Z</time>
      </trkpt>
      <trkpt lat="48.82968" lon="-1.57591">
        <ele>40</ele>
        <time>2024-01-25T12:36:37Z</time>
      </trkpt>
      <trkpt lat="48.82972" lon="-1.57589">
        <ele>40.1</ele>
        <time>2024-01-25T12:36:38Z</time>
      </trkpt>
      <trkpt lat="48.82975" lon="-1.57587">
        <ele>40.1</ele>
        <time>2024-01-25T12:36:39Z</time>
      </trkpt>
      <trkpt lat="48.82979" lon="-1.57585">
        <ele>40.1</ele>
        <time>2024-01-25T12:36:40Z</time>
      </trkpt>
      <trkpt lat="48.82983" lon="-1.57582">
        <ele>40</ele>
        <time>2024-01-25T12:36:41Z</time>
      </trkpt>
      <trkpt lat="48.82987" lon="-1.57579">
        <ele>40</ele>
        <time>2024-01-25T12:36:42Z</time>
      </trkpt>
      <trkpt lat="48.8299" lon="-1.57577">
        <ele>40</ele>
        <time>2024-01-25T12:36:43Z</time>
      </trkpt>
      <trkpt lat="48.82995" lon="-1.57575">
        <ele>40</ele>
        <time>2024-01-25T12:36:44Z</time>
      </trkpt>
      <trkpt lat="48.82999" lon="-1.57574">
        <ele>40</ele>
        <time>2024-01-25T12:36:45Z</time>
      </trkpt>
      <trkpt lat="48.83004" lon="-1.57572">
        <ele>39.9</ele>
        <time>2024-01-25T12:36:46Z</time>
      </trkpt>
      <trkpt lat="48.83009" lon="-1.57569">
        <ele>39.8</ele>
        <time>2024-01-25T12:36:47Z</time>
      </trkpt>
      <trkpt lat="48.83014" lon="-1.57566">
        <ele>39.7</ele>
        <time>2024-01-25T12:36:48Z</time>
      </trkpt>
      <trkpt lat="48.83019" lon="-1.57563">
        <ele>39.6</ele>
        <time>2024-01-25T12:36:49Z</time>
      </trkpt>
      <trkpt lat="48.83024" lon="-1.5756">
        <ele>39.5</ele>
        <time>2024-01-25T12:36:50Z</time>
      </trkpt>
      <trkpt lat="48.83029" lon="-1.57556">
        <ele>39.5</ele>
        <time>2024-01-25T12:36:51Z</time>
      </trkpt>
      <trkpt lat="48.83034" lon="-1.57552">
        <ele>39.4</ele>
        <time>2024-01-25T12:36:52Z</time>
      </trkpt>
      <trkpt lat="48.83038" lon="-1.57548">
        <ele>39.3</ele>
        <time>2024-01-25T12:36:53Z</time>
      </trkpt>
      <trkpt lat="48.83043" lon="-1.57545">
        <ele>39.2</ele>
        <time>2024-01-25T12:36:54Z</time>
      </trkpt>
      <trkpt lat="48.83047" lon="-1.57541">
        <ele>39.2</ele>
        <time>2024-01-25T12:36:55Z</time>
      </trkpt>
      <trkpt lat="48.83052" lon="-1.57538">
        <ele>39.1</ele>
        <time>2024-01-25T12:36:56Z</time>
      </trkpt>
      <trkpt lat="48.83056" lon="-1.57533">
        <ele>39.1</ele>
        <time>2024-01-25T12:36:57Z</time>
      </trkpt>
      <trkpt lat="48.83061" lon="-1.57528">
        <ele>39</ele>
        <time>2024-01-25T12:36:58Z</time>
      </trkpt>
      <trkpt lat="48.83065" lon="-1.57523">
        <ele>39</ele>
        <time>2024-01-25T12:36:59Z</time>
      </trkpt>
      <trkpt lat="48.83069" lon="-1.57518">
        <ele>38.9</ele>
        <time>2024-01-25T12:37:00Z</time>
      </trkpt>
      <trkpt lat="48.83073" lon="-1.57513">
        <ele>38.9</ele>
        <time>2024-01-25T12:37:01Z</time>
      </trkpt>
      <trkpt lat="48.83077" lon="-1.57509">
        <ele>38.9</ele>
        <time>2024-01-25T12:37:02Z</time>
      </trkpt>
      <trkpt lat="48.83082" lon="-1.57505">
        <ele>38.9</ele>
        <time>2024-01-25T12:37:03Z</time>
      </trkpt>
      <trkpt lat="48.83086" lon="-1.575">
        <ele>38.9</ele>
        <time>2024-01-25T12:37:04Z</time>
      </trkpt>
      <trkpt lat="48.83091" lon="-1.57495">
        <ele>38.9</ele>
        <time>2024-01-25T12:37:05Z</time>
      </trkpt>
      <trkpt lat="48.83096" lon="-1.5749">
        <ele>38.9</ele>
        <time>2024-01-25T12:37:06Z</time>
      </trkpt>
      <trkpt lat="48.831" lon="-1.57484">
        <ele>38.9</ele>
        <time>2024-01-25T12:37:07Z</time>
      </trkpt>
      <trkpt lat="48.83104" lon="-1.5748">
        <ele>38.8</ele>
        <time>2024-01-25T12:37:08Z</time>
      </trkpt>
      <trkpt lat="48.83109" lon="-1.57476">
        <ele>38.8</ele>
        <time>2024-01-25T12:37:09Z</time>
      </trkpt>
      <trkpt lat="48.83113" lon="-1.57471">
        <ele>38.9</ele>
        <time>2024-01-25T12:37:10Z</time>
      </trkpt>
      <trkpt lat="48.83118" lon="-1.57466">
        <ele>38.9</ele>
        <time>2024-01-25T12:37:11Z</time>
      </trkpt>
      <trkpt lat="48.83122" lon="-1.57462">
        <ele>39</ele>
        <time>2024-01-25T12:37:12Z</time>
      </trkpt>
      <trkpt lat="48.83126" lon="-1.57458">
        <ele>39.1</ele>
        <time>2024-01-25T12:37:13Z</time>
      </trkpt>
      <trkpt lat="48.8313" lon="-1.57454">
        <ele>39.2</ele>
        <time>2024-01-25T12:37:14Z</time>
      </trkpt>
      <trkpt lat="48.83133" lon="-1.57452">
        <ele>39.3</ele>
        <time>2024-01-25T12:37:15Z</time>
      </trkpt>
      <trkpt lat="48.83137" lon="-1.57449">
        <ele>39.4</ele>
        <time>2024-01-25T12:37:16Z</time>
      </trkpt>
      <trkpt lat="48.83141" lon="-1.57447">
        <ele>39.4</ele>
        <time>2024-01-25T12:37:17Z</time>
      </trkpt>
      <trkpt lat="48.83144" lon="-1.57444">
        <ele>39.5</ele>
        <time>2024-01-25T12:37:18Z</time>
      </trkpt>
      <trkpt lat="48.83148" lon="-1.57442">
        <ele>39.6</ele>
        <time>2024-01-25T12:37:19Z</time>
      </trkpt>
      <trkpt lat="48.83151" lon="-1.5744">
        <ele>39.8</ele>
        <time>2024-01-25T12:37:20Z</time>
      </trkpt>
      <trkpt lat="48.83155" lon="-1.57438">
        <ele>39.9</ele>
        <time>2024-01-25T12:37:21Z</time>
      </trkpt>
      <trkpt lat="48.83159" lon="-1.57436">
        <ele>40</ele>
        <time>2024-01-25T12:37:22Z</time>
      </trkpt>
      <trkpt lat="48.83162" lon="-1.57434">
        <ele>40.2</ele>
        <time>2024-01-25T12:37:24Z</time>
      </trkpt>
      <trkpt lat="48.83166" lon="-1.5743">
        <ele>40.3</ele>
        <time>2024-01-25T12:37:25Z</time>
      </trkpt>
      <trkpt lat="48.8317" lon="-1.57428">
        <ele>40.5</ele>
        <time>2024-01-25T12:37:26Z</time>
      </trkpt>
      <trkpt lat="48.83174" lon="-1.57425">
        <ele>40.7</ele>
        <time>2024-01-25T12:37:27Z</time>
      </trkpt>
      <trkpt lat="48.83177" lon="-1.57423">
        <ele>40.9</ele>
        <time>2024-01-25T12:37:28Z</time>
      </trkpt>
      <trkpt lat="48.83181" lon="-1.5742">
        <ele>41</ele>
        <time>2024-01-25T12:37:29Z</time>
      </trkpt>
      <trkpt lat="48.83185" lon="-1.57416">
        <ele>41.2</ele>
        <time>2024-01-25T12:37:30Z</time>
      </trkpt>
      <trkpt lat="48.83188" lon="-1.57412">
        <ele>41.4</ele>
        <time>2024-01-25T12:37:31Z</time>
      </trkpt>
      <trkpt lat="48.83192" lon="-1.57409">
        <ele>41.7</ele>
        <time>2024-01-25T12:37:32Z</time>
      </trkpt>
      <trkpt lat="48.83195" lon="-1.57406">
        <ele>41.8</ele>
        <time>2024-01-25T12:37:33Z</time>
      </trkpt>
      <trkpt lat="48.83198" lon="-1.57405">
        <ele>42</ele>
        <time>2024-01-25T12:37:34Z</time>
      </trkpt>
      <trkpt lat="48.832" lon="-1.57404">
        <ele>42.1</ele>
        <time>2024-01-25T12:37:35Z</time>
      </trkpt>
      <trkpt lat="48.83202" lon="-1.57402">
        <ele>42.3</ele>
        <time>2024-01-25T12:37:36Z</time>
      </trkpt>
      <trkpt lat="48.83205" lon="-1.574">
        <ele>42.4</ele>
        <time>2024-01-25T12:37:37Z</time>
      </trkpt>
      <trkpt lat="48.83208" lon="-1.57398">
        <ele>42.6</ele>
        <time>2024-01-25T12:37:38Z</time>
      </trkpt>
      <trkpt lat="48.83211" lon="-1.57395">
        <ele>42.8</ele>
        <time>2024-01-25T12:37:39Z</time>
      </trkpt>
      <trkpt lat="48.83214" lon="-1.57393">
        <ele>43</ele>
        <time>2024-01-25T12:37:40Z</time>
      </trkpt>
      <trkpt lat="48.83217" lon="-1.5739">
        <ele>43.2</ele>
        <time>2024-01-25T12:37:41Z</time>
      </trkpt>
      <trkpt lat="48.8322" lon="-1.57387">
        <ele>43.4</ele>
        <time>2024-01-25T12:37:42Z</time>
      </trkpt>
      <trkpt lat="48.83223" lon="-1.57385">
        <ele>43.6</ele>
        <time>2024-01-25T12:37:43Z</time>
      </trkpt>
      <trkpt lat="48.83226" lon="-1.57382">
        <ele>43.8</ele>
        <time>2024-01-25T12:37:44Z</time>
      </trkpt>
      <trkpt lat="48.8323" lon="-1.57379">
        <ele>44.1</ele>
        <time>2024-01-25T12:37:45Z</time>
      </trkpt>
      <trkpt lat="48.83234" lon="-1.57376">
        <ele>44.3</ele>
        <time>2024-01-25T12:37:46Z</time>
      </trkpt>
      <trkpt lat="48.83236" lon="-1.57375">
        <ele>44.4</ele>
        <time>2024-01-25T12:37:47Z</time>
      </trkpt>
      <trkpt lat="48.83239" lon="-1.57374">
        <ele>44.6</ele>
        <time>2024-01-25T12:37:48Z</time>
      </trkpt>
      <trkpt lat="48.83242" lon="-1.57371">
        <ele>44.9</ele>
        <time>2024-01-25T12:37:49Z</time>
      </trkpt>
      <trkpt lat="48.83245" lon="-1.57368">
        <ele>45.1</ele>
        <time>2024-01-25T12:37:50Z</time>
      </trkpt>
      <trkpt lat="48.83247" lon="-1.57365">
        <ele>45.2</ele>
        <time>2024-01-25T12:37:51Z</time>
      </trkpt>
      <trkpt lat="48.83249" lon="-1.5736">
        <ele>45.3</ele>
        <time>2024-01-25T12:37:52Z</time>
      </trkpt>
      <trkpt lat="48.8325" lon="-1.57358">
        <ele>45.4</ele>
        <time>2024-01-25T12:37:53Z</time>
      </trkpt>
      <trkpt lat="48.83253" lon="-1.57354">
        <ele>45.6</ele>
        <time>2024-01-25T12:37:54Z</time>
      </trkpt>
      <trkpt lat="48.83256" lon="-1.5735">
        <ele>45.8</ele>
        <time>2024-01-25T12:37:55Z</time>
      </trkpt>
      <trkpt lat="48.8326" lon="-1.57347">
        <ele>45.9</ele>
        <time>2024-01-25T12:37:56Z</time>
      </trkpt>
      <trkpt lat="48.83264" lon="-1.57344">
        <ele>46</ele>
        <time>2024-01-25T12:37:57Z</time>
      </trkpt>
      <trkpt lat="48.8327" lon="-1.57339">
        <ele>46.1</ele>
        <time>2024-01-25T12:37:59Z</time>
      </trkpt>
      <trkpt lat="48.83273" lon="-1.57335">
        <ele>46.2</ele>
        <time>2024-01-25T12:38:00Z</time>
      </trkpt>
      <trkpt lat="48.83275" lon="-1.57331">
        <ele>46.2</ele>
        <time>2024-01-25T12:38:01Z</time>
      </trkpt>
      <trkpt lat="48.83278" lon="-1.57326">
        <ele>46.3</ele>
        <time>2024-01-25T12:38:02Z</time>
      </trkpt>
      <trkpt lat="48.8328" lon="-1.5732">
        <ele>46.3</ele>
        <time>2024-01-25T12:38:03Z</time>
      </trkpt>
      <trkpt lat="48.83283" lon="-1.57314">
        <ele>46.4</ele>
        <time>2024-01-25T12:38:04Z</time>
      </trkpt>
      <trkpt lat="48.83285" lon="-1.57309">
        <ele>46.5</ele>
        <time>2024-01-25T12:38:05Z</time>
      </trkpt>
      <trkpt lat="48.83286" lon="-1.57303">
        <ele>46.5</ele>
        <time>2024-01-25T12:38:06Z</time>
      </trkpt>
      <trkpt lat="48.83287" lon="-1.57298">
        <ele>46.6</ele>
        <time>2024-01-25T12:38:07Z</time>
      </trkpt>
      <trkpt lat="48.83287" lon="-1.57292">
        <ele>46.6</ele>
        <time>2024-01-25T12:38:08Z</time>
      </trkpt>
      <trkpt lat="48.83288" lon="-1.57287">
        <ele>46.7</ele>
        <time>2024-01-25T12:38:09Z</time>
      </trkpt>
      <trkpt lat="48.83291" lon="-1.5728">
        <ele>46.7</ele>
        <time>2024-01-25T12:38:10Z</time>
      </trkpt>
      <trkpt lat="48.83292" lon="-1.57275">
        <ele>46.8</ele>
        <time>2024-01-25T12:38:11Z</time>
      </trkpt>
      <trkpt lat="48.83293" lon="-1.5727">
        <ele>46.8</ele>
        <time>2024-01-25T12:38:12Z</time>
      </trkpt>
      <trkpt lat="48.83295" lon="-1.57263">
        <ele>46.9</ele>
        <time>2024-01-25T12:38:13Z</time>
      </trkpt>
      <trkpt lat="48.83296" lon="-1.57258">
        <ele>46.9</ele>
        <time>2024-01-25T12:38:14Z</time>
      </trkpt>
      <trkpt lat="48.83298" lon="-1.57253">
        <ele>47</ele>
        <time>2024-01-25T12:38:15Z</time>
      </trkpt>
      <trkpt lat="48.83299" lon="-1.57248">
        <ele>47</ele>
        <time>2024-01-25T12:38:16Z</time>
      </trkpt>
      <trkpt lat="48.83301" lon="-1.57243">
        <ele>47.1</ele>
        <time>2024-01-25T12:38:17Z</time>
      </trkpt>
      <trkpt lat="48.83301" lon="-1.57239">
        <ele>47.1</ele>
        <time>2024-01-25T12:38:18Z</time>
      </trkpt>
      <trkpt lat="48.83302" lon="-1.57234">
        <ele>47.2</ele>
        <time>2024-01-25T12:38:19Z</time>
      </trkpt>
      <trkpt lat="48.83303" lon="-1.57228">
        <ele>47.2</ele>
        <time>2024-01-25T12:38:20Z</time>
      </trkpt>
      <trkpt lat="48.83304" lon="-1.57222">
        <ele>47.3</ele>
        <time>2024-01-25T12:38:21Z</time>
      </trkpt>
      <trkpt lat="48.83305" lon="-1.57217">
        <ele>47.3</ele>
        <time>2024-01-25T12:38:22Z</time>
      </trkpt>
      <trkpt lat="48.83306" lon="-1.57211">
        <ele>47.4</ele>
        <time>2024-01-25T12:38:23Z</time>
      </trkpt>
      <trkpt lat="48.83308" lon="-1.57205">
        <ele>47.4</ele>
        <time>2024-01-25T12:38:24Z</time>
      </trkpt>
      <trkpt lat="48.8331" lon="-1.57199">
        <ele>47.5</ele>
        <time>2024-01-25T12:38:25Z</time>
      </trkpt>
      <trkpt lat="48.83313" lon="-1.57193">
        <ele>47.6</ele>
        <time>2024-01-25T12:38:26Z</time>
      </trkpt>
      <trkpt lat="48.83316" lon="-1.57188">
        <ele>47.6</ele>
        <time>2024-01-25T12:38:27Z</time>
      </trkpt>
      <trkpt lat="48.83318" lon="-1.57182">
        <ele>47.7</ele>
        <time>2024-01-25T12:38:28Z</time>
      </trkpt>
      <trkpt lat="48.8332" lon="-1.57178">
        <ele>47.7</ele>
        <time>2024-01-25T12:38:29Z</time>
      </trkpt>
      <trkpt lat="48.83323" lon="-1.57173">
        <ele>47.8</ele>
        <time>2024-01-25T12:38:30Z</time>
      </trkpt>
      <trkpt lat="48.83325" lon="-1.57169">
        <ele>47.9</ele>
        <time>2024-01-25T12:38:31Z</time>
      </trkpt>
      <trkpt lat="48.83328" lon="-1.57164">
        <ele>48</ele>
        <time>2024-01-25T12:38:32Z</time>
      </trkpt>
      <trkpt lat="48.8333" lon="-1.57161">
        <ele>48</ele>
        <time>2024-01-25T12:38:33Z</time>
      </trkpt>
      <trkpt lat="48.83331" lon="-1.57156">
        <ele>48.1</ele>
        <time>2024-01-25T12:38:34Z</time>
      </trkpt>
      <trkpt lat="48.83332" lon="-1.57151">
        <ele>48.2</ele>
        <time>2024-01-25T12:38:35Z</time>
      </trkpt>
      <trkpt lat="48.83334" lon="-1.57146">
        <ele>48.2</ele>
        <time>2024-01-25T12:38:36Z</time>
      </trkpt>
      <trkpt lat="48.83338" lon="-1.57142">
        <ele>48.3</ele>
        <time>2024-01-25T12:38:38Z</time>
      </trkpt>
      <trkpt lat="48.8334" lon="-1.57138">
        <ele>48.4</ele>
        <time>2024-01-25T12:38:39Z</time>
      </trkpt>
      <trkpt lat="48.83342" lon="-1.57134">
        <ele>48.5</ele>
        <time>2024-01-25T12:38:40Z</time>
      </trkpt>
      <trkpt lat="48.83346" lon="-1.57129">
        <ele>48.6</ele>
        <time>2024-01-25T12:38:41Z</time>
      </trkpt>
      <trkpt lat="48.83349" lon="-1.57125">
        <ele>48.6</ele>
        <time>2024-01-25T12:38:42Z</time>
      </trkpt>
      <trkpt lat="48.83351" lon="-1.57122">
        <ele>48.7</ele>
        <time>2024-01-25T12:38:43Z</time>
      </trkpt>
      <trkpt lat="48.83354" lon="-1.57119">
        <ele>48.8</ele>
        <time>2024-01-25T12:38:44Z</time>
      </trkpt>
      <trkpt lat="48.83356" lon="-1.57116">
        <ele>48.8</ele>
        <time>2024-01-25T12:38:45Z</time>
      </trkpt>
      <trkpt lat="48.83359" lon="-1.57114">
        <ele>48.9</ele>
        <time>2024-01-25T12:38:46Z</time>
      </trkpt>
      <trkpt lat="48.83362" lon="-1.57112">
        <ele>49</ele>
        <time>2024-01-25T12:38:47Z</time>
      </trkpt>
      <trkpt lat="48.83365" lon="-1.5711">
        <ele>49</ele>
        <time>2024-01-25T12:38:48Z</time>
      </trkpt>
      <trkpt lat="48.83369" lon="-1.57107">
        <ele>49.1</ele>
        <time>2024-01-25T12:38:49Z</time>
      </trkpt>
      <trkpt lat="48.83372" lon="-1.57104">
        <ele>49.1</ele>
        <time>2024-01-25T12:38:50Z</time>
      </trkpt>
      <trkpt lat="48.83374" lon="-1.571">
        <ele>49.2</ele>
        <time>2024-01-25T12:38:51Z</time>
      </trkpt>
      <trkpt lat="48.83377" lon="-1.57096">
        <ele>49.2</ele>
        <time>2024-01-25T12:38:52Z</time>
      </trkpt>
      <trkpt lat="48.8338" lon="-1.57091">
        <ele>49.3</ele>
        <time>2024-01-25T12:38:53Z</time>
      </trkpt>
      <trkpt lat="48.83383" lon="-1.57086">
        <ele>49.3</ele>
        <time>2024-01-25T12:38:54Z</time>
      </trkpt>
      <trkpt lat="48.83385" lon="-1.57081">
        <ele>49.3</ele>
        <time>2024-01-25T12:38:55Z</time>
      </trkpt>
      <trkpt lat="48.83387" lon="-1.57076">
        <ele>49.4</ele>
        <time>2024-01-25T12:38:56Z</time>
      </trkpt>
      <trkpt lat="48.8339" lon="-1.5707">
        <ele>49.4</ele>
        <time>2024-01-25T12:38:57Z</time>
      </trkpt>
      <trkpt lat="48.83393" lon="-1.57065">
        <ele>49.5</ele>
        <time>2024-01-25T12:38:58Z</time>
      </trkpt>
      <trkpt lat="48.83395" lon="-1.57058">
        <ele>49.6</ele>
        <time>2024-01-25T12:38:59Z</time>
      </trkpt>
      <trkpt lat="48.83397" lon="-1.57049">
        <ele>49.7</ele>
        <time>2024-01-25T12:39:00Z</time>
      </trkpt>
      <trkpt lat="48.83398" lon="-1.57042">
        <ele>49.8</ele>
        <time>2024-01-25T12:39:01Z</time>
      </trkpt>
      <trkpt lat="48.83399" lon="-1.57035">
        <ele>49.8</ele>
        <time>2024-01-25T12:39:02Z</time>
      </trkpt>
      <trkpt lat="48.834" lon="-1.57029">
        <ele>49.9</ele>
        <time>2024-01-25T12:39:04Z</time>
      </trkpt>
      <trkpt lat="48.83401" lon="-1.57019">
        <ele>49.9</ele>
        <time>2024-01-25T12:39:05Z</time>
      </trkpt>
      <trkpt lat="48.83401" lon="-1.57012">
        <ele>50</ele>
        <time>2024-01-25T12:39:06Z</time>
      </trkpt>
      <trkpt lat="48.83402" lon="-1.57005">
        <ele>50</ele>
        <time>2024-01-25T12:39:07Z</time>
      </trkpt>
      <trkpt lat="48.83401" lon="-1.57">
        <ele>50.1</ele>
        <time>2024-01-25T12:39:08Z</time>
      </trkpt>
      <trkpt lat="48.83401" lon="-1.56994">
        <ele>50.1</ele>
        <time>2024-01-25T12:39:09Z</time>
      </trkpt>
      <trkpt lat="48.83402" lon="-1.56988">
        <ele>50.2</ele>
        <time>2024-01-25T12:39:10Z</time>
      </trkpt>
      <trkpt lat="48.83402" lon="-1.56981">
        <ele>50.3</ele>
        <time>2024-01-25T12:39:11Z</time>
      </trkpt>
      <trkpt lat="48.83402" lon="-1.56976">
        <ele>50.3</ele>
        <time>2024-01-25T12:39:12Z</time>
      </trkpt>
      <trkpt lat="48.83403" lon="-1.56971">
        <ele>50.4</ele>
        <time>2024-01-25T12:39:13Z</time>
      </trkpt>
      <trkpt lat="48.83403" lon="-1.56965">
        <ele>50.4</ele>
        <time>2024-01-25T12:39:14Z</time>
      </trkpt>
      <trkpt lat="48.83405" lon="-1.56958">
        <ele>50.5</ele>
        <time>2024-01-25T12:39:15Z</time>
      </trkpt>
      <trkpt lat="48.83406" lon="-1.56952">
        <ele>50.6</ele>
        <time>2024-01-25T12:39:16Z</time>
      </trkpt>
      <trkpt lat="48.83407" lon="-1.56947">
        <ele>50.6</ele>
        <time>2024-01-25T12:39:17Z</time>
      </trkpt>
      <trkpt lat="48.83407" lon="-1.56941">
        <ele>50.7</ele>
        <time>2024-01-25T12:39:18Z</time>
      </trkpt>
      <trkpt lat="48.83408" lon="-1.56936">
        <ele>50.8</ele>
        <time>2024-01-25T12:39:19Z</time>
      </trkpt>
      <trkpt lat="48.83409" lon="-1.5693">
        <ele>50.8</ele>
        <time>2024-01-25T12:39:20Z</time>
      </trkpt>
      <trkpt lat="48.8341" lon="-1.56924">
        <ele>50.9</ele>
        <time>2024-01-25T12:39:21Z</time>
      </trkpt>
      <trkpt lat="48.8341" lon="-1.56918">
        <ele>51</ele>
        <time>2024-01-25T12:39:22Z</time>
      </trkpt>
      <trkpt lat="48.83411" lon="-1.56911">
        <ele>51.1</ele>
        <time>2024-01-25T12:39:23Z</time>
      </trkpt>
      <trkpt lat="48.83411" lon="-1.56904">
        <ele>51.1</ele>
        <time>2024-01-25T12:39:24Z</time>
      </trkpt>
      <trkpt lat="48.83411" lon="-1.56897">
        <ele>51.2</ele>
        <time>2024-01-25T12:39:25Z</time>
      </trkpt>
      <trkpt lat="48.8341" lon="-1.56891">
        <ele>51.3</ele>
        <time>2024-01-25T12:39:26Z</time>
      </trkpt>
      <trkpt lat="48.8341" lon="-1.56884">
        <ele>51.4</ele>
        <time>2024-01-25T12:39:27Z</time>
      </trkpt>
      <trkpt lat="48.83411" lon="-1.56878">
        <ele>51.5</ele>
        <time>2024-01-25T12:39:28Z</time>
      </trkpt>
      <trkpt lat="48.83411" lon="-1.56872">
        <ele>51.6</ele>
        <time>2024-01-25T12:39:29Z</time>
      </trkpt>
      <trkpt lat="48.83411" lon="-1.56866">
        <ele>51.7</ele>
        <time>2024-01-25T12:39:30Z</time>
      </trkpt>
      <trkpt lat="48.8341" lon="-1.56861">
        <ele>51.8</ele>
        <time>2024-01-25T12:39:31Z</time>
      </trkpt>
      <trkpt lat="48.8341" lon="-1.56855">
        <ele>51.9</ele>
        <time>2024-01-25T12:39:32Z</time>
      </trkpt>
      <trkpt lat="48.83409" lon="-1.56849">
        <ele>52</ele>
        <time>2024-01-25T12:39:33Z</time>
      </trkpt>
      <trkpt lat="48.8341" lon="-1.56842">
        <ele>52.1</ele>
        <time>2024-01-25T12:39:34Z</time>
      </trkpt>
      <trkpt lat="48.83411" lon="-1.56835">
        <ele>52.2</ele>
        <time>2024-01-25T12:39:35Z</time>
      </trkpt>
      <trkpt lat="48.83413" lon="-1.56829">
        <ele>52.2</ele>
        <time>2024-01-25T12:39:36Z</time>
      </trkpt>
      <trkpt lat="48.83416" lon="-1.56826">
        <ele>52.2</ele>
        <time>2024-01-25T12:39:37Z</time>
      </trkpt>
      <trkpt lat="48.83418" lon="-1.56821">
        <ele>52.2</ele>
        <time>2024-01-25T12:39:38Z</time>
      </trkpt>
      <trkpt lat="48.83421" lon="-1.56815">
        <ele>52.3</ele>
        <time>2024-01-25T12:39:39Z</time>
      </trkpt>
      <trkpt lat="48.83423" lon="-1.56808">
        <ele>52.3</ele>
        <time>2024-01-25T12:39:40Z</time>
      </trkpt>
      <trkpt lat="48.83424" lon="-1.568">
        <ele>52.4</ele>
        <time>2024-01-25T12:39:41Z</time>
      </trkpt>
      <trkpt lat="48.83425" lon="-1.56793">
        <ele>52.4</ele>
        <time>2024-01-25T12:39:42Z</time>
      </trkpt>
      <trkpt lat="48.83427" lon="-1.56786">
        <ele>52.5</ele>
        <time>2024-01-25T12:39:43Z</time>
      </trkpt>
      <trkpt lat="48.83428" lon="-1.56779">
        <ele>52.6</ele>
        <time>2024-01-25T12:39:44Z</time>
      </trkpt>
      <trkpt lat="48.8343" lon="-1.56772">
        <ele>52.6</ele>
        <time>2024-01-25T12:39:45Z</time>
      </trkpt>
      <trkpt lat="48.83431" lon="-1.56766">
        <ele>52.7</ele>
        <time>2024-01-25T12:39:46Z</time>
      </trkpt>
      <trkpt lat="48.83432" lon="-1.56757">
        <ele>52.7</ele>
        <time>2024-01-25T12:39:47Z</time>
      </trkpt>
      <trkpt lat="48.83433" lon="-1.56749">
        <ele>52.8</ele>
        <time>2024-01-25T12:39:48Z</time>
      </trkpt>
      <trkpt lat="48.83433" lon="-1.56741">
        <ele>52.9</ele>
        <time>2024-01-25T12:39:49Z</time>
      </trkpt>
      <trkpt lat="48.83434" lon="-1.56733">
        <ele>53</ele>
        <time>2024-01-25T12:39:50Z</time>
      </trkpt>
      <trkpt lat="48.83435" lon="-1.56726">
        <ele>53.1</ele>
        <time>2024-01-25T12:39:51Z</time>
      </trkpt>
      <trkpt lat="48.83436" lon="-1.56719">
        <ele>53.2</ele>
        <time>2024-01-25T12:39:52Z</time>
      </trkpt>
      <trkpt lat="48.83437" lon="-1.56712">
        <ele>53.3</ele>
        <time>2024-01-25T12:39:53Z</time>
      </trkpt>
      <trkpt lat="48.83438" lon="-1.56705">
        <ele>53.4</ele>
        <time>2024-01-25T12:39:54Z</time>
      </trkpt>
      <trkpt lat="48.8344" lon="-1.56698">
        <ele>53.4</ele>
        <time>2024-01-25T12:39:55Z</time>
      </trkpt>
      <trkpt lat="48.83441" lon="-1.5669">
        <ele>53.5</ele>
        <time>2024-01-25T12:39:56Z</time>
      </trkpt>
      <trkpt lat="48.83442" lon="-1.56683">
        <ele>53.6</ele>
        <time>2024-01-25T12:39:57Z</time>
      </trkpt>
      <trkpt lat="48.83443" lon="-1.56676">
        <ele>53.7</ele>
        <time>2024-01-25T12:39:58Z</time>
      </trkpt>
      <trkpt lat="48.83444" lon="-1.5667">
        <ele>53.7</ele>
        <time>2024-01-25T12:39:59Z</time>
      </trkpt>
      <trkpt lat="48.83445" lon="-1.56663">
        <ele>53.8</ele>
        <time>2024-01-25T12:40:00Z</time>
      </trkpt>
      <trkpt lat="48.83445" lon="-1.56656">
        <ele>53.9</ele>
        <time>2024-01-25T12:40:01Z</time>
      </trkpt>
      <trkpt lat="48.83446" lon="-1.5665">
        <ele>54</ele>
        <time>2024-01-25T12:40:02Z</time>
      </trkpt>
      <trkpt lat="48.83446" lon="-1.56642">
        <ele>54</ele>
        <time>2024-01-25T12:40:03Z</time>
      </trkpt>
      <trkpt lat="48.83447" lon="-1.56636">
        <ele>54.1</ele>
        <time>2024-01-25T12:40:04Z</time>
      </trkpt>
      <trkpt lat="48.83448" lon="-1.5663">
        <ele>54.2</ele>
        <time>2024-01-25T12:40:05Z</time>
      </trkpt>
      <trkpt lat="48.8345" lon="-1.56623">
        <ele>54.3</ele>
        <time>2024-01-25T12:40:06Z</time>
      </trkpt>
      <trkpt lat="48.83451" lon="-1.56616">
        <ele>54.3</ele>
        <time>2024-01-25T12:40:07Z</time>
      </trkpt>
      <trkpt lat="48.83453" lon="-1.5661">
        <ele>54.4</ele>
        <time>2024-01-25T12:40:08Z</time>
      </trkpt>
      <trkpt lat="48.83454" lon="-1.56603">
        <ele>54.5</ele>
        <time>2024-01-25T12:40:09Z</time>
      </trkpt>
      <trkpt lat="48.83455" lon="-1.56597">
        <ele>54.6</ele>
        <time>2024-01-25T12:40:10Z</time>
      </trkpt>
      <trkpt lat="48.83456" lon="-1.56591">
        <ele>54.6</ele>
        <time>2024-01-25T12:40:11Z</time>
      </trkpt>
      <trkpt lat="48.83456" lon="-1.56586">
        <ele>54.7</ele>
        <time>2024-01-25T12:40:12Z</time>
      </trkpt>
      <trkpt lat="48.83455" lon="-1.56579">
        <ele>54.7</ele>
        <time>2024-01-25T12:40:13Z</time>
      </trkpt>
      <trkpt lat="48.83456" lon="-1.56572">
        <ele>54.8</ele>
        <time>2024-01-25T12:40:14Z</time>
      </trkpt>
      <trkpt lat="48.83455" lon="-1.56567">
        <ele>54.9</ele>
        <time>2024-01-25T12:40:15Z</time>
      </trkpt>
      <trkpt lat="48.83455" lon="-1.5656">
        <ele>55</ele>
        <time>2024-01-25T12:40:16Z</time>
      </trkpt>
      <trkpt lat="48.83455" lon="-1.56552">
        <ele>55.1</ele>
        <time>2024-01-25T12:40:17Z</time>
      </trkpt>
      <trkpt lat="48.83455" lon="-1.56546">
        <ele>55.1</ele>
        <time>2024-01-25T12:40:18Z</time>
      </trkpt>
      <trkpt lat="48.83455" lon="-1.56538">
        <ele>55.2</ele>
        <time>2024-01-25T12:40:19Z</time>
      </trkpt>
      <trkpt lat="48.83456" lon="-1.56529">
        <ele>55.3</ele>
        <time>2024-01-25T12:40:20Z</time>
      </trkpt>
      <trkpt lat="48.83456" lon="-1.56521">
        <ele>55.4</ele>
        <time>2024-01-25T12:40:21Z</time>
      </trkpt>
      <trkpt lat="48.83456" lon="-1.56513">
        <ele>55.5</ele>
        <time>2024-01-25T12:40:22Z</time>
      </trkpt>
      <trkpt lat="48.83457" lon="-1.56505">
        <ele>55.6</ele>
        <time>2024-01-25T12:40:23Z</time>
      </trkpt>
      <trkpt lat="48.83457" lon="-1.56498">
        <ele>55.7</ele>
        <time>2024-01-25T12:40:24Z</time>
      </trkpt>
      <trkpt lat="48.83457" lon="-1.56491">
        <ele>55.7</ele>
        <time>2024-01-25T12:40:25Z</time>
      </trkpt>
      <trkpt lat="48.83457" lon="-1.56484">
        <ele>55.8</ele>
        <time>2024-01-25T12:40:26Z</time>
      </trkpt>
      <trkpt lat="48.83457" lon="-1.56477">
        <ele>55.9</ele>
        <time>2024-01-25T12:40:27Z</time>
      </trkpt>
      <trkpt lat="48.83456" lon="-1.56469">
        <ele>56</ele>
        <time>2024-01-25T12:40:28Z</time>
      </trkpt>
      <trkpt lat="48.83456" lon="-1.56463">
        <ele>56.1</ele>
        <time>2024-01-25T12:40:29Z</time>
      </trkpt>
      <trkpt lat="48.83455" lon="-1.56456">
        <ele>56.1</ele>
        <time>2024-01-25T12:40:30Z</time>
      </trkpt>
      <trkpt lat="48.83455" lon="-1.56448">
        <ele>56.2</ele>
        <time>2024-01-25T12:40:31Z</time>
      </trkpt>
      <trkpt lat="48.83454" lon="-1.56441">
        <ele>56.3</ele>
        <time>2024-01-25T12:40:32Z</time>
      </trkpt>
      <trkpt lat="48.83453" lon="-1.56433">
        <ele>56.4</ele>
        <time>2024-01-25T12:40:33Z</time>
      </trkpt>
      <trkpt lat="48.83453" lon="-1.56426">
        <ele>56.5</ele>
        <time>2024-01-25T12:40:34Z</time>
      </trkpt>
      <trkpt lat="48.83453" lon="-1.56419">
        <ele>56.5</ele>
        <time>2024-01-25T12:40:35Z</time>
      </trkpt>
      <trkpt lat="48.83452" lon="-1.56411">
        <ele>56.6</ele>
        <time>2024-01-25T12:40:36Z</time>
      </trkpt>
      <trkpt lat="48.83452" lon="-1.56404">
        <ele>56.7</ele>
        <time>2024-01-25T12:40:37Z</time>
      </trkpt>
      <trkpt lat="48.83451" lon="-1.56397">
        <ele>56.7</ele>
        <time>2024-01-25T12:40:38Z</time>
      </trkpt>
      <trkpt lat="48.83451" lon="-1.56389">
        <ele>56.8</ele>
        <time>2024-01-25T12:40:39Z</time>
      </trkpt>
      <trkpt lat="48.8345" lon="-1.56382">
        <ele>56.9</ele>
        <time>2024-01-25T12:40:40Z</time>
      </trkpt>
      <trkpt lat="48.8345" lon="-1.56375">
        <ele>56.9</ele>
        <time>2024-01-25T12:40:41Z</time>
      </trkpt>
      <trkpt lat="48.8345" lon="-1.56367">
        <ele>57</ele>
        <time>2024-01-25T12:40:42Z</time>
      </trkpt>
      <trkpt lat="48.8345" lon="-1.56359">
        <ele>57.1</ele>
        <time>2024-01-25T12:40:43Z</time>
      </trkpt>
      <trkpt lat="48.8345" lon="-1.56352">
        <ele>57.2</ele>
        <time>2024-01-25T12:40:44Z</time>
      </trkpt>
      <trkpt lat="48.8345" lon="-1.56345">
        <ele>57.2</ele>
        <time>2024-01-25T12:40:45Z</time>
      </trkpt>
      <trkpt lat="48.8345" lon="-1.56338">
        <ele>57.3</ele>
        <time>2024-01-25T12:40:46Z</time>
      </trkpt>
      <trkpt lat="48.8345" lon="-1.56331">
        <ele>57.4</ele>
        <time>2024-01-25T12:40:47Z</time>
      </trkpt>
      <trkpt lat="48.83451" lon="-1.56324">
        <ele>57.5</ele>
        <time>2024-01-25T12:40:48Z</time>
      </trkpt>
      <trkpt lat="48.83452" lon="-1.56317">
        <ele>57.6</ele>
        <time>2024-01-25T12:40:49Z</time>
      </trkpt>
      <trkpt lat="48.83452" lon="-1.56309">
        <ele>57.7</ele>
        <time>2024-01-25T12:40:50Z</time>
      </trkpt>
      <trkpt lat="48.83452" lon="-1.56302">
        <ele>57.8</ele>
        <time>2024-01-25T12:40:51Z</time>
      </trkpt>
      <trkpt lat="48.83451" lon="-1.56295">
        <ele>57.8</ele>
        <time>2024-01-25T12:40:52Z</time>
      </trkpt>
      <trkpt lat="48.83451" lon="-1.56288">
        <ele>57.9</ele>
        <time>2024-01-25T12:40:53Z</time>
      </trkpt>
      <trkpt lat="48.83451" lon="-1.56281">
        <ele>57.9</ele>
        <time>2024-01-25T12:40:54Z</time>
      </trkpt>
      <trkpt lat="48.8345" lon="-1.56273">
        <ele>58</ele>
        <time>2024-01-25T12:40:55Z</time>
      </trkpt>
      <trkpt lat="48.83449" lon="-1.56265">
        <ele>58</ele>
        <time>2024-01-25T12:40:56Z</time>
      </trkpt>
      <trkpt lat="48.83448" lon="-1.56258">
        <ele>58.1</ele>
        <time>2024-01-25T12:40:57Z</time>
      </trkpt>
      <trkpt lat="48.83446" lon="-1.56251">
        <ele>58.2</ele>
        <time>2024-01-25T12:40:58Z</time>
      </trkpt>
      <trkpt lat="48.83445" lon="-1.56243">
        <ele>58.3</ele>
        <time>2024-01-25T12:40:59Z</time>
      </trkpt>
      <trkpt lat="48.83443" lon="-1.56236">
        <ele>58.3</ele>
        <time>2024-01-25T12:41:00Z</time>
      </trkpt>
      <trkpt lat="48.83441" lon="-1.56229">
        <ele>58.4</ele>
        <time>2024-01-25T12:41:01Z</time>
      </trkpt>
      <trkpt lat="48.8344" lon="-1.56221">
        <ele>58.4</ele>
        <time>2024-01-25T12:41:02Z</time>
      </trkpt>
      <trkpt lat="48.83438" lon="-1.56214">
        <ele>58.5</ele>
        <time>2024-01-25T12:41:03Z</time>
      </trkpt>
      <trkpt lat="48.83437" lon="-1.56207">
        <ele>58.5</ele>
        <time>2024-01-25T12:41:04Z</time>
      </trkpt>
      <trkpt lat="48.83437" lon="-1.56199">
        <ele>58.6</ele>
        <time>2024-01-25T12:41:05Z</time>
      </trkpt>
      <trkpt lat="48.83437" lon="-1.56191">
        <ele>58.6</ele>
        <time>2024-01-25T12:41:06Z</time>
      </trkpt>
      <trkpt lat="48.83436" lon="-1.56182">
        <ele>58.7</ele>
        <time>2024-01-25T12:41:07Z</time>
      </trkpt>
      <trkpt lat="48.83436" lon="-1.56174">
        <ele>58.8</ele>
        <time>2024-01-25T12:41:08Z</time>
      </trkpt>
      <trkpt lat="48.83435" lon="-1.56166">
        <ele>58.8</ele>
        <time>2024-01-25T12:41:09Z</time>
      </trkpt>
      <trkpt lat="48.83435" lon="-1.56157">
        <ele>58.9</ele>
        <time>2024-01-25T12:41:10Z</time>
      </trkpt>
      <trkpt lat="48.83435" lon="-1.56149">
        <ele>59</ele>
        <time>2024-01-25T12:41:11Z</time>
      </trkpt>
      <trkpt lat="48.83434" lon="-1.5614">
        <ele>59.1</ele>
        <time>2024-01-25T12:41:12Z</time>
      </trkpt>
      <trkpt lat="48.83434" lon="-1.56132">
        <ele>59.2</ele>
        <time>2024-01-25T12:41:13Z</time>
      </trkpt>
      <trkpt lat="48.83433" lon="-1.56125">
        <ele>59.2</ele>
        <time>2024-01-25T12:41:14Z</time>
      </trkpt>
      <trkpt lat="48.83432" lon="-1.56117">
        <ele>59.3</ele>
        <time>2024-01-25T12:41:15Z</time>
      </trkpt>
      <trkpt lat="48.83431" lon="-1.5611">
        <ele>59.3</ele>
        <time>2024-01-25T12:41:16Z</time>
      </trkpt>
      <trkpt lat="48.83431" lon="-1.56103">
        <ele>59.3</ele>
        <time>2024-01-25T12:41:17Z</time>
      </trkpt>
      <trkpt lat="48.83429" lon="-1.56096">
        <ele>59.4</ele>
        <time>2024-01-25T12:41:18Z</time>
      </trkpt>
      <trkpt lat="48.83428" lon="-1.5609">
        <ele>59.4</ele>
        <time>2024-01-25T12:41:19Z</time>
      </trkpt>
      <trkpt lat="48.83427" lon="-1.56083">
        <ele>59.4</ele>
        <time>2024-01-25T12:41:20Z</time>
      </trkpt>
      <trkpt lat="48.83426" lon="-1.56075">
        <ele>59.5</ele>
        <time>2024-01-25T12:41:21Z</time>
      </trkpt>
      <trkpt lat="48.83425" lon="-1.56068">
        <ele>59.5</ele>
        <time>2024-01-25T12:41:22Z</time>
      </trkpt>
      <trkpt lat="48.83424" lon="-1.5606">
        <ele>59.6</ele>
        <time>2024-01-25T12:41:23Z</time>
      </trkpt>
      <trkpt lat="48.83423" lon="-1.56053">
        <ele>59.6</ele>
        <time>2024-01-25T12:41:24Z</time>
      </trkpt>
      <trkpt lat="48.83422" lon="-1.56046">
        <ele>59.6</ele>
        <time>2024-01-25T12:41:25Z</time>
      </trkpt>
      <trkpt lat="48.83421" lon="-1.56038">
        <ele>59.7</ele>
        <time>2024-01-25T12:41:26Z</time>
      </trkpt>
      <trkpt lat="48.8342" lon="-1.56031">
        <ele>59.7</ele>
        <time>2024-01-25T12:41:27Z</time>
      </trkpt>
      <trkpt lat="48.8342" lon="-1.56023">
        <ele>59.7</ele>
        <time>2024-01-25T12:41:28Z</time>
      </trkpt>
      <trkpt lat="48.83419" lon="-1.56016">
        <ele>59.8</ele>
        <time>2024-01-25T12:41:29Z</time>
      </trkpt>
      <trkpt lat="48.83418" lon="-1.56009">
        <ele>59.8</ele>
        <time>2024-01-25T12:41:30Z</time>
      </trkpt>
      <trkpt lat="48.83418" lon="-1.56001">
        <ele>59.8</ele>
        <time>2024-01-25T12:41:31Z</time>
      </trkpt>
      <trkpt lat="48.83417" lon="-1.55994">
        <ele>59.8</ele>
        <time>2024-01-25T12:41:32Z</time>
      </trkpt>
      <trkpt lat="48.83417" lon="-1.55987">
        <ele>59.8</ele>
        <time>2024-01-25T12:41:33Z</time>
      </trkpt>
      <trkpt lat="48.83417" lon="-1.55979">
        <ele>59.9</ele>
        <time>2024-01-25T12:41:34Z</time>
      </trkpt>
      <trkpt lat="48.83417" lon="-1.55971">
        <ele>59.9</ele>
        <time>2024-01-25T12:41:35Z</time>
      </trkpt>
      <trkpt lat="48.83416" lon="-1.55963">
        <ele>59.9</ele>
        <time>2024-01-25T12:41:36Z</time>
      </trkpt>
      <trkpt lat="48.83416" lon="-1.55955">
        <ele>59.9</ele>
        <time>2024-01-25T12:41:37Z</time>
      </trkpt>
      <trkpt lat="48.83415" lon="-1.55947">
        <ele>59.9</ele>
        <time>2024-01-25T12:41:38Z</time>
      </trkpt>
      <trkpt lat="48.83415" lon="-1.5594">
        <ele>59.8</ele>
        <time>2024-01-25T12:41:39Z</time>
      </trkpt>
      <trkpt lat="48.83415" lon="-1.55933">
        <ele>59.8</ele>
        <time>2024-01-25T12:41:40Z</time>
      </trkpt>
      <trkpt lat="48.83414" lon="-1.55925">
        <ele>59.8</ele>
        <time>2024-01-25T12:41:41Z</time>
      </trkpt>
      <trkpt lat="48.83414" lon="-1.55917">
        <ele>59.8</ele>
        <time>2024-01-25T12:41:42Z</time>
      </trkpt>
      <trkpt lat="48.83414" lon="-1.55909">
        <ele>59.8</ele>
        <time>2024-01-25T12:41:43Z</time>
      </trkpt>
      <trkpt lat="48.83413" lon="-1.55902">
        <ele>59.7</ele>
        <time>2024-01-25T12:41:44Z</time>
      </trkpt>
      <trkpt lat="48.83412" lon="-1.55894">
        <ele>59.7</ele>
        <time>2024-01-25T12:41:45Z</time>
      </trkpt>
      <trkpt lat="48.8341" lon="-1.55886">
        <ele>59.7</ele>
        <time>2024-01-25T12:41:46Z</time>
      </trkpt>
      <trkpt lat="48.83409" lon="-1.55878">
        <ele>59.6</ele>
        <time>2024-01-25T12:41:47Z</time>
      </trkpt>
      <trkpt lat="48.83407" lon="-1.55871">
        <ele>59.6</ele>
        <time>2024-01-25T12:41:48Z</time>
      </trkpt>
      <trkpt lat="48.83405" lon="-1.55863">
        <ele>59.5</ele>
        <time>2024-01-25T12:41:49Z</time>
      </trkpt>
      <trkpt lat="48.83403" lon="-1.55855">
        <ele>59.5</ele>
        <time>2024-01-25T12:41:50Z</time>
      </trkpt>
      <trkpt lat="48.83401" lon="-1.55847">
        <ele>59.4</ele>
        <time>2024-01-25T12:41:51Z</time>
      </trkpt>
      <trkpt lat="48.83399" lon="-1.5584">
        <ele>59.4</ele>
        <time>2024-01-25T12:41:52Z</time>
      </trkpt>
      <trkpt lat="48.83396" lon="-1.55833">
        <ele>59.3</ele>
        <time>2024-01-25T12:41:53Z</time>
      </trkpt>
      <trkpt lat="48.83394" lon="-1.55825">
        <ele>59.3</ele>
        <time>2024-01-25T12:41:54Z</time>
      </trkpt>
      <trkpt lat="48.83392" lon="-1.55817">
        <ele>59.2</ele>
        <time>2024-01-25T12:41:55Z</time>
      </trkpt>
      <trkpt lat="48.83389" lon="-1.55809">
        <ele>59.1</ele>
        <time>2024-01-25T12:41:56Z</time>
      </trkpt>
      <trkpt lat="48.83387" lon="-1.55802">
        <ele>59.1</ele>
        <time>2024-01-25T12:41:57Z</time>
      </trkpt>
      <trkpt lat="48.83385" lon="-1.55794">
        <ele>59</ele>
        <time>2024-01-25T12:41:58Z</time>
      </trkpt>
      <trkpt lat="48.83383" lon="-1.55787">
        <ele>58.9</ele>
        <time>2024-01-25T12:41:59Z</time>
      </trkpt>
      <trkpt lat="48.83382" lon="-1.5578">
        <ele>58.9</ele>
        <time>2024-01-25T12:42:00Z</time>
      </trkpt>
      <trkpt lat="48.8338" lon="-1.55772">
        <ele>58.8</ele>
        <time>2024-01-25T12:42:01Z</time>
      </trkpt>
      <trkpt lat="48.83379" lon="-1.55764">
        <ele>58.7</ele>
        <time>2024-01-25T12:42:02Z</time>
      </trkpt>
      <trkpt lat="48.83378" lon="-1.55756">
        <ele>58.6</ele>
        <time>2024-01-25T12:42:03Z</time>
      </trkpt>
      <trkpt lat="48.83377" lon="-1.55748">
        <ele>58.5</ele>
        <time>2024-01-25T12:42:04Z</time>
      </trkpt>
      <trkpt lat="48.83376" lon="-1.5574">
        <ele>58.4</ele>
        <time>2024-01-25T12:42:05Z</time>
      </trkpt>
      <trkpt lat="48.83374" lon="-1.55732">
        <ele>58.3</ele>
        <time>2024-01-25T12:42:06Z</time>
      </trkpt>
      <trkpt lat="48.83373" lon="-1.55724">
        <ele>58.3</ele>
        <time>2024-01-25T12:42:07Z</time>
      </trkpt>
      <trkpt lat="48.83371" lon="-1.55716">
        <ele>58.2</ele>
        <time>2024-01-25T12:42:08Z</time>
      </trkpt>
      <trkpt lat="48.8337" lon="-1.55708">
        <ele>58.1</ele>
        <time>2024-01-25T12:42:09Z</time>
      </trkpt>
      <trkpt lat="48.83369" lon="-1.55699">
        <ele>58.1</ele>
        <time>2024-01-25T12:42:10Z</time>
      </trkpt>
      <trkpt lat="48.83368" lon="-1.55691">
        <ele>58.1</ele>
        <time>2024-01-25T12:42:11Z</time>
      </trkpt>
      <trkpt lat="48.83368" lon="-1.55682">
        <ele>58.1</ele>
        <time>2024-01-25T12:42:12Z</time>
      </trkpt>
      <trkpt lat="48.83369" lon="-1.55674">
        <ele>58.1</ele>
        <time>2024-01-25T12:42:13Z</time>
      </trkpt>
      <trkpt lat="48.8337" lon="-1.55666">
        <ele>58.1</ele>
        <time>2024-01-25T12:42:14Z</time>
      </trkpt>
      <trkpt lat="48.83371" lon="-1.55658">
        <ele>58.1</ele>
        <time>2024-01-25T12:42:15Z</time>
      </trkpt>
      <trkpt lat="48.83373" lon="-1.55649">
        <ele>58.1</ele>
        <time>2024-01-25T12:42:16Z</time>
      </trkpt>
      <trkpt lat="48.83374" lon="-1.55641">
        <ele>58.2</ele>
        <time>2024-01-25T12:42:17Z</time>
      </trkpt>
      <trkpt lat="48.83376" lon="-1.55633">
        <ele>58.3</ele>
        <time>2024-01-25T12:42:18Z</time>
      </trkpt>
      <trkpt lat="48.83377" lon="-1.55625">
        <ele>58.3</ele>
        <time>2024-01-25T12:42:19Z</time>
      </trkpt>
      <trkpt lat="48.83379" lon="-1.55617">
        <ele>58.4</ele>
        <time>2024-01-25T12:42:20Z</time>
      </trkpt>
      <trkpt lat="48.83381" lon="-1.55609">
        <ele>58.4</ele>
        <time>2024-01-25T12:42:21Z</time>
      </trkpt>
      <trkpt lat="48.83383" lon="-1.55602">
        <ele>58.5</ele>
        <time>2024-01-25T12:42:22Z</time>
      </trkpt>
      <trkpt lat="48.83385" lon="-1.55594">
        <ele>58.6</ele>
        <time>2024-01-25T12:42:23Z</time>
      </trkpt>
      <trkpt lat="48.83387" lon="-1.55586">
        <ele>58.7</ele>
        <time>2024-01-25T12:42:24Z</time>
      </trkpt>
      <trkpt lat="48.83387" lon="-1.55579">
        <ele>58.8</ele>
        <time>2024-01-25T12:42:25Z</time>
      </trkpt>
      <trkpt lat="48.83389" lon="-1.55573">
        <ele>58.9</ele>
        <time>2024-01-25T12:42:26Z</time>
      </trkpt>
      <trkpt lat="48.8339" lon="-1.55566">
        <ele>59</ele>
        <time>2024-01-25T12:42:27Z</time>
      </trkpt>
      <trkpt lat="48.83391" lon="-1.5556">
        <ele>59.1</ele>
        <time>2024-01-25T12:42:28Z</time>
      </trkpt>
      <trkpt lat="48.83392" lon="-1.55554">
        <ele>59.1</ele>
        <time>2024-01-25T12:42:29Z</time>
      </trkpt>
      <trkpt lat="48.83394" lon="-1.55547">
        <ele>59.2</ele>
        <time>2024-01-25T12:42:30Z</time>
      </trkpt>
      <trkpt lat="48.83395" lon="-1.55541">
        <ele>59.3</ele>
        <time>2024-01-25T12:42:31Z</time>
      </trkpt>
      <trkpt lat="48.83397" lon="-1.55534">
        <ele>59.4</ele>
        <time>2024-01-25T12:42:32Z</time>
      </trkpt>
      <trkpt lat="48.83398" lon="-1.55527">
        <ele>59.4</ele>
        <time>2024-01-25T12:42:33Z</time>
      </trkpt>
      <trkpt lat="48.834" lon="-1.5552">
        <ele>59.5</ele>
        <time>2024-01-25T12:42:34Z</time>
      </trkpt>
      <trkpt lat="48.83401" lon="-1.55514">
        <ele>59.6</ele>
        <time>2024-01-25T12:42:35Z</time>
      </trkpt>
      <trkpt lat="48.83402" lon="-1.55508">
        <ele>59.6</ele>
        <time>2024-01-25T12:42:36Z</time>
      </trkpt>
      <trkpt lat="48.83403" lon="-1.55503">
        <ele>59.7</ele>
        <time>2024-01-25T12:42:37Z</time>
      </trkpt>
      <trkpt lat="48.83406" lon="-1.55493">
        <ele>59.8</ele>
        <time>2024-01-25T12:42:39Z</time>
      </trkpt>
      <trkpt lat="48.83408" lon="-1.55484">
        <ele>59.9</ele>
        <time>2024-01-25T12:42:40Z</time>
      </trkpt>
      <trkpt lat="48.83409" lon="-1.55477">
        <ele>60</ele>
        <time>2024-01-25T12:42:41Z</time>
      </trkpt>
      <trkpt lat="48.83411" lon="-1.5547">
        <ele>60</ele>
        <time>2024-01-25T12:42:42Z</time>
      </trkpt>
      <trkpt lat="48.83412" lon="-1.55463">
        <ele>60.1</ele>
        <time>2024-01-25T12:42:43Z</time>
      </trkpt>
      <trkpt lat="48.83413" lon="-1.55456">
        <ele>60.1</ele>
        <time>2024-01-25T12:42:44Z</time>
      </trkpt>
      <trkpt lat="48.83415" lon="-1.55445">
        <ele>60.2</ele>
        <time>2024-01-25T12:42:46Z</time>
      </trkpt>
      <trkpt lat="48.83418" lon="-1.55432">
        <ele>60.4</ele>
        <time>2024-01-25T12:42:48Z</time>
      </trkpt>
      <trkpt lat="48.83419" lon="-1.55424">
        <ele>60.4</ele>
        <time>2024-01-25T12:42:49Z</time>
      </trkpt>
      <trkpt lat="48.8342" lon="-1.55417">
        <ele>60.5</ele>
        <time>2024-01-25T12:42:50Z</time>
      </trkpt>
      <trkpt lat="48.83421" lon="-1.5541">
        <ele>60.6</ele>
        <time>2024-01-25T12:42:51Z</time>
      </trkpt>
      <trkpt lat="48.83422" lon="-1.55403">
        <ele>60.7</ele>
        <time>2024-01-25T12:42:52Z</time>
      </trkpt>
      <trkpt lat="48.83423" lon="-1.55396">
        <ele>60.8</ele>
        <time>2024-01-25T12:42:53Z</time>
      </trkpt>
      <trkpt lat="48.83424" lon="-1.55389">
        <ele>60.9</ele>
        <time>2024-01-25T12:42:54Z</time>
      </trkpt>
      <trkpt lat="48.83425" lon="-1.55384">
        <ele>60.9</ele>
        <time>2024-01-25T12:42:55Z</time>
      </trkpt>
      <trkpt lat="48.83427" lon="-1.55373">
        <ele>61.1</ele>
        <time>2024-01-25T12:42:57Z</time>
      </trkpt>
      <trkpt lat="48.83428" lon="-1.55366">
        <ele>61.2</ele>
        <time>2024-01-25T12:42:58Z</time>
      </trkpt>
      <trkpt lat="48.83429" lon="-1.55361">
        <ele>61.2</ele>
        <time>2024-01-25T12:42:59Z</time>
      </trkpt>
      <trkpt lat="48.8343" lon="-1.55355">
        <ele>61.3</ele>
        <time>2024-01-25T12:43:00Z</time>
      </trkpt>
      <trkpt lat="48.83432" lon="-1.55351">
        <ele>61.4</ele>
        <time>2024-01-25T12:43:01Z</time>
      </trkpt>
      <trkpt lat="48.83434" lon="-1.55343">
        <ele>61.5</ele>
        <time>2024-01-25T12:43:02Z</time>
      </trkpt>
      <trkpt lat="48.83436" lon="-1.55337">
        <ele>61.6</ele>
        <time>2024-01-25T12:43:03Z</time>
      </trkpt>
      <trkpt lat="48.83438" lon="-1.55332">
        <ele>61.6</ele>
        <time>2024-01-25T12:43:04Z</time>
      </trkpt>
      <trkpt lat="48.8344" lon="-1.5532">
        <ele>61.8</ele>
        <time>2024-01-25T12:43:05Z</time>
      </trkpt>
      <trkpt lat="48.83442" lon="-1.55312">
        <ele>61.9</ele>
        <time>2024-01-25T12:43:06Z</time>
      </trkpt>
      <trkpt lat="48.83443" lon="-1.55304">
        <ele>62</ele>
        <time>2024-01-25T12:43:07Z</time>
      </trkpt>
      <trkpt lat="48.83444" lon="-1.55296">
        <ele>62</ele>
        <time>2024-01-25T12:43:08Z</time>
      </trkpt>
      <trkpt lat="48.83445" lon="-1.55289">
        <ele>62.1</ele>
        <time>2024-01-25T12:43:09Z</time>
      </trkpt>
      <trkpt lat="48.83447" lon="-1.55282">
        <ele>62.2</ele>
        <time>2024-01-25T12:43:10Z</time>
      </trkpt>
      <trkpt lat="48.83449" lon="-1.55275">
        <ele>62.3</ele>
        <time>2024-01-25T12:43:11Z</time>
      </trkpt>
      <trkpt lat="48.83449" lon="-1.55269">
        <ele>62.3</ele>
        <time>2024-01-25T12:43:12Z</time>
      </trkpt>
      <trkpt lat="48.83451" lon="-1.55262">
        <ele>62.4</ele>
        <time>2024-01-25T12:43:14Z</time>
      </trkpt>
      <trkpt lat="48.83453" lon="-1.55256">
        <ele>62.4</ele>
        <time>2024-01-25T12:43:15Z</time>
      </trkpt>
      <trkpt lat="48.83456" lon="-1.55247">
        <ele>62.5</ele>
        <time>2024-01-25T12:43:16Z</time>
      </trkpt>
      <trkpt lat="48.83457" lon="-1.55241">
        <ele>62.6</ele>
        <time>2024-01-25T12:43:17Z</time>
      </trkpt>
      <trkpt lat="48.83458" lon="-1.55234">
        <ele>62.7</ele>
        <time>2024-01-25T12:43:18Z</time>
      </trkpt>
      <trkpt lat="48.8346" lon="-1.55224">
        <ele>62.7</ele>
        <time>2024-01-25T12:43:19Z</time>
      </trkpt>
      <trkpt lat="48.83461" lon="-1.55217">
        <ele>62.8</ele>
        <time>2024-01-25T12:43:20Z</time>
      </trkpt>
      <trkpt lat="48.83462" lon="-1.5521">
        <ele>62.8</ele>
        <time>2024-01-25T12:43:21Z</time>
      </trkpt>
      <trkpt lat="48.83463" lon="-1.55202">
        <ele>62.9</ele>
        <time>2024-01-25T12:43:22Z</time>
      </trkpt>
      <trkpt lat="48.83465" lon="-1.55196">
        <ele>62.9</ele>
        <time>2024-01-25T12:43:23Z</time>
      </trkpt>
      <trkpt lat="48.83466" lon="-1.5519">
        <ele>63</ele>
        <time>2024-01-25T12:43:24Z</time>
      </trkpt>
      <trkpt lat="48.83467" lon="-1.55183">
        <ele>63</ele>
        <time>2024-01-25T12:43:25Z</time>
      </trkpt>
      <trkpt lat="48.8347" lon="-1.55172">
        <ele>63</ele>
        <time>2024-01-25T12:43:27Z</time>
      </trkpt>
      <trkpt lat="48.83471" lon="-1.55165">
        <ele>63</ele>
        <time>2024-01-25T12:43:29Z</time>
      </trkpt>
      <trkpt lat="48.83473" lon="-1.55158">
        <ele>63</ele>
        <time>2024-01-25T12:43:30Z</time>
      </trkpt>
      <trkpt lat="48.83475" lon="-1.55147">
        <ele>63.1</ele>
        <time>2024-01-25T12:43:31Z</time>
      </trkpt>
      <trkpt lat="48.83476" lon="-1.55139">
        <ele>63.1</ele>
        <time>2024-01-25T12:43:33Z</time>
      </trkpt>
      <trkpt lat="48.83478" lon="-1.5513">
        <ele>63.1</ele>
        <time>2024-01-25T12:43:34Z</time>
      </trkpt>
      <trkpt lat="48.83478" lon="-1.55123">
        <ele>63.1</ele>
        <time>2024-01-25T12:43:35Z</time>
      </trkpt>
      <trkpt lat="48.83478" lon="-1.55115">
        <ele>63.1</ele>
        <time>2024-01-25T12:43:36Z</time>
      </trkpt>
      <trkpt lat="48.83477" lon="-1.55106">
        <ele>63.1</ele>
        <time>2024-01-25T12:43:37Z</time>
      </trkpt>
      <trkpt lat="48.83476" lon="-1.55099">
        <ele>63</ele>
        <time>2024-01-25T12:43:38Z</time>
      </trkpt>
      <trkpt lat="48.83475" lon="-1.55092">
        <ele>63</ele>
        <time>2024-01-25T12:43:39Z</time>
      </trkpt>
      <trkpt lat="48.83477" lon="-1.55085">
        <ele>62.9</ele>
        <time>2024-01-25T12:43:40Z</time>
      </trkpt>
      <trkpt lat="48.8348" lon="-1.55078">
        <ele>62.9</ele>
        <time>2024-01-25T12:43:41Z</time>
      </trkpt>
      <trkpt lat="48.83482" lon="-1.55074">
        <ele>62.9</ele>
        <time>2024-01-25T12:43:42Z</time>
      </trkpt>
      <trkpt lat="48.83486" lon="-1.55069">
        <ele>63</ele>
        <time>2024-01-25T12:43:43Z</time>
      </trkpt>
      <trkpt lat="48.83489" lon="-1.55063">
        <ele>63</ele>
        <time>2024-01-25T12:43:44Z</time>
      </trkpt>
      <trkpt lat="48.83492" lon="-1.55057">
        <ele>63</ele>
        <time>2024-01-25T12:43:45Z</time>
      </trkpt>
      <trkpt lat="48.83495" lon="-1.55051">
        <ele>63</ele>
        <time>2024-01-25T12:43:46Z</time>
      </trkpt>
      <trkpt lat="48.83497" lon="-1.55043">
        <ele>62.9</ele>
        <time>2024-01-25T12:43:47Z</time>
      </trkpt>
      <trkpt lat="48.83498" lon="-1.55035">
        <ele>62.8</ele>
        <time>2024-01-25T12:43:48Z</time>
      </trkpt>
      <trkpt lat="48.83499" lon="-1.55026">
        <ele>62.8</ele>
        <time>2024-01-25T12:43:49Z</time>
      </trkpt>
      <trkpt lat="48.835" lon="-1.55017">
        <ele>62.7</ele>
        <time>2024-01-25T12:43:50Z</time>
      </trkpt>
      <trkpt lat="48.835" lon="-1.55009">
        <ele>62.6</ele>
        <time>2024-01-25T12:43:51Z</time>
      </trkpt>
      <trkpt lat="48.835" lon="-1.54999">
        <ele>62.5</ele>
        <time>2024-01-25T12:43:52Z</time>
      </trkpt>
      <trkpt lat="48.835" lon="-1.54991">
        <ele>62.5</ele>
        <time>2024-01-25T12:43:53Z</time>
      </trkpt>
      <trkpt lat="48.83499" lon="-1.54982">
        <ele>62.4</ele>
        <time>2024-01-25T12:43:54Z</time>
      </trkpt>
      <trkpt lat="48.83499" lon="-1.54973">
        <ele>62.3</ele>
        <time>2024-01-25T12:43:55Z</time>
      </trkpt>
      <trkpt lat="48.83498" lon="-1.54964">
        <ele>62.3</ele>
        <time>2024-01-25T12:43:56Z</time>
      </trkpt>
      <trkpt lat="48.83498" lon="-1.54955">
        <ele>62.2</ele>
        <time>2024-01-25T12:43:57Z</time>
      </trkpt>
      <trkpt lat="48.83498" lon="-1.54946">
        <ele>62</ele>
        <time>2024-01-25T12:43:58Z</time>
      </trkpt>
      <trkpt lat="48.83498" lon="-1.54938">
        <ele>61.9</ele>
        <time>2024-01-25T12:43:59Z</time>
      </trkpt>
      <trkpt lat="48.83498" lon="-1.54929">
        <ele>61.8</ele>
        <time>2024-01-25T12:44:00Z</time>
      </trkpt>
      <trkpt lat="48.83499" lon="-1.5492">
        <ele>61.7</ele>
        <time>2024-01-25T12:44:01Z</time>
      </trkpt>
      <trkpt lat="48.83499" lon="-1.54911">
        <ele>61.5</ele>
        <time>2024-01-25T12:44:02Z</time>
      </trkpt>
      <trkpt lat="48.835" lon="-1.54903">
        <ele>61.4</ele>
        <time>2024-01-25T12:44:03Z</time>
      </trkpt>
      <trkpt lat="48.835" lon="-1.54894">
        <ele>61.3</ele>
        <time>2024-01-25T12:44:04Z</time>
      </trkpt>
      <trkpt lat="48.83501" lon="-1.54885">
        <ele>61.2</ele>
        <time>2024-01-25T12:44:05Z</time>
      </trkpt>
      <trkpt lat="48.83501" lon="-1.54875">
        <ele>61.1</ele>
        <time>2024-01-25T12:44:06Z</time>
      </trkpt>
      <trkpt lat="48.83501" lon="-1.54865">
        <ele>60.9</ele>
        <time>2024-01-25T12:44:07Z</time>
      </trkpt>
      <trkpt lat="48.83502" lon="-1.54855">
        <ele>60.7</ele>
        <time>2024-01-25T12:44:08Z</time>
      </trkpt>
      <trkpt lat="48.83502" lon="-1.54846">
        <ele>60.6</ele>
        <time>2024-01-25T12:44:09Z</time>
      </trkpt>
      <trkpt lat="48.83503" lon="-1.54837">
        <ele>60.4</ele>
        <time>2024-01-25T12:44:10Z</time>
      </trkpt>
      <trkpt lat="48.83503" lon="-1.54827">
        <ele>60.2</ele>
        <time>2024-01-25T12:44:11Z</time>
      </trkpt>
      <trkpt lat="48.83504" lon="-1.54818">
        <ele>59.9</ele>
        <time>2024-01-25T12:44:12Z</time>
      </trkpt>
      <trkpt lat="48.83505" lon="-1.54808">
        <ele>59.7</ele>
        <time>2024-01-25T12:44:13Z</time>
      </trkpt>
      <trkpt lat="48.83507" lon="-1.54799">
        <ele>59.4</ele>
        <time>2024-01-25T12:44:14Z</time>
      </trkpt>
      <trkpt lat="48.83508" lon="-1.54789">
        <ele>59.1</ele>
        <time>2024-01-25T12:44:15Z</time>
      </trkpt>
      <trkpt lat="48.83508" lon="-1.54778">
        <ele>58.8</ele>
        <time>2024-01-25T12:44:16Z</time>
      </trkpt>
      <trkpt lat="48.83509" lon="-1.54767">
        <ele>58.5</ele>
        <time>2024-01-25T12:44:17Z</time>
      </trkpt>
      <trkpt lat="48.83509" lon="-1.54755">
        <ele>58.2</ele>
        <time>2024-01-25T12:44:18Z</time>
      </trkpt>
      <trkpt lat="48.83509" lon="-1.54744">
        <ele>58</ele>
        <time>2024-01-25T12:44:19Z</time>
      </trkpt>
      <trkpt lat="48.83508" lon="-1.54732">
        <ele>57.7</ele>
        <time>2024-01-25T12:44:20Z</time>
      </trkpt>
      <trkpt lat="48.83507" lon="-1.54721">
        <ele>57.4</ele>
        <time>2024-01-25T12:44:21Z</time>
      </trkpt>
      <trkpt lat="48.83506" lon="-1.54709">
        <ele>57.1</ele>
        <time>2024-01-25T12:44:22Z</time>
      </trkpt>
      <trkpt lat="48.83506" lon="-1.54699">
        <ele>56.9</ele>
        <time>2024-01-25T12:44:23Z</time>
      </trkpt>
      <trkpt lat="48.83506" lon="-1.54688">
        <ele>56.8</ele>
        <time>2024-01-25T12:44:24Z</time>
      </trkpt>
      <trkpt lat="48.83507" lon="-1.54677">
        <ele>56.6</ele>
        <time>2024-01-25T12:44:25Z</time>
      </trkpt>
      <trkpt lat="48.83508" lon="-1.54667">
        <ele>56.5</ele>
        <time>2024-01-25T12:44:26Z</time>
      </trkpt>
      <trkpt lat="48.8351" lon="-1.54657">
        <ele>56.4</ele>
        <time>2024-01-25T12:44:27Z</time>
      </trkpt>
      <trkpt lat="48.83512" lon="-1.54647">
        <ele>56.3</ele>
        <time>2024-01-25T12:44:28Z</time>
      </trkpt>
      <trkpt lat="48.83514" lon="-1.54637">
        <ele>56.2</ele>
        <time>2024-01-25T12:44:29Z</time>
      </trkpt>
      <trkpt lat="48.83516" lon="-1.54628">
        <ele>56.1</ele>
        <time>2024-01-25T12:44:30Z</time>
      </trkpt>
      <trkpt lat="48.83518" lon="-1.54619">
        <ele>56.1</ele>
        <time>2024-01-25T12:44:31Z</time>
      </trkpt>
      <trkpt lat="48.83521" lon="-1.54611">
        <ele>56.1</ele>
        <time>2024-01-25T12:44:32Z</time>
      </trkpt>
      <trkpt lat="48.83523" lon="-1.54602">
        <ele>56.1</ele>
        <time>2024-01-25T12:44:33Z</time>
      </trkpt>
      <trkpt lat="48.83525" lon="-1.54595">
        <ele>56.1</ele>
        <time>2024-01-25T12:44:34Z</time>
      </trkpt>
      <trkpt lat="48.83528" lon="-1.54588">
        <ele>56.1</ele>
        <time>2024-01-25T12:44:35Z</time>
      </trkpt>
      <trkpt lat="48.83532" lon="-1.54584">
        <ele>56.2</ele>
        <time>2024-01-25T12:44:36Z</time>
      </trkpt>
      <trkpt lat="48.83536" lon="-1.54582">
        <ele>56.2</ele>
        <time>2024-01-25T12:44:37Z</time>
      </trkpt>
      <trkpt lat="48.83541" lon="-1.54583">
        <ele>56.3</ele>
        <time>2024-01-25T12:44:38Z</time>
      </trkpt>
      <trkpt lat="48.83545" lon="-1.54585">
        <ele>56.4</ele>
        <time>2024-01-25T12:44:39Z</time>
      </trkpt>
      <trkpt lat="48.83551" lon="-1.54589">
        <ele>56.5</ele>
        <time>2024-01-25T12:44:40Z</time>
      </trkpt>
      <trkpt lat="48.83556" lon="-1.54592">
        <ele>56.7</ele>
        <time>2024-01-25T12:44:41Z</time>
      </trkpt>
      <trkpt lat="48.83562" lon="-1.54596">
        <ele>56.8</ele>
        <time>2024-01-25T12:44:42Z</time>
      </trkpt>
      <trkpt lat="48.83566" lon="-1.546">
        <ele>57</ele>
        <time>2024-01-25T12:44:43Z</time>
      </trkpt>
      <trkpt lat="48.83571" lon="-1.54604">
        <ele>57.2</ele>
        <time>2024-01-25T12:44:44Z</time>
      </trkpt>
      <trkpt lat="48.83575" lon="-1.54609">
        <ele>57.4</ele>
        <time>2024-01-25T12:44:45Z</time>
      </trkpt>
      <trkpt lat="48.8358" lon="-1.54612">
        <ele>57.5</ele>
        <time>2024-01-25T12:44:46Z</time>
      </trkpt>
      <trkpt lat="48.83585" lon="-1.54616">
        <ele>57.7</ele>
        <time>2024-01-25T12:44:47Z</time>
      </trkpt>
      <trkpt lat="48.83589" lon="-1.54619">
        <ele>57.9</ele>
        <time>2024-01-25T12:44:48Z</time>
      </trkpt>
      <trkpt lat="48.83593" lon="-1.54623">
        <ele>58.1</ele>
        <time>2024-01-25T12:44:49Z</time>
      </trkpt>
      <trkpt lat="48.83597" lon="-1.54627">
        <ele>58.2</ele>
        <time>2024-01-25T12:44:50Z</time>
      </trkpt>
      <trkpt lat="48.83601" lon="-1.54631">
        <ele>58.3</ele>
        <time>2024-01-25T12:44:51Z</time>
      </trkpt>
      <trkpt lat="48.83605" lon="-1.54634">
        <ele>58.5</ele>
        <time>2024-01-25T12:44:52Z</time>
      </trkpt>
      <trkpt lat="48.83609" lon="-1.54637">
        <ele>58.6</ele>
        <time>2024-01-25T12:44:53Z</time>
      </trkpt>
      <trkpt lat="48.83612" lon="-1.5464">
        <ele>58.8</ele>
        <time>2024-01-25T12:44:54Z</time>
      </trkpt>
      <trkpt lat="48.83616" lon="-1.54643">
        <ele>59</ele>
        <time>2024-01-25T12:44:55Z</time>
      </trkpt>
      <trkpt lat="48.8362" lon="-1.54646">
        <ele>59.1</ele>
        <time>2024-01-25T12:44:56Z</time>
      </trkpt>
      <trkpt lat="48.83624" lon="-1.54649">
        <ele>59.3</ele>
        <time>2024-01-25T12:44:57Z</time>
      </trkpt>
      <trkpt lat="48.83628" lon="-1.54651">
        <ele>59.5</ele>
        <time>2024-01-25T12:44:58Z</time>
      </trkpt>
      <trkpt lat="48.83631" lon="-1.54654">
        <ele>59.7</ele>
        <time>2024-01-25T12:44:59Z</time>
      </trkpt>
      <trkpt lat="48.83635" lon="-1.54656">
        <ele>59.8</ele>
        <time>2024-01-25T12:45:00Z</time>
      </trkpt>
      <trkpt lat="48.83639" lon="-1.54658">
        <ele>60</ele>
        <time>2024-01-25T12:45:01Z</time>
      </trkpt>
      <trkpt lat="48.83643" lon="-1.54661">
        <ele>60.2</ele>
        <time>2024-01-25T12:45:02Z</time>
      </trkpt>
      <trkpt lat="48.83647" lon="-1.54663">
        <ele>60.3</ele>
        <time>2024-01-25T12:45:03Z</time>
      </trkpt>
      <trkpt lat="48.83651" lon="-1.54664">
        <ele>60.5</ele>
        <time>2024-01-25T12:45:04Z</time>
      </trkpt>
      <trkpt lat="48.83655" lon="-1.54664">
        <ele>60.6</ele>
        <time>2024-01-25T12:45:05Z</time>
      </trkpt>
      <trkpt lat="48.83659" lon="-1.54663">
        <ele>60.8</ele>
        <time>2024-01-25T12:45:06Z</time>
      </trkpt>
      <trkpt lat="48.83663" lon="-1.54659">
        <ele>60.9</ele>
        <time>2024-01-25T12:45:07Z</time>
      </trkpt>
      <trkpt lat="48.83666" lon="-1.54654">
        <ele>61</ele>
        <time>2024-01-25T12:45:08Z</time>
      </trkpt>
      <trkpt lat="48.8367" lon="-1.54648">
        <ele>61.1</ele>
        <time>2024-01-25T12:45:10Z</time>
      </trkpt>
      <trkpt lat="48.83672" lon="-1.54644">
        <ele>61.1</ele>
        <time>2024-01-25T12:45:11Z</time>
      </trkpt>
      <trkpt lat="48.83675" lon="-1.54638">
        <ele>61.1</ele>
        <time>2024-01-25T12:45:12Z</time>
      </trkpt>
      <trkpt lat="48.83682" lon="-1.54631">
        <ele>61.2</ele>
        <time>2024-01-25T12:45:13Z</time>
      </trkpt>
      <trkpt lat="48.83689" lon="-1.54628">
        <ele>61.3</ele>
        <time>2024-01-25T12:45:15Z</time>
      </trkpt>
      <trkpt lat="48.83693" lon="-1.54628">
        <ele>61.4</ele>
        <time>2024-01-25T12:45:16Z</time>
      </trkpt>
      <trkpt lat="48.83699" lon="-1.54627">
        <ele>61.4</ele>
        <time>2024-01-25T12:45:17Z</time>
      </trkpt>
      <trkpt lat="48.83704" lon="-1.54628">
        <ele>61.5</ele>
        <time>2024-01-25T12:45:18Z</time>
      </trkpt>
      <trkpt lat="48.83711" lon="-1.54629">
        <ele>61.6</ele>
        <time>2024-01-25T12:45:20Z</time>
      </trkpt>
      <trkpt lat="48.83716" lon="-1.54633">
        <ele>61.6</ele>
        <time>2024-01-25T12:45:21Z</time>
      </trkpt>
      <trkpt lat="48.8372" lon="-1.54636">
        <ele>61.7</ele>
        <time>2024-01-25T12:45:22Z</time>
      </trkpt>
      <trkpt lat="48.83723" lon="-1.54639">
        <ele>61.7</ele>
        <time>2024-01-25T12:45:23Z</time>
      </trkpt>
      <trkpt lat="48.83727" lon="-1.54642">
        <ele>61.8</ele>
        <time>2024-01-25T12:45:24Z</time>
      </trkpt>
      <trkpt lat="48.8373" lon="-1.54644">
        <ele>61.8</ele>
        <time>2024-01-25T12:45:25Z</time>
      </trkpt>
      <trkpt lat="48.83733" lon="-1.54648">
        <ele>61.8</ele>
        <time>2024-01-25T12:45:26Z</time>
      </trkpt>
      <trkpt lat="48.83737" lon="-1.5465">
        <ele>61.9</ele>
        <time>2024-01-25T12:45:27Z</time>
      </trkpt>
      <trkpt lat="48.8374" lon="-1.54652">
        <ele>61.9</ele>
        <time>2024-01-25T12:45:28Z</time>
      </trkpt>
      <trkpt lat="48.83742" lon="-1.54655">
        <ele>62</ele>
        <time>2024-01-25T12:45:29Z</time>
      </trkpt>
      <trkpt lat="48.83746" lon="-1.54657">
        <ele>62</ele>
        <time>2024-01-25T12:45:30Z</time>
      </trkpt>
      <trkpt lat="48.83747" lon="-1.54657">
        <ele>62</ele>
        <time>2024-01-25T12:45:31Z</time>
      </trkpt>
      <trkpt lat="48.83748" lon="-1.54656">
        <ele>62</ele>
        <time>2024-01-25T12:45:32Z</time>
      </trkpt>
      <trkpt lat="48.83749" lon="-1.54655">
        <ele>62</ele>
        <time>2024-01-25T12:45:33Z</time>
      </trkpt>
      <trkpt lat="48.8375" lon="-1.54654">
        <ele>62</ele>
        <time>2024-01-25T12:45:34Z</time>
      </trkpt>
      <trkpt lat="48.8375" lon="-1.54653">
        <ele>62</ele>
        <time>2024-01-25T12:45:35Z</time>
      </trkpt>
      <trkpt lat="48.83751" lon="-1.54652">
        <ele>62</ele>
        <time>2024-01-25T12:45:36Z</time>
      </trkpt>
      <trkpt lat="48.83751" lon="-1.54652">
        <ele>62.1</ele>
        <time>2024-01-25T12:45:37Z</time>
      </trkpt>
      <trkpt lat="48.83751" lon="-1.54651">
        <ele>62.1</ele>
        <time>2024-01-25T12:45:38Z</time>
      </trkpt>
      <trkpt lat="48.83751" lon="-1.5465">
        <ele>62.1</ele>
        <time>2024-01-25T12:45:39Z</time>
      </trkpt>
      <trkpt lat="48.83752" lon="-1.5465">
        <ele>62.1</ele>
        <time>2024-01-25T12:45:40Z</time>
      </trkpt>
      <trkpt lat="48.83752" lon="-1.54649">
        <ele>62.1</ele>
        <time>2024-01-25T12:45:41Z</time>
      </trkpt>
      <trkpt lat="48.83752" lon="-1.54649">
        <ele>62.1</ele>
        <time>2024-01-25T12:45:42Z</time>
      </trkpt>
      <trkpt lat="48.83753" lon="-1.54648">
        <ele>62.1</ele>
        <time>2024-01-25T12:45:43Z</time>
      </trkpt>
      <trkpt lat="48.83753" lon="-1.54647">
        <ele>62.1</ele>
        <time>2024-01-25T12:45:44Z</time>
      </trkpt>
      <trkpt lat="48.83753" lon="-1.54647">
        <ele>62.1</ele>
        <time>2024-01-25T12:45:45Z</time>
      </trkpt>
      <trkpt lat="48.83753" lon="-1.54646">
        <ele>62.1</ele>
        <time>2024-01-25T12:45:46Z</time>
      </trkpt>
      <trkpt lat="48.83754" lon="-1.54646">
        <ele>62.2</ele>
        <time>2024-01-25T12:45:47Z</time>
      </trkpt>
      <trkpt lat="48.83754" lon="-1.54645">
        <ele>62.2</ele>
        <time>2024-01-25T12:45:48Z</time>
      </trkpt>
      <trkpt lat="48.83754" lon="-1.54644">
        <ele>62.2</ele>
        <time>2024-01-25T12:45:49Z</time>
      </trkpt>
      <trkpt lat="48.83754" lon="-1.54644">
        <ele>62.2</ele>
        <time>2024-01-25T12:45:50Z</time>
      </trkpt>
      <trkpt lat="48.83755" lon="-1.54643">
        <ele>62.2</ele>
        <time>2024-01-25T12:45:51Z</time>
      </trkpt>
      <trkpt lat="48.83756" lon="-1.54636">
        <ele>62.3</ele>
        <time>2024-01-25T12:45:52Z</time>
      </trkpt>
      <trkpt lat="48.83757" lon="-1.5463">
        <ele>62.4</ele>
        <time>2024-01-25T12:45:53Z</time>
      </trkpt>
      <trkpt lat="48.83758" lon="-1.54623">
        <ele>62.5</ele>
        <time>2024-01-25T12:45:54Z</time>
      </trkpt>
      <trkpt lat="48.83759" lon="-1.54615">
        <ele>62.7</ele>
        <time>2024-01-25T12:45:55Z</time>
      </trkpt>
      <trkpt lat="48.83759" lon="-1.54604">
        <ele>62.8</ele>
        <time>2024-01-25T12:45:56Z</time>
      </trkpt>
      <trkpt lat="48.8376" lon="-1.54596">
        <ele>62.9</ele>
        <time>2024-01-25T12:45:57Z</time>
      </trkpt>
      <trkpt lat="48.8376" lon="-1.54588">
        <ele>63</ele>
        <time>2024-01-25T12:45:58Z</time>
      </trkpt>
      <trkpt lat="48.8376" lon="-1.54579">
        <ele>63.1</ele>
        <time>2024-01-25T12:45:59Z</time>
      </trkpt>
      <trkpt lat="48.8376" lon="-1.5457">
        <ele>63.1</ele>
        <time>2024-01-25T12:46:00Z</time>
      </trkpt>
      <trkpt lat="48.8376" lon="-1.54562">
        <ele>63.2</ele>
        <time>2024-01-25T12:46:01Z</time>
      </trkpt>
      <trkpt lat="48.83761" lon="-1.54553">
        <ele>63.2</ele>
        <time>2024-01-25T12:46:02Z</time>
      </trkpt>
      <trkpt lat="48.83761" lon="-1.54545">
        <ele>63.3</ele>
        <time>2024-01-25T12:46:03Z</time>
      </trkpt>
      <trkpt lat="48.83761" lon="-1.54536">
        <ele>63.4</ele>
        <time>2024-01-25T12:46:04Z</time>
      </trkpt>
      <trkpt lat="48.83761" lon="-1.54527">
        <ele>63.4</ele>
        <time>2024-01-25T12:46:05Z</time>
      </trkpt>
      <trkpt lat="48.83761" lon="-1.54518">
        <ele>63.5</ele>
        <time>2024-01-25T12:46:06Z</time>
      </trkpt>
      <trkpt lat="48.8376" lon="-1.5451">
        <ele>63.5</ele>
        <time>2024-01-25T12:46:07Z</time>
      </trkpt>
      <trkpt lat="48.8376" lon="-1.54502">
        <ele>63.6</ele>
        <time>2024-01-25T12:46:08Z</time>
      </trkpt>
      <trkpt lat="48.8376" lon="-1.54494">
        <ele>63.6</ele>
        <time>2024-01-25T12:46:09Z</time>
      </trkpt>
      <trkpt lat="48.8376" lon="-1.54487">
        <ele>63.7</ele>
        <time>2024-01-25T12:46:10Z</time>
      </trkpt>
      <trkpt lat="48.8376" lon="-1.54479">
        <ele>63.7</ele>
        <time>2024-01-25T12:46:11Z</time>
      </trkpt>
      <trkpt lat="48.8376" lon="-1.54471">
        <ele>63.8</ele>
        <time>2024-01-25T12:46:12Z</time>
      </trkpt>
      <trkpt lat="48.83759" lon="-1.54463">
        <ele>63.8</ele>
        <time>2024-01-25T12:46:13Z</time>
      </trkpt>
      <trkpt lat="48.83759" lon="-1.54455">
        <ele>63.8</ele>
        <time>2024-01-25T12:46:14Z</time>
      </trkpt>
      <trkpt lat="48.83759" lon="-1.54447">
        <ele>63.9</ele>
        <time>2024-01-25T12:46:15Z</time>
      </trkpt>
      <trkpt lat="48.83759" lon="-1.54438">
        <ele>63.9</ele>
        <time>2024-01-25T12:46:16Z</time>
      </trkpt>
      <trkpt lat="48.83759" lon="-1.5443">
        <ele>63.9</ele>
        <time>2024-01-25T12:46:17Z</time>
      </trkpt>
      <trkpt lat="48.83759" lon="-1.54422">
        <ele>64</ele>
        <time>2024-01-25T12:46:18Z</time>
      </trkpt>
      <trkpt lat="48.83759" lon="-1.54414">
        <ele>64</ele>
        <time>2024-01-25T12:46:19Z</time>
      </trkpt>
      <trkpt lat="48.83759" lon="-1.54407">
        <ele>64</ele>
        <time>2024-01-25T12:46:20Z</time>
      </trkpt>
      <trkpt lat="48.83759" lon="-1.544">
        <ele>64.1</ele>
        <time>2024-01-25T12:46:21Z</time>
      </trkpt>
      <trkpt lat="48.83759" lon="-1.54393">
        <ele>64.1</ele>
        <time>2024-01-25T12:46:22Z</time>
      </trkpt>
      <trkpt lat="48.8376" lon="-1.54388">
        <ele>64.1</ele>
        <time>2024-01-25T12:46:23Z</time>
      </trkpt>
      <trkpt lat="48.8376" lon="-1.5438">
        <ele>64.2</ele>
        <time>2024-01-25T12:46:24Z</time>
      </trkpt>
      <trkpt lat="48.8376" lon="-1.54372">
        <ele>64.2</ele>
        <time>2024-01-25T12:46:25Z</time>
      </trkpt>
      <trkpt lat="48.8376" lon="-1.54365">
        <ele>64.3</ele>
        <time>2024-01-25T12:46:26Z</time>
      </trkpt>
      <trkpt lat="48.8376" lon="-1.54358">
        <ele>64.3</ele>
        <time>2024-01-25T12:46:27Z</time>
      </trkpt>
      <trkpt lat="48.8376" lon="-1.5435">
        <ele>64.4</ele>
        <time>2024-01-25T12:46:28Z</time>
      </trkpt>
      <trkpt lat="48.8376" lon="-1.54344">
        <ele>64.4</ele>
        <time>2024-01-25T12:46:29Z</time>
      </trkpt>
      <trkpt lat="48.8376" lon="-1.54336">
        <ele>64.4</ele>
        <time>2024-01-25T12:46:30Z</time>
      </trkpt>
      <trkpt lat="48.8376" lon="-1.54329">
        <ele>64.5</ele>
        <time>2024-01-25T12:46:31Z</time>
      </trkpt>
      <trkpt lat="48.8376" lon="-1.54322">
        <ele>64.6</ele>
        <time>2024-01-25T12:46:32Z</time>
      </trkpt>
      <trkpt lat="48.83759" lon="-1.54314">
        <ele>64.6</ele>
        <time>2024-01-25T12:46:33Z</time>
      </trkpt>
      <trkpt lat="48.83758" lon="-1.54307">
        <ele>64.7</ele>
        <time>2024-01-25T12:46:34Z</time>
      </trkpt>
      <trkpt lat="48.83759" lon="-1.54299">
        <ele>64.8</ele>
        <time>2024-01-25T12:46:35Z</time>
      </trkpt>
      <trkpt lat="48.83759" lon="-1.5429">
        <ele>64.9</ele>
        <time>2024-01-25T12:46:36Z</time>
      </trkpt>
      <trkpt lat="48.8376" lon="-1.54282">
        <ele>64.9</ele>
        <time>2024-01-25T12:46:37Z</time>
      </trkpt>
      <trkpt lat="48.8376" lon="-1.54274">
        <ele>65</ele>
        <time>2024-01-25T12:46:38Z</time>
      </trkpt>
      <trkpt lat="48.8376" lon="-1.54265">
        <ele>65</ele>
        <time>2024-01-25T12:46:39Z</time>
      </trkpt>
      <trkpt lat="48.8376" lon="-1.54257">
        <ele>65</ele>
        <time>2024-01-25T12:46:40Z</time>
      </trkpt>
      <trkpt lat="48.8376" lon="-1.54248">
        <ele>65</ele>
        <time>2024-01-25T12:46:41Z</time>
      </trkpt>
      <trkpt lat="48.8376" lon="-1.5424">
        <ele>65</ele>
        <time>2024-01-25T12:46:42Z</time>
      </trkpt>
      <trkpt lat="48.83759" lon="-1.54231">
        <ele>65.1</ele>
        <time>2024-01-25T12:46:43Z</time>
      </trkpt>
      <trkpt lat="48.83758" lon="-1.54223">
        <ele>65.1</ele>
        <time>2024-01-25T12:46:44Z</time>
      </trkpt>
      <trkpt lat="48.83757" lon="-1.54214">
        <ele>65.1</ele>
        <time>2024-01-25T12:46:45Z</time>
      </trkpt>
      <trkpt lat="48.83757" lon="-1.54206">
        <ele>65.2</ele>
        <time>2024-01-25T12:46:46Z</time>
      </trkpt>
      <trkpt lat="48.83756" lon="-1.54198">
        <ele>65.2</ele>
        <time>2024-01-25T12:46:47Z</time>
      </trkpt>
      <trkpt lat="48.83756" lon="-1.54191">
        <ele>65.2</ele>
        <time>2024-01-25T12:46:48Z</time>
      </trkpt>
      <trkpt lat="48.83756" lon="-1.54183">
        <ele>65.2</ele>
        <time>2024-01-25T12:46:49Z</time>
      </trkpt>
      <trkpt lat="48.83756" lon="-1.54175">
        <ele>65.2</ele>
        <time>2024-01-25T12:46:50Z</time>
      </trkpt>
      <trkpt lat="48.83756" lon="-1.54168">
        <ele>65.2</ele>
        <time>2024-01-25T12:46:51Z</time>
      </trkpt>
      <trkpt lat="48.83756" lon="-1.5416">
        <ele>65.2</ele>
        <time>2024-01-25T12:46:52Z</time>
      </trkpt>
      <trkpt lat="48.83756" lon="-1.54152">
        <ele>65.2</ele>
        <time>2024-01-25T12:46:53Z</time>
      </trkpt>
      <trkpt lat="48.83757" lon="-1.54144">
        <ele>65.3</ele>
        <time>2024-01-25T12:46:54Z</time>
      </trkpt>
      <trkpt lat="48.83757" lon="-1.54136">
        <ele>65.3</ele>
        <time>2024-01-25T12:46:55Z</time>
      </trkpt>
      <trkpt lat="48.83757" lon="-1.54128">
        <ele>65.3</ele>
        <time>2024-01-25T12:46:56Z</time>
      </trkpt>
      <trkpt lat="48.83757" lon="-1.5412">
        <ele>65.4</ele>
        <time>2024-01-25T12:46:57Z</time>
      </trkpt>
      <trkpt lat="48.83757" lon="-1.54113">
        <ele>65.4</ele>
        <time>2024-01-25T12:46:58Z</time>
      </trkpt>
      <trkpt lat="48.83758" lon="-1.54105">
        <ele>65.4</ele>
        <time>2024-01-25T12:46:59Z</time>
      </trkpt>
      <trkpt lat="48.83758" lon="-1.54097">
        <ele>65.4</ele>
        <time>2024-01-25T12:47:00Z</time>
      </trkpt>
      <trkpt lat="48.83758" lon="-1.54089">
        <ele>65.5</ele>
        <time>2024-01-25T12:47:01Z</time>
      </trkpt>
      <trkpt lat="48.83758" lon="-1.54081">
        <ele>65.5</ele>
        <time>2024-01-25T12:47:02Z</time>
      </trkpt>
      <trkpt lat="48.83758" lon="-1.54073">
        <ele>65.5</ele>
        <time>2024-01-25T12:47:03Z</time>
      </trkpt>
      <trkpt lat="48.83758" lon="-1.54065">
        <ele>65.5</ele>
        <time>2024-01-25T12:47:04Z</time>
      </trkpt>
      <trkpt lat="48.83758" lon="-1.54057">
        <ele>65.5</ele>
        <time>2024-01-25T12:47:05Z</time>
      </trkpt>
      <trkpt lat="48.83758" lon="-1.54049">
        <ele>65.5</ele>
        <time>2024-01-25T12:47:06Z</time>
      </trkpt>
      <trkpt lat="48.83758" lon="-1.5404">
        <ele>65.5</ele>
        <time>2024-01-25T12:47:07Z</time>
      </trkpt>
      <trkpt lat="48.83757" lon="-1.54032">
        <ele>65.5</ele>
        <time>2024-01-25T12:47:08Z</time>
      </trkpt>
      <trkpt lat="48.83756" lon="-1.54024">
        <ele>65.5</ele>
        <time>2024-01-25T12:47:09Z</time>
      </trkpt>
      <trkpt lat="48.83755" lon="-1.54017">
        <ele>65.5</ele>
        <time>2024-01-25T12:47:10Z</time>
      </trkpt>
      <trkpt lat="48.83754" lon="-1.54009">
        <ele>65.5</ele>
        <time>2024-01-25T12:47:11Z</time>
      </trkpt>
      <trkpt lat="48.83753" lon="-1.54002">
        <ele>65.5</ele>
        <time>2024-01-25T12:47:12Z</time>
      </trkpt>
      <trkpt lat="48.83752" lon="-1.53994">
        <ele>65.5</ele>
        <time>2024-01-25T12:47:13Z</time>
      </trkpt>
      <trkpt lat="48.83752" lon="-1.53988">
        <ele>65.5</ele>
        <time>2024-01-25T12:47:14Z</time>
      </trkpt>
      <trkpt lat="48.83752" lon="-1.53982">
        <ele>65.5</ele>
        <time>2024-01-25T12:47:15Z</time>
      </trkpt>
      <trkpt lat="48.83751" lon="-1.53976">
        <ele>65.5</ele>
        <time>2024-01-25T12:47:16Z</time>
      </trkpt>
      <trkpt lat="48.83751" lon="-1.53973">
        <ele>65.5</ele>
        <time>2024-01-25T12:47:17Z</time>
      </trkpt>
      <trkpt lat="48.8375" lon="-1.53968">
        <ele>65.6</ele>
        <time>2024-01-25T12:47:18Z</time>
      </trkpt>
      <trkpt lat="48.83749" lon="-1.53963">
        <ele>65.6</ele>
        <time>2024-01-25T12:47:19Z</time>
      </trkpt>
      <trkpt lat="48.83747" lon="-1.53957">
        <ele>65.6</ele>
        <time>2024-01-25T12:47:20Z</time>
      </trkpt>
      <trkpt lat="48.83746" lon="-1.5395">
        <ele>65.6</ele>
        <time>2024-01-25T12:47:21Z</time>
      </trkpt>
      <trkpt lat="48.83745" lon="-1.53944">
        <ele>65.6</ele>
        <time>2024-01-25T12:47:22Z</time>
      </trkpt>
      <trkpt lat="48.83744" lon="-1.5394">
        <ele>65.6</ele>
        <time>2024-01-25T12:47:23Z</time>
      </trkpt>
      <trkpt lat="48.83747" lon="-1.53928">
        <ele>65.5</ele>
        <time>2024-01-25T12:47:24Z</time>
      </trkpt>
      <trkpt lat="48.83748" lon="-1.53919">
        <ele>65.4</ele>
        <time>2024-01-25T12:47:25Z</time>
      </trkpt>
      <trkpt lat="48.83749" lon="-1.5391">
        <ele>65.4</ele>
        <time>2024-01-25T12:47:26Z</time>
      </trkpt>
      <trkpt lat="48.83749" lon="-1.539">
        <ele>65.3</ele>
        <time>2024-01-25T12:47:27Z</time>
      </trkpt>
      <trkpt lat="48.83749" lon="-1.53891">
        <ele>65.2</ele>
        <time>2024-01-25T12:47:28Z</time>
      </trkpt>
      <trkpt lat="48.83748" lon="-1.53881">
        <ele>65.1</ele>
        <time>2024-01-25T12:47:29Z</time>
      </trkpt>
      <trkpt lat="48.83748" lon="-1.53871">
        <ele>65</ele>
        <time>2024-01-25T12:47:30Z</time>
      </trkpt>
      <trkpt lat="48.83748" lon="-1.53861">
        <ele>64.9</ele>
        <time>2024-01-25T12:47:31Z</time>
      </trkpt>
      <trkpt lat="48.83748" lon="-1.53851">
        <ele>64.8</ele>
        <time>2024-01-25T12:47:32Z</time>
      </trkpt>
      <trkpt lat="48.83748" lon="-1.53841">
        <ele>64.7</ele>
        <time>2024-01-25T12:47:33Z</time>
      </trkpt>
      <trkpt lat="48.83748" lon="-1.53831">
        <ele>64.6</ele>
        <time>2024-01-25T12:47:34Z</time>
      </trkpt>
      <trkpt lat="48.83748" lon="-1.53821">
        <ele>64.5</ele>
        <time>2024-01-25T12:47:35Z</time>
      </trkpt>
      <trkpt lat="48.83748" lon="-1.5381">
        <ele>64.4</ele>
        <time>2024-01-25T12:47:36Z</time>
      </trkpt>
      <trkpt lat="48.83747" lon="-1.538">
        <ele>64.3</ele>
        <time>2024-01-25T12:47:37Z</time>
      </trkpt>
      <trkpt lat="48.83747" lon="-1.53789">
        <ele>64.2</ele>
        <time>2024-01-25T12:47:38Z</time>
      </trkpt>
      <trkpt lat="48.83748" lon="-1.53779">
        <ele>64.1</ele>
        <time>2024-01-25T12:47:39Z</time>
      </trkpt>
      <trkpt lat="48.83748" lon="-1.53768">
        <ele>64</ele>
        <time>2024-01-25T12:47:40Z</time>
      </trkpt>
      <trkpt lat="48.83748" lon="-1.53758">
        <ele>63.9</ele>
        <time>2024-01-25T12:47:41Z</time>
      </trkpt>
      <trkpt lat="48.83748" lon="-1.53747">
        <ele>63.8</ele>
        <time>2024-01-25T12:47:42Z</time>
      </trkpt>
      <trkpt lat="48.83748" lon="-1.53737">
        <ele>63.7</ele>
        <time>2024-01-25T12:47:43Z</time>
      </trkpt>
      <trkpt lat="48.83749" lon="-1.53727">
        <ele>63.6</ele>
        <time>2024-01-25T12:47:44Z</time>
      </trkpt>
      <trkpt lat="48.83749" lon="-1.53717">
        <ele>63.5</ele>
        <time>2024-01-25T12:47:45Z</time>
      </trkpt>
      <trkpt lat="48.83749" lon="-1.53707">
        <ele>63.5</ele>
        <time>2024-01-25T12:47:46Z</time>
      </trkpt>
      <trkpt lat="48.83749" lon="-1.53698">
        <ele>63.4</ele>
        <time>2024-01-25T12:47:47Z</time>
      </trkpt>
      <trkpt lat="48.83749" lon="-1.53688">
        <ele>63.3</ele>
        <time>2024-01-25T12:47:48Z</time>
      </trkpt>
      <trkpt lat="48.83749" lon="-1.53678">
        <ele>63.2</ele>
        <time>2024-01-25T12:47:49Z</time>
      </trkpt>
      <trkpt lat="48.83749" lon="-1.53669">
        <ele>63.1</ele>
        <time>2024-01-25T12:47:50Z</time>
      </trkpt>
      <trkpt lat="48.83748" lon="-1.53659">
        <ele>63</ele>
        <time>2024-01-25T12:47:51Z</time>
      </trkpt>
      <trkpt lat="48.83748" lon="-1.5365">
        <ele>62.9</ele>
        <time>2024-01-25T12:47:52Z</time>
      </trkpt>
      <trkpt lat="48.83748" lon="-1.5364">
        <ele>62.7</ele>
        <time>2024-01-25T12:47:53Z</time>
      </trkpt>
      <trkpt lat="48.83747" lon="-1.53631">
        <ele>62.6</ele>
        <time>2024-01-25T12:47:54Z</time>
      </trkpt>
      <trkpt lat="48.83747" lon="-1.53621">
        <ele>62.5</ele>
        <time>2024-01-25T12:47:55Z</time>
      </trkpt>
      <trkpt lat="48.83748" lon="-1.53612">
        <ele>62.4</ele>
        <time>2024-01-25T12:47:56Z</time>
      </trkpt>
      <trkpt lat="48.83748" lon="-1.53602">
        <ele>62.3</ele>
        <time>2024-01-25T12:47:57Z</time>
      </trkpt>
      <trkpt lat="48.83747" lon="-1.53592">
        <ele>62.2</ele>
        <time>2024-01-25T12:47:58Z</time>
      </trkpt>
      <trkpt lat="48.83747" lon="-1.53582">
        <ele>62.1</ele>
        <time>2024-01-25T12:47:59Z</time>
      </trkpt>
      <trkpt lat="48.83747" lon="-1.53572">
        <ele>62</ele>
        <time>2024-01-25T12:48:00Z</time>
      </trkpt>
      <trkpt lat="48.83747" lon="-1.53562">
        <ele>61.9</ele>
        <time>2024-01-25T12:48:01Z</time>
      </trkpt>
      <trkpt lat="48.83747" lon="-1.53552">
        <ele>61.8</ele>
        <time>2024-01-25T12:48:02Z</time>
      </trkpt>
      <trkpt lat="48.83747" lon="-1.53542">
        <ele>61.6</ele>
        <time>2024-01-25T12:48:03Z</time>
      </trkpt>
      <trkpt lat="48.83747" lon="-1.53532">
        <ele>61.5</ele>
        <time>2024-01-25T12:48:04Z</time>
      </trkpt>
      <trkpt lat="48.83747" lon="-1.53522">
        <ele>61.4</ele>
        <time>2024-01-25T12:48:05Z</time>
      </trkpt>
      <trkpt lat="48.83747" lon="-1.53513">
        <ele>61.3</ele>
        <time>2024-01-25T12:48:06Z</time>
      </trkpt>
      <trkpt lat="48.83748" lon="-1.53503">
        <ele>61.2</ele>
        <time>2024-01-25T12:48:07Z</time>
      </trkpt>
      <trkpt lat="48.83748" lon="-1.53492">
        <ele>61</ele>
        <time>2024-01-25T12:48:08Z</time>
      </trkpt>
      <trkpt lat="48.83749" lon="-1.53482">
        <ele>60.9</ele>
        <time>2024-01-25T12:48:09Z</time>
      </trkpt>
      <trkpt lat="48.83749" lon="-1.53471">
        <ele>60.8</ele>
        <time>2024-01-25T12:48:10Z</time>
      </trkpt>
      <trkpt lat="48.83749" lon="-1.53461">
        <ele>60.6</ele>
        <time>2024-01-25T12:48:11Z</time>
      </trkpt>
      <trkpt lat="48.83749" lon="-1.53452">
        <ele>60.5</ele>
        <time>2024-01-25T12:48:12Z</time>
      </trkpt>
      <trkpt lat="48.83749" lon="-1.53442">
        <ele>60.3</ele>
        <time>2024-01-25T12:48:13Z</time>
      </trkpt>
      <trkpt lat="48.83749" lon="-1.53433">
        <ele>60.2</ele>
        <time>2024-01-25T12:48:14Z</time>
      </trkpt>
      <trkpt lat="48.83749" lon="-1.53423">
        <ele>60</ele>
        <time>2024-01-25T12:48:15Z</time>
      </trkpt>
      <trkpt lat="48.8375" lon="-1.53414">
        <ele>59.9</ele>
        <time>2024-01-25T12:48:16Z</time>
      </trkpt>
      <trkpt lat="48.8375" lon="-1.53405">
        <ele>59.7</ele>
        <time>2024-01-25T12:48:17Z</time>
      </trkpt>
      <trkpt lat="48.83749" lon="-1.53397">
        <ele>59.6</ele>
        <time>2024-01-25T12:48:18Z</time>
      </trkpt>
      <trkpt lat="48.83749" lon="-1.53389">
        <ele>59.5</ele>
        <time>2024-01-25T12:48:19Z</time>
      </trkpt>
      <trkpt lat="48.83749" lon="-1.53382">
        <ele>59.4</ele>
        <time>2024-01-25T12:48:20Z</time>
      </trkpt>
      <trkpt lat="48.83749" lon="-1.53375">
        <ele>59.3</ele>
        <time>2024-01-25T12:48:21Z</time>
      </trkpt>
      <trkpt lat="48.8375" lon="-1.53368">
        <ele>58.9</ele>
        <time>2024-01-25T12:48:22Z</time>
      </trkpt>
      <trkpt lat="48.83752" lon="-1.53363">
        <ele>58.8</ele>
        <time>2024-01-25T12:48:23Z</time>
      </trkpt>
      <trkpt lat="48.83756" lon="-1.5336">
        <ele>58.6</ele>
        <time>2024-01-25T12:48:24Z</time>
      </trkpt>
      <trkpt lat="48.83761" lon="-1.5336">
        <ele>58.3</ele>
        <time>2024-01-25T12:48:25Z</time>
      </trkpt>
      <trkpt lat="48.83768" lon="-1.53361">
        <ele>58</ele>
        <time>2024-01-25T12:48:26Z</time>
      </trkpt>
      <trkpt lat="48.83775" lon="-1.53363">
        <ele>57.7</ele>
        <time>2024-01-25T12:48:27Z</time>
      </trkpt>
      <trkpt lat="48.83783" lon="-1.53365">
        <ele>57.3</ele>
        <time>2024-01-25T12:48:28Z</time>
      </trkpt>
      <trkpt lat="48.83791" lon="-1.53366">
        <ele>57</ele>
        <time>2024-01-25T12:48:29Z</time>
      </trkpt>
      <trkpt lat="48.83798" lon="-1.53366">
        <ele>56.7</ele>
        <time>2024-01-25T12:48:30Z</time>
      </trkpt>
      <trkpt lat="48.83806" lon="-1.53367">
        <ele>56.5</ele>
        <time>2024-01-25T12:48:31Z</time>
      </trkpt>
      <trkpt lat="48.83813" lon="-1.53369">
        <ele>56.4</ele>
        <time>2024-01-25T12:48:32Z</time>
      </trkpt>
      <trkpt lat="48.8382" lon="-1.5337">
        <ele>56.2</ele>
        <time>2024-01-25T12:48:33Z</time>
      </trkpt>
      <trkpt lat="48.83828" lon="-1.5337">
        <ele>56.1</ele>
        <time>2024-01-25T12:48:34Z</time>
      </trkpt>
      <trkpt lat="48.83835" lon="-1.5337">
        <ele>55.9</ele>
        <time>2024-01-25T12:48:35Z</time>
      </trkpt>
      <trkpt lat="48.83843" lon="-1.53371">
        <ele>55.8</ele>
        <time>2024-01-25T12:48:36Z</time>
      </trkpt>
      <trkpt lat="48.83852" lon="-1.53371">
        <ele>55.7</ele>
        <time>2024-01-25T12:48:37Z</time>
      </trkpt>
      <trkpt lat="48.8386" lon="-1.53371">
        <ele>55.6</ele>
        <time>2024-01-25T12:48:38Z</time>
      </trkpt>
      <trkpt lat="48.83869" lon="-1.53371">
        <ele>55.6</ele>
        <time>2024-01-25T12:48:39Z</time>
      </trkpt>
      <trkpt lat="48.83876" lon="-1.53371">
        <ele>55.6</ele>
        <time>2024-01-25T12:48:40Z</time>
      </trkpt>
      <trkpt lat="48.83884" lon="-1.53371">
        <ele>55.6</ele>
        <time>2024-01-25T12:48:41Z</time>
      </trkpt>
      <trkpt lat="48.83891" lon="-1.53372">
        <ele>55.6</ele>
        <time>2024-01-25T12:48:42Z</time>
      </trkpt>
      <trkpt lat="48.83898" lon="-1.53372">
        <ele>55.7</ele>
        <time>2024-01-25T12:48:43Z</time>
      </trkpt>
      <trkpt lat="48.83904" lon="-1.53373">
        <ele>55.8</ele>
        <time>2024-01-25T12:48:44Z</time>
      </trkpt>
      <trkpt lat="48.83909" lon="-1.53373">
        <ele>55.8</ele>
        <time>2024-01-25T12:48:45Z</time>
      </trkpt>
      <trkpt lat="48.83914" lon="-1.53373">
        <ele>55.9</ele>
        <time>2024-01-25T12:48:46Z</time>
      </trkpt>
      <trkpt lat="48.8392" lon="-1.53373">
        <ele>55.9</ele>
        <time>2024-01-25T12:48:47Z</time>
      </trkpt>
      <trkpt lat="48.83926" lon="-1.53372">
        <ele>56</ele>
        <time>2024-01-25T12:48:48Z</time>
      </trkpt>
      <trkpt lat="48.83932" lon="-1.53372">
        <ele>56</ele>
        <time>2024-01-25T12:48:49Z</time>
      </trkpt>
      <trkpt lat="48.83939" lon="-1.53371">
        <ele>56.1</ele>
        <time>2024-01-25T12:48:50Z</time>
      </trkpt>
      <trkpt lat="48.83945" lon="-1.5337">
        <ele>56.1</ele>
        <time>2024-01-25T12:48:51Z</time>
      </trkpt>
      <trkpt lat="48.8395" lon="-1.53369">
        <ele>56.1</ele>
        <time>2024-01-25T12:48:52Z</time>
      </trkpt>
      <trkpt lat="48.83956" lon="-1.53368">
        <ele>56.2</ele>
        <time>2024-01-25T12:48:53Z</time>
      </trkpt>
      <trkpt lat="48.83961" lon="-1.53367">
        <ele>56.2</ele>
        <time>2024-01-25T12:48:54Z</time>
      </trkpt>
      <trkpt lat="48.83967" lon="-1.53367">
        <ele>56.2</ele>
        <time>2024-01-25T12:48:55Z</time>
      </trkpt>
      <trkpt lat="48.83973" lon="-1.53366">
        <ele>56.3</ele>
        <time>2024-01-25T12:48:56Z</time>
      </trkpt>
      <trkpt lat="48.83978" lon="-1.53365">
        <ele>56.3</ele>
        <time>2024-01-25T12:48:57Z</time>
      </trkpt>
      <trkpt lat="48.83984" lon="-1.53364">
        <ele>56.4</ele>
        <time>2024-01-25T12:48:58Z</time>
      </trkpt>
      <trkpt lat="48.83989" lon="-1.53363">
        <ele>56.4</ele>
        <time>2024-01-25T12:48:59Z</time>
      </trkpt>
      <trkpt lat="48.83995" lon="-1.53362">
        <ele>56.4</ele>
        <time>2024-01-25T12:49:00Z</time>
      </trkpt>
      <trkpt lat="48.84" lon="-1.53361">
        <ele>56.5</ele>
        <time>2024-01-25T12:49:01Z</time>
      </trkpt>
      <trkpt lat="48.84005" lon="-1.53359">
        <ele>56.5</ele>
        <time>2024-01-25T12:49:02Z</time>
      </trkpt>
      <trkpt lat="48.8401" lon="-1.53357">
        <ele>56.5</ele>
        <time>2024-01-25T12:49:03Z</time>
      </trkpt>
      <trkpt lat="48.84015" lon="-1.53355">
        <ele>56.5</ele>
        <time>2024-01-25T12:49:04Z</time>
      </trkpt>
      <trkpt lat="48.8402" lon="-1.53353">
        <ele>56.5</ele>
        <time>2024-01-25T12:49:05Z</time>
      </trkpt>
      <trkpt lat="48.84024" lon="-1.53351">
        <ele>56.5</ele>
        <time>2024-01-25T12:49:06Z</time>
      </trkpt>
      <trkpt lat="48.84029" lon="-1.53348">
        <ele>56.5</ele>
        <time>2024-01-25T12:49:07Z</time>
      </trkpt>
      <trkpt lat="48.84034" lon="-1.53345">
        <ele>56.6</ele>
        <time>2024-01-25T12:49:08Z</time>
      </trkpt>
      <trkpt lat="48.84038" lon="-1.53343">
        <ele>56.6</ele>
        <time>2024-01-25T12:49:09Z</time>
      </trkpt>
      <trkpt lat="48.84043" lon="-1.5334">
        <ele>56.6</ele>
        <time>2024-01-25T12:49:10Z</time>
      </trkpt>
      <trkpt lat="48.84048" lon="-1.53338">
        <ele>56.5</ele>
        <time>2024-01-25T12:49:11Z</time>
      </trkpt>
      <trkpt lat="48.84055" lon="-1.53335">
        <ele>56.5</ele>
        <time>2024-01-25T12:49:12Z</time>
      </trkpt>
      <trkpt lat="48.84061" lon="-1.53331">
        <ele>56.5</ele>
        <time>2024-01-25T12:49:13Z</time>
      </trkpt>
      <trkpt lat="48.84068" lon="-1.53327">
        <ele>56.5</ele>
        <time>2024-01-25T12:49:14Z</time>
      </trkpt>
      <trkpt lat="48.84074" lon="-1.53323">
        <ele>56.6</ele>
        <time>2024-01-25T12:49:15Z</time>
      </trkpt>
      <trkpt lat="48.84079" lon="-1.53319">
        <ele>56.6</ele>
        <time>2024-01-25T12:49:16Z</time>
      </trkpt>
      <trkpt lat="48.84085" lon="-1.53315">
        <ele>56.7</ele>
        <time>2024-01-25T12:49:17Z</time>
      </trkpt>
      <trkpt lat="48.84091" lon="-1.53311">
        <ele>56.8</ele>
        <time>2024-01-25T12:49:18Z</time>
      </trkpt>
      <trkpt lat="48.84097" lon="-1.53307">
        <ele>56.9</ele>
        <time>2024-01-25T12:49:19Z</time>
      </trkpt>
      <trkpt lat="48.84102" lon="-1.53302">
        <ele>57</ele>
        <time>2024-01-25T12:49:20Z</time>
      </trkpt>
      <trkpt lat="48.84108" lon="-1.53298">
        <ele>57</ele>
        <time>2024-01-25T12:49:21Z</time>
      </trkpt>
      <trkpt lat="48.84113" lon="-1.53295">
        <ele>57</ele>
        <time>2024-01-25T12:49:22Z</time>
      </trkpt>
      <trkpt lat="48.84118" lon="-1.53293">
        <ele>57.1</ele>
        <time>2024-01-25T12:49:23Z</time>
      </trkpt>
      <trkpt lat="48.84123" lon="-1.53292">
        <ele>57.1</ele>
        <time>2024-01-25T12:49:24Z</time>
      </trkpt>
      <trkpt lat="48.84127" lon="-1.53293">
        <ele>57.1</ele>
        <time>2024-01-25T12:49:25Z</time>
      </trkpt>
      <trkpt lat="48.84133" lon="-1.53294">
        <ele>57.2</ele>
        <time>2024-01-25T12:49:26Z</time>
      </trkpt>
      <trkpt lat="48.84138" lon="-1.53296">
        <ele>57.2</ele>
        <time>2024-01-25T12:49:27Z</time>
      </trkpt>
      <trkpt lat="48.84144" lon="-1.53297">
        <ele>57.3</ele>
        <time>2024-01-25T12:49:28Z</time>
      </trkpt>
      <trkpt lat="48.8415" lon="-1.53298">
        <ele>57.3</ele>
        <time>2024-01-25T12:49:29Z</time>
      </trkpt>
      <trkpt lat="48.84155" lon="-1.53299">
        <ele>57.4</ele>
        <time>2024-01-25T12:49:30Z</time>
      </trkpt>
      <trkpt lat="48.84161" lon="-1.53299">
        <ele>57.4</ele>
        <time>2024-01-25T12:49:31Z</time>
      </trkpt>
      <trkpt lat="48.84166" lon="-1.533">
        <ele>57.4</ele>
        <time>2024-01-25T12:49:32Z</time>
      </trkpt>
      <trkpt lat="48.84172" lon="-1.53301">
        <ele>57.5</ele>
        <time>2024-01-25T12:49:33Z</time>
      </trkpt>
      <trkpt lat="48.84178" lon="-1.53302">
        <ele>57.5</ele>
        <time>2024-01-25T12:49:34Z</time>
      </trkpt>
      <trkpt lat="48.84184" lon="-1.53304">
        <ele>57.5</ele>
        <time>2024-01-25T12:49:35Z</time>
      </trkpt>
      <trkpt lat="48.84189" lon="-1.53305">
        <ele>57.5</ele>
        <time>2024-01-25T12:49:36Z</time>
      </trkpt>
      <trkpt lat="48.84195" lon="-1.53306">
        <ele>57.5</ele>
        <time>2024-01-25T12:49:37Z</time>
      </trkpt>
      <trkpt lat="48.842" lon="-1.53307">
        <ele>57.5</ele>
        <time>2024-01-25T12:49:38Z</time>
      </trkpt>
      <trkpt lat="48.84205" lon="-1.53309">
        <ele>57.5</ele>
        <time>2024-01-25T12:49:39Z</time>
      </trkpt>
      <trkpt lat="48.8421" lon="-1.53311">
        <ele>57.5</ele>
        <time>2024-01-25T12:49:40Z</time>
      </trkpt>
      <trkpt lat="48.84216" lon="-1.53312">
        <ele>57.5</ele>
        <time>2024-01-25T12:49:41Z</time>
      </trkpt>
      <trkpt lat="48.84222" lon="-1.53314">
        <ele>57.5</ele>
        <time>2024-01-25T12:49:42Z</time>
      </trkpt>
      <trkpt lat="48.84227" lon="-1.53315">
        <ele>57.5</ele>
        <time>2024-01-25T12:49:43Z</time>
      </trkpt>
      <trkpt lat="48.84232" lon="-1.53316">
        <ele>57.4</ele>
        <time>2024-01-25T12:49:44Z</time>
      </trkpt>
      <trkpt lat="48.84238" lon="-1.53318">
        <ele>57.4</ele>
        <time>2024-01-25T12:49:45Z</time>
      </trkpt>
      <trkpt lat="48.84243" lon="-1.53319">
        <ele>57.3</ele>
        <time>2024-01-25T12:49:46Z</time>
      </trkpt>
      <trkpt lat="48.84249" lon="-1.5332">
        <ele>57.2</ele>
        <time>2024-01-25T12:49:47Z</time>
      </trkpt>
      <trkpt lat="48.84254" lon="-1.53321">
        <ele>57</ele>
        <time>2024-01-25T12:49:48Z</time>
      </trkpt>
      <trkpt lat="48.8426" lon="-1.53322">
        <ele>56.9</ele>
        <time>2024-01-25T12:49:49Z</time>
      </trkpt>
      <trkpt lat="48.84265" lon="-1.53323">
        <ele>56.7</ele>
        <time>2024-01-25T12:49:50Z</time>
      </trkpt>
      <trkpt lat="48.84271" lon="-1.53324">
        <ele>56.6</ele>
        <time>2024-01-25T12:49:51Z</time>
      </trkpt>
      <trkpt lat="48.84277" lon="-1.53325">
        <ele>56.3</ele>
        <time>2024-01-25T12:49:52Z</time>
      </trkpt>
      <trkpt lat="48.84284" lon="-1.53327">
        <ele>56.1</ele>
        <time>2024-01-25T12:49:53Z</time>
      </trkpt>
      <trkpt lat="48.8429" lon="-1.53329">
        <ele>55.8</ele>
        <time>2024-01-25T12:49:54Z</time>
      </trkpt>
      <trkpt lat="48.84296" lon="-1.53332">
        <ele>55.5</ele>
        <time>2024-01-25T12:49:55Z</time>
      </trkpt>
      <trkpt lat="48.84302" lon="-1.53335">
        <ele>55.2</ele>
        <time>2024-01-25T12:49:56Z</time>
      </trkpt>
      <trkpt lat="48.84309" lon="-1.53337">
        <ele>54.8</ele>
        <time>2024-01-25T12:49:57Z</time>
      </trkpt>
      <trkpt lat="48.84316" lon="-1.53341">
        <ele>54.6</ele>
        <time>2024-01-25T12:49:58Z</time>
      </trkpt>
      <trkpt lat="48.84323" lon="-1.53344">
        <ele>54.3</ele>
        <time>2024-01-25T12:49:59Z</time>
      </trkpt>
      <trkpt lat="48.84328" lon="-1.53347">
        <ele>54.2</ele>
        <time>2024-01-25T12:50:00Z</time>
      </trkpt>
      <trkpt lat="48.84333" lon="-1.5335">
        <ele>54</ele>
        <time>2024-01-25T12:50:01Z</time>
      </trkpt>
      <trkpt lat="48.84338" lon="-1.53354">
        <ele>53.9</ele>
        <time>2024-01-25T12:50:02Z</time>
      </trkpt>
      <trkpt lat="48.84343" lon="-1.53355">
        <ele>53.8</ele>
        <time>2024-01-25T12:50:03Z</time>
      </trkpt>
      <trkpt lat="48.84348" lon="-1.53355">
        <ele>53.7</ele>
        <time>2024-01-25T12:50:04Z</time>
      </trkpt>
      <trkpt lat="48.84353" lon="-1.53353">
        <ele>53.6</ele>
        <time>2024-01-25T12:50:05Z</time>
      </trkpt>
      <trkpt lat="48.84359" lon="-1.53345">
        <ele>53.4</ele>
        <time>2024-01-25T12:50:06Z</time>
      </trkpt>
      <trkpt lat="48.84363" lon="-1.53335">
        <ele>53.2</ele>
        <time>2024-01-25T12:50:07Z</time>
      </trkpt>
      <trkpt lat="48.84366" lon="-1.53326">
        <ele>53</ele>
        <time>2024-01-25T12:50:08Z</time>
      </trkpt>
      <trkpt lat="48.84368" lon="-1.53317">
        <ele>52.8</ele>
        <time>2024-01-25T12:50:09Z</time>
      </trkpt>
      <trkpt lat="48.84369" lon="-1.53307">
        <ele>52.6</ele>
        <time>2024-01-25T12:50:10Z</time>
      </trkpt>
      <trkpt lat="48.84371" lon="-1.53297">
        <ele>52.4</ele>
        <time>2024-01-25T12:50:11Z</time>
      </trkpt>
      <trkpt lat="48.84373" lon="-1.53288">
        <ele>52.2</ele>
        <time>2024-01-25T12:50:12Z</time>
      </trkpt>
      <trkpt lat="48.84375" lon="-1.53278">
        <ele>52</ele>
        <time>2024-01-25T12:50:13Z</time>
      </trkpt>
      <trkpt lat="48.84378" lon="-1.53269">
        <ele>51.9</ele>
        <time>2024-01-25T12:50:14Z</time>
      </trkpt>
      <trkpt lat="48.84381" lon="-1.5326">
        <ele>51.8</ele>
        <time>2024-01-25T12:50:15Z</time>
      </trkpt>
      <trkpt lat="48.84384" lon="-1.5325">
        <ele>51.4</ele>
        <time>2024-01-25T12:50:16Z</time>
      </trkpt>
      <trkpt lat="48.84386" lon="-1.53241">
        <ele>51.1</ele>
        <time>2024-01-25T12:50:17Z</time>
      </trkpt>
      <trkpt lat="48.84387" lon="-1.53232">
        <ele>50.7</ele>
        <time>2024-01-25T12:50:18Z</time>
      </trkpt>
      <trkpt lat="48.84389" lon="-1.53222">
        <ele>50.3</ele>
        <time>2024-01-25T12:50:19Z</time>
      </trkpt>
      <trkpt lat="48.84391" lon="-1.53212">
        <ele>49.9</ele>
        <time>2024-01-25T12:50:20Z</time>
      </trkpt>
      <trkpt lat="48.84393" lon="-1.53201">
        <ele>49.5</ele>
        <time>2024-01-25T12:50:21Z</time>
      </trkpt>
      <trkpt lat="48.84395" lon="-1.5319">
        <ele>49.1</ele>
        <time>2024-01-25T12:50:22Z</time>
      </trkpt>
      <trkpt lat="48.84398" lon="-1.53179">
        <ele>48.4</ele>
        <time>2024-01-25T12:50:23Z</time>
      </trkpt>
      <trkpt lat="48.84401" lon="-1.53165">
        <ele>47.7</ele>
        <time>2024-01-25T12:50:24Z</time>
      </trkpt>
      <trkpt lat="48.84403" lon="-1.53152">
        <ele>46.9</ele>
        <time>2024-01-25T12:50:25Z</time>
      </trkpt>
      <trkpt lat="48.84406" lon="-1.53137">
        <ele>46</ele>
        <time>2024-01-25T12:50:26Z</time>
      </trkpt>
      <trkpt lat="48.84408" lon="-1.53123">
        <ele>45.2</ele>
        <time>2024-01-25T12:50:27Z</time>
      </trkpt>
      <trkpt lat="48.8441" lon="-1.53108">
        <ele>44.3</ele>
        <time>2024-01-25T12:50:28Z</time>
      </trkpt>
      <trkpt lat="48.84413" lon="-1.53095">
        <ele>43.6</ele>
        <time>2024-01-25T12:50:29Z</time>
      </trkpt>
      <trkpt lat="48.84415" lon="-1.53082">
        <ele>43</ele>
        <time>2024-01-25T12:50:30Z</time>
      </trkpt>
      <trkpt lat="48.84418" lon="-1.53069">
        <ele>42.5</ele>
        <time>2024-01-25T12:50:31Z</time>
      </trkpt>
      <trkpt lat="48.8442" lon="-1.53057">
        <ele>42</ele>
        <time>2024-01-25T12:50:32Z</time>
      </trkpt>
      <trkpt lat="48.8442" lon="-1.53044">
        <ele>41.7</ele>
        <time>2024-01-25T12:50:33Z</time>
      </trkpt>
      <trkpt lat="48.84419" lon="-1.53032">
        <ele>41.3</ele>
        <time>2024-01-25T12:50:34Z</time>
      </trkpt>
      <trkpt lat="48.84417" lon="-1.53019">
        <ele>41</ele>
        <time>2024-01-25T12:50:35Z</time>
      </trkpt>
      <trkpt lat="48.84416" lon="-1.53007">
        <ele>40.7</ele>
        <time>2024-01-25T12:50:36Z</time>
      </trkpt>
      <trkpt lat="48.84415" lon="-1.52994">
        <ele>40.5</ele>
        <time>2024-01-25T12:50:37Z</time>
      </trkpt>
      <trkpt lat="48.84413" lon="-1.52982">
        <ele>40.2</ele>
        <time>2024-01-25T12:50:38Z</time>
      </trkpt>
      <trkpt lat="48.84411" lon="-1.5297">
        <ele>39.9</ele>
        <time>2024-01-25T12:50:39Z</time>
      </trkpt>
      <trkpt lat="48.84408" lon="-1.52957">
        <ele>39.7</ele>
        <time>2024-01-25T12:50:40Z</time>
      </trkpt>
      <trkpt lat="48.84406" lon="-1.52945">
        <ele>39.5</ele>
        <time>2024-01-25T12:50:41Z</time>
      </trkpt>
      <trkpt lat="48.84405" lon="-1.52933">
        <ele>39.3</ele>
        <time>2024-01-25T12:50:42Z</time>
      </trkpt>
      <trkpt lat="48.84402" lon="-1.52921">
        <ele>39.1</ele>
        <time>2024-01-25T12:50:43Z</time>
      </trkpt>
      <trkpt lat="48.844" lon="-1.52909">
        <ele>39</ele>
        <time>2024-01-25T12:50:44Z</time>
      </trkpt>
      <trkpt lat="48.84399" lon="-1.52896">
        <ele>39.1</ele>
        <time>2024-01-25T12:50:45Z</time>
      </trkpt>
      <trkpt lat="48.84398" lon="-1.52885">
        <ele>39.2</ele>
        <time>2024-01-25T12:50:46Z</time>
      </trkpt>
      <trkpt lat="48.84396" lon="-1.52873">
        <ele>39.4</ele>
        <time>2024-01-25T12:50:47Z</time>
      </trkpt>
      <trkpt lat="48.84394" lon="-1.52863">
        <ele>39.6</ele>
        <time>2024-01-25T12:50:48Z</time>
      </trkpt>
      <trkpt lat="48.84391" lon="-1.52855">
        <ele>39.9</ele>
        <time>2024-01-25T12:50:49Z</time>
      </trkpt>
      <trkpt lat="48.84387" lon="-1.52848">
        <ele>40.2</ele>
        <time>2024-01-25T12:50:50Z</time>
      </trkpt>
      <trkpt lat="48.84382" lon="-1.52843">
        <ele>40.5</ele>
        <time>2024-01-25T12:50:51Z</time>
      </trkpt>
      <trkpt lat="48.84377" lon="-1.5284">
        <ele>40.7</ele>
        <time>2024-01-25T12:50:52Z</time>
      </trkpt>
      <trkpt lat="48.84373" lon="-1.52838">
        <ele>41</ele>
        <time>2024-01-25T12:50:53Z</time>
      </trkpt>
      <trkpt lat="48.84367" lon="-1.52835">
        <ele>41.2</ele>
        <time>2024-01-25T12:50:54Z</time>
      </trkpt>
      <trkpt lat="48.84362" lon="-1.52833">
        <ele>41.5</ele>
        <time>2024-01-25T12:50:55Z</time>
      </trkpt>
      <trkpt lat="48.84357" lon="-1.52831">
        <ele>41.7</ele>
        <time>2024-01-25T12:50:56Z</time>
      </trkpt>
      <trkpt lat="48.84352" lon="-1.52829">
        <ele>41.9</ele>
        <time>2024-01-25T12:50:57Z</time>
      </trkpt>
      <trkpt lat="48.84347" lon="-1.52828">
        <ele>42</ele>
        <time>2024-01-25T12:50:58Z</time>
      </trkpt>
      <trkpt lat="48.84342" lon="-1.52826">
        <ele>42.2</ele>
        <time>2024-01-25T12:50:59Z</time>
      </trkpt>
      <trkpt lat="48.84339" lon="-1.52825">
        <ele>42.3</ele>
        <time>2024-01-25T12:51:00Z</time>
      </trkpt>
      <trkpt lat="48.84334" lon="-1.52823">
        <ele>42.4</ele>
        <time>2024-01-25T12:51:01Z</time>
      </trkpt>
      <trkpt lat="48.84329" lon="-1.5282">
        <ele>42.5</ele>
        <time>2024-01-25T12:51:03Z</time>
      </trkpt>
      <trkpt lat="48.84325" lon="-1.52818">
        <ele>42.6</ele>
        <time>2024-01-25T12:51:04Z</time>
      </trkpt>
      <trkpt lat="48.8432" lon="-1.52811">
        <ele>42.7</ele>
        <time>2024-01-25T12:51:05Z</time>
      </trkpt>
      <trkpt lat="48.84317" lon="-1.52803">
        <ele>42.8</ele>
        <time>2024-01-25T12:51:06Z</time>
      </trkpt>
      <trkpt lat="48.84316" lon="-1.52797">
        <ele>42.9</ele>
        <time>2024-01-25T12:51:07Z</time>
      </trkpt>
      <trkpt lat="48.84318" lon="-1.52784">
        <ele>43.1</ele>
        <time>2024-01-25T12:51:09Z</time>
      </trkpt>
      <trkpt lat="48.84318" lon="-1.52777">
        <ele>43.3</ele>
        <time>2024-01-25T12:51:10Z</time>
      </trkpt>
      <trkpt lat="48.84319" lon="-1.5277">
        <ele>43.5</ele>
        <time>2024-01-25T12:51:11Z</time>
      </trkpt>
      <trkpt lat="48.8432" lon="-1.52764">
        <ele>43.8</ele>
        <time>2024-01-25T12:51:13Z</time>
      </trkpt>
      <trkpt lat="48.84322" lon="-1.52758">
        <ele>44</ele>
        <time>2024-01-25T12:51:14Z</time>
      </trkpt>
      <trkpt lat="48.84322" lon="-1.52752">
        <ele>44.3</ele>
        <time>2024-01-25T12:51:15Z</time>
      </trkpt>
      <trkpt lat="48.84323" lon="-1.52747">
        <ele>44.5</ele>
        <time>2024-01-25T12:51:16Z</time>
      </trkpt>
      <trkpt lat="48.84323" lon="-1.52742">
        <ele>44.8</ele>
        <time>2024-01-25T12:51:17Z</time>
      </trkpt>
      <trkpt lat="48.84324" lon="-1.52737">
        <ele>45</ele>
        <time>2024-01-25T12:51:18Z</time>
      </trkpt>
      <trkpt lat="48.84325" lon="-1.52733">
        <ele>45.3</ele>
        <time>2024-01-25T12:51:19Z</time>
      </trkpt>
      <trkpt lat="48.84327" lon="-1.52725">
        <ele>45.7</ele>
        <time>2024-01-25T12:51:20Z</time>
      </trkpt>
      <trkpt lat="48.84327" lon="-1.52719">
        <ele>46</ele>
        <time>2024-01-25T12:51:22Z</time>
      </trkpt>
      <trkpt lat="48.84327" lon="-1.52714">
        <ele>46.3</ele>
        <time>2024-01-25T12:51:23Z</time>
      </trkpt>
      <trkpt lat="48.84327" lon="-1.52707">
        <ele>46.6</ele>
        <time>2024-01-25T12:51:24Z</time>
      </trkpt>
      <trkpt lat="48.84327" lon="-1.527">
        <ele>46.9</ele>
        <time>2024-01-25T12:51:25Z</time>
      </trkpt>
      <trkpt lat="48.84327" lon="-1.52695">
        <ele>47.2</ele>
        <time>2024-01-25T12:51:26Z</time>
      </trkpt>
      <trkpt lat="48.84328" lon="-1.5269">
        <ele>47.4</ele>
        <time>2024-01-25T12:51:27Z</time>
      </trkpt>
      <trkpt lat="48.84328" lon="-1.52685">
        <ele>47.7</ele>
        <time>2024-01-25T12:51:28Z</time>
      </trkpt>
      <trkpt lat="48.84329" lon="-1.5268">
        <ele>47.9</ele>
        <time>2024-01-25T12:51:29Z</time>
      </trkpt>
      <trkpt lat="48.8433" lon="-1.52676">
        <ele>48.1</ele>
        <time>2024-01-25T12:51:30Z</time>
      </trkpt>
      <trkpt lat="48.84331" lon="-1.52671">
        <ele>48.4</ele>
        <time>2024-01-25T12:51:31Z</time>
      </trkpt>
      <trkpt lat="48.84332" lon="-1.52664">
        <ele>48.7</ele>
        <time>2024-01-25T12:51:32Z</time>
      </trkpt>
      <trkpt lat="48.84332" lon="-1.52661">
        <ele>48.8</ele>
        <time>2024-01-25T12:51:33Z</time>
      </trkpt>
      <trkpt lat="48.84333" lon="-1.52655">
        <ele>49.1</ele>
        <time>2024-01-25T12:51:34Z</time>
      </trkpt>
      <trkpt lat="48.84333" lon="-1.52652">
        <ele>49.2</ele>
        <time>2024-01-25T12:51:35Z</time>
      </trkpt>
      <trkpt lat="48.84334" lon="-1.52648">
        <ele>49.4</ele>
        <time>2024-01-25T12:51:36Z</time>
      </trkpt>
      <trkpt lat="48.84334" lon="-1.52643">
        <ele>49.6</ele>
        <time>2024-01-25T12:51:37Z</time>
      </trkpt>
      <trkpt lat="48.84334" lon="-1.52636">
        <ele>49.9</ele>
        <time>2024-01-25T12:51:38Z</time>
      </trkpt>
      <trkpt lat="48.84334" lon="-1.52633">
        <ele>50</ele>
        <time>2024-01-25T12:51:39Z</time>
      </trkpt>
      <trkpt lat="48.84334" lon="-1.52629">
        <ele>50.2</ele>
        <time>2024-01-25T12:51:40Z</time>
      </trkpt>
      <trkpt lat="48.84334" lon="-1.52625">
        <ele>50.3</ele>
        <time>2024-01-25T12:51:41Z</time>
      </trkpt>
      <trkpt lat="48.84334" lon="-1.52619">
        <ele>50.5</ele>
        <time>2024-01-25T12:51:42Z</time>
      </trkpt>
      <trkpt lat="48.84334" lon="-1.52616">
        <ele>50.6</ele>
        <time>2024-01-25T12:51:43Z</time>
      </trkpt>
      <trkpt lat="48.84333" lon="-1.52611">
        <ele>50.8</ele>
        <time>2024-01-25T12:51:44Z</time>
      </trkpt>
      <trkpt lat="48.84332" lon="-1.52605">
        <ele>51</ele>
        <time>2024-01-25T12:51:45Z</time>
      </trkpt>
      <trkpt lat="48.84331" lon="-1.526">
        <ele>51.2</ele>
        <time>2024-01-25T12:51:46Z</time>
      </trkpt>
      <trkpt lat="48.84331" lon="-1.52594">
        <ele>51.4</ele>
        <time>2024-01-25T12:51:47Z</time>
      </trkpt>
      <trkpt lat="48.84329" lon="-1.52589">
        <ele>51.6</ele>
        <time>2024-01-25T12:51:48Z</time>
      </trkpt>
      <trkpt lat="48.84329" lon="-1.52584">
        <ele>51.7</ele>
        <time>2024-01-25T12:51:49Z</time>
      </trkpt>
      <trkpt lat="48.84328" lon="-1.52579">
        <ele>51.9</ele>
        <time>2024-01-25T12:51:50Z</time>
      </trkpt>
      <trkpt lat="48.84328" lon="-1.52573">
        <ele>52.1</ele>
        <time>2024-01-25T12:51:51Z</time>
      </trkpt>
      <trkpt lat="48.84327" lon="-1.52569">
        <ele>52.3</ele>
        <time>2024-01-25T12:51:52Z</time>
      </trkpt>
      <trkpt lat="48.84326" lon="-1.52563">
        <ele>52.5</ele>
        <time>2024-01-25T12:51:53Z</time>
      </trkpt>
      <trkpt lat="48.84326" lon="-1.52559">
        <ele>52.6</ele>
        <time>2024-01-25T12:51:54Z</time>
      </trkpt>
      <trkpt lat="48.84326" lon="-1.52554">
        <ele>52.8</ele>
        <time>2024-01-25T12:51:55Z</time>
      </trkpt>
      <trkpt lat="48.84325" lon="-1.5255">
        <ele>52.9</ele>
        <time>2024-01-25T12:51:56Z</time>
      </trkpt>
      <trkpt lat="48.84324" lon="-1.52546">
        <ele>53.1</ele>
        <time>2024-01-25T12:51:57Z</time>
      </trkpt>
      <trkpt lat="48.84323" lon="-1.52541">
        <ele>53.2</ele>
        <time>2024-01-25T12:51:58Z</time>
      </trkpt>
      <trkpt lat="48.84322" lon="-1.52535">
        <ele>53.4</ele>
        <time>2024-01-25T12:51:59Z</time>
      </trkpt>
      <trkpt lat="48.84322" lon="-1.52532">
        <ele>53.5</ele>
        <time>2024-01-25T12:52:00Z</time>
      </trkpt>
      <trkpt lat="48.84322" lon="-1.52528">
        <ele>53.6</ele>
        <time>2024-01-25T12:52:01Z</time>
      </trkpt>
      <trkpt lat="48.84321" lon="-1.52522">
        <ele>53.8</ele>
        <time>2024-01-25T12:52:02Z</time>
      </trkpt>
      <trkpt lat="48.84321" lon="-1.5252">
        <ele>53.9</ele>
        <time>2024-01-25T12:52:03Z</time>
      </trkpt>
      <trkpt lat="48.8432" lon="-1.52515">
        <ele>54</ele>
        <time>2024-01-25T12:52:04Z</time>
      </trkpt>
      <trkpt lat="48.8432" lon="-1.5251">
        <ele>54.1</ele>
        <time>2024-01-25T12:52:05Z</time>
      </trkpt>
      <trkpt lat="48.84319" lon="-1.52505">
        <ele>54.3</ele>
        <time>2024-01-25T12:52:06Z</time>
      </trkpt>
      <trkpt lat="48.84318" lon="-1.52501">
        <ele>54.4</ele>
        <time>2024-01-25T12:52:07Z</time>
      </trkpt>
      <trkpt lat="48.84317" lon="-1.52497">
        <ele>54.5</ele>
        <time>2024-01-25T12:52:08Z</time>
      </trkpt>
      <trkpt lat="48.84316" lon="-1.52492">
        <ele>54.6</ele>
        <time>2024-01-25T12:52:09Z</time>
      </trkpt>
      <trkpt lat="48.84315" lon="-1.52488">
        <ele>54.8</ele>
        <time>2024-01-25T12:52:10Z</time>
      </trkpt>
      <trkpt lat="48.84314" lon="-1.52483">
        <ele>54.9</ele>
        <time>2024-01-25T12:52:11Z</time>
      </trkpt>
      <trkpt lat="48.84313" lon="-1.52479">
        <ele>55</ele>
        <time>2024-01-25T12:52:12Z</time>
      </trkpt>
      <trkpt lat="48.84313" lon="-1.52475">
        <ele>55.1</ele>
        <time>2024-01-25T12:52:13Z</time>
      </trkpt>
      <trkpt lat="48.84311" lon="-1.52469">
        <ele>55.2</ele>
        <time>2024-01-25T12:52:14Z</time>
      </trkpt>
      <trkpt lat="48.84311" lon="-1.52467">
        <ele>55.3</ele>
        <time>2024-01-25T12:52:15Z</time>
      </trkpt>
      <trkpt lat="48.8431" lon="-1.52462">
        <ele>55.4</ele>
        <time>2024-01-25T12:52:16Z</time>
      </trkpt>
      <trkpt lat="48.84309" lon="-1.52458">
        <ele>55.5</ele>
        <time>2024-01-25T12:52:17Z</time>
      </trkpt>
      <trkpt lat="48.84307" lon="-1.52455">
        <ele>55.6</ele>
        <time>2024-01-25T12:52:18Z</time>
      </trkpt>
      <trkpt lat="48.84306" lon="-1.5245">
        <ele>55.7</ele>
        <time>2024-01-25T12:52:19Z</time>
      </trkpt>
      <trkpt lat="48.84306" lon="-1.52446">
        <ele>55.9</ele>
        <time>2024-01-25T12:52:20Z</time>
      </trkpt>
      <trkpt lat="48.84305" lon="-1.52442">
        <ele>56</ele>
        <time>2024-01-25T12:52:21Z</time>
      </trkpt>
      <trkpt lat="48.84305" lon="-1.52437">
        <ele>56.1</ele>
        <time>2024-01-25T12:52:22Z</time>
      </trkpt>
      <trkpt lat="48.84304" lon="-1.52431">
        <ele>56.2</ele>
        <time>2024-01-25T12:52:23Z</time>
      </trkpt>
      <trkpt lat="48.84304" lon="-1.52426">
        <ele>56.3</ele>
        <time>2024-01-25T12:52:24Z</time>
      </trkpt>
      <trkpt lat="48.84304" lon="-1.52421">
        <ele>56.5</ele>
        <time>2024-01-25T12:52:25Z</time>
      </trkpt>
      <trkpt lat="48.84304" lon="-1.52417">
        <ele>56.6</ele>
        <time>2024-01-25T12:52:26Z</time>
      </trkpt>
      <trkpt lat="48.84304" lon="-1.52412">
        <ele>56.6</ele>
        <time>2024-01-25T12:52:27Z</time>
      </trkpt>
      <trkpt lat="48.84304" lon="-1.52407">
        <ele>56.7</ele>
        <time>2024-01-25T12:52:28Z</time>
      </trkpt>
      <trkpt lat="48.84303" lon="-1.52402">
        <ele>56.8</ele>
        <time>2024-01-25T12:52:29Z</time>
      </trkpt>
      <trkpt lat="48.84303" lon="-1.52397">
        <ele>56.9</ele>
        <time>2024-01-25T12:52:30Z</time>
      </trkpt>
      <trkpt lat="48.84302" lon="-1.52392">
        <ele>57</ele>
        <time>2024-01-25T12:52:31Z</time>
      </trkpt>
      <trkpt lat="48.84302" lon="-1.52387">
        <ele>57</ele>
        <time>2024-01-25T12:52:32Z</time>
      </trkpt>
      <trkpt lat="48.84302" lon="-1.52383">
        <ele>57.1</ele>
        <time>2024-01-25T12:52:33Z</time>
      </trkpt>
      <trkpt lat="48.84301" lon="-1.52377">
        <ele>57.2</ele>
        <time>2024-01-25T12:52:34Z</time>
      </trkpt>
      <trkpt lat="48.84301" lon="-1.52372">
        <ele>57.2</ele>
        <time>2024-01-25T12:52:35Z</time>
      </trkpt>
      <trkpt lat="48.84301" lon="-1.52367">
        <ele>57.3</ele>
        <time>2024-01-25T12:52:36Z</time>
      </trkpt>
      <trkpt lat="48.84301" lon="-1.52362">
        <ele>57.4</ele>
        <time>2024-01-25T12:52:37Z</time>
      </trkpt>
      <trkpt lat="48.843" lon="-1.52357">
        <ele>57.4</ele>
        <time>2024-01-25T12:52:38Z</time>
      </trkpt>
      <trkpt lat="48.843" lon="-1.52352">
        <ele>57.5</ele>
        <time>2024-01-25T12:52:39Z</time>
      </trkpt>
      <trkpt lat="48.84299" lon="-1.52348">
        <ele>57.6</ele>
        <time>2024-01-25T12:52:40Z</time>
      </trkpt>
      <trkpt lat="48.84299" lon="-1.52342">
        <ele>57.7</ele>
        <time>2024-01-25T12:52:41Z</time>
      </trkpt>
      <trkpt lat="48.84299" lon="-1.52337">
        <ele>57.7</ele>
        <time>2024-01-25T12:52:42Z</time>
      </trkpt>
      <trkpt lat="48.84299" lon="-1.52332">
        <ele>57.8</ele>
        <time>2024-01-25T12:52:43Z</time>
      </trkpt>
      <trkpt lat="48.84299" lon="-1.52326">
        <ele>57.9</ele>
        <time>2024-01-25T12:52:44Z</time>
      </trkpt>
      <trkpt lat="48.84299" lon="-1.52321">
        <ele>58</ele>
        <time>2024-01-25T12:52:45Z</time>
      </trkpt>
      <trkpt lat="48.84299" lon="-1.52316">
        <ele>58.1</ele>
        <time>2024-01-25T12:52:46Z</time>
      </trkpt>
      <trkpt lat="48.84299" lon="-1.52311">
        <ele>58.2</ele>
        <time>2024-01-25T12:52:47Z</time>
      </trkpt>
      <trkpt lat="48.843" lon="-1.52306">
        <ele>58.2</ele>
        <time>2024-01-25T12:52:48Z</time>
      </trkpt>
      <trkpt lat="48.843" lon="-1.52301">
        <ele>58.3</ele>
        <time>2024-01-25T12:52:49Z</time>
      </trkpt>
      <trkpt lat="48.843" lon="-1.52297">
        <ele>58.4</ele>
        <time>2024-01-25T12:52:50Z</time>
      </trkpt>
      <trkpt lat="48.843" lon="-1.52291">
        <ele>58.5</ele>
        <time>2024-01-25T12:52:51Z</time>
      </trkpt>
      <trkpt lat="48.84301" lon="-1.52286">
        <ele>58.6</ele>
        <time>2024-01-25T12:52:52Z</time>
      </trkpt>
      <trkpt lat="48.84301" lon="-1.52279">
        <ele>58.7</ele>
        <time>2024-01-25T12:52:53Z</time>
      </trkpt>
      <trkpt lat="48.84301" lon="-1.52277">
        <ele>58.7</ele>
        <time>2024-01-25T12:52:54Z</time>
      </trkpt>
      <trkpt lat="48.843" lon="-1.52271">
        <ele>58.8</ele>
        <time>2024-01-25T12:52:55Z</time>
      </trkpt>
      <trkpt lat="48.843" lon="-1.52264">
        <ele>58.9</ele>
        <time>2024-01-25T12:52:57Z</time>
      </trkpt>
      <trkpt lat="48.843" lon="-1.52256">
        <ele>58.9</ele>
        <time>2024-01-25T12:52:58Z</time>
      </trkpt>
      <trkpt lat="48.84301" lon="-1.5225">
        <ele>59</ele>
        <time>2024-01-25T12:52:59Z</time>
      </trkpt>
      <trkpt lat="48.84301" lon="-1.52245">
        <ele>59.1</ele>
        <time>2024-01-25T12:53:00Z</time>
      </trkpt>
      <trkpt lat="48.84302" lon="-1.52238">
        <ele>59.1</ele>
        <time>2024-01-25T12:53:01Z</time>
      </trkpt>
      <trkpt lat="48.84303" lon="-1.52232">
        <ele>59.2</ele>
        <time>2024-01-25T12:53:02Z</time>
      </trkpt>
      <trkpt lat="48.84302" lon="-1.52228">
        <ele>59.2</ele>
        <time>2024-01-25T12:53:03Z</time>
      </trkpt>
      <trkpt lat="48.84301" lon="-1.52221">
        <ele>59.3</ele>
        <time>2024-01-25T12:53:04Z</time>
      </trkpt>
      <trkpt lat="48.843" lon="-1.52215">
        <ele>59.4</ele>
        <time>2024-01-25T12:53:05Z</time>
      </trkpt>
      <trkpt lat="48.843" lon="-1.5221">
        <ele>59.5</ele>
        <time>2024-01-25T12:53:06Z</time>
      </trkpt>
      <trkpt lat="48.84299" lon="-1.52204">
        <ele>59.5</ele>
        <time>2024-01-25T12:53:07Z</time>
      </trkpt>
      <trkpt lat="48.84299" lon="-1.52199">
        <ele>59.6</ele>
        <time>2024-01-25T12:53:08Z</time>
      </trkpt>
      <trkpt lat="48.84299" lon="-1.52193">
        <ele>59.7</ele>
        <time>2024-01-25T12:53:09Z</time>
      </trkpt>
      <trkpt lat="48.84298" lon="-1.52187">
        <ele>59.8</ele>
        <time>2024-01-25T12:53:10Z</time>
      </trkpt>
      <trkpt lat="48.84299" lon="-1.52183">
        <ele>59.9</ele>
        <time>2024-01-25T12:53:11Z</time>
      </trkpt>
      <trkpt lat="48.843" lon="-1.52177">
        <ele>60</ele>
        <time>2024-01-25T12:53:12Z</time>
      </trkpt>
      <trkpt lat="48.843" lon="-1.52172">
        <ele>60.1</ele>
        <time>2024-01-25T12:53:13Z</time>
      </trkpt>
      <trkpt lat="48.84299" lon="-1.52166">
        <ele>60.2</ele>
        <time>2024-01-25T12:53:14Z</time>
      </trkpt>
      <trkpt lat="48.843" lon="-1.5216">
        <ele>60.3</ele>
        <time>2024-01-25T12:53:15Z</time>
      </trkpt>
      <trkpt lat="48.843" lon="-1.52155">
        <ele>60.4</ele>
        <time>2024-01-25T12:53:16Z</time>
      </trkpt>
      <trkpt lat="48.843" lon="-1.5215">
        <ele>60.5</ele>
        <time>2024-01-25T12:53:17Z</time>
      </trkpt>
      <trkpt lat="48.843" lon="-1.52144">
        <ele>60.7</ele>
        <time>2024-01-25T12:53:18Z</time>
      </trkpt>
      <trkpt lat="48.843" lon="-1.52139">
        <ele>60.8</ele>
        <time>2024-01-25T12:53:19Z</time>
      </trkpt>
      <trkpt lat="48.843" lon="-1.52134">
        <ele>60.9</ele>
        <time>2024-01-25T12:53:20Z</time>
      </trkpt>
      <trkpt lat="48.843" lon="-1.52129">
        <ele>61</ele>
        <time>2024-01-25T12:53:21Z</time>
      </trkpt>
      <trkpt lat="48.84299" lon="-1.52124">
        <ele>61.1</ele>
        <time>2024-01-25T12:53:22Z</time>
      </trkpt>
      <trkpt lat="48.84299" lon="-1.52119">
        <ele>61.2</ele>
        <time>2024-01-25T12:53:23Z</time>
      </trkpt>
      <trkpt lat="48.843" lon="-1.52114">
        <ele>61.3</ele>
        <time>2024-01-25T12:53:24Z</time>
      </trkpt>
      <trkpt lat="48.843" lon="-1.5211">
        <ele>61.3</ele>
        <time>2024-01-25T12:53:25Z</time>
      </trkpt>
      <trkpt lat="48.843" lon="-1.52105">
        <ele>61.4</ele>
        <time>2024-01-25T12:53:26Z</time>
      </trkpt>
      <trkpt lat="48.843" lon="-1.521">
        <ele>61.5</ele>
        <time>2024-01-25T12:53:27Z</time>
      </trkpt>
      <trkpt lat="48.843" lon="-1.52095">
        <ele>61.6</ele>
        <time>2024-01-25T12:53:28Z</time>
      </trkpt>
      <trkpt lat="48.84301" lon="-1.52089">
        <ele>61.7</ele>
        <time>2024-01-25T12:53:29Z</time>
      </trkpt>
      <trkpt lat="48.84301" lon="-1.52084">
        <ele>61.7</ele>
        <time>2024-01-25T12:53:30Z</time>
      </trkpt>
      <trkpt lat="48.84302" lon="-1.52079">
        <ele>61.8</ele>
        <time>2024-01-25T12:53:31Z</time>
      </trkpt>
      <trkpt lat="48.84303" lon="-1.52074">
        <ele>61.9</ele>
        <time>2024-01-25T12:53:32Z</time>
      </trkpt>
      <trkpt lat="48.84304" lon="-1.52069">
        <ele>61.9</ele>
        <time>2024-01-25T12:53:33Z</time>
      </trkpt>
      <trkpt lat="48.84306" lon="-1.52066">
        <ele>61.9</ele>
        <time>2024-01-25T12:53:34Z</time>
      </trkpt>
      <trkpt lat="48.84308" lon="-1.52062">
        <ele>61.9</ele>
        <time>2024-01-25T12:53:35Z</time>
      </trkpt>
      <trkpt lat="48.84311" lon="-1.52058">
        <ele>61.9</ele>
        <time>2024-01-25T12:53:36Z</time>
      </trkpt>
      <trkpt lat="48.84315" lon="-1.52055">
        <ele>61.8</ele>
        <time>2024-01-25T12:53:37Z</time>
      </trkpt>
      <trkpt lat="48.84317" lon="-1.52051">
        <ele>61.8</ele>
        <time>2024-01-25T12:53:38Z</time>
      </trkpt>
      <trkpt lat="48.84321" lon="-1.52048">
        <ele>61.7</ele>
        <time>2024-01-25T12:53:39Z</time>
      </trkpt>
      <trkpt lat="48.84325" lon="-1.52045">
        <ele>61.7</ele>
        <time>2024-01-25T12:53:40Z</time>
      </trkpt>
      <trkpt lat="48.84329" lon="-1.52041">
        <ele>61.6</ele>
        <time>2024-01-25T12:53:41Z</time>
      </trkpt>
      <trkpt lat="48.84332" lon="-1.52039">
        <ele>61.5</ele>
        <time>2024-01-25T12:53:42Z</time>
      </trkpt>
      <trkpt lat="48.84336" lon="-1.52036">
        <ele>61.4</ele>
        <time>2024-01-25T12:53:43Z</time>
      </trkpt>
      <trkpt lat="48.8434" lon="-1.52032">
        <ele>61.3</ele>
        <time>2024-01-25T12:53:44Z</time>
      </trkpt>
      <trkpt lat="48.84344" lon="-1.52029">
        <ele>61.2</ele>
        <time>2024-01-25T12:53:45Z</time>
      </trkpt>
      <trkpt lat="48.84348" lon="-1.52026">
        <ele>61.1</ele>
        <time>2024-01-25T12:53:46Z</time>
      </trkpt>
      <trkpt lat="48.84352" lon="-1.52022">
        <ele>60.9</ele>
        <time>2024-01-25T12:53:47Z</time>
      </trkpt>
      <trkpt lat="48.84357" lon="-1.52019">
        <ele>60.8</ele>
        <time>2024-01-25T12:53:48Z</time>
      </trkpt>
      <trkpt lat="48.84361" lon="-1.52015">
        <ele>60.6</ele>
        <time>2024-01-25T12:53:49Z</time>
      </trkpt>
      <trkpt lat="48.84366" lon="-1.52012">
        <ele>60.5</ele>
        <time>2024-01-25T12:53:50Z</time>
      </trkpt>
      <trkpt lat="48.8437" lon="-1.52009">
        <ele>60.3</ele>
        <time>2024-01-25T12:53:51Z</time>
      </trkpt>
      <trkpt lat="48.84375" lon="-1.52005">
        <ele>60.2</ele>
        <time>2024-01-25T12:53:52Z</time>
      </trkpt>
      <trkpt lat="48.84379" lon="-1.52001">
        <ele>60</ele>
        <time>2024-01-25T12:53:53Z</time>
      </trkpt>
      <trkpt lat="48.84384" lon="-1.51997">
        <ele>59.8</ele>
        <time>2024-01-25T12:53:54Z</time>
      </trkpt>
      <trkpt lat="48.8439" lon="-1.51993">
        <ele>59.5</ele>
        <time>2024-01-25T12:53:55Z</time>
      </trkpt>
      <trkpt lat="48.84395" lon="-1.51989">
        <ele>59.3</ele>
        <time>2024-01-25T12:53:56Z</time>
      </trkpt>
      <trkpt lat="48.844" lon="-1.51985">
        <ele>59</ele>
        <time>2024-01-25T12:53:57Z</time>
      </trkpt>
      <trkpt lat="48.84405" lon="-1.51981">
        <ele>58.7</ele>
        <time>2024-01-25T12:53:58Z</time>
      </trkpt>
      <trkpt lat="48.8441" lon="-1.51977">
        <ele>58.4</ele>
        <time>2024-01-25T12:53:59Z</time>
      </trkpt>
      <trkpt lat="48.84416" lon="-1.51973">
        <ele>58.2</ele>
        <time>2024-01-25T12:54:00Z</time>
      </trkpt>
      <trkpt lat="48.84421" lon="-1.51969">
        <ele>57.9</ele>
        <time>2024-01-25T12:54:01Z</time>
      </trkpt>
      <trkpt lat="48.84426" lon="-1.51965">
        <ele>57.6</ele>
        <time>2024-01-25T12:54:02Z</time>
      </trkpt>
      <trkpt lat="48.84431" lon="-1.51961">
        <ele>57.3</ele>
        <time>2024-01-25T12:54:03Z</time>
      </trkpt>
      <trkpt lat="48.84436" lon="-1.51957">
        <ele>57</ele>
        <time>2024-01-25T12:54:04Z</time>
      </trkpt>
      <trkpt lat="48.84442" lon="-1.51953">
        <ele>56.7</ele>
        <time>2024-01-25T12:54:05Z</time>
      </trkpt>
      <trkpt lat="48.84447" lon="-1.51949">
        <ele>56.4</ele>
        <time>2024-01-25T12:54:06Z</time>
      </trkpt>
      <trkpt lat="48.84452" lon="-1.51945">
        <ele>56.2</ele>
        <time>2024-01-25T12:54:07Z</time>
      </trkpt>
      <trkpt lat="48.84456" lon="-1.51941">
        <ele>56</ele>
        <time>2024-01-25T12:54:08Z</time>
      </trkpt>
      <trkpt lat="48.8446" lon="-1.51935">
        <ele>55.9</ele>
        <time>2024-01-25T12:54:09Z</time>
      </trkpt>
      <trkpt lat="48.84463" lon="-1.51928">
        <ele>55.7</ele>
        <time>2024-01-25T12:54:10Z</time>
      </trkpt>
      <trkpt lat="48.84465" lon="-1.5192">
        <ele>55.6</ele>
        <time>2024-01-25T12:54:11Z</time>
      </trkpt>
      <trkpt lat="48.84465" lon="-1.51912">
        <ele>55.5</ele>
        <time>2024-01-25T12:54:12Z</time>
      </trkpt>
      <trkpt lat="48.84466" lon="-1.51903">
        <ele>55.4</ele>
        <time>2024-01-25T12:54:13Z</time>
      </trkpt>
      <trkpt lat="48.84466" lon="-1.51894">
        <ele>55.2</ele>
        <time>2024-01-25T12:54:14Z</time>
      </trkpt>
      <trkpt lat="48.84466" lon="-1.51885">
        <ele>55.1</ele>
        <time>2024-01-25T12:54:15Z</time>
      </trkpt>
      <trkpt lat="48.84466" lon="-1.51877">
        <ele>54.9</ele>
        <time>2024-01-25T12:54:16Z</time>
      </trkpt>
      <trkpt lat="48.84466" lon="-1.51869">
        <ele>54.7</ele>
        <time>2024-01-25T12:54:17Z</time>
      </trkpt>
      <trkpt lat="48.84466" lon="-1.51861">
        <ele>54.6</ele>
        <time>2024-01-25T12:54:18Z</time>
      </trkpt>
      <trkpt lat="48.84466" lon="-1.51854">
        <ele>54.4</ele>
        <time>2024-01-25T12:54:19Z</time>
      </trkpt>
      <trkpt lat="48.84465" lon="-1.51846">
        <ele>54.2</ele>
        <time>2024-01-25T12:54:20Z</time>
      </trkpt>
      <trkpt lat="48.84465" lon="-1.51838">
        <ele>54</ele>
        <time>2024-01-25T12:54:21Z</time>
      </trkpt>
      <trkpt lat="48.84463" lon="-1.51829">
        <ele>53.8</ele>
        <time>2024-01-25T12:54:22Z</time>
      </trkpt>
      <trkpt lat="48.84462" lon="-1.51821">
        <ele>53.6</ele>
        <time>2024-01-25T12:54:23Z</time>
      </trkpt>
      <trkpt lat="48.84461" lon="-1.51813">
        <ele>53.4</ele>
        <time>2024-01-25T12:54:24Z</time>
      </trkpt>
      <trkpt lat="48.84461" lon="-1.51805">
        <ele>53.2</ele>
        <time>2024-01-25T12:54:25Z</time>
      </trkpt>
      <trkpt lat="48.8446" lon="-1.51798">
        <ele>53</ele>
        <time>2024-01-25T12:54:26Z</time>
      </trkpt>
      <trkpt lat="48.8446" lon="-1.51792">
        <ele>52.9</ele>
        <time>2024-01-25T12:54:27Z</time>
      </trkpt>
      <trkpt lat="48.8446" lon="-1.51786">
        <ele>52.7</ele>
        <time>2024-01-25T12:54:28Z</time>
      </trkpt>
      <trkpt lat="48.84459" lon="-1.51781">
        <ele>52.6</ele>
        <time>2024-01-25T12:54:29Z</time>
      </trkpt>
      <trkpt lat="48.84459" lon="-1.51775">
        <ele>52.4</ele>
        <time>2024-01-25T12:54:30Z</time>
      </trkpt>
      <trkpt lat="48.84459" lon="-1.51773">
        <ele>52.4</ele>
        <time>2024-01-25T12:54:31Z</time>
      </trkpt>
      <trkpt lat="48.84459" lon="-1.51768">
        <ele>52.2</ele>
        <time>2024-01-25T12:54:32Z</time>
      </trkpt>
      <trkpt lat="48.84459" lon="-1.51766">
        <ele>52.1</ele>
        <time>2024-01-25T12:54:33Z</time>
      </trkpt>
      <trkpt lat="48.8446" lon="-1.51765">
        <ele>52.1</ele>
        <time>2024-01-25T12:54:35Z</time>
      </trkpt>
      <trkpt lat="48.84462" lon="-1.51764">
        <ele>52</ele>
        <time>2024-01-25T12:54:36Z</time>
      </trkpt>
      <trkpt lat="48.84465" lon="-1.51764">
        <ele>51.9</ele>
        <time>2024-01-25T12:54:37Z</time>
      </trkpt>
      <trkpt lat="48.84471" lon="-1.51767">
        <ele>51.8</ele>
        <time>2024-01-25T12:54:38Z</time>
      </trkpt>
      <trkpt lat="48.84474" lon="-1.51768">
        <ele>51.7</ele>
        <time>2024-01-25T12:54:39Z</time>
      </trkpt>
      <trkpt lat="48.84477" lon="-1.51768">
        <ele>51.6</ele>
        <time>2024-01-25T12:54:40Z</time>
      </trkpt>
      <trkpt lat="48.8448" lon="-1.51769">
        <ele>51.5</ele>
        <time>2024-01-25T12:54:41Z</time>
      </trkpt>
      <trkpt lat="48.84481" lon="-1.51769">
        <ele>51.5</ele>
        <time>2024-01-25T12:54:42Z</time>
      </trkpt>
      <trkpt lat="48.84486" lon="-1.51771">
        <ele>51.2</ele>
        <time>2024-01-25T12:54:43Z</time>
      </trkpt>
      <trkpt lat="48.84492" lon="-1.51777">
        <ele>50.7</ele>
        <time>2024-01-25T12:54:44Z</time>
      </trkpt>
      <trkpt lat="48.84498" lon="-1.5178">
        <ele>50.2</ele>
        <time>2024-01-25T12:54:45Z</time>
      </trkpt>
      <trkpt lat="48.84506" lon="-1.51784">
        <ele>49.7</ele>
        <time>2024-01-25T12:54:46Z</time>
      </trkpt>
      <trkpt lat="48.84514" lon="-1.51789">
        <ele>49.2</ele>
        <time>2024-01-25T12:54:47Z</time>
      </trkpt>
      <trkpt lat="48.84522" lon="-1.51792">
        <ele>48.7</ele>
        <time>2024-01-25T12:54:48Z</time>
      </trkpt>
      <trkpt lat="48.84529" lon="-1.51795">
        <ele>48.2</ele>
        <time>2024-01-25T12:54:49Z</time>
      </trkpt>
      <trkpt lat="48.84537" lon="-1.51799">
        <ele>47.7</ele>
        <time>2024-01-25T12:54:50Z</time>
      </trkpt>
      <trkpt lat="48.84545" lon="-1.51802">
        <ele>47.2</ele>
        <time>2024-01-25T12:54:51Z</time>
      </trkpt>
      <trkpt lat="48.84553" lon="-1.51804">
        <ele>46.6</ele>
        <time>2024-01-25T12:54:52Z</time>
      </trkpt>
      <trkpt lat="48.84561" lon="-1.51807">
        <ele>46.1</ele>
        <time>2024-01-25T12:54:53Z</time>
      </trkpt>
      <trkpt lat="48.8457" lon="-1.5181">
        <ele>45.5</ele>
        <time>2024-01-25T12:54:54Z</time>
      </trkpt>
      <trkpt lat="48.84579" lon="-1.51814">
        <ele>44.9</ele>
        <time>2024-01-25T12:54:55Z</time>
      </trkpt>
      <trkpt lat="48.84588" lon="-1.51816">
        <ele>44.3</ele>
        <time>2024-01-25T12:54:56Z</time>
      </trkpt>
      <trkpt lat="48.84597" lon="-1.51819">
        <ele>43.8</ele>
        <time>2024-01-25T12:54:57Z</time>
      </trkpt>
      <trkpt lat="48.84606" lon="-1.51822">
        <ele>43.2</ele>
        <time>2024-01-25T12:54:58Z</time>
      </trkpt>
      <trkpt lat="48.84615" lon="-1.51826">
        <ele>42.7</ele>
        <time>2024-01-25T12:54:59Z</time>
      </trkpt>
      <trkpt lat="48.84624" lon="-1.51828">
        <ele>42.3</ele>
        <time>2024-01-25T12:55:00Z</time>
      </trkpt>
      <trkpt lat="48.84632" lon="-1.51832">
        <ele>41.8</ele>
        <time>2024-01-25T12:55:01Z</time>
      </trkpt>
      <trkpt lat="48.84641" lon="-1.51835">
        <ele>41.4</ele>
        <time>2024-01-25T12:55:02Z</time>
      </trkpt>
      <trkpt lat="48.84649" lon="-1.51838">
        <ele>41</ele>
        <time>2024-01-25T12:55:03Z</time>
      </trkpt>
      <trkpt lat="48.84658" lon="-1.5184">
        <ele>40.5</ele>
        <time>2024-01-25T12:55:04Z</time>
      </trkpt>
      <trkpt lat="48.84667" lon="-1.51841">
        <ele>40.1</ele>
        <time>2024-01-25T12:55:05Z</time>
      </trkpt>
      <trkpt lat="48.84676" lon="-1.51841">
        <ele>39.8</ele>
        <time>2024-01-25T12:55:06Z</time>
      </trkpt>
      <trkpt lat="48.84685" lon="-1.51841">
        <ele>39.8</ele>
        <time>2024-01-25T12:55:07Z</time>
      </trkpt>
      <trkpt lat="48.84693" lon="-1.51842">
        <ele>39.5</ele>
        <time>2024-01-25T12:55:08Z</time>
      </trkpt>
      <trkpt lat="48.84702" lon="-1.51844">
        <ele>39.2</ele>
        <time>2024-01-25T12:55:09Z</time>
      </trkpt>
      <trkpt lat="48.84709" lon="-1.51846">
        <ele>38.9</ele>
        <time>2024-01-25T12:55:10Z</time>
      </trkpt>
      <trkpt lat="48.84717" lon="-1.51848">
        <ele>38.6</ele>
        <time>2024-01-25T12:55:11Z</time>
      </trkpt>
      <trkpt lat="48.84725" lon="-1.5185">
        <ele>38.3</ele>
        <time>2024-01-25T12:55:12Z</time>
      </trkpt>
      <trkpt lat="48.84733" lon="-1.51853">
        <ele>38</ele>
        <time>2024-01-25T12:55:13Z</time>
      </trkpt>
      <trkpt lat="48.8474" lon="-1.51856">
        <ele>37.8</ele>
        <time>2024-01-25T12:55:14Z</time>
      </trkpt>
      <trkpt lat="48.84748" lon="-1.51859">
        <ele>37.5</ele>
        <time>2024-01-25T12:55:15Z</time>
      </trkpt>
      <trkpt lat="48.84756" lon="-1.51861">
        <ele>37.2</ele>
        <time>2024-01-25T12:55:16Z</time>
      </trkpt>
      <trkpt lat="48.84765" lon="-1.51864">
        <ele>36.9</ele>
        <time>2024-01-25T12:55:17Z</time>
      </trkpt>
      <trkpt lat="48.84773" lon="-1.51867">
        <ele>36.7</ele>
        <time>2024-01-25T12:55:18Z</time>
      </trkpt>
      <trkpt lat="48.84781" lon="-1.51869">
        <ele>36.4</ele>
        <time>2024-01-25T12:55:19Z</time>
      </trkpt>
      <trkpt lat="48.84789" lon="-1.5187">
        <ele>36.1</ele>
        <time>2024-01-25T12:55:20Z</time>
      </trkpt>
      <trkpt lat="48.84798" lon="-1.51871">
        <ele>35.8</ele>
        <time>2024-01-25T12:55:21Z</time>
      </trkpt>
      <trkpt lat="48.84807" lon="-1.51873">
        <ele>35.4</ele>
        <time>2024-01-25T12:55:22Z</time>
      </trkpt>
      <trkpt lat="48.84816" lon="-1.51873">
        <ele>35</ele>
        <time>2024-01-25T12:55:23Z</time>
      </trkpt>
      <trkpt lat="48.84825" lon="-1.51874">
        <ele>34.6</ele>
        <time>2024-01-25T12:55:24Z</time>
      </trkpt>
      <trkpt lat="48.84835" lon="-1.51874">
        <ele>34.1</ele>
        <time>2024-01-25T12:55:25Z</time>
      </trkpt>
      <trkpt lat="48.84845" lon="-1.51874">
        <ele>33.7</ele>
        <time>2024-01-25T12:55:26Z</time>
      </trkpt>
      <trkpt lat="48.84854" lon="-1.51875">
        <ele>33.2</ele>
        <time>2024-01-25T12:55:27Z</time>
      </trkpt>
      <trkpt lat="48.84864" lon="-1.51876">
        <ele>32.9</ele>
        <time>2024-01-25T12:55:28Z</time>
      </trkpt>
      <trkpt lat="48.84874" lon="-1.51878">
        <ele>32.7</ele>
        <time>2024-01-25T12:55:29Z</time>
      </trkpt>
      <trkpt lat="48.84884" lon="-1.51879">
        <ele>32.3</ele>
        <time>2024-01-25T12:55:30Z</time>
      </trkpt>
      <trkpt lat="48.84894" lon="-1.51881">
        <ele>32</ele>
        <time>2024-01-25T12:55:31Z</time>
      </trkpt>
      <trkpt lat="48.84904" lon="-1.51884">
        <ele>31.6</ele>
        <time>2024-01-25T12:55:32Z</time>
      </trkpt>
      <trkpt lat="48.84913" lon="-1.51886">
        <ele>31.3</ele>
        <time>2024-01-25T12:55:33Z</time>
      </trkpt>
      <trkpt lat="48.84923" lon="-1.51888">
        <ele>31</ele>
        <time>2024-01-25T12:55:34Z</time>
      </trkpt>
      <trkpt lat="48.84933" lon="-1.51891">
        <ele>30.6</ele>
        <time>2024-01-25T12:55:35Z</time>
      </trkpt>
      <trkpt lat="48.84942" lon="-1.51894">
        <ele>30.3</ele>
        <time>2024-01-25T12:55:36Z</time>
      </trkpt>
      <trkpt lat="48.84952" lon="-1.51896">
        <ele>30</ele>
        <time>2024-01-25T12:55:37Z</time>
      </trkpt>
      <trkpt lat="48.84961" lon="-1.51899">
        <ele>29.7</ele>
        <time>2024-01-25T12:55:38Z</time>
      </trkpt>
      <trkpt lat="48.8497" lon="-1.51902">
        <ele>29.5</ele>
        <time>2024-01-25T12:55:39Z</time>
      </trkpt>
      <trkpt lat="48.8498" lon="-1.51904">
        <ele>29.3</ele>
        <time>2024-01-25T12:55:40Z</time>
      </trkpt>
      <trkpt lat="48.84989" lon="-1.51906">
        <ele>29.2</ele>
        <time>2024-01-25T12:55:41Z</time>
      </trkpt>
      <trkpt lat="48.84998" lon="-1.51905">
        <ele>29</ele>
        <time>2024-01-25T12:55:42Z</time>
      </trkpt>
      <trkpt lat="48.85007" lon="-1.51904">
        <ele>29</ele>
        <time>2024-01-25T12:55:43Z</time>
      </trkpt>
      <trkpt lat="48.85017" lon="-1.51903">
        <ele>28.9</ele>
        <time>2024-01-25T12:55:44Z</time>
      </trkpt>
      <trkpt lat="48.85025" lon="-1.51901">
        <ele>28.9</ele>
        <time>2024-01-25T12:55:45Z</time>
      </trkpt>
      <trkpt lat="48.85034" lon="-1.51899">
        <ele>28.9</ele>
        <time>2024-01-25T12:55:46Z</time>
      </trkpt>
      <trkpt lat="48.85042" lon="-1.51898">
        <ele>28.9</ele>
        <time>2024-01-25T12:55:47Z</time>
      </trkpt>
      <trkpt lat="48.8505" lon="-1.51897">
        <ele>29</ele>
        <time>2024-01-25T12:55:48Z</time>
      </trkpt>
      <trkpt lat="48.85058" lon="-1.51896">
        <ele>29</ele>
        <time>2024-01-25T12:55:49Z</time>
      </trkpt>
      <trkpt lat="48.85066" lon="-1.51894">
        <ele>29</ele>
        <time>2024-01-25T12:55:50Z</time>
      </trkpt>
      <trkpt lat="48.85073" lon="-1.51893">
        <ele>29</ele>
        <time>2024-01-25T12:55:51Z</time>
      </trkpt>
      <trkpt lat="48.85081" lon="-1.51892">
        <ele>29</ele>
        <time>2024-01-25T12:55:52Z</time>
      </trkpt>
      <trkpt lat="48.85088" lon="-1.51891">
        <ele>29</ele>
        <time>2024-01-25T12:55:53Z</time>
      </trkpt>
      <trkpt lat="48.85095" lon="-1.5189">
        <ele>29</ele>
        <time>2024-01-25T12:55:54Z</time>
      </trkpt>
      <trkpt lat="48.85102" lon="-1.51889">
        <ele>29.1</ele>
        <time>2024-01-25T12:55:55Z</time>
      </trkpt>
      <trkpt lat="48.85108" lon="-1.51887">
        <ele>29.1</ele>
        <time>2024-01-25T12:55:56Z</time>
      </trkpt>
      <trkpt lat="48.85114" lon="-1.51883">
        <ele>29.2</ele>
        <time>2024-01-25T12:55:57Z</time>
      </trkpt>
      <trkpt lat="48.85119" lon="-1.51878">
        <ele>29.3</ele>
        <time>2024-01-25T12:55:58Z</time>
      </trkpt>
      <trkpt lat="48.85124" lon="-1.51871">
        <ele>29.3</ele>
        <time>2024-01-25T12:55:59Z</time>
      </trkpt>
      <trkpt lat="48.85127" lon="-1.51863">
        <ele>29.4</ele>
        <time>2024-01-25T12:56:00Z</time>
      </trkpt>
      <trkpt lat="48.8513" lon="-1.51855">
        <ele>29.5</ele>
        <time>2024-01-25T12:56:01Z</time>
      </trkpt>
      <trkpt lat="48.85131" lon="-1.51847">
        <ele>29.6</ele>
        <time>2024-01-25T12:56:02Z</time>
      </trkpt>
      <trkpt lat="48.85132" lon="-1.51838">
        <ele>29.8</ele>
        <time>2024-01-25T12:56:03Z</time>
      </trkpt>
      <trkpt lat="48.85132" lon="-1.51829">
        <ele>29.9</ele>
        <time>2024-01-25T12:56:04Z</time>
      </trkpt>
      <trkpt lat="48.85132" lon="-1.5182">
        <ele>30.1</ele>
        <time>2024-01-25T12:56:05Z</time>
      </trkpt>
      <trkpt lat="48.85132" lon="-1.51811">
        <ele>30.2</ele>
        <time>2024-01-25T12:56:06Z</time>
      </trkpt>
      <trkpt lat="48.85132" lon="-1.51802">
        <ele>30.4</ele>
        <time>2024-01-25T12:56:07Z</time>
      </trkpt>
      <trkpt lat="48.85132" lon="-1.51794">
        <ele>30.6</ele>
        <time>2024-01-25T12:56:08Z</time>
      </trkpt>
      <trkpt lat="48.85132" lon="-1.51786">
        <ele>30.8</ele>
        <time>2024-01-25T12:56:09Z</time>
      </trkpt>
      <trkpt lat="48.85134" lon="-1.51779">
        <ele>31</ele>
        <time>2024-01-25T12:56:10Z</time>
      </trkpt>
      <trkpt lat="48.85135" lon="-1.51773">
        <ele>31.2</ele>
        <time>2024-01-25T12:56:11Z</time>
      </trkpt>
      <trkpt lat="48.85135" lon="-1.51766">
        <ele>31.4</ele>
        <time>2024-01-25T12:56:12Z</time>
      </trkpt>
      <trkpt lat="48.85136" lon="-1.51759">
        <ele>31.6</ele>
        <time>2024-01-25T12:56:13Z</time>
      </trkpt>
      <trkpt lat="48.85137" lon="-1.51753">
        <ele>31.8</ele>
        <time>2024-01-25T12:56:14Z</time>
      </trkpt>
      <trkpt lat="48.85138" lon="-1.51748">
        <ele>31.9</ele>
        <time>2024-01-25T12:56:15Z</time>
      </trkpt>
      <trkpt lat="48.8514" lon="-1.51743">
        <ele>32.1</ele>
        <time>2024-01-25T12:56:16Z</time>
      </trkpt>
      <trkpt lat="48.85141" lon="-1.51737">
        <ele>32.2</ele>
        <time>2024-01-25T12:56:17Z</time>
      </trkpt>
      <trkpt lat="48.85142" lon="-1.51732">
        <ele>32.4</ele>
        <time>2024-01-25T12:56:18Z</time>
      </trkpt>
      <trkpt lat="48.85143" lon="-1.51726">
        <ele>32.5</ele>
        <time>2024-01-25T12:56:19Z</time>
      </trkpt>
      <trkpt lat="48.85144" lon="-1.51721">
        <ele>32.7</ele>
        <time>2024-01-25T12:56:20Z</time>
      </trkpt>
      <trkpt lat="48.85146" lon="-1.51714">
        <ele>32.9</ele>
        <time>2024-01-25T12:56:22Z</time>
      </trkpt>
      <trkpt lat="48.85147" lon="-1.5171">
        <ele>33</ele>
        <time>2024-01-25T12:56:23Z</time>
      </trkpt>
      <trkpt lat="48.85148" lon="-1.51704">
        <ele>33.1</ele>
        <time>2024-01-25T12:56:24Z</time>
      </trkpt>
      <trkpt lat="48.8515" lon="-1.51696">
        <ele>33.3</ele>
        <time>2024-01-25T12:56:25Z</time>
      </trkpt>
      <trkpt lat="48.85152" lon="-1.5169">
        <ele>33.4</ele>
        <time>2024-01-25T12:56:26Z</time>
      </trkpt>
      <trkpt lat="48.85154" lon="-1.51685">
        <ele>33.6</ele>
        <time>2024-01-25T12:56:27Z</time>
      </trkpt>
      <trkpt lat="48.85156" lon="-1.5168">
        <ele>33.7</ele>
        <time>2024-01-25T12:56:28Z</time>
      </trkpt>
      <trkpt lat="48.85158" lon="-1.51674">
        <ele>33.8</ele>
        <time>2024-01-25T12:56:29Z</time>
      </trkpt>
      <trkpt lat="48.8516" lon="-1.51668">
        <ele>34</ele>
        <time>2024-01-25T12:56:30Z</time>
      </trkpt>
      <trkpt lat="48.85162" lon="-1.51663">
        <ele>34.1</ele>
        <time>2024-01-25T12:56:31Z</time>
      </trkpt>
      <trkpt lat="48.85164" lon="-1.51657">
        <ele>34.3</ele>
        <time>2024-01-25T12:56:32Z</time>
      </trkpt>
      <trkpt lat="48.85166" lon="-1.51652">
        <ele>34.4</ele>
        <time>2024-01-25T12:56:33Z</time>
      </trkpt>
      <trkpt lat="48.85168" lon="-1.51646">
        <ele>34.6</ele>
        <time>2024-01-25T12:56:34Z</time>
      </trkpt>
      <trkpt lat="48.8517" lon="-1.51641">
        <ele>34.7</ele>
        <time>2024-01-25T12:56:35Z</time>
      </trkpt>
      <trkpt lat="48.85172" lon="-1.51634">
        <ele>34.9</ele>
        <time>2024-01-25T12:56:36Z</time>
      </trkpt>
      <trkpt lat="48.85174" lon="-1.51629">
        <ele>35.1</ele>
        <time>2024-01-25T12:56:37Z</time>
      </trkpt>
      <trkpt lat="48.85176" lon="-1.51625">
        <ele>35.2</ele>
        <time>2024-01-25T12:56:38Z</time>
      </trkpt>
      <trkpt lat="48.85178" lon="-1.5162">
        <ele>35.3</ele>
        <time>2024-01-25T12:56:39Z</time>
      </trkpt>
      <trkpt lat="48.8518" lon="-1.51616">
        <ele>35.4</ele>
        <time>2024-01-25T12:56:40Z</time>
      </trkpt>
      <trkpt lat="48.85182" lon="-1.51612">
        <ele>35.5</ele>
        <time>2024-01-25T12:56:41Z</time>
      </trkpt>
      <trkpt lat="48.85184" lon="-1.51607">
        <ele>35.7</ele>
        <time>2024-01-25T12:56:42Z</time>
      </trkpt>
      <trkpt lat="48.85187" lon="-1.51601">
        <ele>35.8</ele>
        <time>2024-01-25T12:56:43Z</time>
      </trkpt>
      <trkpt lat="48.85189" lon="-1.51595">
        <ele>35.9</ele>
        <time>2024-01-25T12:56:44Z</time>
      </trkpt>
      <trkpt lat="48.85191" lon="-1.5159">
        <ele>36.1</ele>
        <time>2024-01-25T12:56:45Z</time>
      </trkpt>
      <trkpt lat="48.85193" lon="-1.51584">
        <ele>36.2</ele>
        <time>2024-01-25T12:56:46Z</time>
      </trkpt>
      <trkpt lat="48.85195" lon="-1.51578">
        <ele>36.3</ele>
        <time>2024-01-25T12:56:47Z</time>
      </trkpt>
      <trkpt lat="48.85198" lon="-1.51573">
        <ele>36.3</ele>
        <time>2024-01-25T12:56:48Z</time>
      </trkpt>
      <trkpt lat="48.852" lon="-1.51567">
        <ele>36.4</ele>
        <time>2024-01-25T12:56:49Z</time>
      </trkpt>
      <trkpt lat="48.852" lon="-1.51561">
        <ele>36.4</ele>
        <time>2024-01-25T12:56:50Z</time>
      </trkpt>
      <trkpt lat="48.85201" lon="-1.51554">
        <ele>36.5</ele>
        <time>2024-01-25T12:56:51Z</time>
      </trkpt>
      <trkpt lat="48.85202" lon="-1.51547">
        <ele>36.5</ele>
        <time>2024-01-25T12:56:52Z</time>
      </trkpt>
      <trkpt lat="48.85202" lon="-1.51541">
        <ele>36.5</ele>
        <time>2024-01-25T12:56:53Z</time>
      </trkpt>
      <trkpt lat="48.85201" lon="-1.51534">
        <ele>36.5</ele>
        <time>2024-01-25T12:56:54Z</time>
      </trkpt>
      <trkpt lat="48.85201" lon="-1.51528">
        <ele>36.5</ele>
        <time>2024-01-25T12:56:55Z</time>
      </trkpt>
      <trkpt lat="48.85201" lon="-1.51521">
        <ele>36.4</ele>
        <time>2024-01-25T12:56:56Z</time>
      </trkpt>
      <trkpt lat="48.85201" lon="-1.51514">
        <ele>36.4</ele>
        <time>2024-01-25T12:56:57Z</time>
      </trkpt>
      <trkpt lat="48.852" lon="-1.51508">
        <ele>36.3</ele>
        <time>2024-01-25T12:56:58Z</time>
      </trkpt>
      <trkpt lat="48.85199" lon="-1.515">
        <ele>36.2</ele>
        <time>2024-01-25T12:56:59Z</time>
      </trkpt>
      <trkpt lat="48.85198" lon="-1.51493">
        <ele>36</ele>
        <time>2024-01-25T12:57:00Z</time>
      </trkpt>
      <trkpt lat="48.85198" lon="-1.51485">
        <ele>35.9</ele>
        <time>2024-01-25T12:57:01Z</time>
      </trkpt>
      <trkpt lat="48.85197" lon="-1.51477">
        <ele>35.7</ele>
        <time>2024-01-25T12:57:02Z</time>
      </trkpt>
      <trkpt lat="48.85196" lon="-1.51468">
        <ele>35.5</ele>
        <time>2024-01-25T12:57:03Z</time>
      </trkpt>
      <trkpt lat="48.85196" lon="-1.51459">
        <ele>35.2</ele>
        <time>2024-01-25T12:57:04Z</time>
      </trkpt>
      <trkpt lat="48.85197" lon="-1.5145">
        <ele>35</ele>
        <time>2024-01-25T12:57:05Z</time>
      </trkpt>
      <trkpt lat="48.85196" lon="-1.51441">
        <ele>34.8</ele>
        <time>2024-01-25T12:57:06Z</time>
      </trkpt>
      <trkpt lat="48.85196" lon="-1.51432">
        <ele>34.6</ele>
        <time>2024-01-25T12:57:07Z</time>
      </trkpt>
      <trkpt lat="48.85195" lon="-1.51423">
        <ele>34.3</ele>
        <time>2024-01-25T12:57:08Z</time>
      </trkpt>
      <trkpt lat="48.85195" lon="-1.51414">
        <ele>34.1</ele>
        <time>2024-01-25T12:57:09Z</time>
      </trkpt>
      <trkpt lat="48.85194" lon="-1.51405">
        <ele>33.9</ele>
        <time>2024-01-25T12:57:10Z</time>
      </trkpt>
      <trkpt lat="48.85193" lon="-1.51396">
        <ele>33.6</ele>
        <time>2024-01-25T12:57:11Z</time>
      </trkpt>
      <trkpt lat="48.85193" lon="-1.51387">
        <ele>33.4</ele>
        <time>2024-01-25T12:57:12Z</time>
      </trkpt>
      <trkpt lat="48.85192" lon="-1.51377">
        <ele>33.1</ele>
        <time>2024-01-25T12:57:13Z</time>
      </trkpt>
      <trkpt lat="48.85192" lon="-1.51367">
        <ele>32.8</ele>
        <time>2024-01-25T12:57:14Z</time>
      </trkpt>
      <trkpt lat="48.85192" lon="-1.51356">
        <ele>32.5</ele>
        <time>2024-01-25T12:57:15Z</time>
      </trkpt>
      <trkpt lat="48.85193" lon="-1.51346">
        <ele>32.2</ele>
        <time>2024-01-25T12:57:16Z</time>
      </trkpt>
      <trkpt lat="48.85193" lon="-1.51335">
        <ele>31.8</ele>
        <time>2024-01-25T12:57:17Z</time>
      </trkpt>
      <trkpt lat="48.85194" lon="-1.51324">
        <ele>31.4</ele>
        <time>2024-01-25T12:57:18Z</time>
      </trkpt>
      <trkpt lat="48.85194" lon="-1.51312">
        <ele>31.1</ele>
        <time>2024-01-25T12:57:19Z</time>
      </trkpt>
      <trkpt lat="48.85194" lon="-1.513">
        <ele>30.8</ele>
        <time>2024-01-25T12:57:20Z</time>
      </trkpt>
      <trkpt lat="48.85193" lon="-1.51288">
        <ele>30.5</ele>
        <time>2024-01-25T12:57:21Z</time>
      </trkpt>
      <trkpt lat="48.85192" lon="-1.51277">
        <ele>30.3</ele>
        <time>2024-01-25T12:57:22Z</time>
      </trkpt>
      <trkpt lat="48.85191" lon="-1.51266">
        <ele>30.2</ele>
        <time>2024-01-25T12:57:23Z</time>
      </trkpt>
      <trkpt lat="48.85189" lon="-1.51255">
        <ele>30.2</ele>
        <time>2024-01-25T12:57:24Z</time>
      </trkpt>
      <trkpt lat="48.85187" lon="-1.51245">
        <ele>30.2</ele>
        <time>2024-01-25T12:57:25Z</time>
      </trkpt>
      <trkpt lat="48.85185" lon="-1.51234">
        <ele>30.3</ele>
        <time>2024-01-25T12:57:26Z</time>
      </trkpt>
      <trkpt lat="48.85184" lon="-1.51224">
        <ele>30.4</ele>
        <time>2024-01-25T12:57:27Z</time>
      </trkpt>
      <trkpt lat="48.85183" lon="-1.51214">
        <ele>30.5</ele>
        <time>2024-01-25T12:57:28Z</time>
      </trkpt>
      <trkpt lat="48.85182" lon="-1.51205">
        <ele>30.7</ele>
        <time>2024-01-25T12:57:29Z</time>
      </trkpt>
      <trkpt lat="48.85181" lon="-1.51195">
        <ele>31</ele>
        <time>2024-01-25T12:57:30Z</time>
      </trkpt>
      <trkpt lat="48.8518" lon="-1.51186">
        <ele>31.2</ele>
        <time>2024-01-25T12:57:31Z</time>
      </trkpt>
      <trkpt lat="48.85179" lon="-1.51177">
        <ele>31.5</ele>
        <time>2024-01-25T12:57:32Z</time>
      </trkpt>
      <trkpt lat="48.85179" lon="-1.51169">
        <ele>31.8</ele>
        <time>2024-01-25T12:57:33Z</time>
      </trkpt>
      <trkpt lat="48.8518" lon="-1.51161">
        <ele>32.1</ele>
        <time>2024-01-25T12:57:34Z</time>
      </trkpt>
      <trkpt lat="48.85181" lon="-1.51153">
        <ele>32.4</ele>
        <time>2024-01-25T12:57:35Z</time>
      </trkpt>
      <trkpt lat="48.85181" lon="-1.51145">
        <ele>32.7</ele>
        <time>2024-01-25T12:57:36Z</time>
      </trkpt>
      <trkpt lat="48.85181" lon="-1.51137">
        <ele>32.9</ele>
        <time>2024-01-25T12:57:37Z</time>
      </trkpt>
      <trkpt lat="48.85182" lon="-1.5113">
        <ele>33.2</ele>
        <time>2024-01-25T12:57:38Z</time>
      </trkpt>
      <trkpt lat="48.85182" lon="-1.51123">
        <ele>33.5</ele>
        <time>2024-01-25T12:57:39Z</time>
      </trkpt>
      <trkpt lat="48.85183" lon="-1.51115">
        <ele>33.7</ele>
        <time>2024-01-25T12:57:40Z</time>
      </trkpt>
      <trkpt lat="48.85184" lon="-1.51108">
        <ele>33.9</ele>
        <time>2024-01-25T12:57:41Z</time>
      </trkpt>
      <trkpt lat="48.85184" lon="-1.51102">
        <ele>34.2</ele>
        <time>2024-01-25T12:57:42Z</time>
      </trkpt>
      <trkpt lat="48.85185" lon="-1.51096">
        <ele>34.4</ele>
        <time>2024-01-25T12:57:43Z</time>
      </trkpt>
      <trkpt lat="48.85186" lon="-1.51089">
        <ele>34.6</ele>
        <time>2024-01-25T12:57:44Z</time>
      </trkpt>
      <trkpt lat="48.85187" lon="-1.51083">
        <ele>34.8</ele>
        <time>2024-01-25T12:57:45Z</time>
      </trkpt>
      <trkpt lat="48.85188" lon="-1.51076">
        <ele>35</ele>
        <time>2024-01-25T12:57:46Z</time>
      </trkpt>
      <trkpt lat="48.8519" lon="-1.5107">
        <ele>35.3</ele>
        <time>2024-01-25T12:57:47Z</time>
      </trkpt>
      <trkpt lat="48.85191" lon="-1.51064">
        <ele>35.5</ele>
        <time>2024-01-25T12:57:48Z</time>
      </trkpt>
      <trkpt lat="48.85192" lon="-1.51057">
        <ele>35.7</ele>
        <time>2024-01-25T12:57:49Z</time>
      </trkpt>
      <trkpt lat="48.85193" lon="-1.51052">
        <ele>35.8</ele>
        <time>2024-01-25T12:57:51Z</time>
      </trkpt>
      <trkpt lat="48.85194" lon="-1.51046">
        <ele>36</ele>
        <time>2024-01-25T12:57:52Z</time>
      </trkpt>
      <trkpt lat="48.85195" lon="-1.51036">
        <ele>36.3</ele>
        <time>2024-01-25T12:57:53Z</time>
      </trkpt>
      <trkpt lat="48.85196" lon="-1.51029">
        <ele>36.4</ele>
        <time>2024-01-25T12:57:54Z</time>
      </trkpt>
      <trkpt lat="48.85196" lon="-1.51022">
        <ele>36.5</ele>
        <time>2024-01-25T12:57:55Z</time>
      </trkpt>
      <trkpt lat="48.85198" lon="-1.51016">
        <ele>36.6</ele>
        <time>2024-01-25T12:57:56Z</time>
      </trkpt>
      <trkpt lat="48.85198" lon="-1.51011">
        <ele>36.7</ele>
        <time>2024-01-25T12:57:57Z</time>
      </trkpt>
      <trkpt lat="48.85198" lon="-1.51002">
        <ele>36.8</ele>
        <time>2024-01-25T12:57:58Z</time>
      </trkpt>
      <trkpt lat="48.852" lon="-1.50994">
        <ele>37</ele>
        <time>2024-01-25T12:57:59Z</time>
      </trkpt>
      <trkpt lat="48.85201" lon="-1.50986">
        <ele>37.1</ele>
        <time>2024-01-25T12:58:00Z</time>
      </trkpt>
      <trkpt lat="48.85202" lon="-1.50979">
        <ele>37.2</ele>
        <time>2024-01-25T12:58:01Z</time>
      </trkpt>
      <trkpt lat="48.85203" lon="-1.50971">
        <ele>37.2</ele>
        <time>2024-01-25T12:58:02Z</time>
      </trkpt>
      <trkpt lat="48.85204" lon="-1.50964">
        <ele>37.3</ele>
        <time>2024-01-25T12:58:03Z</time>
      </trkpt>
      <trkpt lat="48.85205" lon="-1.50956">
        <ele>37.4</ele>
        <time>2024-01-25T12:58:04Z</time>
      </trkpt>
      <trkpt lat="48.85206" lon="-1.50948">
        <ele>37.4</ele>
        <time>2024-01-25T12:58:05Z</time>
      </trkpt>
      <trkpt lat="48.85207" lon="-1.5094">
        <ele>37.5</ele>
        <time>2024-01-25T12:58:06Z</time>
      </trkpt>
      <trkpt lat="48.85208" lon="-1.50932">
        <ele>37.5</ele>
        <time>2024-01-25T12:58:07Z</time>
      </trkpt>
      <trkpt lat="48.8521" lon="-1.50924">
        <ele>37.5</ele>
        <time>2024-01-25T12:58:08Z</time>
      </trkpt>
      <trkpt lat="48.85211" lon="-1.50916">
        <ele>37.5</ele>
        <time>2024-01-25T12:58:09Z</time>
      </trkpt>
      <trkpt lat="48.85213" lon="-1.50908">
        <ele>37.6</ele>
        <time>2024-01-25T12:58:10Z</time>
      </trkpt>
      <trkpt lat="48.85214" lon="-1.509">
        <ele>37.6</ele>
        <time>2024-01-25T12:58:11Z</time>
      </trkpt>
      <trkpt lat="48.85216" lon="-1.50893">
        <ele>37.6</ele>
        <time>2024-01-25T12:58:12Z</time>
      </trkpt>
      <trkpt lat="48.85217" lon="-1.50886">
        <ele>37.6</ele>
        <time>2024-01-25T12:58:13Z</time>
      </trkpt>
      <trkpt lat="48.85219" lon="-1.50879">
        <ele>37.7</ele>
        <time>2024-01-25T12:58:14Z</time>
      </trkpt>
      <trkpt lat="48.85221" lon="-1.50871">
        <ele>37.7</ele>
        <time>2024-01-25T12:58:15Z</time>
      </trkpt>
      <trkpt lat="48.85222" lon="-1.50863">
        <ele>37.7</ele>
        <time>2024-01-25T12:58:16Z</time>
      </trkpt>
      <trkpt lat="48.85224" lon="-1.50855">
        <ele>37.8</ele>
        <time>2024-01-25T12:58:17Z</time>
      </trkpt>
      <trkpt lat="48.85225" lon="-1.50848">
        <ele>37.9</ele>
        <time>2024-01-25T12:58:18Z</time>
      </trkpt>
      <trkpt lat="48.85227" lon="-1.5084">
        <ele>37.9</ele>
        <time>2024-01-25T12:58:19Z</time>
      </trkpt>
      <trkpt lat="48.85228" lon="-1.50831">
        <ele>38</ele>
        <time>2024-01-25T12:58:20Z</time>
      </trkpt>
      <trkpt lat="48.8523" lon="-1.50823">
        <ele>38.1</ele>
        <time>2024-01-25T12:58:21Z</time>
      </trkpt>
      <trkpt lat="48.85231" lon="-1.50815">
        <ele>38.2</ele>
        <time>2024-01-25T12:58:22Z</time>
      </trkpt>
      <trkpt lat="48.85233" lon="-1.50807">
        <ele>38.3</ele>
        <time>2024-01-25T12:58:23Z</time>
      </trkpt>
      <trkpt lat="48.85234" lon="-1.50798">
        <ele>38.4</ele>
        <time>2024-01-25T12:58:24Z</time>
      </trkpt>
      <trkpt lat="48.85236" lon="-1.5079">
        <ele>38.4</ele>
        <time>2024-01-25T12:58:25Z</time>
      </trkpt>
      <trkpt lat="48.85239" lon="-1.50782">
        <ele>38.5</ele>
        <time>2024-01-25T12:58:26Z</time>
      </trkpt>
      <trkpt lat="48.85241" lon="-1.50773">
        <ele>38.6</ele>
        <time>2024-01-25T12:58:27Z</time>
      </trkpt>
      <trkpt lat="48.85243" lon="-1.50765">
        <ele>38.7</ele>
        <time>2024-01-25T12:58:28Z</time>
      </trkpt>
      <trkpt lat="48.85246" lon="-1.50757">
        <ele>38.8</ele>
        <time>2024-01-25T12:58:29Z</time>
      </trkpt>
      <trkpt lat="48.85248" lon="-1.5075">
        <ele>38.8</ele>
        <time>2024-01-25T12:58:30Z</time>
      </trkpt>
      <trkpt lat="48.85251" lon="-1.50744">
        <ele>38.9</ele>
        <time>2024-01-25T12:58:31Z</time>
      </trkpt>
      <trkpt lat="48.85254" lon="-1.50738">
        <ele>39</ele>
        <time>2024-01-25T12:58:32Z</time>
      </trkpt>
      <trkpt lat="48.85256" lon="-1.50732">
        <ele>39</ele>
        <time>2024-01-25T12:58:33Z</time>
      </trkpt>
      <trkpt lat="48.85259" lon="-1.50726">
        <ele>39.1</ele>
        <time>2024-01-25T12:58:34Z</time>
      </trkpt>
      <trkpt lat="48.85261" lon="-1.5072">
        <ele>39.1</ele>
        <time>2024-01-25T12:58:35Z</time>
      </trkpt>
      <trkpt lat="48.85264" lon="-1.50715">
        <ele>39.2</ele>
        <time>2024-01-25T12:58:36Z</time>
      </trkpt>
      <trkpt lat="48.85267" lon="-1.5071">
        <ele>39.3</ele>
        <time>2024-01-25T12:58:37Z</time>
      </trkpt>
      <trkpt lat="48.8527" lon="-1.50704">
        <ele>39.4</ele>
        <time>2024-01-25T12:58:38Z</time>
      </trkpt>
      <trkpt lat="48.85273" lon="-1.50698">
        <ele>39.4</ele>
        <time>2024-01-25T12:58:39Z</time>
      </trkpt>
      <trkpt lat="48.85275" lon="-1.50692">
        <ele>39.5</ele>
        <time>2024-01-25T12:58:40Z</time>
      </trkpt>
      <trkpt lat="48.85278" lon="-1.50686">
        <ele>39.6</ele>
        <time>2024-01-25T12:58:41Z</time>
      </trkpt>
      <trkpt lat="48.85281" lon="-1.50681">
        <ele>39.7</ele>
        <time>2024-01-25T12:58:42Z</time>
      </trkpt>
      <trkpt lat="48.85284" lon="-1.50675">
        <ele>39.8</ele>
        <time>2024-01-25T12:58:43Z</time>
      </trkpt>
      <trkpt lat="48.85286" lon="-1.50669">
        <ele>40</ele>
        <time>2024-01-25T12:58:44Z</time>
      </trkpt>
      <trkpt lat="48.85289" lon="-1.50664">
        <ele>40.1</ele>
        <time>2024-01-25T12:58:45Z</time>
      </trkpt>
      <trkpt lat="48.85292" lon="-1.50658">
        <ele>40.2</ele>
        <time>2024-01-25T12:58:46Z</time>
      </trkpt>
      <trkpt lat="48.85295" lon="-1.50653">
        <ele>40.3</ele>
        <time>2024-01-25T12:58:47Z</time>
      </trkpt>
      <trkpt lat="48.85297" lon="-1.50646">
        <ele>40.4</ele>
        <time>2024-01-25T12:58:48Z</time>
      </trkpt>
      <trkpt lat="48.853" lon="-1.5064">
        <ele>40.4</ele>
        <time>2024-01-25T12:58:49Z</time>
      </trkpt>
      <trkpt lat="48.85302" lon="-1.50634">
        <ele>40.5</ele>
        <time>2024-01-25T12:58:50Z</time>
      </trkpt>
      <trkpt lat="48.85305" lon="-1.50628">
        <ele>40.6</ele>
        <time>2024-01-25T12:58:51Z</time>
      </trkpt>
      <trkpt lat="48.85307" lon="-1.50622">
        <ele>40.6</ele>
        <time>2024-01-25T12:58:52Z</time>
      </trkpt>
      <trkpt lat="48.8531" lon="-1.50616">
        <ele>40.7</ele>
        <time>2024-01-25T12:58:53Z</time>
      </trkpt>
      <trkpt lat="48.85313" lon="-1.5061">
        <ele>40.7</ele>
        <time>2024-01-25T12:58:54Z</time>
      </trkpt>
      <trkpt lat="48.85315" lon="-1.50604">
        <ele>40.8</ele>
        <time>2024-01-25T12:58:55Z</time>
      </trkpt>
      <trkpt lat="48.85318" lon="-1.50598">
        <ele>40.8</ele>
        <time>2024-01-25T12:58:56Z</time>
      </trkpt>
      <trkpt lat="48.8532" lon="-1.50592">
        <ele>40.8</ele>
        <time>2024-01-25T12:58:57Z</time>
      </trkpt>
      <trkpt lat="48.85323" lon="-1.50586">
        <ele>40.9</ele>
        <time>2024-01-25T12:58:58Z</time>
      </trkpt>
      <trkpt lat="48.85327" lon="-1.50581">
        <ele>40.9</ele>
        <time>2024-01-25T12:58:59Z</time>
      </trkpt>
      <trkpt lat="48.8533" lon="-1.50576">
        <ele>40.9</ele>
        <time>2024-01-25T12:59:00Z</time>
      </trkpt>
      <trkpt lat="48.85333" lon="-1.50571">
        <ele>40.9</ele>
        <time>2024-01-25T12:59:01Z</time>
      </trkpt>
      <trkpt lat="48.85337" lon="-1.50566">
        <ele>40.9</ele>
        <time>2024-01-25T12:59:02Z</time>
      </trkpt>
      <trkpt lat="48.8534" lon="-1.50561">
        <ele>40.9</ele>
        <time>2024-01-25T12:59:03Z</time>
      </trkpt>
      <trkpt lat="48.85343" lon="-1.50555">
        <ele>40.8</ele>
        <time>2024-01-25T12:59:04Z</time>
      </trkpt>
      <trkpt lat="48.85346" lon="-1.50549">
        <ele>40.8</ele>
        <time>2024-01-25T12:59:05Z</time>
      </trkpt>
      <trkpt lat="48.85349" lon="-1.50544">
        <ele>40.7</ele>
        <time>2024-01-25T12:59:06Z</time>
      </trkpt>
      <trkpt lat="48.85352" lon="-1.50538">
        <ele>40.6</ele>
        <time>2024-01-25T12:59:07Z</time>
      </trkpt>
      <trkpt lat="48.85355" lon="-1.50531">
        <ele>40.6</ele>
        <time>2024-01-25T12:59:08Z</time>
      </trkpt>
      <trkpt lat="48.85358" lon="-1.50524">
        <ele>40.5</ele>
        <time>2024-01-25T12:59:09Z</time>
      </trkpt>
      <trkpt lat="48.85362" lon="-1.50518">
        <ele>40.4</ele>
        <time>2024-01-25T12:59:10Z</time>
      </trkpt>
      <trkpt lat="48.85366" lon="-1.50511">
        <ele>40.4</ele>
        <time>2024-01-25T12:59:11Z</time>
      </trkpt>
      <trkpt lat="48.85369" lon="-1.50504">
        <ele>40.3</ele>
        <time>2024-01-25T12:59:12Z</time>
      </trkpt>
      <trkpt lat="48.85372" lon="-1.50498">
        <ele>40.2</ele>
        <time>2024-01-25T12:59:13Z</time>
      </trkpt>
      <trkpt lat="48.85376" lon="-1.50493">
        <ele>40.1</ele>
        <time>2024-01-25T12:59:14Z</time>
      </trkpt>
      <trkpt lat="48.85381" lon="-1.50488">
        <ele>40</ele>
        <time>2024-01-25T12:59:15Z</time>
      </trkpt>
      <trkpt lat="48.85385" lon="-1.50483">
        <ele>39.9</ele>
        <time>2024-01-25T12:59:16Z</time>
      </trkpt>
      <trkpt lat="48.85389" lon="-1.50477">
        <ele>39.7</ele>
        <time>2024-01-25T12:59:17Z</time>
      </trkpt>
      <trkpt lat="48.85392" lon="-1.50472">
        <ele>39.6</ele>
        <time>2024-01-25T12:59:18Z</time>
      </trkpt>
      <trkpt lat="48.85395" lon="-1.50467">
        <ele>39.5</ele>
        <time>2024-01-25T12:59:19Z</time>
      </trkpt>
      <trkpt lat="48.85399" lon="-1.5046">
        <ele>39.3</ele>
        <time>2024-01-25T12:59:20Z</time>
      </trkpt>
      <trkpt lat="48.85402" lon="-1.50454">
        <ele>39.2</ele>
        <time>2024-01-25T12:59:21Z</time>
      </trkpt>
      <trkpt lat="48.85405" lon="-1.50447">
        <ele>39.1</ele>
        <time>2024-01-25T12:59:22Z</time>
      </trkpt>
      <trkpt lat="48.85408" lon="-1.50441">
        <ele>39.1</ele>
        <time>2024-01-25T12:59:23Z</time>
      </trkpt>
      <trkpt lat="48.85411" lon="-1.50434">
        <ele>39</ele>
        <time>2024-01-25T12:59:24Z</time>
      </trkpt>
      <trkpt lat="48.85414" lon="-1.50426">
        <ele>39</ele>
        <time>2024-01-25T12:59:25Z</time>
      </trkpt>
      <trkpt lat="48.85417" lon="-1.50418">
        <ele>39</ele>
        <time>2024-01-25T12:59:26Z</time>
      </trkpt>
      <trkpt lat="48.8542" lon="-1.50412">
        <ele>39.1</ele>
        <time>2024-01-25T12:59:27Z</time>
      </trkpt>
      <trkpt lat="48.85424" lon="-1.50408">
        <ele>39.1</ele>
        <time>2024-01-25T12:59:28Z</time>
      </trkpt>
      <trkpt lat="48.85428" lon="-1.50405">
        <ele>39.2</ele>
        <time>2024-01-25T12:59:29Z</time>
      </trkpt>
      <trkpt lat="48.85433" lon="-1.50403">
        <ele>39.3</ele>
        <time>2024-01-25T12:59:30Z</time>
      </trkpt>
      <trkpt lat="48.85438" lon="-1.50406">
        <ele>39.4</ele>
        <time>2024-01-25T12:59:31Z</time>
      </trkpt>
      <trkpt lat="48.85443" lon="-1.5041">
        <ele>39.6</ele>
        <time>2024-01-25T12:59:32Z</time>
      </trkpt>
      <trkpt lat="48.85448" lon="-1.50413">
        <ele>39.8</ele>
        <time>2024-01-25T12:59:33Z</time>
      </trkpt>
      <trkpt lat="48.85453" lon="-1.50416">
        <ele>40</ele>
        <time>2024-01-25T12:59:34Z</time>
      </trkpt>
      <trkpt lat="48.85457" lon="-1.50418">
        <ele>40.2</ele>
        <time>2024-01-25T12:59:35Z</time>
      </trkpt>
      <trkpt lat="48.85461" lon="-1.5042">
        <ele>40.4</ele>
        <time>2024-01-25T12:59:36Z</time>
      </trkpt>
      <trkpt lat="48.85466" lon="-1.50421">
        <ele>40.6</ele>
        <time>2024-01-25T12:59:37Z</time>
      </trkpt>
      <trkpt lat="48.8547" lon="-1.50423">
        <ele>40.8</ele>
        <time>2024-01-25T12:59:38Z</time>
      </trkpt>
      <trkpt lat="48.85474" lon="-1.50425">
        <ele>40.9</ele>
        <time>2024-01-25T12:59:39Z</time>
      </trkpt>
      <trkpt lat="48.85478" lon="-1.50426">
        <ele>41.1</ele>
        <time>2024-01-25T12:59:40Z</time>
      </trkpt>
      <trkpt lat="48.85482" lon="-1.50427">
        <ele>41.3</ele>
        <time>2024-01-25T12:59:41Z</time>
      </trkpt>
      <trkpt lat="48.85485" lon="-1.50428">
        <ele>41.4</ele>
        <time>2024-01-25T12:59:42Z</time>
      </trkpt>
      <trkpt lat="48.85488" lon="-1.50429">
        <ele>41.6</ele>
        <time>2024-01-25T12:59:43Z</time>
      </trkpt>
      <trkpt lat="48.85491" lon="-1.5043">
        <ele>41.7</ele>
        <time>2024-01-25T12:59:44Z</time>
      </trkpt>
      <trkpt lat="48.85495" lon="-1.50432">
        <ele>41.9</ele>
        <time>2024-01-25T12:59:45Z</time>
      </trkpt>
      <trkpt lat="48.85499" lon="-1.50434">
        <ele>42</ele>
        <time>2024-01-25T12:59:46Z</time>
      </trkpt>
      <trkpt lat="48.85503" lon="-1.50435">
        <ele>42.2</ele>
        <time>2024-01-25T12:59:47Z</time>
      </trkpt>
      <trkpt lat="48.85507" lon="-1.50435">
        <ele>42.4</ele>
        <time>2024-01-25T12:59:48Z</time>
      </trkpt>
      <trkpt lat="48.85511" lon="-1.50435">
        <ele>42.5</ele>
        <time>2024-01-25T12:59:49Z</time>
      </trkpt>
      <trkpt lat="48.85515" lon="-1.50434">
        <ele>42.7</ele>
        <time>2024-01-25T12:59:50Z</time>
      </trkpt>
      <trkpt lat="48.85519" lon="-1.50432">
        <ele>42.8</ele>
        <time>2024-01-25T12:59:51Z</time>
      </trkpt>
      <trkpt lat="48.85521" lon="-1.5043">
        <ele>42.9</ele>
        <time>2024-01-25T12:59:52Z</time>
      </trkpt>
      <trkpt lat="48.85526" lon="-1.50426">
        <ele>43.1</ele>
        <time>2024-01-25T12:59:53Z</time>
      </trkpt>
      <trkpt lat="48.85531" lon="-1.50424">
        <ele>43.3</ele>
        <time>2024-01-25T12:59:55Z</time>
      </trkpt>
      <trkpt lat="48.85535" lon="-1.50421">
        <ele>43.5</ele>
        <time>2024-01-25T12:59:56Z</time>
      </trkpt>
      <trkpt lat="48.85538" lon="-1.50418">
        <ele>43.6</ele>
        <time>2024-01-25T12:59:57Z</time>
      </trkpt>
      <trkpt lat="48.85542" lon="-1.50414">
        <ele>43.7</ele>
        <time>2024-01-25T12:59:58Z</time>
      </trkpt>
      <trkpt lat="48.85547" lon="-1.50409">
        <ele>44</ele>
        <time>2024-01-25T12:59:59Z</time>
      </trkpt>
      <trkpt lat="48.8555" lon="-1.50405">
        <ele>44.1</ele>
        <time>2024-01-25T13:00:00Z</time>
      </trkpt>
      <trkpt lat="48.85554" lon="-1.50401">
        <ele>44.3</ele>
        <time>2024-01-25T13:00:01Z</time>
      </trkpt>
      <trkpt lat="48.85558" lon="-1.50397">
        <ele>44.5</ele>
        <time>2024-01-25T13:00:02Z</time>
      </trkpt>
      <trkpt lat="48.85561" lon="-1.50393">
        <ele>44.6</ele>
        <time>2024-01-25T13:00:03Z</time>
      </trkpt>
      <trkpt lat="48.85564" lon="-1.50391">
        <ele>44.8</ele>
        <time>2024-01-25T13:00:04Z</time>
      </trkpt>
      <trkpt lat="48.85567" lon="-1.50387">
        <ele>44.9</ele>
        <time>2024-01-25T13:00:05Z</time>
      </trkpt>
      <trkpt lat="48.8557" lon="-1.50384">
        <ele>45</ele>
        <time>2024-01-25T13:00:06Z</time>
      </trkpt>
      <trkpt lat="48.85572" lon="-1.50381">
        <ele>45.2</ele>
        <time>2024-01-25T13:00:07Z</time>
      </trkpt>
      <trkpt lat="48.85575" lon="-1.50378">
        <ele>45.3</ele>
        <time>2024-01-25T13:00:08Z</time>
      </trkpt>
      <trkpt lat="48.85578" lon="-1.50376">
        <ele>45.4</ele>
        <time>2024-01-25T13:00:09Z</time>
      </trkpt>
      <trkpt lat="48.8558" lon="-1.50373">
        <ele>45.5</ele>
        <time>2024-01-25T13:00:10Z</time>
      </trkpt>
      <trkpt lat="48.85583" lon="-1.5037">
        <ele>45.6</ele>
        <time>2024-01-25T13:00:11Z</time>
      </trkpt>
      <trkpt lat="48.85586" lon="-1.50366">
        <ele>45.8</ele>
        <time>2024-01-25T13:00:12Z</time>
      </trkpt>
      <trkpt lat="48.85588" lon="-1.50361">
        <ele>45.9</ele>
        <time>2024-01-25T13:00:13Z</time>
      </trkpt>
      <trkpt lat="48.85591" lon="-1.50355">
        <ele>46</ele>
        <time>2024-01-25T13:00:14Z</time>
      </trkpt>
      <trkpt lat="48.85593" lon="-1.50349">
        <ele>46.1</ele>
        <time>2024-01-25T13:00:15Z</time>
      </trkpt>
      <trkpt lat="48.85595" lon="-1.50344">
        <ele>46.2</ele>
        <time>2024-01-25T13:00:16Z</time>
      </trkpt>
      <trkpt lat="48.85597" lon="-1.50337">
        <ele>46.3</ele>
        <time>2024-01-25T13:00:17Z</time>
      </trkpt>
      <trkpt lat="48.85598" lon="-1.50331">
        <ele>46.3</ele>
        <time>2024-01-25T13:00:18Z</time>
      </trkpt>
      <trkpt lat="48.85599" lon="-1.50325">
        <ele>46.4</ele>
        <time>2024-01-25T13:00:19Z</time>
      </trkpt>
      <trkpt lat="48.85599" lon="-1.5032">
        <ele>46.4</ele>
        <time>2024-01-25T13:00:20Z</time>
      </trkpt>
      <trkpt lat="48.856" lon="-1.50315">
        <ele>46.4</ele>
        <time>2024-01-25T13:00:21Z</time>
      </trkpt>
      <trkpt lat="48.856" lon="-1.50309">
        <ele>46.3</ele>
        <time>2024-01-25T13:00:22Z</time>
      </trkpt>
      <trkpt lat="48.85599" lon="-1.50303">
        <ele>46.2</ele>
        <time>2024-01-25T13:00:23Z</time>
      </trkpt>
      <trkpt lat="48.85597" lon="-1.50296">
        <ele>46</ele>
        <time>2024-01-25T13:00:24Z</time>
      </trkpt>
      <trkpt lat="48.85595" lon="-1.50291">
        <ele>45.8</ele>
        <time>2024-01-25T13:00:25Z</time>
      </trkpt>
      <trkpt lat="48.85591" lon="-1.50286">
        <ele>45.5</ele>
        <time>2024-01-25T13:00:26Z</time>
      </trkpt>
      <trkpt lat="48.85587" lon="-1.50279">
        <ele>45.1</ele>
        <time>2024-01-25T13:00:27Z</time>
      </trkpt>
      <trkpt lat="48.85583" lon="-1.50273">
        <ele>44.7</ele>
        <time>2024-01-25T13:00:28Z</time>
      </trkpt>
      <trkpt lat="48.85578" lon="-1.50266">
        <ele>44.3</ele>
        <time>2024-01-25T13:00:29Z</time>
      </trkpt>
      <trkpt lat="48.85573" lon="-1.50259">
        <ele>43.8</ele>
        <time>2024-01-25T13:00:30Z</time>
      </trkpt>
      <trkpt lat="48.85568" lon="-1.50253">
        <ele>43.4</ele>
        <time>2024-01-25T13:00:31Z</time>
      </trkpt>
      <trkpt lat="48.85564" lon="-1.50246">
        <ele>43</ele>
        <time>2024-01-25T13:00:32Z</time>
      </trkpt>
      <trkpt lat="48.8556" lon="-1.50238">
        <ele>42.6</ele>
        <time>2024-01-25T13:00:33Z</time>
      </trkpt>
      <trkpt lat="48.85556" lon="-1.5023">
        <ele>42.2</ele>
        <time>2024-01-25T13:00:34Z</time>
      </trkpt>
      <trkpt lat="48.85552" lon="-1.50222">
        <ele>41.8</ele>
        <time>2024-01-25T13:00:35Z</time>
      </trkpt>
      <trkpt lat="48.8555" lon="-1.50213">
        <ele>41.5</ele>
        <time>2024-01-25T13:00:36Z</time>
      </trkpt>
      <trkpt lat="48.85548" lon="-1.50203">
        <ele>41.2</ele>
        <time>2024-01-25T13:00:37Z</time>
      </trkpt>
      <trkpt lat="48.85547" lon="-1.50193">
        <ele>40.9</ele>
        <time>2024-01-25T13:00:38Z</time>
      </trkpt>
      <trkpt lat="48.85547" lon="-1.50183">
        <ele>40.6</ele>
        <time>2024-01-25T13:00:39Z</time>
      </trkpt>
      <trkpt lat="48.85548" lon="-1.50173">
        <ele>40.3</ele>
        <time>2024-01-25T13:00:40Z</time>
      </trkpt>
      <trkpt lat="48.85548" lon="-1.50163">
        <ele>40</ele>
        <time>2024-01-25T13:00:41Z</time>
      </trkpt>
      <trkpt lat="48.85549" lon="-1.50153">
        <ele>39.8</ele>
        <time>2024-01-25T13:00:42Z</time>
      </trkpt>
      <trkpt lat="48.8555" lon="-1.50144">
        <ele>39.6</ele>
        <time>2024-01-25T13:00:43Z</time>
      </trkpt>
      <trkpt lat="48.85551" lon="-1.50134">
        <ele>39.4</ele>
        <time>2024-01-25T13:00:44Z</time>
      </trkpt>
      <trkpt lat="48.85552" lon="-1.50124">
        <ele>39.2</ele>
        <time>2024-01-25T13:00:45Z</time>
      </trkpt>
      <trkpt lat="48.85552" lon="-1.50114">
        <ele>39.1</ele>
        <time>2024-01-25T13:00:46Z</time>
      </trkpt>
      <trkpt lat="48.85553" lon="-1.50104">
        <ele>39</ele>
        <time>2024-01-25T13:00:47Z</time>
      </trkpt>
      <trkpt lat="48.85554" lon="-1.50095">
        <ele>38.9</ele>
        <time>2024-01-25T13:00:48Z</time>
      </trkpt>
      <trkpt lat="48.85555" lon="-1.50085">
        <ele>38.8</ele>
        <time>2024-01-25T13:00:49Z</time>
      </trkpt>
      <trkpt lat="48.85555" lon="-1.50075">
        <ele>38.7</ele>
        <time>2024-01-25T13:00:50Z</time>
      </trkpt>
      <trkpt lat="48.85555" lon="-1.50066">
        <ele>38.7</ele>
        <time>2024-01-25T13:00:51Z</time>
      </trkpt>
      <trkpt lat="48.85555" lon="-1.50056">
        <ele>38.6</ele>
        <time>2024-01-25T13:00:52Z</time>
      </trkpt>
      <trkpt lat="48.85555" lon="-1.50047">
        <ele>38.5</ele>
        <time>2024-01-25T13:00:53Z</time>
      </trkpt>
      <trkpt lat="48.85554" lon="-1.50039">
        <ele>38.3</ele>
        <time>2024-01-25T13:00:54Z</time>
      </trkpt>
      <trkpt lat="48.85553" lon="-1.5003">
        <ele>38.1</ele>
        <time>2024-01-25T13:00:55Z</time>
      </trkpt>
      <trkpt lat="48.85552" lon="-1.50021">
        <ele>37.8</ele>
        <time>2024-01-25T13:00:56Z</time>
      </trkpt>
      <trkpt lat="48.85551" lon="-1.50012">
        <ele>37.6</ele>
        <time>2024-01-25T13:00:57Z</time>
      </trkpt>
      <trkpt lat="48.8555" lon="-1.50002">
        <ele>37.2</ele>
        <time>2024-01-25T13:00:58Z</time>
      </trkpt>
      <trkpt lat="48.85549" lon="-1.49993">
        <ele>36.9</ele>
        <time>2024-01-25T13:00:59Z</time>
      </trkpt>
      <trkpt lat="48.85548" lon="-1.49984">
        <ele>36.6</ele>
        <time>2024-01-25T13:01:00Z</time>
      </trkpt>
      <trkpt lat="48.85545" lon="-1.49974">
        <ele>36.2</ele>
        <time>2024-01-25T13:01:01Z</time>
      </trkpt>
      <trkpt lat="48.85542" lon="-1.49965">
        <ele>35.9</ele>
        <time>2024-01-25T13:01:02Z</time>
      </trkpt>
      <trkpt lat="48.85539" lon="-1.49956">
        <ele>35.5</ele>
        <time>2024-01-25T13:01:03Z</time>
      </trkpt>
      <trkpt lat="48.85535" lon="-1.49946">
        <ele>35.2</ele>
        <time>2024-01-25T13:01:04Z</time>
      </trkpt>
      <trkpt lat="48.85532" lon="-1.49937">
        <ele>34.9</ele>
        <time>2024-01-25T13:01:05Z</time>
      </trkpt>
      <trkpt lat="48.85529" lon="-1.49927">
        <ele>34.7</ele>
        <time>2024-01-25T13:01:06Z</time>
      </trkpt>
      <trkpt lat="48.85526" lon="-1.49917">
        <ele>34.6</ele>
        <time>2024-01-25T13:01:07Z</time>
      </trkpt>
      <trkpt lat="48.85524" lon="-1.49908">
        <ele>34.5</ele>
        <time>2024-01-25T13:01:08Z</time>
      </trkpt>
      <trkpt lat="48.85522" lon="-1.49898">
        <ele>34.4</ele>
        <time>2024-01-25T13:01:09Z</time>
      </trkpt>
      <trkpt lat="48.85521" lon="-1.4989">
        <ele>34.4</ele>
        <time>2024-01-25T13:01:10Z</time>
      </trkpt>
      <trkpt lat="48.85518" lon="-1.49881">
        <ele>34.3</ele>
        <time>2024-01-25T13:01:11Z</time>
      </trkpt>
      <trkpt lat="48.85516" lon="-1.49873">
        <ele>34.3</ele>
        <time>2024-01-25T13:01:12Z</time>
      </trkpt>
      <trkpt lat="48.85514" lon="-1.49864">
        <ele>34.3</ele>
        <time>2024-01-25T13:01:13Z</time>
      </trkpt>
      <trkpt lat="48.85512" lon="-1.49856">
        <ele>34.3</ele>
        <time>2024-01-25T13:01:14Z</time>
      </trkpt>
      <trkpt lat="48.85511" lon="-1.49847">
        <ele>34.3</ele>
        <time>2024-01-25T13:01:15Z</time>
      </trkpt>
      <trkpt lat="48.85509" lon="-1.49839">
        <ele>34.4</ele>
        <time>2024-01-25T13:01:16Z</time>
      </trkpt>
      <trkpt lat="48.85508" lon="-1.4983">
        <ele>34.4</ele>
        <time>2024-01-25T13:01:17Z</time>
      </trkpt>
      <trkpt lat="48.85506" lon="-1.49822">
        <ele>34.5</ele>
        <time>2024-01-25T13:01:18Z</time>
      </trkpt>
      <trkpt lat="48.85504" lon="-1.49813">
        <ele>34.7</ele>
        <time>2024-01-25T13:01:19Z</time>
      </trkpt>
      <trkpt lat="48.85503" lon="-1.49805">
        <ele>34.8</ele>
        <time>2024-01-25T13:01:20Z</time>
      </trkpt>
      <trkpt lat="48.85501" lon="-1.49797">
        <ele>35</ele>
        <time>2024-01-25T13:01:21Z</time>
      </trkpt>
      <trkpt lat="48.855" lon="-1.49789">
        <ele>35.2</ele>
        <time>2024-01-25T13:01:22Z</time>
      </trkpt>
      <trkpt lat="48.855" lon="-1.49781">
        <ele>35.3</ele>
        <time>2024-01-25T13:01:23Z</time>
      </trkpt>
      <trkpt lat="48.85499" lon="-1.49773">
        <ele>35.5</ele>
        <time>2024-01-25T13:01:24Z</time>
      </trkpt>
      <trkpt lat="48.855" lon="-1.49767">
        <ele>35.8</ele>
        <time>2024-01-25T13:01:25Z</time>
      </trkpt>
      <trkpt lat="48.855" lon="-1.4976">
        <ele>36</ele>
        <time>2024-01-25T13:01:26Z</time>
      </trkpt>
      <trkpt lat="48.85501" lon="-1.49754">
        <ele>36.3</ele>
        <time>2024-01-25T13:01:27Z</time>
      </trkpt>
      <trkpt lat="48.85501" lon="-1.49748">
        <ele>36.5</ele>
        <time>2024-01-25T13:01:28Z</time>
      </trkpt>
      <trkpt lat="48.85502" lon="-1.49743">
        <ele>36.7</ele>
        <time>2024-01-25T13:01:29Z</time>
      </trkpt>
      <trkpt lat="48.85503" lon="-1.49738">
        <ele>37</ele>
        <time>2024-01-25T13:01:30Z</time>
      </trkpt>
      <trkpt lat="48.85504" lon="-1.49734">
        <ele>37.2</ele>
        <time>2024-01-25T13:01:31Z</time>
      </trkpt>
      <trkpt lat="48.85505" lon="-1.49729">
        <ele>37.4</ele>
        <time>2024-01-25T13:01:32Z</time>
      </trkpt>
      <trkpt lat="48.85506" lon="-1.49724">
        <ele>37.7</ele>
        <time>2024-01-25T13:01:33Z</time>
      </trkpt>
      <trkpt lat="48.85506" lon="-1.4972">
        <ele>37.9</ele>
        <time>2024-01-25T13:01:34Z</time>
      </trkpt>
      <trkpt lat="48.85508" lon="-1.49714">
        <ele>38.2</ele>
        <time>2024-01-25T13:01:36Z</time>
      </trkpt>
      <trkpt lat="48.85508" lon="-1.49711">
        <ele>38.4</ele>
        <time>2024-01-25T13:01:37Z</time>
      </trkpt>
      <trkpt lat="48.85508" lon="-1.49706">
        <ele>38.6</ele>
        <time>2024-01-25T13:01:38Z</time>
      </trkpt>
      <trkpt lat="48.85508" lon="-1.49702">
        <ele>38.8</ele>
        <time>2024-01-25T13:01:39Z</time>
      </trkpt>
      <trkpt lat="48.85507" lon="-1.49697">
        <ele>39.1</ele>
        <time>2024-01-25T13:01:40Z</time>
      </trkpt>
      <trkpt lat="48.85507" lon="-1.49695">
        <ele>39.1</ele>
        <time>2024-01-25T13:01:41Z</time>
      </trkpt>
      <trkpt lat="48.85507" lon="-1.49693">
        <ele>39.3</ele>
        <time>2024-01-25T13:01:42Z</time>
      </trkpt>
      <trkpt lat="48.85508" lon="-1.4969">
        <ele>39.4</ele>
        <time>2024-01-25T13:01:43Z</time>
      </trkpt>
      <trkpt lat="48.85507" lon="-1.49689">
        <ele>39.5</ele>
        <time>2024-01-25T13:01:44Z</time>
      </trkpt>
      <trkpt lat="48.85508" lon="-1.49688">
        <ele>39.6</ele>
        <time>2024-01-25T13:01:45Z</time>
      </trkpt>
      <trkpt lat="48.85508" lon="-1.49686">
        <ele>39.6</ele>
        <time>2024-01-25T13:01:46Z</time>
      </trkpt>
      <trkpt lat="48.85508" lon="-1.49686">
        <ele>39.7</ele>
        <time>2024-01-25T13:01:47Z</time>
      </trkpt>
      <trkpt lat="48.85508" lon="-1.49682">
        <ele>39.9</ele>
        <time>2024-01-25T13:01:48Z</time>
      </trkpt>
      <trkpt lat="48.85509" lon="-1.4968">
        <ele>40</ele>
        <time>2024-01-25T13:01:49Z</time>
      </trkpt>
      <trkpt lat="48.85508" lon="-1.49675">
        <ele>40.2</ele>
        <time>2024-01-25T13:01:50Z</time>
      </trkpt>
      <trkpt lat="48.85509" lon="-1.4967">
        <ele>40.4</ele>
        <time>2024-01-25T13:01:51Z</time>
      </trkpt>
      <trkpt lat="48.85509" lon="-1.49668">
        <ele>40.5</ele>
        <time>2024-01-25T13:01:52Z</time>
      </trkpt>
      <trkpt lat="48.8551" lon="-1.49666">
        <ele>40.6</ele>
        <time>2024-01-25T13:01:53Z</time>
      </trkpt>
      <trkpt lat="48.85511" lon="-1.49665">
        <ele>40.7</ele>
        <time>2024-01-25T13:01:54Z</time>
      </trkpt>
      <trkpt lat="48.85513" lon="-1.49661">
        <ele>41</ele>
        <time>2024-01-25T13:01:55Z</time>
      </trkpt>
      <trkpt lat="48.85514" lon="-1.4966">
        <ele>41</ele>
        <time>2024-01-25T13:01:56Z</time>
      </trkpt>
      <trkpt lat="48.85516" lon="-1.49656">
        <ele>41.2</ele>
        <time>2024-01-25T13:01:57Z</time>
      </trkpt>
      <trkpt lat="48.85516" lon="-1.49655">
        <ele>41.3</ele>
        <time>2024-01-25T13:01:58Z</time>
      </trkpt>
      <trkpt lat="48.85519" lon="-1.49652">
        <ele>41.6</ele>
        <time>2024-01-25T13:01:59Z</time>
      </trkpt>
      <trkpt lat="48.85519" lon="-1.4965">
        <ele>41.6</ele>
        <time>2024-01-25T13:02:00Z</time>
      </trkpt>
      <trkpt lat="48.85521" lon="-1.49647">
        <ele>41.9</ele>
        <time>2024-01-25T13:02:01Z</time>
      </trkpt>
      <trkpt lat="48.85522" lon="-1.49647">
        <ele>41.9</ele>
        <time>2024-01-25T13:02:02Z</time>
      </trkpt>
      <trkpt lat="48.85525" lon="-1.49644">
        <ele>42.2</ele>
        <time>2024-01-25T13:02:03Z</time>
      </trkpt>
      <trkpt lat="48.85527" lon="-1.49642">
        <ele>42.4</ele>
        <time>2024-01-25T13:02:04Z</time>
      </trkpt>
      <trkpt lat="48.85531" lon="-1.49639">
        <ele>42.7</ele>
        <time>2024-01-25T13:02:05Z</time>
      </trkpt>
      <trkpt lat="48.85532" lon="-1.49638">
        <ele>42.8</ele>
        <time>2024-01-25T13:02:06Z</time>
      </trkpt>
      <trkpt lat="48.85535" lon="-1.49635">
        <ele>43</ele>
        <time>2024-01-25T13:02:07Z</time>
      </trkpt>
      <trkpt lat="48.85537" lon="-1.49632">
        <ele>43.3</ele>
        <time>2024-01-25T13:02:08Z</time>
      </trkpt>
      <trkpt lat="48.85539" lon="-1.49628">
        <ele>43.6</ele>
        <time>2024-01-25T13:02:09Z</time>
      </trkpt>
      <trkpt lat="48.85542" lon="-1.49623">
        <ele>43.8</ele>
        <time>2024-01-25T13:02:10Z</time>
      </trkpt>
      <trkpt lat="48.85544" lon="-1.4962">
        <ele>44.1</ele>
        <time>2024-01-25T13:02:11Z</time>
      </trkpt>
      <trkpt lat="48.85546" lon="-1.49616">
        <ele>44.3</ele>
        <time>2024-01-25T13:02:12Z</time>
      </trkpt>
      <trkpt lat="48.85549" lon="-1.49612">
        <ele>44.5</ele>
        <time>2024-01-25T13:02:13Z</time>
      </trkpt>
      <trkpt lat="48.85551" lon="-1.49609">
        <ele>44.7</ele>
        <time>2024-01-25T13:02:14Z</time>
      </trkpt>
      <trkpt lat="48.85553" lon="-1.49606">
        <ele>44.9</ele>
        <time>2024-01-25T13:02:15Z</time>
      </trkpt>
      <trkpt lat="48.85556" lon="-1.49602">
        <ele>45.2</ele>
        <time>2024-01-25T13:02:16Z</time>
      </trkpt>
      <trkpt lat="48.85558" lon="-1.49599">
        <ele>45.4</ele>
        <time>2024-01-25T13:02:17Z</time>
      </trkpt>
      <trkpt lat="48.8556" lon="-1.49596">
        <ele>45.6</ele>
        <time>2024-01-25T13:02:18Z</time>
      </trkpt>
      <trkpt lat="48.85563" lon="-1.49593">
        <ele>45.7</ele>
        <time>2024-01-25T13:02:19Z</time>
      </trkpt>
      <trkpt lat="48.85565" lon="-1.4959">
        <ele>45.9</ele>
        <time>2024-01-25T13:02:20Z</time>
      </trkpt>
      <trkpt lat="48.85568" lon="-1.49587">
        <ele>46.1</ele>
        <time>2024-01-25T13:02:21Z</time>
      </trkpt>
      <trkpt lat="48.85572" lon="-1.49585">
        <ele>46.4</ele>
        <time>2024-01-25T13:02:22Z</time>
      </trkpt>
      <trkpt lat="48.85573" lon="-1.49584">
        <ele>46.5</ele>
        <time>2024-01-25T13:02:23Z</time>
      </trkpt>
      <trkpt lat="48.85576" lon="-1.49583">
        <ele>46.7</ele>
        <time>2024-01-25T13:02:24Z</time>
      </trkpt>
      <trkpt lat="48.85579" lon="-1.49579">
        <ele>46.9</ele>
        <time>2024-01-25T13:02:25Z</time>
      </trkpt>
      <trkpt lat="48.8558" lon="-1.49578">
        <ele>47</ele>
        <time>2024-01-25T13:02:26Z</time>
      </trkpt>
      <trkpt lat="48.85583" lon="-1.49576">
        <ele>47.2</ele>
        <time>2024-01-25T13:02:27Z</time>
      </trkpt>
      <trkpt lat="48.85585" lon="-1.49574">
        <ele>47.3</ele>
        <time>2024-01-25T13:02:28Z</time>
      </trkpt>
      <trkpt lat="48.85589" lon="-1.49571">
        <ele>47.5</ele>
        <time>2024-01-25T13:02:29Z</time>
      </trkpt>
      <trkpt lat="48.85591" lon="-1.4957">
        <ele>47.6</ele>
        <time>2024-01-25T13:02:30Z</time>
      </trkpt>
      <trkpt lat="48.85594" lon="-1.49569">
        <ele>47.8</ele>
        <time>2024-01-25T13:02:31Z</time>
      </trkpt>
      <trkpt lat="48.85597" lon="-1.49568">
        <ele>47.9</ele>
        <time>2024-01-25T13:02:32Z</time>
      </trkpt>
      <trkpt lat="48.85601" lon="-1.49566">
        <ele>48.1</ele>
        <time>2024-01-25T13:02:33Z</time>
      </trkpt>
      <trkpt lat="48.85603" lon="-1.49565">
        <ele>48.2</ele>
        <time>2024-01-25T13:02:34Z</time>
      </trkpt>
      <trkpt lat="48.85606" lon="-1.49564">
        <ele>48.4</ele>
        <time>2024-01-25T13:02:35Z</time>
      </trkpt>
      <trkpt lat="48.8561" lon="-1.49562">
        <ele>48.5</ele>
        <time>2024-01-25T13:02:36Z</time>
      </trkpt>
      <trkpt lat="48.85614" lon="-1.4956">
        <ele>48.7</ele>
        <time>2024-01-25T13:02:37Z</time>
      </trkpt>
      <trkpt lat="48.85617" lon="-1.49559">
        <ele>48.8</ele>
        <time>2024-01-25T13:02:38Z</time>
      </trkpt>
      <trkpt lat="48.8562" lon="-1.49557">
        <ele>49</ele>
        <time>2024-01-25T13:02:39Z</time>
      </trkpt>
      <trkpt lat="48.85624" lon="-1.49555">
        <ele>49.1</ele>
        <time>2024-01-25T13:02:40Z</time>
      </trkpt>
      <trkpt lat="48.85627" lon="-1.49552">
        <ele>49.2</ele>
        <time>2024-01-25T13:02:41Z</time>
      </trkpt>
      <trkpt lat="48.85629" lon="-1.4955">
        <ele>49.4</ele>
        <time>2024-01-25T13:02:42Z</time>
      </trkpt>
      <trkpt lat="48.85635" lon="-1.49548">
        <ele>49.6</ele>
        <time>2024-01-25T13:02:44Z</time>
      </trkpt>
      <trkpt lat="48.85642" lon="-1.49545">
        <ele>49.9</ele>
        <time>2024-01-25T13:02:46Z</time>
      </trkpt>
      <trkpt lat="48.85647" lon="-1.49542">
        <ele>50.1</ele>
        <time>2024-01-25T13:02:48Z</time>
      </trkpt>
      <trkpt lat="48.85651" lon="-1.49541">
        <ele>50.2</ele>
        <time>2024-01-25T13:02:49Z</time>
      </trkpt>
      <trkpt lat="48.85654" lon="-1.49539">
        <ele>50.4</ele>
        <time>2024-01-25T13:02:50Z</time>
      </trkpt>
      <trkpt lat="48.85656" lon="-1.49536">
        <ele>50.5</ele>
        <time>2024-01-25T13:02:51Z</time>
      </trkpt>
      <trkpt lat="48.8566" lon="-1.49534">
        <ele>50.6</ele>
        <time>2024-01-25T13:02:52Z</time>
      </trkpt>
      <trkpt lat="48.85664" lon="-1.49532">
        <ele>50.8</ele>
        <time>2024-01-25T13:02:53Z</time>
      </trkpt>
      <trkpt lat="48.85667" lon="-1.4953">
        <ele>50.9</ele>
        <time>2024-01-25T13:02:54Z</time>
      </trkpt>
      <trkpt lat="48.85671" lon="-1.49527">
        <ele>51</ele>
        <time>2024-01-25T13:02:55Z</time>
      </trkpt>
      <trkpt lat="48.85674" lon="-1.49524">
        <ele>51.2</ele>
        <time>2024-01-25T13:02:56Z</time>
      </trkpt>
      <trkpt lat="48.85677" lon="-1.49523">
        <ele>51.3</ele>
        <time>2024-01-25T13:02:57Z</time>
      </trkpt>
      <trkpt lat="48.85681" lon="-1.49521">
        <ele>51.4</ele>
        <time>2024-01-25T13:02:58Z</time>
      </trkpt>
      <trkpt lat="48.85682" lon="-1.49521">
        <ele>51.4</ele>
        <time>2024-01-25T13:02:59Z</time>
      </trkpt>
      <trkpt lat="48.85685" lon="-1.4952">
        <ele>51.5</ele>
        <time>2024-01-25T13:03:00Z</time>
      </trkpt>
      <trkpt lat="48.85686" lon="-1.49519">
        <ele>51.6</ele>
        <time>2024-01-25T13:03:01Z</time>
      </trkpt>
      <trkpt lat="48.8569" lon="-1.4952">
        <ele>51.7</ele>
        <time>2024-01-25T13:03:02Z</time>
      </trkpt>
      <trkpt lat="48.85691" lon="-1.4952">
        <ele>51.7</ele>
        <time>2024-01-25T13:03:03Z</time>
      </trkpt>
      <trkpt lat="48.85694" lon="-1.49519">
        <ele>51.8</ele>
        <time>2024-01-25T13:03:04Z</time>
      </trkpt>
      <trkpt lat="48.85698" lon="-1.49518">
        <ele>51.9</ele>
        <time>2024-01-25T13:03:05Z</time>
      </trkpt>
      <trkpt lat="48.85701" lon="-1.49517">
        <ele>52</ele>
        <time>2024-01-25T13:03:06Z</time>
      </trkpt>
      <trkpt lat="48.85705" lon="-1.49516">
        <ele>52.1</ele>
        <time>2024-01-25T13:03:07Z</time>
      </trkpt>
      <trkpt lat="48.85708" lon="-1.49515">
        <ele>52.2</ele>
        <time>2024-01-25T13:03:08Z</time>
      </trkpt>
      <trkpt lat="48.85711" lon="-1.49514">
        <ele>52.2</ele>
        <time>2024-01-25T13:03:09Z</time>
      </trkpt>
      <trkpt lat="48.85714" lon="-1.49513">
        <ele>52.3</ele>
        <time>2024-01-25T13:03:10Z</time>
      </trkpt>
      <trkpt lat="48.85717" lon="-1.49512">
        <ele>52.4</ele>
        <time>2024-01-25T13:03:11Z</time>
      </trkpt>
      <trkpt lat="48.8572" lon="-1.49509">
        <ele>52.5</ele>
        <time>2024-01-25T13:03:12Z</time>
      </trkpt>
      <trkpt lat="48.85722" lon="-1.49508">
        <ele>52.5</ele>
        <time>2024-01-25T13:03:13Z</time>
      </trkpt>
      <trkpt lat="48.85725" lon="-1.49506">
        <ele>52.6</ele>
        <time>2024-01-25T13:03:14Z</time>
      </trkpt>
      <trkpt lat="48.85728" lon="-1.49504">
        <ele>52.7</ele>
        <time>2024-01-25T13:03:15Z</time>
      </trkpt>
      <trkpt lat="48.85732" lon="-1.49502">
        <ele>52.8</ele>
        <time>2024-01-25T13:03:16Z</time>
      </trkpt>
      <trkpt lat="48.85735" lon="-1.495">
        <ele>52.8</ele>
        <time>2024-01-25T13:03:17Z</time>
      </trkpt>
      <trkpt lat="48.85739" lon="-1.49497">
        <ele>52.9</ele>
        <time>2024-01-25T13:03:18Z</time>
      </trkpt>
      <trkpt lat="48.85742" lon="-1.49494">
        <ele>53</ele>
        <time>2024-01-25T13:03:19Z</time>
      </trkpt>
      <trkpt lat="48.85746" lon="-1.49491">
        <ele>53.1</ele>
        <time>2024-01-25T13:03:20Z</time>
      </trkpt>
      <trkpt lat="48.8575" lon="-1.49489">
        <ele>53.2</ele>
        <time>2024-01-25T13:03:21Z</time>
      </trkpt>
      <trkpt lat="48.85755" lon="-1.49486">
        <ele>53.3</ele>
        <time>2024-01-25T13:03:22Z</time>
      </trkpt>
      <trkpt lat="48.85759" lon="-1.49483">
        <ele>53.4</ele>
        <time>2024-01-25T13:03:23Z</time>
      </trkpt>
      <trkpt lat="48.85762" lon="-1.4948">
        <ele>53.5</ele>
        <time>2024-01-25T13:03:24Z</time>
      </trkpt>
      <trkpt lat="48.85766" lon="-1.49477">
        <ele>53.5</ele>
        <time>2024-01-25T13:03:25Z</time>
      </trkpt>
      <trkpt lat="48.85769" lon="-1.49473">
        <ele>53.5</ele>
        <time>2024-01-25T13:03:26Z</time>
      </trkpt>
      <trkpt lat="48.85773" lon="-1.4947">
        <ele>53.5</ele>
        <time>2024-01-25T13:03:27Z</time>
      </trkpt>
      <trkpt lat="48.85777" lon="-1.49466">
        <ele>53.6</ele>
        <time>2024-01-25T13:03:28Z</time>
      </trkpt>
      <trkpt lat="48.8578" lon="-1.49462">
        <ele>53.6</ele>
        <time>2024-01-25T13:03:29Z</time>
      </trkpt>
      <trkpt lat="48.85783" lon="-1.49458">
        <ele>53.7</ele>
        <time>2024-01-25T13:03:30Z</time>
      </trkpt>
      <trkpt lat="48.85787" lon="-1.49455">
        <ele>53.7</ele>
        <time>2024-01-25T13:03:31Z</time>
      </trkpt>
      <trkpt lat="48.85791" lon="-1.49451">
        <ele>53.8</ele>
        <time>2024-01-25T13:03:32Z</time>
      </trkpt>
      <trkpt lat="48.85794" lon="-1.49448">
        <ele>53.8</ele>
        <time>2024-01-25T13:03:33Z</time>
      </trkpt>
      <trkpt lat="48.85797" lon="-1.49445">
        <ele>53.9</ele>
        <time>2024-01-25T13:03:34Z</time>
      </trkpt>
      <trkpt lat="48.85801" lon="-1.49442">
        <ele>54</ele>
        <time>2024-01-25T13:03:35Z</time>
      </trkpt>
      <trkpt lat="48.85804" lon="-1.49438">
        <ele>54.1</ele>
        <time>2024-01-25T13:03:36Z</time>
      </trkpt>
      <trkpt lat="48.85807" lon="-1.49435">
        <ele>54.2</ele>
        <time>2024-01-25T13:03:37Z</time>
      </trkpt>
      <trkpt lat="48.85811" lon="-1.49433">
        <ele>54.3</ele>
        <time>2024-01-25T13:03:38Z</time>
      </trkpt>
      <trkpt lat="48.85814" lon="-1.4943">
        <ele>54.4</ele>
        <time>2024-01-25T13:03:39Z</time>
      </trkpt>
      <trkpt lat="48.85818" lon="-1.49428">
        <ele>54.5</ele>
        <time>2024-01-25T13:03:40Z</time>
      </trkpt>
      <trkpt lat="48.85821" lon="-1.49424">
        <ele>54.6</ele>
        <time>2024-01-25T13:03:41Z</time>
      </trkpt>
      <trkpt lat="48.85824" lon="-1.49422">
        <ele>54.6</ele>
        <time>2024-01-25T13:03:42Z</time>
      </trkpt>
      <trkpt lat="48.85829" lon="-1.4942">
        <ele>54.7</ele>
        <time>2024-01-25T13:03:43Z</time>
      </trkpt>
      <trkpt lat="48.85832" lon="-1.49418">
        <ele>54.8</ele>
        <time>2024-01-25T13:03:44Z</time>
      </trkpt>
      <trkpt lat="48.85835" lon="-1.49416">
        <ele>54.8</ele>
        <time>2024-01-25T13:03:45Z</time>
      </trkpt>
      <trkpt lat="48.85839" lon="-1.49415">
        <ele>54.9</ele>
        <time>2024-01-25T13:03:46Z</time>
      </trkpt>
      <trkpt lat="48.85842" lon="-1.49412">
        <ele>54.9</ele>
        <time>2024-01-25T13:03:47Z</time>
      </trkpt>
      <trkpt lat="48.85846" lon="-1.49409">
        <ele>55</ele>
        <time>2024-01-25T13:03:48Z</time>
      </trkpt>
      <trkpt lat="48.8585" lon="-1.49406">
        <ele>55.1</ele>
        <time>2024-01-25T13:03:49Z</time>
      </trkpt>
      <trkpt lat="48.85853" lon="-1.49403">
        <ele>55.1</ele>
        <time>2024-01-25T13:03:50Z</time>
      </trkpt>
      <trkpt lat="48.85857" lon="-1.49399">
        <ele>55.2</ele>
        <time>2024-01-25T13:03:51Z</time>
      </trkpt>
      <trkpt lat="48.85861" lon="-1.49396">
        <ele>55.3</ele>
        <time>2024-01-25T13:03:52Z</time>
      </trkpt>
      <trkpt lat="48.85863" lon="-1.49393">
        <ele>55.3</ele>
        <time>2024-01-25T13:03:53Z</time>
      </trkpt>
      <trkpt lat="48.85867" lon="-1.4939">
        <ele>55.4</ele>
        <time>2024-01-25T13:03:54Z</time>
      </trkpt>
      <trkpt lat="48.85871" lon="-1.49387">
        <ele>55.5</ele>
        <time>2024-01-25T13:03:55Z</time>
      </trkpt>
      <trkpt lat="48.85874" lon="-1.49383">
        <ele>55.6</ele>
        <time>2024-01-25T13:03:56Z</time>
      </trkpt>
      <trkpt lat="48.85877" lon="-1.4938">
        <ele>55.7</ele>
        <time>2024-01-25T13:03:57Z</time>
      </trkpt>
      <trkpt lat="48.85881" lon="-1.49375">
        <ele>55.8</ele>
        <time>2024-01-25T13:03:58Z</time>
      </trkpt>
      <trkpt lat="48.85884" lon="-1.4937">
        <ele>55.9</ele>
        <time>2024-01-25T13:03:59Z</time>
      </trkpt>
      <trkpt lat="48.85887" lon="-1.49366">
        <ele>56</ele>
        <time>2024-01-25T13:04:00Z</time>
      </trkpt>
      <trkpt lat="48.8589" lon="-1.49362">
        <ele>56.1</ele>
        <time>2024-01-25T13:04:01Z</time>
      </trkpt>
      <trkpt lat="48.85893" lon="-1.49356">
        <ele>56.2</ele>
        <time>2024-01-25T13:04:02Z</time>
      </trkpt>
      <trkpt lat="48.85895" lon="-1.49352">
        <ele>56.3</ele>
        <time>2024-01-25T13:04:03Z</time>
      </trkpt>
      <trkpt lat="48.85899" lon="-1.49345">
        <ele>56.4</ele>
        <time>2024-01-25T13:04:04Z</time>
      </trkpt>
      <trkpt lat="48.85902" lon="-1.4934">
        <ele>56.5</ele>
        <time>2024-01-25T13:04:06Z</time>
      </trkpt>
      <trkpt lat="48.85906" lon="-1.49331">
        <ele>56.7</ele>
        <time>2024-01-25T13:04:07Z</time>
      </trkpt>
      <trkpt lat="48.85909" lon="-1.49326">
        <ele>56.8</ele>
        <time>2024-01-25T13:04:08Z</time>
      </trkpt>
      <trkpt lat="48.85911" lon="-1.49321">
        <ele>56.9</ele>
        <time>2024-01-25T13:04:09Z</time>
      </trkpt>
      <trkpt lat="48.85914" lon="-1.49315">
        <ele>57</ele>
        <time>2024-01-25T13:04:10Z</time>
      </trkpt>
      <trkpt lat="48.85916" lon="-1.49309">
        <ele>57.1</ele>
        <time>2024-01-25T13:04:11Z</time>
      </trkpt>
      <trkpt lat="48.85919" lon="-1.49304">
        <ele>57.2</ele>
        <time>2024-01-25T13:04:12Z</time>
      </trkpt>
      <trkpt lat="48.85922" lon="-1.49299">
        <ele>57.3</ele>
        <time>2024-01-25T13:04:13Z</time>
      </trkpt>
      <trkpt lat="48.85925" lon="-1.49294">
        <ele>57.4</ele>
        <time>2024-01-25T13:04:14Z</time>
      </trkpt>
      <trkpt lat="48.85928" lon="-1.49289">
        <ele>57.4</ele>
        <time>2024-01-25T13:04:15Z</time>
      </trkpt>
      <trkpt lat="48.85932" lon="-1.49284">
        <ele>57.5</ele>
        <time>2024-01-25T13:04:16Z</time>
      </trkpt>
      <trkpt lat="48.85936" lon="-1.4928">
        <ele>57.5</ele>
        <time>2024-01-25T13:04:17Z</time>
      </trkpt>
      <trkpt lat="48.8594" lon="-1.49276">
        <ele>57.5</ele>
        <time>2024-01-25T13:04:18Z</time>
      </trkpt>
      <trkpt lat="48.85943" lon="-1.49273">
        <ele>57.5</ele>
        <time>2024-01-25T13:04:19Z</time>
      </trkpt>
      <trkpt lat="48.85947" lon="-1.4927">
        <ele>57.5</ele>
        <time>2024-01-25T13:04:20Z</time>
      </trkpt>
      <trkpt lat="48.85951" lon="-1.49267">
        <ele>57.5</ele>
        <time>2024-01-25T13:04:21Z</time>
      </trkpt>
      <trkpt lat="48.85955" lon="-1.49264">
        <ele>57.5</ele>
        <time>2024-01-25T13:04:22Z</time>
      </trkpt>
      <trkpt lat="48.85959" lon="-1.49261">
        <ele>57.5</ele>
        <time>2024-01-25T13:04:23Z</time>
      </trkpt>
      <trkpt lat="48.85963" lon="-1.49258">
        <ele>57.5</ele>
        <time>2024-01-25T13:04:24Z</time>
      </trkpt>
      <trkpt lat="48.85966" lon="-1.49256">
        <ele>57.5</ele>
        <time>2024-01-25T13:04:25Z</time>
      </trkpt>
      <trkpt lat="48.8597" lon="-1.49253">
        <ele>57.4</ele>
        <time>2024-01-25T13:04:26Z</time>
      </trkpt>
      <trkpt lat="48.85973" lon="-1.4925">
        <ele>57.4</ele>
        <time>2024-01-25T13:04:27Z</time>
      </trkpt>
      <trkpt lat="48.85976" lon="-1.49247">
        <ele>57.4</ele>
        <time>2024-01-25T13:04:28Z</time>
      </trkpt>
      <trkpt lat="48.85979" lon="-1.49245">
        <ele>57.4</ele>
        <time>2024-01-25T13:04:29Z</time>
      </trkpt>
      <trkpt lat="48.85984" lon="-1.49242">
        <ele>57.3</ele>
        <time>2024-01-25T13:04:30Z</time>
      </trkpt>
      <trkpt lat="48.85988" lon="-1.4924">
        <ele>57.3</ele>
        <time>2024-01-25T13:04:31Z</time>
      </trkpt>
      <trkpt lat="48.85992" lon="-1.49238">
        <ele>57.2</ele>
        <time>2024-01-25T13:04:32Z</time>
      </trkpt>
      <trkpt lat="48.85996" lon="-1.49237">
        <ele>57.1</ele>
        <time>2024-01-25T13:04:33Z</time>
      </trkpt>
      <trkpt lat="48.86001" lon="-1.49238">
        <ele>57</ele>
        <time>2024-01-25T13:04:34Z</time>
      </trkpt>
      <trkpt lat="48.86006" lon="-1.49241">
        <ele>56.9</ele>
        <time>2024-01-25T13:04:35Z</time>
      </trkpt>
      <trkpt lat="48.8601" lon="-1.49245">
        <ele>56.7</ele>
        <time>2024-01-25T13:04:36Z</time>
      </trkpt>
      <trkpt lat="48.86013" lon="-1.4925">
        <ele>56.6</ele>
        <time>2024-01-25T13:04:37Z</time>
      </trkpt>
      <trkpt lat="48.86016" lon="-1.49256">
        <ele>56.4</ele>
        <time>2024-01-25T13:04:38Z</time>
      </trkpt>
      <trkpt lat="48.86019" lon="-1.49262">
        <ele>56.2</ele>
        <time>2024-01-25T13:04:39Z</time>
      </trkpt>
      <trkpt lat="48.86022" lon="-1.49269">
        <ele>56</ele>
        <time>2024-01-25T13:04:40Z</time>
      </trkpt>
      <trkpt lat="48.86025" lon="-1.49277">
        <ele>55.8</ele>
        <time>2024-01-25T13:04:41Z</time>
      </trkpt>
      <trkpt lat="48.86027" lon="-1.49284">
        <ele>55.6</ele>
        <time>2024-01-25T13:04:42Z</time>
      </trkpt>
      <trkpt lat="48.86029" lon="-1.49293">
        <ele>55.4</ele>
        <time>2024-01-25T13:04:43Z</time>
      </trkpt>
      <trkpt lat="48.86032" lon="-1.49301">
        <ele>55.2</ele>
        <time>2024-01-25T13:04:44Z</time>
      </trkpt>
      <trkpt lat="48.86034" lon="-1.49309">
        <ele>55</ele>
        <time>2024-01-25T13:04:45Z</time>
      </trkpt>
      <trkpt lat="48.86037" lon="-1.49318">
        <ele>54.8</ele>
        <time>2024-01-25T13:04:46Z</time>
      </trkpt>
      <trkpt lat="48.86041" lon="-1.49325">
        <ele>54.6</ele>
        <time>2024-01-25T13:04:47Z</time>
      </trkpt>
      <trkpt lat="48.86047" lon="-1.49332">
        <ele>54.4</ele>
        <time>2024-01-25T13:04:48Z</time>
      </trkpt>
      <trkpt lat="48.86053" lon="-1.49336">
        <ele>54.2</ele>
        <time>2024-01-25T13:04:49Z</time>
      </trkpt>
      <trkpt lat="48.8606" lon="-1.49336">
        <ele>54</ele>
        <time>2024-01-25T13:04:50Z</time>
      </trkpt>
      <trkpt lat="48.86066" lon="-1.49333">
        <ele>53.8</ele>
        <time>2024-01-25T13:04:51Z</time>
      </trkpt>
      <trkpt lat="48.86072" lon="-1.49328">
        <ele>53.6</ele>
        <time>2024-01-25T13:04:52Z</time>
      </trkpt>
      <trkpt lat="48.86078" lon="-1.49323">
        <ele>53.5</ele>
        <time>2024-01-25T13:04:53Z</time>
      </trkpt>
      <trkpt lat="48.86085" lon="-1.49319">
        <ele>53.3</ele>
        <time>2024-01-25T13:04:54Z</time>
      </trkpt>
      <trkpt lat="48.86091" lon="-1.49315">
        <ele>53.1</ele>
        <time>2024-01-25T13:04:55Z</time>
      </trkpt>
      <trkpt lat="48.86097" lon="-1.49312">
        <ele>53</ele>
        <time>2024-01-25T13:04:56Z</time>
      </trkpt>
      <trkpt lat="48.86103" lon="-1.49308">
        <ele>52.9</ele>
        <time>2024-01-25T13:04:57Z</time>
      </trkpt>
      <trkpt lat="48.8611" lon="-1.49304">
        <ele>52.8</ele>
        <time>2024-01-25T13:04:58Z</time>
      </trkpt>
      <trkpt lat="48.86117" lon="-1.49302">
        <ele>52.7</ele>
        <time>2024-01-25T13:04:59Z</time>
      </trkpt>
      <trkpt lat="48.86123" lon="-1.49299">
        <ele>52.6</ele>
        <time>2024-01-25T13:05:00Z</time>
      </trkpt>
      <trkpt lat="48.8613" lon="-1.49297">
        <ele>52.5</ele>
        <time>2024-01-25T13:05:01Z</time>
      </trkpt>
      <trkpt lat="48.86136" lon="-1.49297">
        <ele>52.4</ele>
        <time>2024-01-25T13:05:02Z</time>
      </trkpt>
      <trkpt lat="48.86142" lon="-1.49298">
        <ele>52.4</ele>
        <time>2024-01-25T13:05:03Z</time>
      </trkpt>
      <trkpt lat="48.86149" lon="-1.49299">
        <ele>52.4</ele>
        <time>2024-01-25T13:05:04Z</time>
      </trkpt>
      <trkpt lat="48.86155" lon="-1.49301">
        <ele>52.4</ele>
        <time>2024-01-25T13:05:05Z</time>
      </trkpt>
      <trkpt lat="48.86161" lon="-1.49304">
        <ele>52.4</ele>
        <time>2024-01-25T13:05:06Z</time>
      </trkpt>
      <trkpt lat="48.86167" lon="-1.49307">
        <ele>52.5</ele>
        <time>2024-01-25T13:05:07Z</time>
      </trkpt>
      <trkpt lat="48.86173" lon="-1.4931">
        <ele>52.5</ele>
        <time>2024-01-25T13:05:08Z</time>
      </trkpt>
      <trkpt lat="48.86179" lon="-1.49313">
        <ele>52.6</ele>
        <time>2024-01-25T13:05:09Z</time>
      </trkpt>
      <trkpt lat="48.86185" lon="-1.49315">
        <ele>52.6</ele>
        <time>2024-01-25T13:05:10Z</time>
      </trkpt>
      <trkpt lat="48.86191" lon="-1.49318">
        <ele>52.7</ele>
        <time>2024-01-25T13:05:11Z</time>
      </trkpt>
      <trkpt lat="48.86196" lon="-1.49321">
        <ele>52.8</ele>
        <time>2024-01-25T13:05:12Z</time>
      </trkpt>
      <trkpt lat="48.86202" lon="-1.49325">
        <ele>52.8</ele>
        <time>2024-01-25T13:05:13Z</time>
      </trkpt>
      <trkpt lat="48.86206" lon="-1.49327">
        <ele>52.9</ele>
        <time>2024-01-25T13:05:14Z</time>
      </trkpt>
      <trkpt lat="48.86211" lon="-1.4933">
        <ele>53</ele>
        <time>2024-01-25T13:05:15Z</time>
      </trkpt>
      <trkpt lat="48.86216" lon="-1.49331">
        <ele>53</ele>
        <time>2024-01-25T13:05:16Z</time>
      </trkpt>
      <trkpt lat="48.86221" lon="-1.49332">
        <ele>53.1</ele>
        <time>2024-01-25T13:05:17Z</time>
      </trkpt>
      <trkpt lat="48.86225" lon="-1.49333">
        <ele>53.2</ele>
        <time>2024-01-25T13:05:18Z</time>
      </trkpt>
      <trkpt lat="48.86229" lon="-1.49332">
        <ele>53.3</ele>
        <time>2024-01-25T13:05:19Z</time>
      </trkpt>
      <trkpt lat="48.86233" lon="-1.49331">
        <ele>53.4</ele>
        <time>2024-01-25T13:05:20Z</time>
      </trkpt>
      <trkpt lat="48.86237" lon="-1.49328">
        <ele>53.5</ele>
        <time>2024-01-25T13:05:21Z</time>
      </trkpt>
      <trkpt lat="48.86241" lon="-1.49325">
        <ele>53.6</ele>
        <time>2024-01-25T13:05:22Z</time>
      </trkpt>
      <trkpt lat="48.86245" lon="-1.49321">
        <ele>53.7</ele>
        <time>2024-01-25T13:05:23Z</time>
      </trkpt>
      <trkpt lat="48.86249" lon="-1.49317">
        <ele>53.9</ele>
        <time>2024-01-25T13:05:24Z</time>
      </trkpt>
      <trkpt lat="48.86251" lon="-1.49315">
        <ele>53.9</ele>
        <time>2024-01-25T13:05:25Z</time>
      </trkpt>
      <trkpt lat="48.86255" lon="-1.49312">
        <ele>54.1</ele>
        <time>2024-01-25T13:05:26Z</time>
      </trkpt>
      <trkpt lat="48.86259" lon="-1.49309">
        <ele>54.2</ele>
        <time>2024-01-25T13:05:27Z</time>
      </trkpt>
      <trkpt lat="48.86264" lon="-1.49306">
        <ele>54.3</ele>
        <time>2024-01-25T13:05:28Z</time>
      </trkpt>
      <trkpt lat="48.86267" lon="-1.49303">
        <ele>54.5</ele>
        <time>2024-01-25T13:05:29Z</time>
      </trkpt>
      <trkpt lat="48.86271" lon="-1.49301">
        <ele>54.6</ele>
        <time>2024-01-25T13:05:31Z</time>
      </trkpt>
      <trkpt lat="48.86273" lon="-1.49299">
        <ele>54.6</ele>
        <time>2024-01-25T13:05:32Z</time>
      </trkpt>
      <trkpt lat="48.86278" lon="-1.49294">
        <ele>54.8</ele>
        <time>2024-01-25T13:05:33Z</time>
      </trkpt>
      <trkpt lat="48.86281" lon="-1.49291">
        <ele>54.9</ele>
        <time>2024-01-25T13:05:34Z</time>
      </trkpt>
      <trkpt lat="48.86284" lon="-1.49289">
        <ele>55</ele>
        <time>2024-01-25T13:05:35Z</time>
      </trkpt>
      <trkpt lat="48.86288" lon="-1.49287">
        <ele>55.1</ele>
        <time>2024-01-25T13:05:36Z</time>
      </trkpt>
      <trkpt lat="48.8629" lon="-1.49286">
        <ele>55.2</ele>
        <time>2024-01-25T13:05:37Z</time>
      </trkpt>
      <trkpt lat="48.86293" lon="-1.49283">
        <ele>55.3</ele>
        <time>2024-01-25T13:05:38Z</time>
      </trkpt>
      <trkpt lat="48.86294" lon="-1.49282">
        <ele>55.3</ele>
        <time>2024-01-25T13:05:39Z</time>
      </trkpt>
      <trkpt lat="48.86296" lon="-1.49277">
        <ele>55.4</ele>
        <time>2024-01-25T13:05:40Z</time>
      </trkpt>
      <trkpt lat="48.86296" lon="-1.49274">
        <ele>55.4</ele>
        <time>2024-01-25T13:05:41Z</time>
      </trkpt>
      <trkpt lat="48.86297" lon="-1.49268">
        <ele>55.5</ele>
        <time>2024-01-25T13:05:42Z</time>
      </trkpt>
      <trkpt lat="48.86296" lon="-1.4926">
        <ele>55.4</ele>
        <time>2024-01-25T13:05:43Z</time>
      </trkpt>
      <trkpt lat="48.86295" lon="-1.49248">
        <ele>55.2</ele>
        <time>2024-01-25T13:05:44Z</time>
      </trkpt>
      <trkpt lat="48.86293" lon="-1.49239">
        <ele>55.2</ele>
        <time>2024-01-25T13:05:45Z</time>
      </trkpt>
      <trkpt lat="48.86291" lon="-1.49231">
        <ele>55.2</ele>
        <time>2024-01-25T13:05:46Z</time>
      </trkpt>
      <trkpt lat="48.86288" lon="-1.49222">
        <ele>55.2</ele>
        <time>2024-01-25T13:05:47Z</time>
      </trkpt>
      <trkpt lat="48.86287" lon="-1.49214">
        <ele>55.3</ele>
        <time>2024-01-25T13:05:48Z</time>
      </trkpt>
      <trkpt lat="48.86285" lon="-1.49207">
        <ele>55.3</ele>
        <time>2024-01-25T13:05:49Z</time>
      </trkpt>
      <trkpt lat="48.86284" lon="-1.492">
        <ele>55.4</ele>
        <time>2024-01-25T13:05:50Z</time>
      </trkpt>
      <trkpt lat="48.86283" lon="-1.49193">
        <ele>55.4</ele>
        <time>2024-01-25T13:05:51Z</time>
      </trkpt>
      <trkpt lat="48.86281" lon="-1.49186">
        <ele>55.5</ele>
        <time>2024-01-25T13:05:52Z</time>
      </trkpt>
      <trkpt lat="48.86279" lon="-1.49179">
        <ele>55.5</ele>
        <time>2024-01-25T13:05:53Z</time>
      </trkpt>
      <trkpt lat="48.86278" lon="-1.49172">
        <ele>55.5</ele>
        <time>2024-01-25T13:05:54Z</time>
      </trkpt>
      <trkpt lat="48.86276" lon="-1.49165">
        <ele>55.5</ele>
        <time>2024-01-25T13:05:55Z</time>
      </trkpt>
      <trkpt lat="48.86275" lon="-1.49158">
        <ele>55.5</ele>
        <time>2024-01-25T13:05:56Z</time>
      </trkpt>
      <trkpt lat="48.86274" lon="-1.49151">
        <ele>55.6</ele>
        <time>2024-01-25T13:05:57Z</time>
      </trkpt>
      <trkpt lat="48.86273" lon="-1.49144">
        <ele>55.7</ele>
        <time>2024-01-25T13:05:58Z</time>
      </trkpt>
      <trkpt lat="48.86273" lon="-1.49137">
        <ele>55.8</ele>
        <time>2024-01-25T13:05:59Z</time>
      </trkpt>
      <trkpt lat="48.86272" lon="-1.4913">
        <ele>55.9</ele>
        <time>2024-01-25T13:06:00Z</time>
      </trkpt>
      <trkpt lat="48.86272" lon="-1.49123">
        <ele>56</ele>
        <time>2024-01-25T13:06:01Z</time>
      </trkpt>
      <trkpt lat="48.86272" lon="-1.49116">
        <ele>56.1</ele>
        <time>2024-01-25T13:06:02Z</time>
      </trkpt>
      <trkpt lat="48.86272" lon="-1.49109">
        <ele>56.2</ele>
        <time>2024-01-25T13:06:03Z</time>
      </trkpt>
      <trkpt lat="48.86273" lon="-1.49102">
        <ele>56.3</ele>
        <time>2024-01-25T13:06:04Z</time>
      </trkpt>
      <trkpt lat="48.86273" lon="-1.49095">
        <ele>56.4</ele>
        <time>2024-01-25T13:06:05Z</time>
      </trkpt>
      <trkpt lat="48.86272" lon="-1.49088">
        <ele>56.5</ele>
        <time>2024-01-25T13:06:06Z</time>
      </trkpt>
      <trkpt lat="48.86272" lon="-1.49081">
        <ele>56.7</ele>
        <time>2024-01-25T13:06:07Z</time>
      </trkpt>
      <trkpt lat="48.86272" lon="-1.49074">
        <ele>56.8</ele>
        <time>2024-01-25T13:06:08Z</time>
      </trkpt>
      <trkpt lat="48.86273" lon="-1.49068">
        <ele>56.9</ele>
        <time>2024-01-25T13:06:09Z</time>
      </trkpt>
      <trkpt lat="48.86273" lon="-1.49061">
        <ele>57.1</ele>
        <time>2024-01-25T13:06:10Z</time>
      </trkpt>
      <trkpt lat="48.86273" lon="-1.49055">
        <ele>57.2</ele>
        <time>2024-01-25T13:06:12Z</time>
      </trkpt>
      <trkpt lat="48.86273" lon="-1.4905">
        <ele>57.4</ele>
        <time>2024-01-25T13:06:13Z</time>
      </trkpt>
      <trkpt lat="48.86274" lon="-1.4904">
        <ele>57.6</ele>
        <time>2024-01-25T13:06:14Z</time>
      </trkpt>
      <trkpt lat="48.86275" lon="-1.49034">
        <ele>57.8</ele>
        <time>2024-01-25T13:06:15Z</time>
      </trkpt>
      <trkpt lat="48.86276" lon="-1.49029">
        <ele>58</ele>
        <time>2024-01-25T13:06:16Z</time>
      </trkpt>
      <trkpt lat="48.86276" lon="-1.49023">
        <ele>58.2</ele>
        <time>2024-01-25T13:06:17Z</time>
      </trkpt>
      <trkpt lat="48.86277" lon="-1.49017">
        <ele>58.4</ele>
        <time>2024-01-25T13:06:18Z</time>
      </trkpt>
      <trkpt lat="48.86278" lon="-1.49012">
        <ele>58.6</ele>
        <time>2024-01-25T13:06:19Z</time>
      </trkpt>
      <trkpt lat="48.86279" lon="-1.49006">
        <ele>58.8</ele>
        <time>2024-01-25T13:06:20Z</time>
      </trkpt>
      <trkpt lat="48.86279" lon="-1.49">
        <ele>59.1</ele>
        <time>2024-01-25T13:06:21Z</time>
      </trkpt>
      <trkpt lat="48.8628" lon="-1.48994">
        <ele>59.3</ele>
        <time>2024-01-25T13:06:22Z</time>
      </trkpt>
      <trkpt lat="48.8628" lon="-1.48989">
        <ele>59.5</ele>
        <time>2024-01-25T13:06:23Z</time>
      </trkpt>
      <trkpt lat="48.8628" lon="-1.48984">
        <ele>59.7</ele>
        <time>2024-01-25T13:06:24Z</time>
      </trkpt>
      <trkpt lat="48.86279" lon="-1.48979">
        <ele>59.9</ele>
        <time>2024-01-25T13:06:25Z</time>
      </trkpt>
      <trkpt lat="48.86279" lon="-1.48973">
        <ele>60.1</ele>
        <time>2024-01-25T13:06:26Z</time>
      </trkpt>
      <trkpt lat="48.86279" lon="-1.48967">
        <ele>60.3</ele>
        <time>2024-01-25T13:06:27Z</time>
      </trkpt>
      <trkpt lat="48.8628" lon="-1.48963">
        <ele>60.5</ele>
        <time>2024-01-25T13:06:28Z</time>
      </trkpt>
      <trkpt lat="48.8628" lon="-1.48955">
        <ele>60.7</ele>
        <time>2024-01-25T13:06:29Z</time>
      </trkpt>
      <trkpt lat="48.86279" lon="-1.4895">
        <ele>60.9</ele>
        <time>2024-01-25T13:06:30Z</time>
      </trkpt>
      <trkpt lat="48.86277" lon="-1.48945">
        <ele>61</ele>
        <time>2024-01-25T13:06:31Z</time>
      </trkpt>
      <trkpt lat="48.86276" lon="-1.4894">
        <ele>61.2</ele>
        <time>2024-01-25T13:06:32Z</time>
      </trkpt>
      <trkpt lat="48.86274" lon="-1.48935">
        <ele>61.3</ele>
        <time>2024-01-25T13:06:33Z</time>
      </trkpt>
      <trkpt lat="48.86272" lon="-1.48929">
        <ele>61.5</ele>
        <time>2024-01-25T13:06:34Z</time>
      </trkpt>
      <trkpt lat="48.86271" lon="-1.48925">
        <ele>61.6</ele>
        <time>2024-01-25T13:06:35Z</time>
      </trkpt>
      <trkpt lat="48.86269" lon="-1.4892">
        <ele>61.7</ele>
        <time>2024-01-25T13:06:36Z</time>
      </trkpt>
      <trkpt lat="48.86268" lon="-1.48916">
        <ele>61.8</ele>
        <time>2024-01-25T13:06:37Z</time>
      </trkpt>
      <trkpt lat="48.86267" lon="-1.4891">
        <ele>62</ele>
        <time>2024-01-25T13:06:38Z</time>
      </trkpt>
      <trkpt lat="48.86267" lon="-1.48906">
        <ele>62</ele>
        <time>2024-01-25T13:06:39Z</time>
      </trkpt>
      <trkpt lat="48.86266" lon="-1.48901">
        <ele>62.2</ele>
        <time>2024-01-25T13:06:40Z</time>
      </trkpt>
      <trkpt lat="48.86265" lon="-1.48897">
        <ele>62.2</ele>
        <time>2024-01-25T13:06:41Z</time>
      </trkpt>
      <trkpt lat="48.86264" lon="-1.48892">
        <ele>62.3</ele>
        <time>2024-01-25T13:06:42Z</time>
      </trkpt>
      <trkpt lat="48.86263" lon="-1.48888">
        <ele>62.4</ele>
        <time>2024-01-25T13:06:43Z</time>
      </trkpt>
      <trkpt lat="48.86262" lon="-1.48883">
        <ele>62.5</ele>
        <time>2024-01-25T13:06:44Z</time>
      </trkpt>
      <trkpt lat="48.8626" lon="-1.48878">
        <ele>62.7</ele>
        <time>2024-01-25T13:06:45Z</time>
      </trkpt>
      <trkpt lat="48.86259" lon="-1.48872">
        <ele>62.8</ele>
        <time>2024-01-25T13:06:46Z</time>
      </trkpt>
      <trkpt lat="48.86258" lon="-1.48866">
        <ele>62.9</ele>
        <time>2024-01-25T13:06:47Z</time>
      </trkpt>
      <trkpt lat="48.86257" lon="-1.48861">
        <ele>63</ele>
        <time>2024-01-25T13:06:48Z</time>
      </trkpt>
      <trkpt lat="48.86257" lon="-1.48855">
        <ele>63.1</ele>
        <time>2024-01-25T13:06:49Z</time>
      </trkpt>
      <trkpt lat="48.86256" lon="-1.48849">
        <ele>63.2</ele>
        <time>2024-01-25T13:06:50Z</time>
      </trkpt>
      <trkpt lat="48.86256" lon="-1.48843">
        <ele>63.3</ele>
        <time>2024-01-25T13:06:51Z</time>
      </trkpt>
      <trkpt lat="48.86256" lon="-1.48838">
        <ele>63.3</ele>
        <time>2024-01-25T13:06:52Z</time>
      </trkpt>
      <trkpt lat="48.86256" lon="-1.48832">
        <ele>63.4</ele>
        <time>2024-01-25T13:06:53Z</time>
      </trkpt>
      <trkpt lat="48.86256" lon="-1.48826">
        <ele>63.5</ele>
        <time>2024-01-25T13:06:54Z</time>
      </trkpt>
      <trkpt lat="48.86256" lon="-1.4882">
        <ele>63.6</ele>
        <time>2024-01-25T13:06:55Z</time>
      </trkpt>
      <trkpt lat="48.86256" lon="-1.48815">
        <ele>63.7</ele>
        <time>2024-01-25T13:06:56Z</time>
      </trkpt>
      <trkpt lat="48.86257" lon="-1.48809">
        <ele>63.8</ele>
        <time>2024-01-25T13:06:57Z</time>
      </trkpt>
      <trkpt lat="48.86258" lon="-1.48804">
        <ele>63.9</ele>
        <time>2024-01-25T13:06:58Z</time>
      </trkpt>
      <trkpt lat="48.86258" lon="-1.48798">
        <ele>64</ele>
        <time>2024-01-25T13:06:59Z</time>
      </trkpt>
      <trkpt lat="48.86257" lon="-1.48792">
        <ele>64.1</ele>
        <time>2024-01-25T13:07:00Z</time>
      </trkpt>
      <trkpt lat="48.86257" lon="-1.48787">
        <ele>64.2</ele>
        <time>2024-01-25T13:07:01Z</time>
      </trkpt>
      <trkpt lat="48.86258" lon="-1.48781">
        <ele>64.4</ele>
        <time>2024-01-25T13:07:02Z</time>
      </trkpt>
      <trkpt lat="48.86257" lon="-1.48776">
        <ele>64.5</ele>
        <time>2024-01-25T13:07:03Z</time>
      </trkpt>
      <trkpt lat="48.86257" lon="-1.48771">
        <ele>64.6</ele>
        <time>2024-01-25T13:07:04Z</time>
      </trkpt>
      <trkpt lat="48.86254" lon="-1.48765">
        <ele>64.7</ele>
        <time>2024-01-25T13:07:05Z</time>
      </trkpt>
      <trkpt lat="48.86252" lon="-1.48761">
        <ele>64.8</ele>
        <time>2024-01-25T13:07:06Z</time>
      </trkpt>
      <trkpt lat="48.86249" lon="-1.48759">
        <ele>64.8</ele>
        <time>2024-01-25T13:07:07Z</time>
      </trkpt>
      <trkpt lat="48.86245" lon="-1.48757">
        <ele>64.9</ele>
        <time>2024-01-25T13:07:08Z</time>
      </trkpt>
      <trkpt lat="48.86241" lon="-1.48757">
        <ele>64.9</ele>
        <time>2024-01-25T13:07:09Z</time>
      </trkpt>
      <trkpt lat="48.86238" lon="-1.48757">
        <ele>65</ele>
        <time>2024-01-25T13:07:10Z</time>
      </trkpt>
      <trkpt lat="48.86234" lon="-1.48758">
        <ele>65.1</ele>
        <time>2024-01-25T13:07:11Z</time>
      </trkpt>
      <trkpt lat="48.8623" lon="-1.48759">
        <ele>65.1</ele>
        <time>2024-01-25T13:07:12Z</time>
      </trkpt>
      <trkpt lat="48.86227" lon="-1.48758">
        <ele>65.2</ele>
        <time>2024-01-25T13:07:13Z</time>
      </trkpt>
      <trkpt lat="48.86224" lon="-1.48758">
        <ele>65.2</ele>
        <time>2024-01-25T13:07:14Z</time>
      </trkpt>
      <trkpt lat="48.8622" lon="-1.4876">
        <ele>65.3</ele>
        <time>2024-01-25T13:07:15Z</time>
      </trkpt>
      <trkpt lat="48.86215" lon="-1.48761">
        <ele>65.4</ele>
        <time>2024-01-25T13:07:16Z</time>
      </trkpt>
      <trkpt lat="48.86211" lon="-1.48762">
        <ele>65.4</ele>
        <time>2024-01-25T13:07:17Z</time>
      </trkpt>
      <trkpt lat="48.86207" lon="-1.48763">
        <ele>65.5</ele>
        <time>2024-01-25T13:07:18Z</time>
      </trkpt>
      <trkpt lat="48.86202" lon="-1.48764">
        <ele>65.6</ele>
        <time>2024-01-25T13:07:20Z</time>
      </trkpt>
      <trkpt lat="48.86196" lon="-1.48762">
        <ele>65.6</ele>
        <time>2024-01-25T13:07:21Z</time>
      </trkpt>
      <trkpt lat="48.86193" lon="-1.4876">
        <ele>65.7</ele>
        <time>2024-01-25T13:07:22Z</time>
      </trkpt>
      <trkpt lat="48.86189" lon="-1.48757">
        <ele>65.7</ele>
        <time>2024-01-25T13:07:23Z</time>
      </trkpt>
      <trkpt lat="48.86186" lon="-1.48753">
        <ele>65.7</ele>
        <time>2024-01-25T13:07:24Z</time>
      </trkpt>
      <trkpt lat="48.86185" lon="-1.48748">
        <ele>65.7</ele>
        <time>2024-01-25T13:07:25Z</time>
      </trkpt>
      <trkpt lat="48.86183" lon="-1.48742">
        <ele>65.7</ele>
        <time>2024-01-25T13:07:26Z</time>
      </trkpt>
      <trkpt lat="48.86181" lon="-1.48737">
        <ele>65.7</ele>
        <time>2024-01-25T13:07:27Z</time>
      </trkpt>
      <trkpt lat="48.86181" lon="-1.48731">
        <ele>65.7</ele>
        <time>2024-01-25T13:07:28Z</time>
      </trkpt>
      <trkpt lat="48.8618" lon="-1.48726">
        <ele>65.8</ele>
        <time>2024-01-25T13:07:29Z</time>
      </trkpt>
      <trkpt lat="48.86179" lon="-1.48719">
        <ele>65.8</ele>
        <time>2024-01-25T13:07:30Z</time>
      </trkpt>
      <trkpt lat="48.86179" lon="-1.48712">
        <ele>65.9</ele>
        <time>2024-01-25T13:07:31Z</time>
      </trkpt>
      <trkpt lat="48.86178" lon="-1.48707">
        <ele>65.9</ele>
        <time>2024-01-25T13:07:32Z</time>
      </trkpt>
      <trkpt lat="48.86177" lon="-1.487">
        <ele>66</ele>
        <time>2024-01-25T13:07:33Z</time>
      </trkpt>
      <trkpt lat="48.86177" lon="-1.48694">
        <ele>66</ele>
        <time>2024-01-25T13:07:34Z</time>
      </trkpt>
      <trkpt lat="48.86176" lon="-1.48688">
        <ele>66.1</ele>
        <time>2024-01-25T13:07:35Z</time>
      </trkpt>
      <trkpt lat="48.86175" lon="-1.48682">
        <ele>66.2</ele>
        <time>2024-01-25T13:07:36Z</time>
      </trkpt>
      <trkpt lat="48.86175" lon="-1.48678">
        <ele>66.2</ele>
        <time>2024-01-25T13:07:37Z</time>
      </trkpt>
      <trkpt lat="48.86174" lon="-1.48672">
        <ele>66.3</ele>
        <time>2024-01-25T13:07:38Z</time>
      </trkpt>
      <trkpt lat="48.86173" lon="-1.48667">
        <ele>66.4</ele>
        <time>2024-01-25T13:07:39Z</time>
      </trkpt>
      <trkpt lat="48.86172" lon="-1.48661">
        <ele>66.5</ele>
        <time>2024-01-25T13:07:40Z</time>
      </trkpt>
      <trkpt lat="48.86171" lon="-1.48655">
        <ele>66.5</ele>
        <time>2024-01-25T13:07:41Z</time>
      </trkpt>
      <trkpt lat="48.86171" lon="-1.48649">
        <ele>66.6</ele>
        <time>2024-01-25T13:07:42Z</time>
      </trkpt>
      <trkpt lat="48.8617" lon="-1.48643">
        <ele>66.7</ele>
        <time>2024-01-25T13:07:43Z</time>
      </trkpt>
      <trkpt lat="48.8617" lon="-1.48638">
        <ele>66.8</ele>
        <time>2024-01-25T13:07:44Z</time>
      </trkpt>
      <trkpt lat="48.8617" lon="-1.4863">
        <ele>66.9</ele>
        <time>2024-01-25T13:07:45Z</time>
      </trkpt>
      <trkpt lat="48.8617" lon="-1.48625">
        <ele>66.9</ele>
        <time>2024-01-25T13:07:46Z</time>
      </trkpt>
      <trkpt lat="48.86169" lon="-1.48619">
        <ele>67</ele>
        <time>2024-01-25T13:07:47Z</time>
      </trkpt>
      <trkpt lat="48.86169" lon="-1.48613">
        <ele>67</ele>
        <time>2024-01-25T13:07:48Z</time>
      </trkpt>
      <trkpt lat="48.86168" lon="-1.48607">
        <ele>67.1</ele>
        <time>2024-01-25T13:07:49Z</time>
      </trkpt>
      <trkpt lat="48.86168" lon="-1.48601">
        <ele>67.1</ele>
        <time>2024-01-25T13:07:50Z</time>
      </trkpt>
      <trkpt lat="48.86168" lon="-1.48594">
        <ele>67.2</ele>
        <time>2024-01-25T13:07:51Z</time>
      </trkpt>
      <trkpt lat="48.86167" lon="-1.48589">
        <ele>67.2</ele>
        <time>2024-01-25T13:07:52Z</time>
      </trkpt>
      <trkpt lat="48.86166" lon="-1.48582">
        <ele>67.3</ele>
        <time>2024-01-25T13:07:53Z</time>
      </trkpt>
      <trkpt lat="48.86165" lon="-1.48576">
        <ele>67.4</ele>
        <time>2024-01-25T13:07:54Z</time>
      </trkpt>
      <trkpt lat="48.86165" lon="-1.48569">
        <ele>67.4</ele>
        <time>2024-01-25T13:07:55Z</time>
      </trkpt>
      <trkpt lat="48.86164" lon="-1.48561">
        <ele>67.5</ele>
        <time>2024-01-25T13:07:56Z</time>
      </trkpt>
      <trkpt lat="48.86163" lon="-1.48554">
        <ele>67.6</ele>
        <time>2024-01-25T13:07:57Z</time>
      </trkpt>
      <trkpt lat="48.86163" lon="-1.48547">
        <ele>67.7</ele>
        <time>2024-01-25T13:07:58Z</time>
      </trkpt>
      <trkpt lat="48.86162" lon="-1.48541">
        <ele>67.8</ele>
        <time>2024-01-25T13:07:59Z</time>
      </trkpt>
      <trkpt lat="48.86162" lon="-1.48534">
        <ele>68</ele>
        <time>2024-01-25T13:08:00Z</time>
      </trkpt>
      <trkpt lat="48.86162" lon="-1.48527">
        <ele>68.1</ele>
        <time>2024-01-25T13:08:01Z</time>
      </trkpt>
      <trkpt lat="48.86162" lon="-1.48521">
        <ele>68.2</ele>
        <time>2024-01-25T13:08:02Z</time>
      </trkpt>
      <trkpt lat="48.86162" lon="-1.48515">
        <ele>68.4</ele>
        <time>2024-01-25T13:08:03Z</time>
      </trkpt>
      <trkpt lat="48.86163" lon="-1.48509">
        <ele>68.5</ele>
        <time>2024-01-25T13:08:04Z</time>
      </trkpt>
      <trkpt lat="48.86164" lon="-1.48504">
        <ele>68.7</ele>
        <time>2024-01-25T13:08:05Z</time>
      </trkpt>
      <trkpt lat="48.86165" lon="-1.48498">
        <ele>68.9</ele>
        <time>2024-01-25T13:08:06Z</time>
      </trkpt>
      <trkpt lat="48.86165" lon="-1.48492">
        <ele>69.1</ele>
        <time>2024-01-25T13:08:07Z</time>
      </trkpt>
      <trkpt lat="48.86165" lon="-1.48488">
        <ele>69.3</ele>
        <time>2024-01-25T13:08:08Z</time>
      </trkpt>
      <trkpt lat="48.86166" lon="-1.48482">
        <ele>69.5</ele>
        <time>2024-01-25T13:08:09Z</time>
      </trkpt>
      <trkpt lat="48.86166" lon="-1.48476">
        <ele>69.7</ele>
        <time>2024-01-25T13:08:10Z</time>
      </trkpt>
      <trkpt lat="48.86167" lon="-1.48474">
        <ele>69.7</ele>
        <time>2024-01-25T13:08:11Z</time>
      </trkpt>
      <trkpt lat="48.86167" lon="-1.48469">
        <ele>69.9</ele>
        <time>2024-01-25T13:08:12Z</time>
      </trkpt>
      <trkpt lat="48.86167" lon="-1.48463">
        <ele>70.1</ele>
        <time>2024-01-25T13:08:13Z</time>
      </trkpt>
      <trkpt lat="48.86168" lon="-1.48459">
        <ele>70.3</ele>
        <time>2024-01-25T13:08:14Z</time>
      </trkpt>
      <trkpt lat="48.86167" lon="-1.48454">
        <ele>70.4</ele>
        <time>2024-01-25T13:08:15Z</time>
      </trkpt>
      <trkpt lat="48.86167" lon="-1.4845">
        <ele>70.6</ele>
        <time>2024-01-25T13:08:16Z</time>
      </trkpt>
      <trkpt lat="48.86166" lon="-1.48445">
        <ele>70.7</ele>
        <time>2024-01-25T13:08:17Z</time>
      </trkpt>
      <trkpt lat="48.86166" lon="-1.48439">
        <ele>70.9</ele>
        <time>2024-01-25T13:08:18Z</time>
      </trkpt>
      <trkpt lat="48.86166" lon="-1.48437">
        <ele>71</ele>
        <time>2024-01-25T13:08:19Z</time>
      </trkpt>
      <trkpt lat="48.86167" lon="-1.48432">
        <ele>71.2</ele>
        <time>2024-01-25T13:08:20Z</time>
      </trkpt>
      <trkpt lat="48.86169" lon="-1.48427">
        <ele>71.4</ele>
        <time>2024-01-25T13:08:21Z</time>
      </trkpt>
      <trkpt lat="48.8617" lon="-1.48422">
        <ele>71.6</ele>
        <time>2024-01-25T13:08:22Z</time>
      </trkpt>
      <trkpt lat="48.86171" lon="-1.48418">
        <ele>71.7</ele>
        <time>2024-01-25T13:08:23Z</time>
      </trkpt>
      <trkpt lat="48.86172" lon="-1.48413">
        <ele>71.9</ele>
        <time>2024-01-25T13:08:24Z</time>
      </trkpt>
      <trkpt lat="48.86173" lon="-1.48409">
        <ele>72.1</ele>
        <time>2024-01-25T13:08:25Z</time>
      </trkpt>
      <trkpt lat="48.86175" lon="-1.48404">
        <ele>72.3</ele>
        <time>2024-01-25T13:08:26Z</time>
      </trkpt>
      <trkpt lat="48.86176" lon="-1.48399">
        <ele>72.5</ele>
        <time>2024-01-25T13:08:27Z</time>
      </trkpt>
      <trkpt lat="48.86177" lon="-1.48394">
        <ele>72.7</ele>
        <time>2024-01-25T13:08:28Z</time>
      </trkpt>
      <trkpt lat="48.86178" lon="-1.48392">
        <ele>72.8</ele>
        <time>2024-01-25T13:08:29Z</time>
      </trkpt>
      <trkpt lat="48.86179" lon="-1.48387">
        <ele>73</ele>
        <time>2024-01-25T13:08:30Z</time>
      </trkpt>
      <trkpt lat="48.8618" lon="-1.48383">
        <ele>73.2</ele>
        <time>2024-01-25T13:08:31Z</time>
      </trkpt>
      <trkpt lat="48.86182" lon="-1.48378">
        <ele>73.4</ele>
        <time>2024-01-25T13:08:32Z</time>
      </trkpt>
      <trkpt lat="48.86183" lon="-1.48376">
        <ele>73.5</ele>
        <time>2024-01-25T13:08:33Z</time>
      </trkpt>
      <trkpt lat="48.86184" lon="-1.48372">
        <ele>73.7</ele>
        <time>2024-01-25T13:08:34Z</time>
      </trkpt>
      <trkpt lat="48.86187" lon="-1.48368">
        <ele>73.9</ele>
        <time>2024-01-25T13:08:35Z</time>
      </trkpt>
      <trkpt lat="48.86188" lon="-1.48367">
        <ele>73.9</ele>
        <time>2024-01-25T13:08:36Z</time>
      </trkpt>
      <trkpt lat="48.8619" lon="-1.48364">
        <ele>74.1</ele>
        <time>2024-01-25T13:08:37Z</time>
      </trkpt>
      <trkpt lat="48.86192" lon="-1.48361">
        <ele>74.3</ele>
        <time>2024-01-25T13:08:38Z</time>
      </trkpt>
      <trkpt lat="48.86194" lon="-1.48358">
        <ele>74.5</ele>
        <time>2024-01-25T13:08:40Z</time>
      </trkpt>
      <trkpt lat="48.86196" lon="-1.48354">
        <ele>74.7</ele>
        <time>2024-01-25T13:08:41Z</time>
      </trkpt>
      <trkpt lat="48.86198" lon="-1.48349">
        <ele>74.9</ele>
        <time>2024-01-25T13:08:42Z</time>
      </trkpt>
      <trkpt lat="48.862" lon="-1.48346">
        <ele>75.1</ele>
        <time>2024-01-25T13:08:43Z</time>
      </trkpt>
      <trkpt lat="48.86202" lon="-1.48343">
        <ele>75.3</ele>
        <time>2024-01-25T13:08:44Z</time>
      </trkpt>
      <trkpt lat="48.86204" lon="-1.48337">
        <ele>75.6</ele>
        <time>2024-01-25T13:08:45Z</time>
      </trkpt>
      <trkpt lat="48.86205" lon="-1.48335">
        <ele>75.7</ele>
        <time>2024-01-25T13:08:46Z</time>
      </trkpt>
      <trkpt lat="48.86207" lon="-1.48331">
        <ele>75.9</ele>
        <time>2024-01-25T13:08:47Z</time>
      </trkpt>
      <trkpt lat="48.8621" lon="-1.48326">
        <ele>76.1</ele>
        <time>2024-01-25T13:08:48Z</time>
      </trkpt>
      <trkpt lat="48.86211" lon="-1.48323">
        <ele>76.3</ele>
        <time>2024-01-25T13:08:49Z</time>
      </trkpt>
      <trkpt lat="48.86213" lon="-1.4832">
        <ele>76.5</ele>
        <time>2024-01-25T13:08:50Z</time>
      </trkpt>
      <trkpt lat="48.86215" lon="-1.48314">
        <ele>76.7</ele>
        <time>2024-01-25T13:08:51Z</time>
      </trkpt>
      <trkpt lat="48.86216" lon="-1.48312">
        <ele>76.9</ele>
        <time>2024-01-25T13:08:52Z</time>
      </trkpt>
      <trkpt lat="48.86218" lon="-1.48307">
        <ele>77.1</ele>
        <time>2024-01-25T13:08:53Z</time>
      </trkpt>
      <trkpt lat="48.86219" lon="-1.48306">
        <ele>77.2</ele>
        <time>2024-01-25T13:08:54Z</time>
      </trkpt>
      <trkpt lat="48.86222" lon="-1.48301">
        <ele>77.4</ele>
        <time>2024-01-25T13:08:55Z</time>
      </trkpt>
      <trkpt lat="48.86223" lon="-1.48297">
        <ele>77.6</ele>
        <time>2024-01-25T13:08:56Z</time>
      </trkpt>
      <trkpt lat="48.86225" lon="-1.48294">
        <ele>77.8</ele>
        <time>2024-01-25T13:08:57Z</time>
      </trkpt>
      <trkpt lat="48.86228" lon="-1.48288">
        <ele>78</ele>
        <time>2024-01-25T13:08:58Z</time>
      </trkpt>
      <trkpt lat="48.86229" lon="-1.48285">
        <ele>78.2</ele>
        <time>2024-01-25T13:08:59Z</time>
      </trkpt>
      <trkpt lat="48.86231" lon="-1.48282">
        <ele>78.3</ele>
        <time>2024-01-25T13:09:00Z</time>
      </trkpt>
      <trkpt lat="48.86233" lon="-1.48278">
        <ele>78.5</ele>
        <time>2024-01-25T13:09:01Z</time>
      </trkpt>
      <trkpt lat="48.86235" lon="-1.48273">
        <ele>78.7</ele>
        <time>2024-01-25T13:09:02Z</time>
      </trkpt>
      <trkpt lat="48.86236" lon="-1.48272">
        <ele>78.8</ele>
        <time>2024-01-25T13:09:03Z</time>
      </trkpt>
      <trkpt lat="48.86237" lon="-1.48268">
        <ele>78.9</ele>
        <time>2024-01-25T13:09:04Z</time>
      </trkpt>
      <trkpt lat="48.86239" lon="-1.48264">
        <ele>79.1</ele>
        <time>2024-01-25T13:09:05Z</time>
      </trkpt>
      <trkpt lat="48.8624" lon="-1.48259">
        <ele>79.3</ele>
        <time>2024-01-25T13:09:06Z</time>
      </trkpt>
      <trkpt lat="48.86241" lon="-1.48257">
        <ele>79.3</ele>
        <time>2024-01-25T13:09:07Z</time>
      </trkpt>
      <trkpt lat="48.86242" lon="-1.48253">
        <ele>79.5</ele>
        <time>2024-01-25T13:09:08Z</time>
      </trkpt>
      <trkpt lat="48.86244" lon="-1.48249">
        <ele>79.6</ele>
        <time>2024-01-25T13:09:09Z</time>
      </trkpt>
      <trkpt lat="48.86245" lon="-1.48243">
        <ele>79.8</ele>
        <time>2024-01-25T13:09:10Z</time>
      </trkpt>
      <trkpt lat="48.86247" lon="-1.48238">
        <ele>79.9</ele>
        <time>2024-01-25T13:09:11Z</time>
      </trkpt>
      <trkpt lat="48.86249" lon="-1.48234">
        <ele>80</ele>
        <time>2024-01-25T13:09:12Z</time>
      </trkpt>
      <trkpt lat="48.8625" lon="-1.4823">
        <ele>80.1</ele>
        <time>2024-01-25T13:09:13Z</time>
      </trkpt>
      <trkpt lat="48.86252" lon="-1.48224">
        <ele>80.2</ele>
        <time>2024-01-25T13:09:14Z</time>
      </trkpt>
      <trkpt lat="48.86254" lon="-1.4822">
        <ele>80.3</ele>
        <time>2024-01-25T13:09:15Z</time>
      </trkpt>
      <trkpt lat="48.86255" lon="-1.48215">
        <ele>80.4</ele>
        <time>2024-01-25T13:09:16Z</time>
      </trkpt>
      <trkpt lat="48.86256" lon="-1.4821">
        <ele>80.5</ele>
        <time>2024-01-25T13:09:17Z</time>
      </trkpt>
      <trkpt lat="48.86258" lon="-1.48207">
        <ele>80.6</ele>
        <time>2024-01-25T13:09:18Z</time>
      </trkpt>
      <trkpt lat="48.8626" lon="-1.48202">
        <ele>80.7</ele>
        <time>2024-01-25T13:09:19Z</time>
      </trkpt>
      <trkpt lat="48.8626" lon="-1.482">
        <ele>80.7</ele>
        <time>2024-01-25T13:09:20Z</time>
      </trkpt>
      <trkpt lat="48.86262" lon="-1.48196">
        <ele>80.8</ele>
        <time>2024-01-25T13:09:21Z</time>
      </trkpt>
      <trkpt lat="48.86262" lon="-1.48194">
        <ele>80.8</ele>
        <time>2024-01-25T13:09:22Z</time>
      </trkpt>
      <trkpt lat="48.86262" lon="-1.48189">
        <ele>80.8</ele>
        <time>2024-01-25T13:09:23Z</time>
      </trkpt>
      <trkpt lat="48.86263" lon="-1.48185">
        <ele>80.9</ele>
        <time>2024-01-25T13:09:24Z</time>
      </trkpt>
      <trkpt lat="48.86265" lon="-1.4818">
        <ele>80.9</ele>
        <time>2024-01-25T13:09:25Z</time>
      </trkpt>
      <trkpt lat="48.86267" lon="-1.48174">
        <ele>80.9</ele>
        <time>2024-01-25T13:09:26Z</time>
      </trkpt>
      <trkpt lat="48.86268" lon="-1.48168">
        <ele>80.9</ele>
        <time>2024-01-25T13:09:27Z</time>
      </trkpt>
      <trkpt lat="48.86269" lon="-1.48162">
        <ele>80.8</ele>
        <time>2024-01-25T13:09:28Z</time>
      </trkpt>
      <trkpt lat="48.8627" lon="-1.48155">
        <ele>80.8</ele>
        <time>2024-01-25T13:09:29Z</time>
      </trkpt>
      <trkpt lat="48.86272" lon="-1.48149">
        <ele>80.7</ele>
        <time>2024-01-25T13:09:30Z</time>
      </trkpt>
      <trkpt lat="48.86273" lon="-1.48141">
        <ele>80.6</ele>
        <time>2024-01-25T13:09:31Z</time>
      </trkpt>
      <trkpt lat="48.86273" lon="-1.48134">
        <ele>80.6</ele>
        <time>2024-01-25T13:09:32Z</time>
      </trkpt>
      <trkpt lat="48.86274" lon="-1.48126">
        <ele>80.5</ele>
        <time>2024-01-25T13:09:33Z</time>
      </trkpt>
      <trkpt lat="48.86274" lon="-1.48118">
        <ele>80.4</ele>
        <time>2024-01-25T13:09:34Z</time>
      </trkpt>
      <trkpt lat="48.86275" lon="-1.48111">
        <ele>80.3</ele>
        <time>2024-01-25T13:09:35Z</time>
      </trkpt>
      <trkpt lat="48.86275" lon="-1.48103">
        <ele>80.3</ele>
        <time>2024-01-25T13:09:36Z</time>
      </trkpt>
      <trkpt lat="48.86275" lon="-1.48095">
        <ele>80.3</ele>
        <time>2024-01-25T13:09:37Z</time>
      </trkpt>
      <trkpt lat="48.86275" lon="-1.48086">
        <ele>80.3</ele>
        <time>2024-01-25T13:09:38Z</time>
      </trkpt>
      <trkpt lat="48.86275" lon="-1.48078">
        <ele>80.3</ele>
        <time>2024-01-25T13:09:39Z</time>
      </trkpt>
      <trkpt lat="48.86274" lon="-1.4807">
        <ele>80.4</ele>
        <time>2024-01-25T13:09:40Z</time>
      </trkpt>
      <trkpt lat="48.86272" lon="-1.48062">
        <ele>80.4</ele>
        <time>2024-01-25T13:09:41Z</time>
      </trkpt>
      <trkpt lat="48.8627" lon="-1.48055">
        <ele>80.5</ele>
        <time>2024-01-25T13:09:42Z</time>
      </trkpt>
      <trkpt lat="48.86268" lon="-1.48047">
        <ele>80.6</ele>
        <time>2024-01-25T13:09:43Z</time>
      </trkpt>
      <trkpt lat="48.86266" lon="-1.4804">
        <ele>80.7</ele>
        <time>2024-01-25T13:09:44Z</time>
      </trkpt>
      <trkpt lat="48.86263" lon="-1.48032">
        <ele>80.8</ele>
        <time>2024-01-25T13:09:45Z</time>
      </trkpt>
      <trkpt lat="48.86262" lon="-1.48025">
        <ele>81</ele>
        <time>2024-01-25T13:09:46Z</time>
      </trkpt>
      <trkpt lat="48.8626" lon="-1.48017">
        <ele>81.1</ele>
        <time>2024-01-25T13:09:47Z</time>
      </trkpt>
      <trkpt lat="48.8626" lon="-1.48009">
        <ele>81.3</ele>
        <time>2024-01-25T13:09:48Z</time>
      </trkpt>
      <trkpt lat="48.8626" lon="-1.48002">
        <ele>81.4</ele>
        <time>2024-01-25T13:09:49Z</time>
      </trkpt>
      <trkpt lat="48.8626" lon="-1.47995">
        <ele>81.6</ele>
        <time>2024-01-25T13:09:50Z</time>
      </trkpt>
      <trkpt lat="48.8626" lon="-1.47988">
        <ele>81.8</ele>
        <time>2024-01-25T13:09:51Z</time>
      </trkpt>
      <trkpt lat="48.8626" lon="-1.47981">
        <ele>81.9</ele>
        <time>2024-01-25T13:09:52Z</time>
      </trkpt>
      <trkpt lat="48.86259" lon="-1.47974">
        <ele>82</ele>
        <time>2024-01-25T13:09:53Z</time>
      </trkpt>
      <trkpt lat="48.86259" lon="-1.47967">
        <ele>82.2</ele>
        <time>2024-01-25T13:09:54Z</time>
      </trkpt>
      <trkpt lat="48.86258" lon="-1.4796">
        <ele>82.3</ele>
        <time>2024-01-25T13:09:55Z</time>
      </trkpt>
      <trkpt lat="48.86258" lon="-1.47953">
        <ele>82.4</ele>
        <time>2024-01-25T13:09:56Z</time>
      </trkpt>
      <trkpt lat="48.86257" lon="-1.47946">
        <ele>82.6</ele>
        <time>2024-01-25T13:09:57Z</time>
      </trkpt>
      <trkpt lat="48.86257" lon="-1.47938">
        <ele>82.7</ele>
        <time>2024-01-25T13:09:58Z</time>
      </trkpt>
      <trkpt lat="48.86257" lon="-1.4793">
        <ele>82.9</ele>
        <time>2024-01-25T13:10:00Z</time>
      </trkpt>
      <trkpt lat="48.86255" lon="-1.47921">
        <ele>83.1</ele>
        <time>2024-01-25T13:10:01Z</time>
      </trkpt>
      <trkpt lat="48.86255" lon="-1.47911">
        <ele>83.3</ele>
        <time>2024-01-25T13:10:02Z</time>
      </trkpt>
      <trkpt lat="48.86256" lon="-1.47903">
        <ele>83.4</ele>
        <time>2024-01-25T13:10:04Z</time>
      </trkpt>
      <trkpt lat="48.86255" lon="-1.47894">
        <ele>83.6</ele>
        <time>2024-01-25T13:10:05Z</time>
      </trkpt>
      <trkpt lat="48.86254" lon="-1.47886">
        <ele>83.8</ele>
        <time>2024-01-25T13:10:06Z</time>
      </trkpt>
      <trkpt lat="48.86254" lon="-1.4788">
        <ele>83.9</ele>
        <time>2024-01-25T13:10:07Z</time>
      </trkpt>
      <trkpt lat="48.86253" lon="-1.47874">
        <ele>84</ele>
        <time>2024-01-25T13:10:08Z</time>
      </trkpt>
      <trkpt lat="48.86253" lon="-1.47869">
        <ele>84.1</ele>
        <time>2024-01-25T13:10:09Z</time>
      </trkpt>
      <trkpt lat="48.86253" lon="-1.47861">
        <ele>84.2</ele>
        <time>2024-01-25T13:10:10Z</time>
      </trkpt>
      <trkpt lat="48.86253" lon="-1.47856">
        <ele>84.3</ele>
        <time>2024-01-25T13:10:11Z</time>
      </trkpt>
      <trkpt lat="48.86253" lon="-1.4785">
        <ele>84.4</ele>
        <time>2024-01-25T13:10:12Z</time>
      </trkpt>
      <trkpt lat="48.86254" lon="-1.47843">
        <ele>84.6</ele>
        <time>2024-01-25T13:10:13Z</time>
      </trkpt>
      <trkpt lat="48.86255" lon="-1.47838">
        <ele>84.7</ele>
        <time>2024-01-25T13:10:14Z</time>
      </trkpt>
      <trkpt lat="48.86255" lon="-1.47832">
        <ele>84.8</ele>
        <time>2024-01-25T13:10:15Z</time>
      </trkpt>
      <trkpt lat="48.86256" lon="-1.47826">
        <ele>84.9</ele>
        <time>2024-01-25T13:10:16Z</time>
      </trkpt>
      <trkpt lat="48.86256" lon="-1.47821">
        <ele>85</ele>
        <time>2024-01-25T13:10:17Z</time>
      </trkpt>
      <trkpt lat="48.86256" lon="-1.47815">
        <ele>85.1</ele>
        <time>2024-01-25T13:10:18Z</time>
      </trkpt>
      <trkpt lat="48.86256" lon="-1.47809">
        <ele>85.2</ele>
        <time>2024-01-25T13:10:19Z</time>
      </trkpt>
      <trkpt lat="48.86256" lon="-1.47802">
        <ele>85.4</ele>
        <time>2024-01-25T13:10:20Z</time>
      </trkpt>
      <trkpt lat="48.86256" lon="-1.47794">
        <ele>85.5</ele>
        <time>2024-01-25T13:10:21Z</time>
      </trkpt>
      <trkpt lat="48.86256" lon="-1.47787">
        <ele>85.7</ele>
        <time>2024-01-25T13:10:22Z</time>
      </trkpt>
      <trkpt lat="48.86257" lon="-1.4778">
        <ele>85.8</ele>
        <time>2024-01-25T13:10:23Z</time>
      </trkpt>
      <trkpt lat="48.86257" lon="-1.47774">
        <ele>86</ele>
        <time>2024-01-25T13:10:24Z</time>
      </trkpt>
      <trkpt lat="48.86257" lon="-1.47767">
        <ele>86.2</ele>
        <time>2024-01-25T13:10:25Z</time>
      </trkpt>
      <trkpt lat="48.86257" lon="-1.47761">
        <ele>86.3</ele>
        <time>2024-01-25T13:10:26Z</time>
      </trkpt>
      <trkpt lat="48.86258" lon="-1.47754">
        <ele>86.5</ele>
        <time>2024-01-25T13:10:27Z</time>
      </trkpt>
      <trkpt lat="48.86258" lon="-1.47748">
        <ele>86.7</ele>
        <time>2024-01-25T13:10:28Z</time>
      </trkpt>
      <trkpt lat="48.86258" lon="-1.47742">
        <ele>86.8</ele>
        <time>2024-01-25T13:10:29Z</time>
      </trkpt>
      <trkpt lat="48.86259" lon="-1.47736">
        <ele>87</ele>
        <time>2024-01-25T13:10:30Z</time>
      </trkpt>
      <trkpt lat="48.86258" lon="-1.4773">
        <ele>87.2</ele>
        <time>2024-01-25T13:10:31Z</time>
      </trkpt>
      <trkpt lat="48.86258" lon="-1.47725">
        <ele>87.3</ele>
        <time>2024-01-25T13:10:32Z</time>
      </trkpt>
      <trkpt lat="48.86258" lon="-1.47719">
        <ele>87.4</ele>
        <time>2024-01-25T13:10:33Z</time>
      </trkpt>
      <trkpt lat="48.86258" lon="-1.47713">
        <ele>87.6</ele>
        <time>2024-01-25T13:10:34Z</time>
      </trkpt>
      <trkpt lat="48.86258" lon="-1.47707">
        <ele>87.7</ele>
        <time>2024-01-25T13:10:35Z</time>
      </trkpt>
      <trkpt lat="48.86258" lon="-1.47702">
        <ele>87.8</ele>
        <time>2024-01-25T13:10:36Z</time>
      </trkpt>
      <trkpt lat="48.86259" lon="-1.47695">
        <ele>88</ele>
        <time>2024-01-25T13:10:37Z</time>
      </trkpt>
      <trkpt lat="48.86259" lon="-1.47689">
        <ele>88.2</ele>
        <time>2024-01-25T13:10:38Z</time>
      </trkpt>
      <trkpt lat="48.86259" lon="-1.47683">
        <ele>88.3</ele>
        <time>2024-01-25T13:10:40Z</time>
      </trkpt>
      <trkpt lat="48.86258" lon="-1.47673">
        <ele>88.5</ele>
        <time>2024-01-25T13:10:41Z</time>
      </trkpt>
      <trkpt lat="48.86257" lon="-1.47666">
        <ele>88.7</ele>
        <time>2024-01-25T13:10:43Z</time>
      </trkpt>
      <trkpt lat="48.86257" lon="-1.4766">
        <ele>88.8</ele>
        <time>2024-01-25T13:10:44Z</time>
      </trkpt>
      <trkpt lat="48.86257" lon="-1.47655">
        <ele>88.9</ele>
        <time>2024-01-25T13:10:45Z</time>
      </trkpt>
      <trkpt lat="48.86257" lon="-1.47644">
        <ele>89.2</ele>
        <time>2024-01-25T13:10:46Z</time>
      </trkpt>
      <trkpt lat="48.86257" lon="-1.47637">
        <ele>89.3</ele>
        <time>2024-01-25T13:10:48Z</time>
      </trkpt>
      <trkpt lat="48.86257" lon="-1.47626">
        <ele>89.6</ele>
        <time>2024-01-25T13:10:49Z</time>
      </trkpt>
      <trkpt lat="48.86257" lon="-1.47619">
        <ele>89.7</ele>
        <time>2024-01-25T13:10:51Z</time>
      </trkpt>
      <trkpt lat="48.86257" lon="-1.47613">
        <ele>89.8</ele>
        <time>2024-01-25T13:10:52Z</time>
      </trkpt>
      <trkpt lat="48.86258" lon="-1.47607">
        <ele>90</ele>
        <time>2024-01-25T13:10:53Z</time>
      </trkpt>
      <trkpt lat="48.86258" lon="-1.47602">
        <ele>90.1</ele>
        <time>2024-01-25T13:10:54Z</time>
      </trkpt>
      <trkpt lat="48.86258" lon="-1.47595">
        <ele>90.2</ele>
        <time>2024-01-25T13:10:55Z</time>
      </trkpt>
      <trkpt lat="48.86257" lon="-1.47585">
        <ele>90.4</ele>
        <time>2024-01-25T13:10:56Z</time>
      </trkpt>
      <trkpt lat="48.86258" lon="-1.47579">
        <ele>90.5</ele>
        <time>2024-01-25T13:10:57Z</time>
      </trkpt>
      <trkpt lat="48.86257" lon="-1.47572">
        <ele>90.7</ele>
        <time>2024-01-25T13:10:58Z</time>
      </trkpt>
      <trkpt lat="48.86257" lon="-1.47566">
        <ele>90.8</ele>
        <time>2024-01-25T13:10:59Z</time>
      </trkpt>
      <trkpt lat="48.86257" lon="-1.4756">
        <ele>90.9</ele>
        <time>2024-01-25T13:11:00Z</time>
      </trkpt>
      <trkpt lat="48.86258" lon="-1.47555">
        <ele>91.1</ele>
        <time>2024-01-25T13:11:01Z</time>
      </trkpt>
      <trkpt lat="48.86258" lon="-1.47547">
        <ele>91.2</ele>
        <time>2024-01-25T13:11:02Z</time>
      </trkpt>
      <trkpt lat="48.86258" lon="-1.47541">
        <ele>91.4</ele>
        <time>2024-01-25T13:11:03Z</time>
      </trkpt>
      <trkpt lat="48.86258" lon="-1.47533">
        <ele>91.5</ele>
        <time>2024-01-25T13:11:04Z</time>
      </trkpt>
      <trkpt lat="48.86258" lon="-1.47527">
        <ele>91.7</ele>
        <time>2024-01-25T13:11:05Z</time>
      </trkpt>
      <trkpt lat="48.86258" lon="-1.47519">
        <ele>91.8</ele>
        <time>2024-01-25T13:11:06Z</time>
      </trkpt>
      <trkpt lat="48.86258" lon="-1.47512">
        <ele>92</ele>
        <time>2024-01-25T13:11:07Z</time>
      </trkpt>
      <trkpt lat="48.86258" lon="-1.47505">
        <ele>92.1</ele>
        <time>2024-01-25T13:11:08Z</time>
      </trkpt>
      <trkpt lat="48.86257" lon="-1.47499">
        <ele>92.3</ele>
        <time>2024-01-25T13:11:09Z</time>
      </trkpt>
      <trkpt lat="48.86257" lon="-1.47493">
        <ele>92.4</ele>
        <time>2024-01-25T13:11:10Z</time>
      </trkpt>
      <trkpt lat="48.86257" lon="-1.47486">
        <ele>92.6</ele>
        <time>2024-01-25T13:11:11Z</time>
      </trkpt>
      <trkpt lat="48.86257" lon="-1.47481">
        <ele>92.7</ele>
        <time>2024-01-25T13:11:12Z</time>
      </trkpt>
      <trkpt lat="48.86257" lon="-1.47475">
        <ele>92.8</ele>
        <time>2024-01-25T13:11:13Z</time>
      </trkpt>
      <trkpt lat="48.86256" lon="-1.4747">
        <ele>92.9</ele>
        <time>2024-01-25T13:11:14Z</time>
      </trkpt>
      <trkpt lat="48.86256" lon="-1.47466">
        <ele>93</ele>
        <time>2024-01-25T13:11:15Z</time>
      </trkpt>
      <trkpt lat="48.86257" lon="-1.47459">
        <ele>93.2</ele>
        <time>2024-01-25T13:11:16Z</time>
      </trkpt>
      <trkpt lat="48.86257" lon="-1.47454">
        <ele>93.3</ele>
        <time>2024-01-25T13:11:17Z</time>
      </trkpt>
      <trkpt lat="48.86257" lon="-1.47448">
        <ele>93.4</ele>
        <time>2024-01-25T13:11:18Z</time>
      </trkpt>
      <trkpt lat="48.86258" lon="-1.47441">
        <ele>93.5</ele>
        <time>2024-01-25T13:11:19Z</time>
      </trkpt>
      <trkpt lat="48.86258" lon="-1.47435">
        <ele>93.6</ele>
        <time>2024-01-25T13:11:20Z</time>
      </trkpt>
      <trkpt lat="48.86259" lon="-1.47429">
        <ele>93.7</ele>
        <time>2024-01-25T13:11:21Z</time>
      </trkpt>
      <trkpt lat="48.86259" lon="-1.47422">
        <ele>93.9</ele>
        <time>2024-01-25T13:11:22Z</time>
      </trkpt>
      <trkpt lat="48.86259" lon="-1.47416">
        <ele>94</ele>
        <time>2024-01-25T13:11:23Z</time>
      </trkpt>
      <trkpt lat="48.86259" lon="-1.4741">
        <ele>94.1</ele>
        <time>2024-01-25T13:11:24Z</time>
      </trkpt>
      <trkpt lat="48.86258" lon="-1.47404">
        <ele>94.2</ele>
        <time>2024-01-25T13:11:25Z</time>
      </trkpt>
      <trkpt lat="48.86258" lon="-1.47397">
        <ele>94.3</ele>
        <time>2024-01-25T13:11:26Z</time>
      </trkpt>
      <trkpt lat="48.86258" lon="-1.47391">
        <ele>94.5</ele>
        <time>2024-01-25T13:11:27Z</time>
      </trkpt>
      <trkpt lat="48.86258" lon="-1.47384">
        <ele>94.6</ele>
        <time>2024-01-25T13:11:28Z</time>
      </trkpt>
      <trkpt lat="48.86259" lon="-1.47378">
        <ele>94.7</ele>
        <time>2024-01-25T13:11:29Z</time>
      </trkpt>
      <trkpt lat="48.86258" lon="-1.47371">
        <ele>94.8</ele>
        <time>2024-01-25T13:11:30Z</time>
      </trkpt>
      <trkpt lat="48.86259" lon="-1.47364">
        <ele>94.9</ele>
        <time>2024-01-25T13:11:31Z</time>
      </trkpt>
      <trkpt lat="48.86259" lon="-1.47358">
        <ele>95</ele>
        <time>2024-01-25T13:11:32Z</time>
      </trkpt>
      <trkpt lat="48.86258" lon="-1.47351">
        <ele>95.1</ele>
        <time>2024-01-25T13:11:33Z</time>
      </trkpt>
      <trkpt lat="48.86257" lon="-1.47344">
        <ele>95.3</ele>
        <time>2024-01-25T13:11:34Z</time>
      </trkpt>
      <trkpt lat="48.86256" lon="-1.47338">
        <ele>95.3</ele>
        <time>2024-01-25T13:11:35Z</time>
      </trkpt>
      <trkpt lat="48.86255" lon="-1.47331">
        <ele>95.4</ele>
        <time>2024-01-25T13:11:36Z</time>
      </trkpt>
      <trkpt lat="48.86254" lon="-1.47325">
        <ele>95.5</ele>
        <time>2024-01-25T13:11:37Z</time>
      </trkpt>
      <trkpt lat="48.86252" lon="-1.47318">
        <ele>95.6</ele>
        <time>2024-01-25T13:11:38Z</time>
      </trkpt>
      <trkpt lat="48.8625" lon="-1.47311">
        <ele>95.7</ele>
        <time>2024-01-25T13:11:39Z</time>
      </trkpt>
      <trkpt lat="48.86248" lon="-1.47305">
        <ele>95.8</ele>
        <time>2024-01-25T13:11:40Z</time>
      </trkpt>
      <trkpt lat="48.86246" lon="-1.47299">
        <ele>95.9</ele>
        <time>2024-01-25T13:11:41Z</time>
      </trkpt>
      <trkpt lat="48.86245" lon="-1.47293">
        <ele>95.9</ele>
        <time>2024-01-25T13:11:42Z</time>
      </trkpt>
      <trkpt lat="48.86243" lon="-1.47287">
        <ele>96</ele>
        <time>2024-01-25T13:11:43Z</time>
      </trkpt>
      <trkpt lat="48.86241" lon="-1.4728">
        <ele>96</ele>
        <time>2024-01-25T13:11:44Z</time>
      </trkpt>
      <trkpt lat="48.86239" lon="-1.47273">
        <ele>96</ele>
        <time>2024-01-25T13:11:45Z</time>
      </trkpt>
      <trkpt lat="48.86237" lon="-1.47266">
        <ele>96.1</ele>
        <time>2024-01-25T13:11:46Z</time>
      </trkpt>
      <trkpt lat="48.86235" lon="-1.47259">
        <ele>96.1</ele>
        <time>2024-01-25T13:11:47Z</time>
      </trkpt>
      <trkpt lat="48.86232" lon="-1.47252">
        <ele>96.1</ele>
        <time>2024-01-25T13:11:48Z</time>
      </trkpt>
      <trkpt lat="48.8623" lon="-1.47245">
        <ele>96.2</ele>
        <time>2024-01-25T13:11:49Z</time>
      </trkpt>
      <trkpt lat="48.86228" lon="-1.47238">
        <ele>96.2</ele>
        <time>2024-01-25T13:11:50Z</time>
      </trkpt>
      <trkpt lat="48.86226" lon="-1.4723">
        <ele>96.2</ele>
        <time>2024-01-25T13:11:51Z</time>
      </trkpt>
      <trkpt lat="48.86224" lon="-1.47223">
        <ele>96.2</ele>
        <time>2024-01-25T13:11:52Z</time>
      </trkpt>
      <trkpt lat="48.86222" lon="-1.47216">
        <ele>96.2</ele>
        <time>2024-01-25T13:11:53Z</time>
      </trkpt>
      <trkpt lat="48.8622" lon="-1.47208">
        <ele>96.2</ele>
        <time>2024-01-25T13:11:54Z</time>
      </trkpt>
      <trkpt lat="48.86219" lon="-1.47201">
        <ele>96.1</ele>
        <time>2024-01-25T13:11:55Z</time>
      </trkpt>
      <trkpt lat="48.86217" lon="-1.47194">
        <ele>96.1</ele>
        <time>2024-01-25T13:11:56Z</time>
      </trkpt>
      <trkpt lat="48.86215" lon="-1.47185">
        <ele>96.1</ele>
        <time>2024-01-25T13:11:57Z</time>
      </trkpt>
      <trkpt lat="48.86213" lon="-1.47177">
        <ele>96</ele>
        <time>2024-01-25T13:11:58Z</time>
      </trkpt>
      <trkpt lat="48.86212" lon="-1.47169">
        <ele>96</ele>
        <time>2024-01-25T13:11:59Z</time>
      </trkpt>
      <trkpt lat="48.8621" lon="-1.47161">
        <ele>95.9</ele>
        <time>2024-01-25T13:12:00Z</time>
      </trkpt>
      <trkpt lat="48.86208" lon="-1.47152">
        <ele>95.8</ele>
        <time>2024-01-25T13:12:01Z</time>
      </trkpt>
      <trkpt lat="48.86206" lon="-1.47144">
        <ele>95.8</ele>
        <time>2024-01-25T13:12:02Z</time>
      </trkpt>
      <trkpt lat="48.86205" lon="-1.47136">
        <ele>95.7</ele>
        <time>2024-01-25T13:12:03Z</time>
      </trkpt>
      <trkpt lat="48.86203" lon="-1.47127">
        <ele>95.7</ele>
        <time>2024-01-25T13:12:04Z</time>
      </trkpt>
      <trkpt lat="48.86202" lon="-1.47119">
        <ele>95.6</ele>
        <time>2024-01-25T13:12:05Z</time>
      </trkpt>
      <trkpt lat="48.86201" lon="-1.47111">
        <ele>95.6</ele>
        <time>2024-01-25T13:12:06Z</time>
      </trkpt>
      <trkpt lat="48.862" lon="-1.47102">
        <ele>95.5</ele>
        <time>2024-01-25T13:12:07Z</time>
      </trkpt>
      <trkpt lat="48.86198" lon="-1.47094">
        <ele>95.4</ele>
        <time>2024-01-25T13:12:08Z</time>
      </trkpt>
      <trkpt lat="48.86197" lon="-1.47085">
        <ele>95.4</ele>
        <time>2024-01-25T13:12:09Z</time>
      </trkpt>
      <trkpt lat="48.86196" lon="-1.47077">
        <ele>95.3</ele>
        <time>2024-01-25T13:12:10Z</time>
      </trkpt>
      <trkpt lat="48.86195" lon="-1.47069">
        <ele>95.2</ele>
        <time>2024-01-25T13:12:11Z</time>
      </trkpt>
      <trkpt lat="48.86194" lon="-1.4706">
        <ele>95.1</ele>
        <time>2024-01-25T13:12:12Z</time>
      </trkpt>
      <trkpt lat="48.86192" lon="-1.47052">
        <ele>95</ele>
        <time>2024-01-25T13:12:13Z</time>
      </trkpt>
      <trkpt lat="48.86191" lon="-1.47043">
        <ele>94.9</ele>
        <time>2024-01-25T13:12:14Z</time>
      </trkpt>
      <trkpt lat="48.86189" lon="-1.47035">
        <ele>94.8</ele>
        <time>2024-01-25T13:12:15Z</time>
      </trkpt>
      <trkpt lat="48.86187" lon="-1.47027">
        <ele>94.7</ele>
        <time>2024-01-25T13:12:16Z</time>
      </trkpt>
      <trkpt lat="48.86186" lon="-1.47018">
        <ele>94.6</ele>
        <time>2024-01-25T13:12:17Z</time>
      </trkpt>
      <trkpt lat="48.86184" lon="-1.4701">
        <ele>94.5</ele>
        <time>2024-01-25T13:12:18Z</time>
      </trkpt>
      <trkpt lat="48.86183" lon="-1.47001">
        <ele>94.4</ele>
        <time>2024-01-25T13:12:19Z</time>
      </trkpt>
      <trkpt lat="48.86181" lon="-1.46992">
        <ele>94.3</ele>
        <time>2024-01-25T13:12:20Z</time>
      </trkpt>
      <trkpt lat="48.86179" lon="-1.46983">
        <ele>94.3</ele>
        <time>2024-01-25T13:12:21Z</time>
      </trkpt>
      <trkpt lat="48.86177" lon="-1.46973">
        <ele>94.2</ele>
        <time>2024-01-25T13:12:22Z</time>
      </trkpt>
      <trkpt lat="48.86175" lon="-1.46964">
        <ele>94.2</ele>
        <time>2024-01-25T13:12:23Z</time>
      </trkpt>
      <trkpt lat="48.86173" lon="-1.46955">
        <ele>94.2</ele>
        <time>2024-01-25T13:12:24Z</time>
      </trkpt>
      <trkpt lat="48.86171" lon="-1.46946">
        <ele>94.2</ele>
        <time>2024-01-25T13:12:25Z</time>
      </trkpt>
      <trkpt lat="48.86169" lon="-1.46938">
        <ele>94.2</ele>
        <time>2024-01-25T13:12:26Z</time>
      </trkpt>
      <trkpt lat="48.86166" lon="-1.46929">
        <ele>94.2</ele>
        <time>2024-01-25T13:12:27Z</time>
      </trkpt>
      <trkpt lat="48.86164" lon="-1.46921">
        <ele>94.1</ele>
        <time>2024-01-25T13:12:28Z</time>
      </trkpt>
      <trkpt lat="48.86163" lon="-1.46913">
        <ele>94.1</ele>
        <time>2024-01-25T13:12:29Z</time>
      </trkpt>
      <trkpt lat="48.86162" lon="-1.46904">
        <ele>94.1</ele>
        <time>2024-01-25T13:12:30Z</time>
      </trkpt>
      <trkpt lat="48.8616" lon="-1.46895">
        <ele>94.1</ele>
        <time>2024-01-25T13:12:31Z</time>
      </trkpt>
      <trkpt lat="48.86158" lon="-1.46886">
        <ele>94.1</ele>
        <time>2024-01-25T13:12:32Z</time>
      </trkpt>
      <trkpt lat="48.86156" lon="-1.46877">
        <ele>94.1</ele>
        <time>2024-01-25T13:12:33Z</time>
      </trkpt>
      <trkpt lat="48.86155" lon="-1.46868">
        <ele>94.1</ele>
        <time>2024-01-25T13:12:34Z</time>
      </trkpt>
      <trkpt lat="48.86154" lon="-1.46859">
        <ele>94.2</ele>
        <time>2024-01-25T13:12:35Z</time>
      </trkpt>
      <trkpt lat="48.86153" lon="-1.46851">
        <ele>94.2</ele>
        <time>2024-01-25T13:12:36Z</time>
      </trkpt>
      <trkpt lat="48.86152" lon="-1.46842">
        <ele>94.3</ele>
        <time>2024-01-25T13:12:37Z</time>
      </trkpt>
      <trkpt lat="48.86151" lon="-1.46833">
        <ele>94.3</ele>
        <time>2024-01-25T13:12:38Z</time>
      </trkpt>
      <trkpt lat="48.8615" lon="-1.46824">
        <ele>94.4</ele>
        <time>2024-01-25T13:12:39Z</time>
      </trkpt>
      <trkpt lat="48.86149" lon="-1.46816">
        <ele>94.4</ele>
        <time>2024-01-25T13:12:40Z</time>
      </trkpt>
      <trkpt lat="48.86148" lon="-1.46807">
        <ele>94.4</ele>
        <time>2024-01-25T13:12:41Z</time>
      </trkpt>
      <trkpt lat="48.86147" lon="-1.46798">
        <ele>94.4</ele>
        <time>2024-01-25T13:12:42Z</time>
      </trkpt>
      <trkpt lat="48.86146" lon="-1.4679">
        <ele>94.5</ele>
        <time>2024-01-25T13:12:43Z</time>
      </trkpt>
      <trkpt lat="48.86146" lon="-1.46781">
        <ele>94.5</ele>
        <time>2024-01-25T13:12:44Z</time>
      </trkpt>
      <trkpt lat="48.86145" lon="-1.46772">
        <ele>94.6</ele>
        <time>2024-01-25T13:12:45Z</time>
      </trkpt>
      <trkpt lat="48.86145" lon="-1.46763">
        <ele>94.6</ele>
        <time>2024-01-25T13:12:46Z</time>
      </trkpt>
      <trkpt lat="48.86145" lon="-1.46754">
        <ele>94.7</ele>
        <time>2024-01-25T13:12:47Z</time>
      </trkpt>
      <trkpt lat="48.86146" lon="-1.46745">
        <ele>94.8</ele>
        <time>2024-01-25T13:12:48Z</time>
      </trkpt>
      <trkpt lat="48.86147" lon="-1.46737">
        <ele>94.8</ele>
        <time>2024-01-25T13:12:49Z</time>
      </trkpt>
      <trkpt lat="48.86148" lon="-1.46729">
        <ele>94.9</ele>
        <time>2024-01-25T13:12:50Z</time>
      </trkpt>
      <trkpt lat="48.86149" lon="-1.46721">
        <ele>95</ele>
        <time>2024-01-25T13:12:51Z</time>
      </trkpt>
      <trkpt lat="48.86151" lon="-1.46714">
        <ele>95.1</ele>
        <time>2024-01-25T13:12:52Z</time>
      </trkpt>
      <trkpt lat="48.86152" lon="-1.46706">
        <ele>95.2</ele>
        <time>2024-01-25T13:12:53Z</time>
      </trkpt>
      <trkpt lat="48.86153" lon="-1.46698">
        <ele>95.2</ele>
        <time>2024-01-25T13:12:54Z</time>
      </trkpt>
      <trkpt lat="48.86154" lon="-1.4669">
        <ele>95.3</ele>
        <time>2024-01-25T13:12:55Z</time>
      </trkpt>
      <trkpt lat="48.86156" lon="-1.46682">
        <ele>95.4</ele>
        <time>2024-01-25T13:12:56Z</time>
      </trkpt>
      <trkpt lat="48.86157" lon="-1.46674">
        <ele>95.4</ele>
        <time>2024-01-25T13:12:57Z</time>
      </trkpt>
      <trkpt lat="48.86159" lon="-1.46666">
        <ele>95.5</ele>
        <time>2024-01-25T13:12:58Z</time>
      </trkpt>
      <trkpt lat="48.8616" lon="-1.46658">
        <ele>95.5</ele>
        <time>2024-01-25T13:12:59Z</time>
      </trkpt>
      <trkpt lat="48.8616" lon="-1.46649">
        <ele>95.5</ele>
        <time>2024-01-25T13:13:00Z</time>
      </trkpt>
      <trkpt lat="48.86161" lon="-1.46641">
        <ele>95.6</ele>
        <time>2024-01-25T13:13:01Z</time>
      </trkpt>
      <trkpt lat="48.86161" lon="-1.46632">
        <ele>95.6</ele>
        <time>2024-01-25T13:13:02Z</time>
      </trkpt>
      <trkpt lat="48.86161" lon="-1.46623">
        <ele>95.6</ele>
        <time>2024-01-25T13:13:03Z</time>
      </trkpt>
      <trkpt lat="48.86161" lon="-1.46614">
        <ele>95.7</ele>
        <time>2024-01-25T13:13:04Z</time>
      </trkpt>
      <trkpt lat="48.86161" lon="-1.46605">
        <ele>95.7</ele>
        <time>2024-01-25T13:13:05Z</time>
      </trkpt>
      <trkpt lat="48.86161" lon="-1.46597">
        <ele>95.8</ele>
        <time>2024-01-25T13:13:06Z</time>
      </trkpt>
      <trkpt lat="48.8616" lon="-1.46588">
        <ele>95.8</ele>
        <time>2024-01-25T13:13:07Z</time>
      </trkpt>
      <trkpt lat="48.86159" lon="-1.46579">
        <ele>95.9</ele>
        <time>2024-01-25T13:13:08Z</time>
      </trkpt>
      <trkpt lat="48.86159" lon="-1.46569">
        <ele>96</ele>
        <time>2024-01-25T13:13:09Z</time>
      </trkpt>
      <trkpt lat="48.86158" lon="-1.46559">
        <ele>96.1</ele>
        <time>2024-01-25T13:13:10Z</time>
      </trkpt>
      <trkpt lat="48.86158" lon="-1.4655">
        <ele>96.2</ele>
        <time>2024-01-25T13:13:11Z</time>
      </trkpt>
      <trkpt lat="48.86159" lon="-1.4654">
        <ele>96.2</ele>
        <time>2024-01-25T13:13:12Z</time>
      </trkpt>
      <trkpt lat="48.8616" lon="-1.46531">
        <ele>96.3</ele>
        <time>2024-01-25T13:13:13Z</time>
      </trkpt>
      <trkpt lat="48.86162" lon="-1.46523">
        <ele>96.5</ele>
        <time>2024-01-25T13:13:14Z</time>
      </trkpt>
      <trkpt lat="48.86163" lon="-1.46514">
        <ele>96.6</ele>
        <time>2024-01-25T13:13:15Z</time>
      </trkpt>
      <trkpt lat="48.86164" lon="-1.46506">
        <ele>96.7</ele>
        <time>2024-01-25T13:13:16Z</time>
      </trkpt>
      <trkpt lat="48.86165" lon="-1.46498">
        <ele>96.8</ele>
        <time>2024-01-25T13:13:17Z</time>
      </trkpt>
      <trkpt lat="48.86165" lon="-1.46489">
        <ele>96.9</ele>
        <time>2024-01-25T13:13:18Z</time>
      </trkpt>
      <trkpt lat="48.86166" lon="-1.46481">
        <ele>97</ele>
        <time>2024-01-25T13:13:19Z</time>
      </trkpt>
      <trkpt lat="48.86168" lon="-1.46473">
        <ele>97.1</ele>
        <time>2024-01-25T13:13:20Z</time>
      </trkpt>
      <trkpt lat="48.86169" lon="-1.46465">
        <ele>97.2</ele>
        <time>2024-01-25T13:13:21Z</time>
      </trkpt>
      <trkpt lat="48.8617" lon="-1.46457">
        <ele>97.3</ele>
        <time>2024-01-25T13:13:22Z</time>
      </trkpt>
      <trkpt lat="48.86171" lon="-1.46449">
        <ele>97.4</ele>
        <time>2024-01-25T13:13:23Z</time>
      </trkpt>
      <trkpt lat="48.86172" lon="-1.46442">
        <ele>97.5</ele>
        <time>2024-01-25T13:13:24Z</time>
      </trkpt>
      <trkpt lat="48.86173" lon="-1.46434">
        <ele>97.5</ele>
        <time>2024-01-25T13:13:25Z</time>
      </trkpt>
      <trkpt lat="48.86173" lon="-1.46426">
        <ele>97.6</ele>
        <time>2024-01-25T13:13:26Z</time>
      </trkpt>
      <trkpt lat="48.86174" lon="-1.46419">
        <ele>97.7</ele>
        <time>2024-01-25T13:13:27Z</time>
      </trkpt>
      <trkpt lat="48.86175" lon="-1.46412">
        <ele>97.7</ele>
        <time>2024-01-25T13:13:28Z</time>
      </trkpt>
      <trkpt lat="48.86176" lon="-1.46404">
        <ele>97.8</ele>
        <time>2024-01-25T13:13:29Z</time>
      </trkpt>
      <trkpt lat="48.86176" lon="-1.46396">
        <ele>97.8</ele>
        <time>2024-01-25T13:13:30Z</time>
      </trkpt>
      <trkpt lat="48.86176" lon="-1.46389">
        <ele>97.9</ele>
        <time>2024-01-25T13:13:31Z</time>
      </trkpt>
      <trkpt lat="48.86176" lon="-1.46381">
        <ele>98</ele>
        <time>2024-01-25T13:13:32Z</time>
      </trkpt>
      <trkpt lat="48.86177" lon="-1.46373">
        <ele>98</ele>
        <time>2024-01-25T13:13:33Z</time>
      </trkpt>
      <trkpt lat="48.86178" lon="-1.46365">
        <ele>98.1</ele>
        <time>2024-01-25T13:13:34Z</time>
      </trkpt>
      <trkpt lat="48.86179" lon="-1.46358">
        <ele>98.2</ele>
        <time>2024-01-25T13:13:35Z</time>
      </trkpt>
      <trkpt lat="48.8618" lon="-1.4635">
        <ele>98.3</ele>
        <time>2024-01-25T13:13:36Z</time>
      </trkpt>
      <trkpt lat="48.8618" lon="-1.46342">
        <ele>98.4</ele>
        <time>2024-01-25T13:13:37Z</time>
      </trkpt>
      <trkpt lat="48.86181" lon="-1.46334">
        <ele>98.5</ele>
        <time>2024-01-25T13:13:38Z</time>
      </trkpt>
      <trkpt lat="48.86181" lon="-1.46326">
        <ele>98.5</ele>
        <time>2024-01-25T13:13:39Z</time>
      </trkpt>
      <trkpt lat="48.86182" lon="-1.46317">
        <ele>98.6</ele>
        <time>2024-01-25T13:13:40Z</time>
      </trkpt>
      <trkpt lat="48.86182" lon="-1.46309">
        <ele>98.7</ele>
        <time>2024-01-25T13:13:41Z</time>
      </trkpt>
      <trkpt lat="48.86182" lon="-1.46301">
        <ele>98.7</ele>
        <time>2024-01-25T13:13:42Z</time>
      </trkpt>
      <trkpt lat="48.86181" lon="-1.46293">
        <ele>98.8</ele>
        <time>2024-01-25T13:13:43Z</time>
      </trkpt>
      <trkpt lat="48.86181" lon="-1.46285">
        <ele>98.9</ele>
        <time>2024-01-25T13:13:44Z</time>
      </trkpt>
      <trkpt lat="48.86181" lon="-1.46277">
        <ele>98.9</ele>
        <time>2024-01-25T13:13:45Z</time>
      </trkpt>
      <trkpt lat="48.86181" lon="-1.46269">
        <ele>99</ele>
        <time>2024-01-25T13:13:46Z</time>
      </trkpt>
      <trkpt lat="48.8618" lon="-1.46262">
        <ele>99.1</ele>
        <time>2024-01-25T13:13:47Z</time>
      </trkpt>
      <trkpt lat="48.86179" lon="-1.46254">
        <ele>99.1</ele>
        <time>2024-01-25T13:13:48Z</time>
      </trkpt>
      <trkpt lat="48.86178" lon="-1.46246">
        <ele>99.2</ele>
        <time>2024-01-25T13:13:49Z</time>
      </trkpt>
      <trkpt lat="48.86177" lon="-1.46238">
        <ele>99.3</ele>
        <time>2024-01-25T13:13:50Z</time>
      </trkpt>
      <trkpt lat="48.86177" lon="-1.4623">
        <ele>99.4</ele>
        <time>2024-01-25T13:13:51Z</time>
      </trkpt>
      <trkpt lat="48.86176" lon="-1.46223">
        <ele>99.5</ele>
        <time>2024-01-25T13:13:52Z</time>
      </trkpt>
      <trkpt lat="48.86175" lon="-1.46215">
        <ele>99.6</ele>
        <time>2024-01-25T13:13:53Z</time>
      </trkpt>
      <trkpt lat="48.86175" lon="-1.46207">
        <ele>99.7</ele>
        <time>2024-01-25T13:13:54Z</time>
      </trkpt>
      <trkpt lat="48.86175" lon="-1.46199">
        <ele>99.8</ele>
        <time>2024-01-25T13:13:55Z</time>
      </trkpt>
      <trkpt lat="48.86177" lon="-1.46192">
        <ele>99.9</ele>
        <time>2024-01-25T13:13:56Z</time>
      </trkpt>
      <trkpt lat="48.86178" lon="-1.46185">
        <ele>100</ele>
        <time>2024-01-25T13:13:57Z</time>
      </trkpt>
      <trkpt lat="48.86181" lon="-1.46178">
        <ele>100.1</ele>
        <time>2024-01-25T13:13:58Z</time>
      </trkpt>
      <trkpt lat="48.86183" lon="-1.46172">
        <ele>100.2</ele>
        <time>2024-01-25T13:13:59Z</time>
      </trkpt>
      <trkpt lat="48.86186" lon="-1.46167">
        <ele>100.3</ele>
        <time>2024-01-25T13:14:00Z</time>
      </trkpt>
      <trkpt lat="48.86189" lon="-1.46162">
        <ele>100.4</ele>
        <time>2024-01-25T13:14:01Z</time>
      </trkpt>
      <trkpt lat="48.86192" lon="-1.46156">
        <ele>100.5</ele>
        <time>2024-01-25T13:14:02Z</time>
      </trkpt>
      <trkpt lat="48.86195" lon="-1.4615">
        <ele>100.6</ele>
        <time>2024-01-25T13:14:03Z</time>
      </trkpt>
      <trkpt lat="48.86197" lon="-1.46143">
        <ele>100.7</ele>
        <time>2024-01-25T13:14:04Z</time>
      </trkpt>
      <trkpt lat="48.86198" lon="-1.46136">
        <ele>100.7</ele>
        <time>2024-01-25T13:14:05Z</time>
      </trkpt>
      <trkpt lat="48.86199" lon="-1.46128">
        <ele>100.8</ele>
        <time>2024-01-25T13:14:06Z</time>
      </trkpt>
      <trkpt lat="48.862" lon="-1.46121">
        <ele>100.9</ele>
        <time>2024-01-25T13:14:07Z</time>
      </trkpt>
      <trkpt lat="48.862" lon="-1.46113">
        <ele>100.9</ele>
        <time>2024-01-25T13:14:08Z</time>
      </trkpt>
      <trkpt lat="48.86201" lon="-1.46105">
        <ele>100.9</ele>
        <time>2024-01-25T13:14:09Z</time>
      </trkpt>
      <trkpt lat="48.862" lon="-1.46097">
        <ele>101</ele>
        <time>2024-01-25T13:14:10Z</time>
      </trkpt>
      <trkpt lat="48.862" lon="-1.46089">
        <ele>101</ele>
        <time>2024-01-25T13:14:11Z</time>
      </trkpt>
      <trkpt lat="48.862" lon="-1.46081">
        <ele>101.1</ele>
        <time>2024-01-25T13:14:12Z</time>
      </trkpt>
      <trkpt lat="48.862" lon="-1.46073">
        <ele>101.2</ele>
        <time>2024-01-25T13:14:13Z</time>
      </trkpt>
      <trkpt lat="48.862" lon="-1.46065">
        <ele>101.2</ele>
        <time>2024-01-25T13:14:14Z</time>
      </trkpt>
      <trkpt lat="48.862" lon="-1.46057">
        <ele>101.3</ele>
        <time>2024-01-25T13:14:15Z</time>
      </trkpt>
      <trkpt lat="48.862" lon="-1.46049">
        <ele>101.4</ele>
        <time>2024-01-25T13:14:16Z</time>
      </trkpt>
      <trkpt lat="48.862" lon="-1.46042">
        <ele>101.5</ele>
        <time>2024-01-25T13:14:17Z</time>
      </trkpt>
      <trkpt lat="48.862" lon="-1.46034">
        <ele>101.5</ele>
        <time>2024-01-25T13:14:18Z</time>
      </trkpt>
      <trkpt lat="48.862" lon="-1.46026">
        <ele>101.6</ele>
        <time>2024-01-25T13:14:19Z</time>
      </trkpt>
      <trkpt lat="48.862" lon="-1.46018">
        <ele>101.7</ele>
        <time>2024-01-25T13:14:20Z</time>
      </trkpt>
      <trkpt lat="48.86201" lon="-1.4601">
        <ele>101.7</ele>
        <time>2024-01-25T13:14:21Z</time>
      </trkpt>
      <trkpt lat="48.86201" lon="-1.46002">
        <ele>101.8</ele>
        <time>2024-01-25T13:14:22Z</time>
      </trkpt>
      <trkpt lat="48.86201" lon="-1.45994">
        <ele>101.9</ele>
        <time>2024-01-25T13:14:23Z</time>
      </trkpt>
      <trkpt lat="48.862" lon="-1.45986">
        <ele>101.9</ele>
        <time>2024-01-25T13:14:24Z</time>
      </trkpt>
      <trkpt lat="48.86201" lon="-1.45979">
        <ele>102</ele>
        <time>2024-01-25T13:14:25Z</time>
      </trkpt>
      <trkpt lat="48.86202" lon="-1.45971">
        <ele>102.1</ele>
        <time>2024-01-25T13:14:26Z</time>
      </trkpt>
      <trkpt lat="48.86202" lon="-1.45964">
        <ele>102.2</ele>
        <time>2024-01-25T13:14:27Z</time>
      </trkpt>
      <trkpt lat="48.86202" lon="-1.45957">
        <ele>102.3</ele>
        <time>2024-01-25T13:14:28Z</time>
      </trkpt>
      <trkpt lat="48.86202" lon="-1.45951">
        <ele>102.3</ele>
        <time>2024-01-25T13:14:29Z</time>
      </trkpt>
      <trkpt lat="48.86202" lon="-1.45945">
        <ele>102.4</ele>
        <time>2024-01-25T13:14:30Z</time>
      </trkpt>
      <trkpt lat="48.86203" lon="-1.4594">
        <ele>102.5</ele>
        <time>2024-01-25T13:14:31Z</time>
      </trkpt>
      <trkpt lat="48.86203" lon="-1.45934">
        <ele>102.5</ele>
        <time>2024-01-25T13:14:32Z</time>
      </trkpt>
      <trkpt lat="48.86203" lon="-1.45929">
        <ele>102.6</ele>
        <time>2024-01-25T13:14:33Z</time>
      </trkpt>
      <trkpt lat="48.86203" lon="-1.45924">
        <ele>102.7</ele>
        <time>2024-01-25T13:14:34Z</time>
      </trkpt>
      <trkpt lat="48.86203" lon="-1.4592">
        <ele>102.7</ele>
        <time>2024-01-25T13:14:35Z</time>
      </trkpt>
      <trkpt lat="48.86202" lon="-1.45911">
        <ele>102.9</ele>
        <time>2024-01-25T13:14:37Z</time>
      </trkpt>
      <trkpt lat="48.86198" lon="-1.45907">
        <ele>102.9</ele>
        <time>2024-01-25T13:14:39Z</time>
      </trkpt>
      <trkpt lat="48.86192" lon="-1.45903">
        <ele>102.8</ele>
        <time>2024-01-25T13:14:40Z</time>
      </trkpt>
      <trkpt lat="48.86187" lon="-1.45901">
        <ele>102.7</ele>
        <time>2024-01-25T13:14:41Z</time>
      </trkpt>
      <trkpt lat="48.86182" lon="-1.45899">
        <ele>102.6</ele>
        <time>2024-01-25T13:14:42Z</time>
      </trkpt>
      <trkpt lat="48.86177" lon="-1.45898">
        <ele>102.5</ele>
        <time>2024-01-25T13:14:43Z</time>
      </trkpt>
      <trkpt lat="48.86171" lon="-1.45896">
        <ele>102.5</ele>
        <time>2024-01-25T13:14:44Z</time>
      </trkpt>
      <trkpt lat="48.86166" lon="-1.45895">
        <ele>102.4</ele>
        <time>2024-01-25T13:14:45Z</time>
      </trkpt>
      <trkpt lat="48.86161" lon="-1.45894">
        <ele>102.4</ele>
        <time>2024-01-25T13:14:46Z</time>
      </trkpt>
      <trkpt lat="48.86156" lon="-1.45893">
        <ele>102.3</ele>
        <time>2024-01-25T13:14:47Z</time>
      </trkpt>
      <trkpt lat="48.8615" lon="-1.45892">
        <ele>102.3</ele>
        <time>2024-01-25T13:14:48Z</time>
      </trkpt>
      <trkpt lat="48.86145" lon="-1.4589">
        <ele>102.3</ele>
        <time>2024-01-25T13:14:49Z</time>
      </trkpt>
      <trkpt lat="48.8614" lon="-1.45888">
        <ele>102.2</ele>
        <time>2024-01-25T13:14:50Z</time>
      </trkpt>
      <trkpt lat="48.86135" lon="-1.45887">
        <ele>102.2</ele>
        <time>2024-01-25T13:14:51Z</time>
      </trkpt>
      <trkpt lat="48.86131" lon="-1.45886">
        <ele>102.1</ele>
        <time>2024-01-25T13:14:52Z</time>
      </trkpt>
      <trkpt lat="48.86126" lon="-1.45885">
        <ele>102</ele>
        <time>2024-01-25T13:14:53Z</time>
      </trkpt>
      <trkpt lat="48.86121" lon="-1.45883">
        <ele>102</ele>
        <time>2024-01-25T13:14:54Z</time>
      </trkpt>
      <trkpt lat="48.86117" lon="-1.45881">
        <ele>102</ele>
        <time>2024-01-25T13:14:55Z</time>
      </trkpt>
      <trkpt lat="48.86112" lon="-1.45879">
        <ele>101.9</ele>
        <time>2024-01-25T13:14:56Z</time>
      </trkpt>
      <trkpt lat="48.86107" lon="-1.45876">
        <ele>101.8</ele>
        <time>2024-01-25T13:14:57Z</time>
      </trkpt>
      <trkpt lat="48.86103" lon="-1.45873">
        <ele>101.8</ele>
        <time>2024-01-25T13:14:58Z</time>
      </trkpt>
      <trkpt lat="48.86099" lon="-1.45871">
        <ele>101.8</ele>
        <time>2024-01-25T13:14:59Z</time>
      </trkpt>
      <trkpt lat="48.86095" lon="-1.45869">
        <ele>101.7</ele>
        <time>2024-01-25T13:15:00Z</time>
      </trkpt>
      <trkpt lat="48.86091" lon="-1.45868">
        <ele>101.6</ele>
        <time>2024-01-25T13:15:01Z</time>
      </trkpt>
      <trkpt lat="48.86087" lon="-1.45867">
        <ele>101.5</ele>
        <time>2024-01-25T13:15:02Z</time>
      </trkpt>
      <trkpt lat="48.86083" lon="-1.45866">
        <ele>101.5</ele>
        <time>2024-01-25T13:15:03Z</time>
      </trkpt>
      <trkpt lat="48.86078" lon="-1.45865">
        <ele>101.4</ele>
        <time>2024-01-25T13:15:04Z</time>
      </trkpt>
      <trkpt lat="48.86073" lon="-1.45864">
        <ele>101.2</ele>
        <time>2024-01-25T13:15:05Z</time>
      </trkpt>
      <trkpt lat="48.86065" lon="-1.45861">
        <ele>101</ele>
        <time>2024-01-25T13:15:07Z</time>
      </trkpt>
      <trkpt lat="48.86058" lon="-1.4586">
        <ele>100.8</ele>
        <time>2024-01-25T13:15:08Z</time>
      </trkpt>
      <trkpt lat="48.86051" lon="-1.4586">
        <ele>100.6</ele>
        <time>2024-01-25T13:15:09Z</time>
      </trkpt>
      <trkpt lat="48.86045" lon="-1.45859">
        <ele>100.4</ele>
        <time>2024-01-25T13:15:10Z</time>
      </trkpt>
      <trkpt lat="48.8604" lon="-1.45859">
        <ele>100.2</ele>
        <time>2024-01-25T13:15:11Z</time>
      </trkpt>
      <trkpt lat="48.86033" lon="-1.45859">
        <ele>100</ele>
        <time>2024-01-25T13:15:12Z</time>
      </trkpt>
      <trkpt lat="48.86027" lon="-1.4586">
        <ele>99.7</ele>
        <time>2024-01-25T13:15:13Z</time>
      </trkpt>
      <trkpt lat="48.86021" lon="-1.4586">
        <ele>99.5</ele>
        <time>2024-01-25T13:15:14Z</time>
      </trkpt>
      <trkpt lat="48.86015" lon="-1.45861">
        <ele>99.3</ele>
        <time>2024-01-25T13:15:15Z</time>
      </trkpt>
      <trkpt lat="48.86009" lon="-1.45861">
        <ele>99</ele>
        <time>2024-01-25T13:15:16Z</time>
      </trkpt>
      <trkpt lat="48.86004" lon="-1.45862">
        <ele>98.8</ele>
        <time>2024-01-25T13:15:17Z</time>
      </trkpt>
      <trkpt lat="48.85998" lon="-1.45863">
        <ele>98.6</ele>
        <time>2024-01-25T13:15:18Z</time>
      </trkpt>
      <trkpt lat="48.85992" lon="-1.45864">
        <ele>98.4</ele>
        <time>2024-01-25T13:15:19Z</time>
      </trkpt>
      <trkpt lat="48.85985" lon="-1.45864">
        <ele>98.1</ele>
        <time>2024-01-25T13:15:20Z</time>
      </trkpt>
      <trkpt lat="48.85978" lon="-1.45864">
        <ele>97.8</ele>
        <time>2024-01-25T13:15:21Z</time>
      </trkpt>
      <trkpt lat="48.85971" lon="-1.45864">
        <ele>97.5</ele>
        <time>2024-01-25T13:15:22Z</time>
      </trkpt>
      <trkpt lat="48.85964" lon="-1.45863">
        <ele>97.2</ele>
        <time>2024-01-25T13:15:23Z</time>
      </trkpt>
      <trkpt lat="48.85956" lon="-1.45862">
        <ele>96.8</ele>
        <time>2024-01-25T13:15:24Z</time>
      </trkpt>
      <trkpt lat="48.85947" lon="-1.45861">
        <ele>96.3</ele>
        <time>2024-01-25T13:15:25Z</time>
      </trkpt>
      <trkpt lat="48.85939" lon="-1.4586">
        <ele>95.8</ele>
        <time>2024-01-25T13:15:26Z</time>
      </trkpt>
      <trkpt lat="48.85931" lon="-1.45859">
        <ele>95.3</ele>
        <time>2024-01-25T13:15:27Z</time>
      </trkpt>
      <trkpt lat="48.85924" lon="-1.45858">
        <ele>94.8</ele>
        <time>2024-01-25T13:15:28Z</time>
      </trkpt>
      <trkpt lat="48.85915" lon="-1.45858">
        <ele>94.3</ele>
        <time>2024-01-25T13:15:29Z</time>
      </trkpt>
      <trkpt lat="48.85907" lon="-1.45858">
        <ele>93.7</ele>
        <time>2024-01-25T13:15:30Z</time>
      </trkpt>
      <trkpt lat="48.85897" lon="-1.45858">
        <ele>93.1</ele>
        <time>2024-01-25T13:15:31Z</time>
      </trkpt>
      <trkpt lat="48.85889" lon="-1.45858">
        <ele>92.4</ele>
        <time>2024-01-25T13:15:32Z</time>
      </trkpt>
      <trkpt lat="48.85882" lon="-1.45856">
        <ele>91.8</ele>
        <time>2024-01-25T13:15:33Z</time>
      </trkpt>
      <trkpt lat="48.85875" lon="-1.45854">
        <ele>91.1</ele>
        <time>2024-01-25T13:15:34Z</time>
      </trkpt>
      <trkpt lat="48.85869" lon="-1.45851">
        <ele>90.4</ele>
        <time>2024-01-25T13:15:35Z</time>
      </trkpt>
      <trkpt lat="48.85863" lon="-1.45847">
        <ele>89.7</ele>
        <time>2024-01-25T13:15:36Z</time>
      </trkpt>
      <trkpt lat="48.85857" lon="-1.45841">
        <ele>88.8</ele>
        <time>2024-01-25T13:15:37Z</time>
      </trkpt>
      <trkpt lat="48.8585" lon="-1.45836">
        <ele>88</ele>
        <time>2024-01-25T13:15:38Z</time>
      </trkpt>
      <trkpt lat="48.85843" lon="-1.4583">
        <ele>87</ele>
        <time>2024-01-25T13:15:39Z</time>
      </trkpt>
      <trkpt lat="48.85835" lon="-1.45824">
        <ele>86</ele>
        <time>2024-01-25T13:15:40Z</time>
      </trkpt>
      <trkpt lat="48.85827" lon="-1.45817">
        <ele>85</ele>
        <time>2024-01-25T13:15:41Z</time>
      </trkpt>
      <trkpt lat="48.85819" lon="-1.4581">
        <ele>83.9</ele>
        <time>2024-01-25T13:15:42Z</time>
      </trkpt>
      <trkpt lat="48.85811" lon="-1.45803">
        <ele>82.8</ele>
        <time>2024-01-25T13:15:43Z</time>
      </trkpt>
      <trkpt lat="48.85803" lon="-1.45796">
        <ele>81.7</ele>
        <time>2024-01-25T13:15:44Z</time>
      </trkpt>
      <trkpt lat="48.85795" lon="-1.45789">
        <ele>80.5</ele>
        <time>2024-01-25T13:15:45Z</time>
      </trkpt>
      <trkpt lat="48.85786" lon="-1.4578">
        <ele>79.1</ele>
        <time>2024-01-25T13:15:46Z</time>
      </trkpt>
      <trkpt lat="48.85778" lon="-1.45772">
        <ele>77.7</ele>
        <time>2024-01-25T13:15:47Z</time>
      </trkpt>
      <trkpt lat="48.8577" lon="-1.45763">
        <ele>76.3</ele>
        <time>2024-01-25T13:15:48Z</time>
      </trkpt>
      <trkpt lat="48.85761" lon="-1.45753">
        <ele>74.8</ele>
        <time>2024-01-25T13:15:49Z</time>
      </trkpt>
      <trkpt lat="48.85752" lon="-1.45744">
        <ele>73.4</ele>
        <time>2024-01-25T13:15:50Z</time>
      </trkpt>
      <trkpt lat="48.85743" lon="-1.45734">
        <ele>72</ele>
        <time>2024-01-25T13:15:51Z</time>
      </trkpt>
      <trkpt lat="48.85735" lon="-1.45725">
        <ele>70.7</ele>
        <time>2024-01-25T13:15:52Z</time>
      </trkpt>
      <trkpt lat="48.85727" lon="-1.45716">
        <ele>69.6</ele>
        <time>2024-01-25T13:15:53Z</time>
      </trkpt>
      <trkpt lat="48.8572" lon="-1.45709">
        <ele>68.6</ele>
        <time>2024-01-25T13:15:54Z</time>
      </trkpt>
      <trkpt lat="48.85713" lon="-1.45701">
        <ele>67.6</ele>
        <time>2024-01-25T13:15:55Z</time>
      </trkpt>
      <trkpt lat="48.85706" lon="-1.45695">
        <ele>66.7</ele>
        <time>2024-01-25T13:15:56Z</time>
      </trkpt>
      <trkpt lat="48.857" lon="-1.45688">
        <ele>65.8</ele>
        <time>2024-01-25T13:15:57Z</time>
      </trkpt>
      <trkpt lat="48.85695" lon="-1.45681">
        <ele>64.9</ele>
        <time>2024-01-25T13:15:58Z</time>
      </trkpt>
      <trkpt lat="48.85691" lon="-1.45673">
        <ele>64</ele>
        <time>2024-01-25T13:15:59Z</time>
      </trkpt>
      <trkpt lat="48.85688" lon="-1.45664">
        <ele>63</ele>
        <time>2024-01-25T13:16:00Z</time>
      </trkpt>
      <trkpt lat="48.85687" lon="-1.45653">
        <ele>61.9</ele>
        <time>2024-01-25T13:16:01Z</time>
      </trkpt>
      <trkpt lat="48.85687" lon="-1.45639">
        <ele>60.7</ele>
        <time>2024-01-25T13:16:02Z</time>
      </trkpt>
      <trkpt lat="48.85689" lon="-1.45624">
        <ele>59.8</ele>
        <time>2024-01-25T13:16:03Z</time>
      </trkpt>
      <trkpt lat="48.85692" lon="-1.45609">
        <ele>59</ele>
        <time>2024-01-25T13:16:04Z</time>
      </trkpt>
      <trkpt lat="48.85696" lon="-1.45594">
        <ele>58.6</ele>
        <time>2024-01-25T13:16:05Z</time>
      </trkpt>
      <trkpt lat="48.85698" lon="-1.45581">
        <ele>58.3</ele>
        <time>2024-01-25T13:16:06Z</time>
      </trkpt>
      <trkpt lat="48.85699" lon="-1.45569">
        <ele>58.2</ele>
        <time>2024-01-25T13:16:07Z</time>
      </trkpt>
      <trkpt lat="48.85698" lon="-1.45558">
        <ele>57.9</ele>
        <time>2024-01-25T13:16:08Z</time>
      </trkpt>
      <trkpt lat="48.85695" lon="-1.45548">
        <ele>57.7</ele>
        <time>2024-01-25T13:16:09Z</time>
      </trkpt>
      <trkpt lat="48.85689" lon="-1.45543">
        <ele>57.6</ele>
        <time>2024-01-25T13:16:10Z</time>
      </trkpt>
      <trkpt lat="48.85681" lon="-1.45539">
        <ele>57.5</ele>
        <time>2024-01-25T13:16:11Z</time>
      </trkpt>
      <trkpt lat="48.85672" lon="-1.45537">
        <ele>57.7</ele>
        <time>2024-01-25T13:16:12Z</time>
      </trkpt>
      <trkpt lat="48.85663" lon="-1.45535">
        <ele>58.1</ele>
        <time>2024-01-25T13:16:13Z</time>
      </trkpt>
      <trkpt lat="48.85655" lon="-1.45534">
        <ele>58.7</ele>
        <time>2024-01-25T13:16:14Z</time>
      </trkpt>
      <trkpt lat="48.85647" lon="-1.45533">
        <ele>59.5</ele>
        <time>2024-01-25T13:16:15Z</time>
      </trkpt>
      <trkpt lat="48.85641" lon="-1.45532">
        <ele>60.2</ele>
        <time>2024-01-25T13:16:16Z</time>
      </trkpt>
      <trkpt lat="48.85636" lon="-1.45532">
        <ele>60.8</ele>
        <time>2024-01-25T13:16:17Z</time>
      </trkpt>
      <trkpt lat="48.85632" lon="-1.45531">
        <ele>61.3</ele>
        <time>2024-01-25T13:16:18Z</time>
      </trkpt>
      <trkpt lat="48.85629" lon="-1.45531">
        <ele>61.8</ele>
        <time>2024-01-25T13:16:19Z</time>
      </trkpt>
      <trkpt lat="48.85626" lon="-1.45531">
        <ele>62.2</ele>
        <time>2024-01-25T13:16:20Z</time>
      </trkpt>
      <trkpt lat="48.85623" lon="-1.45531">
        <ele>62.6</ele>
        <time>2024-01-25T13:16:21Z</time>
      </trkpt>
      <trkpt lat="48.85619" lon="-1.45532">
        <ele>63.1</ele>
        <time>2024-01-25T13:16:22Z</time>
      </trkpt>
      <trkpt lat="48.85616" lon="-1.45533">
        <ele>63.6</ele>
        <time>2024-01-25T13:16:23Z</time>
      </trkpt>
      <trkpt lat="48.85613" lon="-1.45533">
        <ele>63.9</ele>
        <time>2024-01-25T13:16:24Z</time>
      </trkpt>
      <trkpt lat="48.8561" lon="-1.45533">
        <ele>64.3</ele>
        <time>2024-01-25T13:16:25Z</time>
      </trkpt>
      <trkpt lat="48.85609" lon="-1.45533">
        <ele>64.5</ele>
        <time>2024-01-25T13:16:26Z</time>
      </trkpt>
      <trkpt lat="48.85605" lon="-1.45534">
        <ele>65</ele>
        <time>2024-01-25T13:16:28Z</time>
      </trkpt>
      <trkpt lat="48.85602" lon="-1.45535">
        <ele>65.3</ele>
        <time>2024-01-25T13:16:29Z</time>
      </trkpt>
      <trkpt lat="48.85598" lon="-1.45536">
        <ele>65.8</ele>
        <time>2024-01-25T13:16:30Z</time>
      </trkpt>
      <trkpt lat="48.85595" lon="-1.45537">
        <ele>66.2</ele>
        <time>2024-01-25T13:16:32Z</time>
      </trkpt>
      <trkpt lat="48.85592" lon="-1.45537">
        <ele>66.6</ele>
        <time>2024-01-25T13:16:33Z</time>
      </trkpt>
      <trkpt lat="48.85589" lon="-1.45537">
        <ele>67</ele>
        <time>2024-01-25T13:16:34Z</time>
      </trkpt>
      <trkpt lat="48.85586" lon="-1.45538">
        <ele>67.4</ele>
        <time>2024-01-25T13:16:35Z</time>
      </trkpt>
      <trkpt lat="48.85583" lon="-1.4554">
        <ele>67.8</ele>
        <time>2024-01-25T13:16:36Z</time>
      </trkpt>
      <trkpt lat="48.8558" lon="-1.45541">
        <ele>68.1</ele>
        <time>2024-01-25T13:16:37Z</time>
      </trkpt>
      <trkpt lat="48.85577" lon="-1.45543">
        <ele>68.6</ele>
        <time>2024-01-25T13:16:38Z</time>
      </trkpt>
      <trkpt lat="48.85576" lon="-1.45543">
        <ele>68.7</ele>
        <time>2024-01-25T13:16:39Z</time>
      </trkpt>
      <trkpt lat="48.85573" lon="-1.45545">
        <ele>69</ele>
        <time>2024-01-25T13:16:40Z</time>
      </trkpt>
      <trkpt lat="48.85572" lon="-1.45545">
        <ele>69.2</ele>
        <time>2024-01-25T13:16:41Z</time>
      </trkpt>
      <trkpt lat="48.85568" lon="-1.45546">
        <ele>69.6</ele>
        <time>2024-01-25T13:16:42Z</time>
      </trkpt>
      <trkpt lat="48.85568" lon="-1.45546">
        <ele>69.7</ele>
        <time>2024-01-25T13:16:43Z</time>
      </trkpt>
      <trkpt lat="48.85564" lon="-1.45548">
        <ele>70.1</ele>
        <time>2024-01-25T13:16:44Z</time>
      </trkpt>
      <trkpt lat="48.85562" lon="-1.45549">
        <ele>70.3</ele>
        <time>2024-01-25T13:16:45Z</time>
      </trkpt>
      <trkpt lat="48.85559" lon="-1.45549">
        <ele>70.7</ele>
        <time>2024-01-25T13:16:46Z</time>
      </trkpt>
      <trkpt lat="48.85557" lon="-1.45549">
        <ele>70.9</ele>
        <time>2024-01-25T13:16:47Z</time>
      </trkpt>
      <trkpt lat="48.85553" lon="-1.45549">
        <ele>71.4</ele>
        <time>2024-01-25T13:16:48Z</time>
      </trkpt>
      <trkpt lat="48.85551" lon="-1.45549">
        <ele>71.5</ele>
        <time>2024-01-25T13:16:49Z</time>
      </trkpt>
      <trkpt lat="48.85547" lon="-1.4555">
        <ele>72</ele>
        <time>2024-01-25T13:16:50Z</time>
      </trkpt>
      <trkpt lat="48.85546" lon="-1.4555">
        <ele>72.1</ele>
        <time>2024-01-25T13:16:51Z</time>
      </trkpt>
      <trkpt lat="48.85543" lon="-1.4555">
        <ele>72.5</ele>
        <time>2024-01-25T13:16:52Z</time>
      </trkpt>
      <trkpt lat="48.8554" lon="-1.45551">
        <ele>72.8</ele>
        <time>2024-01-25T13:16:53Z</time>
      </trkpt>
      <trkpt lat="48.85536" lon="-1.45552">
        <ele>73.2</ele>
        <time>2024-01-25T13:16:54Z</time>
      </trkpt>
      <trkpt lat="48.85533" lon="-1.45551">
        <ele>73.5</ele>
        <time>2024-01-25T13:16:55Z</time>
      </trkpt>
      <trkpt lat="48.8553" lon="-1.45551">
        <ele>73.8</ele>
        <time>2024-01-25T13:16:56Z</time>
      </trkpt>
      <trkpt lat="48.85527" lon="-1.45552">
        <ele>74.1</ele>
        <time>2024-01-25T13:16:57Z</time>
      </trkpt>
      <trkpt lat="48.85523" lon="-1.45553">
        <ele>74.5</ele>
        <time>2024-01-25T13:16:58Z</time>
      </trkpt>
      <trkpt lat="48.8552" lon="-1.45554">
        <ele>74.8</ele>
        <time>2024-01-25T13:16:59Z</time>
      </trkpt>
      <trkpt lat="48.85516" lon="-1.45555">
        <ele>75.2</ele>
        <time>2024-01-25T13:17:00Z</time>
      </trkpt>
      <trkpt lat="48.85514" lon="-1.45556">
        <ele>75.4</ele>
        <time>2024-01-25T13:17:01Z</time>
      </trkpt>
      <trkpt lat="48.85511" lon="-1.45557">
        <ele>75.7</ele>
        <time>2024-01-25T13:17:02Z</time>
      </trkpt>
      <trkpt lat="48.85507" lon="-1.45557">
        <ele>76</ele>
        <time>2024-01-25T13:17:03Z</time>
      </trkpt>
      <trkpt lat="48.85504" lon="-1.45558">
        <ele>76.3</ele>
        <time>2024-01-25T13:17:04Z</time>
      </trkpt>
      <trkpt lat="48.85501" lon="-1.45559">
        <ele>76.5</ele>
        <time>2024-01-25T13:17:05Z</time>
      </trkpt>
      <trkpt lat="48.85497" lon="-1.4556">
        <ele>76.9</ele>
        <time>2024-01-25T13:17:06Z</time>
      </trkpt>
      <trkpt lat="48.85494" lon="-1.4556">
        <ele>77.1</ele>
        <time>2024-01-25T13:17:07Z</time>
      </trkpt>
      <trkpt lat="48.85492" lon="-1.45561">
        <ele>77.4</ele>
        <time>2024-01-25T13:17:08Z</time>
      </trkpt>
      <trkpt lat="48.85489" lon="-1.45561">
        <ele>77.6</ele>
        <time>2024-01-25T13:17:09Z</time>
      </trkpt>
      <trkpt lat="48.85486" lon="-1.45561">
        <ele>77.9</ele>
        <time>2024-01-25T13:17:10Z</time>
      </trkpt>
      <trkpt lat="48.85482" lon="-1.45563">
        <ele>78.2</ele>
        <time>2024-01-25T13:17:11Z</time>
      </trkpt>
      <trkpt lat="48.8548" lon="-1.45563">
        <ele>78.4</ele>
        <time>2024-01-25T13:17:12Z</time>
      </trkpt>
      <trkpt lat="48.85477" lon="-1.45564">
        <ele>78.7</ele>
        <time>2024-01-25T13:17:13Z</time>
      </trkpt>
      <trkpt lat="48.85474" lon="-1.45564">
        <ele>78.9</ele>
        <time>2024-01-25T13:17:14Z</time>
      </trkpt>
      <trkpt lat="48.85471" lon="-1.45565">
        <ele>79.2</ele>
        <time>2024-01-25T13:17:15Z</time>
      </trkpt>
      <trkpt lat="48.85468" lon="-1.45566">
        <ele>79.4</ele>
        <time>2024-01-25T13:17:16Z</time>
      </trkpt>
      <trkpt lat="48.85464" lon="-1.45566">
        <ele>79.8</ele>
        <time>2024-01-25T13:17:17Z</time>
      </trkpt>
      <trkpt lat="48.85463" lon="-1.45566">
        <ele>79.9</ele>
        <time>2024-01-25T13:17:18Z</time>
      </trkpt>
      <trkpt lat="48.85459" lon="-1.45567">
        <ele>80.2</ele>
        <time>2024-01-25T13:17:20Z</time>
      </trkpt>
      <trkpt lat="48.85457" lon="-1.45568">
        <ele>80.4</ele>
        <time>2024-01-25T13:17:21Z</time>
      </trkpt>
      <trkpt lat="48.85454" lon="-1.45569">
        <ele>80.7</ele>
        <time>2024-01-25T13:17:22Z</time>
      </trkpt>
      <trkpt lat="48.85449" lon="-1.4557">
        <ele>81.1</ele>
        <time>2024-01-25T13:17:23Z</time>
      </trkpt>
      <trkpt lat="48.85446" lon="-1.4557">
        <ele>81.5</ele>
        <time>2024-01-25T13:17:25Z</time>
      </trkpt>
      <trkpt lat="48.85442" lon="-1.45571">
        <ele>81.8</ele>
        <time>2024-01-25T13:17:26Z</time>
      </trkpt>
      <trkpt lat="48.85437" lon="-1.45573">
        <ele>82.3</ele>
        <time>2024-01-25T13:17:27Z</time>
      </trkpt>
      <trkpt lat="48.85433" lon="-1.45575">
        <ele>82.7</ele>
        <time>2024-01-25T13:17:29Z</time>
      </trkpt>
      <trkpt lat="48.8543" lon="-1.45576">
        <ele>83</ele>
        <time>2024-01-25T13:17:30Z</time>
      </trkpt>
      <trkpt lat="48.85426" lon="-1.45577">
        <ele>83.4</ele>
        <time>2024-01-25T13:17:31Z</time>
      </trkpt>
      <trkpt lat="48.85422" lon="-1.45579">
        <ele>83.7</ele>
        <time>2024-01-25T13:17:32Z</time>
      </trkpt>
      <trkpt lat="48.85419" lon="-1.4558">
        <ele>84</ele>
        <time>2024-01-25T13:17:33Z</time>
      </trkpt>
      <trkpt lat="48.85416" lon="-1.4558">
        <ele>84.3</ele>
        <time>2024-01-25T13:17:34Z</time>
      </trkpt>
      <trkpt lat="48.85413" lon="-1.45582">
        <ele>84.7</ele>
        <time>2024-01-25T13:17:35Z</time>
      </trkpt>
      <trkpt lat="48.85411" lon="-1.45582">
        <ele>84.8</ele>
        <time>2024-01-25T13:17:36Z</time>
      </trkpt>
      <trkpt lat="48.85407" lon="-1.45582">
        <ele>85.2</ele>
        <time>2024-01-25T13:17:37Z</time>
      </trkpt>
      <trkpt lat="48.85406" lon="-1.45582">
        <ele>85.3</ele>
        <time>2024-01-25T13:17:38Z</time>
      </trkpt>
      <trkpt lat="48.85403" lon="-1.45584">
        <ele>85.6</ele>
        <time>2024-01-25T13:17:39Z</time>
      </trkpt>
      <trkpt lat="48.85399" lon="-1.45584">
        <ele>86</ele>
        <time>2024-01-25T13:17:40Z</time>
      </trkpt>
      <trkpt lat="48.85397" lon="-1.45584">
        <ele>86.2</ele>
        <time>2024-01-25T13:17:41Z</time>
      </trkpt>
      <trkpt lat="48.85394" lon="-1.45585">
        <ele>86.4</ele>
        <time>2024-01-25T13:17:42Z</time>
      </trkpt>
      <trkpt lat="48.8539" lon="-1.45585">
        <ele>86.8</ele>
        <time>2024-01-25T13:17:43Z</time>
      </trkpt>
      <trkpt lat="48.85388" lon="-1.45585">
        <ele>87</ele>
        <time>2024-01-25T13:17:44Z</time>
      </trkpt>
      <trkpt lat="48.85384" lon="-1.45586">
        <ele>87.4</ele>
        <time>2024-01-25T13:17:45Z</time>
      </trkpt>
      <trkpt lat="48.85382" lon="-1.45587">
        <ele>87.5</ele>
        <time>2024-01-25T13:17:46Z</time>
      </trkpt>
      <trkpt lat="48.85379" lon="-1.45588">
        <ele>87.8</ele>
        <time>2024-01-25T13:17:47Z</time>
      </trkpt>
      <trkpt lat="48.85374" lon="-1.45589">
        <ele>88.2</ele>
        <time>2024-01-25T13:17:48Z</time>
      </trkpt>
      <trkpt lat="48.85372" lon="-1.4559">
        <ele>88.4</ele>
        <time>2024-01-25T13:17:49Z</time>
      </trkpt>
      <trkpt lat="48.85368" lon="-1.4559">
        <ele>88.7</ele>
        <time>2024-01-25T13:17:50Z</time>
      </trkpt>
      <trkpt lat="48.85365" lon="-1.45591">
        <ele>89</ele>
        <time>2024-01-25T13:17:51Z</time>
      </trkpt>
      <trkpt lat="48.85362" lon="-1.45592">
        <ele>89.2</ele>
        <time>2024-01-25T13:17:52Z</time>
      </trkpt>
      <trkpt lat="48.85358" lon="-1.45594">
        <ele>89.6</ele>
        <time>2024-01-25T13:17:53Z</time>
      </trkpt>
      <trkpt lat="48.85355" lon="-1.45595">
        <ele>89.8</ele>
        <time>2024-01-25T13:17:54Z</time>
      </trkpt>
      <trkpt lat="48.85352" lon="-1.45596">
        <ele>90.1</ele>
        <time>2024-01-25T13:17:55Z</time>
      </trkpt>
      <trkpt lat="48.85348" lon="-1.45597">
        <ele>90.4</ele>
        <time>2024-01-25T13:17:56Z</time>
      </trkpt>
      <trkpt lat="48.85345" lon="-1.45597">
        <ele>90.6</ele>
        <time>2024-01-25T13:17:57Z</time>
      </trkpt>
      <trkpt lat="48.85342" lon="-1.45599">
        <ele>90.9</ele>
        <time>2024-01-25T13:17:58Z</time>
      </trkpt>
      <trkpt lat="48.85338" lon="-1.456">
        <ele>91.2</ele>
        <time>2024-01-25T13:17:59Z</time>
      </trkpt>
      <trkpt lat="48.85334" lon="-1.456">
        <ele>91.5</ele>
        <time>2024-01-25T13:18:00Z</time>
      </trkpt>
      <trkpt lat="48.85331" lon="-1.456">
        <ele>91.7</ele>
        <time>2024-01-25T13:18:01Z</time>
      </trkpt>
      <trkpt lat="48.85327" lon="-1.456">
        <ele>92</ele>
        <time>2024-01-25T13:18:02Z</time>
      </trkpt>
      <trkpt lat="48.85324" lon="-1.45602">
        <ele>92.2</ele>
        <time>2024-01-25T13:18:03Z</time>
      </trkpt>
      <trkpt lat="48.85322" lon="-1.45602">
        <ele>92.4</ele>
        <time>2024-01-25T13:18:04Z</time>
      </trkpt>
      <trkpt lat="48.85318" lon="-1.45604">
        <ele>92.6</ele>
        <time>2024-01-25T13:18:05Z</time>
      </trkpt>
      <trkpt lat="48.85315" lon="-1.45605">
        <ele>92.8</ele>
        <time>2024-01-25T13:18:06Z</time>
      </trkpt>
      <trkpt lat="48.85312" lon="-1.45606">
        <ele>93.1</ele>
        <time>2024-01-25T13:18:07Z</time>
      </trkpt>
      <trkpt lat="48.85307" lon="-1.45607">
        <ele>93.4</ele>
        <time>2024-01-25T13:18:08Z</time>
      </trkpt>
      <trkpt lat="48.85306" lon="-1.45607">
        <ele>93.5</ele>
        <time>2024-01-25T13:18:09Z</time>
      </trkpt>
      <trkpt lat="48.85302" lon="-1.45608">
        <ele>93.7</ele>
        <time>2024-01-25T13:18:10Z</time>
      </trkpt>
      <trkpt lat="48.853" lon="-1.45609">
        <ele>93.8</ele>
        <time>2024-01-25T13:18:11Z</time>
      </trkpt>
      <trkpt lat="48.85296" lon="-1.45609">
        <ele>94</ele>
        <time>2024-01-25T13:18:12Z</time>
      </trkpt>
      <trkpt lat="48.85293" lon="-1.45609">
        <ele>94.1</ele>
        <time>2024-01-25T13:18:13Z</time>
      </trkpt>
      <trkpt lat="48.85292" lon="-1.45609">
        <ele>94.2</ele>
        <time>2024-01-25T13:18:14Z</time>
      </trkpt>
      <trkpt lat="48.85291" lon="-1.45607">
        <ele>94.2</ele>
        <time>2024-01-25T13:18:15Z</time>
      </trkpt>
      <trkpt lat="48.8529" lon="-1.45606">
        <ele>94.3</ele>
        <time>2024-01-25T13:18:16Z</time>
      </trkpt>
      <trkpt lat="48.85289" lon="-1.45606">
        <ele>94.3</ele>
        <time>2024-01-25T13:18:17Z</time>
      </trkpt>
      <trkpt lat="48.85288" lon="-1.45605">
        <ele>94.4</ele>
        <time>2024-01-25T13:18:18Z</time>
      </trkpt>
      <trkpt lat="48.85288" lon="-1.45604">
        <ele>94.4</ele>
        <time>2024-01-25T13:18:19Z</time>
      </trkpt>
      <trkpt lat="48.85288" lon="-1.45604">
        <ele>94.4</ele>
        <time>2024-01-25T13:18:20Z</time>
      </trkpt>
      <trkpt lat="48.85288" lon="-1.45604">
        <ele>94.4</ele>
        <time>2024-01-25T13:18:21Z</time>
      </trkpt>
      <trkpt lat="48.85288" lon="-1.45603">
        <ele>94.4</ele>
        <time>2024-01-25T13:18:22Z</time>
      </trkpt>
      <trkpt lat="48.85288" lon="-1.45603">
        <ele>94.4</ele>
        <time>2024-01-25T13:18:23Z</time>
      </trkpt>
      <trkpt lat="48.85287" lon="-1.45603">
        <ele>94.4</ele>
        <time>2024-01-25T13:18:24Z</time>
      </trkpt>
      <trkpt lat="48.85287" lon="-1.45602">
        <ele>94.4</ele>
        <time>2024-01-25T13:18:25Z</time>
      </trkpt>
      <trkpt lat="48.85287" lon="-1.45602">
        <ele>94.4</ele>
        <time>2024-01-25T13:18:26Z</time>
      </trkpt>
      <trkpt lat="48.85287" lon="-1.45602">
        <ele>94.4</ele>
        <time>2024-01-25T13:18:27Z</time>
      </trkpt>
      <trkpt lat="48.85287" lon="-1.45602">
        <ele>94.4</ele>
        <time>2024-01-25T13:18:28Z</time>
      </trkpt>
      <trkpt lat="48.85287" lon="-1.45602">
        <ele>94.4</ele>
        <time>2024-01-25T13:18:29Z</time>
      </trkpt>
      <trkpt lat="48.85287" lon="-1.45601">
        <ele>94.4</ele>
        <time>2024-01-25T13:18:30Z</time>
      </trkpt>
      <trkpt lat="48.85287" lon="-1.45601">
        <ele>94.4</ele>
        <time>2024-01-25T13:18:31Z</time>
      </trkpt>
      <trkpt lat="48.85287" lon="-1.45601">
        <ele>94.4</ele>
        <time>2024-01-25T13:18:32Z</time>
      </trkpt>
      <trkpt lat="48.85287" lon="-1.45601">
        <ele>94.4</ele>
        <time>2024-01-25T13:18:33Z</time>
      </trkpt>
      <trkpt lat="48.85287" lon="-1.45601">
        <ele>94.4</ele>
        <time>2024-01-25T13:18:34Z</time>
      </trkpt>
      <trkpt lat="48.85287" lon="-1.456">
        <ele>94.4</ele>
        <time>2024-01-25T13:18:35Z</time>
      </trkpt>
      <trkpt lat="48.85287" lon="-1.456">
        <ele>94.4</ele>
        <time>2024-01-25T13:18:36Z</time>
      </trkpt>
      <trkpt lat="48.85287" lon="-1.456">
        <ele>94.4</ele>
        <time>2024-01-25T13:18:37Z</time>
      </trkpt>
      <trkpt lat="48.85287" lon="-1.456">
        <ele>94.4</ele>
        <time>2024-01-25T13:18:38Z</time>
      </trkpt>
      <trkpt lat="48.85287" lon="-1.456">
        <ele>94.4</ele>
        <time>2024-01-25T13:18:39Z</time>
      </trkpt>
      <trkpt lat="48.85287" lon="-1.45599">
        <ele>94.4</ele>
        <time>2024-01-25T13:18:40Z</time>
      </trkpt>
      <trkpt lat="48.85287" lon="-1.45599">
        <ele>94.5</ele>
        <time>2024-01-25T13:18:41Z</time>
      </trkpt>
      <trkpt lat="48.85287" lon="-1.45599">
        <ele>94.5</ele>
        <time>2024-01-25T13:18:42Z</time>
      </trkpt>
      <trkpt lat="48.85287" lon="-1.45599">
        <ele>94.5</ele>
        <time>2024-01-25T13:18:43Z</time>
      </trkpt>
      <trkpt lat="48.85287" lon="-1.45599">
        <ele>94.5</ele>
        <time>2024-01-25T13:18:44Z</time>
      </trkpt>
      <trkpt lat="48.85287" lon="-1.45598">
        <ele>94.5</ele>
        <time>2024-01-25T13:18:45Z</time>
      </trkpt>
      <trkpt lat="48.85287" lon="-1.45598">
        <ele>94.5</ele>
        <time>2024-01-25T13:18:46Z</time>
      </trkpt>
      <trkpt lat="48.85287" lon="-1.45598">
        <ele>94.5</ele>
        <time>2024-01-25T13:18:47Z</time>
      </trkpt>
      <trkpt lat="48.85287" lon="-1.45598">
        <ele>94.5</ele>
        <time>2024-01-25T13:18:48Z</time>
      </trkpt>
      <trkpt lat="48.85287" lon="-1.45598">
        <ele>94.5</ele>
        <time>2024-01-25T13:18:49Z</time>
      </trkpt>
      <trkpt lat="48.85287" lon="-1.45597">
        <ele>94.5</ele>
        <time>2024-01-25T13:18:50Z</time>
      </trkpt>
      <trkpt lat="48.85287" lon="-1.45597">
        <ele>94.5</ele>
        <time>2024-01-25T13:18:51Z</time>
      </trkpt>
      <trkpt lat="48.85287" lon="-1.45597">
        <ele>94.5</ele>
        <time>2024-01-25T13:18:52Z</time>
      </trkpt>
      <trkpt lat="48.85287" lon="-1.45597">
        <ele>94.5</ele>
        <time>2024-01-25T13:18:53Z</time>
      </trkpt>
      <trkpt lat="48.85287" lon="-1.45597">
        <ele>94.5</ele>
        <time>2024-01-25T13:18:54Z</time>
      </trkpt>
      <trkpt lat="48.85287" lon="-1.45596">
        <ele>94.5</ele>
        <time>2024-01-25T13:18:55Z</time>
      </trkpt>
      <trkpt lat="48.85287" lon="-1.45596">
        <ele>94.5</ele>
        <time>2024-01-25T13:18:56Z</time>
      </trkpt>
      <trkpt lat="48.85287" lon="-1.45596">
        <ele>94.5</ele>
        <time>2024-01-25T13:18:57Z</time>
      </trkpt>
      <trkpt lat="48.85287" lon="-1.45596">
        <ele>94.5</ele>
        <time>2024-01-25T13:18:58Z</time>
      </trkpt>
      <trkpt lat="48.85287" lon="-1.45596">
        <ele>94.5</ele>
        <time>2024-01-25T13:18:59Z</time>
      </trkpt>
      <trkpt lat="48.85287" lon="-1.45595">
        <ele>94.5</ele>
        <time>2024-01-25T13:19:00Z</time>
      </trkpt>
      <trkpt lat="48.85287" lon="-1.45595">
        <ele>94.5</ele>
        <time>2024-01-25T13:19:01Z</time>
      </trkpt>
      <trkpt lat="48.85287" lon="-1.45595">
        <ele>94.5</ele>
        <time>2024-01-25T13:19:02Z</time>
      </trkpt>
      <trkpt lat="48.85287" lon="-1.45595">
        <ele>94.5</ele>
        <time>2024-01-25T13:19:03Z</time>
      </trkpt>
      <trkpt lat="48.85287" lon="-1.45595">
        <ele>94.5</ele>
        <time>2024-01-25T13:19:04Z</time>
      </trkpt>
      <trkpt lat="48.85287" lon="-1.45594">
        <ele>94.5</ele>
        <time>2024-01-25T13:19:05Z</time>
      </trkpt>
      <trkpt lat="48.85286" lon="-1.45588">
        <ele>94.5</ele>
        <time>2024-01-25T13:19:06Z</time>
      </trkpt>
      <trkpt lat="48.85285" lon="-1.45582">
        <ele>94.5</ele>
        <time>2024-01-25T13:19:07Z</time>
      </trkpt>
      <trkpt lat="48.85283" lon="-1.45576">
        <ele>94.5</ele>
        <time>2024-01-25T13:19:08Z</time>
      </trkpt>
      <trkpt lat="48.8528" lon="-1.4557">
        <ele>94.6</ele>
        <time>2024-01-25T13:19:09Z</time>
      </trkpt>
      <trkpt lat="48.85276" lon="-1.45567">
        <ele>94.6</ele>
        <time>2024-01-25T13:19:10Z</time>
      </trkpt>
      <trkpt lat="48.85272" lon="-1.45561">
        <ele>94.6</ele>
        <time>2024-01-25T13:19:11Z</time>
      </trkpt>
      <trkpt lat="48.85267" lon="-1.45557">
        <ele>94.6</ele>
        <time>2024-01-25T13:19:12Z</time>
      </trkpt>
      <trkpt lat="48.85262" lon="-1.45555">
        <ele>94.7</ele>
        <time>2024-01-25T13:19:13Z</time>
      </trkpt>
      <trkpt lat="48.85259" lon="-1.45557">
        <ele>94.7</ele>
        <time>2024-01-25T13:19:14Z</time>
      </trkpt>
      <trkpt lat="48.85254" lon="-1.45554">
        <ele>94.8</ele>
        <time>2024-01-25T13:19:16Z</time>
      </trkpt>
      <trkpt lat="48.85247" lon="-1.45554">
        <ele>94.9</ele>
        <time>2024-01-25T13:19:17Z</time>
      </trkpt>
      <trkpt lat="48.85243" lon="-1.45556">
        <ele>94.9</ele>
        <time>2024-01-25T13:19:18Z</time>
      </trkpt>
      <trkpt lat="48.85238" lon="-1.45556">
        <ele>94.9</ele>
        <time>2024-01-25T13:19:19Z</time>
      </trkpt>
      <trkpt lat="48.85235" lon="-1.45556">
        <ele>95</ele>
        <time>2024-01-25T13:19:20Z</time>
      </trkpt>
      <trkpt lat="48.8523" lon="-1.45557">
        <ele>95</ele>
        <time>2024-01-25T13:19:21Z</time>
      </trkpt>
      <trkpt lat="48.85227" lon="-1.45557">
        <ele>95</ele>
        <time>2024-01-25T13:19:22Z</time>
      </trkpt>
      <trkpt lat="48.85223" lon="-1.45558">
        <ele>95.1</ele>
        <time>2024-01-25T13:19:23Z</time>
      </trkpt>
      <trkpt lat="48.85219" lon="-1.45558">
        <ele>95.1</ele>
        <time>2024-01-25T13:19:24Z</time>
      </trkpt>
      <trkpt lat="48.85215" lon="-1.45559">
        <ele>95.1</ele>
        <time>2024-01-25T13:19:25Z</time>
      </trkpt>
      <trkpt lat="48.85211" lon="-1.4556">
        <ele>95.2</ele>
        <time>2024-01-25T13:19:26Z</time>
      </trkpt>
      <trkpt lat="48.85206" lon="-1.45561">
        <ele>95.2</ele>
        <time>2024-01-25T13:19:27Z</time>
      </trkpt>
      <trkpt lat="48.85203" lon="-1.45561">
        <ele>95.2</ele>
        <time>2024-01-25T13:19:28Z</time>
      </trkpt>
      <trkpt lat="48.85198" lon="-1.45562">
        <ele>95.3</ele>
        <time>2024-01-25T13:19:29Z</time>
      </trkpt>
      <trkpt lat="48.85194" lon="-1.45562">
        <ele>95.3</ele>
        <time>2024-01-25T13:19:30Z</time>
      </trkpt>
      <trkpt lat="48.85191" lon="-1.45562">
        <ele>95.3</ele>
        <time>2024-01-25T13:19:31Z</time>
      </trkpt>
      <trkpt lat="48.85186" lon="-1.45562">
        <ele>95.3</ele>
        <time>2024-01-25T13:19:32Z</time>
      </trkpt>
      <trkpt lat="48.85182" lon="-1.45563">
        <ele>95.4</ele>
        <time>2024-01-25T13:19:33Z</time>
      </trkpt>
      <trkpt lat="48.85178" lon="-1.45564">
        <ele>95.4</ele>
        <time>2024-01-25T13:19:34Z</time>
      </trkpt>
      <trkpt lat="48.85174" lon="-1.45565">
        <ele>95.4</ele>
        <time>2024-01-25T13:19:35Z</time>
      </trkpt>
      <trkpt lat="48.85169" lon="-1.45567">
        <ele>95.5</ele>
        <time>2024-01-25T13:19:36Z</time>
      </trkpt>
      <trkpt lat="48.85163" lon="-1.45569">
        <ele>95.5</ele>
        <time>2024-01-25T13:19:37Z</time>
      </trkpt>
      <trkpt lat="48.85158" lon="-1.4557">
        <ele>95.5</ele>
        <time>2024-01-25T13:19:38Z</time>
      </trkpt>
      <trkpt lat="48.85154" lon="-1.45572">
        <ele>95.5</ele>
        <time>2024-01-25T13:19:39Z</time>
      </trkpt>
      <trkpt lat="48.85149" lon="-1.45572">
        <ele>95.5</ele>
        <time>2024-01-25T13:19:40Z</time>
      </trkpt>
      <trkpt lat="48.85144" lon="-1.45572">
        <ele>95.5</ele>
        <time>2024-01-25T13:19:42Z</time>
      </trkpt>
      <trkpt lat="48.85139" lon="-1.45573">
        <ele>95.5</ele>
        <time>2024-01-25T13:19:43Z</time>
      </trkpt>
      <trkpt lat="48.85136" lon="-1.45573">
        <ele>95.5</ele>
        <time>2024-01-25T13:19:44Z</time>
      </trkpt>
      <trkpt lat="48.85133" lon="-1.45573">
        <ele>95.6</ele>
        <time>2024-01-25T13:19:45Z</time>
      </trkpt>
      <trkpt lat="48.85129" lon="-1.45574">
        <ele>95.6</ele>
        <time>2024-01-25T13:19:46Z</time>
      </trkpt>
      <trkpt lat="48.85126" lon="-1.45574">
        <ele>95.6</ele>
        <time>2024-01-25T13:19:47Z</time>
      </trkpt>
      <trkpt lat="48.85123" lon="-1.45575">
        <ele>95.6</ele>
        <time>2024-01-25T13:19:48Z</time>
      </trkpt>
      <trkpt lat="48.85119" lon="-1.45576">
        <ele>95.6</ele>
        <time>2024-01-25T13:19:49Z</time>
      </trkpt>
      <trkpt lat="48.85116" lon="-1.45577">
        <ele>95.6</ele>
        <time>2024-01-25T13:19:50Z</time>
      </trkpt>
      <trkpt lat="48.85113" lon="-1.45578">
        <ele>95.6</ele>
        <time>2024-01-25T13:19:51Z</time>
      </trkpt>
      <trkpt lat="48.85109" lon="-1.45579">
        <ele>95.6</ele>
        <time>2024-01-25T13:19:52Z</time>
      </trkpt>
      <trkpt lat="48.85106" lon="-1.4558">
        <ele>95.5</ele>
        <time>2024-01-25T13:19:53Z</time>
      </trkpt>
      <trkpt lat="48.851" lon="-1.45582">
        <ele>95.5</ele>
        <time>2024-01-25T13:19:54Z</time>
      </trkpt>
      <trkpt lat="48.85096" lon="-1.45583">
        <ele>95.5</ele>
        <time>2024-01-25T13:19:55Z</time>
      </trkpt>
      <trkpt lat="48.85092" lon="-1.45584">
        <ele>95.4</ele>
        <time>2024-01-25T13:19:56Z</time>
      </trkpt>
      <trkpt lat="48.85088" lon="-1.45585">
        <ele>95.4</ele>
        <time>2024-01-25T13:19:57Z</time>
      </trkpt>
      <trkpt lat="48.85085" lon="-1.45585">
        <ele>95.3</ele>
        <time>2024-01-25T13:19:58Z</time>
      </trkpt>
      <trkpt lat="48.85081" lon="-1.45585">
        <ele>95.2</ele>
        <time>2024-01-25T13:19:59Z</time>
      </trkpt>
      <trkpt lat="48.85077" lon="-1.45586">
        <ele>95.2</ele>
        <time>2024-01-25T13:20:00Z</time>
      </trkpt>
      <trkpt lat="48.85073" lon="-1.45586">
        <ele>95.1</ele>
        <time>2024-01-25T13:20:01Z</time>
      </trkpt>
      <trkpt lat="48.85068" lon="-1.45587">
        <ele>95</ele>
        <time>2024-01-25T13:20:02Z</time>
      </trkpt>
      <trkpt lat="48.85064" lon="-1.45588">
        <ele>95</ele>
        <time>2024-01-25T13:20:03Z</time>
      </trkpt>
      <trkpt lat="48.8506" lon="-1.45589">
        <ele>94.9</ele>
        <time>2024-01-25T13:20:04Z</time>
      </trkpt>
      <trkpt lat="48.85057" lon="-1.4559">
        <ele>94.8</ele>
        <time>2024-01-25T13:20:05Z</time>
      </trkpt>
      <trkpt lat="48.85054" lon="-1.45591">
        <ele>94.8</ele>
        <time>2024-01-25T13:20:06Z</time>
      </trkpt>
      <trkpt lat="48.85051" lon="-1.45592">
        <ele>94.7</ele>
        <time>2024-01-25T13:20:07Z</time>
      </trkpt>
      <trkpt lat="48.85046" lon="-1.45592">
        <ele>94.6</ele>
        <time>2024-01-25T13:20:08Z</time>
      </trkpt>
      <trkpt lat="48.85042" lon="-1.45592">
        <ele>94.6</ele>
        <time>2024-01-25T13:20:09Z</time>
      </trkpt>
      <trkpt lat="48.85038" lon="-1.45592">
        <ele>94.5</ele>
        <time>2024-01-25T13:20:10Z</time>
      </trkpt>
      <trkpt lat="48.85035" lon="-1.45592">
        <ele>94.4</ele>
        <time>2024-01-25T13:20:11Z</time>
      </trkpt>
      <trkpt lat="48.85031" lon="-1.45593">
        <ele>94.3</ele>
        <time>2024-01-25T13:20:12Z</time>
      </trkpt>
      <trkpt lat="48.85027" lon="-1.45594">
        <ele>94.2</ele>
        <time>2024-01-25T13:20:13Z</time>
      </trkpt>
      <trkpt lat="48.85022" lon="-1.45595">
        <ele>94.1</ele>
        <time>2024-01-25T13:20:14Z</time>
      </trkpt>
      <trkpt lat="48.85015" lon="-1.45598">
        <ele>93.9</ele>
        <time>2024-01-25T13:20:15Z</time>
      </trkpt>
      <trkpt lat="48.8501" lon="-1.456">
        <ele>93.8</ele>
        <time>2024-01-25T13:20:16Z</time>
      </trkpt>
      <trkpt lat="48.85005" lon="-1.45603">
        <ele>93.6</ele>
        <time>2024-01-25T13:20:17Z</time>
      </trkpt>
      <trkpt lat="48.84998" lon="-1.45606">
        <ele>93.4</ele>
        <time>2024-01-25T13:20:18Z</time>
      </trkpt>
      <trkpt lat="48.84992" lon="-1.45609">
        <ele>93.2</ele>
        <time>2024-01-25T13:20:19Z</time>
      </trkpt>
      <trkpt lat="48.84986" lon="-1.45612">
        <ele>93.1</ele>
        <time>2024-01-25T13:20:20Z</time>
      </trkpt>
      <trkpt lat="48.8498" lon="-1.45615">
        <ele>92.9</ele>
        <time>2024-01-25T13:20:21Z</time>
      </trkpt>
      <trkpt lat="48.84974" lon="-1.45617">
        <ele>92.7</ele>
        <time>2024-01-25T13:20:22Z</time>
      </trkpt>
      <trkpt lat="48.84969" lon="-1.4562">
        <ele>92.6</ele>
        <time>2024-01-25T13:20:23Z</time>
      </trkpt>
      <trkpt lat="48.84962" lon="-1.45622">
        <ele>92.4</ele>
        <time>2024-01-25T13:20:24Z</time>
      </trkpt>
      <trkpt lat="48.84956" lon="-1.45624">
        <ele>92.2</ele>
        <time>2024-01-25T13:20:25Z</time>
      </trkpt>
      <trkpt lat="48.8495" lon="-1.45626">
        <ele>92.1</ele>
        <time>2024-01-25T13:20:26Z</time>
      </trkpt>
      <trkpt lat="48.84945" lon="-1.45628">
        <ele>91.9</ele>
        <time>2024-01-25T13:20:27Z</time>
      </trkpt>
      <trkpt lat="48.84939" lon="-1.45629">
        <ele>91.8</ele>
        <time>2024-01-25T13:20:28Z</time>
      </trkpt>
      <trkpt lat="48.84933" lon="-1.45631">
        <ele>91.7</ele>
        <time>2024-01-25T13:20:29Z</time>
      </trkpt>
      <trkpt lat="48.84927" lon="-1.45633">
        <ele>91.5</ele>
        <time>2024-01-25T13:20:30Z</time>
      </trkpt>
      <trkpt lat="48.84922" lon="-1.45634">
        <ele>91.4</ele>
        <time>2024-01-25T13:20:31Z</time>
      </trkpt>
      <trkpt lat="48.84916" lon="-1.45636">
        <ele>91.2</ele>
        <time>2024-01-25T13:20:32Z</time>
      </trkpt>
      <trkpt lat="48.84911" lon="-1.45637">
        <ele>91.1</ele>
        <time>2024-01-25T13:20:33Z</time>
      </trkpt>
      <trkpt lat="48.84905" lon="-1.4564">
        <ele>90.9</ele>
        <time>2024-01-25T13:20:34Z</time>
      </trkpt>
      <trkpt lat="48.849" lon="-1.45641">
        <ele>90.8</ele>
        <time>2024-01-25T13:20:35Z</time>
      </trkpt>
      <trkpt lat="48.84894" lon="-1.45644">
        <ele>90.7</ele>
        <time>2024-01-25T13:20:36Z</time>
      </trkpt>
      <trkpt lat="48.84889" lon="-1.45646">
        <ele>90.6</ele>
        <time>2024-01-25T13:20:37Z</time>
      </trkpt>
      <trkpt lat="48.84884" lon="-1.45648">
        <ele>90.5</ele>
        <time>2024-01-25T13:20:38Z</time>
      </trkpt>
      <trkpt lat="48.84878" lon="-1.4565">
        <ele>90.4</ele>
        <time>2024-01-25T13:20:39Z</time>
      </trkpt>
      <trkpt lat="48.84873" lon="-1.45651">
        <ele>90.2</ele>
        <time>2024-01-25T13:20:40Z</time>
      </trkpt>
      <trkpt lat="48.84868" lon="-1.45652">
        <ele>90.1</ele>
        <time>2024-01-25T13:20:41Z</time>
      </trkpt>
      <trkpt lat="48.84862" lon="-1.45654">
        <ele>90</ele>
        <time>2024-01-25T13:20:42Z</time>
      </trkpt>
      <trkpt lat="48.84856" lon="-1.45656">
        <ele>89.8</ele>
        <time>2024-01-25T13:20:43Z</time>
      </trkpt>
      <trkpt lat="48.84851" lon="-1.45658">
        <ele>89.7</ele>
        <time>2024-01-25T13:20:44Z</time>
      </trkpt>
      <trkpt lat="48.84845" lon="-1.45659">
        <ele>89.5</ele>
        <time>2024-01-25T13:20:45Z</time>
      </trkpt>
      <trkpt lat="48.8484" lon="-1.45661">
        <ele>89.4</ele>
        <time>2024-01-25T13:20:46Z</time>
      </trkpt>
      <trkpt lat="48.84834" lon="-1.45662">
        <ele>89.3</ele>
        <time>2024-01-25T13:20:47Z</time>
      </trkpt>
      <trkpt lat="48.84828" lon="-1.45664">
        <ele>89.2</ele>
        <time>2024-01-25T13:20:48Z</time>
      </trkpt>
      <trkpt lat="48.84823" lon="-1.45665">
        <ele>89.2</ele>
        <time>2024-01-25T13:20:49Z</time>
      </trkpt>
      <trkpt lat="48.84817" lon="-1.45667">
        <ele>89.1</ele>
        <time>2024-01-25T13:20:50Z</time>
      </trkpt>
      <trkpt lat="48.84811" lon="-1.45668">
        <ele>89.1</ele>
        <time>2024-01-25T13:20:51Z</time>
      </trkpt>
      <trkpt lat="48.84805" lon="-1.45669">
        <ele>89</ele>
        <time>2024-01-25T13:20:52Z</time>
      </trkpt>
      <trkpt lat="48.84799" lon="-1.4567">
        <ele>89</ele>
        <time>2024-01-25T13:20:53Z</time>
      </trkpt>
      <trkpt lat="48.84793" lon="-1.45672">
        <ele>89</ele>
        <time>2024-01-25T13:20:54Z</time>
      </trkpt>
      <trkpt lat="48.84788" lon="-1.45673">
        <ele>88.9</ele>
        <time>2024-01-25T13:20:55Z</time>
      </trkpt>
      <trkpt lat="48.84782" lon="-1.45674">
        <ele>88.8</ele>
        <time>2024-01-25T13:20:56Z</time>
      </trkpt>
      <trkpt lat="48.84776" lon="-1.45674">
        <ele>88.6</ele>
        <time>2024-01-25T13:20:57Z</time>
      </trkpt>
      <trkpt lat="48.84771" lon="-1.45675">
        <ele>88.5</ele>
        <time>2024-01-25T13:20:58Z</time>
      </trkpt>
      <trkpt lat="48.84765" lon="-1.45675">
        <ele>88.4</ele>
        <time>2024-01-25T13:20:59Z</time>
      </trkpt>
      <trkpt lat="48.84759" lon="-1.45676">
        <ele>88.3</ele>
        <time>2024-01-25T13:21:00Z</time>
      </trkpt>
      <trkpt lat="48.84754" lon="-1.45676">
        <ele>88.2</ele>
        <time>2024-01-25T13:21:01Z</time>
      </trkpt>
      <trkpt lat="48.84748" lon="-1.45677">
        <ele>88</ele>
        <time>2024-01-25T13:21:02Z</time>
      </trkpt>
      <trkpt lat="48.84742" lon="-1.45678">
        <ele>87.9</ele>
        <time>2024-01-25T13:21:03Z</time>
      </trkpt>
      <trkpt lat="48.84736" lon="-1.45679">
        <ele>87.8</ele>
        <time>2024-01-25T13:21:04Z</time>
      </trkpt>
      <trkpt lat="48.8473" lon="-1.4568">
        <ele>87.7</ele>
        <time>2024-01-25T13:21:05Z</time>
      </trkpt>
      <trkpt lat="48.84724" lon="-1.45681">
        <ele>87.6</ele>
        <time>2024-01-25T13:21:06Z</time>
      </trkpt>
      <trkpt lat="48.84719" lon="-1.45682">
        <ele>87.6</ele>
        <time>2024-01-25T13:21:07Z</time>
      </trkpt>
      <trkpt lat="48.84713" lon="-1.45683">
        <ele>87.5</ele>
        <time>2024-01-25T13:21:08Z</time>
      </trkpt>
      <trkpt lat="48.84707" lon="-1.45683">
        <ele>87.4</ele>
        <time>2024-01-25T13:21:09Z</time>
      </trkpt>
      <trkpt lat="48.84702" lon="-1.45684">
        <ele>87.4</ele>
        <time>2024-01-25T13:21:10Z</time>
      </trkpt>
      <trkpt lat="48.84696" lon="-1.45685">
        <ele>87.3</ele>
        <time>2024-01-25T13:21:11Z</time>
      </trkpt>
      <trkpt lat="48.84691" lon="-1.45686">
        <ele>87.3</ele>
        <time>2024-01-25T13:21:12Z</time>
      </trkpt>
      <trkpt lat="48.84685" lon="-1.45687">
        <ele>87.2</ele>
        <time>2024-01-25T13:21:13Z</time>
      </trkpt>
      <trkpt lat="48.84679" lon="-1.45688">
        <ele>87.1</ele>
        <time>2024-01-25T13:21:14Z</time>
      </trkpt>
      <trkpt lat="48.84674" lon="-1.45689">
        <ele>87</ele>
        <time>2024-01-25T13:21:15Z</time>
      </trkpt>
      <trkpt lat="48.84668" lon="-1.45691">
        <ele>86.9</ele>
        <time>2024-01-25T13:21:16Z</time>
      </trkpt>
      <trkpt lat="48.84663" lon="-1.45692">
        <ele>86.8</ele>
        <time>2024-01-25T13:21:17Z</time>
      </trkpt>
      <trkpt lat="48.84658" lon="-1.45694">
        <ele>86.7</ele>
        <time>2024-01-25T13:21:18Z</time>
      </trkpt>
      <trkpt lat="48.84652" lon="-1.45696">
        <ele>86.6</ele>
        <time>2024-01-25T13:21:19Z</time>
      </trkpt>
      <trkpt lat="48.84647" lon="-1.45698">
        <ele>86.5</ele>
        <time>2024-01-25T13:21:20Z</time>
      </trkpt>
      <trkpt lat="48.84642" lon="-1.45699">
        <ele>86.3</ele>
        <time>2024-01-25T13:21:21Z</time>
      </trkpt>
      <trkpt lat="48.84636" lon="-1.45701">
        <ele>86.2</ele>
        <time>2024-01-25T13:21:22Z</time>
      </trkpt>
      <trkpt lat="48.84631" lon="-1.45703">
        <ele>86</ele>
        <time>2024-01-25T13:21:23Z</time>
      </trkpt>
      <trkpt lat="48.84626" lon="-1.45705">
        <ele>85.9</ele>
        <time>2024-01-25T13:21:24Z</time>
      </trkpt>
      <trkpt lat="48.8462" lon="-1.45707">
        <ele>85.7</ele>
        <time>2024-01-25T13:21:25Z</time>
      </trkpt>
      <trkpt lat="48.84614" lon="-1.4571">
        <ele>85.6</ele>
        <time>2024-01-25T13:21:26Z</time>
      </trkpt>
      <trkpt lat="48.84608" lon="-1.45712">
        <ele>85.4</ele>
        <time>2024-01-25T13:21:27Z</time>
      </trkpt>
      <trkpt lat="48.84602" lon="-1.45714">
        <ele>85.3</ele>
        <time>2024-01-25T13:21:28Z</time>
      </trkpt>
      <trkpt lat="48.84596" lon="-1.45717">
        <ele>85.1</ele>
        <time>2024-01-25T13:21:29Z</time>
      </trkpt>
      <trkpt lat="48.8459" lon="-1.45719">
        <ele>84.9</ele>
        <time>2024-01-25T13:21:30Z</time>
      </trkpt>
      <trkpt lat="48.84584" lon="-1.45722">
        <ele>84.8</ele>
        <time>2024-01-25T13:21:31Z</time>
      </trkpt>
      <trkpt lat="48.84578" lon="-1.45725">
        <ele>84.7</ele>
        <time>2024-01-25T13:21:32Z</time>
      </trkpt>
      <trkpt lat="48.84572" lon="-1.45728">
        <ele>84.5</ele>
        <time>2024-01-25T13:21:33Z</time>
      </trkpt>
      <trkpt lat="48.84566" lon="-1.4573">
        <ele>84.4</ele>
        <time>2024-01-25T13:21:34Z</time>
      </trkpt>
      <trkpt lat="48.8456" lon="-1.45733">
        <ele>84.3</ele>
        <time>2024-01-25T13:21:35Z</time>
      </trkpt>
      <trkpt lat="48.84555" lon="-1.45736">
        <ele>84.2</ele>
        <time>2024-01-25T13:21:36Z</time>
      </trkpt>
      <trkpt lat="48.84549" lon="-1.45739">
        <ele>84</ele>
        <time>2024-01-25T13:21:37Z</time>
      </trkpt>
      <trkpt lat="48.84542" lon="-1.45742">
        <ele>83.9</ele>
        <time>2024-01-25T13:21:38Z</time>
      </trkpt>
      <trkpt lat="48.84537" lon="-1.45746">
        <ele>83.9</ele>
        <time>2024-01-25T13:21:39Z</time>
      </trkpt>
      <trkpt lat="48.84531" lon="-1.45749">
        <ele>83.8</ele>
        <time>2024-01-25T13:21:40Z</time>
      </trkpt>
      <trkpt lat="48.84525" lon="-1.45752">
        <ele>83.7</ele>
        <time>2024-01-25T13:21:41Z</time>
      </trkpt>
      <trkpt lat="48.84519" lon="-1.45755">
        <ele>83.6</ele>
        <time>2024-01-25T13:21:42Z</time>
      </trkpt>
      <trkpt lat="48.84514" lon="-1.45759">
        <ele>83.4</ele>
        <time>2024-01-25T13:21:43Z</time>
      </trkpt>
      <trkpt lat="48.84508" lon="-1.45763">
        <ele>83.3</ele>
        <time>2024-01-25T13:21:44Z</time>
      </trkpt>
      <trkpt lat="48.84503" lon="-1.45767">
        <ele>83.2</ele>
        <time>2024-01-25T13:21:45Z</time>
      </trkpt>
      <trkpt lat="48.84497" lon="-1.45771">
        <ele>83.1</ele>
        <time>2024-01-25T13:21:46Z</time>
      </trkpt>
      <trkpt lat="48.84492" lon="-1.45776">
        <ele>82.9</ele>
        <time>2024-01-25T13:21:47Z</time>
      </trkpt>
      <trkpt lat="48.84487" lon="-1.45781">
        <ele>82.7</ele>
        <time>2024-01-25T13:21:48Z</time>
      </trkpt>
      <trkpt lat="48.84482" lon="-1.45788">
        <ele>82.5</ele>
        <time>2024-01-25T13:21:49Z</time>
      </trkpt>
      <trkpt lat="48.84477" lon="-1.45794">
        <ele>82.3</ele>
        <time>2024-01-25T13:21:50Z</time>
      </trkpt>
      <trkpt lat="48.84472" lon="-1.458">
        <ele>82</ele>
        <time>2024-01-25T13:21:51Z</time>
      </trkpt>
      <trkpt lat="48.84467" lon="-1.45807">
        <ele>81.8</ele>
        <time>2024-01-25T13:21:52Z</time>
      </trkpt>
      <trkpt lat="48.84463" lon="-1.45814">
        <ele>81.5</ele>
        <time>2024-01-25T13:21:53Z</time>
      </trkpt>
      <trkpt lat="48.84458" lon="-1.45821">
        <ele>81.1</ele>
        <time>2024-01-25T13:21:54Z</time>
      </trkpt>
      <trkpt lat="48.84453" lon="-1.45828">
        <ele>80.8</ele>
        <time>2024-01-25T13:21:55Z</time>
      </trkpt>
      <trkpt lat="48.84448" lon="-1.45836">
        <ele>80.4</ele>
        <time>2024-01-25T13:21:56Z</time>
      </trkpt>
      <trkpt lat="48.84443" lon="-1.45843">
        <ele>80.1</ele>
        <time>2024-01-25T13:21:57Z</time>
      </trkpt>
      <trkpt lat="48.84438" lon="-1.4585">
        <ele>79.7</ele>
        <time>2024-01-25T13:21:58Z</time>
      </trkpt>
      <trkpt lat="48.84433" lon="-1.45857">
        <ele>79.4</ele>
        <time>2024-01-25T13:21:59Z</time>
      </trkpt>
      <trkpt lat="48.84428" lon="-1.45863">
        <ele>79</ele>
        <time>2024-01-25T13:22:00Z</time>
      </trkpt>
      <trkpt lat="48.84422" lon="-1.4587">
        <ele>78.7</ele>
        <time>2024-01-25T13:22:01Z</time>
      </trkpt>
      <trkpt lat="48.84417" lon="-1.45876">
        <ele>78.4</ele>
        <time>2024-01-25T13:22:02Z</time>
      </trkpt>
      <trkpt lat="48.84411" lon="-1.45882">
        <ele>78.1</ele>
        <time>2024-01-25T13:22:03Z</time>
      </trkpt>
      <trkpt lat="48.84404" lon="-1.45886">
        <ele>77.9</ele>
        <time>2024-01-25T13:22:04Z</time>
      </trkpt>
      <trkpt lat="48.84398" lon="-1.45888">
        <ele>77.7</ele>
        <time>2024-01-25T13:22:05Z</time>
      </trkpt>
      <trkpt lat="48.84391" lon="-1.45888">
        <ele>77.5</ele>
        <time>2024-01-25T13:22:06Z</time>
      </trkpt>
      <trkpt lat="48.84385" lon="-1.45887">
        <ele>77.4</ele>
        <time>2024-01-25T13:22:07Z</time>
      </trkpt>
      <trkpt lat="48.8438" lon="-1.45885">
        <ele>77.3</ele>
        <time>2024-01-25T13:22:08Z</time>
      </trkpt>
      <trkpt lat="48.84375" lon="-1.45882">
        <ele>77.2</ele>
        <time>2024-01-25T13:22:09Z</time>
      </trkpt>
      <trkpt lat="48.84369" lon="-1.45878">
        <ele>77.1</ele>
        <time>2024-01-25T13:22:10Z</time>
      </trkpt>
      <trkpt lat="48.84363" lon="-1.45875">
        <ele>77</ele>
        <time>2024-01-25T13:22:11Z</time>
      </trkpt>
      <trkpt lat="48.84357" lon="-1.45872">
        <ele>76.9</ele>
        <time>2024-01-25T13:22:12Z</time>
      </trkpt>
      <trkpt lat="48.84352" lon="-1.45869">
        <ele>76.8</ele>
        <time>2024-01-25T13:22:13Z</time>
      </trkpt>
      <trkpt lat="48.84346" lon="-1.45866">
        <ele>76.7</ele>
        <time>2024-01-25T13:22:14Z</time>
      </trkpt>
      <trkpt lat="48.84341" lon="-1.45863">
        <ele>76.7</ele>
        <time>2024-01-25T13:22:15Z</time>
      </trkpt>
      <trkpt lat="48.84334" lon="-1.4586">
        <ele>76.7</ele>
        <time>2024-01-25T13:22:16Z</time>
      </trkpt>
      <trkpt lat="48.84328" lon="-1.45858">
        <ele>76.7</ele>
        <time>2024-01-25T13:22:17Z</time>
      </trkpt>
      <trkpt lat="48.84321" lon="-1.45857">
        <ele>76.7</ele>
        <time>2024-01-25T13:22:18Z</time>
      </trkpt>
      <trkpt lat="48.84314" lon="-1.45856">
        <ele>76.8</ele>
        <time>2024-01-25T13:22:19Z</time>
      </trkpt>
      <trkpt lat="48.84308" lon="-1.45856">
        <ele>76.8</ele>
        <time>2024-01-25T13:22:20Z</time>
      </trkpt>
      <trkpt lat="48.84301" lon="-1.45857">
        <ele>76.9</ele>
        <time>2024-01-25T13:22:21Z</time>
      </trkpt>
      <trkpt lat="48.84295" lon="-1.4586">
        <ele>77</ele>
        <time>2024-01-25T13:22:22Z</time>
      </trkpt>
      <trkpt lat="48.84289" lon="-1.45862">
        <ele>77.1</ele>
        <time>2024-01-25T13:22:23Z</time>
      </trkpt>
      <trkpt lat="48.84283" lon="-1.45864">
        <ele>77.2</ele>
        <time>2024-01-25T13:22:24Z</time>
      </trkpt>
      <trkpt lat="48.84278" lon="-1.45866">
        <ele>77.3</ele>
        <time>2024-01-25T13:22:25Z</time>
      </trkpt>
      <trkpt lat="48.84272" lon="-1.45869">
        <ele>77.5</ele>
        <time>2024-01-25T13:22:26Z</time>
      </trkpt>
      <trkpt lat="48.84267" lon="-1.45872">
        <ele>77.6</ele>
        <time>2024-01-25T13:22:27Z</time>
      </trkpt>
      <trkpt lat="48.84263" lon="-1.45874">
        <ele>77.7</ele>
        <time>2024-01-25T13:22:28Z</time>
      </trkpt>
      <trkpt lat="48.84258" lon="-1.45877">
        <ele>77.9</ele>
        <time>2024-01-25T13:22:29Z</time>
      </trkpt>
      <trkpt lat="48.84253" lon="-1.45881">
        <ele>78.1</ele>
        <time>2024-01-25T13:22:30Z</time>
      </trkpt>
      <trkpt lat="48.84249" lon="-1.45885">
        <ele>78.3</ele>
        <time>2024-01-25T13:22:31Z</time>
      </trkpt>
      <trkpt lat="48.84245" lon="-1.4589">
        <ele>78.6</ele>
        <time>2024-01-25T13:22:32Z</time>
      </trkpt>
      <trkpt lat="48.84242" lon="-1.45895">
        <ele>78.9</ele>
        <time>2024-01-25T13:22:33Z</time>
      </trkpt>
      <trkpt lat="48.84239" lon="-1.459">
        <ele>79.1</ele>
        <time>2024-01-25T13:22:34Z</time>
      </trkpt>
      <trkpt lat="48.84236" lon="-1.45906">
        <ele>79.4</ele>
        <time>2024-01-25T13:22:35Z</time>
      </trkpt>
      <trkpt lat="48.84234" lon="-1.45911">
        <ele>79.6</ele>
        <time>2024-01-25T13:22:36Z</time>
      </trkpt>
      <trkpt lat="48.84232" lon="-1.45917">
        <ele>79.9</ele>
        <time>2024-01-25T13:22:37Z</time>
      </trkpt>
      <trkpt lat="48.8423" lon="-1.45923">
        <ele>80.1</ele>
        <time>2024-01-25T13:22:38Z</time>
      </trkpt>
      <trkpt lat="48.84227" lon="-1.45928">
        <ele>80.4</ele>
        <time>2024-01-25T13:22:39Z</time>
      </trkpt>
      <trkpt lat="48.84225" lon="-1.45933">
        <ele>80.6</ele>
        <time>2024-01-25T13:22:40Z</time>
      </trkpt>
      <trkpt lat="48.84222" lon="-1.45939">
        <ele>80.9</ele>
        <time>2024-01-25T13:22:42Z</time>
      </trkpt>
      <trkpt lat="48.84221" lon="-1.45942">
        <ele>81</ele>
        <time>2024-01-25T13:22:43Z</time>
      </trkpt>
      <trkpt lat="48.84219" lon="-1.45948">
        <ele>81.3</ele>
        <time>2024-01-25T13:22:44Z</time>
      </trkpt>
      <trkpt lat="48.84217" lon="-1.45954">
        <ele>81.6</ele>
        <time>2024-01-25T13:22:45Z</time>
      </trkpt>
      <trkpt lat="48.84215" lon="-1.4596">
        <ele>81.8</ele>
        <time>2024-01-25T13:22:46Z</time>
      </trkpt>
      <trkpt lat="48.84213" lon="-1.45966">
        <ele>82.1</ele>
        <time>2024-01-25T13:22:47Z</time>
      </trkpt>
      <trkpt lat="48.8421" lon="-1.45971">
        <ele>82.3</ele>
        <time>2024-01-25T13:22:48Z</time>
      </trkpt>
      <trkpt lat="48.84208" lon="-1.45976">
        <ele>82.6</ele>
        <time>2024-01-25T13:22:49Z</time>
      </trkpt>
      <trkpt lat="48.84206" lon="-1.4598">
        <ele>82.7</ele>
        <time>2024-01-25T13:22:50Z</time>
      </trkpt>
      <trkpt lat="48.84203" lon="-1.45984">
        <ele>82.9</ele>
        <time>2024-01-25T13:22:51Z</time>
      </trkpt>
      <trkpt lat="48.84199" lon="-1.45988">
        <ele>83</ele>
        <time>2024-01-25T13:22:52Z</time>
      </trkpt>
      <trkpt lat="48.84192" lon="-1.45994">
        <ele>83.3</ele>
        <time>2024-01-25T13:22:53Z</time>
      </trkpt>
      <trkpt lat="48.84185" lon="-1.46001">
        <ele>83.6</ele>
        <time>2024-01-25T13:22:55Z</time>
      </trkpt>
      <trkpt lat="48.84181" lon="-1.46006">
        <ele>83.7</ele>
        <time>2024-01-25T13:22:56Z</time>
      </trkpt>
      <trkpt lat="48.84176" lon="-1.46011">
        <ele>83.8</ele>
        <time>2024-01-25T13:22:57Z</time>
      </trkpt>
      <trkpt lat="48.84171" lon="-1.46015">
        <ele>83.9</ele>
        <time>2024-01-25T13:22:58Z</time>
      </trkpt>
      <trkpt lat="48.84166" lon="-1.4602">
        <ele>84</ele>
        <time>2024-01-25T13:22:59Z</time>
      </trkpt>
      <trkpt lat="48.84162" lon="-1.46024">
        <ele>84.1</ele>
        <time>2024-01-25T13:23:00Z</time>
      </trkpt>
      <trkpt lat="48.84157" lon="-1.46028">
        <ele>84.2</ele>
        <time>2024-01-25T13:23:01Z</time>
      </trkpt>
      <trkpt lat="48.84152" lon="-1.46033">
        <ele>84.2</ele>
        <time>2024-01-25T13:23:02Z</time>
      </trkpt>
      <trkpt lat="48.84148" lon="-1.46037">
        <ele>84.3</ele>
        <time>2024-01-25T13:23:03Z</time>
      </trkpt>
      <trkpt lat="48.84143" lon="-1.46042">
        <ele>84.3</ele>
        <time>2024-01-25T13:23:04Z</time>
      </trkpt>
      <trkpt lat="48.84139" lon="-1.46046">
        <ele>84.3</ele>
        <time>2024-01-25T13:23:05Z</time>
      </trkpt>
      <trkpt lat="48.84135" lon="-1.4605">
        <ele>84.4</ele>
        <time>2024-01-25T13:23:06Z</time>
      </trkpt>
      <trkpt lat="48.84131" lon="-1.46053">
        <ele>84.4</ele>
        <time>2024-01-25T13:23:07Z</time>
      </trkpt>
      <trkpt lat="48.84126" lon="-1.46057">
        <ele>84.5</ele>
        <time>2024-01-25T13:23:08Z</time>
      </trkpt>
      <trkpt lat="48.84122" lon="-1.46062">
        <ele>84.5</ele>
        <time>2024-01-25T13:23:09Z</time>
      </trkpt>
      <trkpt lat="48.84118" lon="-1.46066">
        <ele>84.5</ele>
        <time>2024-01-25T13:23:10Z</time>
      </trkpt>
      <trkpt lat="48.84113" lon="-1.46071">
        <ele>84.5</ele>
        <time>2024-01-25T13:23:11Z</time>
      </trkpt>
      <trkpt lat="48.84109" lon="-1.46075">
        <ele>84.6</ele>
        <time>2024-01-25T13:23:12Z</time>
      </trkpt>
      <trkpt lat="48.84104" lon="-1.4608">
        <ele>84.6</ele>
        <time>2024-01-25T13:23:13Z</time>
      </trkpt>
      <trkpt lat="48.841" lon="-1.46085">
        <ele>84.6</ele>
        <time>2024-01-25T13:23:14Z</time>
      </trkpt>
      <trkpt lat="48.84095" lon="-1.4609">
        <ele>84.6</ele>
        <time>2024-01-25T13:23:15Z</time>
      </trkpt>
      <trkpt lat="48.84091" lon="-1.46095">
        <ele>84.7</ele>
        <time>2024-01-25T13:23:16Z</time>
      </trkpt>
      <trkpt lat="48.84086" lon="-1.461">
        <ele>84.7</ele>
        <time>2024-01-25T13:23:17Z</time>
      </trkpt>
      <trkpt lat="48.84082" lon="-1.46104">
        <ele>84.7</ele>
        <time>2024-01-25T13:23:18Z</time>
      </trkpt>
      <trkpt lat="48.84078" lon="-1.46108">
        <ele>84.7</ele>
        <time>2024-01-25T13:23:19Z</time>
      </trkpt>
      <trkpt lat="48.84074" lon="-1.46112">
        <ele>84.7</ele>
        <time>2024-01-25T13:23:20Z</time>
      </trkpt>
      <trkpt lat="48.8407" lon="-1.46116">
        <ele>84.7</ele>
        <time>2024-01-25T13:23:21Z</time>
      </trkpt>
      <trkpt lat="48.84066" lon="-1.4612">
        <ele>84.7</ele>
        <time>2024-01-25T13:23:22Z</time>
      </trkpt>
      <trkpt lat="48.84062" lon="-1.46124">
        <ele>84.7</ele>
        <time>2024-01-25T13:23:23Z</time>
      </trkpt>
      <trkpt lat="48.84058" lon="-1.46129">
        <ele>84.7</ele>
        <time>2024-01-25T13:23:24Z</time>
      </trkpt>
      <trkpt lat="48.84054" lon="-1.46133">
        <ele>84.7</ele>
        <time>2024-01-25T13:23:25Z</time>
      </trkpt>
      <trkpt lat="48.8405" lon="-1.46137">
        <ele>84.7</ele>
        <time>2024-01-25T13:23:26Z</time>
      </trkpt>
      <trkpt lat="48.84046" lon="-1.46141">
        <ele>84.7</ele>
        <time>2024-01-25T13:23:27Z</time>
      </trkpt>
      <trkpt lat="48.84042" lon="-1.46146">
        <ele>84.7</ele>
        <time>2024-01-25T13:23:28Z</time>
      </trkpt>
      <trkpt lat="48.84038" lon="-1.4615">
        <ele>84.7</ele>
        <time>2024-01-25T13:23:29Z</time>
      </trkpt>
      <trkpt lat="48.84034" lon="-1.46154">
        <ele>84.8</ele>
        <time>2024-01-25T13:23:30Z</time>
      </trkpt>
      <trkpt lat="48.8403" lon="-1.46158">
        <ele>84.8</ele>
        <time>2024-01-25T13:23:31Z</time>
      </trkpt>
      <trkpt lat="48.84026" lon="-1.46162">
        <ele>84.8</ele>
        <time>2024-01-25T13:23:32Z</time>
      </trkpt>
      <trkpt lat="48.84022" lon="-1.46165">
        <ele>84.8</ele>
        <time>2024-01-25T13:23:33Z</time>
      </trkpt>
      <trkpt lat="48.84018" lon="-1.46169">
        <ele>84.9</ele>
        <time>2024-01-25T13:23:34Z</time>
      </trkpt>
      <trkpt lat="48.84015" lon="-1.46173">
        <ele>84.9</ele>
        <time>2024-01-25T13:23:35Z</time>
      </trkpt>
      <trkpt lat="48.84011" lon="-1.46177">
        <ele>84.9</ele>
        <time>2024-01-25T13:23:36Z</time>
      </trkpt>
      <trkpt lat="48.84007" lon="-1.46181">
        <ele>85</ele>
        <time>2024-01-25T13:23:37Z</time>
      </trkpt>
      <trkpt lat="48.84004" lon="-1.46185">
        <ele>85</ele>
        <time>2024-01-25T13:23:38Z</time>
      </trkpt>
      <trkpt lat="48.83999" lon="-1.46188">
        <ele>85</ele>
        <time>2024-01-25T13:23:39Z</time>
      </trkpt>
      <trkpt lat="48.83995" lon="-1.46193">
        <ele>85</ele>
        <time>2024-01-25T13:23:40Z</time>
      </trkpt>
      <trkpt lat="48.83991" lon="-1.46196">
        <ele>85</ele>
        <time>2024-01-25T13:23:41Z</time>
      </trkpt>
      <trkpt lat="48.83987" lon="-1.462">
        <ele>85</ele>
        <time>2024-01-25T13:23:42Z</time>
      </trkpt>
      <trkpt lat="48.83983" lon="-1.46203">
        <ele>85</ele>
        <time>2024-01-25T13:23:43Z</time>
      </trkpt>
      <trkpt lat="48.83978" lon="-1.46206">
        <ele>85</ele>
        <time>2024-01-25T13:23:44Z</time>
      </trkpt>
      <trkpt lat="48.83974" lon="-1.46209">
        <ele>85</ele>
        <time>2024-01-25T13:23:45Z</time>
      </trkpt>
      <trkpt lat="48.8397" lon="-1.46213">
        <ele>85</ele>
        <time>2024-01-25T13:23:46Z</time>
      </trkpt>
      <trkpt lat="48.83965" lon="-1.46216">
        <ele>85.1</ele>
        <time>2024-01-25T13:23:47Z</time>
      </trkpt>
      <trkpt lat="48.83961" lon="-1.4622">
        <ele>85.1</ele>
        <time>2024-01-25T13:23:48Z</time>
      </trkpt>
      <trkpt lat="48.83956" lon="-1.46223">
        <ele>85.1</ele>
        <time>2024-01-25T13:23:49Z</time>
      </trkpt>
      <trkpt lat="48.83951" lon="-1.46226">
        <ele>85.2</ele>
        <time>2024-01-25T13:23:50Z</time>
      </trkpt>
      <trkpt lat="48.83946" lon="-1.4623">
        <ele>85.2</ele>
        <time>2024-01-25T13:23:51Z</time>
      </trkpt>
      <trkpt lat="48.83941" lon="-1.46232">
        <ele>85.2</ele>
        <time>2024-01-25T13:23:52Z</time>
      </trkpt>
      <trkpt lat="48.83937" lon="-1.46235">
        <ele>85.2</ele>
        <time>2024-01-25T13:23:53Z</time>
      </trkpt>
      <trkpt lat="48.83932" lon="-1.46238">
        <ele>85.2</ele>
        <time>2024-01-25T13:23:54Z</time>
      </trkpt>
      <trkpt lat="48.83928" lon="-1.4624">
        <ele>85.2</ele>
        <time>2024-01-25T13:23:55Z</time>
      </trkpt>
      <trkpt lat="48.83923" lon="-1.46243">
        <ele>85.2</ele>
        <time>2024-01-25T13:23:56Z</time>
      </trkpt>
      <trkpt lat="48.83918" lon="-1.46245">
        <ele>85.2</ele>
        <time>2024-01-25T13:23:57Z</time>
      </trkpt>
      <trkpt lat="48.83914" lon="-1.46247">
        <ele>85.2</ele>
        <time>2024-01-25T13:23:58Z</time>
      </trkpt>
      <trkpt lat="48.8391" lon="-1.46249">
        <ele>85.2</ele>
        <time>2024-01-25T13:23:59Z</time>
      </trkpt>
      <trkpt lat="48.83905" lon="-1.46252">
        <ele>85.2</ele>
        <time>2024-01-25T13:24:00Z</time>
      </trkpt>
      <trkpt lat="48.839" lon="-1.46254">
        <ele>85.2</ele>
        <time>2024-01-25T13:24:01Z</time>
      </trkpt>
      <trkpt lat="48.83895" lon="-1.46257">
        <ele>85.2</ele>
        <time>2024-01-25T13:24:02Z</time>
      </trkpt>
      <trkpt lat="48.83889" lon="-1.46259">
        <ele>85.1</ele>
        <time>2024-01-25T13:24:03Z</time>
      </trkpt>
      <trkpt lat="48.83885" lon="-1.46261">
        <ele>85.1</ele>
        <time>2024-01-25T13:24:04Z</time>
      </trkpt>
      <trkpt lat="48.8388" lon="-1.46263">
        <ele>85.1</ele>
        <time>2024-01-25T13:24:05Z</time>
      </trkpt>
      <trkpt lat="48.83874" lon="-1.46264">
        <ele>85.1</ele>
        <time>2024-01-25T13:24:06Z</time>
      </trkpt>
      <trkpt lat="48.83869" lon="-1.46266">
        <ele>85.1</ele>
        <time>2024-01-25T13:24:07Z</time>
      </trkpt>
      <trkpt lat="48.83863" lon="-1.46268">
        <ele>85.1</ele>
        <time>2024-01-25T13:24:08Z</time>
      </trkpt>
      <trkpt lat="48.83857" lon="-1.46271">
        <ele>85.1</ele>
        <time>2024-01-25T13:24:09Z</time>
      </trkpt>
      <trkpt lat="48.83851" lon="-1.46274">
        <ele>85.1</ele>
        <time>2024-01-25T13:24:10Z</time>
      </trkpt>
      <trkpt lat="48.83846" lon="-1.46277">
        <ele>85.1</ele>
        <time>2024-01-25T13:24:11Z</time>
      </trkpt>
      <trkpt lat="48.8384" lon="-1.46279">
        <ele>85.1</ele>
        <time>2024-01-25T13:24:12Z</time>
      </trkpt>
      <trkpt lat="48.83834" lon="-1.46282">
        <ele>85.1</ele>
        <time>2024-01-25T13:24:13Z</time>
      </trkpt>
      <trkpt lat="48.83829" lon="-1.46285">
        <ele>85.1</ele>
        <time>2024-01-25T13:24:14Z</time>
      </trkpt>
      <trkpt lat="48.83824" lon="-1.46289">
        <ele>85.2</ele>
        <time>2024-01-25T13:24:15Z</time>
      </trkpt>
      <trkpt lat="48.83819" lon="-1.46292">
        <ele>85.2</ele>
        <time>2024-01-25T13:24:16Z</time>
      </trkpt>
      <trkpt lat="48.83813" lon="-1.46296">
        <ele>85.2</ele>
        <time>2024-01-25T13:24:17Z</time>
      </trkpt>
      <trkpt lat="48.83808" lon="-1.46299">
        <ele>85.2</ele>
        <time>2024-01-25T13:24:18Z</time>
      </trkpt>
      <trkpt lat="48.83803" lon="-1.46302">
        <ele>85.3</ele>
        <time>2024-01-25T13:24:19Z</time>
      </trkpt>
      <trkpt lat="48.83798" lon="-1.46305">
        <ele>85.3</ele>
        <time>2024-01-25T13:24:20Z</time>
      </trkpt>
      <trkpt lat="48.83793" lon="-1.46307">
        <ele>85.3</ele>
        <time>2024-01-25T13:24:21Z</time>
      </trkpt>
      <trkpt lat="48.83788" lon="-1.46309">
        <ele>85.3</ele>
        <time>2024-01-25T13:24:22Z</time>
      </trkpt>
      <trkpt lat="48.83784" lon="-1.46311">
        <ele>85.3</ele>
        <time>2024-01-25T13:24:23Z</time>
      </trkpt>
      <trkpt lat="48.83779" lon="-1.46312">
        <ele>85.4</ele>
        <time>2024-01-25T13:24:24Z</time>
      </trkpt>
      <trkpt lat="48.83774" lon="-1.46314">
        <ele>85.4</ele>
        <time>2024-01-25T13:24:25Z</time>
      </trkpt>
      <trkpt lat="48.83769" lon="-1.46316">
        <ele>85.4</ele>
        <time>2024-01-25T13:24:26Z</time>
      </trkpt>
      <trkpt lat="48.83765" lon="-1.46318">
        <ele>85.5</ele>
        <time>2024-01-25T13:24:27Z</time>
      </trkpt>
      <trkpt lat="48.8376" lon="-1.4632">
        <ele>85.5</ele>
        <time>2024-01-25T13:24:28Z</time>
      </trkpt>
      <trkpt lat="48.83755" lon="-1.46322">
        <ele>85.5</ele>
        <time>2024-01-25T13:24:29Z</time>
      </trkpt>
      <trkpt lat="48.83751" lon="-1.46325">
        <ele>85.6</ele>
        <time>2024-01-25T13:24:30Z</time>
      </trkpt>
      <trkpt lat="48.83746" lon="-1.46327">
        <ele>85.6</ele>
        <time>2024-01-25T13:24:31Z</time>
      </trkpt>
      <trkpt lat="48.83741" lon="-1.46329">
        <ele>85.6</ele>
        <time>2024-01-25T13:24:32Z</time>
      </trkpt>
      <trkpt lat="48.83737" lon="-1.46331">
        <ele>85.7</ele>
        <time>2024-01-25T13:24:33Z</time>
      </trkpt>
      <trkpt lat="48.83732" lon="-1.46334">
        <ele>85.8</ele>
        <time>2024-01-25T13:24:34Z</time>
      </trkpt>
      <trkpt lat="48.83727" lon="-1.46336">
        <ele>85.8</ele>
        <time>2024-01-25T13:24:35Z</time>
      </trkpt>
      <trkpt lat="48.83722" lon="-1.46338">
        <ele>85.9</ele>
        <time>2024-01-25T13:24:36Z</time>
      </trkpt>
      <trkpt lat="48.83717" lon="-1.4634">
        <ele>85.9</ele>
        <time>2024-01-25T13:24:37Z</time>
      </trkpt>
      <trkpt lat="48.83713" lon="-1.46341">
        <ele>86</ele>
        <time>2024-01-25T13:24:38Z</time>
      </trkpt>
      <trkpt lat="48.83708" lon="-1.46342">
        <ele>86.1</ele>
        <time>2024-01-25T13:24:39Z</time>
      </trkpt>
      <trkpt lat="48.83703" lon="-1.46342">
        <ele>86.2</ele>
        <time>2024-01-25T13:24:40Z</time>
      </trkpt>
      <trkpt lat="48.837" lon="-1.46342">
        <ele>86.3</ele>
        <time>2024-01-25T13:24:41Z</time>
      </trkpt>
      <trkpt lat="48.83695" lon="-1.46343">
        <ele>86.4</ele>
        <time>2024-01-25T13:24:42Z</time>
      </trkpt>
      <trkpt lat="48.83691" lon="-1.46344">
        <ele>86.5</ele>
        <time>2024-01-25T13:24:43Z</time>
      </trkpt>
      <trkpt lat="48.83688" lon="-1.46345">
        <ele>86.6</ele>
        <time>2024-01-25T13:24:44Z</time>
      </trkpt>
      <trkpt lat="48.83685" lon="-1.46346">
        <ele>86.7</ele>
        <time>2024-01-25T13:24:45Z</time>
      </trkpt>
      <trkpt lat="48.83681" lon="-1.46347">
        <ele>86.8</ele>
        <time>2024-01-25T13:24:46Z</time>
      </trkpt>
      <trkpt lat="48.83678" lon="-1.46349">
        <ele>87</ele>
        <time>2024-01-25T13:24:48Z</time>
      </trkpt>
      <trkpt lat="48.83674" lon="-1.4635">
        <ele>87.1</ele>
        <time>2024-01-25T13:24:49Z</time>
      </trkpt>
      <trkpt lat="48.83672" lon="-1.46353">
        <ele>87.2</ele>
        <time>2024-01-25T13:24:50Z</time>
      </trkpt>
      <trkpt lat="48.8367" lon="-1.46354">
        <ele>87.3</ele>
        <time>2024-01-25T13:24:51Z</time>
      </trkpt>
      <trkpt lat="48.8367" lon="-1.46354">
        <ele>87.3</ele>
        <time>2024-01-25T13:24:52Z</time>
      </trkpt>
      <trkpt lat="48.8367" lon="-1.46355">
        <ele>87.3</ele>
        <time>2024-01-25T13:24:53Z</time>
      </trkpt>
      <trkpt lat="48.8367" lon="-1.46355">
        <ele>87.3</ele>
        <time>2024-01-25T13:24:54Z</time>
      </trkpt>
      <trkpt lat="48.8367" lon="-1.46355">
        <ele>87.3</ele>
        <time>2024-01-25T13:24:55Z</time>
      </trkpt>
      <trkpt lat="48.8367" lon="-1.46355">
        <ele>87.3</ele>
        <time>2024-01-25T13:24:56Z</time>
      </trkpt>
      <trkpt lat="48.83669" lon="-1.46355">
        <ele>87.3</ele>
        <time>2024-01-25T13:24:57Z</time>
      </trkpt>
      <trkpt lat="48.83669" lon="-1.46355">
        <ele>87.3</ele>
        <time>2024-01-25T13:24:58Z</time>
      </trkpt>
      <trkpt lat="48.83669" lon="-1.46355">
        <ele>87.3</ele>
        <time>2024-01-25T13:24:59Z</time>
      </trkpt>
      <trkpt lat="48.83669" lon="-1.46355">
        <ele>87.3</ele>
        <time>2024-01-25T13:25:00Z</time>
      </trkpt>
      <trkpt lat="48.83669" lon="-1.46356">
        <ele>87.3</ele>
        <time>2024-01-25T13:25:01Z</time>
      </trkpt>
      <trkpt lat="48.83669" lon="-1.46356">
        <ele>87.4</ele>
        <time>2024-01-25T13:25:02Z</time>
      </trkpt>
      <trkpt lat="48.83669" lon="-1.46356">
        <ele>87.4</ele>
        <time>2024-01-25T13:25:03Z</time>
      </trkpt>
      <trkpt lat="48.83669" lon="-1.46356">
        <ele>87.4</ele>
        <time>2024-01-25T13:25:04Z</time>
      </trkpt>
      <trkpt lat="48.83669" lon="-1.46356">
        <ele>87.4</ele>
        <time>2024-01-25T13:25:05Z</time>
      </trkpt>
      <trkpt lat="48.83669" lon="-1.46356">
        <ele>87.4</ele>
        <time>2024-01-25T13:25:06Z</time>
      </trkpt>
      <trkpt lat="48.83669" lon="-1.46356">
        <ele>87.4</ele>
        <time>2024-01-25T13:25:07Z</time>
      </trkpt>
      <trkpt lat="48.83669" lon="-1.46357">
        <ele>87.4</ele>
        <time>2024-01-25T13:25:08Z</time>
      </trkpt>
      <trkpt lat="48.83668" lon="-1.46357">
        <ele>87.4</ele>
        <time>2024-01-25T13:25:09Z</time>
      </trkpt>
      <trkpt lat="48.83668" lon="-1.46357">
        <ele>87.4</ele>
        <time>2024-01-25T13:25:10Z</time>
      </trkpt>
      <trkpt lat="48.83668" lon="-1.46357">
        <ele>87.4</ele>
        <time>2024-01-25T13:25:11Z</time>
      </trkpt>
      <trkpt lat="48.83668" lon="-1.46357">
        <ele>87.4</ele>
        <time>2024-01-25T13:25:12Z</time>
      </trkpt>
      <trkpt lat="48.83668" lon="-1.46357">
        <ele>87.4</ele>
        <time>2024-01-25T13:25:13Z</time>
      </trkpt>
      <trkpt lat="48.83668" lon="-1.46357">
        <ele>87.4</ele>
        <time>2024-01-25T13:25:14Z</time>
      </trkpt>
      <trkpt lat="48.83668" lon="-1.46357">
        <ele>87.4</ele>
        <time>2024-01-25T13:25:15Z</time>
      </trkpt>
      <trkpt lat="48.83665" lon="-1.46359">
        <ele>87.5</ele>
        <time>2024-01-25T13:25:16Z</time>
      </trkpt>
      <trkpt lat="48.83661" lon="-1.46359">
        <ele>87.5</ele>
        <time>2024-01-25T13:25:17Z</time>
      </trkpt>
      <trkpt lat="48.83658" lon="-1.4636">
        <ele>87.4</ele>
        <time>2024-01-25T13:25:18Z</time>
      </trkpt>
      <trkpt lat="48.83654" lon="-1.46359">
        <ele>87.4</ele>
        <time>2024-01-25T13:25:19Z</time>
      </trkpt>
      <trkpt lat="48.83652" lon="-1.46358">
        <ele>87.3</ele>
        <time>2024-01-25T13:25:20Z</time>
      </trkpt>
      <trkpt lat="48.83649" lon="-1.46358">
        <ele>87.2</ele>
        <time>2024-01-25T13:25:21Z</time>
      </trkpt>
      <trkpt lat="48.83645" lon="-1.46358">
        <ele>87.2</ele>
        <time>2024-01-25T13:25:22Z</time>
      </trkpt>
      <trkpt lat="48.83643" lon="-1.46358">
        <ele>87.1</ele>
        <time>2024-01-25T13:25:23Z</time>
      </trkpt>
      <trkpt lat="48.8364" lon="-1.46357">
        <ele>87.1</ele>
        <time>2024-01-25T13:25:24Z</time>
      </trkpt>
      <trkpt lat="48.83638" lon="-1.46357">
        <ele>87.1</ele>
        <time>2024-01-25T13:25:25Z</time>
      </trkpt>
      <trkpt lat="48.83635" lon="-1.46358">
        <ele>87</ele>
        <time>2024-01-25T13:25:26Z</time>
      </trkpt>
      <trkpt lat="48.83634" lon="-1.46358">
        <ele>87</ele>
        <time>2024-01-25T13:25:27Z</time>
      </trkpt>
      <trkpt lat="48.83631" lon="-1.46359">
        <ele>87</ele>
        <time>2024-01-25T13:25:28Z</time>
      </trkpt>
      <trkpt lat="48.83628" lon="-1.46359">
        <ele>87</ele>
        <time>2024-01-25T13:25:29Z</time>
      </trkpt>
      <trkpt lat="48.83625" lon="-1.46359">
        <ele>87</ele>
        <time>2024-01-25T13:25:30Z</time>
      </trkpt>
      <trkpt lat="48.83622" lon="-1.46357">
        <ele>87</ele>
        <time>2024-01-25T13:25:31Z</time>
      </trkpt>
      <trkpt lat="48.8362" lon="-1.46357">
        <ele>87</ele>
        <time>2024-01-25T13:25:32Z</time>
      </trkpt>
      <trkpt lat="48.83617" lon="-1.46358">
        <ele>87</ele>
        <time>2024-01-25T13:25:33Z</time>
      </trkpt>
      <trkpt lat="48.83615" lon="-1.46359">
        <ele>87</ele>
        <time>2024-01-25T13:25:34Z</time>
      </trkpt>
      <trkpt lat="48.83612" lon="-1.46359">
        <ele>87</ele>
        <time>2024-01-25T13:25:35Z</time>
      </trkpt>
      <trkpt lat="48.83611" lon="-1.46359">
        <ele>87</ele>
        <time>2024-01-25T13:25:36Z</time>
      </trkpt>
      <trkpt lat="48.83608" lon="-1.46357">
        <ele>87</ele>
        <time>2024-01-25T13:25:37Z</time>
      </trkpt>
      <trkpt lat="48.83605" lon="-1.46355">
        <ele>87</ele>
        <time>2024-01-25T13:25:38Z</time>
      </trkpt>
      <trkpt lat="48.83602" lon="-1.46355">
        <ele>87.1</ele>
        <time>2024-01-25T13:25:39Z</time>
      </trkpt>
      <trkpt lat="48.83598" lon="-1.46354">
        <ele>87.1</ele>
        <time>2024-01-25T13:25:40Z</time>
      </trkpt>
      <trkpt lat="48.83594" lon="-1.46353">
        <ele>87.1</ele>
        <time>2024-01-25T13:25:41Z</time>
      </trkpt>
      <trkpt lat="48.83591" lon="-1.46352">
        <ele>87.2</ele>
        <time>2024-01-25T13:25:42Z</time>
      </trkpt>
      <trkpt lat="48.83587" lon="-1.46351">
        <ele>87.2</ele>
        <time>2024-01-25T13:25:43Z</time>
      </trkpt>
      <trkpt lat="48.83583" lon="-1.46351">
        <ele>87.3</ele>
        <time>2024-01-25T13:25:44Z</time>
      </trkpt>
      <trkpt lat="48.83579" lon="-1.4635">
        <ele>87.3</ele>
        <time>2024-01-25T13:25:45Z</time>
      </trkpt>
      <trkpt lat="48.83575" lon="-1.4635">
        <ele>87.4</ele>
        <time>2024-01-25T13:25:46Z</time>
      </trkpt>
      <trkpt lat="48.83571" lon="-1.46349">
        <ele>87.4</ele>
        <time>2024-01-25T13:25:47Z</time>
      </trkpt>
      <trkpt lat="48.83568" lon="-1.46349">
        <ele>87.5</ele>
        <time>2024-01-25T13:25:48Z</time>
      </trkpt>
      <trkpt lat="48.83563" lon="-1.46348">
        <ele>87.5</ele>
        <time>2024-01-25T13:25:49Z</time>
      </trkpt>
      <trkpt lat="48.83559" lon="-1.46347">
        <ele>87.6</ele>
        <time>2024-01-25T13:25:50Z</time>
      </trkpt>
      <trkpt lat="48.83556" lon="-1.46346">
        <ele>87.6</ele>
        <time>2024-01-25T13:25:51Z</time>
      </trkpt>
      <trkpt lat="48.83552" lon="-1.46344">
        <ele>87.7</ele>
        <time>2024-01-25T13:25:52Z</time>
      </trkpt>
      <trkpt lat="48.83547" lon="-1.46344">
        <ele>87.7</ele>
        <time>2024-01-25T13:25:53Z</time>
      </trkpt>
      <trkpt lat="48.83544" lon="-1.46344">
        <ele>87.8</ele>
        <time>2024-01-25T13:25:54Z</time>
      </trkpt>
      <trkpt lat="48.8354" lon="-1.46343">
        <ele>87.8</ele>
        <time>2024-01-25T13:25:55Z</time>
      </trkpt>
      <trkpt lat="48.83535" lon="-1.46343">
        <ele>87.9</ele>
        <time>2024-01-25T13:25:56Z</time>
      </trkpt>
      <trkpt lat="48.83531" lon="-1.46342">
        <ele>87.9</ele>
        <time>2024-01-25T13:25:57Z</time>
      </trkpt>
      <trkpt lat="48.83527" lon="-1.46341">
        <ele>87.9</ele>
        <time>2024-01-25T13:25:58Z</time>
      </trkpt>
      <trkpt lat="48.83523" lon="-1.46341">
        <ele>88</ele>
        <time>2024-01-25T13:25:59Z</time>
      </trkpt>
      <trkpt lat="48.83519" lon="-1.46339">
        <ele>88</ele>
        <time>2024-01-25T13:26:00Z</time>
      </trkpt>
      <trkpt lat="48.83515" lon="-1.46338">
        <ele>88</ele>
        <time>2024-01-25T13:26:01Z</time>
      </trkpt>
      <trkpt lat="48.83511" lon="-1.46336">
        <ele>88.1</ele>
        <time>2024-01-25T13:26:02Z</time>
      </trkpt>
      <trkpt lat="48.83506" lon="-1.46335">
        <ele>88.1</ele>
        <time>2024-01-25T13:26:03Z</time>
      </trkpt>
      <trkpt lat="48.83498" lon="-1.46333">
        <ele>88.1</ele>
        <time>2024-01-25T13:26:05Z</time>
      </trkpt>
      <trkpt lat="48.83494" lon="-1.46332">
        <ele>88.1</ele>
        <time>2024-01-25T13:26:06Z</time>
      </trkpt>
      <trkpt lat="48.8349" lon="-1.46332">
        <ele>88.1</ele>
        <time>2024-01-25T13:26:07Z</time>
      </trkpt>
      <trkpt lat="48.83482" lon="-1.4633">
        <ele>88.1</ele>
        <time>2024-01-25T13:26:09Z</time>
      </trkpt>
      <trkpt lat="48.83477" lon="-1.46329">
        <ele>88.1</ele>
        <time>2024-01-25T13:26:10Z</time>
      </trkpt>
      <trkpt lat="48.83472" lon="-1.46328">
        <ele>88.1</ele>
        <time>2024-01-25T13:26:11Z</time>
      </trkpt>
      <trkpt lat="48.83467" lon="-1.46327">
        <ele>88.1</ele>
        <time>2024-01-25T13:26:12Z</time>
      </trkpt>
      <trkpt lat="48.83461" lon="-1.46327">
        <ele>88</ele>
        <time>2024-01-25T13:26:13Z</time>
      </trkpt>
      <trkpt lat="48.83456" lon="-1.46326">
        <ele>87.9</ele>
        <time>2024-01-25T13:26:14Z</time>
      </trkpt>
      <trkpt lat="48.83451" lon="-1.46325">
        <ele>87.9</ele>
        <time>2024-01-25T13:26:15Z</time>
      </trkpt>
      <trkpt lat="48.83446" lon="-1.46325">
        <ele>87.8</ele>
        <time>2024-01-25T13:26:16Z</time>
      </trkpt>
      <trkpt lat="48.83441" lon="-1.46325">
        <ele>87.8</ele>
        <time>2024-01-25T13:26:17Z</time>
      </trkpt>
      <trkpt lat="48.83436" lon="-1.46325">
        <ele>87.7</ele>
        <time>2024-01-25T13:26:18Z</time>
      </trkpt>
      <trkpt lat="48.83431" lon="-1.46325">
        <ele>87.5</ele>
        <time>2024-01-25T13:26:19Z</time>
      </trkpt>
      <trkpt lat="48.83426" lon="-1.46324">
        <ele>87.4</ele>
        <time>2024-01-25T13:26:20Z</time>
      </trkpt>
      <trkpt lat="48.83421" lon="-1.46324">
        <ele>87.3</ele>
        <time>2024-01-25T13:26:21Z</time>
      </trkpt>
      <trkpt lat="48.83416" lon="-1.46324">
        <ele>87.2</ele>
        <time>2024-01-25T13:26:22Z</time>
      </trkpt>
      <trkpt lat="48.83411" lon="-1.46324">
        <ele>87</ele>
        <time>2024-01-25T13:26:23Z</time>
      </trkpt>
      <trkpt lat="48.83407" lon="-1.46324">
        <ele>86.9</ele>
        <time>2024-01-25T13:26:24Z</time>
      </trkpt>
      <trkpt lat="48.83402" lon="-1.46325">
        <ele>86.7</ele>
        <time>2024-01-25T13:26:25Z</time>
      </trkpt>
      <trkpt lat="48.83397" lon="-1.46325">
        <ele>86.5</ele>
        <time>2024-01-25T13:26:26Z</time>
      </trkpt>
      <trkpt lat="48.83392" lon="-1.46325">
        <ele>86.2</ele>
        <time>2024-01-25T13:26:27Z</time>
      </trkpt>
      <trkpt lat="48.83387" lon="-1.46326">
        <ele>86</ele>
        <time>2024-01-25T13:26:28Z</time>
      </trkpt>
      <trkpt lat="48.83382" lon="-1.46328">
        <ele>85.7</ele>
        <time>2024-01-25T13:26:29Z</time>
      </trkpt>
      <trkpt lat="48.83376" lon="-1.46331">
        <ele>85.3</ele>
        <time>2024-01-25T13:26:30Z</time>
      </trkpt>
      <trkpt lat="48.8337" lon="-1.46333">
        <ele>85</ele>
        <time>2024-01-25T13:26:31Z</time>
      </trkpt>
      <trkpt lat="48.83364" lon="-1.46336">
        <ele>84.5</ele>
        <time>2024-01-25T13:26:32Z</time>
      </trkpt>
      <trkpt lat="48.83358" lon="-1.46338">
        <ele>84.1</ele>
        <time>2024-01-25T13:26:33Z</time>
      </trkpt>
      <trkpt lat="48.83352" lon="-1.46341">
        <ele>83.5</ele>
        <time>2024-01-25T13:26:34Z</time>
      </trkpt>
      <trkpt lat="48.83345" lon="-1.46346">
        <ele>82.9</ele>
        <time>2024-01-25T13:26:35Z</time>
      </trkpt>
      <trkpt lat="48.83339" lon="-1.4635">
        <ele>82.4</ele>
        <time>2024-01-25T13:26:36Z</time>
      </trkpt>
      <trkpt lat="48.83333" lon="-1.46354">
        <ele>81.8</ele>
        <time>2024-01-25T13:26:37Z</time>
      </trkpt>
      <trkpt lat="48.83327" lon="-1.46358">
        <ele>81.2</ele>
        <time>2024-01-25T13:26:38Z</time>
      </trkpt>
      <trkpt lat="48.8332" lon="-1.46362">
        <ele>80.5</ele>
        <time>2024-01-25T13:26:39Z</time>
      </trkpt>
      <trkpt lat="48.83313" lon="-1.46366">
        <ele>79.8</ele>
        <time>2024-01-25T13:26:40Z</time>
      </trkpt>
      <trkpt lat="48.83305" lon="-1.46369">
        <ele>79.1</ele>
        <time>2024-01-25T13:26:41Z</time>
      </trkpt>
      <trkpt lat="48.83298" lon="-1.46373">
        <ele>78.4</ele>
        <time>2024-01-25T13:26:42Z</time>
      </trkpt>
      <trkpt lat="48.8329" lon="-1.46377">
        <ele>77.7</ele>
        <time>2024-01-25T13:26:43Z</time>
      </trkpt>
      <trkpt lat="48.83282" lon="-1.46382">
        <ele>76.9</ele>
        <time>2024-01-25T13:26:44Z</time>
      </trkpt>
      <trkpt lat="48.83273" lon="-1.46386">
        <ele>76.1</ele>
        <time>2024-01-25T13:26:45Z</time>
      </trkpt>
      <trkpt lat="48.83264" lon="-1.4639">
        <ele>75.3</ele>
        <time>2024-01-25T13:26:46Z</time>
      </trkpt>
      <trkpt lat="48.83256" lon="-1.46394">
        <ele>74.8</ele>
        <time>2024-01-25T13:26:47Z</time>
      </trkpt>
      <trkpt lat="48.83248" lon="-1.46399">
        <ele>74.3</ele>
        <time>2024-01-25T13:26:48Z</time>
      </trkpt>
      <trkpt lat="48.83239" lon="-1.46403">
        <ele>73.9</ele>
        <time>2024-01-25T13:26:49Z</time>
      </trkpt>
      <trkpt lat="48.8323" lon="-1.46408">
        <ele>73.7</ele>
        <time>2024-01-25T13:26:50Z</time>
      </trkpt>
      <trkpt lat="48.83222" lon="-1.46413">
        <ele>73.6</ele>
        <time>2024-01-25T13:26:51Z</time>
      </trkpt>
      <trkpt lat="48.83214" lon="-1.46418">
        <ele>73.6</ele>
        <time>2024-01-25T13:26:52Z</time>
      </trkpt>
      <trkpt lat="48.83207" lon="-1.46423">
        <ele>73.8</ele>
        <time>2024-01-25T13:26:53Z</time>
      </trkpt>
      <trkpt lat="48.83199" lon="-1.46427">
        <ele>74</ele>
        <time>2024-01-25T13:26:54Z</time>
      </trkpt>
      <trkpt lat="48.83192" lon="-1.46429">
        <ele>74.4</ele>
        <time>2024-01-25T13:26:55Z</time>
      </trkpt>
      <trkpt lat="48.83186" lon="-1.4643">
        <ele>74.8</ele>
        <time>2024-01-25T13:26:56Z</time>
      </trkpt>
      <trkpt lat="48.83179" lon="-1.46429">
        <ele>75.3</ele>
        <time>2024-01-25T13:26:57Z</time>
      </trkpt>
      <trkpt lat="48.83174" lon="-1.46426">
        <ele>75.7</ele>
        <time>2024-01-25T13:26:58Z</time>
      </trkpt>
      <trkpt lat="48.8317" lon="-1.46423">
        <ele>76.1</ele>
        <time>2024-01-25T13:26:59Z</time>
      </trkpt>
      <trkpt lat="48.83167" lon="-1.46419">
        <ele>76.5</ele>
        <time>2024-01-25T13:27:00Z</time>
      </trkpt>
      <trkpt lat="48.83165" lon="-1.46414">
        <ele>76.8</ele>
        <time>2024-01-25T13:27:01Z</time>
      </trkpt>
      <trkpt lat="48.83163" lon="-1.4641">
        <ele>77.1</ele>
        <time>2024-01-25T13:27:02Z</time>
      </trkpt>
      <trkpt lat="48.83162" lon="-1.46405">
        <ele>77.5</ele>
        <time>2024-01-25T13:27:03Z</time>
      </trkpt>
      <trkpt lat="48.83161" lon="-1.46404">
        <ele>77.6</ele>
        <time>2024-01-25T13:27:04Z</time>
      </trkpt>
      <trkpt lat="48.8316" lon="-1.46399">
        <ele>78</ele>
        <time>2024-01-25T13:27:05Z</time>
      </trkpt>
      <trkpt lat="48.8316" lon="-1.46397">
        <ele>78.1</ele>
        <time>2024-01-25T13:27:06Z</time>
      </trkpt>
      <trkpt lat="48.8316" lon="-1.46391">
        <ele>78.6</ele>
        <time>2024-01-25T13:27:08Z</time>
      </trkpt>
      <trkpt lat="48.83159" lon="-1.46389">
        <ele>78.8</ele>
        <time>2024-01-25T13:27:09Z</time>
      </trkpt>
      <trkpt lat="48.83157" lon="-1.46384">
        <ele>79.1</ele>
        <time>2024-01-25T13:27:10Z</time>
      </trkpt>
      <trkpt lat="48.83157" lon="-1.46382">
        <ele>79.3</ele>
        <time>2024-01-25T13:27:11Z</time>
      </trkpt>
      <trkpt lat="48.83155" lon="-1.46377">
        <ele>79.7</ele>
        <time>2024-01-25T13:27:12Z</time>
      </trkpt>
      <trkpt lat="48.83154" lon="-1.46376">
        <ele>79.9</ele>
        <time>2024-01-25T13:27:13Z</time>
      </trkpt>
      <trkpt lat="48.83152" lon="-1.46371">
        <ele>80.3</ele>
        <time>2024-01-25T13:27:14Z</time>
      </trkpt>
      <trkpt lat="48.83151" lon="-1.46369">
        <ele>80.5</ele>
        <time>2024-01-25T13:27:15Z</time>
      </trkpt>
      <trkpt lat="48.83149" lon="-1.46366">
        <ele>80.9</ele>
        <time>2024-01-25T13:27:16Z</time>
      </trkpt>
      <trkpt lat="48.83147" lon="-1.46363">
        <ele>81.2</ele>
        <time>2024-01-25T13:27:17Z</time>
      </trkpt>
      <trkpt lat="48.83145" lon="-1.46361">
        <ele>81.6</ele>
        <time>2024-01-25T13:27:18Z</time>
      </trkpt>
      <trkpt lat="48.83144" lon="-1.4636">
        <ele>81.7</ele>
        <time>2024-01-25T13:27:19Z</time>
      </trkpt>
      <trkpt lat="48.83142" lon="-1.46358">
        <ele>81.9</ele>
        <time>2024-01-25T13:27:20Z</time>
      </trkpt>
      <trkpt lat="48.83141" lon="-1.46357">
        <ele>82.1</ele>
        <time>2024-01-25T13:27:21Z</time>
      </trkpt>
      <trkpt lat="48.83138" lon="-1.46355">
        <ele>82.5</ele>
        <time>2024-01-25T13:27:22Z</time>
      </trkpt>
      <trkpt lat="48.83136" lon="-1.46353">
        <ele>82.9</ele>
        <time>2024-01-25T13:27:23Z</time>
      </trkpt>
      <trkpt lat="48.83133" lon="-1.4635">
        <ele>83.3</ele>
        <time>2024-01-25T13:27:24Z</time>
      </trkpt>
      <trkpt lat="48.83132" lon="-1.46349">
        <ele>83.4</ele>
        <time>2024-01-25T13:27:25Z</time>
      </trkpt>
      <trkpt lat="48.83129" lon="-1.46346">
        <ele>83.9</ele>
        <time>2024-01-25T13:27:26Z</time>
      </trkpt>
      <trkpt lat="48.83128" lon="-1.46346">
        <ele>84</ele>
        <time>2024-01-25T13:27:27Z</time>
      </trkpt>
      <trkpt lat="48.83125" lon="-1.46345">
        <ele>84.3</ele>
        <time>2024-01-25T13:27:28Z</time>
      </trkpt>
      <trkpt lat="48.83122" lon="-1.46345">
        <ele>84.7</ele>
        <time>2024-01-25T13:27:29Z</time>
      </trkpt>
      <trkpt lat="48.83119" lon="-1.46344">
        <ele>85</ele>
        <time>2024-01-25T13:27:30Z</time>
      </trkpt>
      <trkpt lat="48.83115" lon="-1.46344">
        <ele>85.4</ele>
        <time>2024-01-25T13:27:31Z</time>
      </trkpt>
      <trkpt lat="48.8311" lon="-1.46344">
        <ele>85.8</ele>
        <time>2024-01-25T13:27:32Z</time>
      </trkpt>
      <trkpt lat="48.83107" lon="-1.46345">
        <ele>86.2</ele>
        <time>2024-01-25T13:27:33Z</time>
      </trkpt>
      <trkpt lat="48.83102" lon="-1.46346">
        <ele>86.6</ele>
        <time>2024-01-25T13:27:34Z</time>
      </trkpt>
      <trkpt lat="48.83096" lon="-1.46349">
        <ele>87.1</ele>
        <time>2024-01-25T13:27:35Z</time>
      </trkpt>
      <trkpt lat="48.83092" lon="-1.46351">
        <ele>87.5</ele>
        <time>2024-01-25T13:27:36Z</time>
      </trkpt>
      <trkpt lat="48.83088" lon="-1.46352">
        <ele>87.8</ele>
        <time>2024-01-25T13:27:37Z</time>
      </trkpt>
      <trkpt lat="48.83085" lon="-1.46354">
        <ele>88.1</ele>
        <time>2024-01-25T13:27:38Z</time>
      </trkpt>
      <trkpt lat="48.83081" lon="-1.46355">
        <ele>88.4</ele>
        <time>2024-01-25T13:27:39Z</time>
      </trkpt>
      <trkpt lat="48.83078" lon="-1.46357">
        <ele>88.6</ele>
        <time>2024-01-25T13:27:40Z</time>
      </trkpt>
      <trkpt lat="48.83075" lon="-1.46358">
        <ele>88.9</ele>
        <time>2024-01-25T13:27:41Z</time>
      </trkpt>
      <trkpt lat="48.83071" lon="-1.46359">
        <ele>89.1</ele>
        <time>2024-01-25T13:27:42Z</time>
      </trkpt>
      <trkpt lat="48.83068" lon="-1.46361">
        <ele>89.4</ele>
        <time>2024-01-25T13:27:43Z</time>
      </trkpt>
      <trkpt lat="48.83065" lon="-1.46362">
        <ele>89.6</ele>
        <time>2024-01-25T13:27:44Z</time>
      </trkpt>
      <trkpt lat="48.83062" lon="-1.46364">
        <ele>89.8</ele>
        <time>2024-01-25T13:27:45Z</time>
      </trkpt>
      <trkpt lat="48.83059" lon="-1.46365">
        <ele>90</ele>
        <time>2024-01-25T13:27:46Z</time>
      </trkpt>
      <trkpt lat="48.83056" lon="-1.46365">
        <ele>90.3</ele>
        <time>2024-01-25T13:27:47Z</time>
      </trkpt>
      <trkpt lat="48.83053" lon="-1.46366">
        <ele>90.5</ele>
        <time>2024-01-25T13:27:48Z</time>
      </trkpt>
      <trkpt lat="48.83049" lon="-1.46368">
        <ele>90.8</ele>
        <time>2024-01-25T13:27:49Z</time>
      </trkpt>
      <trkpt lat="48.83047" lon="-1.46369">
        <ele>90.9</ele>
        <time>2024-01-25T13:27:50Z</time>
      </trkpt>
      <trkpt lat="48.83045" lon="-1.4637">
        <ele>91.1</ele>
        <time>2024-01-25T13:27:51Z</time>
      </trkpt>
      <trkpt lat="48.83042" lon="-1.46371">
        <ele>91.3</ele>
        <time>2024-01-25T13:27:52Z</time>
      </trkpt>
      <trkpt lat="48.83039" lon="-1.46372">
        <ele>91.5</ele>
        <time>2024-01-25T13:27:53Z</time>
      </trkpt>
      <trkpt lat="48.83036" lon="-1.46372">
        <ele>91.7</ele>
        <time>2024-01-25T13:27:54Z</time>
      </trkpt>
      <trkpt lat="48.83033" lon="-1.46373">
        <ele>91.9</ele>
        <time>2024-01-25T13:27:55Z</time>
      </trkpt>
      <trkpt lat="48.83029" lon="-1.46375">
        <ele>92.1</ele>
        <time>2024-01-25T13:27:56Z</time>
      </trkpt>
      <trkpt lat="48.83025" lon="-1.46376">
        <ele>92.3</ele>
        <time>2024-01-25T13:27:57Z</time>
      </trkpt>
      <trkpt lat="48.83021" lon="-1.46378">
        <ele>92.5</ele>
        <time>2024-01-25T13:27:58Z</time>
      </trkpt>
      <trkpt lat="48.83018" lon="-1.4638">
        <ele>92.8</ele>
        <time>2024-01-25T13:27:59Z</time>
      </trkpt>
      <trkpt lat="48.83014" lon="-1.46383">
        <ele>93</ele>
        <time>2024-01-25T13:28:00Z</time>
      </trkpt>
      <trkpt lat="48.83011" lon="-1.46386">
        <ele>93.1</ele>
        <time>2024-01-25T13:28:01Z</time>
      </trkpt>
      <trkpt lat="48.83008" lon="-1.46388">
        <ele>93.3</ele>
        <time>2024-01-25T13:28:02Z</time>
      </trkpt>
      <trkpt lat="48.83005" lon="-1.46392">
        <ele>93.5</ele>
        <time>2024-01-25T13:28:03Z</time>
      </trkpt>
      <trkpt lat="48.83001" lon="-1.46393">
        <ele>93.6</ele>
        <time>2024-01-25T13:28:04Z</time>
      </trkpt>
      <trkpt lat="48.82998" lon="-1.46396">
        <ele>93.7</ele>
        <time>2024-01-25T13:28:05Z</time>
      </trkpt>
      <trkpt lat="48.82996" lon="-1.464">
        <ele>93.9</ele>
        <time>2024-01-25T13:28:06Z</time>
      </trkpt>
      <trkpt lat="48.82993" lon="-1.46404">
        <ele>94</ele>
        <time>2024-01-25T13:28:07Z</time>
      </trkpt>
      <trkpt lat="48.8299" lon="-1.46409">
        <ele>94.1</ele>
        <time>2024-01-25T13:28:08Z</time>
      </trkpt>
      <trkpt lat="48.82987" lon="-1.46412">
        <ele>94.2</ele>
        <time>2024-01-25T13:28:09Z</time>
      </trkpt>
      <trkpt lat="48.82984" lon="-1.46415">
        <ele>94.3</ele>
        <time>2024-01-25T13:28:10Z</time>
      </trkpt>
      <trkpt lat="48.82981" lon="-1.46419">
        <ele>94.4</ele>
        <time>2024-01-25T13:28:11Z</time>
      </trkpt>
      <trkpt lat="48.82978" lon="-1.46421">
        <ele>94.5</ele>
        <time>2024-01-25T13:28:12Z</time>
      </trkpt>
      <trkpt lat="48.82975" lon="-1.46424">
        <ele>94.5</ele>
        <time>2024-01-25T13:28:13Z</time>
      </trkpt>
      <trkpt lat="48.82972" lon="-1.46428">
        <ele>94.6</ele>
        <time>2024-01-25T13:28:14Z</time>
      </trkpt>
      <trkpt lat="48.8297" lon="-1.46431">
        <ele>94.6</ele>
        <time>2024-01-25T13:28:15Z</time>
      </trkpt>
      <trkpt lat="48.82966" lon="-1.46434">
        <ele>94.7</ele>
        <time>2024-01-25T13:28:16Z</time>
      </trkpt>
      <trkpt lat="48.82964" lon="-1.46436">
        <ele>94.7</ele>
        <time>2024-01-25T13:28:17Z</time>
      </trkpt>
      <trkpt lat="48.8296" lon="-1.4644">
        <ele>94.8</ele>
        <time>2024-01-25T13:28:18Z</time>
      </trkpt>
      <trkpt lat="48.82957" lon="-1.46443">
        <ele>94.8</ele>
        <time>2024-01-25T13:28:19Z</time>
      </trkpt>
      <trkpt lat="48.82954" lon="-1.46446">
        <ele>94.9</ele>
        <time>2024-01-25T13:28:20Z</time>
      </trkpt>
      <trkpt lat="48.8295" lon="-1.4645">
        <ele>94.9</ele>
        <time>2024-01-25T13:28:21Z</time>
      </trkpt>
      <trkpt lat="48.82946" lon="-1.46453">
        <ele>95</ele>
        <time>2024-01-25T13:28:22Z</time>
      </trkpt>
      <trkpt lat="48.82942" lon="-1.46456">
        <ele>95</ele>
        <time>2024-01-25T13:28:24Z</time>
      </trkpt>
      <trkpt lat="48.82939" lon="-1.46459">
        <ele>95.1</ele>
        <time>2024-01-25T13:28:25Z</time>
      </trkpt>
      <trkpt lat="48.82936" lon="-1.46461">
        <ele>95.1</ele>
        <time>2024-01-25T13:28:26Z</time>
      </trkpt>
      <trkpt lat="48.82931" lon="-1.46465">
        <ele>95.2</ele>
        <time>2024-01-25T13:28:27Z</time>
      </trkpt>
      <trkpt lat="48.82928" lon="-1.46467">
        <ele>95.3</ele>
        <time>2024-01-25T13:28:28Z</time>
      </trkpt>
      <trkpt lat="48.82925" lon="-1.46469">
        <ele>95.3</ele>
        <time>2024-01-25T13:28:29Z</time>
      </trkpt>
      <trkpt lat="48.82923" lon="-1.46472">
        <ele>95.3</ele>
        <time>2024-01-25T13:28:30Z</time>
      </trkpt>
      <trkpt lat="48.8292" lon="-1.46474">
        <ele>95.3</ele>
        <time>2024-01-25T13:28:31Z</time>
      </trkpt>
      <trkpt lat="48.82917" lon="-1.46475">
        <ele>95.4</ele>
        <time>2024-01-25T13:28:32Z</time>
      </trkpt>
      <trkpt lat="48.82913" lon="-1.46476">
        <ele>95.4</ele>
        <time>2024-01-25T13:28:33Z</time>
      </trkpt>
      <trkpt lat="48.82908" lon="-1.46478">
        <ele>95.4</ele>
        <time>2024-01-25T13:28:34Z</time>
      </trkpt>
      <trkpt lat="48.82905" lon="-1.4648">
        <ele>95.5</ele>
        <time>2024-01-25T13:28:35Z</time>
      </trkpt>
      <trkpt lat="48.82901" lon="-1.46482">
        <ele>95.5</ele>
        <time>2024-01-25T13:28:36Z</time>
      </trkpt>
      <trkpt lat="48.82897" lon="-1.46483">
        <ele>95.5</ele>
        <time>2024-01-25T13:28:37Z</time>
      </trkpt>
      <trkpt lat="48.82894" lon="-1.46484">
        <ele>95.5</ele>
        <time>2024-01-25T13:28:38Z</time>
      </trkpt>
      <trkpt lat="48.82889" lon="-1.46486">
        <ele>95.6</ele>
        <time>2024-01-25T13:28:39Z</time>
      </trkpt>
      <trkpt lat="48.82885" lon="-1.46487">
        <ele>95.6</ele>
        <time>2024-01-25T13:28:40Z</time>
      </trkpt>
      <trkpt lat="48.82881" lon="-1.46487">
        <ele>95.6</ele>
        <time>2024-01-25T13:28:41Z</time>
      </trkpt>
      <trkpt lat="48.82875" lon="-1.46488">
        <ele>95.7</ele>
        <time>2024-01-25T13:28:42Z</time>
      </trkpt>
      <trkpt lat="48.8287" lon="-1.46489">
        <ele>95.7</ele>
        <time>2024-01-25T13:28:43Z</time>
      </trkpt>
      <trkpt lat="48.82863" lon="-1.4649">
        <ele>95.7</ele>
        <time>2024-01-25T13:28:45Z</time>
      </trkpt>
      <trkpt lat="48.82859" lon="-1.46492">
        <ele>95.7</ele>
        <time>2024-01-25T13:28:46Z</time>
      </trkpt>
      <trkpt lat="48.82853" lon="-1.46493">
        <ele>95.7</ele>
        <time>2024-01-25T13:28:47Z</time>
      </trkpt>
      <trkpt lat="48.82849" lon="-1.46494">
        <ele>95.7</ele>
        <time>2024-01-25T13:28:48Z</time>
      </trkpt>
      <trkpt lat="48.82845" lon="-1.46494">
        <ele>95.7</ele>
        <time>2024-01-25T13:28:49Z</time>
      </trkpt>
      <trkpt lat="48.82841" lon="-1.46495">
        <ele>95.7</ele>
        <time>2024-01-25T13:28:50Z</time>
      </trkpt>
      <trkpt lat="48.82837" lon="-1.46496">
        <ele>95.7</ele>
        <time>2024-01-25T13:28:51Z</time>
      </trkpt>
      <trkpt lat="48.82834" lon="-1.46498">
        <ele>95.7</ele>
        <time>2024-01-25T13:28:52Z</time>
      </trkpt>
      <trkpt lat="48.82831" lon="-1.46498">
        <ele>95.8</ele>
        <time>2024-01-25T13:28:53Z</time>
      </trkpt>
      <trkpt lat="48.82827" lon="-1.46499">
        <ele>95.8</ele>
        <time>2024-01-25T13:28:54Z</time>
      </trkpt>
      <trkpt lat="48.82824" lon="-1.46501">
        <ele>95.8</ele>
        <time>2024-01-25T13:28:55Z</time>
      </trkpt>
      <trkpt lat="48.82821" lon="-1.46501">
        <ele>95.8</ele>
        <time>2024-01-25T13:28:56Z</time>
      </trkpt>
      <trkpt lat="48.82817" lon="-1.46503">
        <ele>95.8</ele>
        <time>2024-01-25T13:28:57Z</time>
      </trkpt>
      <trkpt lat="48.82814" lon="-1.46503">
        <ele>95.8</ele>
        <time>2024-01-25T13:28:58Z</time>
      </trkpt>
      <trkpt lat="48.8281" lon="-1.46503">
        <ele>95.8</ele>
        <time>2024-01-25T13:28:59Z</time>
      </trkpt>
      <trkpt lat="48.82806" lon="-1.46503">
        <ele>95.8</ele>
        <time>2024-01-25T13:29:00Z</time>
      </trkpt>
      <trkpt lat="48.82803" lon="-1.46502">
        <ele>95.8</ele>
        <time>2024-01-25T13:29:01Z</time>
      </trkpt>
      <trkpt lat="48.828" lon="-1.46502">
        <ele>95.8</ele>
        <time>2024-01-25T13:29:02Z</time>
      </trkpt>
      <trkpt lat="48.82798" lon="-1.46503">
        <ele>95.8</ele>
        <time>2024-01-25T13:29:03Z</time>
      </trkpt>
      <trkpt lat="48.82794" lon="-1.46502">
        <ele>95.8</ele>
        <time>2024-01-25T13:29:04Z</time>
      </trkpt>
      <trkpt lat="48.82793" lon="-1.46502">
        <ele>95.8</ele>
        <time>2024-01-25T13:29:05Z</time>
      </trkpt>
      <trkpt lat="48.82791" lon="-1.46502">
        <ele>95.8</ele>
        <time>2024-01-25T13:29:06Z</time>
      </trkpt>
      <trkpt lat="48.8279" lon="-1.46503">
        <ele>95.7</ele>
        <time>2024-01-25T13:29:07Z</time>
      </trkpt>
      <trkpt lat="48.82789" lon="-1.46504">
        <ele>95.7</ele>
        <time>2024-01-25T13:29:08Z</time>
      </trkpt>
      <trkpt lat="48.82788" lon="-1.46504">
        <ele>95.7</ele>
        <time>2024-01-25T13:29:09Z</time>
      </trkpt>
      <trkpt lat="48.82787" lon="-1.46505">
        <ele>95.7</ele>
        <time>2024-01-25T13:29:10Z</time>
      </trkpt>
      <trkpt lat="48.82783" lon="-1.46505">
        <ele>95.7</ele>
        <time>2024-01-25T13:29:11Z</time>
      </trkpt>
      <trkpt lat="48.82782" lon="-1.46504">
        <ele>95.7</ele>
        <time>2024-01-25T13:29:12Z</time>
      </trkpt>
      <trkpt lat="48.82779" lon="-1.46503">
        <ele>95.8</ele>
        <time>2024-01-25T13:29:13Z</time>
      </trkpt>
      <trkpt lat="48.82776" lon="-1.46499">
        <ele>95.9</ele>
        <time>2024-01-25T13:29:14Z</time>
      </trkpt>
      <trkpt lat="48.82775" lon="-1.46497">
        <ele>95.9</ele>
        <time>2024-01-25T13:29:15Z</time>
      </trkpt>
      <trkpt lat="48.82773" lon="-1.46493">
        <ele>96</ele>
        <time>2024-01-25T13:29:16Z</time>
      </trkpt>
      <trkpt lat="48.82771" lon="-1.4649">
        <ele>96.1</ele>
        <time>2024-01-25T13:29:17Z</time>
      </trkpt>
      <trkpt lat="48.82769" lon="-1.46485">
        <ele>96.2</ele>
        <time>2024-01-25T13:29:18Z</time>
      </trkpt>
      <trkpt lat="48.82767" lon="-1.46481">
        <ele>96.2</ele>
        <time>2024-01-25T13:29:19Z</time>
      </trkpt>
      <trkpt lat="48.82765" lon="-1.46477">
        <ele>96.3</ele>
        <time>2024-01-25T13:29:20Z</time>
      </trkpt>
      <trkpt lat="48.82763" lon="-1.46474">
        <ele>96.3</ele>
        <time>2024-01-25T13:29:21Z</time>
      </trkpt>
      <trkpt lat="48.82761" lon="-1.46469">
        <ele>96.4</ele>
        <time>2024-01-25T13:29:22Z</time>
      </trkpt>
      <trkpt lat="48.82761" lon="-1.46468">
        <ele>96.4</ele>
        <time>2024-01-25T13:29:23Z</time>
      </trkpt>
      <trkpt lat="48.8276" lon="-1.46465">
        <ele>96.4</ele>
        <time>2024-01-25T13:29:24Z</time>
      </trkpt>
      <trkpt lat="48.82761" lon="-1.46463">
        <ele>96.5</ele>
        <time>2024-01-25T13:29:25Z</time>
      </trkpt>
      <trkpt lat="48.82761" lon="-1.46461">
        <ele>96.5</ele>
        <time>2024-01-25T13:29:26Z</time>
      </trkpt>
      <trkpt lat="48.82761" lon="-1.46461">
        <ele>96.5</ele>
        <time>2024-01-25T13:29:27Z</time>
      </trkpt>
      <trkpt lat="48.82761" lon="-1.46461">
        <ele>96.5</ele>
        <time>2024-01-25T13:29:28Z</time>
      </trkpt>
      <trkpt lat="48.82761" lon="-1.46461">
        <ele>96.5</ele>
        <time>2024-01-25T13:29:29Z</time>
      </trkpt>
      <trkpt lat="48.82761" lon="-1.46461">
        <ele>96.5</ele>
        <time>2024-01-25T13:29:30Z</time>
      </trkpt>
      <trkpt lat="48.82761" lon="-1.46461">
        <ele>96.5</ele>
        <time>2024-01-25T13:29:31Z</time>
      </trkpt>
      <trkpt lat="48.8276" lon="-1.46461">
        <ele>96.5</ele>
        <time>2024-01-25T13:29:32Z</time>
      </trkpt>
      <trkpt lat="48.8276" lon="-1.46461">
        <ele>96.5</ele>
        <time>2024-01-25T13:29:33Z</time>
      </trkpt>
      <trkpt lat="48.8276" lon="-1.46461">
        <ele>96.5</ele>
        <time>2024-01-25T13:29:34Z</time>
      </trkpt>
      <trkpt lat="48.8276" lon="-1.4646">
        <ele>96.5</ele>
        <time>2024-01-25T13:29:35Z</time>
      </trkpt>
      <trkpt lat="48.8276" lon="-1.4646">
        <ele>96.5</ele>
        <time>2024-01-25T13:29:36Z</time>
      </trkpt>
      <trkpt lat="48.8276" lon="-1.4646">
        <ele>96.5</ele>
        <time>2024-01-25T13:29:37Z</time>
      </trkpt>
      <trkpt lat="48.8276" lon="-1.4646">
        <ele>96.5</ele>
        <time>2024-01-25T13:29:38Z</time>
      </trkpt>
      <trkpt lat="48.8276" lon="-1.4646">
        <ele>96.5</ele>
        <time>2024-01-25T13:29:39Z</time>
      </trkpt>
      <trkpt lat="48.8276" lon="-1.4646">
        <ele>96.5</ele>
        <time>2024-01-25T13:29:40Z</time>
      </trkpt>
      <trkpt lat="48.82759" lon="-1.4646">
        <ele>96.5</ele>
        <time>2024-01-25T13:29:41Z</time>
      </trkpt>
      <trkpt lat="48.82759" lon="-1.4646">
        <ele>96.5</ele>
        <time>2024-01-25T13:29:42Z</time>
      </trkpt>
      <trkpt lat="48.82759" lon="-1.4646">
        <ele>96.5</ele>
        <time>2024-01-25T13:29:43Z</time>
      </trkpt>
      <trkpt lat="48.82759" lon="-1.4646">
        <ele>96.5</ele>
        <time>2024-01-25T13:29:44Z</time>
      </trkpt>
      <trkpt lat="48.82759" lon="-1.4646">
        <ele>96.5</ele>
        <time>2024-01-25T13:29:45Z</time>
      </trkpt>
      <trkpt lat="48.82759" lon="-1.4646">
        <ele>96.5</ele>
        <time>2024-01-25T13:29:46Z</time>
      </trkpt>
      <trkpt lat="48.82759" lon="-1.4646">
        <ele>96.5</ele>
        <time>2024-01-25T13:29:47Z</time>
      </trkpt>
      <trkpt lat="48.82759" lon="-1.4646">
        <ele>96.5</ele>
        <time>2024-01-25T13:29:48Z</time>
      </trkpt>
      <trkpt lat="48.82759" lon="-1.46459">
        <ele>96.5</ele>
        <time>2024-01-25T13:29:49Z</time>
      </trkpt>
      <trkpt lat="48.82758" lon="-1.46459">
        <ele>96.5</ele>
        <time>2024-01-25T13:29:50Z</time>
      </trkpt>
      <trkpt lat="48.82758" lon="-1.46459">
        <ele>96.5</ele>
        <time>2024-01-25T13:29:51Z</time>
      </trkpt>
      <trkpt lat="48.82758" lon="-1.46459">
        <ele>96.5</ele>
        <time>2024-01-25T13:29:52Z</time>
      </trkpt>
      <trkpt lat="48.82758" lon="-1.46459">
        <ele>96.5</ele>
        <time>2024-01-25T13:29:53Z</time>
      </trkpt>
      <trkpt lat="48.82758" lon="-1.46459">
        <ele>96.5</ele>
        <time>2024-01-25T13:29:54Z</time>
      </trkpt>
      <trkpt lat="48.82758" lon="-1.46459">
        <ele>96.5</ele>
        <time>2024-01-25T13:29:55Z</time>
      </trkpt>
      <trkpt lat="48.82758" lon="-1.46459">
        <ele>96.5</ele>
        <time>2024-01-25T13:29:56Z</time>
      </trkpt>
      <trkpt lat="48.82758" lon="-1.46459">
        <ele>96.5</ele>
        <time>2024-01-25T13:29:57Z</time>
      </trkpt>
      <trkpt lat="48.82758" lon="-1.46459">
        <ele>96.5</ele>
        <time>2024-01-25T13:29:58Z</time>
      </trkpt>
      <trkpt lat="48.82757" lon="-1.46459">
        <ele>96.5</ele>
        <time>2024-01-25T13:29:59Z</time>
      </trkpt>
      <trkpt lat="48.82753" lon="-1.46456">
        <ele>96.6</ele>
        <time>2024-01-25T13:30:00Z</time>
      </trkpt>
      <trkpt lat="48.82749" lon="-1.46454">
        <ele>96.6</ele>
        <time>2024-01-25T13:30:01Z</time>
      </trkpt>
      <trkpt lat="48.82747" lon="-1.46452">
        <ele>96.7</ele>
        <time>2024-01-25T13:30:02Z</time>
      </trkpt>
      <trkpt lat="48.82747" lon="-1.46452">
        <ele>96.7</ele>
        <time>2024-01-25T13:30:03Z</time>
      </trkpt>
      <trkpt lat="48.82746" lon="-1.46452">
        <ele>96.7</ele>
        <time>2024-01-25T13:30:04Z</time>
      </trkpt>
      <trkpt lat="48.82746" lon="-1.46452">
        <ele>96.7</ele>
        <time>2024-01-25T13:30:05Z</time>
      </trkpt>
      <trkpt lat="48.82746" lon="-1.46452">
        <ele>96.7</ele>
        <time>2024-01-25T13:30:06Z</time>
      </trkpt>
      <trkpt lat="48.82747" lon="-1.46452">
        <ele>96.7</ele>
        <time>2024-01-25T13:30:07Z</time>
      </trkpt>
      <trkpt lat="48.82747" lon="-1.46452">
        <ele>96.7</ele>
        <time>2024-01-25T13:30:08Z</time>
      </trkpt>
      <trkpt lat="48.82747" lon="-1.46453">
        <ele>96.7</ele>
        <time>2024-01-25T13:30:09Z</time>
      </trkpt>
      <trkpt lat="48.82748" lon="-1.46453">
        <ele>96.7</ele>
        <time>2024-01-25T13:30:10Z</time>
      </trkpt>
      <trkpt lat="48.82748" lon="-1.46453">
        <ele>96.7</ele>
        <time>2024-01-25T13:30:11Z</time>
      </trkpt>
      <trkpt lat="48.82749" lon="-1.46453">
        <ele>96.7</ele>
        <time>2024-01-25T13:30:12Z</time>
      </trkpt>
      <trkpt lat="48.82749" lon="-1.46453">
        <ele>96.7</ele>
        <time>2024-01-25T13:30:13Z</time>
      </trkpt>
      <trkpt lat="48.82749" lon="-1.46454">
        <ele>96.7</ele>
        <time>2024-01-25T13:30:14Z</time>
      </trkpt>
      <trkpt lat="48.8275" lon="-1.46454">
        <ele>96.7</ele>
        <time>2024-01-25T13:30:15Z</time>
      </trkpt>
      <trkpt lat="48.8275" lon="-1.46454">
        <ele>96.7</ele>
        <time>2024-01-25T13:30:16Z</time>
      </trkpt>
      <trkpt lat="48.82751" lon="-1.46454">
        <ele>96.7</ele>
        <time>2024-01-25T13:30:17Z</time>
      </trkpt>
      <trkpt lat="48.82751" lon="-1.46455">
        <ele>96.7</ele>
        <time>2024-01-25T13:30:18Z</time>
      </trkpt>
      <trkpt lat="48.82751" lon="-1.46455">
        <ele>96.7</ele>
        <time>2024-01-25T13:30:19Z</time>
      </trkpt>
      <trkpt lat="48.82752" lon="-1.46455">
        <ele>96.7</ele>
        <time>2024-01-25T13:30:20Z</time>
      </trkpt>
      <trkpt lat="48.82753" lon="-1.46455">
        <ele>96.8</ele>
        <time>2024-01-25T13:30:21Z</time>
      </trkpt>
      <trkpt lat="48.82753" lon="-1.46455">
        <ele>96.8</ele>
        <time>2024-01-25T13:30:22Z</time>
      </trkpt>
      <trkpt lat="48.82752" lon="-1.46453">
        <ele>96.8</ele>
        <time>2024-01-25T13:30:23Z</time>
      </trkpt>
      <trkpt lat="48.82752" lon="-1.46451">
        <ele>96.8</ele>
        <time>2024-01-25T13:30:24Z</time>
      </trkpt>
      <trkpt lat="48.82746" lon="-1.46452">
        <ele>96.9</ele>
        <time>2024-01-25T13:30:25Z</time>
      </trkpt>
      <trkpt lat="48.82745" lon="-1.46451">
        <ele>96.9</ele>
        <time>2024-01-25T13:30:26Z</time>
      </trkpt>
      <trkpt lat="48.82747" lon="-1.4645">
        <ele>96.9</ele>
        <time>2024-01-25T13:30:27Z</time>
      </trkpt>
      <trkpt lat="48.82749" lon="-1.46452">
        <ele>97</ele>
        <time>2024-01-25T13:30:28Z</time>
      </trkpt>
      <trkpt lat="48.82752" lon="-1.46454">
        <ele>97</ele>
        <time>2024-01-25T13:30:29Z</time>
      </trkpt>
      <trkpt lat="48.82752" lon="-1.46455">
        <ele>97</ele>
        <time>2024-01-25T13:30:30Z</time>
      </trkpt>
      <trkpt lat="48.82752" lon="-1.46456">
        <ele>97</ele>
        <time>2024-01-25T13:30:31Z</time>
      </trkpt>
      <trkpt lat="48.82752" lon="-1.46455">
        <ele>97</ele>
        <time>2024-01-25T13:30:32Z</time>
      </trkpt>
      <trkpt lat="48.82752" lon="-1.46455">
        <ele>97</ele>
        <time>2024-01-25T13:30:33Z</time>
      </trkpt>
      <trkpt lat="48.82752" lon="-1.46455">
        <ele>97</ele>
        <time>2024-01-25T13:30:34Z</time>
      </trkpt>
      <trkpt lat="48.82752" lon="-1.46455">
        <ele>97</ele>
        <time>2024-01-25T13:30:35Z</time>
      </trkpt>
      <trkpt lat="48.82752" lon="-1.46455">
        <ele>97</ele>
        <time>2024-01-25T13:30:36Z</time>
      </trkpt>
      <trkpt lat="48.82752" lon="-1.46455">
        <ele>97.1</ele>
        <time>2024-01-25T13:30:37Z</time>
      </trkpt>
      <trkpt lat="48.82752" lon="-1.46455">
        <ele>97.1</ele>
        <time>2024-01-25T13:30:38Z</time>
      </trkpt>
      <trkpt lat="48.82752" lon="-1.46455">
        <ele>97.1</ele>
        <time>2024-01-25T13:30:39Z</time>
      </trkpt>
      <trkpt lat="48.82752" lon="-1.46455">
        <ele>97.1</ele>
        <time>2024-01-25T13:30:40Z</time>
      </trkpt>
      <trkpt lat="48.82752" lon="-1.46455">
        <ele>97.1</ele>
        <time>2024-01-25T13:30:41Z</time>
      </trkpt>
      <trkpt lat="48.82752" lon="-1.46455">
        <ele>97.1</ele>
        <time>2024-01-25T13:30:42Z</time>
      </trkpt>
      <trkpt lat="48.82752" lon="-1.46455">
        <ele>97.1</ele>
        <time>2024-01-25T13:30:43Z</time>
      </trkpt>
      <trkpt lat="48.82752" lon="-1.46455">
        <ele>97.1</ele>
        <time>2024-01-25T13:30:44Z</time>
      </trkpt>
      <trkpt lat="48.82752" lon="-1.46455">
        <ele>97.1</ele>
        <time>2024-01-25T13:30:45Z</time>
      </trkpt>
      <trkpt lat="48.82752" lon="-1.46455">
        <ele>97.1</ele>
        <time>2024-01-25T13:30:46Z</time>
      </trkpt>
      <trkpt lat="48.82752" lon="-1.46455">
        <ele>97.1</ele>
        <time>2024-01-25T13:30:47Z</time>
      </trkpt>
      <trkpt lat="48.82752" lon="-1.46455">
        <ele>97.1</ele>
        <time>2024-01-25T13:30:48Z</time>
      </trkpt>
      <trkpt lat="48.82752" lon="-1.46455">
        <ele>97.1</ele>
        <time>2024-01-25T13:30:49Z</time>
      </trkpt>
      <trkpt lat="48.82752" lon="-1.46455">
        <ele>97.1</ele>
        <time>2024-01-25T13:30:50Z</time>
      </trkpt>
      <trkpt lat="48.82752" lon="-1.46455">
        <ele>97.1</ele>
        <time>2024-01-25T13:30:51Z</time>
      </trkpt>
      <trkpt lat="48.82752" lon="-1.46455">
        <ele>97.1</ele>
        <time>2024-01-25T13:30:52Z</time>
      </trkpt>
      <trkpt lat="48.82752" lon="-1.46454">
        <ele>97.1</ele>
        <time>2024-01-25T13:30:53Z</time>
      </trkpt>
      <trkpt lat="48.82752" lon="-1.46454">
        <ele>97.1</ele>
        <time>2024-01-25T13:30:54Z</time>
      </trkpt>
      <trkpt lat="48.82752" lon="-1.46454">
        <ele>97.1</ele>
        <time>2024-01-25T13:30:55Z</time>
      </trkpt>
      <trkpt lat="48.82752" lon="-1.46454">
        <ele>97.1</ele>
        <time>2024-01-25T13:30:56Z</time>
      </trkpt>
      <trkpt lat="48.82752" lon="-1.46454">
        <ele>97.1</ele>
        <time>2024-01-25T13:30:57Z</time>
      </trkpt>
      <trkpt lat="48.82752" lon="-1.46454">
        <ele>97.1</ele>
        <time>2024-01-25T13:30:58Z</time>
      </trkpt>
      <trkpt lat="48.82752" lon="-1.46454">
        <ele>97.1</ele>
        <time>2024-01-25T13:30:59Z</time>
      </trkpt>
      <trkpt lat="48.82752" lon="-1.46454">
        <ele>97.1</ele>
        <time>2024-01-25T13:31:00Z</time>
      </trkpt>
      <trkpt lat="48.82752" lon="-1.46454">
        <ele>97.1</ele>
        <time>2024-01-25T13:31:01Z</time>
      </trkpt>
      <trkpt lat="48.82752" lon="-1.46454">
        <ele>97.1</ele>
        <time>2024-01-25T13:31:02Z</time>
      </trkpt>
      <trkpt lat="48.82752" lon="-1.46454">
        <ele>97.1</ele>
        <time>2024-01-25T13:31:03Z</time>
      </trkpt>
      <trkpt lat="48.82752" lon="-1.46454">
        <ele>97.1</ele>
        <time>2024-01-25T13:31:04Z</time>
      </trkpt>
      <trkpt lat="48.82752" lon="-1.46454">
        <ele>97.1</ele>
        <time>2024-01-25T13:31:05Z</time>
      </trkpt>
      <trkpt lat="48.82752" lon="-1.46454">
        <ele>97.1</ele>
        <time>2024-01-25T13:31:06Z</time>
      </trkpt>
      <trkpt lat="48.82752" lon="-1.46454">
        <ele>97.1</ele>
        <time>2024-01-25T13:31:07Z</time>
      </trkpt>
      <trkpt lat="48.82752" lon="-1.46454">
        <ele>97.1</ele>
        <time>2024-01-25T13:31:08Z</time>
      </trkpt>
      <trkpt lat="48.82752" lon="-1.46454">
        <ele>97.1</ele>
        <time>2024-01-25T13:31:09Z</time>
      </trkpt>
      <trkpt lat="48.82752" lon="-1.46454">
        <ele>97.1</ele>
        <time>2024-01-25T13:31:10Z</time>
      </trkpt>
      <trkpt lat="48.82752" lon="-1.46454">
        <ele>97.1</ele>
        <time>2024-01-25T13:31:11Z</time>
      </trkpt>
      <trkpt lat="48.82752" lon="-1.46454">
        <ele>97.1</ele>
        <time>2024-01-25T13:31:12Z</time>
      </trkpt>
      <trkpt lat="48.82752" lon="-1.46453">
        <ele>97.1</ele>
        <time>2024-01-25T13:31:13Z</time>
      </trkpt>
      <trkpt lat="48.82752" lon="-1.46453">
        <ele>97.1</ele>
        <time>2024-01-25T13:31:14Z</time>
      </trkpt>
      <trkpt lat="48.82752" lon="-1.46453">
        <ele>97.1</ele>
        <time>2024-01-25T13:31:15Z</time>
      </trkpt>
      <trkpt lat="48.82752" lon="-1.46453">
        <ele>97.1</ele>
        <time>2024-01-25T13:31:16Z</time>
      </trkpt>
      <trkpt lat="48.82752" lon="-1.46453">
        <ele>97.1</ele>
        <time>2024-01-25T13:31:17Z</time>
      </trkpt>
      <trkpt lat="48.82752" lon="-1.46453">
        <ele>97.1</ele>
        <time>2024-01-25T13:31:18Z</time>
      </trkpt>
      <trkpt lat="48.82752" lon="-1.46453">
        <ele>97.1</ele>
        <time>2024-01-25T13:31:19Z</time>
      </trkpt>
      <trkpt lat="48.82752" lon="-1.46453">
        <ele>97.1</ele>
        <time>2024-01-25T13:31:21Z</time>
      </trkpt>
      <trkpt lat="48.82752" lon="-1.46453">
        <ele>97.1</ele>
        <time>2024-01-25T13:31:22Z</time>
      </trkpt>
      <trkpt lat="48.82752" lon="-1.46453">
        <ele>97.1</ele>
        <time>2024-01-25T13:31:23Z</time>
      </trkpt>
      <trkpt lat="48.82752" lon="-1.46453">
        <ele>97.1</ele>
        <time>2024-01-25T13:31:24Z</time>
      </trkpt>
      <trkpt lat="48.82752" lon="-1.46453">
        <ele>97.1</ele>
        <time>2024-01-25T13:31:25Z</time>
      </trkpt>
      <trkpt lat="48.82752" lon="-1.46453">
        <ele>97.1</ele>
        <time>2024-01-25T13:31:26Z</time>
      </trkpt>
      <trkpt lat="48.82752" lon="-1.46453">
        <ele>97.1</ele>
        <time>2024-01-25T13:31:27Z</time>
      </trkpt>
      <trkpt lat="48.82752" lon="-1.46453">
        <ele>97.1</ele>
        <time>2024-01-25T13:31:28Z</time>
      </trkpt>
      <trkpt lat="48.82752" lon="-1.46453">
        <ele>97.1</ele>
        <time>2024-01-25T13:31:29Z</time>
      </trkpt>
      <trkpt lat="48.82752" lon="-1.46453">
        <ele>97.1</ele>
        <time>2024-01-25T13:31:30Z</time>
      </trkpt>
      <trkpt lat="48.82752" lon="-1.46453">
        <ele>97.1</ele>
        <time>2024-01-25T13:31:31Z</time>
      </trkpt>
      <trkpt lat="48.82752" lon="-1.46453">
        <ele>97.1</ele>
        <time>2024-01-25T13:31:32Z</time>
      </trkpt>
      <trkpt lat="48.82752" lon="-1.46453">
        <ele>97.1</ele>
        <time>2024-01-25T13:31:33Z</time>
      </trkpt>
      <trkpt lat="48.82752" lon="-1.46453">
        <ele>97.1</ele>
        <time>2024-01-25T13:31:34Z</time>
      </trkpt>
      <trkpt lat="48.82752" lon="-1.46452">
        <ele>97.1</ele>
        <time>2024-01-25T13:31:35Z</time>
      </trkpt>
      <trkpt lat="48.82752" lon="-1.46452">
        <ele>97.1</ele>
        <time>2024-01-25T13:31:36Z</time>
      </trkpt>
      <trkpt lat="48.82752" lon="-1.46452">
        <ele>97.1</ele>
        <time>2024-01-25T13:31:37Z</time>
      </trkpt>
      <trkpt lat="48.82752" lon="-1.46452">
        <ele>97.1</ele>
        <time>2024-01-25T13:31:38Z</time>
      </trkpt>
      <trkpt lat="48.82752" lon="-1.46452">
        <ele>97.1</ele>
        <time>2024-01-25T13:31:39Z</time>
      </trkpt>
      <trkpt lat="48.82752" lon="-1.46452">
        <ele>97.1</ele>
        <time>2024-01-25T13:31:40Z</time>
      </trkpt>
      <trkpt lat="48.82752" lon="-1.46452">
        <ele>97.1</ele>
        <time>2024-01-25T13:31:41Z</time>
      </trkpt>
      <trkpt lat="48.82752" lon="-1.46452">
        <ele>97.1</ele>
        <time>2024-01-25T13:31:42Z</time>
      </trkpt>
      <trkpt lat="48.82752" lon="-1.46452">
        <ele>97.1</ele>
        <time>2024-01-25T13:31:43Z</time>
      </trkpt>
      <trkpt lat="48.82752" lon="-1.46452">
        <ele>97.1</ele>
        <time>2024-01-25T13:31:44Z</time>
      </trkpt>
      <trkpt lat="48.82752" lon="-1.46452">
        <ele>97.1</ele>
        <time>2024-01-25T13:31:45Z</time>
      </trkpt>
      <trkpt lat="48.82752" lon="-1.46452">
        <ele>97.1</ele>
        <time>2024-01-25T13:31:47Z</time>
      </trkpt>
      <trkpt lat="48.82752" lon="-1.46452">
        <ele>97.1</ele>
        <time>2024-01-25T13:31:48Z</time>
      </trkpt>
      <trkpt lat="48.82752" lon="-1.46452">
        <ele>97.1</ele>
        <time>2024-01-25T13:31:49Z</time>
      </trkpt>
      <trkpt lat="48.82752" lon="-1.46452">
        <ele>97.1</ele>
        <time>2024-01-25T13:31:50Z</time>
      </trkpt>
      <trkpt lat="48.82752" lon="-1.46452">
        <ele>97.1</ele>
        <time>2024-01-25T13:31:51Z</time>
      </trkpt>
      <trkpt lat="48.82752" lon="-1.46452">
        <ele>97.1</ele>
        <time>2024-01-25T13:31:52Z</time>
      </trkpt>
      <trkpt lat="48.82752" lon="-1.46452">
        <ele>97.1</ele>
        <time>2024-01-25T13:31:53Z</time>
      </trkpt>
      <trkpt lat="48.82752" lon="-1.46452">
        <ele>97.1</ele>
        <time>2024-01-25T13:31:54Z</time>
      </trkpt>
      <trkpt lat="48.82752" lon="-1.46452">
        <ele>97.1</ele>
        <time>2024-01-25T13:31:55Z</time>
      </trkpt>
      <trkpt lat="48.82752" lon="-1.46451">
        <ele>97.1</ele>
        <time>2024-01-25T13:31:56Z</time>
      </trkpt>
      <trkpt lat="48.82752" lon="-1.46451">
        <ele>97.1</ele>
        <time>2024-01-25T13:31:57Z</time>
      </trkpt>
      <trkpt lat="48.82752" lon="-1.46451">
        <ele>97.1</ele>
        <time>2024-01-25T13:31:58Z</time>
      </trkpt>
      <trkpt lat="48.82752" lon="-1.46451">
        <ele>97.1</ele>
        <time>2024-01-25T13:31:59Z</time>
      </trkpt>
      <trkpt lat="48.82752" lon="-1.46451">
        <ele>97.1</ele>
        <time>2024-01-25T13:32:00Z</time>
      </trkpt>
      <trkpt lat="48.82752" lon="-1.46451">
        <ele>97.1</ele>
        <time>2024-01-25T13:32:01Z</time>
      </trkpt>
      <trkpt lat="48.82752" lon="-1.46451">
        <ele>97.1</ele>
        <time>2024-01-25T13:32:02Z</time>
      </trkpt>
      <trkpt lat="48.82752" lon="-1.46451">
        <ele>97.1</ele>
        <time>2024-01-25T13:32:03Z</time>
      </trkpt>
      <trkpt lat="48.82752" lon="-1.46451">
        <ele>97.1</ele>
        <time>2024-01-25T13:32:04Z</time>
      </trkpt>
      <trkpt lat="48.82752" lon="-1.46451">
        <ele>97.1</ele>
        <time>2024-01-25T13:32:05Z</time>
      </trkpt>
      <trkpt lat="48.82752" lon="-1.46451">
        <ele>97.1</ele>
        <time>2024-01-25T13:32:06Z</time>
      </trkpt>
      <trkpt lat="48.82752" lon="-1.46451">
        <ele>97.1</ele>
        <time>2024-01-25T13:32:07Z</time>
      </trkpt>
      <trkpt lat="48.82752" lon="-1.46451">
        <ele>97.1</ele>
        <time>2024-01-25T13:32:08Z</time>
      </trkpt>
      <trkpt lat="48.82752" lon="-1.46451">
        <ele>97.1</ele>
        <time>2024-01-25T13:32:09Z</time>
      </trkpt>
      <trkpt lat="48.82752" lon="-1.46451">
        <ele>97.1</ele>
        <time>2024-01-25T13:32:10Z</time>
      </trkpt>
      <trkpt lat="48.82752" lon="-1.46451">
        <ele>97.1</ele>
        <time>2024-01-25T13:32:11Z</time>
      </trkpt>
      <trkpt lat="48.82752" lon="-1.46451">
        <ele>97.1</ele>
        <time>2024-01-25T13:32:12Z</time>
      </trkpt>
      <trkpt lat="48.82752" lon="-1.46451">
        <ele>97.1</ele>
        <time>2024-01-25T13:32:13Z</time>
      </trkpt>
      <trkpt lat="48.82752" lon="-1.46451">
        <ele>97.1</ele>
        <time>2024-01-25T13:32:14Z</time>
      </trkpt>
      <trkpt lat="48.82752" lon="-1.46451">
        <ele>97.1</ele>
        <time>2024-01-25T13:32:15Z</time>
      </trkpt>
      <trkpt lat="48.82752" lon="-1.46451">
        <ele>97.1</ele>
        <time>2024-01-25T13:32:16Z</time>
      </trkpt>
      <trkpt lat="48.82752" lon="-1.4645">
        <ele>97.1</ele>
        <time>2024-01-25T13:32:17Z</time>
      </trkpt>
      <trkpt lat="48.82752" lon="-1.4645">
        <ele>97.1</ele>
        <time>2024-01-25T13:32:18Z</time>
      </trkpt>
      <trkpt lat="48.82752" lon="-1.4645">
        <ele>97.1</ele>
        <time>2024-01-25T13:32:19Z</time>
      </trkpt>
      <trkpt lat="48.82752" lon="-1.4645">
        <ele>97.1</ele>
        <time>2024-01-25T13:32:20Z</time>
      </trkpt>
      <trkpt lat="48.82752" lon="-1.4645">
        <ele>97.1</ele>
        <time>2024-01-25T13:32:21Z</time>
      </trkpt>
      <trkpt lat="48.82752" lon="-1.4645">
        <ele>97.1</ele>
        <time>2024-01-25T13:32:22Z</time>
      </trkpt>
      <trkpt lat="48.82752" lon="-1.4645">
        <ele>97.1</ele>
        <time>2024-01-25T13:32:23Z</time>
      </trkpt>
      <trkpt lat="48.82751" lon="-1.4645">
        <ele>97.1</ele>
        <time>2024-01-25T13:32:24Z</time>
      </trkpt>
      <trkpt lat="48.82751" lon="-1.4645">
        <ele>97.1</ele>
        <time>2024-01-25T13:32:25Z</time>
      </trkpt>
      <trkpt lat="48.82751" lon="-1.4645">
        <ele>97.1</ele>
        <time>2024-01-25T13:32:26Z</time>
      </trkpt>
      <trkpt lat="48.82751" lon="-1.4645">
        <ele>97.1</ele>
        <time>2024-01-25T13:32:27Z</time>
      </trkpt>
      <trkpt lat="48.82751" lon="-1.4645">
        <ele>97.1</ele>
        <time>2024-01-25T13:32:28Z</time>
      </trkpt>
      <trkpt lat="48.82751" lon="-1.4645">
        <ele>97.1</ele>
        <time>2024-01-25T13:32:29Z</time>
      </trkpt>
      <trkpt lat="48.82751" lon="-1.4645">
        <ele>97.1</ele>
        <time>2024-01-25T13:32:30Z</time>
      </trkpt>
      <trkpt lat="48.82751" lon="-1.4645">
        <ele>97.1</ele>
        <time>2024-01-25T13:32:31Z</time>
      </trkpt>
      <trkpt lat="48.82751" lon="-1.46443">
        <ele>97.2</ele>
        <time>2024-01-25T13:32:32Z</time>
      </trkpt>
      <trkpt lat="48.8275" lon="-1.46438">
        <ele>97.2</ele>
        <time>2024-01-25T13:32:33Z</time>
      </trkpt>
      <trkpt lat="48.82748" lon="-1.46434">
        <ele>97.3</ele>
        <time>2024-01-25T13:32:34Z</time>
      </trkpt>
      <trkpt lat="48.82747" lon="-1.4643">
        <ele>97.3</ele>
        <time>2024-01-25T13:32:35Z</time>
      </trkpt>
      <trkpt lat="48.82745" lon="-1.46426">
        <ele>97.4</ele>
        <time>2024-01-25T13:32:36Z</time>
      </trkpt>
      <trkpt lat="48.82744" lon="-1.46422">
        <ele>97.4</ele>
        <time>2024-01-25T13:32:37Z</time>
      </trkpt>
      <trkpt lat="48.82743" lon="-1.46416">
        <ele>97.5</ele>
        <time>2024-01-25T13:32:38Z</time>
      </trkpt>
      <trkpt lat="48.82742" lon="-1.46411">
        <ele>97.6</ele>
        <time>2024-01-25T13:32:39Z</time>
      </trkpt>
      <trkpt lat="48.82742" lon="-1.46406">
        <ele>97.7</ele>
        <time>2024-01-25T13:32:40Z</time>
      </trkpt>
      <trkpt lat="48.8274" lon="-1.46401">
        <ele>97.8</ele>
        <time>2024-01-25T13:32:41Z</time>
      </trkpt>
      <trkpt lat="48.82739" lon="-1.46396">
        <ele>97.9</ele>
        <time>2024-01-25T13:32:42Z</time>
      </trkpt>
      <trkpt lat="48.82738" lon="-1.4639">
        <ele>98.1</ele>
        <time>2024-01-25T13:32:43Z</time>
      </trkpt>
      <trkpt lat="48.82737" lon="-1.46384">
        <ele>98.2</ele>
        <time>2024-01-25T13:32:44Z</time>
      </trkpt>
      <trkpt lat="48.82737" lon="-1.46377">
        <ele>98.3</ele>
        <time>2024-01-25T13:32:45Z</time>
      </trkpt>
      <trkpt lat="48.82736" lon="-1.46372">
        <ele>98.5</ele>
        <time>2024-01-25T13:32:46Z</time>
      </trkpt>
      <trkpt lat="48.82735" lon="-1.46366">
        <ele>98.6</ele>
        <time>2024-01-25T13:32:47Z</time>
      </trkpt>
      <trkpt lat="48.82734" lon="-1.46362">
        <ele>98.7</ele>
        <time>2024-01-25T13:32:48Z</time>
      </trkpt>
      <trkpt lat="48.82735" lon="-1.46356">
        <ele>98.9</ele>
        <time>2024-01-25T13:32:49Z</time>
      </trkpt>
      <trkpt lat="48.82735" lon="-1.4635">
        <ele>99</ele>
        <time>2024-01-25T13:32:50Z</time>
      </trkpt>
      <trkpt lat="48.82736" lon="-1.46345">
        <ele>99.2</ele>
        <time>2024-01-25T13:32:51Z</time>
      </trkpt>
      <trkpt lat="48.82736" lon="-1.46339">
        <ele>99.4</ele>
        <time>2024-01-25T13:32:52Z</time>
      </trkpt>
      <trkpt lat="48.82737" lon="-1.46334">
        <ele>99.5</ele>
        <time>2024-01-25T13:32:53Z</time>
      </trkpt>
      <trkpt lat="48.82737" lon="-1.46329">
        <ele>99.7</ele>
        <time>2024-01-25T13:32:54Z</time>
      </trkpt>
      <trkpt lat="48.82738" lon="-1.46324">
        <ele>99.8</ele>
        <time>2024-01-25T13:32:55Z</time>
      </trkpt>
      <trkpt lat="48.82737" lon="-1.46319">
        <ele>100</ele>
        <time>2024-01-25T13:32:56Z</time>
      </trkpt>
      <trkpt lat="48.82736" lon="-1.46314">
        <ele>100.2</ele>
        <time>2024-01-25T13:32:57Z</time>
      </trkpt>
      <trkpt lat="48.82735" lon="-1.46308">
        <ele>100.3</ele>
        <time>2024-01-25T13:32:58Z</time>
      </trkpt>
      <trkpt lat="48.82735" lon="-1.46302">
        <ele>100.4</ele>
        <time>2024-01-25T13:32:59Z</time>
      </trkpt>
      <trkpt lat="48.82734" lon="-1.46297">
        <ele>100.5</ele>
        <time>2024-01-25T13:33:00Z</time>
      </trkpt>
      <trkpt lat="48.82733" lon="-1.46291">
        <ele>100.7</ele>
        <time>2024-01-25T13:33:02Z</time>
      </trkpt>
      <trkpt lat="48.82731" lon="-1.46281">
        <ele>100.9</ele>
        <time>2024-01-25T13:33:03Z</time>
      </trkpt>
      <trkpt lat="48.8273" lon="-1.46274">
        <ele>101.1</ele>
        <time>2024-01-25T13:33:04Z</time>
      </trkpt>
      <trkpt lat="48.82729" lon="-1.46264">
        <ele>101.3</ele>
        <time>2024-01-25T13:33:06Z</time>
      </trkpt>
      <trkpt lat="48.82728" lon="-1.46258">
        <ele>101.4</ele>
        <time>2024-01-25T13:33:07Z</time>
      </trkpt>
      <trkpt lat="48.82727" lon="-1.46253">
        <ele>101.6</ele>
        <time>2024-01-25T13:33:08Z</time>
      </trkpt>
      <trkpt lat="48.82726" lon="-1.46246">
        <ele>101.7</ele>
        <time>2024-01-25T13:33:09Z</time>
      </trkpt>
      <trkpt lat="48.82725" lon="-1.46241">
        <ele>101.8</ele>
        <time>2024-01-25T13:33:10Z</time>
      </trkpt>
      <trkpt lat="48.82724" lon="-1.46233">
        <ele>102</ele>
        <time>2024-01-25T13:33:11Z</time>
      </trkpt>
      <trkpt lat="48.82723" lon="-1.46227">
        <ele>102.1</ele>
        <time>2024-01-25T13:33:12Z</time>
      </trkpt>
      <trkpt lat="48.82721" lon="-1.46222">
        <ele>102.2</ele>
        <time>2024-01-25T13:33:13Z</time>
      </trkpt>
      <trkpt lat="48.8272" lon="-1.46215">
        <ele>102.4</ele>
        <time>2024-01-25T13:33:14Z</time>
      </trkpt>
      <trkpt lat="48.82718" lon="-1.46209">
        <ele>102.5</ele>
        <time>2024-01-25T13:33:15Z</time>
      </trkpt>
      <trkpt lat="48.82717" lon="-1.46202">
        <ele>102.6</ele>
        <time>2024-01-25T13:33:16Z</time>
      </trkpt>
      <trkpt lat="48.82716" lon="-1.46196">
        <ele>102.8</ele>
        <time>2024-01-25T13:33:17Z</time>
      </trkpt>
      <trkpt lat="48.82714" lon="-1.4619">
        <ele>102.9</ele>
        <time>2024-01-25T13:33:18Z</time>
      </trkpt>
      <trkpt lat="48.82713" lon="-1.46183">
        <ele>103</ele>
        <time>2024-01-25T13:33:19Z</time>
      </trkpt>
      <trkpt lat="48.82712" lon="-1.46176">
        <ele>103.1</ele>
        <time>2024-01-25T13:33:20Z</time>
      </trkpt>
      <trkpt lat="48.8271" lon="-1.46167">
        <ele>103.3</ele>
        <time>2024-01-25T13:33:21Z</time>
      </trkpt>
      <trkpt lat="48.82709" lon="-1.4616">
        <ele>103.4</ele>
        <time>2024-01-25T13:33:22Z</time>
      </trkpt>
      <trkpt lat="48.82708" lon="-1.46154">
        <ele>103.4</ele>
        <time>2024-01-25T13:33:24Z</time>
      </trkpt>
      <trkpt lat="48.82708" lon="-1.46142">
        <ele>103.6</ele>
        <time>2024-01-25T13:33:25Z</time>
      </trkpt>
      <trkpt lat="48.82707" lon="-1.46135">
        <ele>103.7</ele>
        <time>2024-01-25T13:33:26Z</time>
      </trkpt>
      <trkpt lat="48.82705" lon="-1.46128">
        <ele>103.7</ele>
        <time>2024-01-25T13:33:27Z</time>
      </trkpt>
      <trkpt lat="48.82702" lon="-1.46119">
        <ele>103.8</ele>
        <time>2024-01-25T13:33:28Z</time>
      </trkpt>
      <trkpt lat="48.827" lon="-1.46114">
        <ele>103.9</ele>
        <time>2024-01-25T13:33:29Z</time>
      </trkpt>
      <trkpt lat="48.82696" lon="-1.46108">
        <ele>104</ele>
        <time>2024-01-25T13:33:30Z</time>
      </trkpt>
      <trkpt lat="48.82693" lon="-1.46103">
        <ele>104</ele>
        <time>2024-01-25T13:33:31Z</time>
      </trkpt>
      <trkpt lat="48.8269" lon="-1.46098">
        <ele>104.1</ele>
        <time>2024-01-25T13:33:32Z</time>
      </trkpt>
      <trkpt lat="48.82686" lon="-1.46093">
        <ele>104.1</ele>
        <time>2024-01-25T13:33:33Z</time>
      </trkpt>
      <trkpt lat="48.82683" lon="-1.46088">
        <ele>104.2</ele>
        <time>2024-01-25T13:33:34Z</time>
      </trkpt>
      <trkpt lat="48.82679" lon="-1.46084">
        <ele>104.2</ele>
        <time>2024-01-25T13:33:35Z</time>
      </trkpt>
      <trkpt lat="48.82675" lon="-1.46079">
        <ele>104.3</ele>
        <time>2024-01-25T13:33:36Z</time>
      </trkpt>
      <trkpt lat="48.82672" lon="-1.46074">
        <ele>104.4</ele>
        <time>2024-01-25T13:33:37Z</time>
      </trkpt>
      <trkpt lat="48.82667" lon="-1.46068">
        <ele>104.4</ele>
        <time>2024-01-25T13:33:38Z</time>
      </trkpt>
      <trkpt lat="48.82664" lon="-1.46063">
        <ele>104.4</ele>
        <time>2024-01-25T13:33:39Z</time>
      </trkpt>
      <trkpt lat="48.8266" lon="-1.46058">
        <ele>104.5</ele>
        <time>2024-01-25T13:33:40Z</time>
      </trkpt>
      <trkpt lat="48.82656" lon="-1.46052">
        <ele>104.5</ele>
        <time>2024-01-25T13:33:41Z</time>
      </trkpt>
      <trkpt lat="48.82652" lon="-1.46047">
        <ele>104.6</ele>
        <time>2024-01-25T13:33:42Z</time>
      </trkpt>
      <trkpt lat="48.82649" lon="-1.46041">
        <ele>104.6</ele>
        <time>2024-01-25T13:33:43Z</time>
      </trkpt>
      <trkpt lat="48.82647" lon="-1.46036">
        <ele>104.6</ele>
        <time>2024-01-25T13:33:44Z</time>
      </trkpt>
      <trkpt lat="48.82644" lon="-1.4603">
        <ele>104.7</ele>
        <time>2024-01-25T13:33:45Z</time>
      </trkpt>
      <trkpt lat="48.82641" lon="-1.46025">
        <ele>104.7</ele>
        <time>2024-01-25T13:33:46Z</time>
      </trkpt>
      <trkpt lat="48.82638" lon="-1.4602">
        <ele>104.8</ele>
        <time>2024-01-25T13:33:47Z</time>
      </trkpt>
      <trkpt lat="48.82635" lon="-1.46014">
        <ele>104.8</ele>
        <time>2024-01-25T13:33:48Z</time>
      </trkpt>
      <trkpt lat="48.82632" lon="-1.46008">
        <ele>104.8</ele>
        <time>2024-01-25T13:33:49Z</time>
      </trkpt>
      <trkpt lat="48.8263" lon="-1.46002">
        <ele>104.9</ele>
        <time>2024-01-25T13:33:50Z</time>
      </trkpt>
      <trkpt lat="48.82627" lon="-1.45996">
        <ele>104.9</ele>
        <time>2024-01-25T13:33:51Z</time>
      </trkpt>
      <trkpt lat="48.82625" lon="-1.4599">
        <ele>105</ele>
        <time>2024-01-25T13:33:52Z</time>
      </trkpt>
      <trkpt lat="48.82622" lon="-1.45983">
        <ele>105.1</ele>
        <time>2024-01-25T13:33:53Z</time>
      </trkpt>
      <trkpt lat="48.82619" lon="-1.45977">
        <ele>105.1</ele>
        <time>2024-01-25T13:33:54Z</time>
      </trkpt>
      <trkpt lat="48.82616" lon="-1.45971">
        <ele>105.2</ele>
        <time>2024-01-25T13:33:55Z</time>
      </trkpt>
      <trkpt lat="48.82614" lon="-1.45965">
        <ele>105.2</ele>
        <time>2024-01-25T13:33:56Z</time>
      </trkpt>
      <trkpt lat="48.82611" lon="-1.4596">
        <ele>105.3</ele>
        <time>2024-01-25T13:33:57Z</time>
      </trkpt>
      <trkpt lat="48.82608" lon="-1.45954">
        <ele>105.4</ele>
        <time>2024-01-25T13:33:58Z</time>
      </trkpt>
      <trkpt lat="48.82605" lon="-1.45949">
        <ele>105.5</ele>
        <time>2024-01-25T13:33:59Z</time>
      </trkpt>
      <trkpt lat="48.82602" lon="-1.45943">
        <ele>105.5</ele>
        <time>2024-01-25T13:34:00Z</time>
      </trkpt>
      <trkpt lat="48.82599" lon="-1.45938">
        <ele>105.6</ele>
        <time>2024-01-25T13:34:01Z</time>
      </trkpt>
      <trkpt lat="48.82597" lon="-1.45932">
        <ele>105.7</ele>
        <time>2024-01-25T13:34:02Z</time>
      </trkpt>
      <trkpt lat="48.82594" lon="-1.45926">
        <ele>105.8</ele>
        <time>2024-01-25T13:34:03Z</time>
      </trkpt>
      <trkpt lat="48.82591" lon="-1.45921">
        <ele>105.9</ele>
        <time>2024-01-25T13:34:04Z</time>
      </trkpt>
      <trkpt lat="48.82589" lon="-1.45916">
        <ele>105.9</ele>
        <time>2024-01-25T13:34:05Z</time>
      </trkpt>
      <trkpt lat="48.82586" lon="-1.45912">
        <ele>106</ele>
        <time>2024-01-25T13:34:06Z</time>
      </trkpt>
      <trkpt lat="48.82583" lon="-1.45905">
        <ele>106.1</ele>
        <time>2024-01-25T13:34:07Z</time>
      </trkpt>
      <trkpt lat="48.82581" lon="-1.45901">
        <ele>106.2</ele>
        <time>2024-01-25T13:34:08Z</time>
      </trkpt>
      <trkpt lat="48.82579" lon="-1.45896">
        <ele>106.3</ele>
        <time>2024-01-25T13:34:10Z</time>
      </trkpt>
      <trkpt lat="48.82576" lon="-1.45889">
        <ele>106.4</ele>
        <time>2024-01-25T13:34:11Z</time>
      </trkpt>
      <trkpt lat="48.82574" lon="-1.4588">
        <ele>106.5</ele>
        <time>2024-01-25T13:34:12Z</time>
      </trkpt>
      <trkpt lat="48.82572" lon="-1.45874">
        <ele>106.6</ele>
        <time>2024-01-25T13:34:13Z</time>
      </trkpt>
      <trkpt lat="48.82571" lon="-1.45867">
        <ele>106.7</ele>
        <time>2024-01-25T13:34:14Z</time>
      </trkpt>
      <trkpt lat="48.82569" lon="-1.45859">
        <ele>106.8</ele>
        <time>2024-01-25T13:34:15Z</time>
      </trkpt>
      <trkpt lat="48.82567" lon="-1.45852">
        <ele>106.9</ele>
        <time>2024-01-25T13:34:16Z</time>
      </trkpt>
      <trkpt lat="48.82566" lon="-1.45846">
        <ele>107</ele>
        <time>2024-01-25T13:34:17Z</time>
      </trkpt>
      <trkpt lat="48.82564" lon="-1.45838">
        <ele>107.1</ele>
        <time>2024-01-25T13:34:19Z</time>
      </trkpt>
      <trkpt lat="48.82563" lon="-1.45829">
        <ele>107.2</ele>
        <time>2024-01-25T13:34:20Z</time>
      </trkpt>
      <trkpt lat="48.82561" lon="-1.45822">
        <ele>107.2</ele>
        <time>2024-01-25T13:34:21Z</time>
      </trkpt>
      <trkpt lat="48.82559" lon="-1.45815">
        <ele>107.3</ele>
        <time>2024-01-25T13:34:22Z</time>
      </trkpt>
      <trkpt lat="48.82558" lon="-1.45806">
        <ele>107.4</ele>
        <time>2024-01-25T13:34:23Z</time>
      </trkpt>
      <trkpt lat="48.82557" lon="-1.458">
        <ele>107.5</ele>
        <time>2024-01-25T13:34:24Z</time>
      </trkpt>
      <trkpt lat="48.82555" lon="-1.45793">
        <ele>107.6</ele>
        <time>2024-01-25T13:34:26Z</time>
      </trkpt>
      <trkpt lat="48.82554" lon="-1.45787">
        <ele>107.6</ele>
        <time>2024-01-25T13:34:27Z</time>
      </trkpt>
      <trkpt lat="48.82552" lon="-1.45777">
        <ele>107.8</ele>
        <time>2024-01-25T13:34:28Z</time>
      </trkpt>
      <trkpt lat="48.82551" lon="-1.4577">
        <ele>107.8</ele>
        <time>2024-01-25T13:34:29Z</time>
      </trkpt>
      <trkpt lat="48.82549" lon="-1.45764">
        <ele>107.9</ele>
        <time>2024-01-25T13:34:30Z</time>
      </trkpt>
      <trkpt lat="48.82548" lon="-1.45758">
        <ele>108</ele>
        <time>2024-01-25T13:34:31Z</time>
      </trkpt>
      <trkpt lat="48.82546" lon="-1.45752">
        <ele>108</ele>
        <time>2024-01-25T13:34:32Z</time>
      </trkpt>
      <trkpt lat="48.82545" lon="-1.45746">
        <ele>108.1</ele>
        <time>2024-01-25T13:34:33Z</time>
      </trkpt>
      <trkpt lat="48.82544" lon="-1.45739">
        <ele>108.1</ele>
        <time>2024-01-25T13:34:34Z</time>
      </trkpt>
      <trkpt lat="48.82543" lon="-1.45733">
        <ele>108.2</ele>
        <time>2024-01-25T13:34:35Z</time>
      </trkpt>
      <trkpt lat="48.82541" lon="-1.45726">
        <ele>108.2</ele>
        <time>2024-01-25T13:34:36Z</time>
      </trkpt>
      <trkpt lat="48.8254" lon="-1.45721">
        <ele>108.2</ele>
        <time>2024-01-25T13:34:37Z</time>
      </trkpt>
      <trkpt lat="48.82539" lon="-1.45714">
        <ele>108.2</ele>
        <time>2024-01-25T13:34:38Z</time>
      </trkpt>
      <trkpt lat="48.82537" lon="-1.45706">
        <ele>108.2</ele>
        <time>2024-01-25T13:34:39Z</time>
      </trkpt>
      <trkpt lat="48.82535" lon="-1.45699">
        <ele>108.2</ele>
        <time>2024-01-25T13:34:40Z</time>
      </trkpt>
      <trkpt lat="48.82533" lon="-1.45692">
        <ele>108.1</ele>
        <time>2024-01-25T13:34:41Z</time>
      </trkpt>
      <trkpt lat="48.82531" lon="-1.45685">
        <ele>108.1</ele>
        <time>2024-01-25T13:34:42Z</time>
      </trkpt>
      <trkpt lat="48.82529" lon="-1.45678">
        <ele>108.1</ele>
        <time>2024-01-25T13:34:43Z</time>
      </trkpt>
      <trkpt lat="48.82528" lon="-1.45672">
        <ele>108</ele>
        <time>2024-01-25T13:34:44Z</time>
      </trkpt>
      <trkpt lat="48.82526" lon="-1.45665">
        <ele>107.9</ele>
        <time>2024-01-25T13:34:45Z</time>
      </trkpt>
      <trkpt lat="48.82524" lon="-1.45657">
        <ele>107.8</ele>
        <time>2024-01-25T13:34:46Z</time>
      </trkpt>
      <trkpt lat="48.82522" lon="-1.4565">
        <ele>107.8</ele>
        <time>2024-01-25T13:34:47Z</time>
      </trkpt>
      <trkpt lat="48.8252" lon="-1.45643">
        <ele>107.7</ele>
        <time>2024-01-25T13:34:48Z</time>
      </trkpt>
      <trkpt lat="48.82518" lon="-1.45635">
        <ele>107.7</ele>
        <time>2024-01-25T13:34:49Z</time>
      </trkpt>
      <trkpt lat="48.82516" lon="-1.45628">
        <ele>107.6</ele>
        <time>2024-01-25T13:34:50Z</time>
      </trkpt>
      <trkpt lat="48.82514" lon="-1.4562">
        <ele>107.5</ele>
        <time>2024-01-25T13:34:51Z</time>
      </trkpt>
      <trkpt lat="48.82512" lon="-1.45612">
        <ele>107.5</ele>
        <time>2024-01-25T13:34:52Z</time>
      </trkpt>
      <trkpt lat="48.82509" lon="-1.45604">
        <ele>107.4</ele>
        <time>2024-01-25T13:34:53Z</time>
      </trkpt>
      <trkpt lat="48.82507" lon="-1.45596">
        <ele>107.3</ele>
        <time>2024-01-25T13:34:54Z</time>
      </trkpt>
      <trkpt lat="48.82505" lon="-1.45587">
        <ele>107.1</ele>
        <time>2024-01-25T13:34:55Z</time>
      </trkpt>
      <trkpt lat="48.82503" lon="-1.45579">
        <ele>107</ele>
        <time>2024-01-25T13:34:56Z</time>
      </trkpt>
      <trkpt lat="48.82501" lon="-1.45571">
        <ele>106.9</ele>
        <time>2024-01-25T13:34:57Z</time>
      </trkpt>
      <trkpt lat="48.82499" lon="-1.45562">
        <ele>106.7</ele>
        <time>2024-01-25T13:34:58Z</time>
      </trkpt>
      <trkpt lat="48.82497" lon="-1.45552">
        <ele>106.5</ele>
        <time>2024-01-25T13:34:59Z</time>
      </trkpt>
      <trkpt lat="48.82496" lon="-1.45543">
        <ele>106.4</ele>
        <time>2024-01-25T13:35:00Z</time>
      </trkpt>
      <trkpt lat="48.82495" lon="-1.45534">
        <ele>106.2</ele>
        <time>2024-01-25T13:35:01Z</time>
      </trkpt>
      <trkpt lat="48.82494" lon="-1.45524">
        <ele>106.1</ele>
        <time>2024-01-25T13:35:02Z</time>
      </trkpt>
      <trkpt lat="48.82493" lon="-1.45514">
        <ele>105.9</ele>
        <time>2024-01-25T13:35:03Z</time>
      </trkpt>
      <trkpt lat="48.82493" lon="-1.45503">
        <ele>105.8</ele>
        <time>2024-01-25T13:35:04Z</time>
      </trkpt>
      <trkpt lat="48.82492" lon="-1.45493">
        <ele>105.7</ele>
        <time>2024-01-25T13:35:05Z</time>
      </trkpt>
      <trkpt lat="48.82492" lon="-1.45483">
        <ele>105.5</ele>
        <time>2024-01-25T13:35:06Z</time>
      </trkpt>
      <trkpt lat="48.82491" lon="-1.45473">
        <ele>105.4</ele>
        <time>2024-01-25T13:35:07Z</time>
      </trkpt>
      <trkpt lat="48.82491" lon="-1.45462">
        <ele>105.2</ele>
        <time>2024-01-25T13:35:08Z</time>
      </trkpt>
      <trkpt lat="48.8249" lon="-1.45451">
        <ele>105.1</ele>
        <time>2024-01-25T13:35:09Z</time>
      </trkpt>
      <trkpt lat="48.8249" lon="-1.45441">
        <ele>105</ele>
        <time>2024-01-25T13:35:10Z</time>
      </trkpt>
      <trkpt lat="48.82489" lon="-1.45431">
        <ele>104.9</ele>
        <time>2024-01-25T13:35:11Z</time>
      </trkpt>
      <trkpt lat="48.82489" lon="-1.45421">
        <ele>104.9</ele>
        <time>2024-01-25T13:35:12Z</time>
      </trkpt>
      <trkpt lat="48.82488" lon="-1.45411">
        <ele>104.8</ele>
        <time>2024-01-25T13:35:13Z</time>
      </trkpt>
      <trkpt lat="48.82487" lon="-1.45401">
        <ele>104.7</ele>
        <time>2024-01-25T13:35:14Z</time>
      </trkpt>
      <trkpt lat="48.82487" lon="-1.45391">
        <ele>104.7</ele>
        <time>2024-01-25T13:35:15Z</time>
      </trkpt>
      <trkpt lat="48.82486" lon="-1.45382">
        <ele>104.7</ele>
        <time>2024-01-25T13:35:16Z</time>
      </trkpt>
      <trkpt lat="48.82485" lon="-1.45371">
        <ele>104.7</ele>
        <time>2024-01-25T13:35:17Z</time>
      </trkpt>
      <trkpt lat="48.82483" lon="-1.45361">
        <ele>104.8</ele>
        <time>2024-01-25T13:35:18Z</time>
      </trkpt>
      <trkpt lat="48.82481" lon="-1.45352">
        <ele>104.8</ele>
        <time>2024-01-25T13:35:19Z</time>
      </trkpt>
      <trkpt lat="48.8248" lon="-1.45342">
        <ele>104.8</ele>
        <time>2024-01-25T13:35:20Z</time>
      </trkpt>
      <trkpt lat="48.82478" lon="-1.45333">
        <ele>104.9</ele>
        <time>2024-01-25T13:35:21Z</time>
      </trkpt>
      <trkpt lat="48.82476" lon="-1.45324">
        <ele>104.9</ele>
        <time>2024-01-25T13:35:22Z</time>
      </trkpt>
      <trkpt lat="48.82475" lon="-1.45315">
        <ele>105</ele>
        <time>2024-01-25T13:35:23Z</time>
      </trkpt>
      <trkpt lat="48.82473" lon="-1.45305">
        <ele>105</ele>
        <time>2024-01-25T13:35:24Z</time>
      </trkpt>
      <trkpt lat="48.82471" lon="-1.45297">
        <ele>105.1</ele>
        <time>2024-01-25T13:35:25Z</time>
      </trkpt>
      <trkpt lat="48.8247" lon="-1.45287">
        <ele>105.2</ele>
        <time>2024-01-25T13:35:26Z</time>
      </trkpt>
      <trkpt lat="48.82468" lon="-1.45278">
        <ele>105.3</ele>
        <time>2024-01-25T13:35:27Z</time>
      </trkpt>
      <trkpt lat="48.82466" lon="-1.4527">
        <ele>105.3</ele>
        <time>2024-01-25T13:35:28Z</time>
      </trkpt>
      <trkpt lat="48.82465" lon="-1.45261">
        <ele>105.4</ele>
        <time>2024-01-25T13:35:29Z</time>
      </trkpt>
      <trkpt lat="48.82463" lon="-1.45252">
        <ele>105.5</ele>
        <time>2024-01-25T13:35:30Z</time>
      </trkpt>
      <trkpt lat="48.82461" lon="-1.45243">
        <ele>105.6</ele>
        <time>2024-01-25T13:35:31Z</time>
      </trkpt>
      <trkpt lat="48.8246" lon="-1.45235">
        <ele>105.7</ele>
        <time>2024-01-25T13:35:32Z</time>
      </trkpt>
      <trkpt lat="48.82458" lon="-1.45226">
        <ele>105.7</ele>
        <time>2024-01-25T13:35:33Z</time>
      </trkpt>
      <trkpt lat="48.82456" lon="-1.45217">
        <ele>105.8</ele>
        <time>2024-01-25T13:35:34Z</time>
      </trkpt>
      <trkpt lat="48.82453" lon="-1.45208">
        <ele>105.9</ele>
        <time>2024-01-25T13:35:35Z</time>
      </trkpt>
      <trkpt lat="48.82451" lon="-1.45199">
        <ele>105.9</ele>
        <time>2024-01-25T13:35:36Z</time>
      </trkpt>
      <trkpt lat="48.82449" lon="-1.45189">
        <ele>106</ele>
        <time>2024-01-25T13:35:37Z</time>
      </trkpt>
      <trkpt lat="48.82447" lon="-1.4518">
        <ele>106.1</ele>
        <time>2024-01-25T13:35:38Z</time>
      </trkpt>
      <trkpt lat="48.82446" lon="-1.45171">
        <ele>106.1</ele>
        <time>2024-01-25T13:35:39Z</time>
      </trkpt>
      <trkpt lat="48.82444" lon="-1.45162">
        <ele>106.2</ele>
        <time>2024-01-25T13:35:40Z</time>
      </trkpt>
      <trkpt lat="48.82442" lon="-1.45153">
        <ele>106.2</ele>
        <time>2024-01-25T13:35:41Z</time>
      </trkpt>
      <trkpt lat="48.8244" lon="-1.45144">
        <ele>106.3</ele>
        <time>2024-01-25T13:35:42Z</time>
      </trkpt>
      <trkpt lat="48.82439" lon="-1.45135">
        <ele>106.4</ele>
        <time>2024-01-25T13:35:43Z</time>
      </trkpt>
      <trkpt lat="48.82439" lon="-1.45125">
        <ele>106.5</ele>
        <time>2024-01-25T13:35:44Z</time>
      </trkpt>
      <trkpt lat="48.82439" lon="-1.45116">
        <ele>106.5</ele>
        <time>2024-01-25T13:35:45Z</time>
      </trkpt>
      <trkpt lat="48.82439" lon="-1.45107">
        <ele>106.6</ele>
        <time>2024-01-25T13:35:46Z</time>
      </trkpt>
      <trkpt lat="48.82439" lon="-1.45097">
        <ele>106.6</ele>
        <time>2024-01-25T13:35:47Z</time>
      </trkpt>
      <trkpt lat="48.82438" lon="-1.45088">
        <ele>106.7</ele>
        <time>2024-01-25T13:35:48Z</time>
      </trkpt>
      <trkpt lat="48.82438" lon="-1.45079">
        <ele>106.8</ele>
        <time>2024-01-25T13:35:49Z</time>
      </trkpt>
      <trkpt lat="48.82439" lon="-1.4507">
        <ele>106.8</ele>
        <time>2024-01-25T13:35:50Z</time>
      </trkpt>
      <trkpt lat="48.82439" lon="-1.4506">
        <ele>106.9</ele>
        <time>2024-01-25T13:35:51Z</time>
      </trkpt>
      <trkpt lat="48.82439" lon="-1.45051">
        <ele>106.9</ele>
        <time>2024-01-25T13:35:52Z</time>
      </trkpt>
      <trkpt lat="48.82439" lon="-1.45041">
        <ele>107</ele>
        <time>2024-01-25T13:35:53Z</time>
      </trkpt>
      <trkpt lat="48.82438" lon="-1.45032">
        <ele>107.1</ele>
        <time>2024-01-25T13:35:54Z</time>
      </trkpt>
      <trkpt lat="48.82437" lon="-1.45023">
        <ele>107.1</ele>
        <time>2024-01-25T13:35:55Z</time>
      </trkpt>
      <trkpt lat="48.82436" lon="-1.45014">
        <ele>107.2</ele>
        <time>2024-01-25T13:35:56Z</time>
      </trkpt>
      <trkpt lat="48.82434" lon="-1.45005">
        <ele>107.2</ele>
        <time>2024-01-25T13:35:57Z</time>
      </trkpt>
      <trkpt lat="48.82433" lon="-1.44997">
        <ele>107.3</ele>
        <time>2024-01-25T13:35:58Z</time>
      </trkpt>
      <trkpt lat="48.82431" lon="-1.44989">
        <ele>107.3</ele>
        <time>2024-01-25T13:35:59Z</time>
      </trkpt>
      <trkpt lat="48.82429" lon="-1.4498">
        <ele>107.4</ele>
        <time>2024-01-25T13:36:00Z</time>
      </trkpt>
      <trkpt lat="48.82428" lon="-1.44972">
        <ele>107.5</ele>
        <time>2024-01-25T13:36:01Z</time>
      </trkpt>
      <trkpt lat="48.82426" lon="-1.44963">
        <ele>107.5</ele>
        <time>2024-01-25T13:36:02Z</time>
      </trkpt>
      <trkpt lat="48.82425" lon="-1.44955">
        <ele>107.6</ele>
        <time>2024-01-25T13:36:03Z</time>
      </trkpt>
      <trkpt lat="48.82423" lon="-1.44947">
        <ele>107.6</ele>
        <time>2024-01-25T13:36:04Z</time>
      </trkpt>
      <trkpt lat="48.82421" lon="-1.44938">
        <ele>107.7</ele>
        <time>2024-01-25T13:36:05Z</time>
      </trkpt>
      <trkpt lat="48.8242" lon="-1.4493">
        <ele>107.8</ele>
        <time>2024-01-25T13:36:06Z</time>
      </trkpt>
      <trkpt lat="48.82418" lon="-1.44921">
        <ele>107.9</ele>
        <time>2024-01-25T13:36:07Z</time>
      </trkpt>
      <trkpt lat="48.82416" lon="-1.44913">
        <ele>107.9</ele>
        <time>2024-01-25T13:36:08Z</time>
      </trkpt>
      <trkpt lat="48.82414" lon="-1.44905">
        <ele>108</ele>
        <time>2024-01-25T13:36:09Z</time>
      </trkpt>
      <trkpt lat="48.82413" lon="-1.44897">
        <ele>108.2</ele>
        <time>2024-01-25T13:36:10Z</time>
      </trkpt>
      <trkpt lat="48.82411" lon="-1.44888">
        <ele>108.3</ele>
        <time>2024-01-25T13:36:11Z</time>
      </trkpt>
      <trkpt lat="48.82409" lon="-1.4488">
        <ele>108.4</ele>
        <time>2024-01-25T13:36:12Z</time>
      </trkpt>
      <trkpt lat="48.82408" lon="-1.44872">
        <ele>108.5</ele>
        <time>2024-01-25T13:36:13Z</time>
      </trkpt>
      <trkpt lat="48.82406" lon="-1.44864">
        <ele>108.7</ele>
        <time>2024-01-25T13:36:14Z</time>
      </trkpt>
      <trkpt lat="48.82404" lon="-1.44856">
        <ele>108.8</ele>
        <time>2024-01-25T13:36:15Z</time>
      </trkpt>
      <trkpt lat="48.82403" lon="-1.44848">
        <ele>108.9</ele>
        <time>2024-01-25T13:36:16Z</time>
      </trkpt>
      <trkpt lat="48.82402" lon="-1.44841">
        <ele>109.1</ele>
        <time>2024-01-25T13:36:17Z</time>
      </trkpt>
      <trkpt lat="48.824" lon="-1.44834">
        <ele>109.2</ele>
        <time>2024-01-25T13:36:18Z</time>
      </trkpt>
      <trkpt lat="48.82399" lon="-1.44826">
        <ele>109.4</ele>
        <time>2024-01-25T13:36:19Z</time>
      </trkpt>
      <trkpt lat="48.82398" lon="-1.44819">
        <ele>109.5</ele>
        <time>2024-01-25T13:36:20Z</time>
      </trkpt>
      <trkpt lat="48.82397" lon="-1.44812">
        <ele>109.7</ele>
        <time>2024-01-25T13:36:21Z</time>
      </trkpt>
      <trkpt lat="48.82397" lon="-1.44805">
        <ele>109.8</ele>
        <time>2024-01-25T13:36:22Z</time>
      </trkpt>
      <trkpt lat="48.82396" lon="-1.44798">
        <ele>109.9</ele>
        <time>2024-01-25T13:36:23Z</time>
      </trkpt>
      <trkpt lat="48.82395" lon="-1.44791">
        <ele>110.1</ele>
        <time>2024-01-25T13:36:24Z</time>
      </trkpt>
      <trkpt lat="48.82394" lon="-1.44784">
        <ele>110.2</ele>
        <time>2024-01-25T13:36:25Z</time>
      </trkpt>
      <trkpt lat="48.82393" lon="-1.44778">
        <ele>110.3</ele>
        <time>2024-01-25T13:36:26Z</time>
      </trkpt>
      <trkpt lat="48.82391" lon="-1.44772">
        <ele>110.4</ele>
        <time>2024-01-25T13:36:27Z</time>
      </trkpt>
      <trkpt lat="48.82388" lon="-1.44765">
        <ele>110.6</ele>
        <time>2024-01-25T13:36:28Z</time>
      </trkpt>
      <trkpt lat="48.82386" lon="-1.44759">
        <ele>110.7</ele>
        <time>2024-01-25T13:36:29Z</time>
      </trkpt>
      <trkpt lat="48.82383" lon="-1.44754">
        <ele>110.8</ele>
        <time>2024-01-25T13:36:30Z</time>
      </trkpt>
      <trkpt lat="48.8238" lon="-1.44749">
        <ele>110.9</ele>
        <time>2024-01-25T13:36:31Z</time>
      </trkpt>
      <trkpt lat="48.82376" lon="-1.44741">
        <ele>111.1</ele>
        <time>2024-01-25T13:36:33Z</time>
      </trkpt>
      <trkpt lat="48.82374" lon="-1.44737">
        <ele>111.2</ele>
        <time>2024-01-25T13:36:34Z</time>
      </trkpt>
      <trkpt lat="48.82371" lon="-1.44732">
        <ele>111.3</ele>
        <time>2024-01-25T13:36:35Z</time>
      </trkpt>
      <trkpt lat="48.82368" lon="-1.44725">
        <ele>111.4</ele>
        <time>2024-01-25T13:36:36Z</time>
      </trkpt>
      <trkpt lat="48.82365" lon="-1.4472">
        <ele>111.5</ele>
        <time>2024-01-25T13:36:37Z</time>
      </trkpt>
      <trkpt lat="48.82362" lon="-1.44715">
        <ele>111.6</ele>
        <time>2024-01-25T13:36:38Z</time>
      </trkpt>
      <trkpt lat="48.82358" lon="-1.44709">
        <ele>111.8</ele>
        <time>2024-01-25T13:36:39Z</time>
      </trkpt>
      <trkpt lat="48.82353" lon="-1.447">
        <ele>111.9</ele>
        <time>2024-01-25T13:36:40Z</time>
      </trkpt>
      <trkpt lat="48.8235" lon="-1.44694">
        <ele>112.1</ele>
        <time>2024-01-25T13:36:41Z</time>
      </trkpt>
      <trkpt lat="48.82347" lon="-1.4469">
        <ele>112.2</ele>
        <time>2024-01-25T13:36:43Z</time>
      </trkpt>
      <trkpt lat="48.82344" lon="-1.44683">
        <ele>112.3</ele>
        <time>2024-01-25T13:36:44Z</time>
      </trkpt>
      <trkpt lat="48.82341" lon="-1.44676">
        <ele>112.4</ele>
        <time>2024-01-25T13:36:45Z</time>
      </trkpt>
      <trkpt lat="48.82338" lon="-1.44671">
        <ele>112.5</ele>
        <time>2024-01-25T13:36:46Z</time>
      </trkpt>
      <trkpt lat="48.82336" lon="-1.44666">
        <ele>112.6</ele>
        <time>2024-01-25T13:36:47Z</time>
      </trkpt>
      <trkpt lat="48.82333" lon="-1.44661">
        <ele>112.7</ele>
        <time>2024-01-25T13:36:48Z</time>
      </trkpt>
      <trkpt lat="48.8233" lon="-1.44657">
        <ele>112.8</ele>
        <time>2024-01-25T13:36:49Z</time>
      </trkpt>
      <trkpt lat="48.82328" lon="-1.44652">
        <ele>112.9</ele>
        <time>2024-01-25T13:36:50Z</time>
      </trkpt>
      <trkpt lat="48.82325" lon="-1.44647">
        <ele>113</ele>
        <time>2024-01-25T13:36:51Z</time>
      </trkpt>
      <trkpt lat="48.82323" lon="-1.44643">
        <ele>113.1</ele>
        <time>2024-01-25T13:36:52Z</time>
      </trkpt>
      <trkpt lat="48.8232" lon="-1.44637">
        <ele>113.1</ele>
        <time>2024-01-25T13:36:53Z</time>
      </trkpt>
      <trkpt lat="48.82318" lon="-1.44633">
        <ele>113.2</ele>
        <time>2024-01-25T13:36:54Z</time>
      </trkpt>
      <trkpt lat="48.82316" lon="-1.44628">
        <ele>113.3</ele>
        <time>2024-01-25T13:36:55Z</time>
      </trkpt>
      <trkpt lat="48.82313" lon="-1.44622">
        <ele>113.4</ele>
        <time>2024-01-25T13:36:56Z</time>
      </trkpt>
      <trkpt lat="48.82311" lon="-1.44618">
        <ele>113.5</ele>
        <time>2024-01-25T13:36:57Z</time>
      </trkpt>
      <trkpt lat="48.82308" lon="-1.44612">
        <ele>113.6</ele>
        <time>2024-01-25T13:36:58Z</time>
      </trkpt>
      <trkpt lat="48.82306" lon="-1.44608">
        <ele>113.6</ele>
        <time>2024-01-25T13:36:59Z</time>
      </trkpt>
      <trkpt lat="48.82304" lon="-1.44603">
        <ele>113.7</ele>
        <time>2024-01-25T13:37:00Z</time>
      </trkpt>
      <trkpt lat="48.82302" lon="-1.44599">
        <ele>113.8</ele>
        <time>2024-01-25T13:37:01Z</time>
      </trkpt>
      <trkpt lat="48.823" lon="-1.44594">
        <ele>113.9</ele>
        <time>2024-01-25T13:37:02Z</time>
      </trkpt>
      <trkpt lat="48.82297" lon="-1.44588">
        <ele>114</ele>
        <time>2024-01-25T13:37:03Z</time>
      </trkpt>
      <trkpt lat="48.82295" lon="-1.44583">
        <ele>114.1</ele>
        <time>2024-01-25T13:37:04Z</time>
      </trkpt>
      <trkpt lat="48.82293" lon="-1.44579">
        <ele>114.2</ele>
        <time>2024-01-25T13:37:05Z</time>
      </trkpt>
      <trkpt lat="48.8229" lon="-1.44574">
        <ele>114.3</ele>
        <time>2024-01-25T13:37:06Z</time>
      </trkpt>
      <trkpt lat="48.82287" lon="-1.44568">
        <ele>114.4</ele>
        <time>2024-01-25T13:37:07Z</time>
      </trkpt>
      <trkpt lat="48.82285" lon="-1.44562">
        <ele>114.5</ele>
        <time>2024-01-25T13:37:08Z</time>
      </trkpt>
      <trkpt lat="48.82283" lon="-1.44557">
        <ele>114.6</ele>
        <time>2024-01-25T13:37:09Z</time>
      </trkpt>
      <trkpt lat="48.8228" lon="-1.44551">
        <ele>114.7</ele>
        <time>2024-01-25T13:37:10Z</time>
      </trkpt>
      <trkpt lat="48.82277" lon="-1.44545">
        <ele>114.8</ele>
        <time>2024-01-25T13:37:11Z</time>
      </trkpt>
      <trkpt lat="48.82275" lon="-1.4454">
        <ele>114.9</ele>
        <time>2024-01-25T13:37:12Z</time>
      </trkpt>
      <trkpt lat="48.82273" lon="-1.44535">
        <ele>115</ele>
        <time>2024-01-25T13:37:13Z</time>
      </trkpt>
      <trkpt lat="48.8227" lon="-1.44531">
        <ele>115.1</ele>
        <time>2024-01-25T13:37:14Z</time>
      </trkpt>
      <trkpt lat="48.82269" lon="-1.44527">
        <ele>115.2</ele>
        <time>2024-01-25T13:37:15Z</time>
      </trkpt>
      <trkpt lat="48.82266" lon="-1.44522">
        <ele>115.3</ele>
        <time>2024-01-25T13:37:16Z</time>
      </trkpt>
      <trkpt lat="48.82264" lon="-1.44517">
        <ele>115.4</ele>
        <time>2024-01-25T13:37:17Z</time>
      </trkpt>
      <trkpt lat="48.82262" lon="-1.44511">
        <ele>115.5</ele>
        <time>2024-01-25T13:37:18Z</time>
      </trkpt>
      <trkpt lat="48.82261" lon="-1.44509">
        <ele>115.5</ele>
        <time>2024-01-25T13:37:19Z</time>
      </trkpt>
      <trkpt lat="48.82259" lon="-1.44505">
        <ele>115.6</ele>
        <time>2024-01-25T13:37:20Z</time>
      </trkpt>
      <trkpt lat="48.82256" lon="-1.44499">
        <ele>115.7</ele>
        <time>2024-01-25T13:37:21Z</time>
      </trkpt>
      <trkpt lat="48.82254" lon="-1.44494">
        <ele>115.8</ele>
        <time>2024-01-25T13:37:22Z</time>
      </trkpt>
      <trkpt lat="48.82253" lon="-1.44489">
        <ele>116</ele>
        <time>2024-01-25T13:37:23Z</time>
      </trkpt>
      <trkpt lat="48.82253" lon="-1.44483">
        <ele>116.1</ele>
        <time>2024-01-25T13:37:24Z</time>
      </trkpt>
      <trkpt lat="48.82254" lon="-1.44479">
        <ele>116.3</ele>
        <time>2024-01-25T13:37:25Z</time>
      </trkpt>
      <trkpt lat="48.82258" lon="-1.44476">
        <ele>116.4</ele>
        <time>2024-01-25T13:37:26Z</time>
      </trkpt>
      <trkpt lat="48.82261" lon="-1.44473">
        <ele>116.5</ele>
        <time>2024-01-25T13:37:27Z</time>
      </trkpt>
      <trkpt lat="48.82266" lon="-1.44472">
        <ele>116.6</ele>
        <time>2024-01-25T13:37:28Z</time>
      </trkpt>
      <trkpt lat="48.8227" lon="-1.44471">
        <ele>116.7</ele>
        <time>2024-01-25T13:37:29Z</time>
      </trkpt>
      <trkpt lat="48.82273" lon="-1.4447">
        <ele>116.7</ele>
        <time>2024-01-25T13:37:30Z</time>
      </trkpt>
      <trkpt lat="48.82276" lon="-1.4447">
        <ele>116.7</ele>
        <time>2024-01-25T13:37:31Z</time>
      </trkpt>
      <trkpt lat="48.8228" lon="-1.44469">
        <ele>116.6</ele>
        <time>2024-01-25T13:37:32Z</time>
      </trkpt>
      <trkpt lat="48.82283" lon="-1.44467">
        <ele>116.6</ele>
        <time>2024-01-25T13:37:33Z</time>
      </trkpt>
      <trkpt lat="48.82287" lon="-1.44465">
        <ele>116.5</ele>
        <time>2024-01-25T13:37:34Z</time>
      </trkpt>
      <trkpt lat="48.82291" lon="-1.44462">
        <ele>116.4</ele>
        <time>2024-01-25T13:37:35Z</time>
      </trkpt>
      <trkpt lat="48.82295" lon="-1.44459">
        <ele>116.2</ele>
        <time>2024-01-25T13:37:36Z</time>
      </trkpt>
      <trkpt lat="48.82299" lon="-1.44455">
        <ele>116.1</ele>
        <time>2024-01-25T13:37:37Z</time>
      </trkpt>
      <trkpt lat="48.82304" lon="-1.44451">
        <ele>115.9</ele>
        <time>2024-01-25T13:37:38Z</time>
      </trkpt>
      <trkpt lat="48.82309" lon="-1.44447">
        <ele>115.7</ele>
        <time>2024-01-25T13:37:39Z</time>
      </trkpt>
      <trkpt lat="48.82314" lon="-1.44442">
        <ele>115.4</ele>
        <time>2024-01-25T13:37:40Z</time>
      </trkpt>
      <trkpt lat="48.82319" lon="-1.44438">
        <ele>115.2</ele>
        <time>2024-01-25T13:37:41Z</time>
      </trkpt>
      <trkpt lat="48.82325" lon="-1.44433">
        <ele>115</ele>
        <time>2024-01-25T13:37:42Z</time>
      </trkpt>
      <trkpt lat="48.8233" lon="-1.44429">
        <ele>114.7</ele>
        <time>2024-01-25T13:37:43Z</time>
      </trkpt>
      <trkpt lat="48.82336" lon="-1.44425">
        <ele>114.4</ele>
        <time>2024-01-25T13:37:44Z</time>
      </trkpt>
      <trkpt lat="48.82342" lon="-1.44421">
        <ele>114.1</ele>
        <time>2024-01-25T13:37:45Z</time>
      </trkpt>
      <trkpt lat="48.82347" lon="-1.44415">
        <ele>113.7</ele>
        <time>2024-01-25T13:37:46Z</time>
      </trkpt>
      <trkpt lat="48.82353" lon="-1.44408">
        <ele>113.3</ele>
        <time>2024-01-25T13:37:47Z</time>
      </trkpt>
      <trkpt lat="48.82359" lon="-1.444">
        <ele>112.9</ele>
        <time>2024-01-25T13:37:48Z</time>
      </trkpt>
      <trkpt lat="48.82364" lon="-1.44391">
        <ele>112.6</ele>
        <time>2024-01-25T13:37:49Z</time>
      </trkpt>
      <trkpt lat="48.82369" lon="-1.44383">
        <ele>112.3</ele>
        <time>2024-01-25T13:37:50Z</time>
      </trkpt>
      <trkpt lat="48.82375" lon="-1.44373">
        <ele>112.1</ele>
        <time>2024-01-25T13:37:51Z</time>
      </trkpt>
      <trkpt lat="48.8238" lon="-1.44362">
        <ele>111.9</ele>
        <time>2024-01-25T13:37:52Z</time>
      </trkpt>
      <trkpt lat="48.82384" lon="-1.44352">
        <ele>111.9</ele>
        <time>2024-01-25T13:37:53Z</time>
      </trkpt>
      <trkpt lat="48.82387" lon="-1.44341">
        <ele>112</ele>
        <time>2024-01-25T13:37:54Z</time>
      </trkpt>
      <trkpt lat="48.8239" lon="-1.4433">
        <ele>112</ele>
        <time>2024-01-25T13:37:55Z</time>
      </trkpt>
      <trkpt lat="48.82393" lon="-1.44319">
        <ele>112.1</ele>
        <time>2024-01-25T13:37:56Z</time>
      </trkpt>
      <trkpt lat="48.82395" lon="-1.4431">
        <ele>112.1</ele>
        <time>2024-01-25T13:37:57Z</time>
      </trkpt>
      <trkpt lat="48.82397" lon="-1.443">
        <ele>112.2</ele>
        <time>2024-01-25T13:37:58Z</time>
      </trkpt>
      <trkpt lat="48.82399" lon="-1.44291">
        <ele>112.2</ele>
        <time>2024-01-25T13:37:59Z</time>
      </trkpt>
      <trkpt lat="48.82401" lon="-1.44281">
        <ele>112.3</ele>
        <time>2024-01-25T13:38:00Z</time>
      </trkpt>
      <trkpt lat="48.82402" lon="-1.44272">
        <ele>112.5</ele>
        <time>2024-01-25T13:38:01Z</time>
      </trkpt>
      <trkpt lat="48.82404" lon="-1.44263">
        <ele>112.6</ele>
        <time>2024-01-25T13:38:02Z</time>
      </trkpt>
      <trkpt lat="48.82406" lon="-1.44255">
        <ele>112.8</ele>
        <time>2024-01-25T13:38:03Z</time>
      </trkpt>
      <trkpt lat="48.82408" lon="-1.44246">
        <ele>112.9</ele>
        <time>2024-01-25T13:38:04Z</time>
      </trkpt>
      <trkpt lat="48.8241" lon="-1.44238">
        <ele>113</ele>
        <time>2024-01-25T13:38:05Z</time>
      </trkpt>
      <trkpt lat="48.82411" lon="-1.4423">
        <ele>113.1</ele>
        <time>2024-01-25T13:38:06Z</time>
      </trkpt>
      <trkpt lat="48.82413" lon="-1.44222">
        <ele>113.2</ele>
        <time>2024-01-25T13:38:07Z</time>
      </trkpt>
      <trkpt lat="48.82415" lon="-1.44214">
        <ele>113.4</ele>
        <time>2024-01-25T13:38:08Z</time>
      </trkpt>
      <trkpt lat="48.82417" lon="-1.44206">
        <ele>113.5</ele>
        <time>2024-01-25T13:38:09Z</time>
      </trkpt>
      <trkpt lat="48.8242" lon="-1.44198">
        <ele>113.7</ele>
        <time>2024-01-25T13:38:10Z</time>
      </trkpt>
      <trkpt lat="48.82422" lon="-1.4419">
        <ele>113.9</ele>
        <time>2024-01-25T13:38:11Z</time>
      </trkpt>
      <trkpt lat="48.82425" lon="-1.44183">
        <ele>114.1</ele>
        <time>2024-01-25T13:38:12Z</time>
      </trkpt>
      <trkpt lat="48.82429" lon="-1.44176">
        <ele>114.3</ele>
        <time>2024-01-25T13:38:13Z</time>
      </trkpt>
      <trkpt lat="48.82432" lon="-1.4417">
        <ele>114.5</ele>
        <time>2024-01-25T13:38:14Z</time>
      </trkpt>
      <trkpt lat="48.82436" lon="-1.44164">
        <ele>114.6</ele>
        <time>2024-01-25T13:38:15Z</time>
      </trkpt>
      <trkpt lat="48.82439" lon="-1.44158">
        <ele>114.8</ele>
        <time>2024-01-25T13:38:16Z</time>
      </trkpt>
      <trkpt lat="48.82443" lon="-1.44152">
        <ele>114.9</ele>
        <time>2024-01-25T13:38:17Z</time>
      </trkpt>
      <trkpt lat="48.82447" lon="-1.44147">
        <ele>115</ele>
        <time>2024-01-25T13:38:18Z</time>
      </trkpt>
      <trkpt lat="48.8245" lon="-1.44142">
        <ele>115.2</ele>
        <time>2024-01-25T13:38:19Z</time>
      </trkpt>
      <trkpt lat="48.82454" lon="-1.44136">
        <ele>115.3</ele>
        <time>2024-01-25T13:38:20Z</time>
      </trkpt>
      <trkpt lat="48.82457" lon="-1.44131">
        <ele>115.5</ele>
        <time>2024-01-25T13:38:21Z</time>
      </trkpt>
      <trkpt lat="48.8246" lon="-1.44125">
        <ele>115.6</ele>
        <time>2024-01-25T13:38:22Z</time>
      </trkpt>
      <trkpt lat="48.82463" lon="-1.44119">
        <ele>115.8</ele>
        <time>2024-01-25T13:38:23Z</time>
      </trkpt>
      <trkpt lat="48.82467" lon="-1.44112">
        <ele>116</ele>
        <time>2024-01-25T13:38:24Z</time>
      </trkpt>
      <trkpt lat="48.8247" lon="-1.44106">
        <ele>116.2</ele>
        <time>2024-01-25T13:38:25Z</time>
      </trkpt>
      <trkpt lat="48.82473" lon="-1.44101">
        <ele>116.3</ele>
        <time>2024-01-25T13:38:26Z</time>
      </trkpt>
      <trkpt lat="48.82476" lon="-1.44095">
        <ele>116.5</ele>
        <time>2024-01-25T13:38:27Z</time>
      </trkpt>
      <trkpt lat="48.82479" lon="-1.44089">
        <ele>116.7</ele>
        <time>2024-01-25T13:38:28Z</time>
      </trkpt>
      <trkpt lat="48.82482" lon="-1.44083">
        <ele>116.9</ele>
        <time>2024-01-25T13:38:29Z</time>
      </trkpt>
      <trkpt lat="48.82485" lon="-1.44078">
        <ele>117.1</ele>
        <time>2024-01-25T13:38:30Z</time>
      </trkpt>
      <trkpt lat="48.82488" lon="-1.44072">
        <ele>117.3</ele>
        <time>2024-01-25T13:38:31Z</time>
      </trkpt>
      <trkpt lat="48.82492" lon="-1.44067">
        <ele>117.5</ele>
        <time>2024-01-25T13:38:32Z</time>
      </trkpt>
      <trkpt lat="48.82495" lon="-1.44062">
        <ele>117.7</ele>
        <time>2024-01-25T13:38:33Z</time>
      </trkpt>
      <trkpt lat="48.82499" lon="-1.44057">
        <ele>117.9</ele>
        <time>2024-01-25T13:38:34Z</time>
      </trkpt>
      <trkpt lat="48.82503" lon="-1.44053">
        <ele>118.1</ele>
        <time>2024-01-25T13:38:35Z</time>
      </trkpt>
      <trkpt lat="48.82506" lon="-1.44048">
        <ele>118.3</ele>
        <time>2024-01-25T13:38:36Z</time>
      </trkpt>
      <trkpt lat="48.82509" lon="-1.44044">
        <ele>118.4</ele>
        <time>2024-01-25T13:38:37Z</time>
      </trkpt>
      <trkpt lat="48.82511" lon="-1.44041">
        <ele>118.5</ele>
        <time>2024-01-25T13:38:38Z</time>
      </trkpt>
      <trkpt lat="48.82513" lon="-1.44038">
        <ele>118.6</ele>
        <time>2024-01-25T13:38:39Z</time>
      </trkpt>
      <trkpt lat="48.82516" lon="-1.44034">
        <ele>118.8</ele>
        <time>2024-01-25T13:38:40Z</time>
      </trkpt>
      <trkpt lat="48.82519" lon="-1.4403">
        <ele>118.9</ele>
        <time>2024-01-25T13:38:41Z</time>
      </trkpt>
      <trkpt lat="48.82522" lon="-1.44025">
        <ele>119.1</ele>
        <time>2024-01-25T13:38:42Z</time>
      </trkpt>
      <trkpt lat="48.82525" lon="-1.4402">
        <ele>119.2</ele>
        <time>2024-01-25T13:38:43Z</time>
      </trkpt>
      <trkpt lat="48.82528" lon="-1.44014">
        <ele>119.3</ele>
        <time>2024-01-25T13:38:44Z</time>
      </trkpt>
      <trkpt lat="48.82531" lon="-1.44009">
        <ele>119.4</ele>
        <time>2024-01-25T13:38:45Z</time>
      </trkpt>
      <trkpt lat="48.82535" lon="-1.44002">
        <ele>119.5</ele>
        <time>2024-01-25T13:38:47Z</time>
      </trkpt>
      <trkpt lat="48.82539" lon="-1.43998">
        <ele>119.6</ele>
        <time>2024-01-25T13:38:48Z</time>
      </trkpt>
      <trkpt lat="48.82542" lon="-1.43993">
        <ele>119.7</ele>
        <time>2024-01-25T13:38:49Z</time>
      </trkpt>
      <trkpt lat="48.82547" lon="-1.43987">
        <ele>119.8</ele>
        <time>2024-01-25T13:38:50Z</time>
      </trkpt>
      <trkpt lat="48.82552" lon="-1.43982">
        <ele>119.9</ele>
        <time>2024-01-25T13:38:51Z</time>
      </trkpt>
      <trkpt lat="48.82556" lon="-1.43977">
        <ele>119.9</ele>
        <time>2024-01-25T13:38:52Z</time>
      </trkpt>
      <trkpt lat="48.8256" lon="-1.43972">
        <ele>120</ele>
        <time>2024-01-25T13:38:53Z</time>
      </trkpt>
      <trkpt lat="48.82564" lon="-1.43967">
        <ele>120</ele>
        <time>2024-01-25T13:38:54Z</time>
      </trkpt>
      <trkpt lat="48.82568" lon="-1.43963">
        <ele>120.1</ele>
        <time>2024-01-25T13:38:55Z</time>
      </trkpt>
      <trkpt lat="48.82572" lon="-1.43959">
        <ele>120.1</ele>
        <time>2024-01-25T13:38:56Z</time>
      </trkpt>
      <trkpt lat="48.82578" lon="-1.43953">
        <ele>120.2</ele>
        <time>2024-01-25T13:38:58Z</time>
      </trkpt>
      <trkpt lat="48.8258" lon="-1.4395">
        <ele>120.2</ele>
        <time>2024-01-25T13:38:59Z</time>
      </trkpt>
      <trkpt lat="48.82583" lon="-1.43946">
        <ele>120.2</ele>
        <time>2024-01-25T13:39:00Z</time>
      </trkpt>
      <trkpt lat="48.82588" lon="-1.43939">
        <ele>120.2</ele>
        <time>2024-01-25T13:39:01Z</time>
      </trkpt>
      <trkpt lat="48.82593" lon="-1.43933">
        <ele>120.2</ele>
        <time>2024-01-25T13:39:02Z</time>
      </trkpt>
      <trkpt lat="48.82597" lon="-1.43929">
        <ele>120.1</ele>
        <time>2024-01-25T13:39:03Z</time>
      </trkpt>
      <trkpt lat="48.82601" lon="-1.43925">
        <ele>120.1</ele>
        <time>2024-01-25T13:39:04Z</time>
      </trkpt>
      <trkpt lat="48.82605" lon="-1.4392">
        <ele>120.1</ele>
        <time>2024-01-25T13:39:05Z</time>
      </trkpt>
      <trkpt lat="48.82609" lon="-1.43916">
        <ele>120.1</ele>
        <time>2024-01-25T13:39:06Z</time>
      </trkpt>
      <trkpt lat="48.82613" lon="-1.4391">
        <ele>120.2</ele>
        <time>2024-01-25T13:39:07Z</time>
      </trkpt>
      <trkpt lat="48.82617" lon="-1.43905">
        <ele>120.2</ele>
        <time>2024-01-25T13:39:08Z</time>
      </trkpt>
      <trkpt lat="48.82622" lon="-1.43899">
        <ele>120.2</ele>
        <time>2024-01-25T13:39:09Z</time>
      </trkpt>
      <trkpt lat="48.82626" lon="-1.43894">
        <ele>120.2</ele>
        <time>2024-01-25T13:39:10Z</time>
      </trkpt>
      <trkpt lat="48.8263" lon="-1.43888">
        <ele>120.2</ele>
        <time>2024-01-25T13:39:11Z</time>
      </trkpt>
      <trkpt lat="48.82633" lon="-1.43883">
        <ele>120.2</ele>
        <time>2024-01-25T13:39:12Z</time>
      </trkpt>
      <trkpt lat="48.82637" lon="-1.43878">
        <ele>120.2</ele>
        <time>2024-01-25T13:39:13Z</time>
      </trkpt>
      <trkpt lat="48.82641" lon="-1.43873">
        <ele>120.3</ele>
        <time>2024-01-25T13:39:14Z</time>
      </trkpt>
      <trkpt lat="48.82645" lon="-1.43868">
        <ele>120.3</ele>
        <time>2024-01-25T13:39:15Z</time>
      </trkpt>
      <trkpt lat="48.82649" lon="-1.43863">
        <ele>120.3</ele>
        <time>2024-01-25T13:39:16Z</time>
      </trkpt>
      <trkpt lat="48.82652" lon="-1.43859">
        <ele>120.3</ele>
        <time>2024-01-25T13:39:17Z</time>
      </trkpt>
      <trkpt lat="48.82655" lon="-1.43856">
        <ele>120.4</ele>
        <time>2024-01-25T13:39:18Z</time>
      </trkpt>
      <trkpt lat="48.82659" lon="-1.43852">
        <ele>120.4</ele>
        <time>2024-01-25T13:39:19Z</time>
      </trkpt>
      <trkpt lat="48.82663" lon="-1.43848">
        <ele>120.4</ele>
        <time>2024-01-25T13:39:20Z</time>
      </trkpt>
      <trkpt lat="48.82668" lon="-1.43843">
        <ele>120.4</ele>
        <time>2024-01-25T13:39:21Z</time>
      </trkpt>
      <trkpt lat="48.82673" lon="-1.43836">
        <ele>120.5</ele>
        <time>2024-01-25T13:39:22Z</time>
      </trkpt>
      <trkpt lat="48.82678" lon="-1.43829">
        <ele>120.6</ele>
        <time>2024-01-25T13:39:23Z</time>
      </trkpt>
      <trkpt lat="48.82683" lon="-1.43822">
        <ele>120.6</ele>
        <time>2024-01-25T13:39:24Z</time>
      </trkpt>
      <trkpt lat="48.82688" lon="-1.43816">
        <ele>120.6</ele>
        <time>2024-01-25T13:39:25Z</time>
      </trkpt>
      <trkpt lat="48.82693" lon="-1.4381">
        <ele>120.5</ele>
        <time>2024-01-25T13:39:26Z</time>
      </trkpt>
      <trkpt lat="48.82697" lon="-1.43805">
        <ele>120.5</ele>
        <time>2024-01-25T13:39:27Z</time>
      </trkpt>
      <trkpt lat="48.82702" lon="-1.43799">
        <ele>120.6</ele>
        <time>2024-01-25T13:39:28Z</time>
      </trkpt>
      <trkpt lat="48.82706" lon="-1.43794">
        <ele>120.6</ele>
        <time>2024-01-25T13:39:29Z</time>
      </trkpt>
      <trkpt lat="48.8271" lon="-1.43789">
        <ele>120.6</ele>
        <time>2024-01-25T13:39:30Z</time>
      </trkpt>
      <trkpt lat="48.82715" lon="-1.43782">
        <ele>120.6</ele>
        <time>2024-01-25T13:39:31Z</time>
      </trkpt>
      <trkpt lat="48.8272" lon="-1.43775">
        <ele>120.7</ele>
        <time>2024-01-25T13:39:32Z</time>
      </trkpt>
      <trkpt lat="48.82725" lon="-1.43768">
        <ele>120.7</ele>
        <time>2024-01-25T13:39:33Z</time>
      </trkpt>
      <trkpt lat="48.8273" lon="-1.43761">
        <ele>120.7</ele>
        <time>2024-01-25T13:39:34Z</time>
      </trkpt>
      <trkpt lat="48.82735" lon="-1.43755">
        <ele>120.8</ele>
        <time>2024-01-25T13:39:35Z</time>
      </trkpt>
      <trkpt lat="48.8274" lon="-1.43748">
        <ele>120.8</ele>
        <time>2024-01-25T13:39:36Z</time>
      </trkpt>
      <trkpt lat="48.82744" lon="-1.43742">
        <ele>120.8</ele>
        <time>2024-01-25T13:39:37Z</time>
      </trkpt>
      <trkpt lat="48.82749" lon="-1.43735">
        <ele>120.7</ele>
        <time>2024-01-25T13:39:38Z</time>
      </trkpt>
      <trkpt lat="48.82754" lon="-1.43729">
        <ele>120.7</ele>
        <time>2024-01-25T13:39:39Z</time>
      </trkpt>
      <trkpt lat="48.82759" lon="-1.43723">
        <ele>120.7</ele>
        <time>2024-01-25T13:39:40Z</time>
      </trkpt>
      <trkpt lat="48.82764" lon="-1.43717">
        <ele>120.8</ele>
        <time>2024-01-25T13:39:41Z</time>
      </trkpt>
      <trkpt lat="48.82768" lon="-1.4371">
        <ele>120.8</ele>
        <time>2024-01-25T13:39:42Z</time>
      </trkpt>
      <trkpt lat="48.82773" lon="-1.43704">
        <ele>120.8</ele>
        <time>2024-01-25T13:39:43Z</time>
      </trkpt>
      <trkpt lat="48.82777" lon="-1.43698">
        <ele>120.8</ele>
        <time>2024-01-25T13:39:44Z</time>
      </trkpt>
      <trkpt lat="48.82781" lon="-1.43692">
        <ele>120.8</ele>
        <time>2024-01-25T13:39:45Z</time>
      </trkpt>
      <trkpt lat="48.82786" lon="-1.43685">
        <ele>120.8</ele>
        <time>2024-01-25T13:39:46Z</time>
      </trkpt>
      <trkpt lat="48.8279" lon="-1.43678">
        <ele>120.7</ele>
        <time>2024-01-25T13:39:47Z</time>
      </trkpt>
      <trkpt lat="48.82795" lon="-1.43672">
        <ele>120.6</ele>
        <time>2024-01-25T13:39:48Z</time>
      </trkpt>
      <trkpt lat="48.82799" lon="-1.43665">
        <ele>120.5</ele>
        <time>2024-01-25T13:39:49Z</time>
      </trkpt>
      <trkpt lat="48.82805" lon="-1.4366">
        <ele>120.3</ele>
        <time>2024-01-25T13:39:50Z</time>
      </trkpt>
      <trkpt lat="48.8281" lon="-1.43654">
        <ele>120.1</ele>
        <time>2024-01-25T13:39:51Z</time>
      </trkpt>
      <trkpt lat="48.82815" lon="-1.43649">
        <ele>119.9</ele>
        <time>2024-01-25T13:39:52Z</time>
      </trkpt>
      <trkpt lat="48.8282" lon="-1.43644">
        <ele>119.8</ele>
        <time>2024-01-25T13:39:53Z</time>
      </trkpt>
      <trkpt lat="48.82825" lon="-1.43637">
        <ele>119.6</ele>
        <time>2024-01-25T13:39:54Z</time>
      </trkpt>
      <trkpt lat="48.8283" lon="-1.43631">
        <ele>119.4</ele>
        <time>2024-01-25T13:39:55Z</time>
      </trkpt>
      <trkpt lat="48.82835" lon="-1.43625">
        <ele>119.3</ele>
        <time>2024-01-25T13:39:56Z</time>
      </trkpt>
      <trkpt lat="48.8284" lon="-1.43619">
        <ele>119.1</ele>
        <time>2024-01-25T13:39:57Z</time>
      </trkpt>
      <trkpt lat="48.82845" lon="-1.43612">
        <ele>119</ele>
        <time>2024-01-25T13:39:58Z</time>
      </trkpt>
      <trkpt lat="48.8285" lon="-1.43606">
        <ele>118.9</ele>
        <time>2024-01-25T13:39:59Z</time>
      </trkpt>
      <trkpt lat="48.82855" lon="-1.436">
        <ele>118.9</ele>
        <time>2024-01-25T13:40:00Z</time>
      </trkpt>
      <trkpt lat="48.8286" lon="-1.43594">
        <ele>118.9</ele>
        <time>2024-01-25T13:40:01Z</time>
      </trkpt>
      <trkpt lat="48.82865" lon="-1.43587">
        <ele>118.9</ele>
        <time>2024-01-25T13:40:02Z</time>
      </trkpt>
      <trkpt lat="48.82869" lon="-1.43581">
        <ele>118.9</ele>
        <time>2024-01-25T13:40:03Z</time>
      </trkpt>
      <trkpt lat="48.82874" lon="-1.43574">
        <ele>118.9</ele>
        <time>2024-01-25T13:40:04Z</time>
      </trkpt>
      <trkpt lat="48.82879" lon="-1.43566">
        <ele>118.8</ele>
        <time>2024-01-25T13:40:05Z</time>
      </trkpt>
      <trkpt lat="48.82883" lon="-1.43558">
        <ele>118.8</ele>
        <time>2024-01-25T13:40:06Z</time>
      </trkpt>
      <trkpt lat="48.82887" lon="-1.43551">
        <ele>118.8</ele>
        <time>2024-01-25T13:40:07Z</time>
      </trkpt>
      <trkpt lat="48.82892" lon="-1.43543">
        <ele>118.7</ele>
        <time>2024-01-25T13:40:08Z</time>
      </trkpt>
      <trkpt lat="48.82897" lon="-1.43536">
        <ele>118.7</ele>
        <time>2024-01-25T13:40:09Z</time>
      </trkpt>
      <trkpt lat="48.82902" lon="-1.43528">
        <ele>118.7</ele>
        <time>2024-01-25T13:40:10Z</time>
      </trkpt>
      <trkpt lat="48.82907" lon="-1.43521">
        <ele>118.7</ele>
        <time>2024-01-25T13:40:11Z</time>
      </trkpt>
      <trkpt lat="48.82912" lon="-1.43514">
        <ele>118.7</ele>
        <time>2024-01-25T13:40:12Z</time>
      </trkpt>
      <trkpt lat="48.82917" lon="-1.43506">
        <ele>118.7</ele>
        <time>2024-01-25T13:40:13Z</time>
      </trkpt>
      <trkpt lat="48.82921" lon="-1.43499">
        <ele>118.7</ele>
        <time>2024-01-25T13:40:14Z</time>
      </trkpt>
      <trkpt lat="48.82926" lon="-1.43491">
        <ele>118.7</ele>
        <time>2024-01-25T13:40:15Z</time>
      </trkpt>
      <trkpt lat="48.82931" lon="-1.43483">
        <ele>118.8</ele>
        <time>2024-01-25T13:40:16Z</time>
      </trkpt>
      <trkpt lat="48.82936" lon="-1.43476">
        <ele>118.8</ele>
        <time>2024-01-25T13:40:17Z</time>
      </trkpt>
      <trkpt lat="48.8294" lon="-1.43468">
        <ele>118.9</ele>
        <time>2024-01-25T13:40:18Z</time>
      </trkpt>
      <trkpt lat="48.82944" lon="-1.4346">
        <ele>118.9</ele>
        <time>2024-01-25T13:40:19Z</time>
      </trkpt>
      <trkpt lat="48.82949" lon="-1.43452">
        <ele>119</ele>
        <time>2024-01-25T13:40:20Z</time>
      </trkpt>
      <trkpt lat="48.82953" lon="-1.43444">
        <ele>119.1</ele>
        <time>2024-01-25T13:40:21Z</time>
      </trkpt>
      <trkpt lat="48.82957" lon="-1.43436">
        <ele>119.1</ele>
        <time>2024-01-25T13:40:22Z</time>
      </trkpt>
      <trkpt lat="48.82961" lon="-1.43429">
        <ele>119.2</ele>
        <time>2024-01-25T13:40:23Z</time>
      </trkpt>
      <trkpt lat="48.82965" lon="-1.43421">
        <ele>119.3</ele>
        <time>2024-01-25T13:40:24Z</time>
      </trkpt>
      <trkpt lat="48.8297" lon="-1.43414">
        <ele>119.3</ele>
        <time>2024-01-25T13:40:25Z</time>
      </trkpt>
      <trkpt lat="48.82974" lon="-1.43406">
        <ele>119.4</ele>
        <time>2024-01-25T13:40:26Z</time>
      </trkpt>
      <trkpt lat="48.82977" lon="-1.43398">
        <ele>119.5</ele>
        <time>2024-01-25T13:40:27Z</time>
      </trkpt>
      <trkpt lat="48.82981" lon="-1.4339">
        <ele>119.6</ele>
        <time>2024-01-25T13:40:28Z</time>
      </trkpt>
      <trkpt lat="48.82986" lon="-1.43383">
        <ele>119.7</ele>
        <time>2024-01-25T13:40:29Z</time>
      </trkpt>
      <trkpt lat="48.8299" lon="-1.43375">
        <ele>119.8</ele>
        <time>2024-01-25T13:40:30Z</time>
      </trkpt>
      <trkpt lat="48.82994" lon="-1.43368">
        <ele>119.9</ele>
        <time>2024-01-25T13:40:31Z</time>
      </trkpt>
      <trkpt lat="48.82998" lon="-1.43361">
        <ele>120</ele>
        <time>2024-01-25T13:40:32Z</time>
      </trkpt>
      <trkpt lat="48.83002" lon="-1.43354">
        <ele>120.1</ele>
        <time>2024-01-25T13:40:33Z</time>
      </trkpt>
      <trkpt lat="48.83005" lon="-1.43348">
        <ele>120.1</ele>
        <time>2024-01-25T13:40:34Z</time>
      </trkpt>
      <trkpt lat="48.83009" lon="-1.43341">
        <ele>120.2</ele>
        <time>2024-01-25T13:40:35Z</time>
      </trkpt>
      <trkpt lat="48.83012" lon="-1.43334">
        <ele>120.3</ele>
        <time>2024-01-25T13:40:36Z</time>
      </trkpt>
      <trkpt lat="48.83016" lon="-1.43327">
        <ele>120.3</ele>
        <time>2024-01-25T13:40:37Z</time>
      </trkpt>
      <trkpt lat="48.8302" lon="-1.4332">
        <ele>120.3</ele>
        <time>2024-01-25T13:40:38Z</time>
      </trkpt>
      <trkpt lat="48.83023" lon="-1.43313">
        <ele>120.3</ele>
        <time>2024-01-25T13:40:39Z</time>
      </trkpt>
      <trkpt lat="48.83026" lon="-1.43306">
        <ele>120.3</ele>
        <time>2024-01-25T13:40:40Z</time>
      </trkpt>
      <trkpt lat="48.83028" lon="-1.43297">
        <ele>120.2</ele>
        <time>2024-01-25T13:40:41Z</time>
      </trkpt>
      <trkpt lat="48.8303" lon="-1.43288">
        <ele>120.2</ele>
        <time>2024-01-25T13:40:42Z</time>
      </trkpt>
      <trkpt lat="48.83032" lon="-1.43279">
        <ele>120.1</ele>
        <time>2024-01-25T13:40:43Z</time>
      </trkpt>
      <trkpt lat="48.83034" lon="-1.4327">
        <ele>120</ele>
        <time>2024-01-25T13:40:44Z</time>
      </trkpt>
      <trkpt lat="48.83036" lon="-1.4326">
        <ele>119.9</ele>
        <time>2024-01-25T13:40:45Z</time>
      </trkpt>
      <trkpt lat="48.83038" lon="-1.43251">
        <ele>119.8</ele>
        <time>2024-01-25T13:40:46Z</time>
      </trkpt>
      <trkpt lat="48.8304" lon="-1.43242">
        <ele>119.6</ele>
        <time>2024-01-25T13:40:47Z</time>
      </trkpt>
      <trkpt lat="48.83042" lon="-1.43232">
        <ele>119.5</ele>
        <time>2024-01-25T13:40:48Z</time>
      </trkpt>
      <trkpt lat="48.83044" lon="-1.43222">
        <ele>119.4</ele>
        <time>2024-01-25T13:40:49Z</time>
      </trkpt>
      <trkpt lat="48.83046" lon="-1.43213">
        <ele>119.3</ele>
        <time>2024-01-25T13:40:50Z</time>
      </trkpt>
      <trkpt lat="48.83049" lon="-1.43203">
        <ele>119.2</ele>
        <time>2024-01-25T13:40:51Z</time>
      </trkpt>
      <trkpt lat="48.83052" lon="-1.43194">
        <ele>119.1</ele>
        <time>2024-01-25T13:40:52Z</time>
      </trkpt>
      <trkpt lat="48.83055" lon="-1.43185">
        <ele>118.9</ele>
        <time>2024-01-25T13:40:53Z</time>
      </trkpt>
      <trkpt lat="48.83059" lon="-1.43177">
        <ele>118.8</ele>
        <time>2024-01-25T13:40:54Z</time>
      </trkpt>
      <trkpt lat="48.83064" lon="-1.43169">
        <ele>118.7</ele>
        <time>2024-01-25T13:40:55Z</time>
      </trkpt>
      <trkpt lat="48.83069" lon="-1.43162">
        <ele>118.6</ele>
        <time>2024-01-25T13:40:56Z</time>
      </trkpt>
      <trkpt lat="48.83074" lon="-1.43155">
        <ele>118.6</ele>
        <time>2024-01-25T13:40:57Z</time>
      </trkpt>
      <trkpt lat="48.8308" lon="-1.43149">
        <ele>118.5</ele>
        <time>2024-01-25T13:40:58Z</time>
      </trkpt>
      <trkpt lat="48.83086" lon="-1.43143">
        <ele>118.4</ele>
        <time>2024-01-25T13:40:59Z</time>
      </trkpt>
      <trkpt lat="48.83092" lon="-1.43139">
        <ele>118.3</ele>
        <time>2024-01-25T13:41:00Z</time>
      </trkpt>
      <trkpt lat="48.83098" lon="-1.43134">
        <ele>118.3</ele>
        <time>2024-01-25T13:41:01Z</time>
      </trkpt>
      <trkpt lat="48.83104" lon="-1.4313">
        <ele>118.2</ele>
        <time>2024-01-25T13:41:02Z</time>
      </trkpt>
      <trkpt lat="48.8311" lon="-1.43126">
        <ele>118.1</ele>
        <time>2024-01-25T13:41:03Z</time>
      </trkpt>
      <trkpt lat="48.83115" lon="-1.43122">
        <ele>118</ele>
        <time>2024-01-25T13:41:04Z</time>
      </trkpt>
      <trkpt lat="48.83121" lon="-1.43117">
        <ele>118</ele>
        <time>2024-01-25T13:41:05Z</time>
      </trkpt>
      <trkpt lat="48.83126" lon="-1.4311">
        <ele>117.9</ele>
        <time>2024-01-25T13:41:06Z</time>
      </trkpt>
      <trkpt lat="48.8313" lon="-1.43102">
        <ele>118</ele>
        <time>2024-01-25T13:41:07Z</time>
      </trkpt>
      <trkpt lat="48.83132" lon="-1.43092">
        <ele>118</ele>
        <time>2024-01-25T13:41:08Z</time>
      </trkpt>
      <trkpt lat="48.83134" lon="-1.43083">
        <ele>118.1</ele>
        <time>2024-01-25T13:41:09Z</time>
      </trkpt>
      <trkpt lat="48.83135" lon="-1.43073">
        <ele>118.2</ele>
        <time>2024-01-25T13:41:10Z</time>
      </trkpt>
      <trkpt lat="48.83137" lon="-1.43064">
        <ele>118.2</ele>
        <time>2024-01-25T13:41:11Z</time>
      </trkpt>
      <trkpt lat="48.83138" lon="-1.43055">
        <ele>118.3</ele>
        <time>2024-01-25T13:41:12Z</time>
      </trkpt>
      <trkpt lat="48.8314" lon="-1.43046">
        <ele>118.3</ele>
        <time>2024-01-25T13:41:13Z</time>
      </trkpt>
      <trkpt lat="48.83142" lon="-1.43037">
        <ele>118.3</ele>
        <time>2024-01-25T13:41:14Z</time>
      </trkpt>
      <trkpt lat="48.83145" lon="-1.43027">
        <ele>118.3</ele>
        <time>2024-01-25T13:41:15Z</time>
      </trkpt>
      <trkpt lat="48.83147" lon="-1.43017">
        <ele>118.2</ele>
        <time>2024-01-25T13:41:16Z</time>
      </trkpt>
      <trkpt lat="48.83149" lon="-1.43007">
        <ele>118.1</ele>
        <time>2024-01-25T13:41:17Z</time>
      </trkpt>
      <trkpt lat="48.83152" lon="-1.42997">
        <ele>117.9</ele>
        <time>2024-01-25T13:41:18Z</time>
      </trkpt>
      <trkpt lat="48.83155" lon="-1.42988">
        <ele>117.9</ele>
        <time>2024-01-25T13:41:19Z</time>
      </trkpt>
      <trkpt lat="48.83158" lon="-1.42978">
        <ele>117.9</ele>
        <time>2024-01-25T13:41:20Z</time>
      </trkpt>
      <trkpt lat="48.83161" lon="-1.42967">
        <ele>117.9</ele>
        <time>2024-01-25T13:41:21Z</time>
      </trkpt>
      <trkpt lat="48.83164" lon="-1.42957">
        <ele>118</ele>
        <time>2024-01-25T13:41:22Z</time>
      </trkpt>
      <trkpt lat="48.83167" lon="-1.42947">
        <ele>118.1</ele>
        <time>2024-01-25T13:41:23Z</time>
      </trkpt>
      <trkpt lat="48.83169" lon="-1.42937">
        <ele>118.2</ele>
        <time>2024-01-25T13:41:24Z</time>
      </trkpt>
      <trkpt lat="48.83171" lon="-1.42927">
        <ele>118.3</ele>
        <time>2024-01-25T13:41:25Z</time>
      </trkpt>
      <trkpt lat="48.83173" lon="-1.42917">
        <ele>118.4</ele>
        <time>2024-01-25T13:41:26Z</time>
      </trkpt>
      <trkpt lat="48.83175" lon="-1.42907">
        <ele>118.5</ele>
        <time>2024-01-25T13:41:27Z</time>
      </trkpt>
      <trkpt lat="48.83177" lon="-1.42897">
        <ele>118.6</ele>
        <time>2024-01-25T13:41:28Z</time>
      </trkpt>
      <trkpt lat="48.83178" lon="-1.42887">
        <ele>118.7</ele>
        <time>2024-01-25T13:41:29Z</time>
      </trkpt>
      <trkpt lat="48.83179" lon="-1.42877">
        <ele>118.8</ele>
        <time>2024-01-25T13:41:30Z</time>
      </trkpt>
      <trkpt lat="48.8318" lon="-1.42868">
        <ele>118.8</ele>
        <time>2024-01-25T13:41:31Z</time>
      </trkpt>
      <trkpt lat="48.83181" lon="-1.42859">
        <ele>118.9</ele>
        <time>2024-01-25T13:41:32Z</time>
      </trkpt>
      <trkpt lat="48.83182" lon="-1.4285">
        <ele>118.9</ele>
        <time>2024-01-25T13:41:33Z</time>
      </trkpt>
      <trkpt lat="48.83183" lon="-1.4284">
        <ele>119</ele>
        <time>2024-01-25T13:41:34Z</time>
      </trkpt>
      <trkpt lat="48.83184" lon="-1.42832">
        <ele>119.1</ele>
        <time>2024-01-25T13:41:35Z</time>
      </trkpt>
      <trkpt lat="48.83186" lon="-1.42823">
        <ele>119.2</ele>
        <time>2024-01-25T13:41:36Z</time>
      </trkpt>
      <trkpt lat="48.83187" lon="-1.42815">
        <ele>119.3</ele>
        <time>2024-01-25T13:41:37Z</time>
      </trkpt>
      <trkpt lat="48.83188" lon="-1.42806">
        <ele>119.4</ele>
        <time>2024-01-25T13:41:38Z</time>
      </trkpt>
      <trkpt lat="48.8319" lon="-1.42798">
        <ele>119.5</ele>
        <time>2024-01-25T13:41:39Z</time>
      </trkpt>
      <trkpt lat="48.83191" lon="-1.42789">
        <ele>119.6</ele>
        <time>2024-01-25T13:41:40Z</time>
      </trkpt>
      <trkpt lat="48.83192" lon="-1.42781">
        <ele>119.7</ele>
        <time>2024-01-25T13:41:41Z</time>
      </trkpt>
      <trkpt lat="48.83194" lon="-1.42773">
        <ele>119.8</ele>
        <time>2024-01-25T13:41:42Z</time>
      </trkpt>
      <trkpt lat="48.83195" lon="-1.42765">
        <ele>119.9</ele>
        <time>2024-01-25T13:41:43Z</time>
      </trkpt>
      <trkpt lat="48.83197" lon="-1.42757">
        <ele>120.1</ele>
        <time>2024-01-25T13:41:44Z</time>
      </trkpt>
      <trkpt lat="48.83198" lon="-1.42748">
        <ele>120.2</ele>
        <time>2024-01-25T13:41:45Z</time>
      </trkpt>
      <trkpt lat="48.83199" lon="-1.4274">
        <ele>120.4</ele>
        <time>2024-01-25T13:41:46Z</time>
      </trkpt>
      <trkpt lat="48.832" lon="-1.42732">
        <ele>120.6</ele>
        <time>2024-01-25T13:41:47Z</time>
      </trkpt>
      <trkpt lat="48.83201" lon="-1.42724">
        <ele>120.7</ele>
        <time>2024-01-25T13:41:48Z</time>
      </trkpt>
      <trkpt lat="48.83202" lon="-1.42717">
        <ele>120.9</ele>
        <time>2024-01-25T13:41:49Z</time>
      </trkpt>
      <trkpt lat="48.83203" lon="-1.4271">
        <ele>121</ele>
        <time>2024-01-25T13:41:50Z</time>
      </trkpt>
      <trkpt lat="48.83204" lon="-1.42702">
        <ele>121.2</ele>
        <time>2024-01-25T13:41:51Z</time>
      </trkpt>
      <trkpt lat="48.83204" lon="-1.42695">
        <ele>121.4</ele>
        <time>2024-01-25T13:41:52Z</time>
      </trkpt>
      <trkpt lat="48.83205" lon="-1.42688">
        <ele>121.6</ele>
        <time>2024-01-25T13:41:53Z</time>
      </trkpt>
      <trkpt lat="48.83205" lon="-1.42681">
        <ele>121.8</ele>
        <time>2024-01-25T13:41:54Z</time>
      </trkpt>
      <trkpt lat="48.83206" lon="-1.42674">
        <ele>122</ele>
        <time>2024-01-25T13:41:55Z</time>
      </trkpt>
      <trkpt lat="48.83206" lon="-1.42667">
        <ele>122.2</ele>
        <time>2024-01-25T13:41:56Z</time>
      </trkpt>
      <trkpt lat="48.83207" lon="-1.42661">
        <ele>122.3</ele>
        <time>2024-01-25T13:41:57Z</time>
      </trkpt>
      <trkpt lat="48.83208" lon="-1.42655">
        <ele>122.5</ele>
        <time>2024-01-25T13:41:58Z</time>
      </trkpt>
      <trkpt lat="48.83208" lon="-1.42648">
        <ele>122.7</ele>
        <time>2024-01-25T13:41:59Z</time>
      </trkpt>
      <trkpt lat="48.83208" lon="-1.42642">
        <ele>122.9</ele>
        <time>2024-01-25T13:42:00Z</time>
      </trkpt>
      <trkpt lat="48.83209" lon="-1.42635">
        <ele>123.1</ele>
        <time>2024-01-25T13:42:01Z</time>
      </trkpt>
      <trkpt lat="48.83209" lon="-1.42629">
        <ele>123.2</ele>
        <time>2024-01-25T13:42:02Z</time>
      </trkpt>
      <trkpt lat="48.8321" lon="-1.42623">
        <ele>123.4</ele>
        <time>2024-01-25T13:42:03Z</time>
      </trkpt>
      <trkpt lat="48.83211" lon="-1.42615">
        <ele>123.6</ele>
        <time>2024-01-25T13:42:05Z</time>
      </trkpt>
      <trkpt lat="48.83211" lon="-1.42612">
        <ele>123.7</ele>
        <time>2024-01-25T13:42:06Z</time>
      </trkpt>
      <trkpt lat="48.83212" lon="-1.42604">
        <ele>123.9</ele>
        <time>2024-01-25T13:42:07Z</time>
      </trkpt>
      <trkpt lat="48.83213" lon="-1.42594">
        <ele>124.1</ele>
        <time>2024-01-25T13:42:08Z</time>
      </trkpt>
      <trkpt lat="48.83213" lon="-1.42587">
        <ele>124.3</ele>
        <time>2024-01-25T13:42:09Z</time>
      </trkpt>
      <trkpt lat="48.83213" lon="-1.42579">
        <ele>124.4</ele>
        <time>2024-01-25T13:42:10Z</time>
      </trkpt>
      <trkpt lat="48.83213" lon="-1.42573">
        <ele>124.6</ele>
        <time>2024-01-25T13:42:11Z</time>
      </trkpt>
      <trkpt lat="48.83214" lon="-1.42566">
        <ele>124.8</ele>
        <time>2024-01-25T13:42:12Z</time>
      </trkpt>
      <trkpt lat="48.83215" lon="-1.4256">
        <ele>124.9</ele>
        <time>2024-01-25T13:42:13Z</time>
      </trkpt>
      <trkpt lat="48.83216" lon="-1.42553">
        <ele>125.1</ele>
        <time>2024-01-25T13:42:14Z</time>
      </trkpt>
      <trkpt lat="48.83218" lon="-1.42547">
        <ele>125.2</ele>
        <time>2024-01-25T13:42:15Z</time>
      </trkpt>
      <trkpt lat="48.83219" lon="-1.42541">
        <ele>125.4</ele>
        <time>2024-01-25T13:42:16Z</time>
      </trkpt>
      <trkpt lat="48.8322" lon="-1.42535">
        <ele>125.5</ele>
        <time>2024-01-25T13:42:17Z</time>
      </trkpt>
      <trkpt lat="48.8322" lon="-1.42528">
        <ele>125.7</ele>
        <time>2024-01-25T13:42:18Z</time>
      </trkpt>
      <trkpt lat="48.83221" lon="-1.42522">
        <ele>125.8</ele>
        <time>2024-01-25T13:42:19Z</time>
      </trkpt>
      <trkpt lat="48.83222" lon="-1.42516">
        <ele>125.9</ele>
        <time>2024-01-25T13:42:20Z</time>
      </trkpt>
      <trkpt lat="48.83222" lon="-1.4251">
        <ele>126.1</ele>
        <time>2024-01-25T13:42:21Z</time>
      </trkpt>
      <trkpt lat="48.83223" lon="-1.42504">
        <ele>126.2</ele>
        <time>2024-01-25T13:42:22Z</time>
      </trkpt>
      <trkpt lat="48.83224" lon="-1.42498">
        <ele>126.3</ele>
        <time>2024-01-25T13:42:23Z</time>
      </trkpt>
      <trkpt lat="48.83225" lon="-1.42492">
        <ele>126.4</ele>
        <time>2024-01-25T13:42:24Z</time>
      </trkpt>
      <trkpt lat="48.83226" lon="-1.42486">
        <ele>126.5</ele>
        <time>2024-01-25T13:42:25Z</time>
      </trkpt>
      <trkpt lat="48.83228" lon="-1.4248">
        <ele>126.6</ele>
        <time>2024-01-25T13:42:26Z</time>
      </trkpt>
      <trkpt lat="48.83229" lon="-1.42474">
        <ele>126.7</ele>
        <time>2024-01-25T13:42:27Z</time>
      </trkpt>
      <trkpt lat="48.83229" lon="-1.42467">
        <ele>126.8</ele>
        <time>2024-01-25T13:42:28Z</time>
      </trkpt>
      <trkpt lat="48.83231" lon="-1.42461">
        <ele>126.8</ele>
        <time>2024-01-25T13:42:29Z</time>
      </trkpt>
      <trkpt lat="48.83232" lon="-1.42455">
        <ele>126.9</ele>
        <time>2024-01-25T13:42:30Z</time>
      </trkpt>
      <trkpt lat="48.83232" lon="-1.42447">
        <ele>127</ele>
        <time>2024-01-25T13:42:31Z</time>
      </trkpt>
      <trkpt lat="48.83233" lon="-1.4244">
        <ele>127.1</ele>
        <time>2024-01-25T13:42:32Z</time>
      </trkpt>
      <trkpt lat="48.83233" lon="-1.42433">
        <ele>127.1</ele>
        <time>2024-01-25T13:42:33Z</time>
      </trkpt>
      <trkpt lat="48.83234" lon="-1.42425">
        <ele>127.2</ele>
        <time>2024-01-25T13:42:34Z</time>
      </trkpt>
      <trkpt lat="48.83234" lon="-1.42419">
        <ele>127.3</ele>
        <time>2024-01-25T13:42:35Z</time>
      </trkpt>
      <trkpt lat="48.83234" lon="-1.42412">
        <ele>127.3</ele>
        <time>2024-01-25T13:42:36Z</time>
      </trkpt>
      <trkpt lat="48.83235" lon="-1.42405">
        <ele>127.4</ele>
        <time>2024-01-25T13:42:37Z</time>
      </trkpt>
      <trkpt lat="48.83236" lon="-1.42396">
        <ele>127.4</ele>
        <time>2024-01-25T13:42:38Z</time>
      </trkpt>
      <trkpt lat="48.83236" lon="-1.42389">
        <ele>127.5</ele>
        <time>2024-01-25T13:42:39Z</time>
      </trkpt>
      <trkpt lat="48.83236" lon="-1.42381">
        <ele>127.5</ele>
        <time>2024-01-25T13:42:40Z</time>
      </trkpt>
      <trkpt lat="48.83237" lon="-1.42374">
        <ele>127.5</ele>
        <time>2024-01-25T13:42:41Z</time>
      </trkpt>
      <trkpt lat="48.83238" lon="-1.42367">
        <ele>127.5</ele>
        <time>2024-01-25T13:42:42Z</time>
      </trkpt>
      <trkpt lat="48.83239" lon="-1.4236">
        <ele>127.5</ele>
        <time>2024-01-25T13:42:43Z</time>
      </trkpt>
      <trkpt lat="48.8324" lon="-1.42353">
        <ele>127.5</ele>
        <time>2024-01-25T13:42:44Z</time>
      </trkpt>
      <trkpt lat="48.83241" lon="-1.42346">
        <ele>127.5</ele>
        <time>2024-01-25T13:42:45Z</time>
      </trkpt>
      <trkpt lat="48.83241" lon="-1.42339">
        <ele>127.5</ele>
        <time>2024-01-25T13:42:46Z</time>
      </trkpt>
      <trkpt lat="48.83242" lon="-1.42332">
        <ele>127.4</ele>
        <time>2024-01-25T13:42:47Z</time>
      </trkpt>
      <trkpt lat="48.83243" lon="-1.42324">
        <ele>127.4</ele>
        <time>2024-01-25T13:42:48Z</time>
      </trkpt>
      <trkpt lat="48.83244" lon="-1.42317">
        <ele>127.4</ele>
        <time>2024-01-25T13:42:49Z</time>
      </trkpt>
      <trkpt lat="48.83245" lon="-1.42309">
        <ele>127.3</ele>
        <time>2024-01-25T13:42:50Z</time>
      </trkpt>
      <trkpt lat="48.83246" lon="-1.42301">
        <ele>127.2</ele>
        <time>2024-01-25T13:42:51Z</time>
      </trkpt>
      <trkpt lat="48.83247" lon="-1.42294">
        <ele>127.2</ele>
        <time>2024-01-25T13:42:52Z</time>
      </trkpt>
      <trkpt lat="48.83248" lon="-1.42286">
        <ele>127</ele>
        <time>2024-01-25T13:42:53Z</time>
      </trkpt>
      <trkpt lat="48.83248" lon="-1.42278">
        <ele>126.9</ele>
        <time>2024-01-25T13:42:54Z</time>
      </trkpt>
      <trkpt lat="48.83249" lon="-1.42269">
        <ele>126.8</ele>
        <time>2024-01-25T13:42:55Z</time>
      </trkpt>
      <trkpt lat="48.83251" lon="-1.42261">
        <ele>126.6</ele>
        <time>2024-01-25T13:42:56Z</time>
      </trkpt>
      <trkpt lat="48.83252" lon="-1.42252">
        <ele>126.4</ele>
        <time>2024-01-25T13:42:57Z</time>
      </trkpt>
      <trkpt lat="48.83253" lon="-1.42243">
        <ele>126.2</ele>
        <time>2024-01-25T13:42:58Z</time>
      </trkpt>
      <trkpt lat="48.83254" lon="-1.42235">
        <ele>126</ele>
        <time>2024-01-25T13:42:59Z</time>
      </trkpt>
      <trkpt lat="48.83255" lon="-1.42226">
        <ele>125.8</ele>
        <time>2024-01-25T13:43:00Z</time>
      </trkpt>
      <trkpt lat="48.83256" lon="-1.42217">
        <ele>125.7</ele>
        <time>2024-01-25T13:43:01Z</time>
      </trkpt>
      <trkpt lat="48.83258" lon="-1.42209">
        <ele>125.5</ele>
        <time>2024-01-25T13:43:02Z</time>
      </trkpt>
      <trkpt lat="48.83259" lon="-1.422">
        <ele>125.4</ele>
        <time>2024-01-25T13:43:03Z</time>
      </trkpt>
      <trkpt lat="48.8326" lon="-1.42191">
        <ele>125.3</ele>
        <time>2024-01-25T13:43:04Z</time>
      </trkpt>
      <trkpt lat="48.83261" lon="-1.42181">
        <ele>125.2</ele>
        <time>2024-01-25T13:43:05Z</time>
      </trkpt>
      <trkpt lat="48.83261" lon="-1.42172">
        <ele>125.1</ele>
        <time>2024-01-25T13:43:06Z</time>
      </trkpt>
      <trkpt lat="48.83262" lon="-1.42163">
        <ele>124.9</ele>
        <time>2024-01-25T13:43:07Z</time>
      </trkpt>
      <trkpt lat="48.83263" lon="-1.42153">
        <ele>124.8</ele>
        <time>2024-01-25T13:43:08Z</time>
      </trkpt>
      <trkpt lat="48.83263" lon="-1.42144">
        <ele>124.8</ele>
        <time>2024-01-25T13:43:09Z</time>
      </trkpt>
      <trkpt lat="48.83265" lon="-1.42135">
        <ele>124.7</ele>
        <time>2024-01-25T13:43:10Z</time>
      </trkpt>
      <trkpt lat="48.83266" lon="-1.42125">
        <ele>124.5</ele>
        <time>2024-01-25T13:43:11Z</time>
      </trkpt>
      <trkpt lat="48.83267" lon="-1.42116">
        <ele>124.4</ele>
        <time>2024-01-25T13:43:12Z</time>
      </trkpt>
      <trkpt lat="48.83268" lon="-1.42107">
        <ele>124.2</ele>
        <time>2024-01-25T13:43:13Z</time>
      </trkpt>
      <trkpt lat="48.83269" lon="-1.42098">
        <ele>124.1</ele>
        <time>2024-01-25T13:43:14Z</time>
      </trkpt>
      <trkpt lat="48.8327" lon="-1.42088">
        <ele>123.9</ele>
        <time>2024-01-25T13:43:15Z</time>
      </trkpt>
      <trkpt lat="48.83271" lon="-1.4208">
        <ele>123.8</ele>
        <time>2024-01-25T13:43:16Z</time>
      </trkpt>
      <trkpt lat="48.83272" lon="-1.42071">
        <ele>123.6</ele>
        <time>2024-01-25T13:43:17Z</time>
      </trkpt>
      <trkpt lat="48.83272" lon="-1.42063">
        <ele>123.4</ele>
        <time>2024-01-25T13:43:18Z</time>
      </trkpt>
      <trkpt lat="48.83271" lon="-1.42056">
        <ele>123.2</ele>
        <time>2024-01-25T13:43:19Z</time>
      </trkpt>
      <trkpt lat="48.83267" lon="-1.4205">
        <ele>123</ele>
        <time>2024-01-25T13:43:20Z</time>
      </trkpt>
      <trkpt lat="48.83263" lon="-1.42045">
        <ele>122.8</ele>
        <time>2024-01-25T13:43:21Z</time>
      </trkpt>
      <trkpt lat="48.83257" lon="-1.42042">
        <ele>122.6</ele>
        <time>2024-01-25T13:43:22Z</time>
      </trkpt>
      <trkpt lat="48.83251" lon="-1.42039">
        <ele>122.5</ele>
        <time>2024-01-25T13:43:23Z</time>
      </trkpt>
      <trkpt lat="48.83245" lon="-1.42037">
        <ele>122.4</ele>
        <time>2024-01-25T13:43:24Z</time>
      </trkpt>
      <trkpt lat="48.83239" lon="-1.42036">
        <ele>122.4</ele>
        <time>2024-01-25T13:43:25Z</time>
      </trkpt>
      <trkpt lat="48.83233" lon="-1.42035">
        <ele>122.4</ele>
        <time>2024-01-25T13:43:26Z</time>
      </trkpt>
      <trkpt lat="48.83227" lon="-1.42033">
        <ele>122.4</ele>
        <time>2024-01-25T13:43:27Z</time>
      </trkpt>
      <trkpt lat="48.8322" lon="-1.42033">
        <ele>122.5</ele>
        <time>2024-01-25T13:43:28Z</time>
      </trkpt>
      <trkpt lat="48.83215" lon="-1.42033">
        <ele>122.5</ele>
        <time>2024-01-25T13:43:29Z</time>
      </trkpt>
      <trkpt lat="48.83209" lon="-1.42033">
        <ele>122.6</ele>
        <time>2024-01-25T13:43:30Z</time>
      </trkpt>
      <trkpt lat="48.83203" lon="-1.42035">
        <ele>122.6</ele>
        <time>2024-01-25T13:43:31Z</time>
      </trkpt>
      <trkpt lat="48.83198" lon="-1.42036">
        <ele>122.7</ele>
        <time>2024-01-25T13:43:32Z</time>
      </trkpt>
      <trkpt lat="48.83192" lon="-1.42037">
        <ele>122.7</ele>
        <time>2024-01-25T13:43:33Z</time>
      </trkpt>
      <trkpt lat="48.83187" lon="-1.42038">
        <ele>122.8</ele>
        <time>2024-01-25T13:43:34Z</time>
      </trkpt>
      <trkpt lat="48.83181" lon="-1.42036">
        <ele>122.9</ele>
        <time>2024-01-25T13:43:35Z</time>
      </trkpt>
      <trkpt lat="48.83176" lon="-1.42034">
        <ele>123.1</ele>
        <time>2024-01-25T13:43:36Z</time>
      </trkpt>
      <trkpt lat="48.8317" lon="-1.42031">
        <ele>123.3</ele>
        <time>2024-01-25T13:43:37Z</time>
      </trkpt>
      <trkpt lat="48.83165" lon="-1.42028">
        <ele>123.4</ele>
        <time>2024-01-25T13:43:38Z</time>
      </trkpt>
      <trkpt lat="48.8316" lon="-1.42025">
        <ele>123.6</ele>
        <time>2024-01-25T13:43:39Z</time>
      </trkpt>
      <trkpt lat="48.83156" lon="-1.42022">
        <ele>123.7</ele>
        <time>2024-01-25T13:43:40Z</time>
      </trkpt>
      <trkpt lat="48.83153" lon="-1.42016">
        <ele>123.7</ele>
        <time>2024-01-25T13:43:41Z</time>
      </trkpt>
      <trkpt lat="48.83151" lon="-1.42009">
        <ele>123.7</ele>
        <time>2024-01-25T13:43:42Z</time>
      </trkpt>
      <trkpt lat="48.8315" lon="-1.42001">
        <ele>123.6</ele>
        <time>2024-01-25T13:43:43Z</time>
      </trkpt>
      <trkpt lat="48.83151" lon="-1.41993">
        <ele>123.5</ele>
        <time>2024-01-25T13:43:44Z</time>
      </trkpt>
      <trkpt lat="48.83152" lon="-1.41984">
        <ele>123.4</ele>
        <time>2024-01-25T13:43:45Z</time>
      </trkpt>
      <trkpt lat="48.83153" lon="-1.41976">
        <ele>123.3</ele>
        <time>2024-01-25T13:43:46Z</time>
      </trkpt>
      <trkpt lat="48.83153" lon="-1.41967">
        <ele>123.2</ele>
        <time>2024-01-25T13:43:47Z</time>
      </trkpt>
      <trkpt lat="48.83154" lon="-1.41958">
        <ele>123</ele>
        <time>2024-01-25T13:43:48Z</time>
      </trkpt>
      <trkpt lat="48.83155" lon="-1.41949">
        <ele>122.9</ele>
        <time>2024-01-25T13:43:49Z</time>
      </trkpt>
      <trkpt lat="48.83155" lon="-1.4194">
        <ele>122.7</ele>
        <time>2024-01-25T13:43:50Z</time>
      </trkpt>
      <trkpt lat="48.83156" lon="-1.41931">
        <ele>122.6</ele>
        <time>2024-01-25T13:43:51Z</time>
      </trkpt>
      <trkpt lat="48.83156" lon="-1.41921">
        <ele>122.5</ele>
        <time>2024-01-25T13:43:52Z</time>
      </trkpt>
      <trkpt lat="48.83156" lon="-1.41912">
        <ele>122.3</ele>
        <time>2024-01-25T13:43:53Z</time>
      </trkpt>
      <trkpt lat="48.83156" lon="-1.41902">
        <ele>122.2</ele>
        <time>2024-01-25T13:43:54Z</time>
      </trkpt>
      <trkpt lat="48.83156" lon="-1.41893">
        <ele>122</ele>
        <time>2024-01-25T13:43:55Z</time>
      </trkpt>
      <trkpt lat="48.83157" lon="-1.41885">
        <ele>121.8</ele>
        <time>2024-01-25T13:43:56Z</time>
      </trkpt>
      <trkpt lat="48.83157" lon="-1.41876">
        <ele>121.6</ele>
        <time>2024-01-25T13:43:57Z</time>
      </trkpt>
      <trkpt lat="48.83157" lon="-1.41868">
        <ele>121.3</ele>
        <time>2024-01-25T13:43:58Z</time>
      </trkpt>
      <trkpt lat="48.83157" lon="-1.41861">
        <ele>121.1</ele>
        <time>2024-01-25T13:43:59Z</time>
      </trkpt>
      <trkpt lat="48.83157" lon="-1.41854">
        <ele>120.9</ele>
        <time>2024-01-25T13:44:00Z</time>
      </trkpt>
      <trkpt lat="48.83158" lon="-1.41847">
        <ele>120.7</ele>
        <time>2024-01-25T13:44:01Z</time>
      </trkpt>
      <trkpt lat="48.8316" lon="-1.4184">
        <ele>120.5</ele>
        <time>2024-01-25T13:44:02Z</time>
      </trkpt>
      <trkpt lat="48.83163" lon="-1.41832">
        <ele>120.3</ele>
        <time>2024-01-25T13:44:03Z</time>
      </trkpt>
      <trkpt lat="48.83165" lon="-1.41823">
        <ele>120</ele>
        <time>2024-01-25T13:44:04Z</time>
      </trkpt>
      <trkpt lat="48.83169" lon="-1.41815">
        <ele>119.7</ele>
        <time>2024-01-25T13:44:05Z</time>
      </trkpt>
      <trkpt lat="48.83173" lon="-1.41808">
        <ele>119.5</ele>
        <time>2024-01-25T13:44:06Z</time>
      </trkpt>
      <trkpt lat="48.83177" lon="-1.41801">
        <ele>119.2</ele>
        <time>2024-01-25T13:44:07Z</time>
      </trkpt>
      <trkpt lat="48.83182" lon="-1.41794">
        <ele>118.9</ele>
        <time>2024-01-25T13:44:08Z</time>
      </trkpt>
      <trkpt lat="48.83187" lon="-1.41787">
        <ele>118.7</ele>
        <time>2024-01-25T13:44:09Z</time>
      </trkpt>
      <trkpt lat="48.83192" lon="-1.4178">
        <ele>118.4</ele>
        <time>2024-01-25T13:44:10Z</time>
      </trkpt>
      <trkpt lat="48.83198" lon="-1.41774">
        <ele>118.2</ele>
        <time>2024-01-25T13:44:11Z</time>
      </trkpt>
      <trkpt lat="48.83203" lon="-1.41768">
        <ele>118</ele>
        <time>2024-01-25T13:44:12Z</time>
      </trkpt>
      <trkpt lat="48.83209" lon="-1.41762">
        <ele>117.8</ele>
        <time>2024-01-25T13:44:13Z</time>
      </trkpt>
      <trkpt lat="48.83215" lon="-1.41757">
        <ele>117.6</ele>
        <time>2024-01-25T13:44:14Z</time>
      </trkpt>
      <trkpt lat="48.83221" lon="-1.41752">
        <ele>117.5</ele>
        <time>2024-01-25T13:44:15Z</time>
      </trkpt>
      <trkpt lat="48.83228" lon="-1.41747">
        <ele>117.4</ele>
        <time>2024-01-25T13:44:16Z</time>
      </trkpt>
      <trkpt lat="48.83234" lon="-1.41742">
        <ele>117.3</ele>
        <time>2024-01-25T13:44:17Z</time>
      </trkpt>
      <trkpt lat="48.83241" lon="-1.41738">
        <ele>117.1</ele>
        <time>2024-01-25T13:44:18Z</time>
      </trkpt>
      <trkpt lat="48.83247" lon="-1.41734">
        <ele>117</ele>
        <time>2024-01-25T13:44:19Z</time>
      </trkpt>
      <trkpt lat="48.83254" lon="-1.4173">
        <ele>116.9</ele>
        <time>2024-01-25T13:44:20Z</time>
      </trkpt>
      <trkpt lat="48.8326" lon="-1.41727">
        <ele>116.9</ele>
        <time>2024-01-25T13:44:21Z</time>
      </trkpt>
      <trkpt lat="48.83267" lon="-1.41725">
        <ele>116.9</ele>
        <time>2024-01-25T13:44:22Z</time>
      </trkpt>
      <trkpt lat="48.83272" lon="-1.41723">
        <ele>116.9</ele>
        <time>2024-01-25T13:44:23Z</time>
      </trkpt>
      <trkpt lat="48.83278" lon="-1.4172">
        <ele>116.9</ele>
        <time>2024-01-25T13:44:24Z</time>
      </trkpt>
      <trkpt lat="48.83284" lon="-1.41717">
        <ele>116.9</ele>
        <time>2024-01-25T13:44:25Z</time>
      </trkpt>
      <trkpt lat="48.83289" lon="-1.41713">
        <ele>117</ele>
        <time>2024-01-25T13:44:26Z</time>
      </trkpt>
      <trkpt lat="48.83295" lon="-1.41708">
        <ele>117.1</ele>
        <time>2024-01-25T13:44:27Z</time>
      </trkpt>
      <trkpt lat="48.83299" lon="-1.41701">
        <ele>117.2</ele>
        <time>2024-01-25T13:44:28Z</time>
      </trkpt>
      <trkpt lat="48.83303" lon="-1.41693">
        <ele>117.4</ele>
        <time>2024-01-25T13:44:29Z</time>
      </trkpt>
      <trkpt lat="48.83305" lon="-1.41685">
        <ele>117.5</ele>
        <time>2024-01-25T13:44:30Z</time>
      </trkpt>
      <trkpt lat="48.83306" lon="-1.41676">
        <ele>117.7</ele>
        <time>2024-01-25T13:44:31Z</time>
      </trkpt>
      <trkpt lat="48.83307" lon="-1.41668">
        <ele>117.8</ele>
        <time>2024-01-25T13:44:32Z</time>
      </trkpt>
      <trkpt lat="48.83307" lon="-1.41661">
        <ele>118</ele>
        <time>2024-01-25T13:44:33Z</time>
      </trkpt>
      <trkpt lat="48.83307" lon="-1.41653">
        <ele>118.1</ele>
        <time>2024-01-25T13:44:34Z</time>
      </trkpt>
      <trkpt lat="48.83307" lon="-1.41645">
        <ele>118.3</ele>
        <time>2024-01-25T13:44:35Z</time>
      </trkpt>
      <trkpt lat="48.83307" lon="-1.41637">
        <ele>118.4</ele>
        <time>2024-01-25T13:44:36Z</time>
      </trkpt>
      <trkpt lat="48.83307" lon="-1.4163">
        <ele>118.6</ele>
        <time>2024-01-25T13:44:37Z</time>
      </trkpt>
      <trkpt lat="48.83307" lon="-1.41623">
        <ele>118.7</ele>
        <time>2024-01-25T13:44:38Z</time>
      </trkpt>
      <trkpt lat="48.83306" lon="-1.41616">
        <ele>118.8</ele>
        <time>2024-01-25T13:44:39Z</time>
      </trkpt>
      <trkpt lat="48.83305" lon="-1.41608">
        <ele>118.9</ele>
        <time>2024-01-25T13:44:40Z</time>
      </trkpt>
      <trkpt lat="48.83304" lon="-1.41601">
        <ele>119</ele>
        <time>2024-01-25T13:44:41Z</time>
      </trkpt>
      <trkpt lat="48.83303" lon="-1.41594">
        <ele>119</ele>
        <time>2024-01-25T13:44:42Z</time>
      </trkpt>
      <trkpt lat="48.83301" lon="-1.41587">
        <ele>119</ele>
        <time>2024-01-25T13:44:43Z</time>
      </trkpt>
      <trkpt lat="48.83299" lon="-1.4158">
        <ele>119.1</ele>
        <time>2024-01-25T13:44:44Z</time>
      </trkpt>
      <trkpt lat="48.83297" lon="-1.41574">
        <ele>119.1</ele>
        <time>2024-01-25T13:44:45Z</time>
      </trkpt>
      <trkpt lat="48.83295" lon="-1.41568">
        <ele>119</ele>
        <time>2024-01-25T13:44:46Z</time>
      </trkpt>
      <trkpt lat="48.83293" lon="-1.41561">
        <ele>119</ele>
        <time>2024-01-25T13:44:47Z</time>
      </trkpt>
      <trkpt lat="48.8329" lon="-1.41555">
        <ele>119</ele>
        <time>2024-01-25T13:44:48Z</time>
      </trkpt>
      <trkpt lat="48.83289" lon="-1.41549">
        <ele>119</ele>
        <time>2024-01-25T13:44:49Z</time>
      </trkpt>
      <trkpt lat="48.83287" lon="-1.41543">
        <ele>119</ele>
        <time>2024-01-25T13:44:50Z</time>
      </trkpt>
      <trkpt lat="48.83286" lon="-1.41537">
        <ele>119</ele>
        <time>2024-01-25T13:44:51Z</time>
      </trkpt>
      <trkpt lat="48.83285" lon="-1.41532">
        <ele>119</ele>
        <time>2024-01-25T13:44:52Z</time>
      </trkpt>
      <trkpt lat="48.83285" lon="-1.41528">
        <ele>119</ele>
        <time>2024-01-25T13:44:53Z</time>
      </trkpt>
      <trkpt lat="48.83285" lon="-1.41524">
        <ele>119</ele>
        <time>2024-01-25T13:44:54Z</time>
      </trkpt>
      <trkpt lat="48.83284" lon="-1.41519">
        <ele>119.1</ele>
        <time>2024-01-25T13:44:55Z</time>
      </trkpt>
      <trkpt lat="48.83283" lon="-1.41518">
        <ele>119.1</ele>
        <time>2024-01-25T13:44:56Z</time>
      </trkpt>
      <trkpt lat="48.83282" lon="-1.41515">
        <ele>119.1</ele>
        <time>2024-01-25T13:44:57Z</time>
      </trkpt>
      <trkpt lat="48.83282" lon="-1.41512">
        <ele>119.1</ele>
        <time>2024-01-25T13:44:59Z</time>
      </trkpt>
      <trkpt lat="48.83282" lon="-1.41511">
        <ele>119.1</ele>
        <time>2024-01-25T13:45:00Z</time>
      </trkpt>
      <trkpt lat="48.83283" lon="-1.4151">
        <ele>119.1</ele>
        <time>2024-01-25T13:45:01Z</time>
      </trkpt>
      <trkpt lat="48.83283" lon="-1.4151">
        <ele>119.1</ele>
        <time>2024-01-25T13:45:02Z</time>
      </trkpt>
      <trkpt lat="48.83283" lon="-1.4151">
        <ele>119.1</ele>
        <time>2024-01-25T13:45:03Z</time>
      </trkpt>
      <trkpt lat="48.83283" lon="-1.4151">
        <ele>119.1</ele>
        <time>2024-01-25T13:45:04Z</time>
      </trkpt>
      <trkpt lat="48.83283" lon="-1.4151">
        <ele>119.1</ele>
        <time>2024-01-25T13:45:05Z</time>
      </trkpt>
      <trkpt lat="48.83283" lon="-1.4151">
        <ele>119.1</ele>
        <time>2024-01-25T13:45:06Z</time>
      </trkpt>
      <trkpt lat="48.83283" lon="-1.4151">
        <ele>119.1</ele>
        <time>2024-01-25T13:45:07Z</time>
      </trkpt>
      <trkpt lat="48.83283" lon="-1.4151">
        <ele>119.1</ele>
        <time>2024-01-25T13:45:08Z</time>
      </trkpt>
      <trkpt lat="48.83283" lon="-1.4151">
        <ele>119.1</ele>
        <time>2024-01-25T13:45:09Z</time>
      </trkpt>
      <trkpt lat="48.83283" lon="-1.4151">
        <ele>119.1</ele>
        <time>2024-01-25T13:45:10Z</time>
      </trkpt>
      <trkpt lat="48.83283" lon="-1.4151">
        <ele>119.1</ele>
        <time>2024-01-25T13:45:11Z</time>
      </trkpt>
      <trkpt lat="48.83283" lon="-1.4151">
        <ele>119.1</ele>
        <time>2024-01-25T13:45:12Z</time>
      </trkpt>
      <trkpt lat="48.83283" lon="-1.4151">
        <ele>119.1</ele>
        <time>2024-01-25T13:45:13Z</time>
      </trkpt>
      <trkpt lat="48.83283" lon="-1.4151">
        <ele>119.1</ele>
        <time>2024-01-25T13:45:14Z</time>
      </trkpt>
      <trkpt lat="48.83283" lon="-1.4151">
        <ele>119.1</ele>
        <time>2024-01-25T13:45:15Z</time>
      </trkpt>
      <trkpt lat="48.83283" lon="-1.41508">
        <ele>119.1</ele>
        <time>2024-01-25T13:45:16Z</time>
      </trkpt>
      <trkpt lat="48.83283" lon="-1.41506">
        <ele>119.1</ele>
        <time>2024-01-25T13:45:17Z</time>
      </trkpt>
      <trkpt lat="48.83284" lon="-1.41505">
        <ele>119.1</ele>
        <time>2024-01-25T13:45:18Z</time>
      </trkpt>
      <trkpt lat="48.83285" lon="-1.41504">
        <ele>119.1</ele>
        <time>2024-01-25T13:45:19Z</time>
      </trkpt>
      <trkpt lat="48.83289" lon="-1.41504">
        <ele>119.2</ele>
        <time>2024-01-25T13:45:20Z</time>
      </trkpt>
      <trkpt lat="48.8329" lon="-1.41504">
        <ele>119.2</ele>
        <time>2024-01-25T13:45:21Z</time>
      </trkpt>
      <trkpt lat="48.83293" lon="-1.41503">
        <ele>119.2</ele>
        <time>2024-01-25T13:45:22Z</time>
      </trkpt>
      <trkpt lat="48.83296" lon="-1.41503">
        <ele>119.2</ele>
        <time>2024-01-25T13:45:23Z</time>
      </trkpt>
      <trkpt lat="48.833" lon="-1.41502">
        <ele>119.3</ele>
        <time>2024-01-25T13:45:24Z</time>
      </trkpt>
      <trkpt lat="48.83304" lon="-1.41501">
        <ele>119.3</ele>
        <time>2024-01-25T13:45:25Z</time>
      </trkpt>
      <trkpt lat="48.83307" lon="-1.415">
        <ele>119.3</ele>
        <time>2024-01-25T13:45:26Z</time>
      </trkpt>
      <trkpt lat="48.8331" lon="-1.41501">
        <ele>119.3</ele>
        <time>2024-01-25T13:45:27Z</time>
      </trkpt>
      <trkpt lat="48.83313" lon="-1.41506">
        <ele>119.4</ele>
        <time>2024-01-25T13:45:28Z</time>
      </trkpt>
      <trkpt lat="48.83314" lon="-1.41508">
        <ele>119.4</ele>
        <time>2024-01-25T13:45:29Z</time>
      </trkpt>
      <trkpt lat="48.83316" lon="-1.41507">
        <ele>119.4</ele>
        <time>2024-01-25T13:45:30Z</time>
      </trkpt>
      <trkpt lat="48.83324" lon="-1.415">
        <ele>119.5</ele>
        <time>2024-01-25T13:45:31Z</time>
      </trkpt>
      <trkpt lat="48.83331" lon="-1.41491">
        <ele>119.6</ele>
        <time>2024-01-25T13:45:32Z</time>
      </trkpt>
      <trkpt lat="48.83337" lon="-1.41481">
        <ele>119.7</ele>
        <time>2024-01-25T13:45:33Z</time>
      </trkpt>
      <trkpt lat="48.8334" lon="-1.41471">
        <ele>119.8</ele>
        <time>2024-01-25T13:45:34Z</time>
      </trkpt>
      <trkpt lat="48.83343" lon="-1.41458">
        <ele>119.9</ele>
        <time>2024-01-25T13:45:35Z</time>
      </trkpt>
      <trkpt lat="48.83342" lon="-1.41449">
        <ele>119.9</ele>
        <time>2024-01-25T13:45:36Z</time>
      </trkpt>
      <trkpt lat="48.83341" lon="-1.41441">
        <ele>120</ele>
        <time>2024-01-25T13:45:37Z</time>
      </trkpt>
      <trkpt lat="48.83339" lon="-1.41433">
        <ele>120.1</ele>
        <time>2024-01-25T13:45:38Z</time>
      </trkpt>
      <trkpt lat="48.83338" lon="-1.41425">
        <ele>120.2</ele>
        <time>2024-01-25T13:45:39Z</time>
      </trkpt>
      <trkpt lat="48.83337" lon="-1.41417">
        <ele>120.4</ele>
        <time>2024-01-25T13:45:40Z</time>
      </trkpt>
      <trkpt lat="48.83336" lon="-1.41409">
        <ele>120.5</ele>
        <time>2024-01-25T13:45:41Z</time>
      </trkpt>
      <trkpt lat="48.83335" lon="-1.41402">
        <ele>120.7</ele>
        <time>2024-01-25T13:45:42Z</time>
      </trkpt>
      <trkpt lat="48.83334" lon="-1.41394">
        <ele>120.9</ele>
        <time>2024-01-25T13:45:43Z</time>
      </trkpt>
      <trkpt lat="48.83332" lon="-1.41387">
        <ele>121</ele>
        <time>2024-01-25T13:45:44Z</time>
      </trkpt>
      <trkpt lat="48.8333" lon="-1.4138">
        <ele>121.2</ele>
        <time>2024-01-25T13:45:45Z</time>
      </trkpt>
      <trkpt lat="48.83328" lon="-1.41374">
        <ele>121.4</ele>
        <time>2024-01-25T13:45:46Z</time>
      </trkpt>
      <trkpt lat="48.83327" lon="-1.41368">
        <ele>121.6</ele>
        <time>2024-01-25T13:45:47Z</time>
      </trkpt>
      <trkpt lat="48.83325" lon="-1.41362">
        <ele>121.8</ele>
        <time>2024-01-25T13:45:48Z</time>
      </trkpt>
      <trkpt lat="48.83323" lon="-1.41356">
        <ele>122</ele>
        <time>2024-01-25T13:45:49Z</time>
      </trkpt>
      <trkpt lat="48.83321" lon="-1.41351">
        <ele>122.2</ele>
        <time>2024-01-25T13:45:50Z</time>
      </trkpt>
      <trkpt lat="48.83319" lon="-1.41345">
        <ele>122.4</ele>
        <time>2024-01-25T13:45:51Z</time>
      </trkpt>
      <trkpt lat="48.83318" lon="-1.4134">
        <ele>122.6</ele>
        <time>2024-01-25T13:45:52Z</time>
      </trkpt>
      <trkpt lat="48.83316" lon="-1.41333">
        <ele>122.8</ele>
        <time>2024-01-25T13:45:54Z</time>
      </trkpt>
      <trkpt lat="48.83314" lon="-1.4133">
        <ele>122.9</ele>
        <time>2024-01-25T13:45:55Z</time>
      </trkpt>
      <trkpt lat="48.83312" lon="-1.41325">
        <ele>123</ele>
        <time>2024-01-25T13:45:56Z</time>
      </trkpt>
      <trkpt lat="48.83309" lon="-1.41319">
        <ele>123.1</ele>
        <time>2024-01-25T13:45:57Z</time>
      </trkpt>
      <trkpt lat="48.83307" lon="-1.41313">
        <ele>123.1</ele>
        <time>2024-01-25T13:45:58Z</time>
      </trkpt>
      <trkpt lat="48.83304" lon="-1.41307">
        <ele>123.1</ele>
        <time>2024-01-25T13:45:59Z</time>
      </trkpt>
      <trkpt lat="48.83301" lon="-1.413">
        <ele>123.2</ele>
        <time>2024-01-25T13:46:00Z</time>
      </trkpt>
      <trkpt lat="48.83298" lon="-1.4129">
        <ele>123.2</ele>
        <time>2024-01-25T13:46:01Z</time>
      </trkpt>
      <trkpt lat="48.83296" lon="-1.41281">
        <ele>123.2</ele>
        <time>2024-01-25T13:46:02Z</time>
      </trkpt>
      <trkpt lat="48.83294" lon="-1.41275">
        <ele>123.2</ele>
        <time>2024-01-25T13:46:03Z</time>
      </trkpt>
      <trkpt lat="48.83292" lon="-1.41267">
        <ele>123.3</ele>
        <time>2024-01-25T13:46:04Z</time>
      </trkpt>
      <trkpt lat="48.83288" lon="-1.41257">
        <ele>123.4</ele>
        <time>2024-01-25T13:46:05Z</time>
      </trkpt>
      <trkpt lat="48.83286" lon="-1.41249">
        <ele>123.4</ele>
        <time>2024-01-25T13:46:06Z</time>
      </trkpt>
      <trkpt lat="48.83284" lon="-1.41242">
        <ele>123.4</ele>
        <time>2024-01-25T13:46:07Z</time>
      </trkpt>
      <trkpt lat="48.83283" lon="-1.41235">
        <ele>123.5</ele>
        <time>2024-01-25T13:46:08Z</time>
      </trkpt>
      <trkpt lat="48.83281" lon="-1.41228">
        <ele>123.5</ele>
        <time>2024-01-25T13:46:09Z</time>
      </trkpt>
      <trkpt lat="48.83278" lon="-1.41221">
        <ele>123.6</ele>
        <time>2024-01-25T13:46:10Z</time>
      </trkpt>
      <trkpt lat="48.83276" lon="-1.41214">
        <ele>123.6</ele>
        <time>2024-01-25T13:46:11Z</time>
      </trkpt>
      <trkpt lat="48.83274" lon="-1.41208">
        <ele>123.7</ele>
        <time>2024-01-25T13:46:12Z</time>
      </trkpt>
      <trkpt lat="48.83271" lon="-1.41201">
        <ele>123.7</ele>
        <time>2024-01-25T13:46:13Z</time>
      </trkpt>
      <trkpt lat="48.83269" lon="-1.41195">
        <ele>123.7</ele>
        <time>2024-01-25T13:46:14Z</time>
      </trkpt>
      <trkpt lat="48.83266" lon="-1.41188">
        <ele>123.7</ele>
        <time>2024-01-25T13:46:15Z</time>
      </trkpt>
      <trkpt lat="48.83264" lon="-1.41181">
        <ele>123.7</ele>
        <time>2024-01-25T13:46:16Z</time>
      </trkpt>
      <trkpt lat="48.83261" lon="-1.41174">
        <ele>123.7</ele>
        <time>2024-01-25T13:46:17Z</time>
      </trkpt>
      <trkpt lat="48.83258" lon="-1.41168">
        <ele>123.8</ele>
        <time>2024-01-25T13:46:18Z</time>
      </trkpt>
      <trkpt lat="48.83254" lon="-1.41161">
        <ele>123.8</ele>
        <time>2024-01-25T13:46:19Z</time>
      </trkpt>
      <trkpt lat="48.83251" lon="-1.41154">
        <ele>123.9</ele>
        <time>2024-01-25T13:46:20Z</time>
      </trkpt>
      <trkpt lat="48.83248" lon="-1.41147">
        <ele>124</ele>
        <time>2024-01-25T13:46:21Z</time>
      </trkpt>
      <trkpt lat="48.83245" lon="-1.41141">
        <ele>124.1</ele>
        <time>2024-01-25T13:46:22Z</time>
      </trkpt>
      <trkpt lat="48.83241" lon="-1.41134">
        <ele>124.2</ele>
        <time>2024-01-25T13:46:23Z</time>
      </trkpt>
      <trkpt lat="48.83238" lon="-1.41127">
        <ele>124.4</ele>
        <time>2024-01-25T13:46:24Z</time>
      </trkpt>
      <trkpt lat="48.83236" lon="-1.4112">
        <ele>124.4</ele>
        <time>2024-01-25T13:46:25Z</time>
      </trkpt>
      <trkpt lat="48.83232" lon="-1.41113">
        <ele>124.5</ele>
        <time>2024-01-25T13:46:26Z</time>
      </trkpt>
      <trkpt lat="48.83229" lon="-1.41106">
        <ele>124.5</ele>
        <time>2024-01-25T13:46:27Z</time>
      </trkpt>
      <trkpt lat="48.83227" lon="-1.411">
        <ele>124.6</ele>
        <time>2024-01-25T13:46:28Z</time>
      </trkpt>
      <trkpt lat="48.83224" lon="-1.41093">
        <ele>124.6</ele>
        <time>2024-01-25T13:46:29Z</time>
      </trkpt>
      <trkpt lat="48.83222" lon="-1.41086">
        <ele>124.7</ele>
        <time>2024-01-25T13:46:30Z</time>
      </trkpt>
      <trkpt lat="48.8322" lon="-1.41079">
        <ele>124.8</ele>
        <time>2024-01-25T13:46:31Z</time>
      </trkpt>
      <trkpt lat="48.83217" lon="-1.41073">
        <ele>124.8</ele>
        <time>2024-01-25T13:46:32Z</time>
      </trkpt>
      <trkpt lat="48.83213" lon="-1.41066">
        <ele>124.9</ele>
        <time>2024-01-25T13:46:33Z</time>
      </trkpt>
      <trkpt lat="48.8321" lon="-1.41059">
        <ele>125.1</ele>
        <time>2024-01-25T13:46:34Z</time>
      </trkpt>
      <trkpt lat="48.83207" lon="-1.41052">
        <ele>125.2</ele>
        <time>2024-01-25T13:46:35Z</time>
      </trkpt>
      <trkpt lat="48.83204" lon="-1.41046">
        <ele>125.3</ele>
        <time>2024-01-25T13:46:36Z</time>
      </trkpt>
      <trkpt lat="48.83202" lon="-1.41039">
        <ele>125.4</ele>
        <time>2024-01-25T13:46:37Z</time>
      </trkpt>
      <trkpt lat="48.83199" lon="-1.41033">
        <ele>125.5</ele>
        <time>2024-01-25T13:46:38Z</time>
      </trkpt>
      <trkpt lat="48.83196" lon="-1.41027">
        <ele>125.6</ele>
        <time>2024-01-25T13:46:39Z</time>
      </trkpt>
      <trkpt lat="48.83193" lon="-1.41021">
        <ele>125.7</ele>
        <time>2024-01-25T13:46:40Z</time>
      </trkpt>
      <trkpt lat="48.83191" lon="-1.41015">
        <ele>125.7</ele>
        <time>2024-01-25T13:46:41Z</time>
      </trkpt>
      <trkpt lat="48.83188" lon="-1.41009">
        <ele>125.8</ele>
        <time>2024-01-25T13:46:42Z</time>
      </trkpt>
      <trkpt lat="48.83186" lon="-1.41002">
        <ele>125.9</ele>
        <time>2024-01-25T13:46:43Z</time>
      </trkpt>
      <trkpt lat="48.83184" lon="-1.40996">
        <ele>125.9</ele>
        <time>2024-01-25T13:46:44Z</time>
      </trkpt>
      <trkpt lat="48.83183" lon="-1.4099">
        <ele>126</ele>
        <time>2024-01-25T13:46:45Z</time>
      </trkpt>
      <trkpt lat="48.83181" lon="-1.40985">
        <ele>126.1</ele>
        <time>2024-01-25T13:46:46Z</time>
      </trkpt>
      <trkpt lat="48.83179" lon="-1.4098">
        <ele>126.1</ele>
        <time>2024-01-25T13:46:47Z</time>
      </trkpt>
      <trkpt lat="48.83176" lon="-1.40975">
        <ele>126.2</ele>
        <time>2024-01-25T13:46:48Z</time>
      </trkpt>
      <trkpt lat="48.83174" lon="-1.40969">
        <ele>126.3</ele>
        <time>2024-01-25T13:46:49Z</time>
      </trkpt>
      <trkpt lat="48.83171" lon="-1.40962">
        <ele>126.4</ele>
        <time>2024-01-25T13:46:50Z</time>
      </trkpt>
      <trkpt lat="48.83168" lon="-1.40956">
        <ele>126.4</ele>
        <time>2024-01-25T13:46:51Z</time>
      </trkpt>
      <trkpt lat="48.83166" lon="-1.4095">
        <ele>126.5</ele>
        <time>2024-01-25T13:46:52Z</time>
      </trkpt>
      <trkpt lat="48.83163" lon="-1.40944">
        <ele>126.5</ele>
        <time>2024-01-25T13:46:53Z</time>
      </trkpt>
      <trkpt lat="48.83161" lon="-1.40938">
        <ele>126.5</ele>
        <time>2024-01-25T13:46:54Z</time>
      </trkpt>
      <trkpt lat="48.83158" lon="-1.40932">
        <ele>126.5</ele>
        <time>2024-01-25T13:46:55Z</time>
      </trkpt>
      <trkpt lat="48.83156" lon="-1.40926">
        <ele>126.5</ele>
        <time>2024-01-25T13:46:57Z</time>
      </trkpt>
      <trkpt lat="48.8315" lon="-1.40917">
        <ele>126.5</ele>
        <time>2024-01-25T13:46:58Z</time>
      </trkpt>
      <trkpt lat="48.83144" lon="-1.40909">
        <ele>126.4</ele>
        <time>2024-01-25T13:46:59Z</time>
      </trkpt>
      <trkpt lat="48.83139" lon="-1.40903">
        <ele>126.4</ele>
        <time>2024-01-25T13:47:00Z</time>
      </trkpt>
      <trkpt lat="48.83135" lon="-1.40896">
        <ele>126.3</ele>
        <time>2024-01-25T13:47:01Z</time>
      </trkpt>
      <trkpt lat="48.8313" lon="-1.40889">
        <ele>126.2</ele>
        <time>2024-01-25T13:47:02Z</time>
      </trkpt>
      <trkpt lat="48.83126" lon="-1.40882">
        <ele>126.2</ele>
        <time>2024-01-25T13:47:03Z</time>
      </trkpt>
      <trkpt lat="48.83122" lon="-1.40875">
        <ele>126.1</ele>
        <time>2024-01-25T13:47:04Z</time>
      </trkpt>
      <trkpt lat="48.83118" lon="-1.40867">
        <ele>126</ele>
        <time>2024-01-25T13:47:05Z</time>
      </trkpt>
      <trkpt lat="48.83114" lon="-1.4086">
        <ele>125.9</ele>
        <time>2024-01-25T13:47:06Z</time>
      </trkpt>
      <trkpt lat="48.83109" lon="-1.40854">
        <ele>125.7</ele>
        <time>2024-01-25T13:47:07Z</time>
      </trkpt>
      <trkpt lat="48.83104" lon="-1.40847">
        <ele>125.6</ele>
        <time>2024-01-25T13:47:08Z</time>
      </trkpt>
      <trkpt lat="48.83099" lon="-1.40839">
        <ele>125.4</ele>
        <time>2024-01-25T13:47:09Z</time>
      </trkpt>
      <trkpt lat="48.83095" lon="-1.40832">
        <ele>125.3</ele>
        <time>2024-01-25T13:47:10Z</time>
      </trkpt>
      <trkpt lat="48.8309" lon="-1.40825">
        <ele>125.2</ele>
        <time>2024-01-25T13:47:11Z</time>
      </trkpt>
      <trkpt lat="48.83086" lon="-1.40818">
        <ele>125.2</ele>
        <time>2024-01-25T13:47:12Z</time>
      </trkpt>
      <trkpt lat="48.83082" lon="-1.4081">
        <ele>125.2</ele>
        <time>2024-01-25T13:47:13Z</time>
      </trkpt>
      <trkpt lat="48.83078" lon="-1.40802">
        <ele>125.2</ele>
        <time>2024-01-25T13:47:14Z</time>
      </trkpt>
      <trkpt lat="48.83074" lon="-1.40794">
        <ele>125.2</ele>
        <time>2024-01-25T13:47:15Z</time>
      </trkpt>
      <trkpt lat="48.83071" lon="-1.40787">
        <ele>125.2</ele>
        <time>2024-01-25T13:47:16Z</time>
      </trkpt>
      <trkpt lat="48.83067" lon="-1.40779">
        <ele>125.2</ele>
        <time>2024-01-25T13:47:17Z</time>
      </trkpt>
      <trkpt lat="48.83062" lon="-1.40771">
        <ele>125.2</ele>
        <time>2024-01-25T13:47:18Z</time>
      </trkpt>
      <trkpt lat="48.83058" lon="-1.40764">
        <ele>125.2</ele>
        <time>2024-01-25T13:47:19Z</time>
      </trkpt>
      <trkpt lat="48.83054" lon="-1.40756">
        <ele>125.2</ele>
        <time>2024-01-25T13:47:20Z</time>
      </trkpt>
      <trkpt lat="48.8305" lon="-1.40749">
        <ele>125.2</ele>
        <time>2024-01-25T13:47:21Z</time>
      </trkpt>
      <trkpt lat="48.83047" lon="-1.40741">
        <ele>125.2</ele>
        <time>2024-01-25T13:47:22Z</time>
      </trkpt>
      <trkpt lat="48.83043" lon="-1.40734">
        <ele>125.2</ele>
        <time>2024-01-25T13:47:23Z</time>
      </trkpt>
      <trkpt lat="48.83039" lon="-1.40727">
        <ele>125.2</ele>
        <time>2024-01-25T13:47:24Z</time>
      </trkpt>
      <trkpt lat="48.83036" lon="-1.40719">
        <ele>125.2</ele>
        <time>2024-01-25T13:47:25Z</time>
      </trkpt>
      <trkpt lat="48.83032" lon="-1.40712">
        <ele>125.1</ele>
        <time>2024-01-25T13:47:26Z</time>
      </trkpt>
      <trkpt lat="48.83029" lon="-1.40705">
        <ele>125.2</ele>
        <time>2024-01-25T13:47:27Z</time>
      </trkpt>
      <trkpt lat="48.83025" lon="-1.40698">
        <ele>125.2</ele>
        <time>2024-01-25T13:47:28Z</time>
      </trkpt>
      <trkpt lat="48.83021" lon="-1.40691">
        <ele>125.2</ele>
        <time>2024-01-25T13:47:29Z</time>
      </trkpt>
      <trkpt lat="48.83017" lon="-1.40684">
        <ele>125.2</ele>
        <time>2024-01-25T13:47:30Z</time>
      </trkpt>
      <trkpt lat="48.83014" lon="-1.40676">
        <ele>125.3</ele>
        <time>2024-01-25T13:47:31Z</time>
      </trkpt>
      <trkpt lat="48.8301" lon="-1.40669">
        <ele>125.4</ele>
        <time>2024-01-25T13:47:32Z</time>
      </trkpt>
      <trkpt lat="48.83006" lon="-1.40662">
        <ele>125.4</ele>
        <time>2024-01-25T13:47:33Z</time>
      </trkpt>
      <trkpt lat="48.83002" lon="-1.40655">
        <ele>125.5</ele>
        <time>2024-01-25T13:47:34Z</time>
      </trkpt>
      <trkpt lat="48.82998" lon="-1.40647">
        <ele>125.5</ele>
        <time>2024-01-25T13:47:35Z</time>
      </trkpt>
      <trkpt lat="48.82994" lon="-1.40639">
        <ele>125.5</ele>
        <time>2024-01-25T13:47:36Z</time>
      </trkpt>
      <trkpt lat="48.82989" lon="-1.40632">
        <ele>125.4</ele>
        <time>2024-01-25T13:47:37Z</time>
      </trkpt>
      <trkpt lat="48.82985" lon="-1.40625">
        <ele>125.4</ele>
        <time>2024-01-25T13:47:38Z</time>
      </trkpt>
      <trkpt lat="48.82981" lon="-1.40618">
        <ele>125.3</ele>
        <time>2024-01-25T13:47:39Z</time>
      </trkpt>
      <trkpt lat="48.82976" lon="-1.40611">
        <ele>125.3</ele>
        <time>2024-01-25T13:47:40Z</time>
      </trkpt>
      <trkpt lat="48.82972" lon="-1.40604">
        <ele>125.2</ele>
        <time>2024-01-25T13:47:41Z</time>
      </trkpt>
      <trkpt lat="48.82968" lon="-1.40596">
        <ele>125.2</ele>
        <time>2024-01-25T13:47:42Z</time>
      </trkpt>
      <trkpt lat="48.82965" lon="-1.4059">
        <ele>125.2</ele>
        <time>2024-01-25T13:47:43Z</time>
      </trkpt>
      <trkpt lat="48.82961" lon="-1.40583">
        <ele>125.2</ele>
        <time>2024-01-25T13:47:44Z</time>
      </trkpt>
      <trkpt lat="48.82958" lon="-1.40575">
        <ele>125.2</ele>
        <time>2024-01-25T13:47:45Z</time>
      </trkpt>
      <trkpt lat="48.82955" lon="-1.40568">
        <ele>125.1</ele>
        <time>2024-01-25T13:47:46Z</time>
      </trkpt>
      <trkpt lat="48.82952" lon="-1.40562">
        <ele>125.1</ele>
        <time>2024-01-25T13:47:47Z</time>
      </trkpt>
      <trkpt lat="48.82948" lon="-1.40555">
        <ele>125</ele>
        <time>2024-01-25T13:47:48Z</time>
      </trkpt>
      <trkpt lat="48.82945" lon="-1.40547">
        <ele>124.8</ele>
        <time>2024-01-25T13:47:49Z</time>
      </trkpt>
      <trkpt lat="48.82941" lon="-1.4054">
        <ele>124.7</ele>
        <time>2024-01-25T13:47:50Z</time>
      </trkpt>
      <trkpt lat="48.82937" lon="-1.40533">
        <ele>124.5</ele>
        <time>2024-01-25T13:47:51Z</time>
      </trkpt>
      <trkpt lat="48.82934" lon="-1.40525">
        <ele>124.4</ele>
        <time>2024-01-25T13:47:52Z</time>
      </trkpt>
      <trkpt lat="48.8293" lon="-1.40517">
        <ele>124.2</ele>
        <time>2024-01-25T13:47:53Z</time>
      </trkpt>
      <trkpt lat="48.82925" lon="-1.40509">
        <ele>124</ele>
        <time>2024-01-25T13:47:54Z</time>
      </trkpt>
      <trkpt lat="48.82921" lon="-1.40501">
        <ele>123.8</ele>
        <time>2024-01-25T13:47:55Z</time>
      </trkpt>
      <trkpt lat="48.82916" lon="-1.40493">
        <ele>123.6</ele>
        <time>2024-01-25T13:47:56Z</time>
      </trkpt>
      <trkpt lat="48.82912" lon="-1.40484">
        <ele>123.5</ele>
        <time>2024-01-25T13:47:57Z</time>
      </trkpt>
      <trkpt lat="48.82908" lon="-1.40476">
        <ele>123.3</ele>
        <time>2024-01-25T13:47:58Z</time>
      </trkpt>
      <trkpt lat="48.82903" lon="-1.40468">
        <ele>123.3</ele>
        <time>2024-01-25T13:47:59Z</time>
      </trkpt>
      <trkpt lat="48.82899" lon="-1.40461">
        <ele>123.2</ele>
        <time>2024-01-25T13:48:00Z</time>
      </trkpt>
      <trkpt lat="48.82894" lon="-1.40453">
        <ele>123.1</ele>
        <time>2024-01-25T13:48:01Z</time>
      </trkpt>
      <trkpt lat="48.8289" lon="-1.40446">
        <ele>123</ele>
        <time>2024-01-25T13:48:02Z</time>
      </trkpt>
      <trkpt lat="48.82885" lon="-1.40439">
        <ele>123</ele>
        <time>2024-01-25T13:48:03Z</time>
      </trkpt>
      <trkpt lat="48.82881" lon="-1.40432">
        <ele>123</ele>
        <time>2024-01-25T13:48:04Z</time>
      </trkpt>
      <trkpt lat="48.82876" lon="-1.40424">
        <ele>123</ele>
        <time>2024-01-25T13:48:05Z</time>
      </trkpt>
      <trkpt lat="48.82872" lon="-1.40417">
        <ele>122.9</ele>
        <time>2024-01-25T13:48:06Z</time>
      </trkpt>
      <trkpt lat="48.82868" lon="-1.4041">
        <ele>122.8</ele>
        <time>2024-01-25T13:48:07Z</time>
      </trkpt>
      <trkpt lat="48.82863" lon="-1.40402">
        <ele>122.7</ele>
        <time>2024-01-25T13:48:08Z</time>
      </trkpt>
      <trkpt lat="48.82859" lon="-1.40395">
        <ele>122.6</ele>
        <time>2024-01-25T13:48:09Z</time>
      </trkpt>
      <trkpt lat="48.82855" lon="-1.40387">
        <ele>122.5</ele>
        <time>2024-01-25T13:48:10Z</time>
      </trkpt>
      <trkpt lat="48.82851" lon="-1.4038">
        <ele>122.4</ele>
        <time>2024-01-25T13:48:11Z</time>
      </trkpt>
      <trkpt lat="48.82847" lon="-1.40372">
        <ele>122.3</ele>
        <time>2024-01-25T13:48:12Z</time>
      </trkpt>
      <trkpt lat="48.82842" lon="-1.40365">
        <ele>122.3</ele>
        <time>2024-01-25T13:48:13Z</time>
      </trkpt>
      <trkpt lat="48.82837" lon="-1.40358">
        <ele>122.2</ele>
        <time>2024-01-25T13:48:14Z</time>
      </trkpt>
      <trkpt lat="48.82833" lon="-1.4035">
        <ele>122.2</ele>
        <time>2024-01-25T13:48:15Z</time>
      </trkpt>
      <trkpt lat="48.82828" lon="-1.40342">
        <ele>122.2</ele>
        <time>2024-01-25T13:48:16Z</time>
      </trkpt>
      <trkpt lat="48.82823" lon="-1.40335">
        <ele>122.3</ele>
        <time>2024-01-25T13:48:17Z</time>
      </trkpt>
      <trkpt lat="48.82819" lon="-1.40327">
        <ele>122.3</ele>
        <time>2024-01-25T13:48:18Z</time>
      </trkpt>
      <trkpt lat="48.82815" lon="-1.4032">
        <ele>122.3</ele>
        <time>2024-01-25T13:48:19Z</time>
      </trkpt>
      <trkpt lat="48.82811" lon="-1.40312">
        <ele>122.3</ele>
        <time>2024-01-25T13:48:20Z</time>
      </trkpt>
      <trkpt lat="48.82806" lon="-1.40305">
        <ele>122.3</ele>
        <time>2024-01-25T13:48:21Z</time>
      </trkpt>
      <trkpt lat="48.82802" lon="-1.40297">
        <ele>122.3</ele>
        <time>2024-01-25T13:48:22Z</time>
      </trkpt>
      <trkpt lat="48.82798" lon="-1.4029">
        <ele>122.4</ele>
        <time>2024-01-25T13:48:23Z</time>
      </trkpt>
      <trkpt lat="48.82794" lon="-1.40282">
        <ele>122.4</ele>
        <time>2024-01-25T13:48:24Z</time>
      </trkpt>
      <trkpt lat="48.8279" lon="-1.40275">
        <ele>122.5</ele>
        <time>2024-01-25T13:48:25Z</time>
      </trkpt>
      <trkpt lat="48.82786" lon="-1.40268">
        <ele>122.5</ele>
        <time>2024-01-25T13:48:26Z</time>
      </trkpt>
      <trkpt lat="48.82783" lon="-1.4026">
        <ele>122.5</ele>
        <time>2024-01-25T13:48:27Z</time>
      </trkpt>
      <trkpt lat="48.82779" lon="-1.40253">
        <ele>122.5</ele>
        <time>2024-01-25T13:48:28Z</time>
      </trkpt>
      <trkpt lat="48.82776" lon="-1.40246">
        <ele>122.5</ele>
        <time>2024-01-25T13:48:29Z</time>
      </trkpt>
      <trkpt lat="48.82773" lon="-1.40239">
        <ele>122.5</ele>
        <time>2024-01-25T13:48:30Z</time>
      </trkpt>
      <trkpt lat="48.82769" lon="-1.40232">
        <ele>122.6</ele>
        <time>2024-01-25T13:48:31Z</time>
      </trkpt>
      <trkpt lat="48.82766" lon="-1.40225">
        <ele>122.7</ele>
        <time>2024-01-25T13:48:32Z</time>
      </trkpt>
      <trkpt lat="48.82762" lon="-1.40218">
        <ele>122.8</ele>
        <time>2024-01-25T13:48:33Z</time>
      </trkpt>
      <trkpt lat="48.82758" lon="-1.40211">
        <ele>123</ele>
        <time>2024-01-25T13:48:34Z</time>
      </trkpt>
      <trkpt lat="48.82755" lon="-1.40205">
        <ele>123.1</ele>
        <time>2024-01-25T13:48:35Z</time>
      </trkpt>
      <trkpt lat="48.82751" lon="-1.40199">
        <ele>123.3</ele>
        <time>2024-01-25T13:48:36Z</time>
      </trkpt>
      <trkpt lat="48.82748" lon="-1.40194">
        <ele>123.4</ele>
        <time>2024-01-25T13:48:37Z</time>
      </trkpt>
      <trkpt lat="48.82744" lon="-1.40188">
        <ele>123.5</ele>
        <time>2024-01-25T13:48:38Z</time>
      </trkpt>
      <trkpt lat="48.8274" lon="-1.40182">
        <ele>123.7</ele>
        <time>2024-01-25T13:48:39Z</time>
      </trkpt>
      <trkpt lat="48.82736" lon="-1.40177">
        <ele>123.8</ele>
        <time>2024-01-25T13:48:40Z</time>
      </trkpt>
      <trkpt lat="48.82732" lon="-1.40172">
        <ele>124</ele>
        <time>2024-01-25T13:48:41Z</time>
      </trkpt>
      <trkpt lat="48.82728" lon="-1.40166">
        <ele>124.1</ele>
        <time>2024-01-25T13:48:42Z</time>
      </trkpt>
      <trkpt lat="48.82724" lon="-1.40161">
        <ele>124.3</ele>
        <time>2024-01-25T13:48:43Z</time>
      </trkpt>
      <trkpt lat="48.82721" lon="-1.40156">
        <ele>124.4</ele>
        <time>2024-01-25T13:48:44Z</time>
      </trkpt>
      <trkpt lat="48.82717" lon="-1.40151">
        <ele>124.5</ele>
        <time>2024-01-25T13:48:45Z</time>
      </trkpt>
      <trkpt lat="48.82714" lon="-1.40146">
        <ele>124.7</ele>
        <time>2024-01-25T13:48:46Z</time>
      </trkpt>
      <trkpt lat="48.8271" lon="-1.40141">
        <ele>124.9</ele>
        <time>2024-01-25T13:48:47Z</time>
      </trkpt>
      <trkpt lat="48.82707" lon="-1.40137">
        <ele>125</ele>
        <time>2024-01-25T13:48:48Z</time>
      </trkpt>
      <trkpt lat="48.82704" lon="-1.40132">
        <ele>125.2</ele>
        <time>2024-01-25T13:48:49Z</time>
      </trkpt>
      <trkpt lat="48.82701" lon="-1.40127">
        <ele>125.4</ele>
        <time>2024-01-25T13:48:50Z</time>
      </trkpt>
      <trkpt lat="48.82697" lon="-1.40122">
        <ele>125.6</ele>
        <time>2024-01-25T13:48:51Z</time>
      </trkpt>
      <trkpt lat="48.82694" lon="-1.40118">
        <ele>125.8</ele>
        <time>2024-01-25T13:48:52Z</time>
      </trkpt>
      <trkpt lat="48.82691" lon="-1.40112">
        <ele>126</ele>
        <time>2024-01-25T13:48:53Z</time>
      </trkpt>
      <trkpt lat="48.82688" lon="-1.40107">
        <ele>126.2</ele>
        <time>2024-01-25T13:48:54Z</time>
      </trkpt>
      <trkpt lat="48.82685" lon="-1.40101">
        <ele>126.4</ele>
        <time>2024-01-25T13:48:55Z</time>
      </trkpt>
      <trkpt lat="48.82682" lon="-1.40096">
        <ele>126.7</ele>
        <time>2024-01-25T13:48:56Z</time>
      </trkpt>
      <trkpt lat="48.82679" lon="-1.40089">
        <ele>126.9</ele>
        <time>2024-01-25T13:48:57Z</time>
      </trkpt>
      <trkpt lat="48.82677" lon="-1.40085">
        <ele>127.1</ele>
        <time>2024-01-25T13:48:58Z</time>
      </trkpt>
      <trkpt lat="48.82674" lon="-1.40079">
        <ele>127.3</ele>
        <time>2024-01-25T13:48:59Z</time>
      </trkpt>
      <trkpt lat="48.82671" lon="-1.40073">
        <ele>127.5</ele>
        <time>2024-01-25T13:49:00Z</time>
      </trkpt>
      <trkpt lat="48.82668" lon="-1.40067">
        <ele>127.8</ele>
        <time>2024-01-25T13:49:01Z</time>
      </trkpt>
      <trkpt lat="48.82665" lon="-1.40062">
        <ele>128</ele>
        <time>2024-01-25T13:49:02Z</time>
      </trkpt>
      <trkpt lat="48.82659" lon="-1.40055">
        <ele>128.4</ele>
        <time>2024-01-25T13:49:04Z</time>
      </trkpt>
      <trkpt lat="48.82656" lon="-1.4005">
        <ele>128.6</ele>
        <time>2024-01-25T13:49:05Z</time>
      </trkpt>
      <trkpt lat="48.82652" lon="-1.40045">
        <ele>128.8</ele>
        <time>2024-01-25T13:49:06Z</time>
      </trkpt>
      <trkpt lat="48.82648" lon="-1.40038">
        <ele>129.1</ele>
        <time>2024-01-25T13:49:08Z</time>
      </trkpt>
      <trkpt lat="48.82645" lon="-1.40032">
        <ele>129.4</ele>
        <time>2024-01-25T13:49:09Z</time>
      </trkpt>
      <trkpt lat="48.82643" lon="-1.40028">
        <ele>129.6</ele>
        <time>2024-01-25T13:49:10Z</time>
      </trkpt>
      <trkpt lat="48.82641" lon="-1.40024">
        <ele>129.7</ele>
        <time>2024-01-25T13:49:11Z</time>
      </trkpt>
      <trkpt lat="48.82638" lon="-1.40021">
        <ele>129.9</ele>
        <time>2024-01-25T13:49:12Z</time>
      </trkpt>
      <trkpt lat="48.82636" lon="-1.40018">
        <ele>130</ele>
        <time>2024-01-25T13:49:13Z</time>
      </trkpt>
      <trkpt lat="48.82634" lon="-1.40013">
        <ele>130</ele>
        <time>2024-01-25T13:49:14Z</time>
      </trkpt>
      <trkpt lat="48.82633" lon="-1.40012">
        <ele>130</ele>
        <time>2024-01-25T13:49:15Z</time>
      </trkpt>
      <trkpt lat="48.82631" lon="-1.40008">
        <ele>129.9</ele>
        <time>2024-01-25T13:49:16Z</time>
      </trkpt>
      <trkpt lat="48.82629" lon="-1.40003">
        <ele>129.9</ele>
        <time>2024-01-25T13:49:17Z</time>
      </trkpt>
      <trkpt lat="48.82627" lon="-1.39999">
        <ele>129.9</ele>
        <time>2024-01-25T13:49:18Z</time>
      </trkpt>
      <trkpt lat="48.82625" lon="-1.39992">
        <ele>129.8</ele>
        <time>2024-01-25T13:49:19Z</time>
      </trkpt>
      <trkpt lat="48.82624" lon="-1.39985">
        <ele>129.7</ele>
        <time>2024-01-25T13:49:20Z</time>
      </trkpt>
      <trkpt lat="48.82623" lon="-1.39977">
        <ele>129.6</ele>
        <time>2024-01-25T13:49:21Z</time>
      </trkpt>
      <trkpt lat="48.82622" lon="-1.39968">
        <ele>129.4</ele>
        <time>2024-01-25T13:49:22Z</time>
      </trkpt>
      <trkpt lat="48.82623" lon="-1.39959">
        <ele>129.2</ele>
        <time>2024-01-25T13:49:23Z</time>
      </trkpt>
      <trkpt lat="48.82625" lon="-1.39951">
        <ele>128.9</ele>
        <time>2024-01-25T13:49:24Z</time>
      </trkpt>
      <trkpt lat="48.82627" lon="-1.39943">
        <ele>128.7</ele>
        <time>2024-01-25T13:49:25Z</time>
      </trkpt>
      <trkpt lat="48.8263" lon="-1.39935">
        <ele>128.6</ele>
        <time>2024-01-25T13:49:26Z</time>
      </trkpt>
      <trkpt lat="48.82633" lon="-1.39928">
        <ele>128.4</ele>
        <time>2024-01-25T13:49:27Z</time>
      </trkpt>
      <trkpt lat="48.82636" lon="-1.39921">
        <ele>128.3</ele>
        <time>2024-01-25T13:49:28Z</time>
      </trkpt>
      <trkpt lat="48.82639" lon="-1.39913">
        <ele>128.2</ele>
        <time>2024-01-25T13:49:29Z</time>
      </trkpt>
      <trkpt lat="48.82643" lon="-1.39905">
        <ele>128.1</ele>
        <time>2024-01-25T13:49:30Z</time>
      </trkpt>
      <trkpt lat="48.82646" lon="-1.39898">
        <ele>128</ele>
        <time>2024-01-25T13:49:31Z</time>
      </trkpt>
      <trkpt lat="48.82648" lon="-1.3989">
        <ele>127.9</ele>
        <time>2024-01-25T13:49:32Z</time>
      </trkpt>
      <trkpt lat="48.82652" lon="-1.39883">
        <ele>127.8</ele>
        <time>2024-01-25T13:49:33Z</time>
      </trkpt>
      <trkpt lat="48.82655" lon="-1.39875">
        <ele>127.8</ele>
        <time>2024-01-25T13:49:34Z</time>
      </trkpt>
      <trkpt lat="48.82658" lon="-1.39867">
        <ele>127.8</ele>
        <time>2024-01-25T13:49:35Z</time>
      </trkpt>
      <trkpt lat="48.82662" lon="-1.39859">
        <ele>127.7</ele>
        <time>2024-01-25T13:49:36Z</time>
      </trkpt>
      <trkpt lat="48.82665" lon="-1.39852">
        <ele>127.7</ele>
        <time>2024-01-25T13:49:37Z</time>
      </trkpt>
      <trkpt lat="48.82668" lon="-1.39844">
        <ele>127.6</ele>
        <time>2024-01-25T13:49:38Z</time>
      </trkpt>
      <trkpt lat="48.82671" lon="-1.39836">
        <ele>127.6</ele>
        <time>2024-01-25T13:49:39Z</time>
      </trkpt>
      <trkpt lat="48.82674" lon="-1.39828">
        <ele>127.6</ele>
        <time>2024-01-25T13:49:40Z</time>
      </trkpt>
      <trkpt lat="48.82678" lon="-1.39819">
        <ele>127.5</ele>
        <time>2024-01-25T13:49:41Z</time>
      </trkpt>
      <trkpt lat="48.82681" lon="-1.39811">
        <ele>127.5</ele>
        <time>2024-01-25T13:49:42Z</time>
      </trkpt>
      <trkpt lat="48.82684" lon="-1.39802">
        <ele>127.5</ele>
        <time>2024-01-25T13:49:43Z</time>
      </trkpt>
      <trkpt lat="48.82688" lon="-1.39794">
        <ele>127.4</ele>
        <time>2024-01-25T13:49:44Z</time>
      </trkpt>
      <trkpt lat="48.82691" lon="-1.39785">
        <ele>127.4</ele>
        <time>2024-01-25T13:49:45Z</time>
      </trkpt>
      <trkpt lat="48.82695" lon="-1.39776">
        <ele>127.3</ele>
        <time>2024-01-25T13:49:46Z</time>
      </trkpt>
      <trkpt lat="48.82698" lon="-1.39767">
        <ele>127.3</ele>
        <time>2024-01-25T13:49:47Z</time>
      </trkpt>
      <trkpt lat="48.82702" lon="-1.39758">
        <ele>127.2</ele>
        <time>2024-01-25T13:49:48Z</time>
      </trkpt>
      <trkpt lat="48.82706" lon="-1.3975">
        <ele>127.1</ele>
        <time>2024-01-25T13:49:49Z</time>
      </trkpt>
      <trkpt lat="48.8271" lon="-1.39743">
        <ele>127.1</ele>
        <time>2024-01-25T13:49:50Z</time>
      </trkpt>
      <trkpt lat="48.82715" lon="-1.39735">
        <ele>127</ele>
        <time>2024-01-25T13:49:51Z</time>
      </trkpt>
      <trkpt lat="48.82719" lon="-1.39728">
        <ele>126.8</ele>
        <time>2024-01-25T13:49:52Z</time>
      </trkpt>
      <trkpt lat="48.82724" lon="-1.39721">
        <ele>126.7</ele>
        <time>2024-01-25T13:49:53Z</time>
      </trkpt>
      <trkpt lat="48.82728" lon="-1.39713">
        <ele>126.6</ele>
        <time>2024-01-25T13:49:54Z</time>
      </trkpt>
      <trkpt lat="48.82732" lon="-1.39705">
        <ele>126.5</ele>
        <time>2024-01-25T13:49:55Z</time>
      </trkpt>
      <trkpt lat="48.82736" lon="-1.39697">
        <ele>126.3</ele>
        <time>2024-01-25T13:49:56Z</time>
      </trkpt>
      <trkpt lat="48.8274" lon="-1.39689">
        <ele>126.2</ele>
        <time>2024-01-25T13:49:57Z</time>
      </trkpt>
      <trkpt lat="48.82745" lon="-1.3968">
        <ele>126</ele>
        <time>2024-01-25T13:49:58Z</time>
      </trkpt>
      <trkpt lat="48.82749" lon="-1.39672">
        <ele>125.8</ele>
        <time>2024-01-25T13:49:59Z</time>
      </trkpt>
      <trkpt lat="48.82752" lon="-1.39662">
        <ele>125.6</ele>
        <time>2024-01-25T13:50:00Z</time>
      </trkpt>
      <trkpt lat="48.82756" lon="-1.39652">
        <ele>125.4</ele>
        <time>2024-01-25T13:50:01Z</time>
      </trkpt>
      <trkpt lat="48.8276" lon="-1.39642">
        <ele>125.2</ele>
        <time>2024-01-25T13:50:02Z</time>
      </trkpt>
      <trkpt lat="48.82763" lon="-1.39632">
        <ele>124.9</ele>
        <time>2024-01-25T13:50:03Z</time>
      </trkpt>
      <trkpt lat="48.82766" lon="-1.3962">
        <ele>124.6</ele>
        <time>2024-01-25T13:50:04Z</time>
      </trkpt>
      <trkpt lat="48.82769" lon="-1.39609">
        <ele>124.3</ele>
        <time>2024-01-25T13:50:05Z</time>
      </trkpt>
      <trkpt lat="48.82772" lon="-1.39597">
        <ele>123.9</ele>
        <time>2024-01-25T13:50:06Z</time>
      </trkpt>
      <trkpt lat="48.82774" lon="-1.39585">
        <ele>123.5</ele>
        <time>2024-01-25T13:50:07Z</time>
      </trkpt>
      <trkpt lat="48.82777" lon="-1.39573">
        <ele>123.1</ele>
        <time>2024-01-25T13:50:08Z</time>
      </trkpt>
      <trkpt lat="48.8278" lon="-1.39561">
        <ele>122.7</ele>
        <time>2024-01-25T13:50:09Z</time>
      </trkpt>
      <trkpt lat="48.82784" lon="-1.39549">
        <ele>122.2</ele>
        <time>2024-01-25T13:50:10Z</time>
      </trkpt>
      <trkpt lat="48.82788" lon="-1.39536">
        <ele>121.7</ele>
        <time>2024-01-25T13:50:11Z</time>
      </trkpt>
      <trkpt lat="48.82792" lon="-1.39524">
        <ele>121.1</ele>
        <time>2024-01-25T13:50:12Z</time>
      </trkpt>
      <trkpt lat="48.82796" lon="-1.39511">
        <ele>120.5</ele>
        <time>2024-01-25T13:50:13Z</time>
      </trkpt>
      <trkpt lat="48.828" lon="-1.39498">
        <ele>119.9</ele>
        <time>2024-01-25T13:50:14Z</time>
      </trkpt>
      <trkpt lat="48.82805" lon="-1.39484">
        <ele>119.3</ele>
        <time>2024-01-25T13:50:15Z</time>
      </trkpt>
      <trkpt lat="48.8281" lon="-1.39471">
        <ele>118.7</ele>
        <time>2024-01-25T13:50:16Z</time>
      </trkpt>
      <trkpt lat="48.82815" lon="-1.39459">
        <ele>118.2</ele>
        <time>2024-01-25T13:50:17Z</time>
      </trkpt>
      <trkpt lat="48.8282" lon="-1.39447">
        <ele>117.8</ele>
        <time>2024-01-25T13:50:18Z</time>
      </trkpt>
      <trkpt lat="48.82826" lon="-1.39435">
        <ele>117.4</ele>
        <time>2024-01-25T13:50:19Z</time>
      </trkpt>
      <trkpt lat="48.82831" lon="-1.39423">
        <ele>117.1</ele>
        <time>2024-01-25T13:50:20Z</time>
      </trkpt>
      <trkpt lat="48.82836" lon="-1.39412">
        <ele>116.8</ele>
        <time>2024-01-25T13:50:21Z</time>
      </trkpt>
      <trkpt lat="48.82841" lon="-1.39401">
        <ele>116.6</ele>
        <time>2024-01-25T13:50:22Z</time>
      </trkpt>
      <trkpt lat="48.82846" lon="-1.39392">
        <ele>116.5</ele>
        <time>2024-01-25T13:50:23Z</time>
      </trkpt>
      <trkpt lat="48.8285" lon="-1.39383">
        <ele>116.3</ele>
        <time>2024-01-25T13:50:24Z</time>
      </trkpt>
      <trkpt lat="48.82855" lon="-1.39374">
        <ele>116.2</ele>
        <time>2024-01-25T13:50:25Z</time>
      </trkpt>
      <trkpt lat="48.8286" lon="-1.39366">
        <ele>116.1</ele>
        <time>2024-01-25T13:50:26Z</time>
      </trkpt>
      <trkpt lat="48.82866" lon="-1.39359">
        <ele>116.1</ele>
        <time>2024-01-25T13:50:27Z</time>
      </trkpt>
      <trkpt lat="48.82873" lon="-1.39353">
        <ele>116</ele>
        <time>2024-01-25T13:50:28Z</time>
      </trkpt>
      <trkpt lat="48.8288" lon="-1.39348">
        <ele>115.7</ele>
        <time>2024-01-25T13:50:29Z</time>
      </trkpt>
      <trkpt lat="48.82888" lon="-1.39342">
        <ele>115.4</ele>
        <time>2024-01-25T13:50:30Z</time>
      </trkpt>
      <trkpt lat="48.82897" lon="-1.39337">
        <ele>115</ele>
        <time>2024-01-25T13:50:31Z</time>
      </trkpt>
      <trkpt lat="48.82905" lon="-1.39331">
        <ele>114.7</ele>
        <time>2024-01-25T13:50:32Z</time>
      </trkpt>
      <trkpt lat="48.82912" lon="-1.39326">
        <ele>114.4</ele>
        <time>2024-01-25T13:50:33Z</time>
      </trkpt>
      <trkpt lat="48.8292" lon="-1.39319">
        <ele>114</ele>
        <time>2024-01-25T13:50:34Z</time>
      </trkpt>
      <trkpt lat="48.82928" lon="-1.39313">
        <ele>113.7</ele>
        <time>2024-01-25T13:50:35Z</time>
      </trkpt>
      <trkpt lat="48.82936" lon="-1.39307">
        <ele>113.3</ele>
        <time>2024-01-25T13:50:36Z</time>
      </trkpt>
      <trkpt lat="48.82944" lon="-1.393">
        <ele>112.9</ele>
        <time>2024-01-25T13:50:37Z</time>
      </trkpt>
      <trkpt lat="48.82952" lon="-1.39292">
        <ele>112.5</ele>
        <time>2024-01-25T13:50:38Z</time>
      </trkpt>
      <trkpt lat="48.8296" lon="-1.39283">
        <ele>112</ele>
        <time>2024-01-25T13:50:39Z</time>
      </trkpt>
      <trkpt lat="48.82968" lon="-1.39274">
        <ele>111.4</ele>
        <time>2024-01-25T13:50:40Z</time>
      </trkpt>
      <trkpt lat="48.82976" lon="-1.39266">
        <ele>110.8</ele>
        <time>2024-01-25T13:50:41Z</time>
      </trkpt>
      <trkpt lat="48.82985" lon="-1.39257">
        <ele>110.2</ele>
        <time>2024-01-25T13:50:42Z</time>
      </trkpt>
      <trkpt lat="48.82993" lon="-1.39249">
        <ele>109.6</ele>
        <time>2024-01-25T13:50:43Z</time>
      </trkpt>
      <trkpt lat="48.83001" lon="-1.39241">
        <ele>109</ele>
        <time>2024-01-25T13:50:44Z</time>
      </trkpt>
      <trkpt lat="48.83009" lon="-1.39233">
        <ele>108.4</ele>
        <time>2024-01-25T13:50:45Z</time>
      </trkpt>
      <trkpt lat="48.83016" lon="-1.39225">
        <ele>107.7</ele>
        <time>2024-01-25T13:50:46Z</time>
      </trkpt>
      <trkpt lat="48.83023" lon="-1.39217">
        <ele>107</ele>
        <time>2024-01-25T13:50:47Z</time>
      </trkpt>
      <trkpt lat="48.83031" lon="-1.39208">
        <ele>106.2</ele>
        <time>2024-01-25T13:50:48Z</time>
      </trkpt>
      <trkpt lat="48.83038" lon="-1.39198">
        <ele>105.4</ele>
        <time>2024-01-25T13:50:49Z</time>
      </trkpt>
      <trkpt lat="48.83046" lon="-1.39186">
        <ele>104.5</ele>
        <time>2024-01-25T13:50:50Z</time>
      </trkpt>
      <trkpt lat="48.83054" lon="-1.39174">
        <ele>103.7</ele>
        <time>2024-01-25T13:50:51Z</time>
      </trkpt>
      <trkpt lat="48.83061" lon="-1.39161">
        <ele>103</ele>
        <time>2024-01-25T13:50:52Z</time>
      </trkpt>
      <trkpt lat="48.83067" lon="-1.39147">
        <ele>102.4</ele>
        <time>2024-01-25T13:50:53Z</time>
      </trkpt>
      <trkpt lat="48.83072" lon="-1.39132">
        <ele>102</ele>
        <time>2024-01-25T13:50:54Z</time>
      </trkpt>
      <trkpt lat="48.83078" lon="-1.39118">
        <ele>101.6</ele>
        <time>2024-01-25T13:50:55Z</time>
      </trkpt>
      <trkpt lat="48.83085" lon="-1.39105">
        <ele>101.3</ele>
        <time>2024-01-25T13:50:56Z</time>
      </trkpt>
      <trkpt lat="48.83093" lon="-1.39094">
        <ele>101</ele>
        <time>2024-01-25T13:50:57Z</time>
      </trkpt>
      <trkpt lat="48.83101" lon="-1.39085">
        <ele>100.7</ele>
        <time>2024-01-25T13:50:58Z</time>
      </trkpt>
      <trkpt lat="48.8311" lon="-1.39077">
        <ele>100.4</ele>
        <time>2024-01-25T13:50:59Z</time>
      </trkpt>
      <trkpt lat="48.83118" lon="-1.39067">
        <ele>100.1</ele>
        <time>2024-01-25T13:51:00Z</time>
      </trkpt>
      <trkpt lat="48.83126" lon="-1.39057">
        <ele>99.6</ele>
        <time>2024-01-25T13:51:01Z</time>
      </trkpt>
      <trkpt lat="48.83134" lon="-1.39047">
        <ele>99.2</ele>
        <time>2024-01-25T13:51:02Z</time>
      </trkpt>
      <trkpt lat="48.83142" lon="-1.39038">
        <ele>98.7</ele>
        <time>2024-01-25T13:51:03Z</time>
      </trkpt>
      <trkpt lat="48.83151" lon="-1.39031">
        <ele>98.1</ele>
        <time>2024-01-25T13:51:04Z</time>
      </trkpt>
      <trkpt lat="48.8316" lon="-1.39025">
        <ele>97.5</ele>
        <time>2024-01-25T13:51:05Z</time>
      </trkpt>
      <trkpt lat="48.8317" lon="-1.39021">
        <ele>96.7</ele>
        <time>2024-01-25T13:51:06Z</time>
      </trkpt>
      <trkpt lat="48.83181" lon="-1.3902">
        <ele>95.9</ele>
        <time>2024-01-25T13:51:07Z</time>
      </trkpt>
      <trkpt lat="48.83191" lon="-1.3902">
        <ele>95.1</ele>
        <time>2024-01-25T13:51:08Z</time>
      </trkpt>
      <trkpt lat="48.83202" lon="-1.39021">
        <ele>94.2</ele>
        <time>2024-01-25T13:51:09Z</time>
      </trkpt>
      <trkpt lat="48.83214" lon="-1.39023">
        <ele>93.3</ele>
        <time>2024-01-25T13:51:10Z</time>
      </trkpt>
      <trkpt lat="48.83225" lon="-1.39027">
        <ele>92.6</ele>
        <time>2024-01-25T13:51:11Z</time>
      </trkpt>
      <trkpt lat="48.83235" lon="-1.39031">
        <ele>91.9</ele>
        <time>2024-01-25T13:51:12Z</time>
      </trkpt>
      <trkpt lat="48.83245" lon="-1.39035">
        <ele>91.3</ele>
        <time>2024-01-25T13:51:13Z</time>
      </trkpt>
      <trkpt lat="48.83255" lon="-1.39038">
        <ele>90.8</ele>
        <time>2024-01-25T13:51:14Z</time>
      </trkpt>
      <trkpt lat="48.83264" lon="-1.39039">
        <ele>90.3</ele>
        <time>2024-01-25T13:51:15Z</time>
      </trkpt>
      <trkpt lat="48.83274" lon="-1.39038">
        <ele>89.9</ele>
        <time>2024-01-25T13:51:16Z</time>
      </trkpt>
      <trkpt lat="48.83283" lon="-1.39035">
        <ele>89.6</ele>
        <time>2024-01-25T13:51:17Z</time>
      </trkpt>
      <trkpt lat="48.83293" lon="-1.39028">
        <ele>89.5</ele>
        <time>2024-01-25T13:51:18Z</time>
      </trkpt>
      <trkpt lat="48.833" lon="-1.39019">
        <ele>89.6</ele>
        <time>2024-01-25T13:51:19Z</time>
      </trkpt>
      <trkpt lat="48.83306" lon="-1.39009">
        <ele>89.8</ele>
        <time>2024-01-25T13:51:20Z</time>
      </trkpt>
      <trkpt lat="48.83312" lon="-1.38998">
        <ele>90</ele>
        <time>2024-01-25T13:51:21Z</time>
      </trkpt>
      <trkpt lat="48.83317" lon="-1.38989">
        <ele>90.3</ele>
        <time>2024-01-25T13:51:22Z</time>
      </trkpt>
      <trkpt lat="48.83322" lon="-1.3898">
        <ele>90.6</ele>
        <time>2024-01-25T13:51:23Z</time>
      </trkpt>
      <trkpt lat="48.83327" lon="-1.38971">
        <ele>90.9</ele>
        <time>2024-01-25T13:51:24Z</time>
      </trkpt>
      <trkpt lat="48.83331" lon="-1.38964">
        <ele>91.2</ele>
        <time>2024-01-25T13:51:25Z</time>
      </trkpt>
      <trkpt lat="48.83336" lon="-1.38957">
        <ele>91.6</ele>
        <time>2024-01-25T13:51:26Z</time>
      </trkpt>
      <trkpt lat="48.83341" lon="-1.3895">
        <ele>91.9</ele>
        <time>2024-01-25T13:51:27Z</time>
      </trkpt>
      <trkpt lat="48.83346" lon="-1.38943">
        <ele>92.2</ele>
        <time>2024-01-25T13:51:28Z</time>
      </trkpt>
      <trkpt lat="48.8335" lon="-1.38937">
        <ele>92.5</ele>
        <time>2024-01-25T13:51:29Z</time>
      </trkpt>
      <trkpt lat="48.83355" lon="-1.38932">
        <ele>92.8</ele>
        <time>2024-01-25T13:51:30Z</time>
      </trkpt>
      <trkpt lat="48.83359" lon="-1.38927">
        <ele>93.1</ele>
        <time>2024-01-25T13:51:31Z</time>
      </trkpt>
      <trkpt lat="48.83364" lon="-1.38923">
        <ele>93.4</ele>
        <time>2024-01-25T13:51:32Z</time>
      </trkpt>
      <trkpt lat="48.83368" lon="-1.3892">
        <ele>93.7</ele>
        <time>2024-01-25T13:51:33Z</time>
      </trkpt>
      <trkpt lat="48.83373" lon="-1.38916">
        <ele>94</ele>
        <time>2024-01-25T13:51:34Z</time>
      </trkpt>
      <trkpt lat="48.83378" lon="-1.38912">
        <ele>94.3</ele>
        <time>2024-01-25T13:51:35Z</time>
      </trkpt>
      <trkpt lat="48.83381" lon="-1.38908">
        <ele>94.7</ele>
        <time>2024-01-25T13:51:36Z</time>
      </trkpt>
      <trkpt lat="48.83385" lon="-1.38905">
        <ele>95</ele>
        <time>2024-01-25T13:51:37Z</time>
      </trkpt>
      <trkpt lat="48.83388" lon="-1.38903">
        <ele>95.2</ele>
        <time>2024-01-25T13:51:38Z</time>
      </trkpt>
      <trkpt lat="48.8339" lon="-1.38901">
        <ele>95.5</ele>
        <time>2024-01-25T13:51:39Z</time>
      </trkpt>
      <trkpt lat="48.83393" lon="-1.38898">
        <ele>95.8</ele>
        <time>2024-01-25T13:51:40Z</time>
      </trkpt>
      <trkpt lat="48.83394" lon="-1.38897">
        <ele>95.9</ele>
        <time>2024-01-25T13:51:41Z</time>
      </trkpt>
      <trkpt lat="48.83397" lon="-1.38894">
        <ele>96.2</ele>
        <time>2024-01-25T13:51:42Z</time>
      </trkpt>
      <trkpt lat="48.83399" lon="-1.38892">
        <ele>96.5</ele>
        <time>2024-01-25T13:51:44Z</time>
      </trkpt>
      <trkpt lat="48.834" lon="-1.38885">
        <ele>97.8</ele>
        <time>2024-01-25T13:51:45Z</time>
      </trkpt>
      <trkpt lat="48.83399" lon="-1.38881">
        <ele>97.8</ele>
        <time>2024-01-25T13:51:46Z</time>
      </trkpt>
      <trkpt lat="48.83396" lon="-1.38877">
        <ele>97.8</ele>
        <time>2024-01-25T13:51:47Z</time>
      </trkpt>
      <trkpt lat="48.8339" lon="-1.38874">
        <ele>97.8</ele>
        <time>2024-01-25T13:51:48Z</time>
      </trkpt>
      <trkpt lat="48.83382" lon="-1.38872">
        <ele>97.7</ele>
        <time>2024-01-25T13:51:49Z</time>
      </trkpt>
      <trkpt lat="48.83377" lon="-1.3887">
        <ele>97.7</ele>
        <time>2024-01-25T13:51:50Z</time>
      </trkpt>
      <trkpt lat="48.83371" lon="-1.38869">
        <ele>97.7</ele>
        <time>2024-01-25T13:51:51Z</time>
      </trkpt>
      <trkpt lat="48.83366" lon="-1.38868">
        <ele>97.8</ele>
        <time>2024-01-25T13:51:52Z</time>
      </trkpt>
      <trkpt lat="48.8336" lon="-1.38866">
        <ele>97.8</ele>
        <time>2024-01-25T13:51:53Z</time>
      </trkpt>
      <trkpt lat="48.83356" lon="-1.38864">
        <ele>97.9</ele>
        <time>2024-01-25T13:51:54Z</time>
      </trkpt>
      <trkpt lat="48.83351" lon="-1.38862">
        <ele>98</ele>
        <time>2024-01-25T13:51:55Z</time>
      </trkpt>
      <trkpt lat="48.83347" lon="-1.3886">
        <ele>98.1</ele>
        <time>2024-01-25T13:51:56Z</time>
      </trkpt>
      <trkpt lat="48.83342" lon="-1.38857">
        <ele>98.2</ele>
        <time>2024-01-25T13:51:57Z</time>
      </trkpt>
      <trkpt lat="48.83338" lon="-1.38853">
        <ele>98.3</ele>
        <time>2024-01-25T13:51:58Z</time>
      </trkpt>
      <trkpt lat="48.83334" lon="-1.38849">
        <ele>98.5</ele>
        <time>2024-01-25T13:51:59Z</time>
      </trkpt>
      <trkpt lat="48.8333" lon="-1.38844">
        <ele>98.7</ele>
        <time>2024-01-25T13:52:00Z</time>
      </trkpt>
      <trkpt lat="48.83325" lon="-1.3884">
        <ele>99</ele>
        <time>2024-01-25T13:52:01Z</time>
      </trkpt>
      <trkpt lat="48.83321" lon="-1.38835">
        <ele>99.2</ele>
        <time>2024-01-25T13:52:02Z</time>
      </trkpt>
      <trkpt lat="48.83317" lon="-1.38832">
        <ele>99.4</ele>
        <time>2024-01-25T13:52:03Z</time>
      </trkpt>
      <trkpt lat="48.83312" lon="-1.38828">
        <ele>99.6</ele>
        <time>2024-01-25T13:52:04Z</time>
      </trkpt>
      <trkpt lat="48.83308" lon="-1.38825">
        <ele>99.8</ele>
        <time>2024-01-25T13:52:05Z</time>
      </trkpt>
      <trkpt lat="48.83303" lon="-1.38822">
        <ele>99.9</ele>
        <time>2024-01-25T13:52:06Z</time>
      </trkpt>
      <trkpt lat="48.83299" lon="-1.38818">
        <ele>100</ele>
        <time>2024-01-25T13:52:07Z</time>
      </trkpt>
      <trkpt lat="48.83295" lon="-1.38814">
        <ele>100.1</ele>
        <time>2024-01-25T13:52:08Z</time>
      </trkpt>
      <trkpt lat="48.83292" lon="-1.3881">
        <ele>100.1</ele>
        <time>2024-01-25T13:52:09Z</time>
      </trkpt>
      <trkpt lat="48.83288" lon="-1.38806">
        <ele>100.1</ele>
        <time>2024-01-25T13:52:10Z</time>
      </trkpt>
      <trkpt lat="48.83284" lon="-1.38802">
        <ele>100.1</ele>
        <time>2024-01-25T13:52:11Z</time>
      </trkpt>
      <trkpt lat="48.8328" lon="-1.38798">
        <ele>100.1</ele>
        <time>2024-01-25T13:52:12Z</time>
      </trkpt>
      <trkpt lat="48.83275" lon="-1.38793">
        <ele>100</ele>
        <time>2024-01-25T13:52:13Z</time>
      </trkpt>
      <trkpt lat="48.83271" lon="-1.38788">
        <ele>99.9</ele>
        <time>2024-01-25T13:52:14Z</time>
      </trkpt>
      <trkpt lat="48.83267" lon="-1.38784">
        <ele>99.9</ele>
        <time>2024-01-25T13:52:15Z</time>
      </trkpt>
      <trkpt lat="48.83263" lon="-1.38779">
        <ele>99.8</ele>
        <time>2024-01-25T13:52:16Z</time>
      </trkpt>
      <trkpt lat="48.83258" lon="-1.38774">
        <ele>99.7</ele>
        <time>2024-01-25T13:52:17Z</time>
      </trkpt>
      <trkpt lat="48.83254" lon="-1.38769">
        <ele>99.6</ele>
        <time>2024-01-25T13:52:18Z</time>
      </trkpt>
      <trkpt lat="48.83249" lon="-1.38764">
        <ele>99.6</ele>
        <time>2024-01-25T13:52:19Z</time>
      </trkpt>
      <trkpt lat="48.83244" lon="-1.38759">
        <ele>99.5</ele>
        <time>2024-01-25T13:52:20Z</time>
      </trkpt>
      <trkpt lat="48.8324" lon="-1.38754">
        <ele>99.5</ele>
        <time>2024-01-25T13:52:21Z</time>
      </trkpt>
      <trkpt lat="48.83235" lon="-1.38749">
        <ele>99.5</ele>
        <time>2024-01-25T13:52:22Z</time>
      </trkpt>
      <trkpt lat="48.8323" lon="-1.38744">
        <ele>99.5</ele>
        <time>2024-01-25T13:52:23Z</time>
      </trkpt>
      <trkpt lat="48.83225" lon="-1.38739">
        <ele>99.5</ele>
        <time>2024-01-25T13:52:24Z</time>
      </trkpt>
      <trkpt lat="48.83221" lon="-1.38734">
        <ele>99.5</ele>
        <time>2024-01-25T13:52:25Z</time>
      </trkpt>
      <trkpt lat="48.83216" lon="-1.38729">
        <ele>99.5</ele>
        <time>2024-01-25T13:52:26Z</time>
      </trkpt>
      <trkpt lat="48.83212" lon="-1.38723">
        <ele>99.5</ele>
        <time>2024-01-25T13:52:27Z</time>
      </trkpt>
      <trkpt lat="48.83208" lon="-1.38718">
        <ele>99.6</ele>
        <time>2024-01-25T13:52:28Z</time>
      </trkpt>
      <trkpt lat="48.83204" lon="-1.38712">
        <ele>99.6</ele>
        <time>2024-01-25T13:52:29Z</time>
      </trkpt>
      <trkpt lat="48.832" lon="-1.38706">
        <ele>99.6</ele>
        <time>2024-01-25T13:52:30Z</time>
      </trkpt>
      <trkpt lat="48.83196" lon="-1.38699">
        <ele>99.7</ele>
        <time>2024-01-25T13:52:31Z</time>
      </trkpt>
      <trkpt lat="48.83193" lon="-1.38692">
        <ele>99.7</ele>
        <time>2024-01-25T13:52:32Z</time>
      </trkpt>
      <trkpt lat="48.8319" lon="-1.38685">
        <ele>99.8</ele>
        <time>2024-01-25T13:52:33Z</time>
      </trkpt>
      <trkpt lat="48.83187" lon="-1.38677">
        <ele>99.8</ele>
        <time>2024-01-25T13:52:34Z</time>
      </trkpt>
      <trkpt lat="48.83184" lon="-1.38669">
        <ele>99.9</ele>
        <time>2024-01-25T13:52:35Z</time>
      </trkpt>
      <trkpt lat="48.83181" lon="-1.38662">
        <ele>100</ele>
        <time>2024-01-25T13:52:36Z</time>
      </trkpt>
      <trkpt lat="48.83177" lon="-1.38656">
        <ele>100</ele>
        <time>2024-01-25T13:52:37Z</time>
      </trkpt>
      <trkpt lat="48.83173" lon="-1.3865">
        <ele>100</ele>
        <time>2024-01-25T13:52:38Z</time>
      </trkpt>
      <trkpt lat="48.8317" lon="-1.38644">
        <ele>100</ele>
        <time>2024-01-25T13:52:39Z</time>
      </trkpt>
      <trkpt lat="48.83166" lon="-1.38639">
        <ele>100</ele>
        <time>2024-01-25T13:52:40Z</time>
      </trkpt>
      <trkpt lat="48.83161" lon="-1.38634">
        <ele>100</ele>
        <time>2024-01-25T13:52:41Z</time>
      </trkpt>
      <trkpt lat="48.83157" lon="-1.38629">
        <ele>100</ele>
        <time>2024-01-25T13:52:42Z</time>
      </trkpt>
      <trkpt lat="48.83152" lon="-1.38625">
        <ele>100</ele>
        <time>2024-01-25T13:52:43Z</time>
      </trkpt>
      <trkpt lat="48.83147" lon="-1.3862">
        <ele>100</ele>
        <time>2024-01-25T13:52:44Z</time>
      </trkpt>
      <trkpt lat="48.83141" lon="-1.38615">
        <ele>100</ele>
        <time>2024-01-25T13:52:45Z</time>
      </trkpt>
      <trkpt lat="48.83136" lon="-1.38611">
        <ele>100</ele>
        <time>2024-01-25T13:52:46Z</time>
      </trkpt>
      <trkpt lat="48.83131" lon="-1.38606">
        <ele>100</ele>
        <time>2024-01-25T13:52:47Z</time>
      </trkpt>
      <trkpt lat="48.83126" lon="-1.38602">
        <ele>100</ele>
        <time>2024-01-25T13:52:48Z</time>
      </trkpt>
      <trkpt lat="48.83121" lon="-1.38598">
        <ele>100</ele>
        <time>2024-01-25T13:52:49Z</time>
      </trkpt>
      <trkpt lat="48.83117" lon="-1.38594">
        <ele>100</ele>
        <time>2024-01-25T13:52:50Z</time>
      </trkpt>
      <trkpt lat="48.83112" lon="-1.3859">
        <ele>100</ele>
        <time>2024-01-25T13:52:51Z</time>
      </trkpt>
      <trkpt lat="48.83106" lon="-1.38587">
        <ele>99.9</ele>
        <time>2024-01-25T13:52:52Z</time>
      </trkpt>
      <trkpt lat="48.83101" lon="-1.38583">
        <ele>99.9</ele>
        <time>2024-01-25T13:52:53Z</time>
      </trkpt>
      <trkpt lat="48.83095" lon="-1.38579">
        <ele>99.7</ele>
        <time>2024-01-25T13:52:54Z</time>
      </trkpt>
      <trkpt lat="48.83089" lon="-1.38576">
        <ele>99.6</ele>
        <time>2024-01-25T13:52:55Z</time>
      </trkpt>
      <trkpt lat="48.83082" lon="-1.38573">
        <ele>99.6</ele>
        <time>2024-01-25T13:52:56Z</time>
      </trkpt>
      <trkpt lat="48.83075" lon="-1.38571">
        <ele>99.6</ele>
        <time>2024-01-25T13:52:57Z</time>
      </trkpt>
      <trkpt lat="48.83069" lon="-1.38569">
        <ele>99.6</ele>
        <time>2024-01-25T13:52:58Z</time>
      </trkpt>
      <trkpt lat="48.83063" lon="-1.38566">
        <ele>99.6</ele>
        <time>2024-01-25T13:52:59Z</time>
      </trkpt>
      <trkpt lat="48.83058" lon="-1.38565">
        <ele>99.7</ele>
        <time>2024-01-25T13:53:00Z</time>
      </trkpt>
      <trkpt lat="48.83053" lon="-1.38564">
        <ele>99.7</ele>
        <time>2024-01-25T13:53:01Z</time>
      </trkpt>
      <trkpt lat="48.83047" lon="-1.38563">
        <ele>99.8</ele>
        <time>2024-01-25T13:53:02Z</time>
      </trkpt>
      <trkpt lat="48.83042" lon="-1.38561">
        <ele>99.9</ele>
        <time>2024-01-25T13:53:03Z</time>
      </trkpt>
      <trkpt lat="48.83036" lon="-1.3856">
        <ele>100</ele>
        <time>2024-01-25T13:53:04Z</time>
      </trkpt>
      <trkpt lat="48.8303" lon="-1.38559">
        <ele>100.2</ele>
        <time>2024-01-25T13:53:05Z</time>
      </trkpt>
      <trkpt lat="48.83024" lon="-1.38558">
        <ele>100.2</ele>
        <time>2024-01-25T13:53:06Z</time>
      </trkpt>
      <trkpt lat="48.83017" lon="-1.38557">
        <ele>100.3</ele>
        <time>2024-01-25T13:53:07Z</time>
      </trkpt>
      <trkpt lat="48.83012" lon="-1.38555">
        <ele>100.3</ele>
        <time>2024-01-25T13:53:08Z</time>
      </trkpt>
      <trkpt lat="48.83006" lon="-1.38555">
        <ele>100.2</ele>
        <time>2024-01-25T13:53:09Z</time>
      </trkpt>
      <trkpt lat="48.83" lon="-1.38554">
        <ele>100</ele>
        <time>2024-01-25T13:53:10Z</time>
      </trkpt>
      <trkpt lat="48.82994" lon="-1.38553">
        <ele>99.8</ele>
        <time>2024-01-25T13:53:11Z</time>
      </trkpt>
      <trkpt lat="48.82987" lon="-1.38553">
        <ele>99.5</ele>
        <time>2024-01-25T13:53:12Z</time>
      </trkpt>
      <trkpt lat="48.8298" lon="-1.38552">
        <ele>99.3</ele>
        <time>2024-01-25T13:53:13Z</time>
      </trkpt>
      <trkpt lat="48.82973" lon="-1.38551">
        <ele>99.1</ele>
        <time>2024-01-25T13:53:14Z</time>
      </trkpt>
      <trkpt lat="48.82967" lon="-1.38551">
        <ele>98.8</ele>
        <time>2024-01-25T13:53:15Z</time>
      </trkpt>
      <trkpt lat="48.8296" lon="-1.38551">
        <ele>98.5</ele>
        <time>2024-01-25T13:53:16Z</time>
      </trkpt>
      <trkpt lat="48.82953" lon="-1.3855">
        <ele>98.3</ele>
        <time>2024-01-25T13:53:17Z</time>
      </trkpt>
      <trkpt lat="48.82946" lon="-1.38551">
        <ele>98.1</ele>
        <time>2024-01-25T13:53:18Z</time>
      </trkpt>
      <trkpt lat="48.82939" lon="-1.38551">
        <ele>98</ele>
        <time>2024-01-25T13:53:19Z</time>
      </trkpt>
      <trkpt lat="48.82932" lon="-1.38552">
        <ele>98</ele>
        <time>2024-01-25T13:53:20Z</time>
      </trkpt>
      <trkpt lat="48.82925" lon="-1.38553">
        <ele>98</ele>
        <time>2024-01-25T13:53:21Z</time>
      </trkpt>
      <trkpt lat="48.82918" lon="-1.38555">
        <ele>98.1</ele>
        <time>2024-01-25T13:53:22Z</time>
      </trkpt>
      <trkpt lat="48.82911" lon="-1.38557">
        <ele>98.2</ele>
        <time>2024-01-25T13:53:23Z</time>
      </trkpt>
      <trkpt lat="48.82904" lon="-1.38559">
        <ele>98.4</ele>
        <time>2024-01-25T13:53:24Z</time>
      </trkpt>
      <trkpt lat="48.82898" lon="-1.38561">
        <ele>98.6</ele>
        <time>2024-01-25T13:53:25Z</time>
      </trkpt>
      <trkpt lat="48.82892" lon="-1.38563">
        <ele>98.8</ele>
        <time>2024-01-25T13:53:26Z</time>
      </trkpt>
      <trkpt lat="48.82886" lon="-1.38564">
        <ele>99.1</ele>
        <time>2024-01-25T13:53:27Z</time>
      </trkpt>
      <trkpt lat="48.82881" lon="-1.38567">
        <ele>99.4</ele>
        <time>2024-01-25T13:53:28Z</time>
      </trkpt>
      <trkpt lat="48.82876" lon="-1.38568">
        <ele>99.7</ele>
        <time>2024-01-25T13:53:29Z</time>
      </trkpt>
      <trkpt lat="48.8287" lon="-1.3857">
        <ele>100.1</ele>
        <time>2024-01-25T13:53:30Z</time>
      </trkpt>
      <trkpt lat="48.82866" lon="-1.38572">
        <ele>100.4</ele>
        <time>2024-01-25T13:53:31Z</time>
      </trkpt>
      <trkpt lat="48.82861" lon="-1.38574">
        <ele>100.7</ele>
        <time>2024-01-25T13:53:32Z</time>
      </trkpt>
      <trkpt lat="48.82857" lon="-1.38575">
        <ele>101</ele>
        <time>2024-01-25T13:53:33Z</time>
      </trkpt>
      <trkpt lat="48.82853" lon="-1.38577">
        <ele>101.3</ele>
        <time>2024-01-25T13:53:34Z</time>
      </trkpt>
      <trkpt lat="48.8285" lon="-1.38579">
        <ele>101.6</ele>
        <time>2024-01-25T13:53:35Z</time>
      </trkpt>
      <trkpt lat="48.82846" lon="-1.38582">
        <ele>101.8</ele>
        <time>2024-01-25T13:53:36Z</time>
      </trkpt>
      <trkpt lat="48.82843" lon="-1.38583">
        <ele>102.1</ele>
        <time>2024-01-25T13:53:37Z</time>
      </trkpt>
      <trkpt lat="48.82839" lon="-1.38585">
        <ele>102.3</ele>
        <time>2024-01-25T13:53:38Z</time>
      </trkpt>
      <trkpt lat="48.82836" lon="-1.38587">
        <ele>102.6</ele>
        <time>2024-01-25T13:53:39Z</time>
      </trkpt>
      <trkpt lat="48.82831" lon="-1.38588">
        <ele>102.9</ele>
        <time>2024-01-25T13:53:41Z</time>
      </trkpt>
      <trkpt lat="48.82828" lon="-1.38588">
        <ele>103.1</ele>
        <time>2024-01-25T13:53:42Z</time>
      </trkpt>
      <trkpt lat="48.82823" lon="-1.38589">
        <ele>103.5</ele>
        <time>2024-01-25T13:53:43Z</time>
      </trkpt>
      <trkpt lat="48.8282" lon="-1.38589">
        <ele>103.7</ele>
        <time>2024-01-25T13:53:44Z</time>
      </trkpt>
      <trkpt lat="48.82816" lon="-1.3859">
        <ele>104.1</ele>
        <time>2024-01-25T13:53:45Z</time>
      </trkpt>
      <trkpt lat="48.82811" lon="-1.3859">
        <ele>104.4</ele>
        <time>2024-01-25T13:53:46Z</time>
      </trkpt>
      <trkpt lat="48.82807" lon="-1.3859">
        <ele>104.7</ele>
        <time>2024-01-25T13:53:47Z</time>
      </trkpt>
      <trkpt lat="48.82802" lon="-1.38591">
        <ele>105.1</ele>
        <time>2024-01-25T13:53:48Z</time>
      </trkpt>
      <trkpt lat="48.82798" lon="-1.38591">
        <ele>105.4</ele>
        <time>2024-01-25T13:53:49Z</time>
      </trkpt>
      <trkpt lat="48.82792" lon="-1.38592">
        <ele>105.6</ele>
        <time>2024-01-25T13:53:50Z</time>
      </trkpt>
      <trkpt lat="48.82788" lon="-1.38593">
        <ele>105.8</ele>
        <time>2024-01-25T13:53:51Z</time>
      </trkpt>
      <trkpt lat="48.82783" lon="-1.38592">
        <ele>105.9</ele>
        <time>2024-01-25T13:53:52Z</time>
      </trkpt>
      <trkpt lat="48.82779" lon="-1.38591">
        <ele>106.1</ele>
        <time>2024-01-25T13:53:53Z</time>
      </trkpt>
      <trkpt lat="48.8277" lon="-1.38591">
        <ele>106.3</ele>
        <time>2024-01-25T13:53:54Z</time>
      </trkpt>
      <trkpt lat="48.82765" lon="-1.38591">
        <ele>106.5</ele>
        <time>2024-01-25T13:53:55Z</time>
      </trkpt>
      <trkpt lat="48.8276" lon="-1.38591">
        <ele>106.5</ele>
        <time>2024-01-25T13:53:56Z</time>
      </trkpt>
      <trkpt lat="48.82756" lon="-1.38592">
        <ele>106.6</ele>
        <time>2024-01-25T13:53:58Z</time>
      </trkpt>
      <trkpt lat="48.82748" lon="-1.38591">
        <ele>106.7</ele>
        <time>2024-01-25T13:53:59Z</time>
      </trkpt>
      <trkpt lat="48.82742" lon="-1.38592">
        <ele>106.8</ele>
        <time>2024-01-25T13:54:00Z</time>
      </trkpt>
      <trkpt lat="48.82737" lon="-1.38593">
        <ele>106.8</ele>
        <time>2024-01-25T13:54:01Z</time>
      </trkpt>
      <trkpt lat="48.82732" lon="-1.38593">
        <ele>106.9</ele>
        <time>2024-01-25T13:54:02Z</time>
      </trkpt>
      <trkpt lat="48.82728" lon="-1.38593">
        <ele>106.9</ele>
        <time>2024-01-25T13:54:03Z</time>
      </trkpt>
      <trkpt lat="48.82722" lon="-1.38592">
        <ele>106.9</ele>
        <time>2024-01-25T13:54:04Z</time>
      </trkpt>
      <trkpt lat="48.82716" lon="-1.38593">
        <ele>107</ele>
        <time>2024-01-25T13:54:05Z</time>
      </trkpt>
      <trkpt lat="48.82711" lon="-1.38593">
        <ele>107.1</ele>
        <time>2024-01-25T13:54:06Z</time>
      </trkpt>
      <trkpt lat="48.82706" lon="-1.38594">
        <ele>107.2</ele>
        <time>2024-01-25T13:54:07Z</time>
      </trkpt>
      <trkpt lat="48.82702" lon="-1.38594">
        <ele>107.3</ele>
        <time>2024-01-25T13:54:08Z</time>
      </trkpt>
      <trkpt lat="48.82694" lon="-1.38592">
        <ele>107.5</ele>
        <time>2024-01-25T13:54:10Z</time>
      </trkpt>
      <trkpt lat="48.82689" lon="-1.38592">
        <ele>107.7</ele>
        <time>2024-01-25T13:54:11Z</time>
      </trkpt>
      <trkpt lat="48.82684" lon="-1.3859">
        <ele>107.9</ele>
        <time>2024-01-25T13:54:12Z</time>
      </trkpt>
      <trkpt lat="48.82679" lon="-1.38588">
        <ele>108.2</ele>
        <time>2024-01-25T13:54:13Z</time>
      </trkpt>
      <trkpt lat="48.82674" lon="-1.38587">
        <ele>108.4</ele>
        <time>2024-01-25T13:54:14Z</time>
      </trkpt>
      <trkpt lat="48.8267" lon="-1.38586">
        <ele>108.6</ele>
        <time>2024-01-25T13:54:15Z</time>
      </trkpt>
      <trkpt lat="48.82665" lon="-1.38585">
        <ele>108.9</ele>
        <time>2024-01-25T13:54:16Z</time>
      </trkpt>
      <trkpt lat="48.8266" lon="-1.38583">
        <ele>109.1</ele>
        <time>2024-01-25T13:54:17Z</time>
      </trkpt>
      <trkpt lat="48.82656" lon="-1.38582">
        <ele>109.3</ele>
        <time>2024-01-25T13:54:19Z</time>
      </trkpt>
      <trkpt lat="48.82652" lon="-1.3858">
        <ele>109.5</ele>
        <time>2024-01-25T13:54:20Z</time>
      </trkpt>
      <trkpt lat="48.82648" lon="-1.38578">
        <ele>109.8</ele>
        <time>2024-01-25T13:54:21Z</time>
      </trkpt>
      <trkpt lat="48.82644" lon="-1.38575">
        <ele>110.1</ele>
        <time>2024-01-25T13:54:22Z</time>
      </trkpt>
      <trkpt lat="48.82638" lon="-1.38572">
        <ele>110.4</ele>
        <time>2024-01-25T13:54:23Z</time>
      </trkpt>
      <trkpt lat="48.82634" lon="-1.3857">
        <ele>110.7</ele>
        <time>2024-01-25T13:54:24Z</time>
      </trkpt>
      <trkpt lat="48.82631" lon="-1.38566">
        <ele>110.9</ele>
        <time>2024-01-25T13:54:25Z</time>
      </trkpt>
      <trkpt lat="48.82627" lon="-1.38563">
        <ele>111.1</ele>
        <time>2024-01-25T13:54:26Z</time>
      </trkpt>
      <trkpt lat="48.82624" lon="-1.38559">
        <ele>111.3</ele>
        <time>2024-01-25T13:54:27Z</time>
      </trkpt>
      <trkpt lat="48.82621" lon="-1.38557">
        <ele>111.5</ele>
        <time>2024-01-25T13:54:28Z</time>
      </trkpt>
      <trkpt lat="48.82617" lon="-1.38553">
        <ele>111.8</ele>
        <time>2024-01-25T13:54:29Z</time>
      </trkpt>
      <trkpt lat="48.82613" lon="-1.3855">
        <ele>112</ele>
        <time>2024-01-25T13:54:30Z</time>
      </trkpt>
      <trkpt lat="48.8261" lon="-1.38546">
        <ele>112.2</ele>
        <time>2024-01-25T13:54:31Z</time>
      </trkpt>
      <trkpt lat="48.82607" lon="-1.38542">
        <ele>112.4</ele>
        <time>2024-01-25T13:54:32Z</time>
      </trkpt>
      <trkpt lat="48.82603" lon="-1.38538">
        <ele>112.7</ele>
        <time>2024-01-25T13:54:33Z</time>
      </trkpt>
      <trkpt lat="48.826" lon="-1.38533">
        <ele>112.9</ele>
        <time>2024-01-25T13:54:34Z</time>
      </trkpt>
      <trkpt lat="48.82597" lon="-1.3853">
        <ele>113.1</ele>
        <time>2024-01-25T13:54:35Z</time>
      </trkpt>
      <trkpt lat="48.82594" lon="-1.38526">
        <ele>113.4</ele>
        <time>2024-01-25T13:54:36Z</time>
      </trkpt>
      <trkpt lat="48.8259" lon="-1.38522">
        <ele>113.7</ele>
        <time>2024-01-25T13:54:37Z</time>
      </trkpt>
      <trkpt lat="48.82587" lon="-1.38518">
        <ele>114</ele>
        <time>2024-01-25T13:54:38Z</time>
      </trkpt>
      <trkpt lat="48.82584" lon="-1.38515">
        <ele>114.2</ele>
        <time>2024-01-25T13:54:39Z</time>
      </trkpt>
      <trkpt lat="48.82581" lon="-1.38513">
        <ele>114.4</ele>
        <time>2024-01-25T13:54:40Z</time>
      </trkpt>
      <trkpt lat="48.82578" lon="-1.3851">
        <ele>114.6</ele>
        <time>2024-01-25T13:54:41Z</time>
      </trkpt>
      <trkpt lat="48.82575" lon="-1.38507">
        <ele>114.7</ele>
        <time>2024-01-25T13:54:42Z</time>
      </trkpt>
      <trkpt lat="48.82571" lon="-1.38503">
        <ele>114.9</ele>
        <time>2024-01-25T13:54:43Z</time>
      </trkpt>
      <trkpt lat="48.82568" lon="-1.385">
        <ele>115</ele>
        <time>2024-01-25T13:54:44Z</time>
      </trkpt>
      <trkpt lat="48.82564" lon="-1.38496">
        <ele>115.1</ele>
        <time>2024-01-25T13:54:45Z</time>
      </trkpt>
      <trkpt lat="48.82561" lon="-1.38492">
        <ele>115.2</ele>
        <time>2024-01-25T13:54:46Z</time>
      </trkpt>
      <trkpt lat="48.82557" lon="-1.38488">
        <ele>115.3</ele>
        <time>2024-01-25T13:54:47Z</time>
      </trkpt>
      <trkpt lat="48.82553" lon="-1.38485">
        <ele>115.5</ele>
        <time>2024-01-25T13:54:48Z</time>
      </trkpt>
      <trkpt lat="48.8255" lon="-1.38482">
        <ele>115.6</ele>
        <time>2024-01-25T13:54:49Z</time>
      </trkpt>
      <trkpt lat="48.82546" lon="-1.38479">
        <ele>115.8</ele>
        <time>2024-01-25T13:54:50Z</time>
      </trkpt>
      <trkpt lat="48.82542" lon="-1.38475">
        <ele>116</ele>
        <time>2024-01-25T13:54:51Z</time>
      </trkpt>
      <trkpt lat="48.82539" lon="-1.3847">
        <ele>116.1</ele>
        <time>2024-01-25T13:54:52Z</time>
      </trkpt>
      <trkpt lat="48.82534" lon="-1.38465">
        <ele>116.3</ele>
        <time>2024-01-25T13:54:53Z</time>
      </trkpt>
      <trkpt lat="48.8253" lon="-1.3846">
        <ele>116.5</ele>
        <time>2024-01-25T13:54:54Z</time>
      </trkpt>
      <trkpt lat="48.82526" lon="-1.38456">
        <ele>116.7</ele>
        <time>2024-01-25T13:54:55Z</time>
      </trkpt>
      <trkpt lat="48.82523" lon="-1.38452">
        <ele>116.8</ele>
        <time>2024-01-25T13:54:56Z</time>
      </trkpt>
      <trkpt lat="48.82518" lon="-1.38449">
        <ele>117</ele>
        <time>2024-01-25T13:54:57Z</time>
      </trkpt>
      <trkpt lat="48.82515" lon="-1.38445">
        <ele>117.1</ele>
        <time>2024-01-25T13:54:58Z</time>
      </trkpt>
      <trkpt lat="48.82511" lon="-1.38441">
        <ele>117.3</ele>
        <time>2024-01-25T13:54:59Z</time>
      </trkpt>
      <trkpt lat="48.82507" lon="-1.38437">
        <ele>117.4</ele>
        <time>2024-01-25T13:55:00Z</time>
      </trkpt>
      <trkpt lat="48.82503" lon="-1.38434">
        <ele>117.5</ele>
        <time>2024-01-25T13:55:01Z</time>
      </trkpt>
      <trkpt lat="48.82497" lon="-1.38429">
        <ele>117.7</ele>
        <time>2024-01-25T13:55:03Z</time>
      </trkpt>
      <trkpt lat="48.82492" lon="-1.38427">
        <ele>117.8</ele>
        <time>2024-01-25T13:55:04Z</time>
      </trkpt>
      <trkpt lat="48.82488" lon="-1.38425">
        <ele>117.9</ele>
        <time>2024-01-25T13:55:05Z</time>
      </trkpt>
      <trkpt lat="48.82482" lon="-1.38422">
        <ele>118.1</ele>
        <time>2024-01-25T13:55:06Z</time>
      </trkpt>
      <trkpt lat="48.82477" lon="-1.3842">
        <ele>118.3</ele>
        <time>2024-01-25T13:55:07Z</time>
      </trkpt>
      <trkpt lat="48.82472" lon="-1.38418">
        <ele>118.5</ele>
        <time>2024-01-25T13:55:08Z</time>
      </trkpt>
      <trkpt lat="48.82468" lon="-1.38416">
        <ele>118.7</ele>
        <time>2024-01-25T13:55:09Z</time>
      </trkpt>
      <trkpt lat="48.82463" lon="-1.38414">
        <ele>118.8</ele>
        <time>2024-01-25T13:55:10Z</time>
      </trkpt>
      <trkpt lat="48.82458" lon="-1.38412">
        <ele>118.9</ele>
        <time>2024-01-25T13:55:11Z</time>
      </trkpt>
      <trkpt lat="48.82454" lon="-1.3841">
        <ele>119</ele>
        <time>2024-01-25T13:55:13Z</time>
      </trkpt>
      <trkpt lat="48.8245" lon="-1.38408">
        <ele>119.1</ele>
        <time>2024-01-25T13:55:14Z</time>
      </trkpt>
      <trkpt lat="48.82446" lon="-1.38406">
        <ele>119.2</ele>
        <time>2024-01-25T13:55:15Z</time>
      </trkpt>
      <trkpt lat="48.82442" lon="-1.38404">
        <ele>119.3</ele>
        <time>2024-01-25T13:55:16Z</time>
      </trkpt>
      <trkpt lat="48.82439" lon="-1.38403">
        <ele>119.4</ele>
        <time>2024-01-25T13:55:17Z</time>
      </trkpt>
      <trkpt lat="48.82435" lon="-1.38403">
        <ele>119.5</ele>
        <time>2024-01-25T13:55:18Z</time>
      </trkpt>
      <trkpt lat="48.82435" lon="-1.38402">
        <ele>119.5</ele>
        <time>2024-01-25T13:55:19Z</time>
      </trkpt>
      <trkpt lat="48.82434" lon="-1.38401">
        <ele>119.5</ele>
        <time>2024-01-25T13:55:20Z</time>
      </trkpt>
      <trkpt lat="48.82434" lon="-1.38402">
        <ele>119.5</ele>
        <time>2024-01-25T13:55:21Z</time>
      </trkpt>
      <trkpt lat="48.82434" lon="-1.38402">
        <ele>119.5</ele>
        <time>2024-01-25T13:55:22Z</time>
      </trkpt>
      <trkpt lat="48.82433" lon="-1.38402">
        <ele>119.5</ele>
        <time>2024-01-25T13:55:23Z</time>
      </trkpt>
      <trkpt lat="48.82433" lon="-1.38402">
        <ele>119.5</ele>
        <time>2024-01-25T13:55:24Z</time>
      </trkpt>
      <trkpt lat="48.82433" lon="-1.38402">
        <ele>119.5</ele>
        <time>2024-01-25T13:55:25Z</time>
      </trkpt>
      <trkpt lat="48.82433" lon="-1.38402">
        <ele>119.5</ele>
        <time>2024-01-25T13:55:26Z</time>
      </trkpt>
      <trkpt lat="48.82433" lon="-1.38402">
        <ele>119.5</ele>
        <time>2024-01-25T13:55:27Z</time>
      </trkpt>
      <trkpt lat="48.82433" lon="-1.38402">
        <ele>119.5</ele>
        <time>2024-01-25T13:55:28Z</time>
      </trkpt>
      <trkpt lat="48.82433" lon="-1.38402">
        <ele>119.5</ele>
        <time>2024-01-25T13:55:29Z</time>
      </trkpt>
      <trkpt lat="48.82432" lon="-1.38402">
        <ele>119.5</ele>
        <time>2024-01-25T13:55:30Z</time>
      </trkpt>
      <trkpt lat="48.82432" lon="-1.38402">
        <ele>119.5</ele>
        <time>2024-01-25T13:55:31Z</time>
      </trkpt>
      <trkpt lat="48.82432" lon="-1.38402">
        <ele>119.5</ele>
        <time>2024-01-25T13:55:32Z</time>
      </trkpt>
      <trkpt lat="48.82432" lon="-1.38402">
        <ele>119.5</ele>
        <time>2024-01-25T13:55:33Z</time>
      </trkpt>
      <trkpt lat="48.82432" lon="-1.38402">
        <ele>119.5</ele>
        <time>2024-01-25T13:55:34Z</time>
      </trkpt>
      <trkpt lat="48.82432" lon="-1.38402">
        <ele>119.5</ele>
        <time>2024-01-25T13:55:35Z</time>
      </trkpt>
      <trkpt lat="48.82432" lon="-1.38402">
        <ele>119.5</ele>
        <time>2024-01-25T13:55:36Z</time>
      </trkpt>
      <trkpt lat="48.82432" lon="-1.38402">
        <ele>119.5</ele>
        <time>2024-01-25T13:55:37Z</time>
      </trkpt>
      <trkpt lat="48.82431" lon="-1.38402">
        <ele>119.5</ele>
        <time>2024-01-25T13:55:38Z</time>
      </trkpt>
      <trkpt lat="48.82431" lon="-1.38402">
        <ele>119.5</ele>
        <time>2024-01-25T13:55:39Z</time>
      </trkpt>
      <trkpt lat="48.82431" lon="-1.38403">
        <ele>119.5</ele>
        <time>2024-01-25T13:55:40Z</time>
      </trkpt>
      <trkpt lat="48.82431" lon="-1.38403">
        <ele>119.5</ele>
        <time>2024-01-25T13:55:41Z</time>
      </trkpt>
      <trkpt lat="48.82431" lon="-1.38403">
        <ele>119.5</ele>
        <time>2024-01-25T13:55:42Z</time>
      </trkpt>
      <trkpt lat="48.82431" lon="-1.38403">
        <ele>119.5</ele>
        <time>2024-01-25T13:55:43Z</time>
      </trkpt>
      <trkpt lat="48.82431" lon="-1.38403">
        <ele>119.5</ele>
        <time>2024-01-25T13:55:44Z</time>
      </trkpt>
      <trkpt lat="48.82431" lon="-1.38403">
        <ele>119.5</ele>
        <time>2024-01-25T13:55:45Z</time>
      </trkpt>
      <trkpt lat="48.8243" lon="-1.38403">
        <ele>119.5</ele>
        <time>2024-01-25T13:55:46Z</time>
      </trkpt>
      <trkpt lat="48.8243" lon="-1.38403">
        <ele>119.5</ele>
        <time>2024-01-25T13:55:47Z</time>
      </trkpt>
      <trkpt lat="48.8243" lon="-1.38403">
        <ele>119.5</ele>
        <time>2024-01-25T13:55:48Z</time>
      </trkpt>
      <trkpt lat="48.8243" lon="-1.38403">
        <ele>119.5</ele>
        <time>2024-01-25T13:55:49Z</time>
      </trkpt>
      <trkpt lat="48.8243" lon="-1.38403">
        <ele>119.5</ele>
        <time>2024-01-25T13:55:50Z</time>
      </trkpt>
      <trkpt lat="48.8243" lon="-1.38403">
        <ele>119.5</ele>
        <time>2024-01-25T13:55:51Z</time>
      </trkpt>
      <trkpt lat="48.82427" lon="-1.38404">
        <ele>119.5</ele>
        <time>2024-01-25T13:55:52Z</time>
      </trkpt>
      <trkpt lat="48.82426" lon="-1.38405">
        <ele>119.5</ele>
        <time>2024-01-25T13:55:53Z</time>
      </trkpt>
      <trkpt lat="48.82422" lon="-1.38408">
        <ele>119.4</ele>
        <time>2024-01-25T13:55:54Z</time>
      </trkpt>
      <trkpt lat="48.82421" lon="-1.3841">
        <ele>119.4</ele>
        <time>2024-01-25T13:55:55Z</time>
      </trkpt>
      <trkpt lat="48.82415" lon="-1.38414">
        <ele>119.4</ele>
        <time>2024-01-25T13:55:57Z</time>
      </trkpt>
      <trkpt lat="48.82411" lon="-1.38417">
        <ele>119.4</ele>
        <time>2024-01-25T13:55:58Z</time>
      </trkpt>
      <trkpt lat="48.82408" lon="-1.3842">
        <ele>119.3</ele>
        <time>2024-01-25T13:55:59Z</time>
      </trkpt>
      <trkpt lat="48.82403" lon="-1.38423">
        <ele>119.3</ele>
        <time>2024-01-25T13:56:00Z</time>
      </trkpt>
      <trkpt lat="48.824" lon="-1.38425">
        <ele>119.3</ele>
        <time>2024-01-25T13:56:01Z</time>
      </trkpt>
      <trkpt lat="48.82395" lon="-1.38429">
        <ele>119.2</ele>
        <time>2024-01-25T13:56:02Z</time>
      </trkpt>
      <trkpt lat="48.8239" lon="-1.38432">
        <ele>119.2</ele>
        <time>2024-01-25T13:56:03Z</time>
      </trkpt>
      <trkpt lat="48.82386" lon="-1.38436">
        <ele>119.1</ele>
        <time>2024-01-25T13:56:04Z</time>
      </trkpt>
      <trkpt lat="48.82382" lon="-1.38439">
        <ele>119.1</ele>
        <time>2024-01-25T13:56:05Z</time>
      </trkpt>
      <trkpt lat="48.82377" lon="-1.38442">
        <ele>119.1</ele>
        <time>2024-01-25T13:56:06Z</time>
      </trkpt>
      <trkpt lat="48.82372" lon="-1.38446">
        <ele>119</ele>
        <time>2024-01-25T13:56:07Z</time>
      </trkpt>
      <trkpt lat="48.82367" lon="-1.3845">
        <ele>118.9</ele>
        <time>2024-01-25T13:56:08Z</time>
      </trkpt>
      <trkpt lat="48.82362" lon="-1.38453">
        <ele>118.9</ele>
        <time>2024-01-25T13:56:09Z</time>
      </trkpt>
      <trkpt lat="48.82357" lon="-1.38456">
        <ele>118.8</ele>
        <time>2024-01-25T13:56:10Z</time>
      </trkpt>
      <trkpt lat="48.82352" lon="-1.38459">
        <ele>118.7</ele>
        <time>2024-01-25T13:56:11Z</time>
      </trkpt>
      <trkpt lat="48.82348" lon="-1.38462">
        <ele>118.7</ele>
        <time>2024-01-25T13:56:12Z</time>
      </trkpt>
      <trkpt lat="48.82343" lon="-1.38465">
        <ele>118.6</ele>
        <time>2024-01-25T13:56:13Z</time>
      </trkpt>
      <trkpt lat="48.82338" lon="-1.38467">
        <ele>118.6</ele>
        <time>2024-01-25T13:56:14Z</time>
      </trkpt>
      <trkpt lat="48.82334" lon="-1.38469">
        <ele>118.5</ele>
        <time>2024-01-25T13:56:15Z</time>
      </trkpt>
      <trkpt lat="48.8233" lon="-1.38469">
        <ele>118.5</ele>
        <time>2024-01-25T13:56:16Z</time>
      </trkpt>
      <trkpt lat="48.82326" lon="-1.38465">
        <ele>118.4</ele>
        <time>2024-01-25T13:56:17Z</time>
      </trkpt>
      <trkpt lat="48.82324" lon="-1.3846">
        <ele>118</ele>
        <time>2024-01-25T13:56:18Z</time>
      </trkpt>
      <trkpt lat="48.82323" lon="-1.38453">
        <ele>117.9</ele>
        <time>2024-01-25T13:56:19Z</time>
      </trkpt>
      <trkpt lat="48.82324" lon="-1.38447">
        <ele>117.8</ele>
        <time>2024-01-25T13:56:20Z</time>
      </trkpt>
      <trkpt lat="48.82325" lon="-1.3844">
        <ele>117.6</ele>
        <time>2024-01-25T13:56:21Z</time>
      </trkpt>
      <trkpt lat="48.82326" lon="-1.38433">
        <ele>117.5</ele>
        <time>2024-01-25T13:56:22Z</time>
      </trkpt>
      <trkpt lat="48.82327" lon="-1.38426">
        <ele>117.4</ele>
        <time>2024-01-25T13:56:23Z</time>
      </trkpt>
      <trkpt lat="48.82327" lon="-1.3842">
        <ele>117.3</ele>
        <time>2024-01-25T13:56:24Z</time>
      </trkpt>
      <trkpt lat="48.82328" lon="-1.38413">
        <ele>117.3</ele>
        <time>2024-01-25T13:56:25Z</time>
      </trkpt>
      <trkpt lat="48.82329" lon="-1.38406">
        <ele>117.2</ele>
        <time>2024-01-25T13:56:26Z</time>
      </trkpt>
      <trkpt lat="48.8233" lon="-1.38399">
        <ele>117.2</ele>
        <time>2024-01-25T13:56:27Z</time>
      </trkpt>
      <trkpt lat="48.82331" lon="-1.38391">
        <ele>117.1</ele>
        <time>2024-01-25T13:56:28Z</time>
      </trkpt>
      <trkpt lat="48.82332" lon="-1.38384">
        <ele>117.1</ele>
        <time>2024-01-25T13:56:29Z</time>
      </trkpt>
      <trkpt lat="48.82332" lon="-1.38377">
        <ele>117</ele>
        <time>2024-01-25T13:56:30Z</time>
      </trkpt>
      <trkpt lat="48.82333" lon="-1.38369">
        <ele>117</ele>
        <time>2024-01-25T13:56:31Z</time>
      </trkpt>
      <trkpt lat="48.82334" lon="-1.38361">
        <ele>116.9</ele>
        <time>2024-01-25T13:56:32Z</time>
      </trkpt>
      <trkpt lat="48.82334" lon="-1.38353">
        <ele>116.9</ele>
        <time>2024-01-25T13:56:33Z</time>
      </trkpt>
      <trkpt lat="48.82335" lon="-1.38345">
        <ele>116.9</ele>
        <time>2024-01-25T13:56:34Z</time>
      </trkpt>
      <trkpt lat="48.82335" lon="-1.38337">
        <ele>116.9</ele>
        <time>2024-01-25T13:56:35Z</time>
      </trkpt>
      <trkpt lat="48.82335" lon="-1.38329">
        <ele>116.9</ele>
        <time>2024-01-25T13:56:36Z</time>
      </trkpt>
      <trkpt lat="48.82335" lon="-1.3832">
        <ele>116.9</ele>
        <time>2024-01-25T13:56:37Z</time>
      </trkpt>
      <trkpt lat="48.82336" lon="-1.38312">
        <ele>117</ele>
        <time>2024-01-25T13:56:38Z</time>
      </trkpt>
      <trkpt lat="48.82336" lon="-1.38303">
        <ele>117</ele>
        <time>2024-01-25T13:56:39Z</time>
      </trkpt>
      <trkpt lat="48.82336" lon="-1.38294">
        <ele>117</ele>
        <time>2024-01-25T13:56:40Z</time>
      </trkpt>
      <trkpt lat="48.82337" lon="-1.38284">
        <ele>117.1</ele>
        <time>2024-01-25T13:56:41Z</time>
      </trkpt>
      <trkpt lat="48.82337" lon="-1.38275">
        <ele>117.1</ele>
        <time>2024-01-25T13:56:42Z</time>
      </trkpt>
      <trkpt lat="48.82338" lon="-1.38266">
        <ele>117.2</ele>
        <time>2024-01-25T13:56:43Z</time>
      </trkpt>
      <trkpt lat="48.82338" lon="-1.38257">
        <ele>117.2</ele>
        <time>2024-01-25T13:56:44Z</time>
      </trkpt>
      <trkpt lat="48.82338" lon="-1.38248">
        <ele>117.3</ele>
        <time>2024-01-25T13:56:45Z</time>
      </trkpt>
      <trkpt lat="48.82339" lon="-1.38239">
        <ele>117.4</ele>
        <time>2024-01-25T13:56:46Z</time>
      </trkpt>
      <trkpt lat="48.8234" lon="-1.3823">
        <ele>117.5</ele>
        <time>2024-01-25T13:56:47Z</time>
      </trkpt>
      <trkpt lat="48.82341" lon="-1.38221">
        <ele>117.6</ele>
        <time>2024-01-25T13:56:48Z</time>
      </trkpt>
      <trkpt lat="48.82342" lon="-1.38212">
        <ele>117.6</ele>
        <time>2024-01-25T13:56:49Z</time>
      </trkpt>
      <trkpt lat="48.82342" lon="-1.38203">
        <ele>117.7</ele>
        <time>2024-01-25T13:56:50Z</time>
      </trkpt>
      <trkpt lat="48.82343" lon="-1.38194">
        <ele>117.8</ele>
        <time>2024-01-25T13:56:51Z</time>
      </trkpt>
      <trkpt lat="48.82344" lon="-1.38185">
        <ele>117.9</ele>
        <time>2024-01-25T13:56:52Z</time>
      </trkpt>
      <trkpt lat="48.82344" lon="-1.38176">
        <ele>117.9</ele>
        <time>2024-01-25T13:56:53Z</time>
      </trkpt>
      <trkpt lat="48.82345" lon="-1.38168">
        <ele>118</ele>
        <time>2024-01-25T13:56:54Z</time>
      </trkpt>
      <trkpt lat="48.82345" lon="-1.38159">
        <ele>118.1</ele>
        <time>2024-01-25T13:56:55Z</time>
      </trkpt>
      <trkpt lat="48.82345" lon="-1.38151">
        <ele>118.2</ele>
        <time>2024-01-25T13:56:56Z</time>
      </trkpt>
      <trkpt lat="48.82346" lon="-1.38143">
        <ele>118.3</ele>
        <time>2024-01-25T13:56:57Z</time>
      </trkpt>
      <trkpt lat="48.82346" lon="-1.38134">
        <ele>118.5</ele>
        <time>2024-01-25T13:56:58Z</time>
      </trkpt>
      <trkpt lat="48.82346" lon="-1.38125">
        <ele>118.7</ele>
        <time>2024-01-25T13:56:59Z</time>
      </trkpt>
      <trkpt lat="48.82347" lon="-1.38116">
        <ele>118.8</ele>
        <time>2024-01-25T13:57:00Z</time>
      </trkpt>
      <trkpt lat="48.82347" lon="-1.38107">
        <ele>119.1</ele>
        <time>2024-01-25T13:57:01Z</time>
      </trkpt>
      <trkpt lat="48.82346" lon="-1.38098">
        <ele>119.3</ele>
        <time>2024-01-25T13:57:02Z</time>
      </trkpt>
      <trkpt lat="48.82346" lon="-1.38088">
        <ele>119.5</ele>
        <time>2024-01-25T13:57:03Z</time>
      </trkpt>
      <trkpt lat="48.82346" lon="-1.38078">
        <ele>119.8</ele>
        <time>2024-01-25T13:57:04Z</time>
      </trkpt>
      <trkpt lat="48.82346" lon="-1.38068">
        <ele>120</ele>
        <time>2024-01-25T13:57:05Z</time>
      </trkpt>
      <trkpt lat="48.82345" lon="-1.38058">
        <ele>120.3</ele>
        <time>2024-01-25T13:57:06Z</time>
      </trkpt>
      <trkpt lat="48.82346" lon="-1.38048">
        <ele>120.6</ele>
        <time>2024-01-25T13:57:07Z</time>
      </trkpt>
      <trkpt lat="48.82346" lon="-1.38039">
        <ele>120.8</ele>
        <time>2024-01-25T13:57:08Z</time>
      </trkpt>
      <trkpt lat="48.82346" lon="-1.38031">
        <ele>121.1</ele>
        <time>2024-01-25T13:57:09Z</time>
      </trkpt>
      <trkpt lat="48.82346" lon="-1.38023">
        <ele>121.3</ele>
        <time>2024-01-25T13:57:10Z</time>
      </trkpt>
      <trkpt lat="48.82346" lon="-1.38015">
        <ele>121.6</ele>
        <time>2024-01-25T13:57:11Z</time>
      </trkpt>
      <trkpt lat="48.82347" lon="-1.38009">
        <ele>121.8</ele>
        <time>2024-01-25T13:57:12Z</time>
      </trkpt>
      <trkpt lat="48.82347" lon="-1.38003">
        <ele>121.9</ele>
        <time>2024-01-25T13:57:13Z</time>
      </trkpt>
      <trkpt lat="48.82346" lon="-1.37998">
        <ele>122.1</ele>
        <time>2024-01-25T13:57:14Z</time>
      </trkpt>
      <trkpt lat="48.82346" lon="-1.37993">
        <ele>122.2</ele>
        <time>2024-01-25T13:57:15Z</time>
      </trkpt>
      <trkpt lat="48.82346" lon="-1.37987">
        <ele>122.4</ele>
        <time>2024-01-25T13:57:16Z</time>
      </trkpt>
      <trkpt lat="48.82346" lon="-1.37981">
        <ele>122.5</ele>
        <time>2024-01-25T13:57:17Z</time>
      </trkpt>
      <trkpt lat="48.82347" lon="-1.37976">
        <ele>122.6</ele>
        <time>2024-01-25T13:57:18Z</time>
      </trkpt>
      <trkpt lat="48.82348" lon="-1.37972">
        <ele>122.7</ele>
        <time>2024-01-25T13:57:20Z</time>
      </trkpt>
      <trkpt lat="48.82348" lon="-1.37967">
        <ele>122.8</ele>
        <time>2024-01-25T13:57:21Z</time>
      </trkpt>
      <trkpt lat="48.82349" lon="-1.37959">
        <ele>123</ele>
        <time>2024-01-25T13:57:22Z</time>
      </trkpt>
      <trkpt lat="48.82349" lon="-1.37955">
        <ele>123.1</ele>
        <time>2024-01-25T13:57:23Z</time>
      </trkpt>
      <trkpt lat="48.82349" lon="-1.3795">
        <ele>123.2</ele>
        <time>2024-01-25T13:57:24Z</time>
      </trkpt>
      <trkpt lat="48.8235" lon="-1.37943">
        <ele>123.3</ele>
        <time>2024-01-25T13:57:25Z</time>
      </trkpt>
      <trkpt lat="48.8235" lon="-1.37937">
        <ele>123.4</ele>
        <time>2024-01-25T13:57:26Z</time>
      </trkpt>
      <trkpt lat="48.82351" lon="-1.3793">
        <ele>123.5</ele>
        <time>2024-01-25T13:57:27Z</time>
      </trkpt>
      <trkpt lat="48.82351" lon="-1.37921">
        <ele>123.7</ele>
        <time>2024-01-25T13:57:28Z</time>
      </trkpt>
      <trkpt lat="48.82352" lon="-1.37914">
        <ele>123.8</ele>
        <time>2024-01-25T13:57:29Z</time>
      </trkpt>
      <trkpt lat="48.82353" lon="-1.37907">
        <ele>124</ele>
        <time>2024-01-25T13:57:30Z</time>
      </trkpt>
      <trkpt lat="48.82353" lon="-1.379">
        <ele>124.1</ele>
        <time>2024-01-25T13:57:31Z</time>
      </trkpt>
      <trkpt lat="48.82354" lon="-1.37893">
        <ele>124.2</ele>
        <time>2024-01-25T13:57:32Z</time>
      </trkpt>
      <trkpt lat="48.82354" lon="-1.37885">
        <ele>124.3</ele>
        <time>2024-01-25T13:57:33Z</time>
      </trkpt>
      <trkpt lat="48.82354" lon="-1.37878">
        <ele>124.4</ele>
        <time>2024-01-25T13:57:34Z</time>
      </trkpt>
      <trkpt lat="48.82354" lon="-1.37871">
        <ele>124.5</ele>
        <time>2024-01-25T13:57:35Z</time>
      </trkpt>
      <trkpt lat="48.82355" lon="-1.37864">
        <ele>124.6</ele>
        <time>2024-01-25T13:57:36Z</time>
      </trkpt>
      <trkpt lat="48.82355" lon="-1.37857">
        <ele>124.7</ele>
        <time>2024-01-25T13:57:37Z</time>
      </trkpt>
      <trkpt lat="48.82356" lon="-1.37849">
        <ele>124.8</ele>
        <time>2024-01-25T13:57:38Z</time>
      </trkpt>
      <trkpt lat="48.82356" lon="-1.37842">
        <ele>124.9</ele>
        <time>2024-01-25T13:57:39Z</time>
      </trkpt>
      <trkpt lat="48.82356" lon="-1.37836">
        <ele>125</ele>
        <time>2024-01-25T13:57:40Z</time>
      </trkpt>
      <trkpt lat="48.82357" lon="-1.37829">
        <ele>125</ele>
        <time>2024-01-25T13:57:41Z</time>
      </trkpt>
      <trkpt lat="48.82358" lon="-1.37823">
        <ele>125.1</ele>
        <time>2024-01-25T13:57:42Z</time>
      </trkpt>
      <trkpt lat="48.82358" lon="-1.37816">
        <ele>125.2</ele>
        <time>2024-01-25T13:57:43Z</time>
      </trkpt>
      <trkpt lat="48.82358" lon="-1.37809">
        <ele>125.2</ele>
        <time>2024-01-25T13:57:44Z</time>
      </trkpt>
      <trkpt lat="48.82358" lon="-1.37802">
        <ele>125.3</ele>
        <time>2024-01-25T13:57:45Z</time>
      </trkpt>
      <trkpt lat="48.82358" lon="-1.37796">
        <ele>125.3</ele>
        <time>2024-01-25T13:57:46Z</time>
      </trkpt>
      <trkpt lat="48.8236" lon="-1.37784">
        <ele>125.4</ele>
        <time>2024-01-25T13:57:48Z</time>
      </trkpt>
      <trkpt lat="48.8236" lon="-1.37775">
        <ele>125.4</ele>
        <time>2024-01-25T13:57:49Z</time>
      </trkpt>
      <trkpt lat="48.8236" lon="-1.37767">
        <ele>125.4</ele>
        <time>2024-01-25T13:57:50Z</time>
      </trkpt>
      <trkpt lat="48.8236" lon="-1.37759">
        <ele>125.5</ele>
        <time>2024-01-25T13:57:51Z</time>
      </trkpt>
      <trkpt lat="48.8236" lon="-1.37751">
        <ele>125.5</ele>
        <time>2024-01-25T13:57:52Z</time>
      </trkpt>
      <trkpt lat="48.8236" lon="-1.37743">
        <ele>125.6</ele>
        <time>2024-01-25T13:57:53Z</time>
      </trkpt>
      <trkpt lat="48.82359" lon="-1.37735">
        <ele>125.6</ele>
        <time>2024-01-25T13:57:54Z</time>
      </trkpt>
      <trkpt lat="48.8236" lon="-1.37727">
        <ele>125.7</ele>
        <time>2024-01-25T13:57:55Z</time>
      </trkpt>
      <trkpt lat="48.8236" lon="-1.3772">
        <ele>125.8</ele>
        <time>2024-01-25T13:57:56Z</time>
      </trkpt>
      <trkpt lat="48.8236" lon="-1.37712">
        <ele>125.9</ele>
        <time>2024-01-25T13:57:57Z</time>
      </trkpt>
      <trkpt lat="48.82361" lon="-1.37705">
        <ele>126</ele>
        <time>2024-01-25T13:57:58Z</time>
      </trkpt>
      <trkpt lat="48.82361" lon="-1.37697">
        <ele>126.1</ele>
        <time>2024-01-25T13:57:59Z</time>
      </trkpt>
      <trkpt lat="48.82361" lon="-1.3769">
        <ele>126.2</ele>
        <time>2024-01-25T13:58:00Z</time>
      </trkpt>
      <trkpt lat="48.82361" lon="-1.37682">
        <ele>126.3</ele>
        <time>2024-01-25T13:58:01Z</time>
      </trkpt>
      <trkpt lat="48.82361" lon="-1.37675">
        <ele>126.4</ele>
        <time>2024-01-25T13:58:02Z</time>
      </trkpt>
      <trkpt lat="48.82362" lon="-1.37668">
        <ele>126.5</ele>
        <time>2024-01-25T13:58:03Z</time>
      </trkpt>
      <trkpt lat="48.82362" lon="-1.37661">
        <ele>126.6</ele>
        <time>2024-01-25T13:58:04Z</time>
      </trkpt>
      <trkpt lat="48.82361" lon="-1.37653">
        <ele>126.7</ele>
        <time>2024-01-25T13:58:05Z</time>
      </trkpt>
      <trkpt lat="48.82361" lon="-1.37645">
        <ele>126.8</ele>
        <time>2024-01-25T13:58:06Z</time>
      </trkpt>
      <trkpt lat="48.82361" lon="-1.37637">
        <ele>126.9</ele>
        <time>2024-01-25T13:58:07Z</time>
      </trkpt>
      <trkpt lat="48.82361" lon="-1.37631">
        <ele>126.9</ele>
        <time>2024-01-25T13:58:08Z</time>
      </trkpt>
      <trkpt lat="48.82361" lon="-1.37624">
        <ele>127</ele>
        <time>2024-01-25T13:58:09Z</time>
      </trkpt>
      <trkpt lat="48.82361" lon="-1.37617">
        <ele>127</ele>
        <time>2024-01-25T13:58:10Z</time>
      </trkpt>
      <trkpt lat="48.82361" lon="-1.3761">
        <ele>127</ele>
        <time>2024-01-25T13:58:11Z</time>
      </trkpt>
      <trkpt lat="48.82361" lon="-1.37603">
        <ele>127</ele>
        <time>2024-01-25T13:58:12Z</time>
      </trkpt>
      <trkpt lat="48.82362" lon="-1.37595">
        <ele>127</ele>
        <time>2024-01-25T13:58:13Z</time>
      </trkpt>
      <trkpt lat="48.82364" lon="-1.37587">
        <ele>126.9</ele>
        <time>2024-01-25T13:58:14Z</time>
      </trkpt>
      <trkpt lat="48.82365" lon="-1.3758">
        <ele>126.9</ele>
        <time>2024-01-25T13:58:15Z</time>
      </trkpt>
      <trkpt lat="48.82367" lon="-1.37572">
        <ele>126.8</ele>
        <time>2024-01-25T13:58:16Z</time>
      </trkpt>
      <trkpt lat="48.82368" lon="-1.37564">
        <ele>126.8</ele>
        <time>2024-01-25T13:58:17Z</time>
      </trkpt>
      <trkpt lat="48.82369" lon="-1.37555">
        <ele>126.7</ele>
        <time>2024-01-25T13:58:18Z</time>
      </trkpt>
      <trkpt lat="48.8237" lon="-1.37546">
        <ele>126.7</ele>
        <time>2024-01-25T13:58:19Z</time>
      </trkpt>
      <trkpt lat="48.82371" lon="-1.37537">
        <ele>126.6</ele>
        <time>2024-01-25T13:58:20Z</time>
      </trkpt>
      <trkpt lat="48.82372" lon="-1.37528">
        <ele>126.6</ele>
        <time>2024-01-25T13:58:21Z</time>
      </trkpt>
      <trkpt lat="48.82373" lon="-1.37519">
        <ele>126.5</ele>
        <time>2024-01-25T13:58:22Z</time>
      </trkpt>
      <trkpt lat="48.82374" lon="-1.3751">
        <ele>126.5</ele>
        <time>2024-01-25T13:58:23Z</time>
      </trkpt>
      <trkpt lat="48.82375" lon="-1.37502">
        <ele>126.5</ele>
        <time>2024-01-25T13:58:24Z</time>
      </trkpt>
      <trkpt lat="48.82376" lon="-1.37493">
        <ele>126.5</ele>
        <time>2024-01-25T13:58:25Z</time>
      </trkpt>
      <trkpt lat="48.82377" lon="-1.37484">
        <ele>126.4</ele>
        <time>2024-01-25T13:58:26Z</time>
      </trkpt>
      <trkpt lat="48.82378" lon="-1.37475">
        <ele>126.4</ele>
        <time>2024-01-25T13:58:27Z</time>
      </trkpt>
      <trkpt lat="48.82379" lon="-1.37466">
        <ele>126.4</ele>
        <time>2024-01-25T13:58:28Z</time>
      </trkpt>
      <trkpt lat="48.8238" lon="-1.37457">
        <ele>126.4</ele>
        <time>2024-01-25T13:58:29Z</time>
      </trkpt>
      <trkpt lat="48.82381" lon="-1.37448">
        <ele>126.4</ele>
        <time>2024-01-25T13:58:30Z</time>
      </trkpt>
      <trkpt lat="48.82381" lon="-1.37439">
        <ele>126.4</ele>
        <time>2024-01-25T13:58:31Z</time>
      </trkpt>
      <trkpt lat="48.82381" lon="-1.3743">
        <ele>126.4</ele>
        <time>2024-01-25T13:58:32Z</time>
      </trkpt>
      <trkpt lat="48.82381" lon="-1.37421">
        <ele>126.4</ele>
        <time>2024-01-25T13:58:33Z</time>
      </trkpt>
      <trkpt lat="48.82382" lon="-1.37412">
        <ele>126.4</ele>
        <time>2024-01-25T13:58:34Z</time>
      </trkpt>
      <trkpt lat="48.82382" lon="-1.37404">
        <ele>126.4</ele>
        <time>2024-01-25T13:58:35Z</time>
      </trkpt>
      <trkpt lat="48.82383" lon="-1.37395">
        <ele>126.4</ele>
        <time>2024-01-25T13:58:36Z</time>
      </trkpt>
      <trkpt lat="48.82384" lon="-1.37387">
        <ele>126.4</ele>
        <time>2024-01-25T13:58:37Z</time>
      </trkpt>
      <trkpt lat="48.82384" lon="-1.37379">
        <ele>126.4</ele>
        <time>2024-01-25T13:58:38Z</time>
      </trkpt>
      <trkpt lat="48.82385" lon="-1.3737">
        <ele>126.4</ele>
        <time>2024-01-25T13:58:39Z</time>
      </trkpt>
      <trkpt lat="48.82385" lon="-1.3736">
        <ele>126.4</ele>
        <time>2024-01-25T13:58:40Z</time>
      </trkpt>
      <trkpt lat="48.82386" lon="-1.37351">
        <ele>126.4</ele>
        <time>2024-01-25T13:58:41Z</time>
      </trkpt>
      <trkpt lat="48.82387" lon="-1.37341">
        <ele>126.3</ele>
        <time>2024-01-25T13:58:42Z</time>
      </trkpt>
      <trkpt lat="48.82388" lon="-1.37331">
        <ele>126.3</ele>
        <time>2024-01-25T13:58:43Z</time>
      </trkpt>
      <trkpt lat="48.82388" lon="-1.37321">
        <ele>126.3</ele>
        <time>2024-01-25T13:58:44Z</time>
      </trkpt>
      <trkpt lat="48.82389" lon="-1.37312">
        <ele>126.2</ele>
        <time>2024-01-25T13:58:45Z</time>
      </trkpt>
      <trkpt lat="48.8239" lon="-1.37302">
        <ele>126.2</ele>
        <time>2024-01-25T13:58:46Z</time>
      </trkpt>
      <trkpt lat="48.82391" lon="-1.37292">
        <ele>126</ele>
        <time>2024-01-25T13:58:47Z</time>
      </trkpt>
      <trkpt lat="48.82392" lon="-1.37282">
        <ele>125.9</ele>
        <time>2024-01-25T13:58:48Z</time>
      </trkpt>
      <trkpt lat="48.82393" lon="-1.37272">
        <ele>125.8</ele>
        <time>2024-01-25T13:58:49Z</time>
      </trkpt>
      <trkpt lat="48.82394" lon="-1.37263">
        <ele>125.7</ele>
        <time>2024-01-25T13:58:50Z</time>
      </trkpt>
      <trkpt lat="48.82395" lon="-1.37253">
        <ele>125.6</ele>
        <time>2024-01-25T13:58:51Z</time>
      </trkpt>
      <trkpt lat="48.82395" lon="-1.37244">
        <ele>125.5</ele>
        <time>2024-01-25T13:58:52Z</time>
      </trkpt>
      <trkpt lat="48.82396" lon="-1.37235">
        <ele>125.4</ele>
        <time>2024-01-25T13:58:53Z</time>
      </trkpt>
      <trkpt lat="48.82397" lon="-1.37226">
        <ele>125.4</ele>
        <time>2024-01-25T13:58:54Z</time>
      </trkpt>
      <trkpt lat="48.82398" lon="-1.37217">
        <ele>125.3</ele>
        <time>2024-01-25T13:58:55Z</time>
      </trkpt>
      <trkpt lat="48.82399" lon="-1.37207">
        <ele>125.3</ele>
        <time>2024-01-25T13:58:56Z</time>
      </trkpt>
      <trkpt lat="48.824" lon="-1.37198">
        <ele>125.4</ele>
        <time>2024-01-25T13:58:57Z</time>
      </trkpt>
      <trkpt lat="48.82401" lon="-1.3719">
        <ele>125.5</ele>
        <time>2024-01-25T13:58:58Z</time>
      </trkpt>
      <trkpt lat="48.82403" lon="-1.37182">
        <ele>125.7</ele>
        <time>2024-01-25T13:58:59Z</time>
      </trkpt>
      <trkpt lat="48.82404" lon="-1.37175">
        <ele>125.8</ele>
        <time>2024-01-25T13:59:00Z</time>
      </trkpt>
      <trkpt lat="48.82405" lon="-1.37169">
        <ele>126</ele>
        <time>2024-01-25T13:59:01Z</time>
      </trkpt>
      <trkpt lat="48.82405" lon="-1.37163">
        <ele>126.2</ele>
        <time>2024-01-25T13:59:02Z</time>
      </trkpt>
      <trkpt lat="48.82403" lon="-1.37157">
        <ele>126.4</ele>
        <time>2024-01-25T13:59:03Z</time>
      </trkpt>
      <trkpt lat="48.82401" lon="-1.37154">
        <ele>126.3</ele>
        <time>2024-01-25T13:59:04Z</time>
      </trkpt>
      <trkpt lat="48.82398" lon="-1.37152">
        <ele>126.2</ele>
        <time>2024-01-25T13:59:05Z</time>
      </trkpt>
      <trkpt lat="48.82394" lon="-1.37152">
        <ele>126.1</ele>
        <time>2024-01-25T13:59:06Z</time>
      </trkpt>
      <trkpt lat="48.82389" lon="-1.37152">
        <ele>126</ele>
        <time>2024-01-25T13:59:07Z</time>
      </trkpt>
      <trkpt lat="48.82384" lon="-1.37153">
        <ele>125.9</ele>
        <time>2024-01-25T13:59:09Z</time>
      </trkpt>
      <trkpt lat="48.82378" lon="-1.37154">
        <ele>125.9</ele>
        <time>2024-01-25T13:59:10Z</time>
      </trkpt>
      <trkpt lat="48.82372" lon="-1.37153">
        <ele>125.9</ele>
        <time>2024-01-25T13:59:11Z</time>
      </trkpt>
      <trkpt lat="48.82367" lon="-1.37152">
        <ele>125.9</ele>
        <time>2024-01-25T13:59:12Z</time>
      </trkpt>
      <trkpt lat="48.82358" lon="-1.3715">
        <ele>125.9</ele>
        <time>2024-01-25T13:59:13Z</time>
      </trkpt>
      <trkpt lat="48.82354" lon="-1.37149">
        <ele>126</ele>
        <time>2024-01-25T13:59:14Z</time>
      </trkpt>
      <trkpt lat="48.82344" lon="-1.37147">
        <ele>126</ele>
        <time>2024-01-25T13:59:16Z</time>
      </trkpt>
      <trkpt lat="48.82338" lon="-1.37146">
        <ele>126</ele>
        <time>2024-01-25T13:59:17Z</time>
      </trkpt>
      <trkpt lat="48.82332" lon="-1.37145">
        <ele>126</ele>
        <time>2024-01-25T13:59:18Z</time>
      </trkpt>
      <trkpt lat="48.82327" lon="-1.37144">
        <ele>126</ele>
        <time>2024-01-25T13:59:19Z</time>
      </trkpt>
      <trkpt lat="48.82322" lon="-1.37142">
        <ele>126</ele>
        <time>2024-01-25T13:59:20Z</time>
      </trkpt>
      <trkpt lat="48.82317" lon="-1.37141">
        <ele>126</ele>
        <time>2024-01-25T13:59:21Z</time>
      </trkpt>
      <trkpt lat="48.82312" lon="-1.3714">
        <ele>126</ele>
        <time>2024-01-25T13:59:22Z</time>
      </trkpt>
      <trkpt lat="48.82308" lon="-1.37139">
        <ele>126.1</ele>
        <time>2024-01-25T13:59:23Z</time>
      </trkpt>
      <trkpt lat="48.82303" lon="-1.37141">
        <ele>126.2</ele>
        <time>2024-01-25T13:59:25Z</time>
      </trkpt>
      <trkpt lat="48.82297" lon="-1.37139">
        <ele>126.3</ele>
        <time>2024-01-25T13:59:26Z</time>
      </trkpt>
      <trkpt lat="48.82292" lon="-1.37137">
        <ele>126.3</ele>
        <time>2024-01-25T13:59:27Z</time>
      </trkpt>
      <trkpt lat="48.82288" lon="-1.37136">
        <ele>126.4</ele>
        <time>2024-01-25T13:59:28Z</time>
      </trkpt>
      <trkpt lat="48.82282" lon="-1.37135">
        <ele>126.5</ele>
        <time>2024-01-25T13:59:29Z</time>
      </trkpt>
      <trkpt lat="48.82278" lon="-1.37135">
        <ele>126.5</ele>
        <time>2024-01-25T13:59:30Z</time>
      </trkpt>
      <trkpt lat="48.82274" lon="-1.37135">
        <ele>126.6</ele>
        <time>2024-01-25T13:59:31Z</time>
      </trkpt>
      <trkpt lat="48.82266" lon="-1.37135">
        <ele>126.7</ele>
        <time>2024-01-25T13:59:32Z</time>
      </trkpt>
      <trkpt lat="48.8226" lon="-1.37135">
        <ele>126.8</ele>
        <time>2024-01-25T13:59:33Z</time>
      </trkpt>
      <trkpt lat="48.82254" lon="-1.37134">
        <ele>126.9</ele>
        <time>2024-01-25T13:59:34Z</time>
      </trkpt>
      <trkpt lat="48.82247" lon="-1.37134">
        <ele>127.1</ele>
        <time>2024-01-25T13:59:35Z</time>
      </trkpt>
      <trkpt lat="48.82241" lon="-1.37134">
        <ele>127.2</ele>
        <time>2024-01-25T13:59:36Z</time>
      </trkpt>
      <trkpt lat="48.82236" lon="-1.37133">
        <ele>127.3</ele>
        <time>2024-01-25T13:59:37Z</time>
      </trkpt>
      <trkpt lat="48.8223" lon="-1.37132">
        <ele>127.4</ele>
        <time>2024-01-25T13:59:38Z</time>
      </trkpt>
      <trkpt lat="48.82224" lon="-1.37132">
        <ele>127.5</ele>
        <time>2024-01-25T13:59:39Z</time>
      </trkpt>
      <trkpt lat="48.82218" lon="-1.37132">
        <ele>127.6</ele>
        <time>2024-01-25T13:59:40Z</time>
      </trkpt>
      <trkpt lat="48.82212" lon="-1.37132">
        <ele>127.7</ele>
        <time>2024-01-25T13:59:41Z</time>
      </trkpt>
      <trkpt lat="48.82206" lon="-1.37133">
        <ele>127.7</ele>
        <time>2024-01-25T13:59:42Z</time>
      </trkpt>
      <trkpt lat="48.82201" lon="-1.37133">
        <ele>127.8</ele>
        <time>2024-01-25T13:59:43Z</time>
      </trkpt>
      <trkpt lat="48.82195" lon="-1.37133">
        <ele>127.8</ele>
        <time>2024-01-25T13:59:44Z</time>
      </trkpt>
      <trkpt lat="48.82189" lon="-1.37134">
        <ele>127.9</ele>
        <time>2024-01-25T13:59:45Z</time>
      </trkpt>
      <trkpt lat="48.82184" lon="-1.37134">
        <ele>127.9</ele>
        <time>2024-01-25T13:59:46Z</time>
      </trkpt>
      <trkpt lat="48.82178" lon="-1.37135">
        <ele>128</ele>
        <time>2024-01-25T13:59:47Z</time>
      </trkpt>
      <trkpt lat="48.82173" lon="-1.37135">
        <ele>128</ele>
        <time>2024-01-25T13:59:48Z</time>
      </trkpt>
      <trkpt lat="48.82167" lon="-1.37135">
        <ele>128.1</ele>
        <time>2024-01-25T13:59:49Z</time>
      </trkpt>
      <trkpt lat="48.82161" lon="-1.37136">
        <ele>128.2</ele>
        <time>2024-01-25T13:59:50Z</time>
      </trkpt>
      <trkpt lat="48.82155" lon="-1.37137">
        <ele>128.2</ele>
        <time>2024-01-25T13:59:51Z</time>
      </trkpt>
      <trkpt lat="48.82149" lon="-1.37138">
        <ele>128.2</ele>
        <time>2024-01-25T13:59:52Z</time>
      </trkpt>
      <trkpt lat="48.82143" lon="-1.37138">
        <ele>128.3</ele>
        <time>2024-01-25T13:59:53Z</time>
      </trkpt>
      <trkpt lat="48.82138" lon="-1.37138">
        <ele>128.3</ele>
        <time>2024-01-25T13:59:54Z</time>
      </trkpt>
      <trkpt lat="48.82132" lon="-1.37138">
        <ele>128.3</ele>
        <time>2024-01-25T13:59:55Z</time>
      </trkpt>
      <trkpt lat="48.82126" lon="-1.37137">
        <ele>128.3</ele>
        <time>2024-01-25T13:59:56Z</time>
      </trkpt>
      <trkpt lat="48.82121" lon="-1.37136">
        <ele>128.3</ele>
        <time>2024-01-25T13:59:57Z</time>
      </trkpt>
      <trkpt lat="48.82115" lon="-1.37134">
        <ele>128.2</ele>
        <time>2024-01-25T13:59:58Z</time>
      </trkpt>
      <trkpt lat="48.82109" lon="-1.37132">
        <ele>128.2</ele>
        <time>2024-01-25T13:59:59Z</time>
      </trkpt>
      <trkpt lat="48.82103" lon="-1.37129">
        <ele>128.2</ele>
        <time>2024-01-25T14:00:00Z</time>
      </trkpt>
      <trkpt lat="48.82097" lon="-1.37128">
        <ele>128.2</ele>
        <time>2024-01-25T14:00:01Z</time>
      </trkpt>
      <trkpt lat="48.82091" lon="-1.37126">
        <ele>128.1</ele>
        <time>2024-01-25T14:00:02Z</time>
      </trkpt>
      <trkpt lat="48.82085" lon="-1.37125">
        <ele>128</ele>
        <time>2024-01-25T14:00:03Z</time>
      </trkpt>
      <trkpt lat="48.82079" lon="-1.37122">
        <ele>127.9</ele>
        <time>2024-01-25T14:00:04Z</time>
      </trkpt>
      <trkpt lat="48.82073" lon="-1.3712">
        <ele>127.8</ele>
        <time>2024-01-25T14:00:05Z</time>
      </trkpt>
      <trkpt lat="48.82068" lon="-1.37117">
        <ele>127.8</ele>
        <time>2024-01-25T14:00:06Z</time>
      </trkpt>
      <trkpt lat="48.82063" lon="-1.37114">
        <ele>127.7</ele>
        <time>2024-01-25T14:00:07Z</time>
      </trkpt>
      <trkpt lat="48.82057" lon="-1.37111">
        <ele>127.6</ele>
        <time>2024-01-25T14:00:08Z</time>
      </trkpt>
      <trkpt lat="48.82052" lon="-1.37107">
        <ele>127.5</ele>
        <time>2024-01-25T14:00:09Z</time>
      </trkpt>
      <trkpt lat="48.82047" lon="-1.37104">
        <ele>127.4</ele>
        <time>2024-01-25T14:00:10Z</time>
      </trkpt>
      <trkpt lat="48.82041" lon="-1.371">
        <ele>127.3</ele>
        <time>2024-01-25T14:00:11Z</time>
      </trkpt>
      <trkpt lat="48.82036" lon="-1.37097">
        <ele>127.2</ele>
        <time>2024-01-25T14:00:12Z</time>
      </trkpt>
      <trkpt lat="48.8203" lon="-1.37095">
        <ele>127.2</ele>
        <time>2024-01-25T14:00:13Z</time>
      </trkpt>
      <trkpt lat="48.82024" lon="-1.37092">
        <ele>127.1</ele>
        <time>2024-01-25T14:00:14Z</time>
      </trkpt>
      <trkpt lat="48.82019" lon="-1.37089">
        <ele>127</ele>
        <time>2024-01-25T14:00:15Z</time>
      </trkpt>
      <trkpt lat="48.82013" lon="-1.37086">
        <ele>126.9</ele>
        <time>2024-01-25T14:00:16Z</time>
      </trkpt>
      <trkpt lat="48.82007" lon="-1.37083">
        <ele>126.8</ele>
        <time>2024-01-25T14:00:17Z</time>
      </trkpt>
      <trkpt lat="48.82001" lon="-1.37079">
        <ele>126.7</ele>
        <time>2024-01-25T14:00:18Z</time>
      </trkpt>
      <trkpt lat="48.81996" lon="-1.37077">
        <ele>126.5</ele>
        <time>2024-01-25T14:00:19Z</time>
      </trkpt>
      <trkpt lat="48.8199" lon="-1.37074">
        <ele>126.3</ele>
        <time>2024-01-25T14:00:20Z</time>
      </trkpt>
      <trkpt lat="48.81985" lon="-1.37072">
        <ele>126.1</ele>
        <time>2024-01-25T14:00:21Z</time>
      </trkpt>
      <trkpt lat="48.81979" lon="-1.37069">
        <ele>125.9</ele>
        <time>2024-01-25T14:00:22Z</time>
      </trkpt>
      <trkpt lat="48.81973" lon="-1.37065">
        <ele>125.6</ele>
        <time>2024-01-25T14:00:23Z</time>
      </trkpt>
      <trkpt lat="48.81967" lon="-1.3706">
        <ele>125.4</ele>
        <time>2024-01-25T14:00:24Z</time>
      </trkpt>
      <trkpt lat="48.81961" lon="-1.37054">
        <ele>125.2</ele>
        <time>2024-01-25T14:00:25Z</time>
      </trkpt>
      <trkpt lat="48.81956" lon="-1.37047">
        <ele>125</ele>
        <time>2024-01-25T14:00:26Z</time>
      </trkpt>
      <trkpt lat="48.8195" lon="-1.37039">
        <ele>124.8</ele>
        <time>2024-01-25T14:00:27Z</time>
      </trkpt>
      <trkpt lat="48.81945" lon="-1.37031">
        <ele>124.6</ele>
        <time>2024-01-25T14:00:28Z</time>
      </trkpt>
      <trkpt lat="48.81939" lon="-1.37023">
        <ele>124.4</ele>
        <time>2024-01-25T14:00:29Z</time>
      </trkpt>
      <trkpt lat="48.81933" lon="-1.37017">
        <ele>124.2</ele>
        <time>2024-01-25T14:00:30Z</time>
      </trkpt>
      <trkpt lat="48.81926" lon="-1.37012">
        <ele>124</ele>
        <time>2024-01-25T14:00:31Z</time>
      </trkpt>
      <trkpt lat="48.81919" lon="-1.37007">
        <ele>123.8</ele>
        <time>2024-01-25T14:00:32Z</time>
      </trkpt>
      <trkpt lat="48.81912" lon="-1.37003">
        <ele>123.5</ele>
        <time>2024-01-25T14:00:33Z</time>
      </trkpt>
      <trkpt lat="48.81905" lon="-1.37">
        <ele>123.3</ele>
        <time>2024-01-25T14:00:34Z</time>
      </trkpt>
      <trkpt lat="48.81898" lon="-1.36997">
        <ele>123.2</ele>
        <time>2024-01-25T14:00:35Z</time>
      </trkpt>
      <trkpt lat="48.8189" lon="-1.36995">
        <ele>123</ele>
        <time>2024-01-25T14:00:36Z</time>
      </trkpt>
      <trkpt lat="48.81883" lon="-1.36992">
        <ele>122.8</ele>
        <time>2024-01-25T14:00:37Z</time>
      </trkpt>
      <trkpt lat="48.81876" lon="-1.3699">
        <ele>122.7</ele>
        <time>2024-01-25T14:00:38Z</time>
      </trkpt>
      <trkpt lat="48.81868" lon="-1.36988">
        <ele>122.5</ele>
        <time>2024-01-25T14:00:39Z</time>
      </trkpt>
      <trkpt lat="48.81861" lon="-1.36986">
        <ele>122.4</ele>
        <time>2024-01-25T14:00:40Z</time>
      </trkpt>
      <trkpt lat="48.81854" lon="-1.36984">
        <ele>122.3</ele>
        <time>2024-01-25T14:00:41Z</time>
      </trkpt>
      <trkpt lat="48.81847" lon="-1.36982">
        <ele>122.1</ele>
        <time>2024-01-25T14:00:42Z</time>
      </trkpt>
      <trkpt lat="48.8184" lon="-1.36979">
        <ele>122</ele>
        <time>2024-01-25T14:00:43Z</time>
      </trkpt>
      <trkpt lat="48.81833" lon="-1.36976">
        <ele>121.9</ele>
        <time>2024-01-25T14:00:44Z</time>
      </trkpt>
      <trkpt lat="48.81826" lon="-1.36973">
        <ele>121.8</ele>
        <time>2024-01-25T14:00:45Z</time>
      </trkpt>
      <trkpt lat="48.81819" lon="-1.3697">
        <ele>121.7</ele>
        <time>2024-01-25T14:00:46Z</time>
      </trkpt>
      <trkpt lat="48.81812" lon="-1.36966">
        <ele>121.7</ele>
        <time>2024-01-25T14:00:47Z</time>
      </trkpt>
      <trkpt lat="48.81806" lon="-1.36962">
        <ele>121.6</ele>
        <time>2024-01-25T14:00:48Z</time>
      </trkpt>
      <trkpt lat="48.81801" lon="-1.36957">
        <ele>121.5</ele>
        <time>2024-01-25T14:00:49Z</time>
      </trkpt>
      <trkpt lat="48.81795" lon="-1.36952">
        <ele>121.5</ele>
        <time>2024-01-25T14:00:50Z</time>
      </trkpt>
      <trkpt lat="48.81789" lon="-1.36947">
        <ele>121.5</ele>
        <time>2024-01-25T14:00:51Z</time>
      </trkpt>
      <trkpt lat="48.81783" lon="-1.36942">
        <ele>121.5</ele>
        <time>2024-01-25T14:00:52Z</time>
      </trkpt>
      <trkpt lat="48.81777" lon="-1.36936">
        <ele>121.5</ele>
        <time>2024-01-25T14:00:53Z</time>
      </trkpt>
      <trkpt lat="48.81771" lon="-1.36931">
        <ele>121.5</ele>
        <time>2024-01-25T14:00:54Z</time>
      </trkpt>
      <trkpt lat="48.81765" lon="-1.36925">
        <ele>121.6</ele>
        <time>2024-01-25T14:00:55Z</time>
      </trkpt>
      <trkpt lat="48.81758" lon="-1.3692">
        <ele>121.7</ele>
        <time>2024-01-25T14:00:56Z</time>
      </trkpt>
      <trkpt lat="48.81752" lon="-1.36915">
        <ele>121.8</ele>
        <time>2024-01-25T14:00:57Z</time>
      </trkpt>
      <trkpt lat="48.81746" lon="-1.3691">
        <ele>121.9</ele>
        <time>2024-01-25T14:00:58Z</time>
      </trkpt>
      <trkpt lat="48.81741" lon="-1.36905">
        <ele>122</ele>
        <time>2024-01-25T14:00:59Z</time>
      </trkpt>
      <trkpt lat="48.81735" lon="-1.36901">
        <ele>122.1</ele>
        <time>2024-01-25T14:01:00Z</time>
      </trkpt>
      <trkpt lat="48.81729" lon="-1.36897">
        <ele>122.3</ele>
        <time>2024-01-25T14:01:01Z</time>
      </trkpt>
      <trkpt lat="48.81723" lon="-1.36894">
        <ele>122.4</ele>
        <time>2024-01-25T14:01:02Z</time>
      </trkpt>
      <trkpt lat="48.81717" lon="-1.36891">
        <ele>122.6</ele>
        <time>2024-01-25T14:01:03Z</time>
      </trkpt>
      <trkpt lat="48.81711" lon="-1.36888">
        <ele>122.7</ele>
        <time>2024-01-25T14:01:04Z</time>
      </trkpt>
      <trkpt lat="48.81705" lon="-1.36886">
        <ele>122.9</ele>
        <time>2024-01-25T14:01:05Z</time>
      </trkpt>
      <trkpt lat="48.81699" lon="-1.36884">
        <ele>122.9</ele>
        <time>2024-01-25T14:01:06Z</time>
      </trkpt>
      <trkpt lat="48.81693" lon="-1.36882">
        <ele>122.9</ele>
        <time>2024-01-25T14:01:07Z</time>
      </trkpt>
      <trkpt lat="48.81687" lon="-1.3688">
        <ele>122.8</ele>
        <time>2024-01-25T14:01:08Z</time>
      </trkpt>
      <trkpt lat="48.81681" lon="-1.36877">
        <ele>122.6</ele>
        <time>2024-01-25T14:01:09Z</time>
      </trkpt>
      <trkpt lat="48.81675" lon="-1.36875">
        <ele>122.4</ele>
        <time>2024-01-25T14:01:10Z</time>
      </trkpt>
      <trkpt lat="48.81669" lon="-1.36872">
        <ele>122.2</ele>
        <time>2024-01-25T14:01:11Z</time>
      </trkpt>
      <trkpt lat="48.81663" lon="-1.3687">
        <ele>122</ele>
        <time>2024-01-25T14:01:12Z</time>
      </trkpt>
      <trkpt lat="48.81657" lon="-1.36868">
        <ele>121.8</ele>
        <time>2024-01-25T14:01:13Z</time>
      </trkpt>
      <trkpt lat="48.81651" lon="-1.36865">
        <ele>121.6</ele>
        <time>2024-01-25T14:01:14Z</time>
      </trkpt>
      <trkpt lat="48.81644" lon="-1.36862">
        <ele>121.4</ele>
        <time>2024-01-25T14:01:15Z</time>
      </trkpt>
      <trkpt lat="48.81638" lon="-1.3686">
        <ele>121.2</ele>
        <time>2024-01-25T14:01:16Z</time>
      </trkpt>
      <trkpt lat="48.81631" lon="-1.36857">
        <ele>120.9</ele>
        <time>2024-01-25T14:01:17Z</time>
      </trkpt>
      <trkpt lat="48.81625" lon="-1.36854">
        <ele>120.7</ele>
        <time>2024-01-25T14:01:18Z</time>
      </trkpt>
      <trkpt lat="48.81618" lon="-1.36851">
        <ele>120.4</ele>
        <time>2024-01-25T14:01:19Z</time>
      </trkpt>
      <trkpt lat="48.81611" lon="-1.36848">
        <ele>120.1</ele>
        <time>2024-01-25T14:01:20Z</time>
      </trkpt>
      <trkpt lat="48.81605" lon="-1.36845">
        <ele>119.9</ele>
        <time>2024-01-25T14:01:21Z</time>
      </trkpt>
      <trkpt lat="48.81599" lon="-1.36842">
        <ele>119.6</ele>
        <time>2024-01-25T14:01:22Z</time>
      </trkpt>
      <trkpt lat="48.81592" lon="-1.36839">
        <ele>119.4</ele>
        <time>2024-01-25T14:01:23Z</time>
      </trkpt>
      <trkpt lat="48.81585" lon="-1.36837">
        <ele>119</ele>
        <time>2024-01-25T14:01:24Z</time>
      </trkpt>
      <trkpt lat="48.81577" lon="-1.36834">
        <ele>118.7</ele>
        <time>2024-01-25T14:01:25Z</time>
      </trkpt>
      <trkpt lat="48.8157" lon="-1.36831">
        <ele>118.4</ele>
        <time>2024-01-25T14:01:26Z</time>
      </trkpt>
      <trkpt lat="48.81562" lon="-1.36828">
        <ele>118</ele>
        <time>2024-01-25T14:01:27Z</time>
      </trkpt>
      <trkpt lat="48.81554" lon="-1.36825">
        <ele>117.7</ele>
        <time>2024-01-25T14:01:28Z</time>
      </trkpt>
      <trkpt lat="48.81547" lon="-1.36822">
        <ele>117.4</ele>
        <time>2024-01-25T14:01:29Z</time>
      </trkpt>
      <trkpt lat="48.81539" lon="-1.36819">
        <ele>117</ele>
        <time>2024-01-25T14:01:30Z</time>
      </trkpt>
      <trkpt lat="48.81531" lon="-1.36815">
        <ele>116.7</ele>
        <time>2024-01-25T14:01:31Z</time>
      </trkpt>
      <trkpt lat="48.81524" lon="-1.36811">
        <ele>116.4</ele>
        <time>2024-01-25T14:01:32Z</time>
      </trkpt>
      <trkpt lat="48.81516" lon="-1.36807">
        <ele>116.2</ele>
        <time>2024-01-25T14:01:33Z</time>
      </trkpt>
      <trkpt lat="48.81508" lon="-1.36804">
        <ele>116</ele>
        <time>2024-01-25T14:01:34Z</time>
      </trkpt>
      <trkpt lat="48.81501" lon="-1.368">
        <ele>115.9</ele>
        <time>2024-01-25T14:01:35Z</time>
      </trkpt>
      <trkpt lat="48.81493" lon="-1.36797">
        <ele>115.7</ele>
        <time>2024-01-25T14:01:36Z</time>
      </trkpt>
      <trkpt lat="48.81485" lon="-1.36794">
        <ele>115.4</ele>
        <time>2024-01-25T14:01:37Z</time>
      </trkpt>
      <trkpt lat="48.81477" lon="-1.36791">
        <ele>115.2</ele>
        <time>2024-01-25T14:01:38Z</time>
      </trkpt>
      <trkpt lat="48.81469" lon="-1.36788">
        <ele>115</ele>
        <time>2024-01-25T14:01:39Z</time>
      </trkpt>
      <trkpt lat="48.81461" lon="-1.36787">
        <ele>114.8</ele>
        <time>2024-01-25T14:01:40Z</time>
      </trkpt>
      <trkpt lat="48.81452" lon="-1.36786">
        <ele>114.6</ele>
        <time>2024-01-25T14:01:41Z</time>
      </trkpt>
      <trkpt lat="48.81444" lon="-1.36786">
        <ele>114.4</ele>
        <time>2024-01-25T14:01:42Z</time>
      </trkpt>
      <trkpt lat="48.81436" lon="-1.36787">
        <ele>114.2</ele>
        <time>2024-01-25T14:01:43Z</time>
      </trkpt>
      <trkpt lat="48.81428" lon="-1.36787">
        <ele>114.1</ele>
        <time>2024-01-25T14:01:44Z</time>
      </trkpt>
      <trkpt lat="48.8142" lon="-1.36787">
        <ele>114</ele>
        <time>2024-01-25T14:01:45Z</time>
      </trkpt>
      <trkpt lat="48.81412" lon="-1.36788">
        <ele>113.9</ele>
        <time>2024-01-25T14:01:46Z</time>
      </trkpt>
      <trkpt lat="48.81404" lon="-1.36788">
        <ele>113.9</ele>
        <time>2024-01-25T14:01:47Z</time>
      </trkpt>
      <trkpt lat="48.81396" lon="-1.36789">
        <ele>113.8</ele>
        <time>2024-01-25T14:01:48Z</time>
      </trkpt>
      <trkpt lat="48.81389" lon="-1.36789">
        <ele>113.8</ele>
        <time>2024-01-25T14:01:49Z</time>
      </trkpt>
      <trkpt lat="48.81381" lon="-1.3679">
        <ele>113.8</ele>
        <time>2024-01-25T14:01:50Z</time>
      </trkpt>
      <trkpt lat="48.81373" lon="-1.3679">
        <ele>113.8</ele>
        <time>2024-01-25T14:01:51Z</time>
      </trkpt>
      <trkpt lat="48.81365" lon="-1.36791">
        <ele>113.8</ele>
        <time>2024-01-25T14:01:52Z</time>
      </trkpt>
      <trkpt lat="48.81358" lon="-1.36791">
        <ele>113.8</ele>
        <time>2024-01-25T14:01:53Z</time>
      </trkpt>
      <trkpt lat="48.8135" lon="-1.36791">
        <ele>113.9</ele>
        <time>2024-01-25T14:01:54Z</time>
      </trkpt>
      <trkpt lat="48.81342" lon="-1.36792">
        <ele>114</ele>
        <time>2024-01-25T14:01:55Z</time>
      </trkpt>
      <trkpt lat="48.81334" lon="-1.36792">
        <ele>114.1</ele>
        <time>2024-01-25T14:01:56Z</time>
      </trkpt>
      <trkpt lat="48.81326" lon="-1.36791">
        <ele>114.3</ele>
        <time>2024-01-25T14:01:57Z</time>
      </trkpt>
      <trkpt lat="48.81319" lon="-1.3679">
        <ele>114.6</ele>
        <time>2024-01-25T14:01:58Z</time>
      </trkpt>
      <trkpt lat="48.81312" lon="-1.36787">
        <ele>114.6</ele>
        <time>2024-01-25T14:01:59Z</time>
      </trkpt>
      <trkpt lat="48.81305" lon="-1.36781">
        <ele>114.7</ele>
        <time>2024-01-25T14:02:00Z</time>
      </trkpt>
      <trkpt lat="48.81299" lon="-1.36775">
        <ele>114.8</ele>
        <time>2024-01-25T14:02:01Z</time>
      </trkpt>
      <trkpt lat="48.81295" lon="-1.36767">
        <ele>114.9</ele>
        <time>2024-01-25T14:02:02Z</time>
      </trkpt>
      <trkpt lat="48.81291" lon="-1.36758">
        <ele>115.1</ele>
        <time>2024-01-25T14:02:03Z</time>
      </trkpt>
      <trkpt lat="48.81287" lon="-1.36748">
        <ele>115.4</ele>
        <time>2024-01-25T14:02:04Z</time>
      </trkpt>
      <trkpt lat="48.81284" lon="-1.3674">
        <ele>115.6</ele>
        <time>2024-01-25T14:02:05Z</time>
      </trkpt>
      <trkpt lat="48.81281" lon="-1.36732">
        <ele>115.9</ele>
        <time>2024-01-25T14:02:06Z</time>
      </trkpt>
      <trkpt lat="48.81279" lon="-1.36724">
        <ele>116.2</ele>
        <time>2024-01-25T14:02:07Z</time>
      </trkpt>
      <trkpt lat="48.81276" lon="-1.36717">
        <ele>116.5</ele>
        <time>2024-01-25T14:02:08Z</time>
      </trkpt>
      <trkpt lat="48.81274" lon="-1.36711">
        <ele>116.7</ele>
        <time>2024-01-25T14:02:09Z</time>
      </trkpt>
      <trkpt lat="48.81272" lon="-1.36706">
        <ele>116.9</ele>
        <time>2024-01-25T14:02:10Z</time>
      </trkpt>
      <trkpt lat="48.8127" lon="-1.367">
        <ele>117.1</ele>
        <time>2024-01-25T14:02:11Z</time>
      </trkpt>
      <trkpt lat="48.81268" lon="-1.36695">
        <ele>117.3</ele>
        <time>2024-01-25T14:02:12Z</time>
      </trkpt>
      <trkpt lat="48.81266" lon="-1.36689">
        <ele>117.5</ele>
        <time>2024-01-25T14:02:13Z</time>
      </trkpt>
      <trkpt lat="48.81265" lon="-1.36683">
        <ele>117.7</ele>
        <time>2024-01-25T14:02:14Z</time>
      </trkpt>
      <trkpt lat="48.81263" lon="-1.36677">
        <ele>117.8</ele>
        <time>2024-01-25T14:02:15Z</time>
      </trkpt>
      <trkpt lat="48.81261" lon="-1.36671">
        <ele>117.8</ele>
        <time>2024-01-25T14:02:16Z</time>
      </trkpt>
      <trkpt lat="48.8126" lon="-1.36664">
        <ele>117.9</ele>
        <time>2024-01-25T14:02:17Z</time>
      </trkpt>
      <trkpt lat="48.81259" lon="-1.36657">
        <ele>117.9</ele>
        <time>2024-01-25T14:02:18Z</time>
      </trkpt>
      <trkpt lat="48.81258" lon="-1.3665">
        <ele>118</ele>
        <time>2024-01-25T14:02:19Z</time>
      </trkpt>
      <trkpt lat="48.81257" lon="-1.36643">
        <ele>118</ele>
        <time>2024-01-25T14:02:20Z</time>
      </trkpt>
      <trkpt lat="48.81255" lon="-1.36635">
        <ele>118</ele>
        <time>2024-01-25T14:02:21Z</time>
      </trkpt>
      <trkpt lat="48.81254" lon="-1.36628">
        <ele>118</ele>
        <time>2024-01-25T14:02:22Z</time>
      </trkpt>
      <trkpt lat="48.81253" lon="-1.36621">
        <ele>118</ele>
        <time>2024-01-25T14:02:23Z</time>
      </trkpt>
      <trkpt lat="48.8125" lon="-1.36615">
        <ele>118</ele>
        <time>2024-01-25T14:02:24Z</time>
      </trkpt>
      <trkpt lat="48.81248" lon="-1.36607">
        <ele>118</ele>
        <time>2024-01-25T14:02:25Z</time>
      </trkpt>
      <trkpt lat="48.81246" lon="-1.36599">
        <ele>118</ele>
        <time>2024-01-25T14:02:26Z</time>
      </trkpt>
      <trkpt lat="48.81243" lon="-1.36591">
        <ele>117.9</ele>
        <time>2024-01-25T14:02:27Z</time>
      </trkpt>
      <trkpt lat="48.81241" lon="-1.36584">
        <ele>117.8</ele>
        <time>2024-01-25T14:02:28Z</time>
      </trkpt>
      <trkpt lat="48.81239" lon="-1.36575">
        <ele>117.7</ele>
        <time>2024-01-25T14:02:29Z</time>
      </trkpt>
      <trkpt lat="48.81239" lon="-1.36566">
        <ele>117.6</ele>
        <time>2024-01-25T14:02:30Z</time>
      </trkpt>
      <trkpt lat="48.81239" lon="-1.36557">
        <ele>117.4</ele>
        <time>2024-01-25T14:02:31Z</time>
      </trkpt>
      <trkpt lat="48.8124" lon="-1.36547">
        <ele>117.2</ele>
        <time>2024-01-25T14:02:32Z</time>
      </trkpt>
      <trkpt lat="48.81241" lon="-1.36538">
        <ele>117.1</ele>
        <time>2024-01-25T14:02:33Z</time>
      </trkpt>
      <trkpt lat="48.81242" lon="-1.36527">
        <ele>116.9</ele>
        <time>2024-01-25T14:02:34Z</time>
      </trkpt>
      <trkpt lat="48.81244" lon="-1.36517">
        <ele>116.8</ele>
        <time>2024-01-25T14:02:35Z</time>
      </trkpt>
      <trkpt lat="48.81246" lon="-1.36507">
        <ele>116.6</ele>
        <time>2024-01-25T14:02:36Z</time>
      </trkpt>
      <trkpt lat="48.81248" lon="-1.36497">
        <ele>116.5</ele>
        <time>2024-01-25T14:02:37Z</time>
      </trkpt>
      <trkpt lat="48.8125" lon="-1.36487">
        <ele>116.3</ele>
        <time>2024-01-25T14:02:38Z</time>
      </trkpt>
      <trkpt lat="48.81252" lon="-1.36476">
        <ele>116.2</ele>
        <time>2024-01-25T14:02:39Z</time>
      </trkpt>
      <trkpt lat="48.81254" lon="-1.36465">
        <ele>116.2</ele>
        <time>2024-01-25T14:02:40Z</time>
      </trkpt>
      <trkpt lat="48.81254" lon="-1.36453">
        <ele>116.1</ele>
        <time>2024-01-25T14:02:41Z</time>
      </trkpt>
      <trkpt lat="48.81256" lon="-1.36442">
        <ele>116.1</ele>
        <time>2024-01-25T14:02:42Z</time>
      </trkpt>
      <trkpt lat="48.81258" lon="-1.36431">
        <ele>116</ele>
        <time>2024-01-25T14:02:43Z</time>
      </trkpt>
      <trkpt lat="48.8126" lon="-1.3642">
        <ele>116</ele>
        <time>2024-01-25T14:02:44Z</time>
      </trkpt>
      <trkpt lat="48.81263" lon="-1.3641">
        <ele>116</ele>
        <time>2024-01-25T14:02:45Z</time>
      </trkpt>
      <trkpt lat="48.81265" lon="-1.36399">
        <ele>116</ele>
        <time>2024-01-25T14:02:46Z</time>
      </trkpt>
      <trkpt lat="48.81268" lon="-1.36389">
        <ele>116</ele>
        <time>2024-01-25T14:02:47Z</time>
      </trkpt>
      <trkpt lat="48.8127" lon="-1.36379">
        <ele>116.1</ele>
        <time>2024-01-25T14:02:48Z</time>
      </trkpt>
      <trkpt lat="48.81272" lon="-1.3637">
        <ele>116.1</ele>
        <time>2024-01-25T14:02:49Z</time>
      </trkpt>
      <trkpt lat="48.81273" lon="-1.36361">
        <ele>116.2</ele>
        <time>2024-01-25T14:02:50Z</time>
      </trkpt>
      <trkpt lat="48.81275" lon="-1.36352">
        <ele>116.2</ele>
        <time>2024-01-25T14:02:51Z</time>
      </trkpt>
      <trkpt lat="48.81277" lon="-1.36343">
        <ele>116.3</ele>
        <time>2024-01-25T14:02:52Z</time>
      </trkpt>
      <trkpt lat="48.81278" lon="-1.36334">
        <ele>116.3</ele>
        <time>2024-01-25T14:02:53Z</time>
      </trkpt>
      <trkpt lat="48.8128" lon="-1.36324">
        <ele>116.3</ele>
        <time>2024-01-25T14:02:54Z</time>
      </trkpt>
      <trkpt lat="48.81282" lon="-1.36315">
        <ele>116.3</ele>
        <time>2024-01-25T14:02:55Z</time>
      </trkpt>
      <trkpt lat="48.81283" lon="-1.36305">
        <ele>116.3</ele>
        <time>2024-01-25T14:02:56Z</time>
      </trkpt>
      <trkpt lat="48.81284" lon="-1.36296">
        <ele>116.3</ele>
        <time>2024-01-25T14:02:57Z</time>
      </trkpt>
      <trkpt lat="48.81284" lon="-1.36286">
        <ele>116.4</ele>
        <time>2024-01-25T14:02:58Z</time>
      </trkpt>
      <trkpt lat="48.81284" lon="-1.36277">
        <ele>116.5</ele>
        <time>2024-01-25T14:02:59Z</time>
      </trkpt>
      <trkpt lat="48.81284" lon="-1.36267">
        <ele>116.6</ele>
        <time>2024-01-25T14:03:00Z</time>
      </trkpt>
      <trkpt lat="48.81284" lon="-1.36258">
        <ele>116.7</ele>
        <time>2024-01-25T14:03:01Z</time>
      </trkpt>
      <trkpt lat="48.81284" lon="-1.36249">
        <ele>116.9</ele>
        <time>2024-01-25T14:03:02Z</time>
      </trkpt>
      <trkpt lat="48.81284" lon="-1.3624">
        <ele>117.1</ele>
        <time>2024-01-25T14:03:03Z</time>
      </trkpt>
      <trkpt lat="48.81284" lon="-1.36231">
        <ele>117.4</ele>
        <time>2024-01-25T14:03:04Z</time>
      </trkpt>
      <trkpt lat="48.81284" lon="-1.36223">
        <ele>117.6</ele>
        <time>2024-01-25T14:03:05Z</time>
      </trkpt>
      <trkpt lat="48.81285" lon="-1.36215">
        <ele>117.8</ele>
        <time>2024-01-25T14:03:06Z</time>
      </trkpt>
      <trkpt lat="48.81286" lon="-1.36207">
        <ele>118.1</ele>
        <time>2024-01-25T14:03:07Z</time>
      </trkpt>
      <trkpt lat="48.81287" lon="-1.36199">
        <ele>118.4</ele>
        <time>2024-01-25T14:03:08Z</time>
      </trkpt>
      <trkpt lat="48.81287" lon="-1.36191">
        <ele>118.7</ele>
        <time>2024-01-25T14:03:09Z</time>
      </trkpt>
      <trkpt lat="48.81288" lon="-1.36184">
        <ele>119</ele>
        <time>2024-01-25T14:03:10Z</time>
      </trkpt>
      <trkpt lat="48.81289" lon="-1.36176">
        <ele>119.3</ele>
        <time>2024-01-25T14:03:11Z</time>
      </trkpt>
      <trkpt lat="48.81291" lon="-1.36168">
        <ele>119.7</ele>
        <time>2024-01-25T14:03:12Z</time>
      </trkpt>
      <trkpt lat="48.81292" lon="-1.36161">
        <ele>120</ele>
        <time>2024-01-25T14:03:13Z</time>
      </trkpt>
      <trkpt lat="48.81294" lon="-1.36154">
        <ele>120.3</ele>
        <time>2024-01-25T14:03:14Z</time>
      </trkpt>
      <trkpt lat="48.81295" lon="-1.36147">
        <ele>120.6</ele>
        <time>2024-01-25T14:03:15Z</time>
      </trkpt>
      <trkpt lat="48.81296" lon="-1.36141">
        <ele>120.8</ele>
        <time>2024-01-25T14:03:16Z</time>
      </trkpt>
      <trkpt lat="48.81297" lon="-1.36135">
        <ele>121.1</ele>
        <time>2024-01-25T14:03:17Z</time>
      </trkpt>
      <trkpt lat="48.81298" lon="-1.36129">
        <ele>121.3</ele>
        <time>2024-01-25T14:03:18Z</time>
      </trkpt>
      <trkpt lat="48.813" lon="-1.36123">
        <ele>121.5</ele>
        <time>2024-01-25T14:03:19Z</time>
      </trkpt>
      <trkpt lat="48.81301" lon="-1.36117">
        <ele>121.7</ele>
        <time>2024-01-25T14:03:20Z</time>
      </trkpt>
      <trkpt lat="48.81301" lon="-1.36111">
        <ele>121.9</ele>
        <time>2024-01-25T14:03:21Z</time>
      </trkpt>
      <trkpt lat="48.81302" lon="-1.36106">
        <ele>122.1</ele>
        <time>2024-01-25T14:03:22Z</time>
      </trkpt>
      <trkpt lat="48.81303" lon="-1.361">
        <ele>122.3</ele>
        <time>2024-01-25T14:03:23Z</time>
      </trkpt>
      <trkpt lat="48.81305" lon="-1.36093">
        <ele>122.5</ele>
        <time>2024-01-25T14:03:24Z</time>
      </trkpt>
      <trkpt lat="48.81307" lon="-1.36085">
        <ele>122.7</ele>
        <time>2024-01-25T14:03:25Z</time>
      </trkpt>
      <trkpt lat="48.8131" lon="-1.36076">
        <ele>122.9</ele>
        <time>2024-01-25T14:03:26Z</time>
      </trkpt>
      <trkpt lat="48.81312" lon="-1.36068">
        <ele>123.1</ele>
        <time>2024-01-25T14:03:27Z</time>
      </trkpt>
      <trkpt lat="48.81313" lon="-1.3606">
        <ele>123.3</ele>
        <time>2024-01-25T14:03:28Z</time>
      </trkpt>
      <trkpt lat="48.81314" lon="-1.36052">
        <ele>123.4</ele>
        <time>2024-01-25T14:03:29Z</time>
      </trkpt>
      <trkpt lat="48.81315" lon="-1.36044">
        <ele>123.5</ele>
        <time>2024-01-25T14:03:30Z</time>
      </trkpt>
      <trkpt lat="48.81316" lon="-1.36037">
        <ele>123.6</ele>
        <time>2024-01-25T14:03:31Z</time>
      </trkpt>
      <trkpt lat="48.81317" lon="-1.3603">
        <ele>123.8</ele>
        <time>2024-01-25T14:03:32Z</time>
      </trkpt>
      <trkpt lat="48.81319" lon="-1.36018">
        <ele>124</ele>
        <time>2024-01-25T14:03:34Z</time>
      </trkpt>
      <trkpt lat="48.8132" lon="-1.36009">
        <ele>124.1</ele>
        <time>2024-01-25T14:03:35Z</time>
      </trkpt>
      <trkpt lat="48.8132" lon="-1.36001">
        <ele>124.2</ele>
        <time>2024-01-25T14:03:36Z</time>
      </trkpt>
      <trkpt lat="48.81322" lon="-1.35988">
        <ele>124.3</ele>
        <time>2024-01-25T14:03:38Z</time>
      </trkpt>
      <trkpt lat="48.81324" lon="-1.35981">
        <ele>124.3</ele>
        <time>2024-01-25T14:03:39Z</time>
      </trkpt>
      <trkpt lat="48.81325" lon="-1.35973">
        <ele>124.3</ele>
        <time>2024-01-25T14:03:40Z</time>
      </trkpt>
      <trkpt lat="48.81326" lon="-1.35965">
        <ele>124.3</ele>
        <time>2024-01-25T14:03:41Z</time>
      </trkpt>
      <trkpt lat="48.81326" lon="-1.35958">
        <ele>124.3</ele>
        <time>2024-01-25T14:03:42Z</time>
      </trkpt>
      <trkpt lat="48.81328" lon="-1.3595">
        <ele>124.2</ele>
        <time>2024-01-25T14:03:43Z</time>
      </trkpt>
      <trkpt lat="48.81329" lon="-1.35942">
        <ele>124.2</ele>
        <time>2024-01-25T14:03:44Z</time>
      </trkpt>
      <trkpt lat="48.8133" lon="-1.35933">
        <ele>124.1</ele>
        <time>2024-01-25T14:03:45Z</time>
      </trkpt>
      <trkpt lat="48.81331" lon="-1.35924">
        <ele>124</ele>
        <time>2024-01-25T14:03:46Z</time>
      </trkpt>
      <trkpt lat="48.81332" lon="-1.35916">
        <ele>124</ele>
        <time>2024-01-25T14:03:47Z</time>
      </trkpt>
      <trkpt lat="48.81333" lon="-1.35908">
        <ele>123.9</ele>
        <time>2024-01-25T14:03:48Z</time>
      </trkpt>
      <trkpt lat="48.81334" lon="-1.35898">
        <ele>123.8</ele>
        <time>2024-01-25T14:03:49Z</time>
      </trkpt>
      <trkpt lat="48.81335" lon="-1.35889">
        <ele>123.7</ele>
        <time>2024-01-25T14:03:50Z</time>
      </trkpt>
      <trkpt lat="48.81335" lon="-1.3588">
        <ele>123.6</ele>
        <time>2024-01-25T14:03:51Z</time>
      </trkpt>
      <trkpt lat="48.81336" lon="-1.3587">
        <ele>123.5</ele>
        <time>2024-01-25T14:03:52Z</time>
      </trkpt>
      <trkpt lat="48.81337" lon="-1.35861">
        <ele>123.5</ele>
        <time>2024-01-25T14:03:53Z</time>
      </trkpt>
      <trkpt lat="48.81338" lon="-1.35851">
        <ele>123.4</ele>
        <time>2024-01-25T14:03:54Z</time>
      </trkpt>
      <trkpt lat="48.81339" lon="-1.35842">
        <ele>123.3</ele>
        <time>2024-01-25T14:03:55Z</time>
      </trkpt>
      <trkpt lat="48.81341" lon="-1.35832">
        <ele>123.2</ele>
        <time>2024-01-25T14:03:56Z</time>
      </trkpt>
      <trkpt lat="48.81341" lon="-1.35822">
        <ele>123.1</ele>
        <time>2024-01-25T14:03:57Z</time>
      </trkpt>
      <trkpt lat="48.81343" lon="-1.35812">
        <ele>123</ele>
        <time>2024-01-25T14:03:58Z</time>
      </trkpt>
      <trkpt lat="48.81343" lon="-1.35802">
        <ele>122.8</ele>
        <time>2024-01-25T14:03:59Z</time>
      </trkpt>
      <trkpt lat="48.81344" lon="-1.35791">
        <ele>122.7</ele>
        <time>2024-01-25T14:04:00Z</time>
      </trkpt>
      <trkpt lat="48.81344" lon="-1.3578">
        <ele>122.6</ele>
        <time>2024-01-25T14:04:01Z</time>
      </trkpt>
      <trkpt lat="48.81343" lon="-1.35769">
        <ele>122.5</ele>
        <time>2024-01-25T14:04:02Z</time>
      </trkpt>
      <trkpt lat="48.81342" lon="-1.35759">
        <ele>122.4</ele>
        <time>2024-01-25T14:04:03Z</time>
      </trkpt>
      <trkpt lat="48.81341" lon="-1.35749">
        <ele>122.4</ele>
        <time>2024-01-25T14:04:04Z</time>
      </trkpt>
      <trkpt lat="48.8134" lon="-1.35738">
        <ele>122.3</ele>
        <time>2024-01-25T14:04:05Z</time>
      </trkpt>
      <trkpt lat="48.81339" lon="-1.35728">
        <ele>122.2</ele>
        <time>2024-01-25T14:04:06Z</time>
      </trkpt>
      <trkpt lat="48.81338" lon="-1.35717">
        <ele>122</ele>
        <time>2024-01-25T14:04:07Z</time>
      </trkpt>
      <trkpt lat="48.81337" lon="-1.35707">
        <ele>121.9</ele>
        <time>2024-01-25T14:04:08Z</time>
      </trkpt>
      <trkpt lat="48.81336" lon="-1.35696">
        <ele>121.8</ele>
        <time>2024-01-25T14:04:09Z</time>
      </trkpt>
      <trkpt lat="48.81335" lon="-1.35686">
        <ele>121.6</ele>
        <time>2024-01-25T14:04:10Z</time>
      </trkpt>
      <trkpt lat="48.81334" lon="-1.35676">
        <ele>121.5</ele>
        <time>2024-01-25T14:04:11Z</time>
      </trkpt>
      <trkpt lat="48.81333" lon="-1.35666">
        <ele>121.5</ele>
        <time>2024-01-25T14:04:12Z</time>
      </trkpt>
      <trkpt lat="48.81332" lon="-1.35656">
        <ele>121.4</ele>
        <time>2024-01-25T14:04:13Z</time>
      </trkpt>
      <trkpt lat="48.8133" lon="-1.35645">
        <ele>121.3</ele>
        <time>2024-01-25T14:04:14Z</time>
      </trkpt>
      <trkpt lat="48.81329" lon="-1.35635">
        <ele>121.3</ele>
        <time>2024-01-25T14:04:15Z</time>
      </trkpt>
      <trkpt lat="48.81328" lon="-1.35625">
        <ele>121.3</ele>
        <time>2024-01-25T14:04:16Z</time>
      </trkpt>
      <trkpt lat="48.81326" lon="-1.35616">
        <ele>121.3</ele>
        <time>2024-01-25T14:04:17Z</time>
      </trkpt>
      <trkpt lat="48.81324" lon="-1.35607">
        <ele>121.3</ele>
        <time>2024-01-25T14:04:18Z</time>
      </trkpt>
      <trkpt lat="48.81322" lon="-1.35598">
        <ele>121.3</ele>
        <time>2024-01-25T14:04:19Z</time>
      </trkpt>
      <trkpt lat="48.8132" lon="-1.35589">
        <ele>121.3</ele>
        <time>2024-01-25T14:04:20Z</time>
      </trkpt>
      <trkpt lat="48.81318" lon="-1.3558">
        <ele>121.3</ele>
        <time>2024-01-25T14:04:21Z</time>
      </trkpt>
      <trkpt lat="48.81317" lon="-1.35571">
        <ele>121.4</ele>
        <time>2024-01-25T14:04:22Z</time>
      </trkpt>
      <trkpt lat="48.81317" lon="-1.35562">
        <ele>121.4</ele>
        <time>2024-01-25T14:04:23Z</time>
      </trkpt>
      <trkpt lat="48.81317" lon="-1.35552">
        <ele>121.5</ele>
        <time>2024-01-25T14:04:24Z</time>
      </trkpt>
      <trkpt lat="48.81318" lon="-1.35543">
        <ele>121.7</ele>
        <time>2024-01-25T14:04:25Z</time>
      </trkpt>
      <trkpt lat="48.81319" lon="-1.35535">
        <ele>121.8</ele>
        <time>2024-01-25T14:04:26Z</time>
      </trkpt>
      <trkpt lat="48.81321" lon="-1.35527">
        <ele>121.9</ele>
        <time>2024-01-25T14:04:27Z</time>
      </trkpt>
      <trkpt lat="48.81324" lon="-1.35519">
        <ele>122.1</ele>
        <time>2024-01-25T14:04:28Z</time>
      </trkpt>
      <trkpt lat="48.81327" lon="-1.35512">
        <ele>122.2</ele>
        <time>2024-01-25T14:04:29Z</time>
      </trkpt>
      <trkpt lat="48.81329" lon="-1.35505">
        <ele>122.3</ele>
        <time>2024-01-25T14:04:30Z</time>
      </trkpt>
      <trkpt lat="48.81332" lon="-1.35497">
        <ele>122.4</ele>
        <time>2024-01-25T14:04:31Z</time>
      </trkpt>
      <trkpt lat="48.81334" lon="-1.3549">
        <ele>122.6</ele>
        <time>2024-01-25T14:04:32Z</time>
      </trkpt>
      <trkpt lat="48.81336" lon="-1.35483">
        <ele>122.7</ele>
        <time>2024-01-25T14:04:33Z</time>
      </trkpt>
      <trkpt lat="48.81339" lon="-1.35475">
        <ele>122.8</ele>
        <time>2024-01-25T14:04:34Z</time>
      </trkpt>
      <trkpt lat="48.81341" lon="-1.35468">
        <ele>122.9</ele>
        <time>2024-01-25T14:04:35Z</time>
      </trkpt>
      <trkpt lat="48.81343" lon="-1.35461">
        <ele>123.1</ele>
        <time>2024-01-25T14:04:36Z</time>
      </trkpt>
      <trkpt lat="48.81345" lon="-1.35454">
        <ele>123.3</ele>
        <time>2024-01-25T14:04:37Z</time>
      </trkpt>
      <trkpt lat="48.81348" lon="-1.35446">
        <ele>123.5</ele>
        <time>2024-01-25T14:04:38Z</time>
      </trkpt>
      <trkpt lat="48.8135" lon="-1.35439">
        <ele>123.7</ele>
        <time>2024-01-25T14:04:39Z</time>
      </trkpt>
      <trkpt lat="48.81353" lon="-1.35432">
        <ele>123.9</ele>
        <time>2024-01-25T14:04:40Z</time>
      </trkpt>
      <trkpt lat="48.81356" lon="-1.35425">
        <ele>124</ele>
        <time>2024-01-25T14:04:41Z</time>
      </trkpt>
      <trkpt lat="48.81358" lon="-1.35419">
        <ele>124.1</ele>
        <time>2024-01-25T14:04:42Z</time>
      </trkpt>
      <trkpt lat="48.8136" lon="-1.35412">
        <ele>124.3</ele>
        <time>2024-01-25T14:04:43Z</time>
      </trkpt>
      <trkpt lat="48.81362" lon="-1.35405">
        <ele>124.4</ele>
        <time>2024-01-25T14:04:44Z</time>
      </trkpt>
      <trkpt lat="48.81364" lon="-1.35399">
        <ele>124.5</ele>
        <time>2024-01-25T14:04:45Z</time>
      </trkpt>
      <trkpt lat="48.81366" lon="-1.35392">
        <ele>124.6</ele>
        <time>2024-01-25T14:04:46Z</time>
      </trkpt>
      <trkpt lat="48.81368" lon="-1.35386">
        <ele>124.8</ele>
        <time>2024-01-25T14:04:47Z</time>
      </trkpt>
      <trkpt lat="48.8137" lon="-1.3538">
        <ele>124.9</ele>
        <time>2024-01-25T14:04:48Z</time>
      </trkpt>
      <trkpt lat="48.81371" lon="-1.35374">
        <ele>125</ele>
        <time>2024-01-25T14:04:49Z</time>
      </trkpt>
      <trkpt lat="48.81373" lon="-1.35367">
        <ele>125.1</ele>
        <time>2024-01-25T14:04:50Z</time>
      </trkpt>
      <trkpt lat="48.81375" lon="-1.35361">
        <ele>125.2</ele>
        <time>2024-01-25T14:04:51Z</time>
      </trkpt>
      <trkpt lat="48.81377" lon="-1.35354">
        <ele>125.3</ele>
        <time>2024-01-25T14:04:52Z</time>
      </trkpt>
      <trkpt lat="48.81379" lon="-1.35348">
        <ele>125.4</ele>
        <time>2024-01-25T14:04:53Z</time>
      </trkpt>
      <trkpt lat="48.81381" lon="-1.35341">
        <ele>125.5</ele>
        <time>2024-01-25T14:04:54Z</time>
      </trkpt>
      <trkpt lat="48.81383" lon="-1.35334">
        <ele>125.6</ele>
        <time>2024-01-25T14:04:55Z</time>
      </trkpt>
      <trkpt lat="48.81385" lon="-1.35327">
        <ele>125.8</ele>
        <time>2024-01-25T14:04:56Z</time>
      </trkpt>
      <trkpt lat="48.81387" lon="-1.35319">
        <ele>125.9</ele>
        <time>2024-01-25T14:04:57Z</time>
      </trkpt>
      <trkpt lat="48.81389" lon="-1.35311">
        <ele>126.1</ele>
        <time>2024-01-25T14:04:58Z</time>
      </trkpt>
      <trkpt lat="48.8139" lon="-1.35303">
        <ele>126.2</ele>
        <time>2024-01-25T14:04:59Z</time>
      </trkpt>
      <trkpt lat="48.81392" lon="-1.35295">
        <ele>126.3</ele>
        <time>2024-01-25T14:05:00Z</time>
      </trkpt>
      <trkpt lat="48.81394" lon="-1.35288">
        <ele>126.4</ele>
        <time>2024-01-25T14:05:01Z</time>
      </trkpt>
      <trkpt lat="48.81396" lon="-1.3528">
        <ele>126.5</ele>
        <time>2024-01-25T14:05:02Z</time>
      </trkpt>
      <trkpt lat="48.81398" lon="-1.35272">
        <ele>126.6</ele>
        <time>2024-01-25T14:05:03Z</time>
      </trkpt>
      <trkpt lat="48.814" lon="-1.35265">
        <ele>126.7</ele>
        <time>2024-01-25T14:05:04Z</time>
      </trkpt>
      <trkpt lat="48.81401" lon="-1.35257">
        <ele>126.8</ele>
        <time>2024-01-25T14:05:05Z</time>
      </trkpt>
      <trkpt lat="48.81402" lon="-1.3525">
        <ele>127</ele>
        <time>2024-01-25T14:05:06Z</time>
      </trkpt>
      <trkpt lat="48.81403" lon="-1.35242">
        <ele>127.1</ele>
        <time>2024-01-25T14:05:07Z</time>
      </trkpt>
      <trkpt lat="48.81405" lon="-1.35234">
        <ele>127.2</ele>
        <time>2024-01-25T14:05:08Z</time>
      </trkpt>
      <trkpt lat="48.81406" lon="-1.35227">
        <ele>127.3</ele>
        <time>2024-01-25T14:05:09Z</time>
      </trkpt>
      <trkpt lat="48.81407" lon="-1.3522">
        <ele>127.4</ele>
        <time>2024-01-25T14:05:10Z</time>
      </trkpt>
      <trkpt lat="48.8141" lon="-1.35214">
        <ele>127.5</ele>
        <time>2024-01-25T14:05:11Z</time>
      </trkpt>
      <trkpt lat="48.81411" lon="-1.35207">
        <ele>127.5</ele>
        <time>2024-01-25T14:05:12Z</time>
      </trkpt>
      <trkpt lat="48.81413" lon="-1.35199">
        <ele>127.6</ele>
        <time>2024-01-25T14:05:13Z</time>
      </trkpt>
      <trkpt lat="48.81414" lon="-1.35192">
        <ele>127.6</ele>
        <time>2024-01-25T14:05:14Z</time>
      </trkpt>
      <trkpt lat="48.81416" lon="-1.35185">
        <ele>127.7</ele>
        <time>2024-01-25T14:05:15Z</time>
      </trkpt>
      <trkpt lat="48.81418" lon="-1.35177">
        <ele>127.7</ele>
        <time>2024-01-25T14:05:16Z</time>
      </trkpt>
      <trkpt lat="48.8142" lon="-1.3517">
        <ele>127.7</ele>
        <time>2024-01-25T14:05:17Z</time>
      </trkpt>
      <trkpt lat="48.81422" lon="-1.35162">
        <ele>127.7</ele>
        <time>2024-01-25T14:05:18Z</time>
      </trkpt>
      <trkpt lat="48.81424" lon="-1.35155">
        <ele>127.8</ele>
        <time>2024-01-25T14:05:19Z</time>
      </trkpt>
      <trkpt lat="48.81425" lon="-1.35147">
        <ele>127.8</ele>
        <time>2024-01-25T14:05:20Z</time>
      </trkpt>
      <trkpt lat="48.81427" lon="-1.3514">
        <ele>127.7</ele>
        <time>2024-01-25T14:05:21Z</time>
      </trkpt>
      <trkpt lat="48.81429" lon="-1.35132">
        <ele>127.7</ele>
        <time>2024-01-25T14:05:22Z</time>
      </trkpt>
      <trkpt lat="48.8143" lon="-1.35123">
        <ele>127.6</ele>
        <time>2024-01-25T14:05:23Z</time>
      </trkpt>
      <trkpt lat="48.81431" lon="-1.35115">
        <ele>127.6</ele>
        <time>2024-01-25T14:05:24Z</time>
      </trkpt>
      <trkpt lat="48.81433" lon="-1.35106">
        <ele>127.4</ele>
        <time>2024-01-25T14:05:25Z</time>
      </trkpt>
      <trkpt lat="48.81435" lon="-1.35097">
        <ele>127.3</ele>
        <time>2024-01-25T14:05:26Z</time>
      </trkpt>
      <trkpt lat="48.81437" lon="-1.35089">
        <ele>127.2</ele>
        <time>2024-01-25T14:05:27Z</time>
      </trkpt>
      <trkpt lat="48.81439" lon="-1.35079">
        <ele>127.1</ele>
        <time>2024-01-25T14:05:28Z</time>
      </trkpt>
      <trkpt lat="48.81442" lon="-1.3507">
        <ele>127.1</ele>
        <time>2024-01-25T14:05:29Z</time>
      </trkpt>
      <trkpt lat="48.81445" lon="-1.3506">
        <ele>127.1</ele>
        <time>2024-01-25T14:05:30Z</time>
      </trkpt>
      <trkpt lat="48.81448" lon="-1.35051">
        <ele>127</ele>
        <time>2024-01-25T14:05:31Z</time>
      </trkpt>
      <trkpt lat="48.81452" lon="-1.35042">
        <ele>127</ele>
        <time>2024-01-25T14:05:32Z</time>
      </trkpt>
      <trkpt lat="48.81455" lon="-1.35033">
        <ele>127.1</ele>
        <time>2024-01-25T14:05:33Z</time>
      </trkpt>
      <trkpt lat="48.81458" lon="-1.35026">
        <ele>127.3</ele>
        <time>2024-01-25T14:05:34Z</time>
      </trkpt>
      <trkpt lat="48.81461" lon="-1.35018">
        <ele>127.4</ele>
        <time>2024-01-25T14:05:35Z</time>
      </trkpt>
      <trkpt lat="48.81464" lon="-1.3501">
        <ele>127.5</ele>
        <time>2024-01-25T14:05:36Z</time>
      </trkpt>
      <trkpt lat="48.81467" lon="-1.35002">
        <ele>127.7</ele>
        <time>2024-01-25T14:05:37Z</time>
      </trkpt>
      <trkpt lat="48.81469" lon="-1.34995">
        <ele>127.8</ele>
        <time>2024-01-25T14:05:38Z</time>
      </trkpt>
      <trkpt lat="48.81472" lon="-1.34988">
        <ele>127.9</ele>
        <time>2024-01-25T14:05:39Z</time>
      </trkpt>
      <trkpt lat="48.81474" lon="-1.34981">
        <ele>128</ele>
        <time>2024-01-25T14:05:40Z</time>
      </trkpt>
      <trkpt lat="48.81477" lon="-1.34974">
        <ele>128.1</ele>
        <time>2024-01-25T14:05:41Z</time>
      </trkpt>
      <trkpt lat="48.8148" lon="-1.34967">
        <ele>128.2</ele>
        <time>2024-01-25T14:05:42Z</time>
      </trkpt>
      <trkpt lat="48.81482" lon="-1.3496">
        <ele>128.3</ele>
        <time>2024-01-25T14:05:43Z</time>
      </trkpt>
      <trkpt lat="48.81485" lon="-1.34953">
        <ele>128.3</ele>
        <time>2024-01-25T14:05:44Z</time>
      </trkpt>
      <trkpt lat="48.81487" lon="-1.34947">
        <ele>128.3</ele>
        <time>2024-01-25T14:05:45Z</time>
      </trkpt>
      <trkpt lat="48.8149" lon="-1.3494">
        <ele>128.3</ele>
        <time>2024-01-25T14:05:46Z</time>
      </trkpt>
      <trkpt lat="48.81492" lon="-1.34934">
        <ele>128.3</ele>
        <time>2024-01-25T14:05:47Z</time>
      </trkpt>
      <trkpt lat="48.81495" lon="-1.34928">
        <ele>128.2</ele>
        <time>2024-01-25T14:05:48Z</time>
      </trkpt>
      <trkpt lat="48.81498" lon="-1.34921">
        <ele>128.1</ele>
        <time>2024-01-25T14:05:49Z</time>
      </trkpt>
      <trkpt lat="48.81501" lon="-1.34914">
        <ele>128</ele>
        <time>2024-01-25T14:05:50Z</time>
      </trkpt>
      <trkpt lat="48.81504" lon="-1.34907">
        <ele>127.9</ele>
        <time>2024-01-25T14:05:51Z</time>
      </trkpt>
      <trkpt lat="48.81508" lon="-1.34901">
        <ele>127.8</ele>
        <time>2024-01-25T14:05:52Z</time>
      </trkpt>
      <trkpt lat="48.81511" lon="-1.34894">
        <ele>127.7</ele>
        <time>2024-01-25T14:05:53Z</time>
      </trkpt>
      <trkpt lat="48.81515" lon="-1.34887">
        <ele>127.5</ele>
        <time>2024-01-25T14:05:54Z</time>
      </trkpt>
      <trkpt lat="48.81519" lon="-1.3488">
        <ele>127.4</ele>
        <time>2024-01-25T14:05:55Z</time>
      </trkpt>
      <trkpt lat="48.81522" lon="-1.34873">
        <ele>127.3</ele>
        <time>2024-01-25T14:05:56Z</time>
      </trkpt>
      <trkpt lat="48.81527" lon="-1.34866">
        <ele>127.1</ele>
        <time>2024-01-25T14:05:57Z</time>
      </trkpt>
      <trkpt lat="48.81531" lon="-1.34859">
        <ele>127</ele>
        <time>2024-01-25T14:05:58Z</time>
      </trkpt>
      <trkpt lat="48.81536" lon="-1.34852">
        <ele>126.9</ele>
        <time>2024-01-25T14:05:59Z</time>
      </trkpt>
      <trkpt lat="48.8154" lon="-1.34845">
        <ele>126.8</ele>
        <time>2024-01-25T14:06:00Z</time>
      </trkpt>
      <trkpt lat="48.81544" lon="-1.34837">
        <ele>126.7</ele>
        <time>2024-01-25T14:06:01Z</time>
      </trkpt>
      <trkpt lat="48.81548" lon="-1.3483">
        <ele>126.7</ele>
        <time>2024-01-25T14:06:02Z</time>
      </trkpt>
      <trkpt lat="48.81552" lon="-1.34824">
        <ele>126.6</ele>
        <time>2024-01-25T14:06:03Z</time>
      </trkpt>
      <trkpt lat="48.81556" lon="-1.34816">
        <ele>126.5</ele>
        <time>2024-01-25T14:06:04Z</time>
      </trkpt>
      <trkpt lat="48.81559" lon="-1.34809">
        <ele>126.4</ele>
        <time>2024-01-25T14:06:05Z</time>
      </trkpt>
      <trkpt lat="48.81563" lon="-1.34801">
        <ele>126.3</ele>
        <time>2024-01-25T14:06:06Z</time>
      </trkpt>
      <trkpt lat="48.81566" lon="-1.34794">
        <ele>126.2</ele>
        <time>2024-01-25T14:06:07Z</time>
      </trkpt>
      <trkpt lat="48.8157" lon="-1.34787">
        <ele>126</ele>
        <time>2024-01-25T14:06:08Z</time>
      </trkpt>
      <trkpt lat="48.81574" lon="-1.34779">
        <ele>125.9</ele>
        <time>2024-01-25T14:06:09Z</time>
      </trkpt>
      <trkpt lat="48.81578" lon="-1.34771">
        <ele>125.7</ele>
        <time>2024-01-25T14:06:10Z</time>
      </trkpt>
      <trkpt lat="48.81582" lon="-1.34763">
        <ele>125.5</ele>
        <time>2024-01-25T14:06:11Z</time>
      </trkpt>
      <trkpt lat="48.81585" lon="-1.34755">
        <ele>125.3</ele>
        <time>2024-01-25T14:06:12Z</time>
      </trkpt>
      <trkpt lat="48.81589" lon="-1.34747">
        <ele>125.1</ele>
        <time>2024-01-25T14:06:13Z</time>
      </trkpt>
      <trkpt lat="48.81594" lon="-1.34739">
        <ele>125</ele>
        <time>2024-01-25T14:06:14Z</time>
      </trkpt>
      <trkpt lat="48.81598" lon="-1.34731">
        <ele>124.8</ele>
        <time>2024-01-25T14:06:15Z</time>
      </trkpt>
      <trkpt lat="48.81604" lon="-1.34724">
        <ele>124.6</ele>
        <time>2024-01-25T14:06:16Z</time>
      </trkpt>
      <trkpt lat="48.81609" lon="-1.34717">
        <ele>124.4</ele>
        <time>2024-01-25T14:06:17Z</time>
      </trkpt>
      <trkpt lat="48.81613" lon="-1.34711">
        <ele>124.3</ele>
        <time>2024-01-25T14:06:18Z</time>
      </trkpt>
      <trkpt lat="48.81618" lon="-1.34705">
        <ele>124.1</ele>
        <time>2024-01-25T14:06:19Z</time>
      </trkpt>
      <trkpt lat="48.81622" lon="-1.34699">
        <ele>124</ele>
        <time>2024-01-25T14:06:20Z</time>
      </trkpt>
      <trkpt lat="48.81627" lon="-1.34693">
        <ele>123.8</ele>
        <time>2024-01-25T14:06:21Z</time>
      </trkpt>
      <trkpt lat="48.81631" lon="-1.34688">
        <ele>123.7</ele>
        <time>2024-01-25T14:06:22Z</time>
      </trkpt>
      <trkpt lat="48.81636" lon="-1.34682">
        <ele>123.7</ele>
        <time>2024-01-25T14:06:23Z</time>
      </trkpt>
      <trkpt lat="48.81641" lon="-1.34676">
        <ele>123.6</ele>
        <time>2024-01-25T14:06:24Z</time>
      </trkpt>
      <trkpt lat="48.81644" lon="-1.34668">
        <ele>123.6</ele>
        <time>2024-01-25T14:06:25Z</time>
      </trkpt>
      <trkpt lat="48.81646" lon="-1.34659">
        <ele>123.6</ele>
        <time>2024-01-25T14:06:26Z</time>
      </trkpt>
      <trkpt lat="48.81646" lon="-1.34651">
        <ele>123.7</ele>
        <time>2024-01-25T14:06:27Z</time>
      </trkpt>
      <trkpt lat="48.81644" lon="-1.34644">
        <ele>123.8</ele>
        <time>2024-01-25T14:06:28Z</time>
      </trkpt>
      <trkpt lat="48.81641" lon="-1.34639">
        <ele>123.9</ele>
        <time>2024-01-25T14:06:29Z</time>
      </trkpt>
      <trkpt lat="48.81637" lon="-1.34634">
        <ele>123.9</ele>
        <time>2024-01-25T14:06:30Z</time>
      </trkpt>
      <trkpt lat="48.81634" lon="-1.34631">
        <ele>124</ele>
        <time>2024-01-25T14:06:31Z</time>
      </trkpt>
      <trkpt lat="48.8163" lon="-1.34627">
        <ele>124.1</ele>
        <time>2024-01-25T14:06:32Z</time>
      </trkpt>
      <trkpt lat="48.81626" lon="-1.34624">
        <ele>124.1</ele>
        <time>2024-01-25T14:06:33Z</time>
      </trkpt>
      <trkpt lat="48.81622" lon="-1.34621">
        <ele>124.3</ele>
        <time>2024-01-25T14:06:34Z</time>
      </trkpt>
      <trkpt lat="48.81618" lon="-1.34619">
        <ele>124.4</ele>
        <time>2024-01-25T14:06:35Z</time>
      </trkpt>
      <trkpt lat="48.81614" lon="-1.34616">
        <ele>124.5</ele>
        <time>2024-01-25T14:06:36Z</time>
      </trkpt>
      <trkpt lat="48.8161" lon="-1.34614">
        <ele>124.6</ele>
        <time>2024-01-25T14:06:38Z</time>
      </trkpt>
      <trkpt lat="48.81607" lon="-1.34611">
        <ele>124.8</ele>
        <time>2024-01-25T14:06:39Z</time>
      </trkpt>
      <trkpt lat="48.81602" lon="-1.34605">
        <ele>125</ele>
        <time>2024-01-25T14:06:40Z</time>
      </trkpt>
      <trkpt lat="48.81598" lon="-1.34602">
        <ele>125.2</ele>
        <time>2024-01-25T14:06:41Z</time>
      </trkpt>
      <trkpt lat="48.81596" lon="-1.34599">
        <ele>125.4</ele>
        <time>2024-01-25T14:06:42Z</time>
      </trkpt>
      <trkpt lat="48.81592" lon="-1.34596">
        <ele>125.6</ele>
        <time>2024-01-25T14:06:43Z</time>
      </trkpt>
      <trkpt lat="48.81589" lon="-1.34594">
        <ele>125.7</ele>
        <time>2024-01-25T14:06:44Z</time>
      </trkpt>
      <trkpt lat="48.81585" lon="-1.34591">
        <ele>126</ele>
        <time>2024-01-25T14:06:45Z</time>
      </trkpt>
      <trkpt lat="48.81582" lon="-1.34589">
        <ele>126.1</ele>
        <time>2024-01-25T14:06:46Z</time>
      </trkpt>
      <trkpt lat="48.81578" lon="-1.34586">
        <ele>126.4</ele>
        <time>2024-01-25T14:06:47Z</time>
      </trkpt>
      <trkpt lat="48.81575" lon="-1.34583">
        <ele>126.6</ele>
        <time>2024-01-25T14:06:48Z</time>
      </trkpt>
      <trkpt lat="48.81571" lon="-1.34579">
        <ele>126.8</ele>
        <time>2024-01-25T14:06:49Z</time>
      </trkpt>
      <trkpt lat="48.81568" lon="-1.34576">
        <ele>127</ele>
        <time>2024-01-25T14:06:50Z</time>
      </trkpt>
      <trkpt lat="48.81563" lon="-1.34572">
        <ele>127.3</ele>
        <time>2024-01-25T14:06:51Z</time>
      </trkpt>
      <trkpt lat="48.81559" lon="-1.34571">
        <ele>127.3</ele>
        <time>2024-01-25T14:06:52Z</time>
      </trkpt>
      <trkpt lat="48.81556" lon="-1.34572">
        <ele>127.3</ele>
        <time>2024-01-25T14:06:53Z</time>
      </trkpt>
      <trkpt lat="48.81554" lon="-1.34574">
        <ele>127.3</ele>
        <time>2024-01-25T14:06:54Z</time>
      </trkpt>
      <trkpt lat="48.81551" lon="-1.34577">
        <ele>127.2</ele>
        <time>2024-01-25T14:06:55Z</time>
      </trkpt>
      <trkpt lat="48.81547" lon="-1.34579">
        <ele>127.1</ele>
        <time>2024-01-25T14:06:56Z</time>
      </trkpt>
      <trkpt lat="48.81544" lon="-1.34581">
        <ele>127</ele>
        <time>2024-01-25T14:06:57Z</time>
      </trkpt>
      <trkpt lat="48.81541" lon="-1.34584">
        <ele>126.9</ele>
        <time>2024-01-25T14:06:58Z</time>
      </trkpt>
      <trkpt lat="48.81537" lon="-1.34584">
        <ele>126.9</ele>
        <time>2024-01-25T14:06:59Z</time>
      </trkpt>
      <trkpt lat="48.81534" lon="-1.34588">
        <ele>126.8</ele>
        <time>2024-01-25T14:07:00Z</time>
      </trkpt>
      <trkpt lat="48.81532" lon="-1.3459">
        <ele>126.8</ele>
        <time>2024-01-25T14:07:01Z</time>
      </trkpt>
      <trkpt lat="48.81529" lon="-1.34592">
        <ele>126.8</ele>
        <time>2024-01-25T14:07:02Z</time>
      </trkpt>
      <trkpt lat="48.81525" lon="-1.34595">
        <ele>126.8</ele>
        <time>2024-01-25T14:07:03Z</time>
      </trkpt>
      <trkpt lat="48.81522" lon="-1.346">
        <ele>126.8</ele>
        <time>2024-01-25T14:07:04Z</time>
      </trkpt>
      <trkpt lat="48.81518" lon="-1.34605">
        <ele>126.8</ele>
        <time>2024-01-25T14:07:05Z</time>
      </trkpt>
      <trkpt lat="48.81514" lon="-1.3461">
        <ele>126.9</ele>
        <time>2024-01-25T14:07:06Z</time>
      </trkpt>
      <trkpt lat="48.81509" lon="-1.34615">
        <ele>126.9</ele>
        <time>2024-01-25T14:07:07Z</time>
      </trkpt>
      <trkpt lat="48.81505" lon="-1.34619">
        <ele>126.9</ele>
        <time>2024-01-25T14:07:08Z</time>
      </trkpt>
      <trkpt lat="48.81501" lon="-1.34624">
        <ele>127</ele>
        <time>2024-01-25T14:07:09Z</time>
      </trkpt>
      <trkpt lat="48.81498" lon="-1.34629">
        <ele>127.1</ele>
        <time>2024-01-25T14:07:10Z</time>
      </trkpt>
      <trkpt lat="48.81494" lon="-1.34634">
        <ele>127.2</ele>
        <time>2024-01-25T14:07:12Z</time>
      </trkpt>
      <trkpt lat="48.81492" lon="-1.34637">
        <ele>127.2</ele>
        <time>2024-01-25T14:07:13Z</time>
      </trkpt>
      <trkpt lat="48.81489" lon="-1.3464">
        <ele>127.3</ele>
        <time>2024-01-25T14:07:14Z</time>
      </trkpt>
      <trkpt lat="48.81485" lon="-1.34645">
        <ele>127.5</ele>
        <time>2024-01-25T14:07:15Z</time>
      </trkpt>
      <trkpt lat="48.8148" lon="-1.3465">
        <ele>127.7</ele>
        <time>2024-01-25T14:07:16Z</time>
      </trkpt>
      <trkpt lat="48.81477" lon="-1.34655">
        <ele>127.8</ele>
        <time>2024-01-25T14:07:17Z</time>
      </trkpt>
      <trkpt lat="48.81473" lon="-1.34659">
        <ele>128</ele>
        <time>2024-01-25T14:07:18Z</time>
      </trkpt>
      <trkpt lat="48.8147" lon="-1.34662">
        <ele>128.1</ele>
        <time>2024-01-25T14:07:19Z</time>
      </trkpt>
      <trkpt lat="48.81466" lon="-1.34666">
        <ele>128.3</ele>
        <time>2024-01-25T14:07:20Z</time>
      </trkpt>
      <trkpt lat="48.81463" lon="-1.34669">
        <ele>128.4</ele>
        <time>2024-01-25T14:07:21Z</time>
      </trkpt>
      <trkpt lat="48.8146" lon="-1.34672">
        <ele>128.5</ele>
        <time>2024-01-25T14:07:22Z</time>
      </trkpt>
      <trkpt lat="48.81456" lon="-1.34675">
        <ele>128.6</ele>
        <time>2024-01-25T14:07:23Z</time>
      </trkpt>
      <trkpt lat="48.81453" lon="-1.34677">
        <ele>128.7</ele>
        <time>2024-01-25T14:07:24Z</time>
      </trkpt>
      <trkpt lat="48.8145" lon="-1.34679">
        <ele>128.8</ele>
        <time>2024-01-25T14:07:25Z</time>
      </trkpt>
      <trkpt lat="48.81446" lon="-1.34682">
        <ele>128.9</ele>
        <time>2024-01-25T14:07:26Z</time>
      </trkpt>
      <trkpt lat="48.81442" lon="-1.34685">
        <ele>129</ele>
        <time>2024-01-25T14:07:27Z</time>
      </trkpt>
      <trkpt lat="48.81438" lon="-1.34688">
        <ele>129.1</ele>
        <time>2024-01-25T14:07:28Z</time>
      </trkpt>
      <trkpt lat="48.81434" lon="-1.3469">
        <ele>129.3</ele>
        <time>2024-01-25T14:07:29Z</time>
      </trkpt>
      <trkpt lat="48.8143" lon="-1.34693">
        <ele>129.4</ele>
        <time>2024-01-25T14:07:30Z</time>
      </trkpt>
      <trkpt lat="48.81426" lon="-1.34696">
        <ele>129.6</ele>
        <time>2024-01-25T14:07:31Z</time>
      </trkpt>
      <trkpt lat="48.81422" lon="-1.34699">
        <ele>129.8</ele>
        <time>2024-01-25T14:07:32Z</time>
      </trkpt>
      <trkpt lat="48.81418" lon="-1.34703">
        <ele>130</ele>
        <time>2024-01-25T14:07:33Z</time>
      </trkpt>
      <trkpt lat="48.81414" lon="-1.34704">
        <ele>130.1</ele>
        <time>2024-01-25T14:07:34Z</time>
      </trkpt>
      <trkpt lat="48.81409" lon="-1.34707">
        <ele>130.3</ele>
        <time>2024-01-25T14:07:35Z</time>
      </trkpt>
      <trkpt lat="48.81406" lon="-1.34708">
        <ele>130.5</ele>
        <time>2024-01-25T14:07:36Z</time>
      </trkpt>
      <trkpt lat="48.81401" lon="-1.3471">
        <ele>130.7</ele>
        <time>2024-01-25T14:07:37Z</time>
      </trkpt>
      <trkpt lat="48.81396" lon="-1.34712">
        <ele>130.8</ele>
        <time>2024-01-25T14:07:38Z</time>
      </trkpt>
      <trkpt lat="48.81393" lon="-1.34714">
        <ele>131</ele>
        <time>2024-01-25T14:07:39Z</time>
      </trkpt>
      <trkpt lat="48.81389" lon="-1.34715">
        <ele>131.1</ele>
        <time>2024-01-25T14:07:40Z</time>
      </trkpt>
      <trkpt lat="48.81385" lon="-1.34717">
        <ele>131.3</ele>
        <time>2024-01-25T14:07:41Z</time>
      </trkpt>
      <trkpt lat="48.81381" lon="-1.34718">
        <ele>131.4</ele>
        <time>2024-01-25T14:07:42Z</time>
      </trkpt>
      <trkpt lat="48.81376" lon="-1.3472">
        <ele>131.6</ele>
        <time>2024-01-25T14:07:43Z</time>
      </trkpt>
      <trkpt lat="48.81372" lon="-1.34723">
        <ele>131.8</ele>
        <time>2024-01-25T14:07:44Z</time>
      </trkpt>
      <trkpt lat="48.81368" lon="-1.34723">
        <ele>132</ele>
        <time>2024-01-25T14:07:45Z</time>
      </trkpt>
      <trkpt lat="48.81363" lon="-1.34723">
        <ele>132.1</ele>
        <time>2024-01-25T14:07:46Z</time>
      </trkpt>
      <trkpt lat="48.81359" lon="-1.34723">
        <ele>132.3</ele>
        <time>2024-01-25T14:07:47Z</time>
      </trkpt>
      <trkpt lat="48.81355" lon="-1.34723">
        <ele>132.4</ele>
        <time>2024-01-25T14:07:48Z</time>
      </trkpt>
      <trkpt lat="48.81351" lon="-1.34722">
        <ele>132.6</ele>
        <time>2024-01-25T14:07:49Z</time>
      </trkpt>
      <trkpt lat="48.81347" lon="-1.34722">
        <ele>132.8</ele>
        <time>2024-01-25T14:07:50Z</time>
      </trkpt>
      <trkpt lat="48.81343" lon="-1.3472">
        <ele>133</ele>
        <time>2024-01-25T14:07:51Z</time>
      </trkpt>
      <trkpt lat="48.8134" lon="-1.34717">
        <ele>133.2</ele>
        <time>2024-01-25T14:07:52Z</time>
      </trkpt>
      <trkpt lat="48.81336" lon="-1.34714">
        <ele>133.5</ele>
        <time>2024-01-25T14:07:53Z</time>
      </trkpt>
      <trkpt lat="48.81333" lon="-1.34711">
        <ele>133.7</ele>
        <time>2024-01-25T14:07:54Z</time>
      </trkpt>
      <trkpt lat="48.81331" lon="-1.34706">
        <ele>134</ele>
        <time>2024-01-25T14:07:55Z</time>
      </trkpt>
      <trkpt lat="48.81329" lon="-1.34702">
        <ele>134.1</ele>
        <time>2024-01-25T14:07:56Z</time>
      </trkpt>
      <trkpt lat="48.81326" lon="-1.34698">
        <ele>134.3</ele>
        <time>2024-01-25T14:07:57Z</time>
      </trkpt>
      <trkpt lat="48.81323" lon="-1.34693">
        <ele>134.4</ele>
        <time>2024-01-25T14:07:58Z</time>
      </trkpt>
      <trkpt lat="48.81321" lon="-1.3469">
        <ele>134.5</ele>
        <time>2024-01-25T14:07:59Z</time>
      </trkpt>
      <trkpt lat="48.81318" lon="-1.34686">
        <ele>134.6</ele>
        <time>2024-01-25T14:08:00Z</time>
      </trkpt>
      <trkpt lat="48.81315" lon="-1.34682">
        <ele>134.7</ele>
        <time>2024-01-25T14:08:01Z</time>
      </trkpt>
      <trkpt lat="48.81311" lon="-1.34679">
        <ele>134.7</ele>
        <time>2024-01-25T14:08:02Z</time>
      </trkpt>
      <trkpt lat="48.81309" lon="-1.34675">
        <ele>134.8</ele>
        <time>2024-01-25T14:08:03Z</time>
      </trkpt>
      <trkpt lat="48.81307" lon="-1.34671">
        <ele>134.9</ele>
        <time>2024-01-25T14:08:04Z</time>
      </trkpt>
      <trkpt lat="48.81304" lon="-1.34667">
        <ele>135</ele>
        <time>2024-01-25T14:08:05Z</time>
      </trkpt>
      <trkpt lat="48.813" lon="-1.34662">
        <ele>135.1</ele>
        <time>2024-01-25T14:08:06Z</time>
      </trkpt>
      <trkpt lat="48.81295" lon="-1.34657">
        <ele>135.2</ele>
        <time>2024-01-25T14:08:07Z</time>
      </trkpt>
      <trkpt lat="48.81292" lon="-1.34652">
        <ele>135.2</ele>
        <time>2024-01-25T14:08:08Z</time>
      </trkpt>
      <trkpt lat="48.81288" lon="-1.34648">
        <ele>135.3</ele>
        <time>2024-01-25T14:08:09Z</time>
      </trkpt>
      <trkpt lat="48.81284" lon="-1.34643">
        <ele>135.3</ele>
        <time>2024-01-25T14:08:10Z</time>
      </trkpt>
      <trkpt lat="48.81281" lon="-1.34637">
        <ele>135.3</ele>
        <time>2024-01-25T14:08:11Z</time>
      </trkpt>
      <trkpt lat="48.81277" lon="-1.34633">
        <ele>135.2</ele>
        <time>2024-01-25T14:08:12Z</time>
      </trkpt>
      <trkpt lat="48.81274" lon="-1.34627">
        <ele>135.1</ele>
        <time>2024-01-25T14:08:13Z</time>
      </trkpt>
      <trkpt lat="48.81271" lon="-1.34622">
        <ele>135.1</ele>
        <time>2024-01-25T14:08:14Z</time>
      </trkpt>
      <trkpt lat="48.81268" lon="-1.34616">
        <ele>135</ele>
        <time>2024-01-25T14:08:15Z</time>
      </trkpt>
      <trkpt lat="48.81265" lon="-1.3461">
        <ele>134.9</ele>
        <time>2024-01-25T14:08:16Z</time>
      </trkpt>
      <trkpt lat="48.81262" lon="-1.34604">
        <ele>134.8</ele>
        <time>2024-01-25T14:08:17Z</time>
      </trkpt>
      <trkpt lat="48.81259" lon="-1.34597">
        <ele>134.7</ele>
        <time>2024-01-25T14:08:18Z</time>
      </trkpt>
      <trkpt lat="48.81257" lon="-1.3459">
        <ele>134.6</ele>
        <time>2024-01-25T14:08:19Z</time>
      </trkpt>
      <trkpt lat="48.81255" lon="-1.34582">
        <ele>134.6</ele>
        <time>2024-01-25T14:08:20Z</time>
      </trkpt>
      <trkpt lat="48.81253" lon="-1.34575">
        <ele>134.6</ele>
        <time>2024-01-25T14:08:21Z</time>
      </trkpt>
      <trkpt lat="48.81251" lon="-1.34567">
        <ele>134.6</ele>
        <time>2024-01-25T14:08:22Z</time>
      </trkpt>
      <trkpt lat="48.81249" lon="-1.34559">
        <ele>134.6</ele>
        <time>2024-01-25T14:08:23Z</time>
      </trkpt>
      <trkpt lat="48.81246" lon="-1.3455">
        <ele>134.6</ele>
        <time>2024-01-25T14:08:24Z</time>
      </trkpt>
      <trkpt lat="48.81244" lon="-1.34542">
        <ele>134.5</ele>
        <time>2024-01-25T14:08:25Z</time>
      </trkpt>
      <trkpt lat="48.81242" lon="-1.34534">
        <ele>134.5</ele>
        <time>2024-01-25T14:08:26Z</time>
      </trkpt>
      <trkpt lat="48.8124" lon="-1.34526">
        <ele>134.4</ele>
        <time>2024-01-25T14:08:27Z</time>
      </trkpt>
      <trkpt lat="48.81237" lon="-1.34518">
        <ele>134.3</ele>
        <time>2024-01-25T14:08:28Z</time>
      </trkpt>
      <trkpt lat="48.81234" lon="-1.3451">
        <ele>134.2</ele>
        <time>2024-01-25T14:08:29Z</time>
      </trkpt>
      <trkpt lat="48.81232" lon="-1.34502">
        <ele>134.1</ele>
        <time>2024-01-25T14:08:30Z</time>
      </trkpt>
      <trkpt lat="48.8123" lon="-1.34493">
        <ele>134</ele>
        <time>2024-01-25T14:08:31Z</time>
      </trkpt>
      <trkpt lat="48.81227" lon="-1.34484">
        <ele>134</ele>
        <time>2024-01-25T14:08:32Z</time>
      </trkpt>
      <trkpt lat="48.81224" lon="-1.34476">
        <ele>133.9</ele>
        <time>2024-01-25T14:08:33Z</time>
      </trkpt>
      <trkpt lat="48.8122" lon="-1.34468">
        <ele>133.9</ele>
        <time>2024-01-25T14:08:34Z</time>
      </trkpt>
      <trkpt lat="48.81215" lon="-1.34462">
        <ele>133.9</ele>
        <time>2024-01-25T14:08:35Z</time>
      </trkpt>
      <trkpt lat="48.8121" lon="-1.34457">
        <ele>133.9</ele>
        <time>2024-01-25T14:08:36Z</time>
      </trkpt>
      <trkpt lat="48.81204" lon="-1.34454">
        <ele>133.8</ele>
        <time>2024-01-25T14:08:37Z</time>
      </trkpt>
      <trkpt lat="48.81198" lon="-1.34453">
        <ele>133.8</ele>
        <time>2024-01-25T14:08:38Z</time>
      </trkpt>
      <trkpt lat="48.81192" lon="-1.34453">
        <ele>133.7</ele>
        <time>2024-01-25T14:08:39Z</time>
      </trkpt>
      <trkpt lat="48.81186" lon="-1.34453">
        <ele>133.6</ele>
        <time>2024-01-25T14:08:40Z</time>
      </trkpt>
      <trkpt lat="48.8118" lon="-1.34453">
        <ele>133.5</ele>
        <time>2024-01-25T14:08:41Z</time>
      </trkpt>
      <trkpt lat="48.81173" lon="-1.34452">
        <ele>133.5</ele>
        <time>2024-01-25T14:08:42Z</time>
      </trkpt>
      <trkpt lat="48.81167" lon="-1.34452">
        <ele>133.4</ele>
        <time>2024-01-25T14:08:43Z</time>
      </trkpt>
      <trkpt lat="48.8116" lon="-1.34451">
        <ele>133.3</ele>
        <time>2024-01-25T14:08:44Z</time>
      </trkpt>
      <trkpt lat="48.81153" lon="-1.3445">
        <ele>133.2</ele>
        <time>2024-01-25T14:08:45Z</time>
      </trkpt>
      <trkpt lat="48.81147" lon="-1.34449">
        <ele>133</ele>
        <time>2024-01-25T14:08:46Z</time>
      </trkpt>
      <trkpt lat="48.81141" lon="-1.34448">
        <ele>132.8</ele>
        <time>2024-01-25T14:08:47Z</time>
      </trkpt>
      <trkpt lat="48.81134" lon="-1.34447">
        <ele>132.6</ele>
        <time>2024-01-25T14:08:48Z</time>
      </trkpt>
      <trkpt lat="48.81128" lon="-1.34446">
        <ele>132.5</ele>
        <time>2024-01-25T14:08:49Z</time>
      </trkpt>
      <trkpt lat="48.81121" lon="-1.34444">
        <ele>132.3</ele>
        <time>2024-01-25T14:08:50Z</time>
      </trkpt>
      <trkpt lat="48.81114" lon="-1.34442">
        <ele>132.1</ele>
        <time>2024-01-25T14:08:51Z</time>
      </trkpt>
      <trkpt lat="48.81107" lon="-1.3444">
        <ele>131.9</ele>
        <time>2024-01-25T14:08:52Z</time>
      </trkpt>
      <trkpt lat="48.811" lon="-1.34439">
        <ele>131.7</ele>
        <time>2024-01-25T14:08:53Z</time>
      </trkpt>
      <trkpt lat="48.81094" lon="-1.34437">
        <ele>131.4</ele>
        <time>2024-01-25T14:08:54Z</time>
      </trkpt>
      <trkpt lat="48.81086" lon="-1.34436">
        <ele>131.2</ele>
        <time>2024-01-25T14:08:55Z</time>
      </trkpt>
      <trkpt lat="48.81079" lon="-1.34435">
        <ele>130.9</ele>
        <time>2024-01-25T14:08:56Z</time>
      </trkpt>
      <trkpt lat="48.81072" lon="-1.34435">
        <ele>130.6</ele>
        <time>2024-01-25T14:08:57Z</time>
      </trkpt>
      <trkpt lat="48.81065" lon="-1.34434">
        <ele>130.2</ele>
        <time>2024-01-25T14:08:58Z</time>
      </trkpt>
      <trkpt lat="48.81057" lon="-1.34433">
        <ele>129.7</ele>
        <time>2024-01-25T14:08:59Z</time>
      </trkpt>
      <trkpt lat="48.8105" lon="-1.34432">
        <ele>129.2</ele>
        <time>2024-01-25T14:09:00Z</time>
      </trkpt>
      <trkpt lat="48.81041" lon="-1.34432">
        <ele>128.6</ele>
        <time>2024-01-25T14:09:01Z</time>
      </trkpt>
      <trkpt lat="48.81032" lon="-1.34432">
        <ele>128.1</ele>
        <time>2024-01-25T14:09:02Z</time>
      </trkpt>
      <trkpt lat="48.81024" lon="-1.34431">
        <ele>127.6</ele>
        <time>2024-01-25T14:09:03Z</time>
      </trkpt>
      <trkpt lat="48.81016" lon="-1.34431">
        <ele>127.1</ele>
        <time>2024-01-25T14:09:04Z</time>
      </trkpt>
      <trkpt lat="48.81007" lon="-1.3443">
        <ele>126.6</ele>
        <time>2024-01-25T14:09:05Z</time>
      </trkpt>
      <trkpt lat="48.80998" lon="-1.34429">
        <ele>126.2</ele>
        <time>2024-01-25T14:09:06Z</time>
      </trkpt>
      <trkpt lat="48.80989" lon="-1.34429">
        <ele>125.7</ele>
        <time>2024-01-25T14:09:07Z</time>
      </trkpt>
      <trkpt lat="48.8098" lon="-1.34428">
        <ele>125</ele>
        <time>2024-01-25T14:09:08Z</time>
      </trkpt>
      <trkpt lat="48.8097" lon="-1.34426">
        <ele>124.4</ele>
        <time>2024-01-25T14:09:09Z</time>
      </trkpt>
      <trkpt lat="48.80961" lon="-1.34424">
        <ele>123.9</ele>
        <time>2024-01-25T14:09:10Z</time>
      </trkpt>
      <trkpt lat="48.80952" lon="-1.34422">
        <ele>123.4</ele>
        <time>2024-01-25T14:09:11Z</time>
      </trkpt>
      <trkpt lat="48.80943" lon="-1.34419">
        <ele>123</ele>
        <time>2024-01-25T14:09:12Z</time>
      </trkpt>
      <trkpt lat="48.80934" lon="-1.34417">
        <ele>122.6</ele>
        <time>2024-01-25T14:09:13Z</time>
      </trkpt>
      <trkpt lat="48.80925" lon="-1.34414">
        <ele>122.2</ele>
        <time>2024-01-25T14:09:14Z</time>
      </trkpt>
      <trkpt lat="48.80916" lon="-1.34412">
        <ele>121.9</ele>
        <time>2024-01-25T14:09:15Z</time>
      </trkpt>
      <trkpt lat="48.80908" lon="-1.3441">
        <ele>121.5</ele>
        <time>2024-01-25T14:09:16Z</time>
      </trkpt>
      <trkpt lat="48.809" lon="-1.34408">
        <ele>121.2</ele>
        <time>2024-01-25T14:09:17Z</time>
      </trkpt>
      <trkpt lat="48.80892" lon="-1.34406">
        <ele>120.9</ele>
        <time>2024-01-25T14:09:18Z</time>
      </trkpt>
      <trkpt lat="48.80885" lon="-1.34404">
        <ele>120.7</ele>
        <time>2024-01-25T14:09:19Z</time>
      </trkpt>
      <trkpt lat="48.80878" lon="-1.34403">
        <ele>120.4</ele>
        <time>2024-01-25T14:09:20Z</time>
      </trkpt>
      <trkpt lat="48.80871" lon="-1.34403">
        <ele>120.2</ele>
        <time>2024-01-25T14:09:21Z</time>
      </trkpt>
      <trkpt lat="48.80865" lon="-1.34404">
        <ele>119.9</ele>
        <time>2024-01-25T14:09:22Z</time>
      </trkpt>
      <trkpt lat="48.80858" lon="-1.34405">
        <ele>119.8</ele>
        <time>2024-01-25T14:09:23Z</time>
      </trkpt>
      <trkpt lat="48.80851" lon="-1.34405">
        <ele>119.6</ele>
        <time>2024-01-25T14:09:24Z</time>
      </trkpt>
      <trkpt lat="48.80843" lon="-1.34405">
        <ele>119.5</ele>
        <time>2024-01-25T14:09:25Z</time>
      </trkpt>
      <trkpt lat="48.80837" lon="-1.34403">
        <ele>119.3</ele>
        <time>2024-01-25T14:09:26Z</time>
      </trkpt>
      <trkpt lat="48.8083" lon="-1.34399">
        <ele>119</ele>
        <time>2024-01-25T14:09:27Z</time>
      </trkpt>
      <trkpt lat="48.80823" lon="-1.34395">
        <ele>118.8</ele>
        <time>2024-01-25T14:09:28Z</time>
      </trkpt>
      <trkpt lat="48.80817" lon="-1.3439">
        <ele>118.6</ele>
        <time>2024-01-25T14:09:29Z</time>
      </trkpt>
      <trkpt lat="48.8081" lon="-1.34386">
        <ele>118.4</ele>
        <time>2024-01-25T14:09:30Z</time>
      </trkpt>
      <trkpt lat="48.80803" lon="-1.34382">
        <ele>118.2</ele>
        <time>2024-01-25T14:09:31Z</time>
      </trkpt>
      <trkpt lat="48.80795" lon="-1.34378">
        <ele>118</ele>
        <time>2024-01-25T14:09:32Z</time>
      </trkpt>
      <trkpt lat="48.80787" lon="-1.34374">
        <ele>117.8</ele>
        <time>2024-01-25T14:09:33Z</time>
      </trkpt>
      <trkpt lat="48.80779" lon="-1.3437">
        <ele>117.7</ele>
        <time>2024-01-25T14:09:34Z</time>
      </trkpt>
      <trkpt lat="48.80771" lon="-1.34366">
        <ele>117.5</ele>
        <time>2024-01-25T14:09:35Z</time>
      </trkpt>
      <trkpt lat="48.80763" lon="-1.34362">
        <ele>117.3</ele>
        <time>2024-01-25T14:09:36Z</time>
      </trkpt>
      <trkpt lat="48.80755" lon="-1.34357">
        <ele>117.1</ele>
        <time>2024-01-25T14:09:37Z</time>
      </trkpt>
      <trkpt lat="48.80747" lon="-1.34351">
        <ele>116.9</ele>
        <time>2024-01-25T14:09:38Z</time>
      </trkpt>
      <trkpt lat="48.80739" lon="-1.34346">
        <ele>116.8</ele>
        <time>2024-01-25T14:09:39Z</time>
      </trkpt>
      <trkpt lat="48.80731" lon="-1.3434">
        <ele>116.7</ele>
        <time>2024-01-25T14:09:40Z</time>
      </trkpt>
      <trkpt lat="48.80724" lon="-1.34335">
        <ele>116.5</ele>
        <time>2024-01-25T14:09:41Z</time>
      </trkpt>
      <trkpt lat="48.80716" lon="-1.3433">
        <ele>116.4</ele>
        <time>2024-01-25T14:09:42Z</time>
      </trkpt>
      <trkpt lat="48.80708" lon="-1.34325">
        <ele>116.3</ele>
        <time>2024-01-25T14:09:43Z</time>
      </trkpt>
      <trkpt lat="48.80701" lon="-1.3432">
        <ele>116.2</ele>
        <time>2024-01-25T14:09:44Z</time>
      </trkpt>
      <trkpt lat="48.80694" lon="-1.34316">
        <ele>116.2</ele>
        <time>2024-01-25T14:09:45Z</time>
      </trkpt>
      <trkpt lat="48.80686" lon="-1.34312">
        <ele>116.1</ele>
        <time>2024-01-25T14:09:46Z</time>
      </trkpt>
      <trkpt lat="48.80679" lon="-1.34308">
        <ele>116</ele>
        <time>2024-01-25T14:09:47Z</time>
      </trkpt>
      <trkpt lat="48.80672" lon="-1.34305">
        <ele>116</ele>
        <time>2024-01-25T14:09:48Z</time>
      </trkpt>
      <trkpt lat="48.80665" lon="-1.34302">
        <ele>115.9</ele>
        <time>2024-01-25T14:09:49Z</time>
      </trkpt>
      <trkpt lat="48.80658" lon="-1.34299">
        <ele>116</ele>
        <time>2024-01-25T14:09:50Z</time>
      </trkpt>
      <trkpt lat="48.80651" lon="-1.34296">
        <ele>116</ele>
        <time>2024-01-25T14:09:51Z</time>
      </trkpt>
      <trkpt lat="48.80644" lon="-1.34294">
        <ele>116.1</ele>
        <time>2024-01-25T14:09:52Z</time>
      </trkpt>
      <trkpt lat="48.80637" lon="-1.34292">
        <ele>116.2</ele>
        <time>2024-01-25T14:09:53Z</time>
      </trkpt>
      <trkpt lat="48.8063" lon="-1.3429">
        <ele>116.3</ele>
        <time>2024-01-25T14:09:54Z</time>
      </trkpt>
      <trkpt lat="48.80624" lon="-1.34288">
        <ele>116.4</ele>
        <time>2024-01-25T14:09:55Z</time>
      </trkpt>
      <trkpt lat="48.80617" lon="-1.34285">
        <ele>116.6</ele>
        <time>2024-01-25T14:09:56Z</time>
      </trkpt>
      <trkpt lat="48.80611" lon="-1.34283">
        <ele>116.8</ele>
        <time>2024-01-25T14:09:57Z</time>
      </trkpt>
      <trkpt lat="48.80605" lon="-1.34281">
        <ele>116.9</ele>
        <time>2024-01-25T14:09:58Z</time>
      </trkpt>
      <trkpt lat="48.80599" lon="-1.34279">
        <ele>117.1</ele>
        <time>2024-01-25T14:09:59Z</time>
      </trkpt>
      <trkpt lat="48.80594" lon="-1.34277">
        <ele>117.2</ele>
        <time>2024-01-25T14:10:00Z</time>
      </trkpt>
      <trkpt lat="48.80588" lon="-1.34276">
        <ele>117.3</ele>
        <time>2024-01-25T14:10:01Z</time>
      </trkpt>
      <trkpt lat="48.80582" lon="-1.34274">
        <ele>117.4</ele>
        <time>2024-01-25T14:10:02Z</time>
      </trkpt>
      <trkpt lat="48.80576" lon="-1.34272">
        <ele>117.4</ele>
        <time>2024-01-25T14:10:03Z</time>
      </trkpt>
      <trkpt lat="48.8057" lon="-1.34271">
        <ele>117.5</ele>
        <time>2024-01-25T14:10:04Z</time>
      </trkpt>
      <trkpt lat="48.80564" lon="-1.34269">
        <ele>117.6</ele>
        <time>2024-01-25T14:10:05Z</time>
      </trkpt>
      <trkpt lat="48.80557" lon="-1.34268">
        <ele>117.6</ele>
        <time>2024-01-25T14:10:06Z</time>
      </trkpt>
      <trkpt lat="48.80551" lon="-1.34266">
        <ele>117.6</ele>
        <time>2024-01-25T14:10:07Z</time>
      </trkpt>
      <trkpt lat="48.80545" lon="-1.34263">
        <ele>117.7</ele>
        <time>2024-01-25T14:10:08Z</time>
      </trkpt>
      <trkpt lat="48.8054" lon="-1.34259">
        <ele>117.7</ele>
        <time>2024-01-25T14:10:09Z</time>
      </trkpt>
      <trkpt lat="48.80535" lon="-1.34255">
        <ele>117.6</ele>
        <time>2024-01-25T14:10:10Z</time>
      </trkpt>
      <trkpt lat="48.80529" lon="-1.3425">
        <ele>117.6</ele>
        <time>2024-01-25T14:10:11Z</time>
      </trkpt>
      <trkpt lat="48.80523" lon="-1.34246">
        <ele>117.5</ele>
        <time>2024-01-25T14:10:12Z</time>
      </trkpt>
      <trkpt lat="48.80518" lon="-1.34242">
        <ele>117.3</ele>
        <time>2024-01-25T14:10:13Z</time>
      </trkpt>
      <trkpt lat="48.80513" lon="-1.34237">
        <ele>117.2</ele>
        <time>2024-01-25T14:10:14Z</time>
      </trkpt>
      <trkpt lat="48.80508" lon="-1.34233">
        <ele>117.2</ele>
        <time>2024-01-25T14:10:15Z</time>
      </trkpt>
      <trkpt lat="48.80502" lon="-1.34229">
        <ele>117.1</ele>
        <time>2024-01-25T14:10:16Z</time>
      </trkpt>
      <trkpt lat="48.80496" lon="-1.34224">
        <ele>117</ele>
        <time>2024-01-25T14:10:17Z</time>
      </trkpt>
      <trkpt lat="48.80491" lon="-1.34219">
        <ele>116.9</ele>
        <time>2024-01-25T14:10:18Z</time>
      </trkpt>
      <trkpt lat="48.80485" lon="-1.34215">
        <ele>116.8</ele>
        <time>2024-01-25T14:10:19Z</time>
      </trkpt>
      <trkpt lat="48.8048" lon="-1.3421">
        <ele>116.6</ele>
        <time>2024-01-25T14:10:20Z</time>
      </trkpt>
      <trkpt lat="48.80474" lon="-1.34206">
        <ele>116.5</ele>
        <time>2024-01-25T14:10:21Z</time>
      </trkpt>
      <trkpt lat="48.80468" lon="-1.34201">
        <ele>116.4</ele>
        <time>2024-01-25T14:10:22Z</time>
      </trkpt>
      <trkpt lat="48.80462" lon="-1.34196">
        <ele>116.2</ele>
        <time>2024-01-25T14:10:23Z</time>
      </trkpt>
      <trkpt lat="48.80457" lon="-1.34192">
        <ele>116.1</ele>
        <time>2024-01-25T14:10:24Z</time>
      </trkpt>
      <trkpt lat="48.80451" lon="-1.34187">
        <ele>116</ele>
        <time>2024-01-25T14:10:25Z</time>
      </trkpt>
      <trkpt lat="48.80445" lon="-1.34182">
        <ele>115.8</ele>
        <time>2024-01-25T14:10:26Z</time>
      </trkpt>
      <trkpt lat="48.80439" lon="-1.34177">
        <ele>115.7</ele>
        <time>2024-01-25T14:10:27Z</time>
      </trkpt>
      <trkpt lat="48.80433" lon="-1.34173">
        <ele>115.6</ele>
        <time>2024-01-25T14:10:28Z</time>
      </trkpt>
      <trkpt lat="48.80427" lon="-1.34168">
        <ele>115.4</ele>
        <time>2024-01-25T14:10:29Z</time>
      </trkpt>
      <trkpt lat="48.80421" lon="-1.34163">
        <ele>115.3</ele>
        <time>2024-01-25T14:10:30Z</time>
      </trkpt>
      <trkpt lat="48.80415" lon="-1.34158">
        <ele>115.2</ele>
        <time>2024-01-25T14:10:31Z</time>
      </trkpt>
      <trkpt lat="48.8041" lon="-1.34153">
        <ele>115</ele>
        <time>2024-01-25T14:10:32Z</time>
      </trkpt>
      <trkpt lat="48.80403" lon="-1.34148">
        <ele>114.9</ele>
        <time>2024-01-25T14:10:33Z</time>
      </trkpt>
      <trkpt lat="48.80397" lon="-1.34144">
        <ele>114.7</ele>
        <time>2024-01-25T14:10:34Z</time>
      </trkpt>
      <trkpt lat="48.8039" lon="-1.3414">
        <ele>114.6</ele>
        <time>2024-01-25T14:10:35Z</time>
      </trkpt>
      <trkpt lat="48.80383" lon="-1.34136">
        <ele>114.5</ele>
        <time>2024-01-25T14:10:36Z</time>
      </trkpt>
      <trkpt lat="48.80377" lon="-1.34132">
        <ele>114.3</ele>
        <time>2024-01-25T14:10:37Z</time>
      </trkpt>
      <trkpt lat="48.80371" lon="-1.34127">
        <ele>114.2</ele>
        <time>2024-01-25T14:10:38Z</time>
      </trkpt>
      <trkpt lat="48.80365" lon="-1.34122">
        <ele>114</ele>
        <time>2024-01-25T14:10:39Z</time>
      </trkpt>
      <trkpt lat="48.8036" lon="-1.34117">
        <ele>113.8</ele>
        <time>2024-01-25T14:10:40Z</time>
      </trkpt>
      <trkpt lat="48.80354" lon="-1.34111">
        <ele>113.6</ele>
        <time>2024-01-25T14:10:41Z</time>
      </trkpt>
      <trkpt lat="48.80349" lon="-1.34105">
        <ele>113.5</ele>
        <time>2024-01-25T14:10:42Z</time>
      </trkpt>
      <trkpt lat="48.80344" lon="-1.34099">
        <ele>113.4</ele>
        <time>2024-01-25T14:10:43Z</time>
      </trkpt>
      <trkpt lat="48.80338" lon="-1.34093">
        <ele>113.3</ele>
        <time>2024-01-25T14:10:44Z</time>
      </trkpt>
      <trkpt lat="48.80333" lon="-1.34087">
        <ele>113.2</ele>
        <time>2024-01-25T14:10:45Z</time>
      </trkpt>
      <trkpt lat="48.80327" lon="-1.34081">
        <ele>113</ele>
        <time>2024-01-25T14:10:46Z</time>
      </trkpt>
      <trkpt lat="48.80322" lon="-1.34076">
        <ele>112.8</ele>
        <time>2024-01-25T14:10:47Z</time>
      </trkpt>
      <trkpt lat="48.80316" lon="-1.34071">
        <ele>112.7</ele>
        <time>2024-01-25T14:10:48Z</time>
      </trkpt>
      <trkpt lat="48.8031" lon="-1.34067">
        <ele>112.5</ele>
        <time>2024-01-25T14:10:49Z</time>
      </trkpt>
      <trkpt lat="48.80304" lon="-1.34062">
        <ele>112.3</ele>
        <time>2024-01-25T14:10:50Z</time>
      </trkpt>
      <trkpt lat="48.80298" lon="-1.34059">
        <ele>112.1</ele>
        <time>2024-01-25T14:10:51Z</time>
      </trkpt>
      <trkpt lat="48.80292" lon="-1.34057">
        <ele>111.9</ele>
        <time>2024-01-25T14:10:52Z</time>
      </trkpt>
      <trkpt lat="48.80285" lon="-1.34057">
        <ele>111.7</ele>
        <time>2024-01-25T14:10:53Z</time>
      </trkpt>
      <trkpt lat="48.80279" lon="-1.34057">
        <ele>111.5</ele>
        <time>2024-01-25T14:10:54Z</time>
      </trkpt>
      <trkpt lat="48.80273" lon="-1.3406">
        <ele>111.3</ele>
        <time>2024-01-25T14:10:55Z</time>
      </trkpt>
      <trkpt lat="48.80266" lon="-1.34063">
        <ele>111</ele>
        <time>2024-01-25T14:10:56Z</time>
      </trkpt>
      <trkpt lat="48.80261" lon="-1.34069">
        <ele>110.7</ele>
        <time>2024-01-25T14:10:57Z</time>
      </trkpt>
      <trkpt lat="48.80255" lon="-1.34074">
        <ele>110.5</ele>
        <time>2024-01-25T14:10:58Z</time>
      </trkpt>
      <trkpt lat="48.80249" lon="-1.3408">
        <ele>110.3</ele>
        <time>2024-01-25T14:10:59Z</time>
      </trkpt>
      <trkpt lat="48.80243" lon="-1.34086">
        <ele>110.1</ele>
        <time>2024-01-25T14:11:00Z</time>
      </trkpt>
      <trkpt lat="48.80237" lon="-1.34091">
        <ele>109.9</ele>
        <time>2024-01-25T14:11:01Z</time>
      </trkpt>
      <trkpt lat="48.8023" lon="-1.34097">
        <ele>109.7</ele>
        <time>2024-01-25T14:11:02Z</time>
      </trkpt>
      <trkpt lat="48.80224" lon="-1.34102">
        <ele>109.6</ele>
        <time>2024-01-25T14:11:03Z</time>
      </trkpt>
      <trkpt lat="48.80218" lon="-1.34106">
        <ele>109.6</ele>
        <time>2024-01-25T14:11:04Z</time>
      </trkpt>
      <trkpt lat="48.80211" lon="-1.34109">
        <ele>109.6</ele>
        <time>2024-01-25T14:11:05Z</time>
      </trkpt>
      <trkpt lat="48.80204" lon="-1.3411">
        <ele>109.7</ele>
        <time>2024-01-25T14:11:06Z</time>
      </trkpt>
      <trkpt lat="48.80197" lon="-1.34108">
        <ele>109.7</ele>
        <time>2024-01-25T14:11:07Z</time>
      </trkpt>
      <trkpt lat="48.8019" lon="-1.34102">
        <ele>109.8</ele>
        <time>2024-01-25T14:11:08Z</time>
      </trkpt>
      <trkpt lat="48.80185" lon="-1.34095">
        <ele>109.9</ele>
        <time>2024-01-25T14:11:09Z</time>
      </trkpt>
      <trkpt lat="48.80179" lon="-1.34087">
        <ele>109.9</ele>
        <time>2024-01-25T14:11:10Z</time>
      </trkpt>
      <trkpt lat="48.80173" lon="-1.34081">
        <ele>109.9</ele>
        <time>2024-01-25T14:11:11Z</time>
      </trkpt>
      <trkpt lat="48.80168" lon="-1.34077">
        <ele>109.8</ele>
        <time>2024-01-25T14:11:12Z</time>
      </trkpt>
      <trkpt lat="48.80162" lon="-1.34073">
        <ele>109.7</ele>
        <time>2024-01-25T14:11:13Z</time>
      </trkpt>
      <trkpt lat="48.80156" lon="-1.34069">
        <ele>109.6</ele>
        <time>2024-01-25T14:11:14Z</time>
      </trkpt>
      <trkpt lat="48.80149" lon="-1.34065">
        <ele>109.5</ele>
        <time>2024-01-25T14:11:15Z</time>
      </trkpt>
      <trkpt lat="48.80143" lon="-1.34061">
        <ele>109.4</ele>
        <time>2024-01-25T14:11:16Z</time>
      </trkpt>
      <trkpt lat="48.80136" lon="-1.34057">
        <ele>109.4</ele>
        <time>2024-01-25T14:11:17Z</time>
      </trkpt>
      <trkpt lat="48.8013" lon="-1.34054">
        <ele>109.3</ele>
        <time>2024-01-25T14:11:18Z</time>
      </trkpt>
      <trkpt lat="48.80123" lon="-1.3405">
        <ele>109.2</ele>
        <time>2024-01-25T14:11:19Z</time>
      </trkpt>
      <trkpt lat="48.80116" lon="-1.34046">
        <ele>109.1</ele>
        <time>2024-01-25T14:11:20Z</time>
      </trkpt>
      <trkpt lat="48.80109" lon="-1.34041">
        <ele>109.1</ele>
        <time>2024-01-25T14:11:21Z</time>
      </trkpt>
      <trkpt lat="48.80103" lon="-1.34037">
        <ele>109</ele>
        <time>2024-01-25T14:11:22Z</time>
      </trkpt>
      <trkpt lat="48.80096" lon="-1.34032">
        <ele>109</ele>
        <time>2024-01-25T14:11:23Z</time>
      </trkpt>
      <trkpt lat="48.8009" lon="-1.34027">
        <ele>108.9</ele>
        <time>2024-01-25T14:11:24Z</time>
      </trkpt>
      <trkpt lat="48.80085" lon="-1.34021">
        <ele>108.9</ele>
        <time>2024-01-25T14:11:25Z</time>
      </trkpt>
      <trkpt lat="48.8008" lon="-1.34016">
        <ele>108.8</ele>
        <time>2024-01-25T14:11:26Z</time>
      </trkpt>
      <trkpt lat="48.80074" lon="-1.34011">
        <ele>108.8</ele>
        <time>2024-01-25T14:11:27Z</time>
      </trkpt>
      <trkpt lat="48.80069" lon="-1.34006">
        <ele>108.8</ele>
        <time>2024-01-25T14:11:28Z</time>
      </trkpt>
      <trkpt lat="48.80063" lon="-1.34001">
        <ele>108.9</ele>
        <time>2024-01-25T14:11:29Z</time>
      </trkpt>
      <trkpt lat="48.80057" lon="-1.33995">
        <ele>108.9</ele>
        <time>2024-01-25T14:11:30Z</time>
      </trkpt>
      <trkpt lat="48.80052" lon="-1.3399">
        <ele>109</ele>
        <time>2024-01-25T14:11:31Z</time>
      </trkpt>
      <trkpt lat="48.80047" lon="-1.33985">
        <ele>109</ele>
        <time>2024-01-25T14:11:32Z</time>
      </trkpt>
      <trkpt lat="48.80041" lon="-1.33979">
        <ele>109.1</ele>
        <time>2024-01-25T14:11:33Z</time>
      </trkpt>
      <trkpt lat="48.80036" lon="-1.33973">
        <ele>109.2</ele>
        <time>2024-01-25T14:11:34Z</time>
      </trkpt>
      <trkpt lat="48.80031" lon="-1.33967">
        <ele>109.3</ele>
        <time>2024-01-25T14:11:35Z</time>
      </trkpt>
      <trkpt lat="48.80026" lon="-1.3396">
        <ele>109.5</ele>
        <time>2024-01-25T14:11:36Z</time>
      </trkpt>
      <trkpt lat="48.80021" lon="-1.33953">
        <ele>109.6</ele>
        <time>2024-01-25T14:11:37Z</time>
      </trkpt>
      <trkpt lat="48.80017" lon="-1.33947">
        <ele>109.7</ele>
        <time>2024-01-25T14:11:38Z</time>
      </trkpt>
      <trkpt lat="48.80012" lon="-1.3394">
        <ele>109.8</ele>
        <time>2024-01-25T14:11:39Z</time>
      </trkpt>
      <trkpt lat="48.80008" lon="-1.33933">
        <ele>109.8</ele>
        <time>2024-01-25T14:11:40Z</time>
      </trkpt>
      <trkpt lat="48.80004" lon="-1.33926">
        <ele>109.9</ele>
        <time>2024-01-25T14:11:41Z</time>
      </trkpt>
      <trkpt lat="48.8" lon="-1.33919">
        <ele>110</ele>
        <time>2024-01-25T14:11:42Z</time>
      </trkpt>
      <trkpt lat="48.79996" lon="-1.33912">
        <ele>110.1</ele>
        <time>2024-01-25T14:11:43Z</time>
      </trkpt>
      <trkpt lat="48.79992" lon="-1.33905">
        <ele>110.1</ele>
        <time>2024-01-25T14:11:44Z</time>
      </trkpt>
      <trkpt lat="48.79988" lon="-1.33898">
        <ele>110.2</ele>
        <time>2024-01-25T14:11:45Z</time>
      </trkpt>
      <trkpt lat="48.79985" lon="-1.33891">
        <ele>110.4</ele>
        <time>2024-01-25T14:11:46Z</time>
      </trkpt>
      <trkpt lat="48.79982" lon="-1.33883">
        <ele>110.5</ele>
        <time>2024-01-25T14:11:47Z</time>
      </trkpt>
      <trkpt lat="48.79979" lon="-1.33876">
        <ele>110.7</ele>
        <time>2024-01-25T14:11:48Z</time>
      </trkpt>
      <trkpt lat="48.79976" lon="-1.33868">
        <ele>110.8</ele>
        <time>2024-01-25T14:11:49Z</time>
      </trkpt>
      <trkpt lat="48.79974" lon="-1.33859">
        <ele>111</ele>
        <time>2024-01-25T14:11:50Z</time>
      </trkpt>
      <trkpt lat="48.79973" lon="-1.33851">
        <ele>111.2</ele>
        <time>2024-01-25T14:11:51Z</time>
      </trkpt>
      <trkpt lat="48.79971" lon="-1.33842">
        <ele>111.3</ele>
        <time>2024-01-25T14:11:52Z</time>
      </trkpt>
      <trkpt lat="48.7997" lon="-1.33833">
        <ele>111.5</ele>
        <time>2024-01-25T14:11:53Z</time>
      </trkpt>
      <trkpt lat="48.79969" lon="-1.33824">
        <ele>111.7</ele>
        <time>2024-01-25T14:11:54Z</time>
      </trkpt>
      <trkpt lat="48.79968" lon="-1.33815">
        <ele>112</ele>
        <time>2024-01-25T14:11:55Z</time>
      </trkpt>
      <trkpt lat="48.79966" lon="-1.33807">
        <ele>112.3</ele>
        <time>2024-01-25T14:11:56Z</time>
      </trkpt>
      <trkpt lat="48.79964" lon="-1.33799">
        <ele>112.5</ele>
        <time>2024-01-25T14:11:57Z</time>
      </trkpt>
      <trkpt lat="48.79963" lon="-1.33791">
        <ele>112.8</ele>
        <time>2024-01-25T14:11:58Z</time>
      </trkpt>
      <trkpt lat="48.79962" lon="-1.33784">
        <ele>113</ele>
        <time>2024-01-25T14:11:59Z</time>
      </trkpt>
      <trkpt lat="48.79961" lon="-1.33777">
        <ele>113.3</ele>
        <time>2024-01-25T14:12:00Z</time>
      </trkpt>
      <trkpt lat="48.79959" lon="-1.3377">
        <ele>113.6</ele>
        <time>2024-01-25T14:12:01Z</time>
      </trkpt>
      <trkpt lat="48.79958" lon="-1.33762">
        <ele>113.8</ele>
        <time>2024-01-25T14:12:02Z</time>
      </trkpt>
      <trkpt lat="48.79955" lon="-1.33756">
        <ele>114.1</ele>
        <time>2024-01-25T14:12:03Z</time>
      </trkpt>
      <trkpt lat="48.79951" lon="-1.33751">
        <ele>114.2</ele>
        <time>2024-01-25T14:12:04Z</time>
      </trkpt>
      <trkpt lat="48.79947" lon="-1.33749">
        <ele>114.4</ele>
        <time>2024-01-25T14:12:05Z</time>
      </trkpt>
      <trkpt lat="48.79942" lon="-1.33747">
        <ele>114.6</ele>
        <time>2024-01-25T14:12:06Z</time>
      </trkpt>
      <trkpt lat="48.79937" lon="-1.33745">
        <ele>114.7</ele>
        <time>2024-01-25T14:12:07Z</time>
      </trkpt>
      <trkpt lat="48.79932" lon="-1.33743">
        <ele>114.8</ele>
        <time>2024-01-25T14:12:08Z</time>
      </trkpt>
      <trkpt lat="48.79928" lon="-1.3374">
        <ele>114.9</ele>
        <time>2024-01-25T14:12:09Z</time>
      </trkpt>
      <trkpt lat="48.79922" lon="-1.33736">
        <ele>114.9</ele>
        <time>2024-01-25T14:12:10Z</time>
      </trkpt>
      <trkpt lat="48.79917" lon="-1.33732">
        <ele>115</ele>
        <time>2024-01-25T14:12:11Z</time>
      </trkpt>
      <trkpt lat="48.79913" lon="-1.33727">
        <ele>115.1</ele>
        <time>2024-01-25T14:12:12Z</time>
      </trkpt>
      <trkpt lat="48.79909" lon="-1.33721">
        <ele>115.2</ele>
        <time>2024-01-25T14:12:13Z</time>
      </trkpt>
      <trkpt lat="48.79904" lon="-1.33716">
        <ele>115.3</ele>
        <time>2024-01-25T14:12:14Z</time>
      </trkpt>
      <trkpt lat="48.799" lon="-1.33711">
        <ele>115.5</ele>
        <time>2024-01-25T14:12:15Z</time>
      </trkpt>
      <trkpt lat="48.79897" lon="-1.33705">
        <ele>115.7</ele>
        <time>2024-01-25T14:12:16Z</time>
      </trkpt>
      <trkpt lat="48.79893" lon="-1.33699">
        <ele>115.9</ele>
        <time>2024-01-25T14:12:17Z</time>
      </trkpt>
      <trkpt lat="48.79889" lon="-1.33694">
        <ele>116.1</ele>
        <time>2024-01-25T14:12:18Z</time>
      </trkpt>
      <trkpt lat="48.79886" lon="-1.33689">
        <ele>116.2</ele>
        <time>2024-01-25T14:12:19Z</time>
      </trkpt>
      <trkpt lat="48.79882" lon="-1.33683">
        <ele>116.4</ele>
        <time>2024-01-25T14:12:20Z</time>
      </trkpt>
      <trkpt lat="48.79879" lon="-1.33678">
        <ele>116.5</ele>
        <time>2024-01-25T14:12:21Z</time>
      </trkpt>
      <trkpt lat="48.79876" lon="-1.33674">
        <ele>116.6</ele>
        <time>2024-01-25T14:12:22Z</time>
      </trkpt>
      <trkpt lat="48.79872" lon="-1.33668">
        <ele>116.8</ele>
        <time>2024-01-25T14:12:23Z</time>
      </trkpt>
      <trkpt lat="48.79869" lon="-1.33663">
        <ele>116.9</ele>
        <time>2024-01-25T14:12:24Z</time>
      </trkpt>
      <trkpt lat="48.79866" lon="-1.33658">
        <ele>117</ele>
        <time>2024-01-25T14:12:25Z</time>
      </trkpt>
      <trkpt lat="48.79862" lon="-1.33653">
        <ele>117.2</ele>
        <time>2024-01-25T14:12:26Z</time>
      </trkpt>
      <trkpt lat="48.79858" lon="-1.33648">
        <ele>117.3</ele>
        <time>2024-01-25T14:12:27Z</time>
      </trkpt>
      <trkpt lat="48.79854" lon="-1.33644">
        <ele>117.5</ele>
        <time>2024-01-25T14:12:28Z</time>
      </trkpt>
      <trkpt lat="48.79851" lon="-1.33639">
        <ele>117.6</ele>
        <time>2024-01-25T14:12:29Z</time>
      </trkpt>
      <trkpt lat="48.79847" lon="-1.33635">
        <ele>117.8</ele>
        <time>2024-01-25T14:12:30Z</time>
      </trkpt>
      <trkpt lat="48.79844" lon="-1.3363">
        <ele>118</ele>
        <time>2024-01-25T14:12:31Z</time>
      </trkpt>
      <trkpt lat="48.79841" lon="-1.33626">
        <ele>118.1</ele>
        <time>2024-01-25T14:12:32Z</time>
      </trkpt>
      <trkpt lat="48.79837" lon="-1.33621">
        <ele>118.3</ele>
        <time>2024-01-25T14:12:33Z</time>
      </trkpt>
      <trkpt lat="48.79834" lon="-1.33617">
        <ele>118.4</ele>
        <time>2024-01-25T14:12:34Z</time>
      </trkpt>
      <trkpt lat="48.79831" lon="-1.33613">
        <ele>118.6</ele>
        <time>2024-01-25T14:12:35Z</time>
      </trkpt>
      <trkpt lat="48.79827" lon="-1.3361">
        <ele>118.7</ele>
        <time>2024-01-25T14:12:36Z</time>
      </trkpt>
      <trkpt lat="48.79824" lon="-1.33607">
        <ele>118.9</ele>
        <time>2024-01-25T14:12:37Z</time>
      </trkpt>
      <trkpt lat="48.7982" lon="-1.33604">
        <ele>119</ele>
        <time>2024-01-25T14:12:38Z</time>
      </trkpt>
      <trkpt lat="48.79817" lon="-1.33599">
        <ele>119.2</ele>
        <time>2024-01-25T14:12:40Z</time>
      </trkpt>
      <trkpt lat="48.79811" lon="-1.33595">
        <ele>119.4</ele>
        <time>2024-01-25T14:12:41Z</time>
      </trkpt>
      <trkpt lat="48.79807" lon="-1.33592">
        <ele>119.6</ele>
        <time>2024-01-25T14:12:42Z</time>
      </trkpt>
      <trkpt lat="48.79803" lon="-1.33589">
        <ele>119.8</ele>
        <time>2024-01-25T14:12:43Z</time>
      </trkpt>
      <trkpt lat="48.798" lon="-1.33586">
        <ele>119.9</ele>
        <time>2024-01-25T14:12:44Z</time>
      </trkpt>
      <trkpt lat="48.79795" lon="-1.33582">
        <ele>120.1</ele>
        <time>2024-01-25T14:12:45Z</time>
      </trkpt>
      <trkpt lat="48.7979" lon="-1.33577">
        <ele>120.4</ele>
        <time>2024-01-25T14:12:46Z</time>
      </trkpt>
      <trkpt lat="48.79785" lon="-1.33573">
        <ele>120.6</ele>
        <time>2024-01-25T14:12:47Z</time>
      </trkpt>
      <trkpt lat="48.79781" lon="-1.33569">
        <ele>120.8</ele>
        <time>2024-01-25T14:12:48Z</time>
      </trkpt>
      <trkpt lat="48.79776" lon="-1.33566">
        <ele>121.1</ele>
        <time>2024-01-25T14:12:49Z</time>
      </trkpt>
      <trkpt lat="48.79771" lon="-1.33562">
        <ele>121.3</ele>
        <time>2024-01-25T14:12:50Z</time>
      </trkpt>
      <trkpt lat="48.79767" lon="-1.33559">
        <ele>121.5</ele>
        <time>2024-01-25T14:12:51Z</time>
      </trkpt>
      <trkpt lat="48.79763" lon="-1.33556">
        <ele>121.7</ele>
        <time>2024-01-25T14:12:52Z</time>
      </trkpt>
      <trkpt lat="48.79759" lon="-1.33552">
        <ele>121.9</ele>
        <time>2024-01-25T14:12:53Z</time>
      </trkpt>
      <trkpt lat="48.79754" lon="-1.33549">
        <ele>122.1</ele>
        <time>2024-01-25T14:12:54Z</time>
      </trkpt>
      <trkpt lat="48.7975" lon="-1.33546">
        <ele>122.3</ele>
        <time>2024-01-25T14:12:55Z</time>
      </trkpt>
      <trkpt lat="48.79746" lon="-1.33542">
        <ele>122.6</ele>
        <time>2024-01-25T14:12:57Z</time>
      </trkpt>
      <trkpt lat="48.79742" lon="-1.33539">
        <ele>122.8</ele>
        <time>2024-01-25T14:12:58Z</time>
      </trkpt>
      <trkpt lat="48.79738" lon="-1.33536">
        <ele>123</ele>
        <time>2024-01-25T14:12:59Z</time>
      </trkpt>
      <trkpt lat="48.79735" lon="-1.33533">
        <ele>123.2</ele>
        <time>2024-01-25T14:13:00Z</time>
      </trkpt>
      <trkpt lat="48.79731" lon="-1.33529">
        <ele>123.4</ele>
        <time>2024-01-25T14:13:01Z</time>
      </trkpt>
      <trkpt lat="48.79728" lon="-1.33524">
        <ele>123.6</ele>
        <time>2024-01-25T14:13:02Z</time>
      </trkpt>
      <trkpt lat="48.79725" lon="-1.33521">
        <ele>123.8</ele>
        <time>2024-01-25T14:13:03Z</time>
      </trkpt>
      <trkpt lat="48.7972" lon="-1.33514">
        <ele>124.2</ele>
        <time>2024-01-25T14:13:04Z</time>
      </trkpt>
      <trkpt lat="48.79717" lon="-1.33511">
        <ele>124.4</ele>
        <time>2024-01-25T14:13:05Z</time>
      </trkpt>
      <trkpt lat="48.79714" lon="-1.33508">
        <ele>124.6</ele>
        <time>2024-01-25T14:13:06Z</time>
      </trkpt>
      <trkpt lat="48.7971" lon="-1.33504">
        <ele>124.9</ele>
        <time>2024-01-25T14:13:07Z</time>
      </trkpt>
      <trkpt lat="48.79706" lon="-1.335">
        <ele>125.3</ele>
        <time>2024-01-25T14:13:08Z</time>
      </trkpt>
      <trkpt lat="48.79702" lon="-1.33497">
        <ele>125.6</ele>
        <time>2024-01-25T14:13:09Z</time>
      </trkpt>
      <trkpt lat="48.79699" lon="-1.33493">
        <ele>125.9</ele>
        <time>2024-01-25T14:13:10Z</time>
      </trkpt>
      <trkpt lat="48.79696" lon="-1.3349">
        <ele>126.1</ele>
        <time>2024-01-25T14:13:11Z</time>
      </trkpt>
      <trkpt lat="48.79693" lon="-1.33487">
        <ele>126.4</ele>
        <time>2024-01-25T14:13:12Z</time>
      </trkpt>
      <trkpt lat="48.79689" lon="-1.33484">
        <ele>126.7</ele>
        <time>2024-01-25T14:13:13Z</time>
      </trkpt>
      <trkpt lat="48.79685" lon="-1.33482">
        <ele>126.9</ele>
        <time>2024-01-25T14:13:14Z</time>
      </trkpt>
      <trkpt lat="48.79682" lon="-1.3348">
        <ele>127.2</ele>
        <time>2024-01-25T14:13:15Z</time>
      </trkpt>
      <trkpt lat="48.79677" lon="-1.33477">
        <ele>127.5</ele>
        <time>2024-01-25T14:13:16Z</time>
      </trkpt>
      <trkpt lat="48.79673" lon="-1.33475">
        <ele>127.8</ele>
        <time>2024-01-25T14:13:17Z</time>
      </trkpt>
      <trkpt lat="48.79669" lon="-1.33474">
        <ele>128</ele>
        <time>2024-01-25T14:13:18Z</time>
      </trkpt>
      <trkpt lat="48.79665" lon="-1.3347">
        <ele>128.4</ele>
        <time>2024-01-25T14:13:19Z</time>
      </trkpt>
      <trkpt lat="48.79662" lon="-1.33466">
        <ele>128.7</ele>
        <time>2024-01-25T14:13:20Z</time>
      </trkpt>
      <trkpt lat="48.79658" lon="-1.33463">
        <ele>128.9</ele>
        <time>2024-01-25T14:13:21Z</time>
      </trkpt>
      <trkpt lat="48.79655" lon="-1.33461">
        <ele>129.2</ele>
        <time>2024-01-25T14:13:22Z</time>
      </trkpt>
      <trkpt lat="48.79652" lon="-1.33458">
        <ele>129.4</ele>
        <time>2024-01-25T14:13:23Z</time>
      </trkpt>
      <trkpt lat="48.79648" lon="-1.33455">
        <ele>129.7</ele>
        <time>2024-01-25T14:13:24Z</time>
      </trkpt>
      <trkpt lat="48.79645" lon="-1.33452">
        <ele>130</ele>
        <time>2024-01-25T14:13:25Z</time>
      </trkpt>
      <trkpt lat="48.79641" lon="-1.3345">
        <ele>130.3</ele>
        <time>2024-01-25T14:13:26Z</time>
      </trkpt>
      <trkpt lat="48.79637" lon="-1.33448">
        <ele>130.6</ele>
        <time>2024-01-25T14:13:27Z</time>
      </trkpt>
      <trkpt lat="48.79634" lon="-1.33445">
        <ele>130.8</ele>
        <time>2024-01-25T14:13:28Z</time>
      </trkpt>
      <trkpt lat="48.7963" lon="-1.33441">
        <ele>131</ele>
        <time>2024-01-25T14:13:29Z</time>
      </trkpt>
      <trkpt lat="48.79627" lon="-1.33437">
        <ele>131.3</ele>
        <time>2024-01-25T14:13:30Z</time>
      </trkpt>
      <trkpt lat="48.79623" lon="-1.33433">
        <ele>131.5</ele>
        <time>2024-01-25T14:13:31Z</time>
      </trkpt>
      <trkpt lat="48.7962" lon="-1.33427">
        <ele>131.7</ele>
        <time>2024-01-25T14:13:32Z</time>
      </trkpt>
      <trkpt lat="48.79618" lon="-1.33421">
        <ele>132</ele>
        <time>2024-01-25T14:13:33Z</time>
      </trkpt>
      <trkpt lat="48.79615" lon="-1.33415">
        <ele>132.2</ele>
        <time>2024-01-25T14:13:34Z</time>
      </trkpt>
      <trkpt lat="48.79613" lon="-1.33409">
        <ele>132.6</ele>
        <time>2024-01-25T14:13:35Z</time>
      </trkpt>
      <trkpt lat="48.79611" lon="-1.33403">
        <ele>132.8</ele>
        <time>2024-01-25T14:13:36Z</time>
      </trkpt>
      <trkpt lat="48.79609" lon="-1.33397">
        <ele>133.1</ele>
        <time>2024-01-25T14:13:37Z</time>
      </trkpt>
      <trkpt lat="48.79607" lon="-1.33391">
        <ele>133.4</ele>
        <time>2024-01-25T14:13:38Z</time>
      </trkpt>
      <trkpt lat="48.79605" lon="-1.33384">
        <ele>133.7</ele>
        <time>2024-01-25T14:13:39Z</time>
      </trkpt>
      <trkpt lat="48.79604" lon="-1.33379">
        <ele>133.9</ele>
        <time>2024-01-25T14:13:40Z</time>
      </trkpt>
      <trkpt lat="48.79601" lon="-1.33374">
        <ele>134.1</ele>
        <time>2024-01-25T14:13:41Z</time>
      </trkpt>
      <trkpt lat="48.79598" lon="-1.33369">
        <ele>134.3</ele>
        <time>2024-01-25T14:13:42Z</time>
      </trkpt>
      <trkpt lat="48.79595" lon="-1.33364">
        <ele>134.6</ele>
        <time>2024-01-25T14:13:43Z</time>
      </trkpt>
      <trkpt lat="48.79591" lon="-1.33361">
        <ele>134.8</ele>
        <time>2024-01-25T14:13:44Z</time>
      </trkpt>
      <trkpt lat="48.79588" lon="-1.33357">
        <ele>135</ele>
        <time>2024-01-25T14:13:45Z</time>
      </trkpt>
      <trkpt lat="48.79584" lon="-1.33355">
        <ele>135.2</ele>
        <time>2024-01-25T14:13:46Z</time>
      </trkpt>
      <trkpt lat="48.7958" lon="-1.33353">
        <ele>135.5</ele>
        <time>2024-01-25T14:13:47Z</time>
      </trkpt>
      <trkpt lat="48.79576" lon="-1.33351">
        <ele>135.6</ele>
        <time>2024-01-25T14:13:48Z</time>
      </trkpt>
      <trkpt lat="48.79572" lon="-1.33348">
        <ele>135.8</ele>
        <time>2024-01-25T14:13:49Z</time>
      </trkpt>
      <trkpt lat="48.79569" lon="-1.33344">
        <ele>136</ele>
        <time>2024-01-25T14:13:50Z</time>
      </trkpt>
      <trkpt lat="48.79565" lon="-1.3334">
        <ele>136.3</ele>
        <time>2024-01-25T14:13:51Z</time>
      </trkpt>
      <trkpt lat="48.79561" lon="-1.33337">
        <ele>136.5</ele>
        <time>2024-01-25T14:13:52Z</time>
      </trkpt>
      <trkpt lat="48.79559" lon="-1.33333">
        <ele>136.6</ele>
        <time>2024-01-25T14:13:53Z</time>
      </trkpt>
      <trkpt lat="48.79555" lon="-1.33329">
        <ele>136.8</ele>
        <time>2024-01-25T14:13:54Z</time>
      </trkpt>
      <trkpt lat="48.79552" lon="-1.33325">
        <ele>136.9</ele>
        <time>2024-01-25T14:13:55Z</time>
      </trkpt>
      <trkpt lat="48.79549" lon="-1.33322">
        <ele>137.1</ele>
        <time>2024-01-25T14:13:56Z</time>
      </trkpt>
      <trkpt lat="48.79545" lon="-1.33319">
        <ele>137.2</ele>
        <time>2024-01-25T14:13:57Z</time>
      </trkpt>
      <trkpt lat="48.79541" lon="-1.33315">
        <ele>137.3</ele>
        <time>2024-01-25T14:13:58Z</time>
      </trkpt>
      <trkpt lat="48.79537" lon="-1.33311">
        <ele>137.4</ele>
        <time>2024-01-25T14:13:59Z</time>
      </trkpt>
      <trkpt lat="48.79533" lon="-1.33307">
        <ele>137.5</ele>
        <time>2024-01-25T14:14:00Z</time>
      </trkpt>
      <trkpt lat="48.79529" lon="-1.33304">
        <ele>137.6</ele>
        <time>2024-01-25T14:14:01Z</time>
      </trkpt>
      <trkpt lat="48.79524" lon="-1.33299">
        <ele>137.7</ele>
        <time>2024-01-25T14:14:02Z</time>
      </trkpt>
      <trkpt lat="48.79519" lon="-1.33294">
        <ele>137.8</ele>
        <time>2024-01-25T14:14:03Z</time>
      </trkpt>
      <trkpt lat="48.79515" lon="-1.33289">
        <ele>137.8</ele>
        <time>2024-01-25T14:14:04Z</time>
      </trkpt>
      <trkpt lat="48.7951" lon="-1.33285">
        <ele>137.8</ele>
        <time>2024-01-25T14:14:05Z</time>
      </trkpt>
      <trkpt lat="48.79505" lon="-1.3328">
        <ele>137.8</ele>
        <time>2024-01-25T14:14:06Z</time>
      </trkpt>
      <trkpt lat="48.795" lon="-1.33275">
        <ele>137.9</ele>
        <time>2024-01-25T14:14:07Z</time>
      </trkpt>
      <trkpt lat="48.79496" lon="-1.33269">
        <ele>137.9</ele>
        <time>2024-01-25T14:14:08Z</time>
      </trkpt>
      <trkpt lat="48.79492" lon="-1.33264">
        <ele>137.9</ele>
        <time>2024-01-25T14:14:09Z</time>
      </trkpt>
      <trkpt lat="48.79487" lon="-1.33258">
        <ele>137.9</ele>
        <time>2024-01-25T14:14:10Z</time>
      </trkpt>
      <trkpt lat="48.79484" lon="-1.33252">
        <ele>137.9</ele>
        <time>2024-01-25T14:14:11Z</time>
      </trkpt>
      <trkpt lat="48.7948" lon="-1.33245">
        <ele>138</ele>
        <time>2024-01-25T14:14:12Z</time>
      </trkpt>
      <trkpt lat="48.79477" lon="-1.33237">
        <ele>138</ele>
        <time>2024-01-25T14:14:13Z</time>
      </trkpt>
      <trkpt lat="48.79474" lon="-1.33229">
        <ele>138</ele>
        <time>2024-01-25T14:14:14Z</time>
      </trkpt>
      <trkpt lat="48.79471" lon="-1.3322">
        <ele>138</ele>
        <time>2024-01-25T14:14:15Z</time>
      </trkpt>
      <trkpt lat="48.79468" lon="-1.33212">
        <ele>138</ele>
        <time>2024-01-25T14:14:16Z</time>
      </trkpt>
      <trkpt lat="48.79464" lon="-1.33203">
        <ele>138.1</ele>
        <time>2024-01-25T14:14:17Z</time>
      </trkpt>
      <trkpt lat="48.79461" lon="-1.33195">
        <ele>138.2</ele>
        <time>2024-01-25T14:14:18Z</time>
      </trkpt>
      <trkpt lat="48.79456" lon="-1.33188">
        <ele>138.3</ele>
        <time>2024-01-25T14:14:19Z</time>
      </trkpt>
      <trkpt lat="48.79452" lon="-1.33182">
        <ele>138.4</ele>
        <time>2024-01-25T14:14:20Z</time>
      </trkpt>
      <trkpt lat="48.79447" lon="-1.33176">
        <ele>138.5</ele>
        <time>2024-01-25T14:14:21Z</time>
      </trkpt>
      <trkpt lat="48.79442" lon="-1.33171">
        <ele>138.6</ele>
        <time>2024-01-25T14:14:22Z</time>
      </trkpt>
      <trkpt lat="48.79438" lon="-1.33166">
        <ele>138.7</ele>
        <time>2024-01-25T14:14:23Z</time>
      </trkpt>
      <trkpt lat="48.79434" lon="-1.33161">
        <ele>138.8</ele>
        <time>2024-01-25T14:14:24Z</time>
      </trkpt>
      <trkpt lat="48.7943" lon="-1.33157">
        <ele>139</ele>
        <time>2024-01-25T14:14:25Z</time>
      </trkpt>
      <trkpt lat="48.79425" lon="-1.33153">
        <ele>139.1</ele>
        <time>2024-01-25T14:14:26Z</time>
      </trkpt>
      <trkpt lat="48.79421" lon="-1.3315">
        <ele>139.2</ele>
        <time>2024-01-25T14:14:27Z</time>
      </trkpt>
      <trkpt lat="48.79418" lon="-1.33147">
        <ele>139.3</ele>
        <time>2024-01-25T14:14:28Z</time>
      </trkpt>
      <trkpt lat="48.79413" lon="-1.33144">
        <ele>139.5</ele>
        <time>2024-01-25T14:14:29Z</time>
      </trkpt>
      <trkpt lat="48.79409" lon="-1.33141">
        <ele>139.7</ele>
        <time>2024-01-25T14:14:30Z</time>
      </trkpt>
      <trkpt lat="48.79405" lon="-1.33138">
        <ele>139.9</ele>
        <time>2024-01-25T14:14:31Z</time>
      </trkpt>
      <trkpt lat="48.79401" lon="-1.33135">
        <ele>140.1</ele>
        <time>2024-01-25T14:14:32Z</time>
      </trkpt>
      <trkpt lat="48.79398" lon="-1.33133">
        <ele>140.3</ele>
        <time>2024-01-25T14:14:33Z</time>
      </trkpt>
      <trkpt lat="48.79394" lon="-1.33131">
        <ele>140.5</ele>
        <time>2024-01-25T14:14:35Z</time>
      </trkpt>
      <trkpt lat="48.79387" lon="-1.33129">
        <ele>140.9</ele>
        <time>2024-01-25T14:14:36Z</time>
      </trkpt>
      <trkpt lat="48.79384" lon="-1.3313">
        <ele>141</ele>
        <time>2024-01-25T14:14:37Z</time>
      </trkpt>
      <trkpt lat="48.79381" lon="-1.33131">
        <ele>141.2</ele>
        <time>2024-01-25T14:14:38Z</time>
      </trkpt>
      <trkpt lat="48.79379" lon="-1.33134">
        <ele>141.3</ele>
        <time>2024-01-25T14:14:39Z</time>
      </trkpt>
      <trkpt lat="48.79378" lon="-1.33134">
        <ele>141.3</ele>
        <time>2024-01-25T14:14:40Z</time>
      </trkpt>
      <trkpt lat="48.79377" lon="-1.33136">
        <ele>141.3</ele>
        <time>2024-01-25T14:14:41Z</time>
      </trkpt>
      <trkpt lat="48.79376" lon="-1.33136">
        <ele>141.3</ele>
        <time>2024-01-25T14:14:42Z</time>
      </trkpt>
      <trkpt lat="48.79376" lon="-1.33136">
        <ele>141.3</ele>
        <time>2024-01-25T14:14:43Z</time>
      </trkpt>
      <trkpt lat="48.79377" lon="-1.33136">
        <ele>141.3</ele>
        <time>2024-01-25T14:14:44Z</time>
      </trkpt>
      <trkpt lat="48.79377" lon="-1.33137">
        <ele>141.3</ele>
        <time>2024-01-25T14:14:45Z</time>
      </trkpt>
      <trkpt lat="48.79377" lon="-1.33137">
        <ele>141.3</ele>
        <time>2024-01-25T14:14:46Z</time>
      </trkpt>
      <trkpt lat="48.79377" lon="-1.33136">
        <ele>141.3</ele>
        <time>2024-01-25T14:14:47Z</time>
      </trkpt>
      <trkpt lat="48.79377" lon="-1.33136">
        <ele>141.3</ele>
        <time>2024-01-25T14:14:48Z</time>
      </trkpt>
      <trkpt lat="48.79377" lon="-1.33136">
        <ele>141.3</ele>
        <time>2024-01-25T14:14:49Z</time>
      </trkpt>
      <trkpt lat="48.79377" lon="-1.33136">
        <ele>141.3</ele>
        <time>2024-01-25T14:14:50Z</time>
      </trkpt>
      <trkpt lat="48.79377" lon="-1.33136">
        <ele>141.3</ele>
        <time>2024-01-25T14:14:51Z</time>
      </trkpt>
      <trkpt lat="48.79377" lon="-1.33136">
        <ele>141.3</ele>
        <time>2024-01-25T14:14:52Z</time>
      </trkpt>
      <trkpt lat="48.79376" lon="-1.33136">
        <ele>141.3</ele>
        <time>2024-01-25T14:14:53Z</time>
      </trkpt>
      <trkpt lat="48.79376" lon="-1.33136">
        <ele>141.3</ele>
        <time>2024-01-25T14:14:54Z</time>
      </trkpt>
      <trkpt lat="48.79376" lon="-1.33137">
        <ele>141.3</ele>
        <time>2024-01-25T14:14:55Z</time>
      </trkpt>
      <trkpt lat="48.79376" lon="-1.33137">
        <ele>141.3</ele>
        <time>2024-01-25T14:14:56Z</time>
      </trkpt>
      <trkpt lat="48.79376" lon="-1.33136">
        <ele>141.3</ele>
        <time>2024-01-25T14:14:57Z</time>
      </trkpt>
      <trkpt lat="48.79377" lon="-1.33136">
        <ele>141.2</ele>
        <time>2024-01-25T14:14:58Z</time>
      </trkpt>
      <trkpt lat="48.79377" lon="-1.33136">
        <ele>141.2</ele>
        <time>2024-01-25T14:14:59Z</time>
      </trkpt>
      <trkpt lat="48.79377" lon="-1.33136">
        <ele>141.2</ele>
        <time>2024-01-25T14:15:00Z</time>
      </trkpt>
      <trkpt lat="48.79377" lon="-1.33136">
        <ele>141.2</ele>
        <time>2024-01-25T14:15:01Z</time>
      </trkpt>
      <trkpt lat="48.79377" lon="-1.33136">
        <ele>141.2</ele>
        <time>2024-01-25T14:15:02Z</time>
      </trkpt>
      <trkpt lat="48.79377" lon="-1.33136">
        <ele>141.2</ele>
        <time>2024-01-25T14:15:03Z</time>
      </trkpt>
      <trkpt lat="48.79377" lon="-1.33136">
        <ele>141.2</ele>
        <time>2024-01-25T14:15:04Z</time>
      </trkpt>
      <trkpt lat="48.79377" lon="-1.33136">
        <ele>141.2</ele>
        <time>2024-01-25T14:15:05Z</time>
      </trkpt>
      <trkpt lat="48.79377" lon="-1.33136">
        <ele>141.2</ele>
        <time>2024-01-25T14:15:06Z</time>
      </trkpt>
      <trkpt lat="48.79377" lon="-1.33136">
        <ele>141.2</ele>
        <time>2024-01-25T14:15:07Z</time>
      </trkpt>
      <trkpt lat="48.79377" lon="-1.33136">
        <ele>141.2</ele>
        <time>2024-01-25T14:15:08Z</time>
      </trkpt>
      <trkpt lat="48.79377" lon="-1.33136">
        <ele>141.2</ele>
        <time>2024-01-25T14:15:09Z</time>
      </trkpt>
      <trkpt lat="48.79377" lon="-1.33136">
        <ele>141.2</ele>
        <time>2024-01-25T14:15:10Z</time>
      </trkpt>
      <trkpt lat="48.79377" lon="-1.33136">
        <ele>141.2</ele>
        <time>2024-01-25T14:15:11Z</time>
      </trkpt>
      <trkpt lat="48.79377" lon="-1.33136">
        <ele>141.2</ele>
        <time>2024-01-25T14:15:12Z</time>
      </trkpt>
      <trkpt lat="48.79377" lon="-1.33136">
        <ele>141.2</ele>
        <time>2024-01-25T14:15:13Z</time>
      </trkpt>
      <trkpt lat="48.79377" lon="-1.33136">
        <ele>141.2</ele>
        <time>2024-01-25T14:15:14Z</time>
      </trkpt>
      <trkpt lat="48.79377" lon="-1.33136">
        <ele>141.2</ele>
        <time>2024-01-25T14:15:15Z</time>
      </trkpt>
      <trkpt lat="48.79377" lon="-1.33136">
        <ele>141.2</ele>
        <time>2024-01-25T14:15:16Z</time>
      </trkpt>
      <trkpt lat="48.79377" lon="-1.33136">
        <ele>141.2</ele>
        <time>2024-01-25T14:15:17Z</time>
      </trkpt>
      <trkpt lat="48.79377" lon="-1.33136">
        <ele>141.2</ele>
        <time>2024-01-25T14:15:18Z</time>
      </trkpt>
      <trkpt lat="48.79377" lon="-1.33136">
        <ele>141.2</ele>
        <time>2024-01-25T14:15:19Z</time>
      </trkpt>
      <trkpt lat="48.79377" lon="-1.33136">
        <ele>141.2</ele>
        <time>2024-01-25T14:15:20Z</time>
      </trkpt>
      <trkpt lat="48.79377" lon="-1.33136">
        <ele>141.2</ele>
        <time>2024-01-25T14:15:21Z</time>
      </trkpt>
      <trkpt lat="48.79377" lon="-1.33136">
        <ele>141.2</ele>
        <time>2024-01-25T14:15:22Z</time>
      </trkpt>
      <trkpt lat="48.79377" lon="-1.33136">
        <ele>141.2</ele>
        <time>2024-01-25T14:15:23Z</time>
      </trkpt>
      <trkpt lat="48.79377" lon="-1.33136">
        <ele>141.2</ele>
        <time>2024-01-25T14:15:24Z</time>
      </trkpt>
      <trkpt lat="48.79377" lon="-1.33136">
        <ele>141.2</ele>
        <time>2024-01-25T14:15:25Z</time>
      </trkpt>
      <trkpt lat="48.79377" lon="-1.33136">
        <ele>141.2</ele>
        <time>2024-01-25T14:15:26Z</time>
      </trkpt>
      <trkpt lat="48.79377" lon="-1.33136">
        <ele>141.2</ele>
        <time>2024-01-25T14:15:27Z</time>
      </trkpt>
      <trkpt lat="48.79377" lon="-1.33136">
        <ele>141.2</ele>
        <time>2024-01-25T14:15:28Z</time>
      </trkpt>
      <trkpt lat="48.79377" lon="-1.33136">
        <ele>141.2</ele>
        <time>2024-01-25T14:15:29Z</time>
      </trkpt>
      <trkpt lat="48.79377" lon="-1.33136">
        <ele>141.2</ele>
        <time>2024-01-25T14:15:30Z</time>
      </trkpt>
      <trkpt lat="48.79377" lon="-1.33136">
        <ele>141.2</ele>
        <time>2024-01-25T14:15:31Z</time>
      </trkpt>
      <trkpt lat="48.79377" lon="-1.33136">
        <ele>141.2</ele>
        <time>2024-01-25T14:15:32Z</time>
      </trkpt>
      <trkpt lat="48.79377" lon="-1.33136">
        <ele>141.2</ele>
        <time>2024-01-25T14:15:33Z</time>
      </trkpt>
      <trkpt lat="48.79377" lon="-1.33136">
        <ele>141.2</ele>
        <time>2024-01-25T14:15:34Z</time>
      </trkpt>
      <trkpt lat="48.79377" lon="-1.33136">
        <ele>141.2</ele>
        <time>2024-01-25T14:15:35Z</time>
      </trkpt>
      <trkpt lat="48.79377" lon="-1.33136">
        <ele>141.2</ele>
        <time>2024-01-25T14:15:36Z</time>
      </trkpt>
      <trkpt lat="48.79377" lon="-1.33136">
        <ele>141.2</ele>
        <time>2024-01-25T14:15:37Z</time>
      </trkpt>
      <trkpt lat="48.79377" lon="-1.33136">
        <ele>141.2</ele>
        <time>2024-01-25T14:15:38Z</time>
      </trkpt>
      <trkpt lat="48.79377" lon="-1.33136">
        <ele>141.2</ele>
        <time>2024-01-25T14:15:39Z</time>
      </trkpt>
      <trkpt lat="48.79377" lon="-1.33136">
        <ele>141.2</ele>
        <time>2024-01-25T14:15:40Z</time>
      </trkpt>
      <trkpt lat="48.79377" lon="-1.33136">
        <ele>141.2</ele>
        <time>2024-01-25T14:15:41Z</time>
      </trkpt>
      <trkpt lat="48.79377" lon="-1.33136">
        <ele>141.2</ele>
        <time>2024-01-25T14:15:42Z</time>
      </trkpt>
      <trkpt lat="48.79377" lon="-1.33136">
        <ele>141.2</ele>
        <time>2024-01-25T14:15:43Z</time>
      </trkpt>
      <trkpt lat="48.79377" lon="-1.33136">
        <ele>141.2</ele>
        <time>2024-01-25T14:15:44Z</time>
      </trkpt>
      <trkpt lat="48.79377" lon="-1.33136">
        <ele>141.2</ele>
        <time>2024-01-25T14:15:45Z</time>
      </trkpt>
      <trkpt lat="48.79377" lon="-1.33136">
        <ele>141.2</ele>
        <time>2024-01-25T14:15:46Z</time>
      </trkpt>
      <trkpt lat="48.79377" lon="-1.33136">
        <ele>141.2</ele>
        <time>2024-01-25T14:15:47Z</time>
      </trkpt>
      <trkpt lat="48.79377" lon="-1.33136">
        <ele>141.2</ele>
        <time>2024-01-25T14:15:48Z</time>
      </trkpt>
      <trkpt lat="48.79377" lon="-1.33136">
        <ele>141.2</ele>
        <time>2024-01-25T14:15:49Z</time>
      </trkpt>
      <trkpt lat="48.79377" lon="-1.33136">
        <ele>141.2</ele>
        <time>2024-01-25T14:15:50Z</time>
      </trkpt>
      <trkpt lat="48.79377" lon="-1.33136">
        <ele>141.2</ele>
        <time>2024-01-25T14:15:51Z</time>
      </trkpt>
      <trkpt lat="48.79377" lon="-1.33136">
        <ele>141.2</ele>
        <time>2024-01-25T14:15:52Z</time>
      </trkpt>
      <trkpt lat="48.79377" lon="-1.33136">
        <ele>141.2</ele>
        <time>2024-01-25T14:15:53Z</time>
      </trkpt>
      <trkpt lat="48.79377" lon="-1.33136">
        <ele>141.2</ele>
        <time>2024-01-25T14:15:54Z</time>
      </trkpt>
      <trkpt lat="48.79377" lon="-1.33136">
        <ele>141.2</ele>
        <time>2024-01-25T14:15:55Z</time>
      </trkpt>
      <trkpt lat="48.79377" lon="-1.33136">
        <ele>141.2</ele>
        <time>2024-01-25T14:15:56Z</time>
      </trkpt>
      <trkpt lat="48.79377" lon="-1.33136">
        <ele>141.2</ele>
        <time>2024-01-25T14:15:57Z</time>
      </trkpt>
      <trkpt lat="48.79377" lon="-1.33136">
        <ele>141.2</ele>
        <time>2024-01-25T14:15:58Z</time>
      </trkpt>
      <trkpt lat="48.79377" lon="-1.33136">
        <ele>141.2</ele>
        <time>2024-01-25T14:15:59Z</time>
      </trkpt>
      <trkpt lat="48.79377" lon="-1.33136">
        <ele>141.2</ele>
        <time>2024-01-25T14:16:00Z</time>
      </trkpt>
      <trkpt lat="48.79377" lon="-1.33136">
        <ele>141.2</ele>
        <time>2024-01-25T14:16:01Z</time>
      </trkpt>
      <trkpt lat="48.79377" lon="-1.33136">
        <ele>141.2</ele>
        <time>2024-01-25T14:16:02Z</time>
      </trkpt>
      <trkpt lat="48.79377" lon="-1.33136">
        <ele>141.2</ele>
        <time>2024-01-25T14:16:03Z</time>
      </trkpt>
      <trkpt lat="48.79377" lon="-1.33136">
        <ele>141.2</ele>
        <time>2024-01-25T14:16:04Z</time>
      </trkpt>
      <trkpt lat="48.79377" lon="-1.33136">
        <ele>141.2</ele>
        <time>2024-01-25T14:16:05Z</time>
      </trkpt>
      <trkpt lat="48.79377" lon="-1.33136">
        <ele>141.2</ele>
        <time>2024-01-25T14:16:06Z</time>
      </trkpt>
      <trkpt lat="48.79375" lon="-1.33136">
        <ele>141.2</ele>
        <time>2024-01-25T14:16:07Z</time>
      </trkpt>
      <trkpt lat="48.79373" lon="-1.33136">
        <ele>141.2</ele>
        <time>2024-01-25T14:16:08Z</time>
      </trkpt>
      <trkpt lat="48.7937" lon="-1.33137">
        <ele>141.1</ele>
        <time>2024-01-25T14:16:10Z</time>
      </trkpt>
      <trkpt lat="48.79367" lon="-1.33139">
        <ele>141.1</ele>
        <time>2024-01-25T14:16:11Z</time>
      </trkpt>
      <trkpt lat="48.79367" lon="-1.3314">
        <ele>141.1</ele>
        <time>2024-01-25T14:16:12Z</time>
      </trkpt>
      <trkpt lat="48.79364" lon="-1.33142">
        <ele>141</ele>
        <time>2024-01-25T14:16:13Z</time>
      </trkpt>
      <trkpt lat="48.79362" lon="-1.33144">
        <ele>141</ele>
        <time>2024-01-25T14:16:14Z</time>
      </trkpt>
      <trkpt lat="48.79359" lon="-1.33147">
        <ele>140.9</ele>
        <time>2024-01-25T14:16:15Z</time>
      </trkpt>
      <trkpt lat="48.79355" lon="-1.3315">
        <ele>140.9</ele>
        <time>2024-01-25T14:16:16Z</time>
      </trkpt>
      <trkpt lat="48.79352" lon="-1.33153">
        <ele>140.8</ele>
        <time>2024-01-25T14:16:17Z</time>
      </trkpt>
      <trkpt lat="48.79349" lon="-1.33156">
        <ele>140.7</ele>
        <time>2024-01-25T14:16:18Z</time>
      </trkpt>
      <trkpt lat="48.79345" lon="-1.33159">
        <ele>140.7</ele>
        <time>2024-01-25T14:16:19Z</time>
      </trkpt>
      <trkpt lat="48.79342" lon="-1.33162">
        <ele>140.6</ele>
        <time>2024-01-25T14:16:20Z</time>
      </trkpt>
      <trkpt lat="48.79339" lon="-1.33165">
        <ele>140.5</ele>
        <time>2024-01-25T14:16:21Z</time>
      </trkpt>
      <trkpt lat="48.79335" lon="-1.33168">
        <ele>140.5</ele>
        <time>2024-01-25T14:16:22Z</time>
      </trkpt>
      <trkpt lat="48.79332" lon="-1.3317">
        <ele>140.4</ele>
        <time>2024-01-25T14:16:23Z</time>
      </trkpt>
      <trkpt lat="48.79328" lon="-1.33174">
        <ele>140.3</ele>
        <time>2024-01-25T14:16:24Z</time>
      </trkpt>
      <trkpt lat="48.79325" lon="-1.33177">
        <ele>140.3</ele>
        <time>2024-01-25T14:16:25Z</time>
      </trkpt>
      <trkpt lat="48.7932" lon="-1.3318">
        <ele>140.2</ele>
        <time>2024-01-25T14:16:26Z</time>
      </trkpt>
      <trkpt lat="48.79317" lon="-1.33184">
        <ele>140.1</ele>
        <time>2024-01-25T14:16:27Z</time>
      </trkpt>
      <trkpt lat="48.79313" lon="-1.33187">
        <ele>140</ele>
        <time>2024-01-25T14:16:28Z</time>
      </trkpt>
      <trkpt lat="48.79308" lon="-1.3319">
        <ele>140</ele>
        <time>2024-01-25T14:16:29Z</time>
      </trkpt>
      <trkpt lat="48.79304" lon="-1.33194">
        <ele>139.9</ele>
        <time>2024-01-25T14:16:30Z</time>
      </trkpt>
      <trkpt lat="48.79299" lon="-1.33197">
        <ele>139.8</ele>
        <time>2024-01-25T14:16:31Z</time>
      </trkpt>
      <trkpt lat="48.79295" lon="-1.33201">
        <ele>139.7</ele>
        <time>2024-01-25T14:16:32Z</time>
      </trkpt>
      <trkpt lat="48.7929" lon="-1.33205">
        <ele>139.6</ele>
        <time>2024-01-25T14:16:33Z</time>
      </trkpt>
      <trkpt lat="48.79285" lon="-1.33208">
        <ele>139.5</ele>
        <time>2024-01-25T14:16:34Z</time>
      </trkpt>
      <trkpt lat="48.7928" lon="-1.33212">
        <ele>139.5</ele>
        <time>2024-01-25T14:16:35Z</time>
      </trkpt>
      <trkpt lat="48.79275" lon="-1.33215">
        <ele>139.4</ele>
        <time>2024-01-25T14:16:36Z</time>
      </trkpt>
      <trkpt lat="48.7927" lon="-1.33219">
        <ele>139.3</ele>
        <time>2024-01-25T14:16:37Z</time>
      </trkpt>
      <trkpt lat="48.79265" lon="-1.33224">
        <ele>139.3</ele>
        <time>2024-01-25T14:16:38Z</time>
      </trkpt>
      <trkpt lat="48.7926" lon="-1.33228">
        <ele>139.2</ele>
        <time>2024-01-25T14:16:39Z</time>
      </trkpt>
      <trkpt lat="48.79255" lon="-1.33232">
        <ele>139.2</ele>
        <time>2024-01-25T14:16:40Z</time>
      </trkpt>
      <trkpt lat="48.7925" lon="-1.33235">
        <ele>139.2</ele>
        <time>2024-01-25T14:16:41Z</time>
      </trkpt>
      <trkpt lat="48.79245" lon="-1.33238">
        <ele>139.2</ele>
        <time>2024-01-25T14:16:42Z</time>
      </trkpt>
      <trkpt lat="48.7924" lon="-1.33241">
        <ele>139.1</ele>
        <time>2024-01-25T14:16:43Z</time>
      </trkpt>
      <trkpt lat="48.79235" lon="-1.33244">
        <ele>139</ele>
        <time>2024-01-25T14:16:44Z</time>
      </trkpt>
      <trkpt lat="48.7923" lon="-1.33246">
        <ele>139</ele>
        <time>2024-01-25T14:16:45Z</time>
      </trkpt>
      <trkpt lat="48.79225" lon="-1.33248">
        <ele>138.9</ele>
        <time>2024-01-25T14:16:46Z</time>
      </trkpt>
      <trkpt lat="48.7922" lon="-1.3325">
        <ele>138.8</ele>
        <time>2024-01-25T14:16:47Z</time>
      </trkpt>
      <trkpt lat="48.79215" lon="-1.33252">
        <ele>138.8</ele>
        <time>2024-01-25T14:16:48Z</time>
      </trkpt>
      <trkpt lat="48.7921" lon="-1.33254">
        <ele>138.7</ele>
        <time>2024-01-25T14:16:49Z</time>
      </trkpt>
      <trkpt lat="48.79205" lon="-1.33256">
        <ele>138.6</ele>
        <time>2024-01-25T14:16:50Z</time>
      </trkpt>
      <trkpt lat="48.792" lon="-1.33258">
        <ele>138.5</ele>
        <time>2024-01-25T14:16:51Z</time>
      </trkpt>
      <trkpt lat="48.79195" lon="-1.33261">
        <ele>138.4</ele>
        <time>2024-01-25T14:16:52Z</time>
      </trkpt>
      <trkpt lat="48.79189" lon="-1.33264">
        <ele>138.2</ele>
        <time>2024-01-25T14:16:53Z</time>
      </trkpt>
      <trkpt lat="48.79184" lon="-1.33267">
        <ele>138.1</ele>
        <time>2024-01-25T14:16:54Z</time>
      </trkpt>
      <trkpt lat="48.79178" lon="-1.3327">
        <ele>138</ele>
        <time>2024-01-25T14:16:55Z</time>
      </trkpt>
      <trkpt lat="48.79172" lon="-1.33273">
        <ele>137.9</ele>
        <time>2024-01-25T14:16:56Z</time>
      </trkpt>
      <trkpt lat="48.79166" lon="-1.33277">
        <ele>137.8</ele>
        <time>2024-01-25T14:16:57Z</time>
      </trkpt>
      <trkpt lat="48.7916" lon="-1.33281">
        <ele>137.7</ele>
        <time>2024-01-25T14:16:58Z</time>
      </trkpt>
      <trkpt lat="48.79154" lon="-1.33284">
        <ele>137.6</ele>
        <time>2024-01-25T14:16:59Z</time>
      </trkpt>
      <trkpt lat="48.79148" lon="-1.33288">
        <ele>137.6</ele>
        <time>2024-01-25T14:17:00Z</time>
      </trkpt>
      <trkpt lat="48.79142" lon="-1.33293">
        <ele>137.6</ele>
        <time>2024-01-25T14:17:01Z</time>
      </trkpt>
      <trkpt lat="48.79136" lon="-1.33298">
        <ele>137.6</ele>
        <time>2024-01-25T14:17:02Z</time>
      </trkpt>
      <trkpt lat="48.7913" lon="-1.33303">
        <ele>137.6</ele>
        <time>2024-01-25T14:17:03Z</time>
      </trkpt>
      <trkpt lat="48.79124" lon="-1.33308">
        <ele>137.7</ele>
        <time>2024-01-25T14:17:04Z</time>
      </trkpt>
      <trkpt lat="48.79118" lon="-1.33313">
        <ele>137.7</ele>
        <time>2024-01-25T14:17:05Z</time>
      </trkpt>
      <trkpt lat="48.79113" lon="-1.33318">
        <ele>137.7</ele>
        <time>2024-01-25T14:17:06Z</time>
      </trkpt>
      <trkpt lat="48.79107" lon="-1.33324">
        <ele>137.8</ele>
        <time>2024-01-25T14:17:07Z</time>
      </trkpt>
      <trkpt lat="48.79101" lon="-1.3333">
        <ele>137.8</ele>
        <time>2024-01-25T14:17:08Z</time>
      </trkpt>
      <trkpt lat="48.79096" lon="-1.33337">
        <ele>137.8</ele>
        <time>2024-01-25T14:17:09Z</time>
      </trkpt>
      <trkpt lat="48.79092" lon="-1.33343">
        <ele>137.8</ele>
        <time>2024-01-25T14:17:10Z</time>
      </trkpt>
      <trkpt lat="48.79087" lon="-1.33349">
        <ele>137.9</ele>
        <time>2024-01-25T14:17:11Z</time>
      </trkpt>
      <trkpt lat="48.79082" lon="-1.33354">
        <ele>137.9</ele>
        <time>2024-01-25T14:17:12Z</time>
      </trkpt>
      <trkpt lat="48.79078" lon="-1.33359">
        <ele>137.9</ele>
        <time>2024-01-25T14:17:13Z</time>
      </trkpt>
      <trkpt lat="48.79073" lon="-1.33364">
        <ele>138</ele>
        <time>2024-01-25T14:17:14Z</time>
      </trkpt>
      <trkpt lat="48.79068" lon="-1.33369">
        <ele>138.1</ele>
        <time>2024-01-25T14:17:15Z</time>
      </trkpt>
      <trkpt lat="48.79064" lon="-1.33375">
        <ele>138.2</ele>
        <time>2024-01-25T14:17:16Z</time>
      </trkpt>
      <trkpt lat="48.7906" lon="-1.33381">
        <ele>138.3</ele>
        <time>2024-01-25T14:17:17Z</time>
      </trkpt>
      <trkpt lat="48.79056" lon="-1.33387">
        <ele>138.4</ele>
        <time>2024-01-25T14:17:18Z</time>
      </trkpt>
      <trkpt lat="48.79051" lon="-1.33393">
        <ele>138.5</ele>
        <time>2024-01-25T14:17:19Z</time>
      </trkpt>
      <trkpt lat="48.79046" lon="-1.33398">
        <ele>138.6</ele>
        <time>2024-01-25T14:17:20Z</time>
      </trkpt>
      <trkpt lat="48.79042" lon="-1.33403">
        <ele>138.7</ele>
        <time>2024-01-25T14:17:21Z</time>
      </trkpt>
      <trkpt lat="48.79037" lon="-1.33408">
        <ele>138.8</ele>
        <time>2024-01-25T14:17:22Z</time>
      </trkpt>
      <trkpt lat="48.79032" lon="-1.33413">
        <ele>138.9</ele>
        <time>2024-01-25T14:17:23Z</time>
      </trkpt>
      <trkpt lat="48.79028" lon="-1.33417">
        <ele>139</ele>
        <time>2024-01-25T14:17:24Z</time>
      </trkpt>
      <trkpt lat="48.79023" lon="-1.33421">
        <ele>139.1</ele>
        <time>2024-01-25T14:17:25Z</time>
      </trkpt>
      <trkpt lat="48.79018" lon="-1.33426">
        <ele>139.2</ele>
        <time>2024-01-25T14:17:26Z</time>
      </trkpt>
      <trkpt lat="48.79014" lon="-1.33431">
        <ele>139.3</ele>
        <time>2024-01-25T14:17:27Z</time>
      </trkpt>
      <trkpt lat="48.79008" lon="-1.33435">
        <ele>139.5</ele>
        <time>2024-01-25T14:17:28Z</time>
      </trkpt>
      <trkpt lat="48.79003" lon="-1.3344">
        <ele>139.6</ele>
        <time>2024-01-25T14:17:29Z</time>
      </trkpt>
      <trkpt lat="48.78998" lon="-1.33445">
        <ele>139.7</ele>
        <time>2024-01-25T14:17:30Z</time>
      </trkpt>
      <trkpt lat="48.78993" lon="-1.33449">
        <ele>139.9</ele>
        <time>2024-01-25T14:17:31Z</time>
      </trkpt>
      <trkpt lat="48.78988" lon="-1.33453">
        <ele>140</ele>
        <time>2024-01-25T14:17:32Z</time>
      </trkpt>
      <trkpt lat="48.78983" lon="-1.33457">
        <ele>140.1</ele>
        <time>2024-01-25T14:17:33Z</time>
      </trkpt>
      <trkpt lat="48.78977" lon="-1.33462">
        <ele>140.2</ele>
        <time>2024-01-25T14:17:34Z</time>
      </trkpt>
      <trkpt lat="48.78972" lon="-1.33467">
        <ele>140.3</ele>
        <time>2024-01-25T14:17:35Z</time>
      </trkpt>
      <trkpt lat="48.78967" lon="-1.33472">
        <ele>140.5</ele>
        <time>2024-01-25T14:17:36Z</time>
      </trkpt>
      <trkpt lat="48.78962" lon="-1.33478">
        <ele>140.6</ele>
        <time>2024-01-25T14:17:37Z</time>
      </trkpt>
      <trkpt lat="48.78957" lon="-1.33483">
        <ele>140.7</ele>
        <time>2024-01-25T14:17:38Z</time>
      </trkpt>
      <trkpt lat="48.78952" lon="-1.33489">
        <ele>140.9</ele>
        <time>2024-01-25T14:17:39Z</time>
      </trkpt>
      <trkpt lat="48.78948" lon="-1.33494">
        <ele>141</ele>
        <time>2024-01-25T14:17:40Z</time>
      </trkpt>
      <trkpt lat="48.78943" lon="-1.335">
        <ele>141.2</ele>
        <time>2024-01-25T14:17:41Z</time>
      </trkpt>
      <trkpt lat="48.78939" lon="-1.33506">
        <ele>141.3</ele>
        <time>2024-01-25T14:17:42Z</time>
      </trkpt>
      <trkpt lat="48.78935" lon="-1.33512">
        <ele>141.5</ele>
        <time>2024-01-25T14:17:43Z</time>
      </trkpt>
      <trkpt lat="48.78932" lon="-1.33518">
        <ele>141.6</ele>
        <time>2024-01-25T14:17:44Z</time>
      </trkpt>
      <trkpt lat="48.78928" lon="-1.33525">
        <ele>141.8</ele>
        <time>2024-01-25T14:17:45Z</time>
      </trkpt>
      <trkpt lat="48.78924" lon="-1.33533">
        <ele>141.9</ele>
        <time>2024-01-25T14:17:46Z</time>
      </trkpt>
      <trkpt lat="48.78921" lon="-1.33541">
        <ele>142.1</ele>
        <time>2024-01-25T14:17:47Z</time>
      </trkpt>
      <trkpt lat="48.78918" lon="-1.33549">
        <ele>142.3</ele>
        <time>2024-01-25T14:17:48Z</time>
      </trkpt>
      <trkpt lat="48.78915" lon="-1.33557">
        <ele>142.4</ele>
        <time>2024-01-25T14:17:49Z</time>
      </trkpt>
      <trkpt lat="48.78912" lon="-1.33564">
        <ele>142.6</ele>
        <time>2024-01-25T14:17:50Z</time>
      </trkpt>
      <trkpt lat="48.78909" lon="-1.33572">
        <ele>142.7</ele>
        <time>2024-01-25T14:17:51Z</time>
      </trkpt>
      <trkpt lat="48.78906" lon="-1.33579">
        <ele>142.8</ele>
        <time>2024-01-25T14:17:52Z</time>
      </trkpt>
      <trkpt lat="48.78903" lon="-1.33585">
        <ele>143</ele>
        <time>2024-01-25T14:17:53Z</time>
      </trkpt>
      <trkpt lat="48.789" lon="-1.33592">
        <ele>143.1</ele>
        <time>2024-01-25T14:17:54Z</time>
      </trkpt>
      <trkpt lat="48.78898" lon="-1.33599">
        <ele>143.2</ele>
        <time>2024-01-25T14:17:55Z</time>
      </trkpt>
      <trkpt lat="48.78894" lon="-1.33605">
        <ele>143.3</ele>
        <time>2024-01-25T14:17:56Z</time>
      </trkpt>
      <trkpt lat="48.78891" lon="-1.33612">
        <ele>143.4</ele>
        <time>2024-01-25T14:17:57Z</time>
      </trkpt>
      <trkpt lat="48.78888" lon="-1.33618">
        <ele>143.6</ele>
        <time>2024-01-25T14:17:58Z</time>
      </trkpt>
      <trkpt lat="48.78885" lon="-1.33625">
        <ele>143.7</ele>
        <time>2024-01-25T14:17:59Z</time>
      </trkpt>
      <trkpt lat="48.78882" lon="-1.33633">
        <ele>143.8</ele>
        <time>2024-01-25T14:18:00Z</time>
      </trkpt>
      <trkpt lat="48.78879" lon="-1.3364">
        <ele>143.9</ele>
        <time>2024-01-25T14:18:01Z</time>
      </trkpt>
      <trkpt lat="48.78876" lon="-1.33647">
        <ele>144</ele>
        <time>2024-01-25T14:18:02Z</time>
      </trkpt>
      <trkpt lat="48.78874" lon="-1.33654">
        <ele>144.1</ele>
        <time>2024-01-25T14:18:03Z</time>
      </trkpt>
      <trkpt lat="48.78871" lon="-1.33662">
        <ele>144.3</ele>
        <time>2024-01-25T14:18:04Z</time>
      </trkpt>
      <trkpt lat="48.78869" lon="-1.33669">
        <ele>144.4</ele>
        <time>2024-01-25T14:18:05Z</time>
      </trkpt>
      <trkpt lat="48.78866" lon="-1.33677">
        <ele>144.5</ele>
        <time>2024-01-25T14:18:06Z</time>
      </trkpt>
      <trkpt lat="48.78863" lon="-1.33684">
        <ele>144.6</ele>
        <time>2024-01-25T14:18:07Z</time>
      </trkpt>
      <trkpt lat="48.78861" lon="-1.33692">
        <ele>144.7</ele>
        <time>2024-01-25T14:18:08Z</time>
      </trkpt>
      <trkpt lat="48.78858" lon="-1.337">
        <ele>144.8</ele>
        <time>2024-01-25T14:18:09Z</time>
      </trkpt>
      <trkpt lat="48.78856" lon="-1.33707">
        <ele>145</ele>
        <time>2024-01-25T14:18:10Z</time>
      </trkpt>
      <trkpt lat="48.78853" lon="-1.33715">
        <ele>145.1</ele>
        <time>2024-01-25T14:18:11Z</time>
      </trkpt>
      <trkpt lat="48.78851" lon="-1.33722">
        <ele>145.2</ele>
        <time>2024-01-25T14:18:12Z</time>
      </trkpt>
      <trkpt lat="48.78849" lon="-1.3373">
        <ele>145.3</ele>
        <time>2024-01-25T14:18:13Z</time>
      </trkpt>
      <trkpt lat="48.78847" lon="-1.33738">
        <ele>145.4</ele>
        <time>2024-01-25T14:18:14Z</time>
      </trkpt>
      <trkpt lat="48.78845" lon="-1.33745">
        <ele>145.5</ele>
        <time>2024-01-25T14:18:15Z</time>
      </trkpt>
      <trkpt lat="48.78843" lon="-1.33753">
        <ele>145.5</ele>
        <time>2024-01-25T14:18:16Z</time>
      </trkpt>
      <trkpt lat="48.78841" lon="-1.3376">
        <ele>145.6</ele>
        <time>2024-01-25T14:18:17Z</time>
      </trkpt>
      <trkpt lat="48.78839" lon="-1.33767">
        <ele>145.6</ele>
        <time>2024-01-25T14:18:18Z</time>
      </trkpt>
      <trkpt lat="48.78837" lon="-1.33775">
        <ele>145.7</ele>
        <time>2024-01-25T14:18:19Z</time>
      </trkpt>
      <trkpt lat="48.78835" lon="-1.33783">
        <ele>145.7</ele>
        <time>2024-01-25T14:18:20Z</time>
      </trkpt>
      <trkpt lat="48.78834" lon="-1.33791">
        <ele>145.7</ele>
        <time>2024-01-25T14:18:21Z</time>
      </trkpt>
      <trkpt lat="48.78832" lon="-1.33799">
        <ele>145.8</ele>
        <time>2024-01-25T14:18:22Z</time>
      </trkpt>
      <trkpt lat="48.7883" lon="-1.33807">
        <ele>145.9</ele>
        <time>2024-01-25T14:18:23Z</time>
      </trkpt>
      <trkpt lat="48.78829" lon="-1.33815">
        <ele>145.9</ele>
        <time>2024-01-25T14:18:24Z</time>
      </trkpt>
      <trkpt lat="48.78827" lon="-1.33824">
        <ele>146</ele>
        <time>2024-01-25T14:18:25Z</time>
      </trkpt>
      <trkpt lat="48.78825" lon="-1.33832">
        <ele>146</ele>
        <time>2024-01-25T14:18:26Z</time>
      </trkpt>
      <trkpt lat="48.78824" lon="-1.3384">
        <ele>146</ele>
        <time>2024-01-25T14:18:27Z</time>
      </trkpt>
      <trkpt lat="48.78822" lon="-1.33848">
        <ele>145.9</ele>
        <time>2024-01-25T14:18:28Z</time>
      </trkpt>
      <trkpt lat="48.7882" lon="-1.33857">
        <ele>145.9</ele>
        <time>2024-01-25T14:18:29Z</time>
      </trkpt>
      <trkpt lat="48.78819" lon="-1.33866">
        <ele>145.8</ele>
        <time>2024-01-25T14:18:30Z</time>
      </trkpt>
      <trkpt lat="48.78817" lon="-1.33875">
        <ele>145.7</ele>
        <time>2024-01-25T14:18:31Z</time>
      </trkpt>
      <trkpt lat="48.78815" lon="-1.33884">
        <ele>145.6</ele>
        <time>2024-01-25T14:18:32Z</time>
      </trkpt>
      <trkpt lat="48.78813" lon="-1.33893">
        <ele>145.5</ele>
        <time>2024-01-25T14:18:33Z</time>
      </trkpt>
      <trkpt lat="48.78811" lon="-1.33903">
        <ele>145.4</ele>
        <time>2024-01-25T14:18:34Z</time>
      </trkpt>
      <trkpt lat="48.78809" lon="-1.33912">
        <ele>145.3</ele>
        <time>2024-01-25T14:18:35Z</time>
      </trkpt>
      <trkpt lat="48.78808" lon="-1.33921">
        <ele>145.2</ele>
        <time>2024-01-25T14:18:36Z</time>
      </trkpt>
      <trkpt lat="48.78806" lon="-1.3393">
        <ele>145.1</ele>
        <time>2024-01-25T14:18:37Z</time>
      </trkpt>
      <trkpt lat="48.78804" lon="-1.3394">
        <ele>145</ele>
        <time>2024-01-25T14:18:38Z</time>
      </trkpt>
      <trkpt lat="48.78802" lon="-1.33949">
        <ele>144.9</ele>
        <time>2024-01-25T14:18:39Z</time>
      </trkpt>
      <trkpt lat="48.788" lon="-1.33958">
        <ele>144.8</ele>
        <time>2024-01-25T14:18:40Z</time>
      </trkpt>
      <trkpt lat="48.78798" lon="-1.33967">
        <ele>144.7</ele>
        <time>2024-01-25T14:18:41Z</time>
      </trkpt>
      <trkpt lat="48.78796" lon="-1.33976">
        <ele>144.6</ele>
        <time>2024-01-25T14:18:42Z</time>
      </trkpt>
      <trkpt lat="48.78794" lon="-1.33986">
        <ele>144.5</ele>
        <time>2024-01-25T14:18:43Z</time>
      </trkpt>
      <trkpt lat="48.78792" lon="-1.33995">
        <ele>144.4</ele>
        <time>2024-01-25T14:18:44Z</time>
      </trkpt>
      <trkpt lat="48.7879" lon="-1.34005">
        <ele>144.3</ele>
        <time>2024-01-25T14:18:45Z</time>
      </trkpt>
      <trkpt lat="48.78788" lon="-1.34014">
        <ele>144.3</ele>
        <time>2024-01-25T14:18:46Z</time>
      </trkpt>
      <trkpt lat="48.78786" lon="-1.34023">
        <ele>144.2</ele>
        <time>2024-01-25T14:18:47Z</time>
      </trkpt>
      <trkpt lat="48.78784" lon="-1.34033">
        <ele>144.1</ele>
        <time>2024-01-25T14:18:48Z</time>
      </trkpt>
      <trkpt lat="48.78781" lon="-1.34043">
        <ele>144</ele>
        <time>2024-01-25T14:18:49Z</time>
      </trkpt>
      <trkpt lat="48.78779" lon="-1.34052">
        <ele>143.9</ele>
        <time>2024-01-25T14:18:50Z</time>
      </trkpt>
      <trkpt lat="48.78777" lon="-1.34061">
        <ele>143.9</ele>
        <time>2024-01-25T14:18:51Z</time>
      </trkpt>
      <trkpt lat="48.78775" lon="-1.3407">
        <ele>143.8</ele>
        <time>2024-01-25T14:18:52Z</time>
      </trkpt>
      <trkpt lat="48.78773" lon="-1.34079">
        <ele>143.7</ele>
        <time>2024-01-25T14:18:53Z</time>
      </trkpt>
      <trkpt lat="48.78771" lon="-1.34088">
        <ele>143.6</ele>
        <time>2024-01-25T14:18:54Z</time>
      </trkpt>
      <trkpt lat="48.78769" lon="-1.34097">
        <ele>143.5</ele>
        <time>2024-01-25T14:18:55Z</time>
      </trkpt>
      <trkpt lat="48.78767" lon="-1.34107">
        <ele>143.4</ele>
        <time>2024-01-25T14:18:56Z</time>
      </trkpt>
      <trkpt lat="48.78765" lon="-1.34116">
        <ele>143.3</ele>
        <time>2024-01-25T14:18:57Z</time>
      </trkpt>
      <trkpt lat="48.78763" lon="-1.34125">
        <ele>143.2</ele>
        <time>2024-01-25T14:18:58Z</time>
      </trkpt>
      <trkpt lat="48.78761" lon="-1.34134">
        <ele>143.1</ele>
        <time>2024-01-25T14:18:59Z</time>
      </trkpt>
      <trkpt lat="48.78759" lon="-1.34143">
        <ele>143</ele>
        <time>2024-01-25T14:19:00Z</time>
      </trkpt>
      <trkpt lat="48.78756" lon="-1.34153">
        <ele>142.9</ele>
        <time>2024-01-25T14:19:01Z</time>
      </trkpt>
      <trkpt lat="48.78754" lon="-1.34162">
        <ele>142.8</ele>
        <time>2024-01-25T14:19:02Z</time>
      </trkpt>
      <trkpt lat="48.78752" lon="-1.34171">
        <ele>142.7</ele>
        <time>2024-01-25T14:19:03Z</time>
      </trkpt>
      <trkpt lat="48.7875" lon="-1.3418">
        <ele>142.6</ele>
        <time>2024-01-25T14:19:04Z</time>
      </trkpt>
      <trkpt lat="48.78748" lon="-1.34189">
        <ele>142.5</ele>
        <time>2024-01-25T14:19:05Z</time>
      </trkpt>
      <trkpt lat="48.78746" lon="-1.34198">
        <ele>142.5</ele>
        <time>2024-01-25T14:19:06Z</time>
      </trkpt>
      <trkpt lat="48.78744" lon="-1.34207">
        <ele>142.4</ele>
        <time>2024-01-25T14:19:07Z</time>
      </trkpt>
      <trkpt lat="48.78742" lon="-1.34216">
        <ele>142.3</ele>
        <time>2024-01-25T14:19:08Z</time>
      </trkpt>
      <trkpt lat="48.7874" lon="-1.34224">
        <ele>142.3</ele>
        <time>2024-01-25T14:19:09Z</time>
      </trkpt>
      <trkpt lat="48.78738" lon="-1.34233">
        <ele>142.2</ele>
        <time>2024-01-25T14:19:10Z</time>
      </trkpt>
      <trkpt lat="48.78736" lon="-1.34241">
        <ele>142.1</ele>
        <time>2024-01-25T14:19:11Z</time>
      </trkpt>
      <trkpt lat="48.78734" lon="-1.3425">
        <ele>142.1</ele>
        <time>2024-01-25T14:19:12Z</time>
      </trkpt>
      <trkpt lat="48.78732" lon="-1.34258">
        <ele>142</ele>
        <time>2024-01-25T14:19:13Z</time>
      </trkpt>
      <trkpt lat="48.78731" lon="-1.34267">
        <ele>141.9</ele>
        <time>2024-01-25T14:19:14Z</time>
      </trkpt>
      <trkpt lat="48.78729" lon="-1.34276">
        <ele>141.8</ele>
        <time>2024-01-25T14:19:15Z</time>
      </trkpt>
      <trkpt lat="48.78727" lon="-1.34285">
        <ele>141.8</ele>
        <time>2024-01-25T14:19:16Z</time>
      </trkpt>
      <trkpt lat="48.78725" lon="-1.34294">
        <ele>141.7</ele>
        <time>2024-01-25T14:19:17Z</time>
      </trkpt>
      <trkpt lat="48.78722" lon="-1.34302">
        <ele>141.6</ele>
        <time>2024-01-25T14:19:18Z</time>
      </trkpt>
      <trkpt lat="48.7872" lon="-1.34311">
        <ele>141.6</ele>
        <time>2024-01-25T14:19:19Z</time>
      </trkpt>
      <trkpt lat="48.78718" lon="-1.3432">
        <ele>141.5</ele>
        <time>2024-01-25T14:19:20Z</time>
      </trkpt>
      <trkpt lat="48.78715" lon="-1.34328">
        <ele>141.5</ele>
        <time>2024-01-25T14:19:21Z</time>
      </trkpt>
      <trkpt lat="48.78713" lon="-1.34336">
        <ele>141.4</ele>
        <time>2024-01-25T14:19:22Z</time>
      </trkpt>
      <trkpt lat="48.7871" lon="-1.34345">
        <ele>141.3</ele>
        <time>2024-01-25T14:19:23Z</time>
      </trkpt>
      <trkpt lat="48.78707" lon="-1.34353">
        <ele>141.2</ele>
        <time>2024-01-25T14:19:24Z</time>
      </trkpt>
      <trkpt lat="48.78705" lon="-1.34361">
        <ele>141.2</ele>
        <time>2024-01-25T14:19:25Z</time>
      </trkpt>
      <trkpt lat="48.78702" lon="-1.34371">
        <ele>141.1</ele>
        <time>2024-01-25T14:19:26Z</time>
      </trkpt>
      <trkpt lat="48.787" lon="-1.3438">
        <ele>141.1</ele>
        <time>2024-01-25T14:19:27Z</time>
      </trkpt>
      <trkpt lat="48.78697" lon="-1.34388">
        <ele>141</ele>
        <time>2024-01-25T14:19:28Z</time>
      </trkpt>
      <trkpt lat="48.78695" lon="-1.34397">
        <ele>140.9</ele>
        <time>2024-01-25T14:19:29Z</time>
      </trkpt>
      <trkpt lat="48.78692" lon="-1.34405">
        <ele>140.8</ele>
        <time>2024-01-25T14:19:30Z</time>
      </trkpt>
      <trkpt lat="48.78689" lon="-1.34413">
        <ele>140.8</ele>
        <time>2024-01-25T14:19:31Z</time>
      </trkpt>
      <trkpt lat="48.78686" lon="-1.3442">
        <ele>140.7</ele>
        <time>2024-01-25T14:19:32Z</time>
      </trkpt>
      <trkpt lat="48.78684" lon="-1.34428">
        <ele>140.6</ele>
        <time>2024-01-25T14:19:33Z</time>
      </trkpt>
      <trkpt lat="48.78682" lon="-1.34436">
        <ele>140.5</ele>
        <time>2024-01-25T14:19:34Z</time>
      </trkpt>
      <trkpt lat="48.7868" lon="-1.34443">
        <ele>140.5</ele>
        <time>2024-01-25T14:19:35Z</time>
      </trkpt>
      <trkpt lat="48.78677" lon="-1.34452">
        <ele>140.4</ele>
        <time>2024-01-25T14:19:36Z</time>
      </trkpt>
      <trkpt lat="48.78675" lon="-1.3446">
        <ele>140.3</ele>
        <time>2024-01-25T14:19:37Z</time>
      </trkpt>
      <trkpt lat="48.78673" lon="-1.34468">
        <ele>140.2</ele>
        <time>2024-01-25T14:19:38Z</time>
      </trkpt>
      <trkpt lat="48.7867" lon="-1.34476">
        <ele>140.2</ele>
        <time>2024-01-25T14:19:39Z</time>
      </trkpt>
      <trkpt lat="48.78668" lon="-1.34484">
        <ele>140.1</ele>
        <time>2024-01-25T14:19:40Z</time>
      </trkpt>
      <trkpt lat="48.78665" lon="-1.34492">
        <ele>140</ele>
        <time>2024-01-25T14:19:41Z</time>
      </trkpt>
      <trkpt lat="48.78663" lon="-1.34501">
        <ele>139.9</ele>
        <time>2024-01-25T14:19:42Z</time>
      </trkpt>
      <trkpt lat="48.7866" lon="-1.34509">
        <ele>139.8</ele>
        <time>2024-01-25T14:19:43Z</time>
      </trkpt>
      <trkpt lat="48.78658" lon="-1.34518">
        <ele>139.7</ele>
        <time>2024-01-25T14:19:44Z</time>
      </trkpt>
      <trkpt lat="48.78656" lon="-1.34526">
        <ele>139.6</ele>
        <time>2024-01-25T14:19:45Z</time>
      </trkpt>
      <trkpt lat="48.78653" lon="-1.34535">
        <ele>139.5</ele>
        <time>2024-01-25T14:19:46Z</time>
      </trkpt>
      <trkpt lat="48.78651" lon="-1.34544">
        <ele>139.4</ele>
        <time>2024-01-25T14:19:47Z</time>
      </trkpt>
      <trkpt lat="48.78648" lon="-1.34552">
        <ele>139.3</ele>
        <time>2024-01-25T14:19:48Z</time>
      </trkpt>
      <trkpt lat="48.78645" lon="-1.34561">
        <ele>139.2</ele>
        <time>2024-01-25T14:19:49Z</time>
      </trkpt>
      <trkpt lat="48.78643" lon="-1.3457">
        <ele>139</ele>
        <time>2024-01-25T14:19:50Z</time>
      </trkpt>
      <trkpt lat="48.7864" lon="-1.34578">
        <ele>138.9</ele>
        <time>2024-01-25T14:19:51Z</time>
      </trkpt>
      <trkpt lat="48.78638" lon="-1.34587">
        <ele>138.8</ele>
        <time>2024-01-25T14:19:52Z</time>
      </trkpt>
      <trkpt lat="48.78635" lon="-1.34596">
        <ele>138.7</ele>
        <time>2024-01-25T14:19:53Z</time>
      </trkpt>
      <trkpt lat="48.78632" lon="-1.34605">
        <ele>138.7</ele>
        <time>2024-01-25T14:19:54Z</time>
      </trkpt>
      <trkpt lat="48.7863" lon="-1.34613">
        <ele>138.6</ele>
        <time>2024-01-25T14:19:55Z</time>
      </trkpt>
      <trkpt lat="48.78627" lon="-1.34622">
        <ele>138.5</ele>
        <time>2024-01-25T14:19:56Z</time>
      </trkpt>
      <trkpt lat="48.78624" lon="-1.34631">
        <ele>138.4</ele>
        <time>2024-01-25T14:19:57Z</time>
      </trkpt>
      <trkpt lat="48.78622" lon="-1.34639">
        <ele>138.2</ele>
        <time>2024-01-25T14:19:58Z</time>
      </trkpt>
      <trkpt lat="48.78619" lon="-1.34648">
        <ele>138.1</ele>
        <time>2024-01-25T14:19:59Z</time>
      </trkpt>
      <trkpt lat="48.78617" lon="-1.34657">
        <ele>138</ele>
        <time>2024-01-25T14:20:00Z</time>
      </trkpt>
      <trkpt lat="48.78614" lon="-1.34666">
        <ele>137.9</ele>
        <time>2024-01-25T14:20:01Z</time>
      </trkpt>
      <trkpt lat="48.78612" lon="-1.34675">
        <ele>137.9</ele>
        <time>2024-01-25T14:20:02Z</time>
      </trkpt>
      <trkpt lat="48.7861" lon="-1.34684">
        <ele>137.8</ele>
        <time>2024-01-25T14:20:03Z</time>
      </trkpt>
      <trkpt lat="48.78607" lon="-1.34693">
        <ele>137.7</ele>
        <time>2024-01-25T14:20:04Z</time>
      </trkpt>
      <trkpt lat="48.78604" lon="-1.34701">
        <ele>137.6</ele>
        <time>2024-01-25T14:20:05Z</time>
      </trkpt>
      <trkpt lat="48.78602" lon="-1.3471">
        <ele>137.5</ele>
        <time>2024-01-25T14:20:06Z</time>
      </trkpt>
      <trkpt lat="48.786" lon="-1.3472">
        <ele>137.4</ele>
        <time>2024-01-25T14:20:07Z</time>
      </trkpt>
      <trkpt lat="48.78597" lon="-1.34729">
        <ele>137.3</ele>
        <time>2024-01-25T14:20:08Z</time>
      </trkpt>
      <trkpt lat="48.78594" lon="-1.34738">
        <ele>137.2</ele>
        <time>2024-01-25T14:20:09Z</time>
      </trkpt>
      <trkpt lat="48.78591" lon="-1.34746">
        <ele>137.1</ele>
        <time>2024-01-25T14:20:10Z</time>
      </trkpt>
      <trkpt lat="48.78588" lon="-1.34755">
        <ele>137.1</ele>
        <time>2024-01-25T14:20:11Z</time>
      </trkpt>
      <trkpt lat="48.78586" lon="-1.34764">
        <ele>137</ele>
        <time>2024-01-25T14:20:12Z</time>
      </trkpt>
      <trkpt lat="48.78583" lon="-1.34772">
        <ele>136.9</ele>
        <time>2024-01-25T14:20:13Z</time>
      </trkpt>
      <trkpt lat="48.78581" lon="-1.3478">
        <ele>136.8</ele>
        <time>2024-01-25T14:20:14Z</time>
      </trkpt>
      <trkpt lat="48.78578" lon="-1.34789">
        <ele>136.7</ele>
        <time>2024-01-25T14:20:15Z</time>
      </trkpt>
      <trkpt lat="48.78575" lon="-1.34797">
        <ele>136.6</ele>
        <time>2024-01-25T14:20:16Z</time>
      </trkpt>
      <trkpt lat="48.78572" lon="-1.34806">
        <ele>136.5</ele>
        <time>2024-01-25T14:20:17Z</time>
      </trkpt>
      <trkpt lat="48.78569" lon="-1.34815">
        <ele>136.4</ele>
        <time>2024-01-25T14:20:18Z</time>
      </trkpt>
      <trkpt lat="48.78566" lon="-1.34823">
        <ele>136.3</ele>
        <time>2024-01-25T14:20:19Z</time>
      </trkpt>
      <trkpt lat="48.78564" lon="-1.34832">
        <ele>136.2</ele>
        <time>2024-01-25T14:20:20Z</time>
      </trkpt>
      <trkpt lat="48.78561" lon="-1.34841">
        <ele>136.1</ele>
        <time>2024-01-25T14:20:21Z</time>
      </trkpt>
      <trkpt lat="48.78558" lon="-1.34851">
        <ele>136</ele>
        <time>2024-01-25T14:20:22Z</time>
      </trkpt>
      <trkpt lat="48.78556" lon="-1.3486">
        <ele>136</ele>
        <time>2024-01-25T14:20:23Z</time>
      </trkpt>
      <trkpt lat="48.78553" lon="-1.34869">
        <ele>135.9</ele>
        <time>2024-01-25T14:20:24Z</time>
      </trkpt>
      <trkpt lat="48.7855" lon="-1.34878">
        <ele>135.8</ele>
        <time>2024-01-25T14:20:25Z</time>
      </trkpt>
      <trkpt lat="48.78547" lon="-1.34886">
        <ele>135.7</ele>
        <time>2024-01-25T14:20:26Z</time>
      </trkpt>
      <trkpt lat="48.78544" lon="-1.34894">
        <ele>135.6</ele>
        <time>2024-01-25T14:20:27Z</time>
      </trkpt>
      <trkpt lat="48.78541" lon="-1.34902">
        <ele>135.5</ele>
        <time>2024-01-25T14:20:28Z</time>
      </trkpt>
      <trkpt lat="48.78538" lon="-1.3491">
        <ele>135.5</ele>
        <time>2024-01-25T14:20:29Z</time>
      </trkpt>
      <trkpt lat="48.78534" lon="-1.34918">
        <ele>135.4</ele>
        <time>2024-01-25T14:20:30Z</time>
      </trkpt>
      <trkpt lat="48.78531" lon="-1.34926">
        <ele>135.3</ele>
        <time>2024-01-25T14:20:31Z</time>
      </trkpt>
      <trkpt lat="48.78528" lon="-1.34934">
        <ele>135.3</ele>
        <time>2024-01-25T14:20:32Z</time>
      </trkpt>
      <trkpt lat="48.78525" lon="-1.34942">
        <ele>135.2</ele>
        <time>2024-01-25T14:20:33Z</time>
      </trkpt>
      <trkpt lat="48.78521" lon="-1.3495">
        <ele>135.2</ele>
        <time>2024-01-25T14:20:34Z</time>
      </trkpt>
      <trkpt lat="48.78518" lon="-1.34958">
        <ele>135.1</ele>
        <time>2024-01-25T14:20:35Z</time>
      </trkpt>
      <trkpt lat="48.78515" lon="-1.34965">
        <ele>135</ele>
        <time>2024-01-25T14:20:36Z</time>
      </trkpt>
      <trkpt lat="48.78511" lon="-1.34974">
        <ele>135</ele>
        <time>2024-01-25T14:20:37Z</time>
      </trkpt>
      <trkpt lat="48.78508" lon="-1.34982">
        <ele>134.9</ele>
        <time>2024-01-25T14:20:38Z</time>
      </trkpt>
      <trkpt lat="48.78505" lon="-1.3499">
        <ele>134.9</ele>
        <time>2024-01-25T14:20:39Z</time>
      </trkpt>
      <trkpt lat="48.78502" lon="-1.34998">
        <ele>134.8</ele>
        <time>2024-01-25T14:20:40Z</time>
      </trkpt>
      <trkpt lat="48.78498" lon="-1.35005">
        <ele>134.8</ele>
        <time>2024-01-25T14:20:41Z</time>
      </trkpt>
      <trkpt lat="48.78495" lon="-1.35013">
        <ele>134.7</ele>
        <time>2024-01-25T14:20:42Z</time>
      </trkpt>
      <trkpt lat="48.78491" lon="-1.35021">
        <ele>134.7</ele>
        <time>2024-01-25T14:20:43Z</time>
      </trkpt>
      <trkpt lat="48.78488" lon="-1.35029">
        <ele>134.6</ele>
        <time>2024-01-25T14:20:44Z</time>
      </trkpt>
      <trkpt lat="48.78485" lon="-1.35036">
        <ele>134.6</ele>
        <time>2024-01-25T14:20:45Z</time>
      </trkpt>
      <trkpt lat="48.78481" lon="-1.35044">
        <ele>134.5</ele>
        <time>2024-01-25T14:20:46Z</time>
      </trkpt>
      <trkpt lat="48.78478" lon="-1.35052">
        <ele>134.5</ele>
        <time>2024-01-25T14:20:47Z</time>
      </trkpt>
      <trkpt lat="48.78475" lon="-1.3506">
        <ele>134.4</ele>
        <time>2024-01-25T14:20:48Z</time>
      </trkpt>
      <trkpt lat="48.78472" lon="-1.35067">
        <ele>134.4</ele>
        <time>2024-01-25T14:20:49Z</time>
      </trkpt>
      <trkpt lat="48.78469" lon="-1.35075">
        <ele>134.4</ele>
        <time>2024-01-25T14:20:50Z</time>
      </trkpt>
      <trkpt lat="48.78466" lon="-1.35082">
        <ele>134.3</ele>
        <time>2024-01-25T14:20:51Z</time>
      </trkpt>
      <trkpt lat="48.78463" lon="-1.35089">
        <ele>134.3</ele>
        <time>2024-01-25T14:20:52Z</time>
      </trkpt>
      <trkpt lat="48.78459" lon="-1.35097">
        <ele>134.2</ele>
        <time>2024-01-25T14:20:53Z</time>
      </trkpt>
      <trkpt lat="48.78456" lon="-1.35104">
        <ele>134.1</ele>
        <time>2024-01-25T14:20:54Z</time>
      </trkpt>
      <trkpt lat="48.78452" lon="-1.35112">
        <ele>134.1</ele>
        <time>2024-01-25T14:20:55Z</time>
      </trkpt>
      <trkpt lat="48.78449" lon="-1.3512">
        <ele>134</ele>
        <time>2024-01-25T14:20:56Z</time>
      </trkpt>
      <trkpt lat="48.78445" lon="-1.35128">
        <ele>134</ele>
        <time>2024-01-25T14:20:57Z</time>
      </trkpt>
      <trkpt lat="48.78442" lon="-1.35136">
        <ele>133.9</ele>
        <time>2024-01-25T14:20:58Z</time>
      </trkpt>
      <trkpt lat="48.78438" lon="-1.35144">
        <ele>133.9</ele>
        <time>2024-01-25T14:20:59Z</time>
      </trkpt>
      <trkpt lat="48.78435" lon="-1.35152">
        <ele>133.9</ele>
        <time>2024-01-25T14:21:00Z</time>
      </trkpt>
      <trkpt lat="48.78431" lon="-1.35159">
        <ele>133.9</ele>
        <time>2024-01-25T14:21:01Z</time>
      </trkpt>
      <trkpt lat="48.78427" lon="-1.35167">
        <ele>133.9</ele>
        <time>2024-01-25T14:21:02Z</time>
      </trkpt>
      <trkpt lat="48.78423" lon="-1.35175">
        <ele>133.8</ele>
        <time>2024-01-25T14:21:03Z</time>
      </trkpt>
      <trkpt lat="48.7842" lon="-1.35183">
        <ele>133.8</ele>
        <time>2024-01-25T14:21:04Z</time>
      </trkpt>
      <trkpt lat="48.78416" lon="-1.35191">
        <ele>133.8</ele>
        <time>2024-01-25T14:21:05Z</time>
      </trkpt>
      <trkpt lat="48.78413" lon="-1.35199">
        <ele>133.8</ele>
        <time>2024-01-25T14:21:06Z</time>
      </trkpt>
      <trkpt lat="48.78409" lon="-1.35207">
        <ele>133.9</ele>
        <time>2024-01-25T14:21:07Z</time>
      </trkpt>
      <trkpt lat="48.78406" lon="-1.35215">
        <ele>133.9</ele>
        <time>2024-01-25T14:21:08Z</time>
      </trkpt>
      <trkpt lat="48.78403" lon="-1.35223">
        <ele>133.9</ele>
        <time>2024-01-25T14:21:09Z</time>
      </trkpt>
      <trkpt lat="48.784" lon="-1.3523">
        <ele>133.9</ele>
        <time>2024-01-25T14:21:10Z</time>
      </trkpt>
      <trkpt lat="48.78398" lon="-1.35238">
        <ele>134</ele>
        <time>2024-01-25T14:21:11Z</time>
      </trkpt>
      <trkpt lat="48.78395" lon="-1.35246">
        <ele>134</ele>
        <time>2024-01-25T14:21:12Z</time>
      </trkpt>
      <trkpt lat="48.78393" lon="-1.35254">
        <ele>134.1</ele>
        <time>2024-01-25T14:21:13Z</time>
      </trkpt>
      <trkpt lat="48.78391" lon="-1.35262">
        <ele>134.2</ele>
        <time>2024-01-25T14:21:14Z</time>
      </trkpt>
      <trkpt lat="48.78388" lon="-1.3527">
        <ele>134.2</ele>
        <time>2024-01-25T14:21:15Z</time>
      </trkpt>
      <trkpt lat="48.78385" lon="-1.35277">
        <ele>134.3</ele>
        <time>2024-01-25T14:21:16Z</time>
      </trkpt>
      <trkpt lat="48.78383" lon="-1.35285">
        <ele>134.3</ele>
        <time>2024-01-25T14:21:17Z</time>
      </trkpt>
      <trkpt lat="48.7838" lon="-1.35292">
        <ele>134.4</ele>
        <time>2024-01-25T14:21:18Z</time>
      </trkpt>
      <trkpt lat="48.78377" lon="-1.353">
        <ele>134.4</ele>
        <time>2024-01-25T14:21:19Z</time>
      </trkpt>
      <trkpt lat="48.78374" lon="-1.35307">
        <ele>134.5</ele>
        <time>2024-01-25T14:21:20Z</time>
      </trkpt>
      <trkpt lat="48.78372" lon="-1.35315">
        <ele>134.5</ele>
        <time>2024-01-25T14:21:21Z</time>
      </trkpt>
      <trkpt lat="48.78368" lon="-1.35322">
        <ele>134.6</ele>
        <time>2024-01-25T14:21:22Z</time>
      </trkpt>
      <trkpt lat="48.78365" lon="-1.35329">
        <ele>134.7</ele>
        <time>2024-01-25T14:21:23Z</time>
      </trkpt>
      <trkpt lat="48.78362" lon="-1.35337">
        <ele>134.7</ele>
        <time>2024-01-25T14:21:24Z</time>
      </trkpt>
      <trkpt lat="48.78359" lon="-1.35344">
        <ele>134.8</ele>
        <time>2024-01-25T14:21:25Z</time>
      </trkpt>
      <trkpt lat="48.78356" lon="-1.35352">
        <ele>134.9</ele>
        <time>2024-01-25T14:21:26Z</time>
      </trkpt>
      <trkpt lat="48.78353" lon="-1.35359">
        <ele>135</ele>
        <time>2024-01-25T14:21:27Z</time>
      </trkpt>
      <trkpt lat="48.7835" lon="-1.35366">
        <ele>135.1</ele>
        <time>2024-01-25T14:21:28Z</time>
      </trkpt>
      <trkpt lat="48.78347" lon="-1.35374">
        <ele>135.2</ele>
        <time>2024-01-25T14:21:29Z</time>
      </trkpt>
      <trkpt lat="48.78344" lon="-1.35381">
        <ele>135.2</ele>
        <time>2024-01-25T14:21:30Z</time>
      </trkpt>
      <trkpt lat="48.78342" lon="-1.35387">
        <ele>135.3</ele>
        <time>2024-01-25T14:21:31Z</time>
      </trkpt>
      <trkpt lat="48.78339" lon="-1.35394">
        <ele>135.4</ele>
        <time>2024-01-25T14:21:32Z</time>
      </trkpt>
      <trkpt lat="48.78336" lon="-1.35401">
        <ele>135.5</ele>
        <time>2024-01-25T14:21:33Z</time>
      </trkpt>
      <trkpt lat="48.78333" lon="-1.35408">
        <ele>135.6</ele>
        <time>2024-01-25T14:21:34Z</time>
      </trkpt>
      <trkpt lat="48.7833" lon="-1.35414">
        <ele>135.7</ele>
        <time>2024-01-25T14:21:35Z</time>
      </trkpt>
      <trkpt lat="48.78327" lon="-1.3542">
        <ele>135.8</ele>
        <time>2024-01-25T14:21:36Z</time>
      </trkpt>
      <trkpt lat="48.78324" lon="-1.35427">
        <ele>135.8</ele>
        <time>2024-01-25T14:21:37Z</time>
      </trkpt>
      <trkpt lat="48.78321" lon="-1.35433">
        <ele>135.9</ele>
        <time>2024-01-25T14:21:38Z</time>
      </trkpt>
      <trkpt lat="48.78318" lon="-1.35439">
        <ele>136</ele>
        <time>2024-01-25T14:21:39Z</time>
      </trkpt>
      <trkpt lat="48.78315" lon="-1.35445">
        <ele>136.1</ele>
        <time>2024-01-25T14:21:40Z</time>
      </trkpt>
      <trkpt lat="48.78312" lon="-1.35451">
        <ele>136.2</ele>
        <time>2024-01-25T14:21:41Z</time>
      </trkpt>
      <trkpt lat="48.7831" lon="-1.35457">
        <ele>136.2</ele>
        <time>2024-01-25T14:21:42Z</time>
      </trkpt>
      <trkpt lat="48.78307" lon="-1.35463">
        <ele>136.3</ele>
        <time>2024-01-25T14:21:43Z</time>
      </trkpt>
      <trkpt lat="48.78305" lon="-1.35468">
        <ele>136.3</ele>
        <time>2024-01-25T14:21:44Z</time>
      </trkpt>
      <trkpt lat="48.78302" lon="-1.35474">
        <ele>136.4</ele>
        <time>2024-01-25T14:21:45Z</time>
      </trkpt>
      <trkpt lat="48.78299" lon="-1.3548">
        <ele>136.4</ele>
        <time>2024-01-25T14:21:46Z</time>
      </trkpt>
      <trkpt lat="48.78297" lon="-1.35487">
        <ele>136.5</ele>
        <time>2024-01-25T14:21:47Z</time>
      </trkpt>
      <trkpt lat="48.78295" lon="-1.35494">
        <ele>136.5</ele>
        <time>2024-01-25T14:21:48Z</time>
      </trkpt>
      <trkpt lat="48.78292" lon="-1.35501">
        <ele>136.5</ele>
        <time>2024-01-25T14:21:49Z</time>
      </trkpt>
      <trkpt lat="48.7829" lon="-1.35509">
        <ele>136.6</ele>
        <time>2024-01-25T14:21:50Z</time>
      </trkpt>
      <trkpt lat="48.78288" lon="-1.35516">
        <ele>136.6</ele>
        <time>2024-01-25T14:21:51Z</time>
      </trkpt>
      <trkpt lat="48.78285" lon="-1.35523">
        <ele>136.7</ele>
        <time>2024-01-25T14:21:52Z</time>
      </trkpt>
      <trkpt lat="48.78283" lon="-1.35529">
        <ele>136.7</ele>
        <time>2024-01-25T14:21:53Z</time>
      </trkpt>
      <trkpt lat="48.7828" lon="-1.35535">
        <ele>136.8</ele>
        <time>2024-01-25T14:21:54Z</time>
      </trkpt>
      <trkpt lat="48.78277" lon="-1.35541">
        <ele>136.9</ele>
        <time>2024-01-25T14:21:55Z</time>
      </trkpt>
      <trkpt lat="48.78274" lon="-1.35547">
        <ele>136.9</ele>
        <time>2024-01-25T14:21:56Z</time>
      </trkpt>
      <trkpt lat="48.78271" lon="-1.35553">
        <ele>137</ele>
        <time>2024-01-25T14:21:57Z</time>
      </trkpt>
      <trkpt lat="48.78268" lon="-1.35558">
        <ele>137</ele>
        <time>2024-01-25T14:21:58Z</time>
      </trkpt>
      <trkpt lat="48.78266" lon="-1.35564">
        <ele>137.1</ele>
        <time>2024-01-25T14:21:59Z</time>
      </trkpt>
      <trkpt lat="48.78263" lon="-1.3557">
        <ele>137.1</ele>
        <time>2024-01-25T14:22:00Z</time>
      </trkpt>
      <trkpt lat="48.7826" lon="-1.35576">
        <ele>137.1</ele>
        <time>2024-01-25T14:22:01Z</time>
      </trkpt>
      <trkpt lat="48.78258" lon="-1.35582">
        <ele>137.2</ele>
        <time>2024-01-25T14:22:02Z</time>
      </trkpt>
      <trkpt lat="48.78255" lon="-1.35588">
        <ele>137.2</ele>
        <time>2024-01-25T14:22:03Z</time>
      </trkpt>
      <trkpt lat="48.78252" lon="-1.35595">
        <ele>137.3</ele>
        <time>2024-01-25T14:22:04Z</time>
      </trkpt>
      <trkpt lat="48.78249" lon="-1.35601">
        <ele>137.3</ele>
        <time>2024-01-25T14:22:05Z</time>
      </trkpt>
      <trkpt lat="48.78246" lon="-1.35608">
        <ele>137.3</ele>
        <time>2024-01-25T14:22:06Z</time>
      </trkpt>
      <trkpt lat="48.78243" lon="-1.35615">
        <ele>137.4</ele>
        <time>2024-01-25T14:22:07Z</time>
      </trkpt>
      <trkpt lat="48.7824" lon="-1.35621">
        <ele>137.4</ele>
        <time>2024-01-25T14:22:08Z</time>
      </trkpt>
      <trkpt lat="48.78237" lon="-1.35627">
        <ele>137.4</ele>
        <time>2024-01-25T14:22:09Z</time>
      </trkpt>
      <trkpt lat="48.78234" lon="-1.35632">
        <ele>137.4</ele>
        <time>2024-01-25T14:22:10Z</time>
      </trkpt>
      <trkpt lat="48.78231" lon="-1.35638">
        <ele>137.4</ele>
        <time>2024-01-25T14:22:11Z</time>
      </trkpt>
      <trkpt lat="48.78228" lon="-1.35644">
        <ele>137.5</ele>
        <time>2024-01-25T14:22:12Z</time>
      </trkpt>
      <trkpt lat="48.78225" lon="-1.3565">
        <ele>137.5</ele>
        <time>2024-01-25T14:22:13Z</time>
      </trkpt>
      <trkpt lat="48.78222" lon="-1.35655">
        <ele>137.5</ele>
        <time>2024-01-25T14:22:14Z</time>
      </trkpt>
      <trkpt lat="48.78219" lon="-1.35661">
        <ele>137.5</ele>
        <time>2024-01-25T14:22:15Z</time>
      </trkpt>
      <trkpt lat="48.78216" lon="-1.35667">
        <ele>137.5</ele>
        <time>2024-01-25T14:22:16Z</time>
      </trkpt>
      <trkpt lat="48.78212" lon="-1.35673">
        <ele>137.5</ele>
        <time>2024-01-25T14:22:17Z</time>
      </trkpt>
      <trkpt lat="48.78209" lon="-1.35679">
        <ele>137.4</ele>
        <time>2024-01-25T14:22:18Z</time>
      </trkpt>
      <trkpt lat="48.78206" lon="-1.35685">
        <ele>137.4</ele>
        <time>2024-01-25T14:22:19Z</time>
      </trkpt>
      <trkpt lat="48.78203" lon="-1.35691">
        <ele>137.3</ele>
        <time>2024-01-25T14:22:20Z</time>
      </trkpt>
      <trkpt lat="48.782" lon="-1.35698">
        <ele>137.2</ele>
        <time>2024-01-25T14:22:21Z</time>
      </trkpt>
      <trkpt lat="48.78196" lon="-1.35704">
        <ele>137.1</ele>
        <time>2024-01-25T14:22:22Z</time>
      </trkpt>
      <trkpt lat="48.78193" lon="-1.3571">
        <ele>137</ele>
        <time>2024-01-25T14:22:23Z</time>
      </trkpt>
      <trkpt lat="48.78189" lon="-1.35717">
        <ele>136.9</ele>
        <time>2024-01-25T14:22:24Z</time>
      </trkpt>
      <trkpt lat="48.78185" lon="-1.35723">
        <ele>136.8</ele>
        <time>2024-01-25T14:22:25Z</time>
      </trkpt>
      <trkpt lat="48.78182" lon="-1.3573">
        <ele>136.6</ele>
        <time>2024-01-25T14:22:26Z</time>
      </trkpt>
      <trkpt lat="48.78178" lon="-1.35736">
        <ele>136.5</ele>
        <time>2024-01-25T14:22:27Z</time>
      </trkpt>
      <trkpt lat="48.78175" lon="-1.35743">
        <ele>136.4</ele>
        <time>2024-01-25T14:22:28Z</time>
      </trkpt>
      <trkpt lat="48.78171" lon="-1.35749">
        <ele>136.3</ele>
        <time>2024-01-25T14:22:29Z</time>
      </trkpt>
      <trkpt lat="48.78167" lon="-1.35755">
        <ele>136.2</ele>
        <time>2024-01-25T14:22:30Z</time>
      </trkpt>
      <trkpt lat="48.78164" lon="-1.35762">
        <ele>136.1</ele>
        <time>2024-01-25T14:22:31Z</time>
      </trkpt>
      <trkpt lat="48.7816" lon="-1.35769">
        <ele>136</ele>
        <time>2024-01-25T14:22:32Z</time>
      </trkpt>
      <trkpt lat="48.78156" lon="-1.35776">
        <ele>135.9</ele>
        <time>2024-01-25T14:22:33Z</time>
      </trkpt>
      <trkpt lat="48.78152" lon="-1.35783">
        <ele>135.8</ele>
        <time>2024-01-25T14:22:34Z</time>
      </trkpt>
      <trkpt lat="48.78148" lon="-1.35791">
        <ele>135.7</ele>
        <time>2024-01-25T14:22:35Z</time>
      </trkpt>
      <trkpt lat="48.78144" lon="-1.35798">
        <ele>135.7</ele>
        <time>2024-01-25T14:22:36Z</time>
      </trkpt>
      <trkpt lat="48.78141" lon="-1.35804">
        <ele>135.6</ele>
        <time>2024-01-25T14:22:37Z</time>
      </trkpt>
      <trkpt lat="48.78137" lon="-1.3581">
        <ele>135.5</ele>
        <time>2024-01-25T14:22:38Z</time>
      </trkpt>
      <trkpt lat="48.78132" lon="-1.35816">
        <ele>135.4</ele>
        <time>2024-01-25T14:22:39Z</time>
      </trkpt>
      <trkpt lat="48.78128" lon="-1.35822">
        <ele>135.2</ele>
        <time>2024-01-25T14:22:40Z</time>
      </trkpt>
      <trkpt lat="48.78124" lon="-1.35827">
        <ele>135.1</ele>
        <time>2024-01-25T14:22:41Z</time>
      </trkpt>
      <trkpt lat="48.78119" lon="-1.35833">
        <ele>135</ele>
        <time>2024-01-25T14:22:42Z</time>
      </trkpt>
      <trkpt lat="48.78114" lon="-1.35838">
        <ele>134.8</ele>
        <time>2024-01-25T14:22:43Z</time>
      </trkpt>
      <trkpt lat="48.7811" lon="-1.35844">
        <ele>134.7</ele>
        <time>2024-01-25T14:22:44Z</time>
      </trkpt>
      <trkpt lat="48.78106" lon="-1.3585">
        <ele>134.6</ele>
        <time>2024-01-25T14:22:45Z</time>
      </trkpt>
      <trkpt lat="48.78101" lon="-1.35855">
        <ele>134.4</ele>
        <time>2024-01-25T14:22:46Z</time>
      </trkpt>
      <trkpt lat="48.78097" lon="-1.35861">
        <ele>134.3</ele>
        <time>2024-01-25T14:22:47Z</time>
      </trkpt>
      <trkpt lat="48.78093" lon="-1.35866">
        <ele>134.2</ele>
        <time>2024-01-25T14:22:48Z</time>
      </trkpt>
      <trkpt lat="48.78088" lon="-1.35871">
        <ele>134</ele>
        <time>2024-01-25T14:22:49Z</time>
      </trkpt>
      <trkpt lat="48.78083" lon="-1.35877">
        <ele>133.9</ele>
        <time>2024-01-25T14:22:50Z</time>
      </trkpt>
      <trkpt lat="48.78079" lon="-1.35883">
        <ele>133.8</ele>
        <time>2024-01-25T14:22:51Z</time>
      </trkpt>
      <trkpt lat="48.78075" lon="-1.3589">
        <ele>133.6</ele>
        <time>2024-01-25T14:22:52Z</time>
      </trkpt>
      <trkpt lat="48.7807" lon="-1.35897">
        <ele>133.4</ele>
        <time>2024-01-25T14:22:53Z</time>
      </trkpt>
      <trkpt lat="48.78065" lon="-1.35904">
        <ele>133.3</ele>
        <time>2024-01-25T14:22:54Z</time>
      </trkpt>
      <trkpt lat="48.78061" lon="-1.3591">
        <ele>133.1</ele>
        <time>2024-01-25T14:22:55Z</time>
      </trkpt>
      <trkpt lat="48.78056" lon="-1.35917">
        <ele>133</ele>
        <time>2024-01-25T14:22:56Z</time>
      </trkpt>
      <trkpt lat="48.78051" lon="-1.35923">
        <ele>132.8</ele>
        <time>2024-01-25T14:22:57Z</time>
      </trkpt>
      <trkpt lat="48.78047" lon="-1.35929">
        <ele>132.7</ele>
        <time>2024-01-25T14:22:58Z</time>
      </trkpt>
      <trkpt lat="48.78042" lon="-1.35935">
        <ele>132.5</ele>
        <time>2024-01-25T14:22:59Z</time>
      </trkpt>
      <trkpt lat="48.78037" lon="-1.35941">
        <ele>132.4</ele>
        <time>2024-01-25T14:23:00Z</time>
      </trkpt>
      <trkpt lat="48.78032" lon="-1.35947">
        <ele>132.3</ele>
        <time>2024-01-25T14:23:01Z</time>
      </trkpt>
      <trkpt lat="48.78027" lon="-1.35953">
        <ele>132.1</ele>
        <time>2024-01-25T14:23:02Z</time>
      </trkpt>
      <trkpt lat="48.78023" lon="-1.35958">
        <ele>132</ele>
        <time>2024-01-25T14:23:03Z</time>
      </trkpt>
      <trkpt lat="48.78018" lon="-1.35965">
        <ele>131.8</ele>
        <time>2024-01-25T14:23:04Z</time>
      </trkpt>
      <trkpt lat="48.78013" lon="-1.35971">
        <ele>131.7</ele>
        <time>2024-01-25T14:23:05Z</time>
      </trkpt>
      <trkpt lat="48.78009" lon="-1.35978">
        <ele>131.5</ele>
        <time>2024-01-25T14:23:06Z</time>
      </trkpt>
      <trkpt lat="48.78004" lon="-1.35984">
        <ele>131.4</ele>
        <time>2024-01-25T14:23:07Z</time>
      </trkpt>
      <trkpt lat="48.78" lon="-1.35991">
        <ele>131.2</ele>
        <time>2024-01-25T14:23:08Z</time>
      </trkpt>
      <trkpt lat="48.77995" lon="-1.35998">
        <ele>131.1</ele>
        <time>2024-01-25T14:23:09Z</time>
      </trkpt>
      <trkpt lat="48.77991" lon="-1.36004">
        <ele>130.9</ele>
        <time>2024-01-25T14:23:10Z</time>
      </trkpt>
      <trkpt lat="48.77986" lon="-1.3601">
        <ele>130.8</ele>
        <time>2024-01-25T14:23:11Z</time>
      </trkpt>
      <trkpt lat="48.77981" lon="-1.36015">
        <ele>130.7</ele>
        <time>2024-01-25T14:23:12Z</time>
      </trkpt>
      <trkpt lat="48.77977" lon="-1.36021">
        <ele>130.6</ele>
        <time>2024-01-25T14:23:13Z</time>
      </trkpt>
      <trkpt lat="48.77972" lon="-1.36026">
        <ele>130.5</ele>
        <time>2024-01-25T14:23:14Z</time>
      </trkpt>
      <trkpt lat="48.77968" lon="-1.36032">
        <ele>130.4</ele>
        <time>2024-01-25T14:23:15Z</time>
      </trkpt>
      <trkpt lat="48.77963" lon="-1.36037">
        <ele>130.3</ele>
        <time>2024-01-25T14:23:16Z</time>
      </trkpt>
      <trkpt lat="48.77958" lon="-1.36043">
        <ele>130.2</ele>
        <time>2024-01-25T14:23:17Z</time>
      </trkpt>
      <trkpt lat="48.77953" lon="-1.36048">
        <ele>130.1</ele>
        <time>2024-01-25T14:23:18Z</time>
      </trkpt>
      <trkpt lat="48.77948" lon="-1.36053">
        <ele>129.9</ele>
        <time>2024-01-25T14:23:19Z</time>
      </trkpt>
      <trkpt lat="48.77943" lon="-1.36058">
        <ele>129.8</ele>
        <time>2024-01-25T14:23:20Z</time>
      </trkpt>
      <trkpt lat="48.77939" lon="-1.36063">
        <ele>129.6</ele>
        <time>2024-01-25T14:23:21Z</time>
      </trkpt>
      <trkpt lat="48.77934" lon="-1.36068">
        <ele>129.5</ele>
        <time>2024-01-25T14:23:22Z</time>
      </trkpt>
      <trkpt lat="48.7793" lon="-1.36073">
        <ele>129.4</ele>
        <time>2024-01-25T14:23:23Z</time>
      </trkpt>
      <trkpt lat="48.77925" lon="-1.36078">
        <ele>129.3</ele>
        <time>2024-01-25T14:23:24Z</time>
      </trkpt>
      <trkpt lat="48.7792" lon="-1.36084">
        <ele>129.2</ele>
        <time>2024-01-25T14:23:25Z</time>
      </trkpt>
      <trkpt lat="48.77916" lon="-1.3609">
        <ele>129</ele>
        <time>2024-01-25T14:23:26Z</time>
      </trkpt>
      <trkpt lat="48.77911" lon="-1.36096">
        <ele>128.8</ele>
        <time>2024-01-25T14:23:27Z</time>
      </trkpt>
      <trkpt lat="48.77905" lon="-1.36103">
        <ele>128.7</ele>
        <time>2024-01-25T14:23:28Z</time>
      </trkpt>
      <trkpt lat="48.779" lon="-1.36109">
        <ele>128.5</ele>
        <time>2024-01-25T14:23:29Z</time>
      </trkpt>
      <trkpt lat="48.77895" lon="-1.36116">
        <ele>128.3</ele>
        <time>2024-01-25T14:23:30Z</time>
      </trkpt>
      <trkpt lat="48.7789" lon="-1.36122">
        <ele>128.1</ele>
        <time>2024-01-25T14:23:31Z</time>
      </trkpt>
      <trkpt lat="48.77885" lon="-1.36129">
        <ele>127.9</ele>
        <time>2024-01-25T14:23:32Z</time>
      </trkpt>
      <trkpt lat="48.77879" lon="-1.36136">
        <ele>127.8</ele>
        <time>2024-01-25T14:23:33Z</time>
      </trkpt>
      <trkpt lat="48.77874" lon="-1.36143">
        <ele>127.6</ele>
        <time>2024-01-25T14:23:34Z</time>
      </trkpt>
      <trkpt lat="48.77869" lon="-1.3615">
        <ele>127.4</ele>
        <time>2024-01-25T14:23:35Z</time>
      </trkpt>
      <trkpt lat="48.77864" lon="-1.36158">
        <ele>127.2</ele>
        <time>2024-01-25T14:23:36Z</time>
      </trkpt>
      <trkpt lat="48.77858" lon="-1.36166">
        <ele>126.9</ele>
        <time>2024-01-25T14:23:37Z</time>
      </trkpt>
      <trkpt lat="48.77852" lon="-1.36174">
        <ele>126.7</ele>
        <time>2024-01-25T14:23:38Z</time>
      </trkpt>
      <trkpt lat="48.77846" lon="-1.36182">
        <ele>126.4</ele>
        <time>2024-01-25T14:23:39Z</time>
      </trkpt>
      <trkpt lat="48.7784" lon="-1.36191">
        <ele>126.1</ele>
        <time>2024-01-25T14:23:40Z</time>
      </trkpt>
      <trkpt lat="48.77834" lon="-1.362">
        <ele>125.9</ele>
        <time>2024-01-25T14:23:41Z</time>
      </trkpt>
      <trkpt lat="48.77828" lon="-1.36209">
        <ele>125.6</ele>
        <time>2024-01-25T14:23:42Z</time>
      </trkpt>
      <trkpt lat="48.77821" lon="-1.36217">
        <ele>125.4</ele>
        <time>2024-01-25T14:23:43Z</time>
      </trkpt>
      <trkpt lat="48.77815" lon="-1.36225">
        <ele>125.1</ele>
        <time>2024-01-25T14:23:44Z</time>
      </trkpt>
      <trkpt lat="48.77809" lon="-1.36233">
        <ele>124.9</ele>
        <time>2024-01-25T14:23:45Z</time>
      </trkpt>
      <trkpt lat="48.77803" lon="-1.36241">
        <ele>124.6</ele>
        <time>2024-01-25T14:23:46Z</time>
      </trkpt>
      <trkpt lat="48.77796" lon="-1.3625">
        <ele>124.2</ele>
        <time>2024-01-25T14:23:47Z</time>
      </trkpt>
      <trkpt lat="48.7779" lon="-1.36258">
        <ele>123.9</ele>
        <time>2024-01-25T14:23:48Z</time>
      </trkpt>
      <trkpt lat="48.77784" lon="-1.36268">
        <ele>123.6</ele>
        <time>2024-01-25T14:23:49Z</time>
      </trkpt>
      <trkpt lat="48.77778" lon="-1.36277">
        <ele>123.3</ele>
        <time>2024-01-25T14:23:50Z</time>
      </trkpt>
      <trkpt lat="48.77771" lon="-1.36285">
        <ele>123</ele>
        <time>2024-01-25T14:23:51Z</time>
      </trkpt>
      <trkpt lat="48.77764" lon="-1.36293">
        <ele>122.7</ele>
        <time>2024-01-25T14:23:52Z</time>
      </trkpt>
      <trkpt lat="48.77758" lon="-1.36302">
        <ele>122.4</ele>
        <time>2024-01-25T14:23:53Z</time>
      </trkpt>
      <trkpt lat="48.77751" lon="-1.36311">
        <ele>122.2</ele>
        <time>2024-01-25T14:23:54Z</time>
      </trkpt>
      <trkpt lat="48.77745" lon="-1.36319">
        <ele>121.9</ele>
        <time>2024-01-25T14:23:55Z</time>
      </trkpt>
      <trkpt lat="48.77738" lon="-1.36327">
        <ele>121.7</ele>
        <time>2024-01-25T14:23:56Z</time>
      </trkpt>
      <trkpt lat="48.77732" lon="-1.36335">
        <ele>121.5</ele>
        <time>2024-01-25T14:23:57Z</time>
      </trkpt>
      <trkpt lat="48.77726" lon="-1.36344">
        <ele>121.2</ele>
        <time>2024-01-25T14:23:58Z</time>
      </trkpt>
      <trkpt lat="48.77719" lon="-1.36353">
        <ele>120.9</ele>
        <time>2024-01-25T14:23:59Z</time>
      </trkpt>
      <trkpt lat="48.77713" lon="-1.36362">
        <ele>120.6</ele>
        <time>2024-01-25T14:24:00Z</time>
      </trkpt>
      <trkpt lat="48.77706" lon="-1.36371">
        <ele>120.4</ele>
        <time>2024-01-25T14:24:01Z</time>
      </trkpt>
      <trkpt lat="48.77699" lon="-1.36381">
        <ele>120.1</ele>
        <time>2024-01-25T14:24:02Z</time>
      </trkpt>
      <trkpt lat="48.77692" lon="-1.3639">
        <ele>119.9</ele>
        <time>2024-01-25T14:24:03Z</time>
      </trkpt>
      <trkpt lat="48.77686" lon="-1.36399">
        <ele>119.7</ele>
        <time>2024-01-25T14:24:04Z</time>
      </trkpt>
      <trkpt lat="48.77679" lon="-1.36409">
        <ele>119.4</ele>
        <time>2024-01-25T14:24:05Z</time>
      </trkpt>
      <trkpt lat="48.77673" lon="-1.36418">
        <ele>119.2</ele>
        <time>2024-01-25T14:24:06Z</time>
      </trkpt>
      <trkpt lat="48.77666" lon="-1.36427">
        <ele>119</ele>
        <time>2024-01-25T14:24:07Z</time>
      </trkpt>
      <trkpt lat="48.7766" lon="-1.36437">
        <ele>118.8</ele>
        <time>2024-01-25T14:24:08Z</time>
      </trkpt>
      <trkpt lat="48.77655" lon="-1.36447">
        <ele>118.6</ele>
        <time>2024-01-25T14:24:09Z</time>
      </trkpt>
      <trkpt lat="48.77649" lon="-1.36457">
        <ele>118.5</ele>
        <time>2024-01-25T14:24:10Z</time>
      </trkpt>
      <trkpt lat="48.77645" lon="-1.36468">
        <ele>118.3</ele>
        <time>2024-01-25T14:24:11Z</time>
      </trkpt>
      <trkpt lat="48.7764" lon="-1.36478">
        <ele>118.1</ele>
        <time>2024-01-25T14:24:12Z</time>
      </trkpt>
      <trkpt lat="48.77636" lon="-1.36488">
        <ele>117.9</ele>
        <time>2024-01-25T14:24:13Z</time>
      </trkpt>
      <trkpt lat="48.77632" lon="-1.36499">
        <ele>117.8</ele>
        <time>2024-01-25T14:24:14Z</time>
      </trkpt>
      <trkpt lat="48.77628" lon="-1.3651">
        <ele>117.6</ele>
        <time>2024-01-25T14:24:15Z</time>
      </trkpt>
      <trkpt lat="48.77624" lon="-1.3652">
        <ele>117.5</ele>
        <time>2024-01-25T14:24:16Z</time>
      </trkpt>
      <trkpt lat="48.7762" lon="-1.36531">
        <ele>117.4</ele>
        <time>2024-01-25T14:24:17Z</time>
      </trkpt>
      <trkpt lat="48.77617" lon="-1.36542">
        <ele>117.3</ele>
        <time>2024-01-25T14:24:18Z</time>
      </trkpt>
      <trkpt lat="48.77614" lon="-1.36553">
        <ele>117.2</ele>
        <time>2024-01-25T14:24:19Z</time>
      </trkpt>
      <trkpt lat="48.77611" lon="-1.36564">
        <ele>117.1</ele>
        <time>2024-01-25T14:24:20Z</time>
      </trkpt>
      <trkpt lat="48.77607" lon="-1.36575">
        <ele>117</ele>
        <time>2024-01-25T14:24:21Z</time>
      </trkpt>
      <trkpt lat="48.77604" lon="-1.36585">
        <ele>117</ele>
        <time>2024-01-25T14:24:22Z</time>
      </trkpt>
      <trkpt lat="48.776" lon="-1.36596">
        <ele>116.9</ele>
        <time>2024-01-25T14:24:23Z</time>
      </trkpt>
      <trkpt lat="48.77597" lon="-1.36606">
        <ele>116.9</ele>
        <time>2024-01-25T14:24:24Z</time>
      </trkpt>
      <trkpt lat="48.77594" lon="-1.36616">
        <ele>116.9</ele>
        <time>2024-01-25T14:24:25Z</time>
      </trkpt>
      <trkpt lat="48.77591" lon="-1.36625">
        <ele>116.9</ele>
        <time>2024-01-25T14:24:26Z</time>
      </trkpt>
      <trkpt lat="48.77588" lon="-1.36635">
        <ele>116.9</ele>
        <time>2024-01-25T14:24:27Z</time>
      </trkpt>
      <trkpt lat="48.77585" lon="-1.36644">
        <ele>116.9</ele>
        <time>2024-01-25T14:24:28Z</time>
      </trkpt>
      <trkpt lat="48.77582" lon="-1.36654">
        <ele>116.9</ele>
        <time>2024-01-25T14:24:29Z</time>
      </trkpt>
      <trkpt lat="48.77579" lon="-1.36663">
        <ele>116.9</ele>
        <time>2024-01-25T14:24:30Z</time>
      </trkpt>
      <trkpt lat="48.77575" lon="-1.36672">
        <ele>117</ele>
        <time>2024-01-25T14:24:31Z</time>
      </trkpt>
      <trkpt lat="48.77572" lon="-1.36681">
        <ele>117</ele>
        <time>2024-01-25T14:24:32Z</time>
      </trkpt>
      <trkpt lat="48.77568" lon="-1.3669">
        <ele>117</ele>
        <time>2024-01-25T14:24:33Z</time>
      </trkpt>
      <trkpt lat="48.77565" lon="-1.36698">
        <ele>117</ele>
        <time>2024-01-25T14:24:34Z</time>
      </trkpt>
      <trkpt lat="48.77562" lon="-1.36707">
        <ele>117</ele>
        <time>2024-01-25T14:24:35Z</time>
      </trkpt>
      <trkpt lat="48.77559" lon="-1.36715">
        <ele>117</ele>
        <time>2024-01-25T14:24:36Z</time>
      </trkpt>
      <trkpt lat="48.77556" lon="-1.36723">
        <ele>116.9</ele>
        <time>2024-01-25T14:24:37Z</time>
      </trkpt>
      <trkpt lat="48.77553" lon="-1.36731">
        <ele>116.9</ele>
        <time>2024-01-25T14:24:38Z</time>
      </trkpt>
      <trkpt lat="48.7755" lon="-1.36738">
        <ele>116.8</ele>
        <time>2024-01-25T14:24:39Z</time>
      </trkpt>
      <trkpt lat="48.77547" lon="-1.36746">
        <ele>116.8</ele>
        <time>2024-01-25T14:24:40Z</time>
      </trkpt>
      <trkpt lat="48.77544" lon="-1.36753">
        <ele>116.7</ele>
        <time>2024-01-25T14:24:41Z</time>
      </trkpt>
      <trkpt lat="48.77542" lon="-1.36761">
        <ele>116.7</ele>
        <time>2024-01-25T14:24:42Z</time>
      </trkpt>
      <trkpt lat="48.7754" lon="-1.36767">
        <ele>116.7</ele>
        <time>2024-01-25T14:24:43Z</time>
      </trkpt>
      <trkpt lat="48.77538" lon="-1.36772">
        <ele>116.7</ele>
        <time>2024-01-25T14:24:44Z</time>
      </trkpt>
      <trkpt lat="48.77536" lon="-1.36777">
        <ele>116.7</ele>
        <time>2024-01-25T14:24:45Z</time>
      </trkpt>
      <trkpt lat="48.77535" lon="-1.36781">
        <ele>116.7</ele>
        <time>2024-01-25T14:24:46Z</time>
      </trkpt>
      <trkpt lat="48.77534" lon="-1.36786">
        <ele>116.7</ele>
        <time>2024-01-25T14:24:47Z</time>
      </trkpt>
      <trkpt lat="48.77533" lon="-1.36791">
        <ele>116.6</ele>
        <time>2024-01-25T14:24:48Z</time>
      </trkpt>
      <trkpt lat="48.77532" lon="-1.36793">
        <ele>116.6</ele>
        <time>2024-01-25T14:24:49Z</time>
      </trkpt>
      <trkpt lat="48.77531" lon="-1.36797">
        <ele>116.6</ele>
        <time>2024-01-25T14:24:50Z</time>
      </trkpt>
      <trkpt lat="48.7753" lon="-1.36798">
        <ele>116.6</ele>
        <time>2024-01-25T14:24:51Z</time>
      </trkpt>
      <trkpt lat="48.77529" lon="-1.36798">
        <ele>116.6</ele>
        <time>2024-01-25T14:24:52Z</time>
      </trkpt>
      <trkpt lat="48.77529" lon="-1.36798">
        <ele>116.6</ele>
        <time>2024-01-25T14:24:53Z</time>
      </trkpt>
      <trkpt lat="48.77528" lon="-1.36797">
        <ele>116.6</ele>
        <time>2024-01-25T14:24:54Z</time>
      </trkpt>
      <trkpt lat="48.77528" lon="-1.36797">
        <ele>116.6</ele>
        <time>2024-01-25T14:24:55Z</time>
      </trkpt>
      <trkpt lat="48.77528" lon="-1.36797">
        <ele>116.6</ele>
        <time>2024-01-25T14:24:56Z</time>
      </trkpt>
      <trkpt lat="48.77528" lon="-1.36797">
        <ele>116.6</ele>
        <time>2024-01-25T14:24:57Z</time>
      </trkpt>
      <trkpt lat="48.77528" lon="-1.36797">
        <ele>116.6</ele>
        <time>2024-01-25T14:24:58Z</time>
      </trkpt>
      <trkpt lat="48.77528" lon="-1.36797">
        <ele>116.6</ele>
        <time>2024-01-25T14:24:59Z</time>
      </trkpt>
      <trkpt lat="48.77528" lon="-1.36797">
        <ele>116.6</ele>
        <time>2024-01-25T14:25:00Z</time>
      </trkpt>
      <trkpt lat="48.77528" lon="-1.36797">
        <ele>116.6</ele>
        <time>2024-01-25T14:25:01Z</time>
      </trkpt>
      <trkpt lat="48.77528" lon="-1.36797">
        <ele>116.6</ele>
        <time>2024-01-25T14:25:02Z</time>
      </trkpt>
      <trkpt lat="48.77528" lon="-1.36797">
        <ele>116.6</ele>
        <time>2024-01-25T14:25:03Z</time>
      </trkpt>
      <trkpt lat="48.77528" lon="-1.36797">
        <ele>116.6</ele>
        <time>2024-01-25T14:25:04Z</time>
      </trkpt>
      <trkpt lat="48.77528" lon="-1.36797">
        <ele>116.6</ele>
        <time>2024-01-25T14:25:05Z</time>
      </trkpt>
      <trkpt lat="48.77528" lon="-1.36797">
        <ele>116.6</ele>
        <time>2024-01-25T14:25:06Z</time>
      </trkpt>
      <trkpt lat="48.77528" lon="-1.36797">
        <ele>116.6</ele>
        <time>2024-01-25T14:25:07Z</time>
      </trkpt>
      <trkpt lat="48.77528" lon="-1.36797">
        <ele>116.6</ele>
        <time>2024-01-25T14:25:08Z</time>
      </trkpt>
      <trkpt lat="48.77528" lon="-1.36797">
        <ele>116.6</ele>
        <time>2024-01-25T14:25:09Z</time>
      </trkpt>
      <trkpt lat="48.77528" lon="-1.36801">
        <ele>116.6</ele>
        <time>2024-01-25T14:25:10Z</time>
      </trkpt>
      <trkpt lat="48.77527" lon="-1.36807">
        <ele>116.6</ele>
        <time>2024-01-25T14:25:11Z</time>
      </trkpt>
      <trkpt lat="48.77526" lon="-1.36809">
        <ele>116.6</ele>
        <time>2024-01-25T14:25:12Z</time>
      </trkpt>
      <trkpt lat="48.77525" lon="-1.36813">
        <ele>116.6</ele>
        <time>2024-01-25T14:25:13Z</time>
      </trkpt>
      <trkpt lat="48.77523" lon="-1.36818">
        <ele>116.3</ele>
        <time>2024-01-25T14:25:14Z</time>
      </trkpt>
      <trkpt lat="48.77521" lon="-1.36824">
        <ele>116</ele>
        <time>2024-01-25T14:25:15Z</time>
      </trkpt>
      <trkpt lat="48.7752" lon="-1.36829">
        <ele>115.7</ele>
        <time>2024-01-25T14:25:16Z</time>
      </trkpt>
      <trkpt lat="48.77518" lon="-1.36835">
        <ele>115.4</ele>
        <time>2024-01-25T14:25:17Z</time>
      </trkpt>
      <trkpt lat="48.77516" lon="-1.3684">
        <ele>115.2</ele>
        <time>2024-01-25T14:25:18Z</time>
      </trkpt>
      <trkpt lat="48.77513" lon="-1.36846">
        <ele>114.8</ele>
        <time>2024-01-25T14:25:19Z</time>
      </trkpt>
      <trkpt lat="48.77511" lon="-1.36852">
        <ele>114.5</ele>
        <time>2024-01-25T14:25:20Z</time>
      </trkpt>
      <trkpt lat="48.77508" lon="-1.36859">
        <ele>114.2</ele>
        <time>2024-01-25T14:25:21Z</time>
      </trkpt>
      <trkpt lat="48.77506" lon="-1.36865">
        <ele>113.9</ele>
        <time>2024-01-25T14:25:22Z</time>
      </trkpt>
      <trkpt lat="48.77503" lon="-1.36873">
        <ele>113.6</ele>
        <time>2024-01-25T14:25:23Z</time>
      </trkpt>
      <trkpt lat="48.77501" lon="-1.3688">
        <ele>113.4</ele>
        <time>2024-01-25T14:25:24Z</time>
      </trkpt>
      <trkpt lat="48.77498" lon="-1.36887">
        <ele>113.1</ele>
        <time>2024-01-25T14:25:25Z</time>
      </trkpt>
      <trkpt lat="48.77494" lon="-1.36893">
        <ele>112.9</ele>
        <time>2024-01-25T14:25:26Z</time>
      </trkpt>
      <trkpt lat="48.7749" lon="-1.36899">
        <ele>112.7</ele>
        <time>2024-01-25T14:25:27Z</time>
      </trkpt>
      <trkpt lat="48.77486" lon="-1.36906">
        <ele>112.5</ele>
        <time>2024-01-25T14:25:28Z</time>
      </trkpt>
      <trkpt lat="48.77482" lon="-1.36912">
        <ele>112.2</ele>
        <time>2024-01-25T14:25:29Z</time>
      </trkpt>
      <trkpt lat="48.77478" lon="-1.36919">
        <ele>112</ele>
        <time>2024-01-25T14:25:30Z</time>
      </trkpt>
      <trkpt lat="48.77474" lon="-1.36927">
        <ele>111.8</ele>
        <time>2024-01-25T14:25:31Z</time>
      </trkpt>
      <trkpt lat="48.7747" lon="-1.36935">
        <ele>111.7</ele>
        <time>2024-01-25T14:25:32Z</time>
      </trkpt>
      <trkpt lat="48.77466" lon="-1.36942">
        <ele>111.6</ele>
        <time>2024-01-25T14:25:33Z</time>
      </trkpt>
      <trkpt lat="48.77461" lon="-1.3695">
        <ele>111.5</ele>
        <time>2024-01-25T14:25:34Z</time>
      </trkpt>
      <trkpt lat="48.77457" lon="-1.36959">
        <ele>111.4</ele>
        <time>2024-01-25T14:25:35Z</time>
      </trkpt>
      <trkpt lat="48.77453" lon="-1.36967">
        <ele>111.4</ele>
        <time>2024-01-25T14:25:36Z</time>
      </trkpt>
      <trkpt lat="48.77448" lon="-1.36976">
        <ele>111.5</ele>
        <time>2024-01-25T14:25:37Z</time>
      </trkpt>
      <trkpt lat="48.77444" lon="-1.36985">
        <ele>111.5</ele>
        <time>2024-01-25T14:25:38Z</time>
      </trkpt>
      <trkpt lat="48.7744" lon="-1.36994">
        <ele>111.6</ele>
        <time>2024-01-25T14:25:39Z</time>
      </trkpt>
      <trkpt lat="48.77435" lon="-1.37003">
        <ele>111.8</ele>
        <time>2024-01-25T14:25:40Z</time>
      </trkpt>
      <trkpt lat="48.77431" lon="-1.37011">
        <ele>112</ele>
        <time>2024-01-25T14:25:41Z</time>
      </trkpt>
      <trkpt lat="48.77427" lon="-1.3702">
        <ele>112.3</ele>
        <time>2024-01-25T14:25:42Z</time>
      </trkpt>
      <trkpt lat="48.77423" lon="-1.37028">
        <ele>112.6</ele>
        <time>2024-01-25T14:25:43Z</time>
      </trkpt>
      <trkpt lat="48.77419" lon="-1.37037">
        <ele>112.9</ele>
        <time>2024-01-25T14:25:44Z</time>
      </trkpt>
      <trkpt lat="48.77416" lon="-1.37045">
        <ele>113.2</ele>
        <time>2024-01-25T14:25:45Z</time>
      </trkpt>
      <trkpt lat="48.77414" lon="-1.37053">
        <ele>113.6</ele>
        <time>2024-01-25T14:25:46Z</time>
      </trkpt>
      <trkpt lat="48.77411" lon="-1.37061">
        <ele>113.9</ele>
        <time>2024-01-25T14:25:47Z</time>
      </trkpt>
      <trkpt lat="48.77408" lon="-1.37068">
        <ele>114.3</ele>
        <time>2024-01-25T14:25:48Z</time>
      </trkpt>
      <trkpt lat="48.77405" lon="-1.37075">
        <ele>114.6</ele>
        <time>2024-01-25T14:25:49Z</time>
      </trkpt>
      <trkpt lat="48.77403" lon="-1.3708">
        <ele>114.9</ele>
        <time>2024-01-25T14:25:50Z</time>
      </trkpt>
      <trkpt lat="48.774" lon="-1.37085">
        <ele>115.1</ele>
        <time>2024-01-25T14:25:51Z</time>
      </trkpt>
      <trkpt lat="48.77397" lon="-1.3709">
        <ele>115.4</ele>
        <time>2024-01-25T14:25:52Z</time>
      </trkpt>
      <trkpt lat="48.77395" lon="-1.37094">
        <ele>115.6</ele>
        <time>2024-01-25T14:25:53Z</time>
      </trkpt>
      <trkpt lat="48.77393" lon="-1.37098">
        <ele>115.8</ele>
        <time>2024-01-25T14:25:54Z</time>
      </trkpt>
      <trkpt lat="48.77391" lon="-1.37102">
        <ele>116</ele>
        <time>2024-01-25T14:25:55Z</time>
      </trkpt>
      <trkpt lat="48.77389" lon="-1.37107">
        <ele>116.2</ele>
        <time>2024-01-25T14:25:56Z</time>
      </trkpt>
      <trkpt lat="48.77386" lon="-1.37112">
        <ele>116.4</ele>
        <time>2024-01-25T14:25:57Z</time>
      </trkpt>
      <trkpt lat="48.77383" lon="-1.37119">
        <ele>116.8</ele>
        <time>2024-01-25T14:25:59Z</time>
      </trkpt>
      <trkpt lat="48.77382" lon="-1.37123">
        <ele>117</ele>
        <time>2024-01-25T14:26:00Z</time>
      </trkpt>
      <trkpt lat="48.77379" lon="-1.37129">
        <ele>117.3</ele>
        <time>2024-01-25T14:26:01Z</time>
      </trkpt>
      <trkpt lat="48.77376" lon="-1.37136">
        <ele>117.7</ele>
        <time>2024-01-25T14:26:02Z</time>
      </trkpt>
      <trkpt lat="48.77374" lon="-1.37142">
        <ele>118</ele>
        <time>2024-01-25T14:26:03Z</time>
      </trkpt>
      <trkpt lat="48.77372" lon="-1.37149">
        <ele>118.3</ele>
        <time>2024-01-25T14:26:04Z</time>
      </trkpt>
      <trkpt lat="48.7737" lon="-1.37155">
        <ele>118.6</ele>
        <time>2024-01-25T14:26:05Z</time>
      </trkpt>
      <trkpt lat="48.77367" lon="-1.37165">
        <ele>119</ele>
        <time>2024-01-25T14:26:06Z</time>
      </trkpt>
      <trkpt lat="48.77365" lon="-1.37172">
        <ele>119.3</ele>
        <time>2024-01-25T14:26:07Z</time>
      </trkpt>
      <trkpt lat="48.77364" lon="-1.37178">
        <ele>119.5</ele>
        <time>2024-01-25T14:26:08Z</time>
      </trkpt>
      <trkpt lat="48.77362" lon="-1.37184">
        <ele>119.8</ele>
        <time>2024-01-25T14:26:09Z</time>
      </trkpt>
      <trkpt lat="48.77361" lon="-1.3719">
        <ele>120</ele>
        <time>2024-01-25T14:26:10Z</time>
      </trkpt>
      <trkpt lat="48.77359" lon="-1.37195">
        <ele>120.2</ele>
        <time>2024-01-25T14:26:12Z</time>
      </trkpt>
      <trkpt lat="48.77357" lon="-1.37203">
        <ele>120.6</ele>
        <time>2024-01-25T14:26:13Z</time>
      </trkpt>
      <trkpt lat="48.77355" lon="-1.37209">
        <ele>120.8</ele>
        <time>2024-01-25T14:26:14Z</time>
      </trkpt>
      <trkpt lat="48.77353" lon="-1.37215">
        <ele>121</ele>
        <time>2024-01-25T14:26:15Z</time>
      </trkpt>
      <trkpt lat="48.77353" lon="-1.37217">
        <ele>121.1</ele>
        <time>2024-01-25T14:26:16Z</time>
      </trkpt>
      <trkpt lat="48.77351" lon="-1.37221">
        <ele>121.3</ele>
        <time>2024-01-25T14:26:17Z</time>
      </trkpt>
      <trkpt lat="48.77349" lon="-1.37226">
        <ele>121.5</ele>
        <time>2024-01-25T14:26:18Z</time>
      </trkpt>
      <trkpt lat="48.77348" lon="-1.37231">
        <ele>121.7</ele>
        <time>2024-01-25T14:26:19Z</time>
      </trkpt>
      <trkpt lat="48.77348" lon="-1.37237">
        <ele>121.9</ele>
        <time>2024-01-25T14:26:20Z</time>
      </trkpt>
      <trkpt lat="48.77347" lon="-1.37239">
        <ele>122</ele>
        <time>2024-01-25T14:26:21Z</time>
      </trkpt>
      <trkpt lat="48.77346" lon="-1.37245">
        <ele>122.2</ele>
        <time>2024-01-25T14:26:22Z</time>
      </trkpt>
      <trkpt lat="48.77345" lon="-1.37251">
        <ele>122.4</ele>
        <time>2024-01-25T14:26:23Z</time>
      </trkpt>
      <trkpt lat="48.77343" lon="-1.37257">
        <ele>122.6</ele>
        <time>2024-01-25T14:26:24Z</time>
      </trkpt>
      <trkpt lat="48.7734" lon="-1.37262">
        <ele>122.8</ele>
        <time>2024-01-25T14:26:25Z</time>
      </trkpt>
      <trkpt lat="48.77339" lon="-1.37269">
        <ele>123</ele>
        <time>2024-01-25T14:26:26Z</time>
      </trkpt>
      <trkpt lat="48.77337" lon="-1.37275">
        <ele>123.2</ele>
        <time>2024-01-25T14:26:27Z</time>
      </trkpt>
      <trkpt lat="48.77336" lon="-1.37281">
        <ele>123.4</ele>
        <time>2024-01-25T14:26:28Z</time>
      </trkpt>
      <trkpt lat="48.77335" lon="-1.37288">
        <ele>123.6</ele>
        <time>2024-01-25T14:26:29Z</time>
      </trkpt>
      <trkpt lat="48.77334" lon="-1.37295">
        <ele>123.8</ele>
        <time>2024-01-25T14:26:30Z</time>
      </trkpt>
      <trkpt lat="48.77333" lon="-1.37301">
        <ele>124</ele>
        <time>2024-01-25T14:26:31Z</time>
      </trkpt>
      <trkpt lat="48.77331" lon="-1.37308">
        <ele>124.2</ele>
        <time>2024-01-25T14:26:32Z</time>
      </trkpt>
      <trkpt lat="48.7733" lon="-1.37313">
        <ele>124.4</ele>
        <time>2024-01-25T14:26:33Z</time>
      </trkpt>
      <trkpt lat="48.77329" lon="-1.3732">
        <ele>124.5</ele>
        <time>2024-01-25T14:26:34Z</time>
      </trkpt>
      <trkpt lat="48.77327" lon="-1.37325">
        <ele>124.7</ele>
        <time>2024-01-25T14:26:35Z</time>
      </trkpt>
      <trkpt lat="48.77325" lon="-1.37332">
        <ele>124.9</ele>
        <time>2024-01-25T14:26:36Z</time>
      </trkpt>
      <trkpt lat="48.77324" lon="-1.37338">
        <ele>125.1</ele>
        <time>2024-01-25T14:26:37Z</time>
      </trkpt>
      <trkpt lat="48.77321" lon="-1.37344">
        <ele>125.3</ele>
        <time>2024-01-25T14:26:38Z</time>
      </trkpt>
      <trkpt lat="48.77319" lon="-1.37349">
        <ele>125.5</ele>
        <time>2024-01-25T14:26:39Z</time>
      </trkpt>
      <trkpt lat="48.77317" lon="-1.37354">
        <ele>125.6</ele>
        <time>2024-01-25T14:26:40Z</time>
      </trkpt>
      <trkpt lat="48.77316" lon="-1.3736">
        <ele>125.8</ele>
        <time>2024-01-25T14:26:41Z</time>
      </trkpt>
      <trkpt lat="48.77314" lon="-1.37367">
        <ele>126</ele>
        <time>2024-01-25T14:26:42Z</time>
      </trkpt>
      <trkpt lat="48.77313" lon="-1.37374">
        <ele>126.2</ele>
        <time>2024-01-25T14:26:43Z</time>
      </trkpt>
      <trkpt lat="48.77311" lon="-1.37383">
        <ele>126.5</ele>
        <time>2024-01-25T14:26:44Z</time>
      </trkpt>
      <trkpt lat="48.77309" lon="-1.37389">
        <ele>126.7</ele>
        <time>2024-01-25T14:26:46Z</time>
      </trkpt>
      <trkpt lat="48.77307" lon="-1.37396">
        <ele>126.9</ele>
        <time>2024-01-25T14:26:47Z</time>
      </trkpt>
      <trkpt lat="48.77305" lon="-1.37401">
        <ele>127.1</ele>
        <time>2024-01-25T14:26:48Z</time>
      </trkpt>
      <trkpt lat="48.77303" lon="-1.37408">
        <ele>127.3</ele>
        <time>2024-01-25T14:26:49Z</time>
      </trkpt>
      <trkpt lat="48.77301" lon="-1.37414">
        <ele>127.5</ele>
        <time>2024-01-25T14:26:50Z</time>
      </trkpt>
      <trkpt lat="48.77299" lon="-1.37419">
        <ele>127.6</ele>
        <time>2024-01-25T14:26:51Z</time>
      </trkpt>
      <trkpt lat="48.77298" lon="-1.37424">
        <ele>127.8</ele>
        <time>2024-01-25T14:26:52Z</time>
      </trkpt>
      <trkpt lat="48.77296" lon="-1.37428">
        <ele>127.9</ele>
        <time>2024-01-25T14:26:53Z</time>
      </trkpt>
      <trkpt lat="48.77294" lon="-1.37433">
        <ele>128.1</ele>
        <time>2024-01-25T14:26:54Z</time>
      </trkpt>
      <trkpt lat="48.77293" lon="-1.37439">
        <ele>128.3</ele>
        <time>2024-01-25T14:26:55Z</time>
      </trkpt>
      <trkpt lat="48.7729" lon="-1.37444">
        <ele>128.4</ele>
        <time>2024-01-25T14:26:56Z</time>
      </trkpt>
      <trkpt lat="48.77289" lon="-1.37451">
        <ele>128.6</ele>
        <time>2024-01-25T14:26:57Z</time>
      </trkpt>
      <trkpt lat="48.77287" lon="-1.37457">
        <ele>128.8</ele>
        <time>2024-01-25T14:26:58Z</time>
      </trkpt>
      <trkpt lat="48.77285" lon="-1.37465">
        <ele>129.1</ele>
        <time>2024-01-25T14:26:59Z</time>
      </trkpt>
      <trkpt lat="48.77283" lon="-1.3747">
        <ele>129.3</ele>
        <time>2024-01-25T14:27:00Z</time>
      </trkpt>
      <trkpt lat="48.77281" lon="-1.37476">
        <ele>129.5</ele>
        <time>2024-01-25T14:27:01Z</time>
      </trkpt>
      <trkpt lat="48.77279" lon="-1.37482">
        <ele>129.7</ele>
        <time>2024-01-25T14:27:02Z</time>
      </trkpt>
      <trkpt lat="48.77277" lon="-1.37488">
        <ele>129.9</ele>
        <time>2024-01-25T14:27:03Z</time>
      </trkpt>
      <trkpt lat="48.77275" lon="-1.37494">
        <ele>130.1</ele>
        <time>2024-01-25T14:27:04Z</time>
      </trkpt>
      <trkpt lat="48.77273" lon="-1.375">
        <ele>130.3</ele>
        <time>2024-01-25T14:27:05Z</time>
      </trkpt>
      <trkpt lat="48.77271" lon="-1.37509">
        <ele>130.5</ele>
        <time>2024-01-25T14:27:06Z</time>
      </trkpt>
      <trkpt lat="48.77269" lon="-1.37517">
        <ele>130.6</ele>
        <time>2024-01-25T14:27:07Z</time>
      </trkpt>
      <trkpt lat="48.77266" lon="-1.37524">
        <ele>130.8</ele>
        <time>2024-01-25T14:27:08Z</time>
      </trkpt>
      <trkpt lat="48.77265" lon="-1.37531">
        <ele>130.9</ele>
        <time>2024-01-25T14:27:09Z</time>
      </trkpt>
      <trkpt lat="48.77263" lon="-1.37538">
        <ele>131.1</ele>
        <time>2024-01-25T14:27:10Z</time>
      </trkpt>
      <trkpt lat="48.77261" lon="-1.37546">
        <ele>131.2</ele>
        <time>2024-01-25T14:27:11Z</time>
      </trkpt>
      <trkpt lat="48.77259" lon="-1.37554">
        <ele>131.3</ele>
        <time>2024-01-25T14:27:12Z</time>
      </trkpt>
      <trkpt lat="48.77257" lon="-1.37561">
        <ele>131.4</ele>
        <time>2024-01-25T14:27:13Z</time>
      </trkpt>
      <trkpt lat="48.77255" lon="-1.37569">
        <ele>131.5</ele>
        <time>2024-01-25T14:27:14Z</time>
      </trkpt>
      <trkpt lat="48.77252" lon="-1.37576">
        <ele>131.6</ele>
        <time>2024-01-25T14:27:15Z</time>
      </trkpt>
      <trkpt lat="48.7725" lon="-1.37583">
        <ele>131.7</ele>
        <time>2024-01-25T14:27:16Z</time>
      </trkpt>
      <trkpt lat="48.77248" lon="-1.37589">
        <ele>131.8</ele>
        <time>2024-01-25T14:27:17Z</time>
      </trkpt>
      <trkpt lat="48.77246" lon="-1.37596">
        <ele>131.8</ele>
        <time>2024-01-25T14:27:18Z</time>
      </trkpt>
      <trkpt lat="48.77244" lon="-1.37604">
        <ele>131.9</ele>
        <time>2024-01-25T14:27:19Z</time>
      </trkpt>
      <trkpt lat="48.77241" lon="-1.37612">
        <ele>132</ele>
        <time>2024-01-25T14:27:20Z</time>
      </trkpt>
      <trkpt lat="48.77238" lon="-1.37619">
        <ele>132.1</ele>
        <time>2024-01-25T14:27:21Z</time>
      </trkpt>
      <trkpt lat="48.77235" lon="-1.37627">
        <ele>132.2</ele>
        <time>2024-01-25T14:27:22Z</time>
      </trkpt>
      <trkpt lat="48.77233" lon="-1.37635">
        <ele>132.3</ele>
        <time>2024-01-25T14:27:23Z</time>
      </trkpt>
      <trkpt lat="48.77231" lon="-1.37644">
        <ele>132.4</ele>
        <time>2024-01-25T14:27:24Z</time>
      </trkpt>
      <trkpt lat="48.77229" lon="-1.37652">
        <ele>132.5</ele>
        <time>2024-01-25T14:27:25Z</time>
      </trkpt>
      <trkpt lat="48.77227" lon="-1.37661">
        <ele>132.6</ele>
        <time>2024-01-25T14:27:26Z</time>
      </trkpt>
      <trkpt lat="48.77224" lon="-1.37669">
        <ele>132.6</ele>
        <time>2024-01-25T14:27:27Z</time>
      </trkpt>
      <trkpt lat="48.77222" lon="-1.37677">
        <ele>132.7</ele>
        <time>2024-01-25T14:27:28Z</time>
      </trkpt>
      <trkpt lat="48.77219" lon="-1.37685">
        <ele>132.8</ele>
        <time>2024-01-25T14:27:29Z</time>
      </trkpt>
      <trkpt lat="48.77217" lon="-1.37693">
        <ele>132.8</ele>
        <time>2024-01-25T14:27:30Z</time>
      </trkpt>
      <trkpt lat="48.77215" lon="-1.37701">
        <ele>132.8</ele>
        <time>2024-01-25T14:27:31Z</time>
      </trkpt>
      <trkpt lat="48.77212" lon="-1.37709">
        <ele>132.9</ele>
        <time>2024-01-25T14:27:32Z</time>
      </trkpt>
      <trkpt lat="48.7721" lon="-1.37717">
        <ele>132.9</ele>
        <time>2024-01-25T14:27:33Z</time>
      </trkpt>
      <trkpt lat="48.77207" lon="-1.37725">
        <ele>132.9</ele>
        <time>2024-01-25T14:27:34Z</time>
      </trkpt>
      <trkpt lat="48.77204" lon="-1.37734">
        <ele>132.8</ele>
        <time>2024-01-25T14:27:35Z</time>
      </trkpt>
      <trkpt lat="48.77201" lon="-1.37742">
        <ele>132.8</ele>
        <time>2024-01-25T14:27:36Z</time>
      </trkpt>
      <trkpt lat="48.77198" lon="-1.3775">
        <ele>132.7</ele>
        <time>2024-01-25T14:27:37Z</time>
      </trkpt>
      <trkpt lat="48.77195" lon="-1.37758">
        <ele>132.7</ele>
        <time>2024-01-25T14:27:38Z</time>
      </trkpt>
      <trkpt lat="48.77191" lon="-1.37765">
        <ele>132.6</ele>
        <time>2024-01-25T14:27:39Z</time>
      </trkpt>
      <trkpt lat="48.77187" lon="-1.37773">
        <ele>132.5</ele>
        <time>2024-01-25T14:27:40Z</time>
      </trkpt>
      <trkpt lat="48.77183" lon="-1.37781">
        <ele>132.4</ele>
        <time>2024-01-25T14:27:41Z</time>
      </trkpt>
      <trkpt lat="48.77179" lon="-1.37789">
        <ele>132.2</ele>
        <time>2024-01-25T14:27:42Z</time>
      </trkpt>
      <trkpt lat="48.77175" lon="-1.37798">
        <ele>132.1</ele>
        <time>2024-01-25T14:27:43Z</time>
      </trkpt>
      <trkpt lat="48.77171" lon="-1.37806">
        <ele>132</ele>
        <time>2024-01-25T14:27:44Z</time>
      </trkpt>
      <trkpt lat="48.77166" lon="-1.37814">
        <ele>131.8</ele>
        <time>2024-01-25T14:27:45Z</time>
      </trkpt>
      <trkpt lat="48.77162" lon="-1.37823">
        <ele>131.7</ele>
        <time>2024-01-25T14:27:46Z</time>
      </trkpt>
      <trkpt lat="48.77157" lon="-1.37832">
        <ele>131.5</ele>
        <time>2024-01-25T14:27:47Z</time>
      </trkpt>
      <trkpt lat="48.77153" lon="-1.37841">
        <ele>131.4</ele>
        <time>2024-01-25T14:27:48Z</time>
      </trkpt>
      <trkpt lat="48.77149" lon="-1.3785">
        <ele>131.2</ele>
        <time>2024-01-25T14:27:49Z</time>
      </trkpt>
      <trkpt lat="48.77144" lon="-1.37859">
        <ele>131.1</ele>
        <time>2024-01-25T14:27:50Z</time>
      </trkpt>
      <trkpt lat="48.77139" lon="-1.37868">
        <ele>131</ele>
        <time>2024-01-25T14:27:51Z</time>
      </trkpt>
      <trkpt lat="48.77135" lon="-1.37877">
        <ele>130.9</ele>
        <time>2024-01-25T14:27:52Z</time>
      </trkpt>
      <trkpt lat="48.7713" lon="-1.37886">
        <ele>130.8</ele>
        <time>2024-01-25T14:27:53Z</time>
      </trkpt>
      <trkpt lat="48.77125" lon="-1.37894">
        <ele>130.8</ele>
        <time>2024-01-25T14:27:54Z</time>
      </trkpt>
      <trkpt lat="48.77121" lon="-1.37902">
        <ele>130.7</ele>
        <time>2024-01-25T14:27:55Z</time>
      </trkpt>
      <trkpt lat="48.77116" lon="-1.3791">
        <ele>130.6</ele>
        <time>2024-01-25T14:27:56Z</time>
      </trkpt>
      <trkpt lat="48.77111" lon="-1.37918">
        <ele>130.6</ele>
        <time>2024-01-25T14:27:57Z</time>
      </trkpt>
      <trkpt lat="48.77107" lon="-1.37925">
        <ele>130.5</ele>
        <time>2024-01-25T14:27:58Z</time>
      </trkpt>
      <trkpt lat="48.77102" lon="-1.37932">
        <ele>130.5</ele>
        <time>2024-01-25T14:27:59Z</time>
      </trkpt>
      <trkpt lat="48.77097" lon="-1.3794">
        <ele>130.4</ele>
        <time>2024-01-25T14:28:00Z</time>
      </trkpt>
      <trkpt lat="48.77092" lon="-1.37947">
        <ele>130.4</ele>
        <time>2024-01-25T14:28:01Z</time>
      </trkpt>
      <trkpt lat="48.77087" lon="-1.37954">
        <ele>130.3</ele>
        <time>2024-01-25T14:28:02Z</time>
      </trkpt>
      <trkpt lat="48.77082" lon="-1.37961">
        <ele>130.3</ele>
        <time>2024-01-25T14:28:03Z</time>
      </trkpt>
      <trkpt lat="48.77077" lon="-1.37969">
        <ele>130.3</ele>
        <time>2024-01-25T14:28:04Z</time>
      </trkpt>
      <trkpt lat="48.77073" lon="-1.37975">
        <ele>130.4</ele>
        <time>2024-01-25T14:28:05Z</time>
      </trkpt>
      <trkpt lat="48.77068" lon="-1.37982">
        <ele>130.4</ele>
        <time>2024-01-25T14:28:06Z</time>
      </trkpt>
      <trkpt lat="48.77064" lon="-1.37988">
        <ele>130.5</ele>
        <time>2024-01-25T14:28:07Z</time>
      </trkpt>
      <trkpt lat="48.77059" lon="-1.37994">
        <ele>130.5</ele>
        <time>2024-01-25T14:28:08Z</time>
      </trkpt>
      <trkpt lat="48.77055" lon="-1.38001">
        <ele>130.5</ele>
        <time>2024-01-25T14:28:09Z</time>
      </trkpt>
      <trkpt lat="48.77051" lon="-1.38007">
        <ele>130.5</ele>
        <time>2024-01-25T14:28:10Z</time>
      </trkpt>
      <trkpt lat="48.77047" lon="-1.38013">
        <ele>130.5</ele>
        <time>2024-01-25T14:28:11Z</time>
      </trkpt>
      <trkpt lat="48.77043" lon="-1.38019">
        <ele>130.5</ele>
        <time>2024-01-25T14:28:12Z</time>
      </trkpt>
      <trkpt lat="48.77038" lon="-1.38024">
        <ele>130.5</ele>
        <time>2024-01-25T14:28:13Z</time>
      </trkpt>
      <trkpt lat="48.77033" lon="-1.3803">
        <ele>130.5</ele>
        <time>2024-01-25T14:28:14Z</time>
      </trkpt>
      <trkpt lat="48.77028" lon="-1.38035">
        <ele>130.5</ele>
        <time>2024-01-25T14:28:15Z</time>
      </trkpt>
      <trkpt lat="48.77023" lon="-1.3804">
        <ele>130.5</ele>
        <time>2024-01-25T14:28:16Z</time>
      </trkpt>
      <trkpt lat="48.77017" lon="-1.38046">
        <ele>130.5</ele>
        <time>2024-01-25T14:28:17Z</time>
      </trkpt>
      <trkpt lat="48.77012" lon="-1.38052">
        <ele>130.5</ele>
        <time>2024-01-25T14:28:18Z</time>
      </trkpt>
      <trkpt lat="48.77008" lon="-1.38058">
        <ele>130.5</ele>
        <time>2024-01-25T14:28:19Z</time>
      </trkpt>
      <trkpt lat="48.77003" lon="-1.38064">
        <ele>130.6</ele>
        <time>2024-01-25T14:28:20Z</time>
      </trkpt>
      <trkpt lat="48.76999" lon="-1.38071">
        <ele>130.6</ele>
        <time>2024-01-25T14:28:21Z</time>
      </trkpt>
      <trkpt lat="48.76994" lon="-1.38077">
        <ele>130.7</ele>
        <time>2024-01-25T14:28:22Z</time>
      </trkpt>
      <trkpt lat="48.76989" lon="-1.38083">
        <ele>130.7</ele>
        <time>2024-01-25T14:28:23Z</time>
      </trkpt>
      <trkpt lat="48.76986" lon="-1.3809">
        <ele>130.8</ele>
        <time>2024-01-25T14:28:24Z</time>
      </trkpt>
      <trkpt lat="48.76982" lon="-1.38097">
        <ele>130.8</ele>
        <time>2024-01-25T14:28:25Z</time>
      </trkpt>
      <trkpt lat="48.76977" lon="-1.38103">
        <ele>130.9</ele>
        <time>2024-01-25T14:28:26Z</time>
      </trkpt>
      <trkpt lat="48.76973" lon="-1.3811">
        <ele>130.9</ele>
        <time>2024-01-25T14:28:27Z</time>
      </trkpt>
      <trkpt lat="48.76969" lon="-1.38117">
        <ele>130.9</ele>
        <time>2024-01-25T14:28:28Z</time>
      </trkpt>
      <trkpt lat="48.76965" lon="-1.38124">
        <ele>130.9</ele>
        <time>2024-01-25T14:28:29Z</time>
      </trkpt>
      <trkpt lat="48.7696" lon="-1.38132">
        <ele>130.9</ele>
        <time>2024-01-25T14:28:30Z</time>
      </trkpt>
      <trkpt lat="48.76956" lon="-1.38141">
        <ele>130.8</ele>
        <time>2024-01-25T14:28:31Z</time>
      </trkpt>
      <trkpt lat="48.76952" lon="-1.3815">
        <ele>130.7</ele>
        <time>2024-01-25T14:28:32Z</time>
      </trkpt>
      <trkpt lat="48.76948" lon="-1.38158">
        <ele>130.6</ele>
        <time>2024-01-25T14:28:33Z</time>
      </trkpt>
      <trkpt lat="48.76943" lon="-1.38168">
        <ele>130.4</ele>
        <time>2024-01-25T14:28:34Z</time>
      </trkpt>
      <trkpt lat="48.76938" lon="-1.38177">
        <ele>130.2</ele>
        <time>2024-01-25T14:28:35Z</time>
      </trkpt>
      <trkpt lat="48.76934" lon="-1.38186">
        <ele>129.9</ele>
        <time>2024-01-25T14:28:36Z</time>
      </trkpt>
      <trkpt lat="48.76931" lon="-1.38197">
        <ele>129.7</ele>
        <time>2024-01-25T14:28:37Z</time>
      </trkpt>
      <trkpt lat="48.76927" lon="-1.38207">
        <ele>129.4</ele>
        <time>2024-01-25T14:28:38Z</time>
      </trkpt>
      <trkpt lat="48.76923" lon="-1.38218">
        <ele>129.1</ele>
        <time>2024-01-25T14:28:39Z</time>
      </trkpt>
      <trkpt lat="48.7692" lon="-1.38228">
        <ele>128.9</ele>
        <time>2024-01-25T14:28:40Z</time>
      </trkpt>
      <trkpt lat="48.76916" lon="-1.38239">
        <ele>128.6</ele>
        <time>2024-01-25T14:28:41Z</time>
      </trkpt>
      <trkpt lat="48.76913" lon="-1.38249">
        <ele>128.3</ele>
        <time>2024-01-25T14:28:42Z</time>
      </trkpt>
      <trkpt lat="48.76909" lon="-1.3826">
        <ele>128</ele>
        <time>2024-01-25T14:28:43Z</time>
      </trkpt>
      <trkpt lat="48.76906" lon="-1.3827">
        <ele>127.8</ele>
        <time>2024-01-25T14:28:44Z</time>
      </trkpt>
      <trkpt lat="48.76903" lon="-1.3828">
        <ele>127.5</ele>
        <time>2024-01-25T14:28:45Z</time>
      </trkpt>
      <trkpt lat="48.76899" lon="-1.38291">
        <ele>127.3</ele>
        <time>2024-01-25T14:28:46Z</time>
      </trkpt>
      <trkpt lat="48.76896" lon="-1.38301">
        <ele>127</ele>
        <time>2024-01-25T14:28:47Z</time>
      </trkpt>
      <trkpt lat="48.76892" lon="-1.38311">
        <ele>126.8</ele>
        <time>2024-01-25T14:28:48Z</time>
      </trkpt>
      <trkpt lat="48.76889" lon="-1.38322">
        <ele>126.6</ele>
        <time>2024-01-25T14:28:49Z</time>
      </trkpt>
      <trkpt lat="48.76885" lon="-1.38332">
        <ele>126.4</ele>
        <time>2024-01-25T14:28:50Z</time>
      </trkpt>
      <trkpt lat="48.76882" lon="-1.38342">
        <ele>126.1</ele>
        <time>2024-01-25T14:28:51Z</time>
      </trkpt>
      <trkpt lat="48.76879" lon="-1.38352">
        <ele>126</ele>
        <time>2024-01-25T14:28:52Z</time>
      </trkpt>
      <trkpt lat="48.76875" lon="-1.38362">
        <ele>125.8</ele>
        <time>2024-01-25T14:28:53Z</time>
      </trkpt>
      <trkpt lat="48.76872" lon="-1.38371">
        <ele>125.6</ele>
        <time>2024-01-25T14:28:54Z</time>
      </trkpt>
      <trkpt lat="48.76869" lon="-1.38381">
        <ele>125.4</ele>
        <time>2024-01-25T14:28:55Z</time>
      </trkpt>
      <trkpt lat="48.76865" lon="-1.3839">
        <ele>125.3</ele>
        <time>2024-01-25T14:28:56Z</time>
      </trkpt>
      <trkpt lat="48.76862" lon="-1.384">
        <ele>125.1</ele>
        <time>2024-01-25T14:28:57Z</time>
      </trkpt>
      <trkpt lat="48.76859" lon="-1.3841">
        <ele>125</ele>
        <time>2024-01-25T14:28:58Z</time>
      </trkpt>
      <trkpt lat="48.76856" lon="-1.3842">
        <ele>124.9</ele>
        <time>2024-01-25T14:28:59Z</time>
      </trkpt>
      <trkpt lat="48.76852" lon="-1.3843">
        <ele>124.8</ele>
        <time>2024-01-25T14:29:00Z</time>
      </trkpt>
      <trkpt lat="48.76849" lon="-1.38439">
        <ele>124.7</ele>
        <time>2024-01-25T14:29:01Z</time>
      </trkpt>
      <trkpt lat="48.76846" lon="-1.38448">
        <ele>124.6</ele>
        <time>2024-01-25T14:29:02Z</time>
      </trkpt>
      <trkpt lat="48.76842" lon="-1.38457">
        <ele>124.5</ele>
        <time>2024-01-25T14:29:03Z</time>
      </trkpt>
      <trkpt lat="48.76838" lon="-1.38466">
        <ele>124.4</ele>
        <time>2024-01-25T14:29:04Z</time>
      </trkpt>
      <trkpt lat="48.76834" lon="-1.38475">
        <ele>124.4</ele>
        <time>2024-01-25T14:29:05Z</time>
      </trkpt>
      <trkpt lat="48.7683" lon="-1.38485">
        <ele>124.3</ele>
        <time>2024-01-25T14:29:06Z</time>
      </trkpt>
      <trkpt lat="48.76827" lon="-1.38494">
        <ele>124.3</ele>
        <time>2024-01-25T14:29:07Z</time>
      </trkpt>
      <trkpt lat="48.76823" lon="-1.38503">
        <ele>124.3</ele>
        <time>2024-01-25T14:29:08Z</time>
      </trkpt>
      <trkpt lat="48.76819" lon="-1.38511">
        <ele>124.3</ele>
        <time>2024-01-25T14:29:09Z</time>
      </trkpt>
      <trkpt lat="48.76815" lon="-1.38519">
        <ele>124.3</ele>
        <time>2024-01-25T14:29:10Z</time>
      </trkpt>
      <trkpt lat="48.7681" lon="-1.38528">
        <ele>124.3</ele>
        <time>2024-01-25T14:29:11Z</time>
      </trkpt>
      <trkpt lat="48.76806" lon="-1.38535">
        <ele>124.3</ele>
        <time>2024-01-25T14:29:12Z</time>
      </trkpt>
      <trkpt lat="48.76801" lon="-1.38543">
        <ele>124.4</ele>
        <time>2024-01-25T14:29:13Z</time>
      </trkpt>
      <trkpt lat="48.76797" lon="-1.3855">
        <ele>124.4</ele>
        <time>2024-01-25T14:29:14Z</time>
      </trkpt>
      <trkpt lat="48.76793" lon="-1.38558">
        <ele>124.5</ele>
        <time>2024-01-25T14:29:15Z</time>
      </trkpt>
      <trkpt lat="48.76789" lon="-1.38566">
        <ele>124.6</ele>
        <time>2024-01-25T14:29:16Z</time>
      </trkpt>
      <trkpt lat="48.76785" lon="-1.38574">
        <ele>124.7</ele>
        <time>2024-01-25T14:29:17Z</time>
      </trkpt>
      <trkpt lat="48.76781" lon="-1.38582">
        <ele>124.8</ele>
        <time>2024-01-25T14:29:18Z</time>
      </trkpt>
      <trkpt lat="48.76777" lon="-1.3859">
        <ele>124.8</ele>
        <time>2024-01-25T14:29:19Z</time>
      </trkpt>
      <trkpt lat="48.76774" lon="-1.38599">
        <ele>124.9</ele>
        <time>2024-01-25T14:29:20Z</time>
      </trkpt>
      <trkpt lat="48.7677" lon="-1.38607">
        <ele>124.9</ele>
        <time>2024-01-25T14:29:21Z</time>
      </trkpt>
      <trkpt lat="48.76766" lon="-1.38615">
        <ele>125</ele>
        <time>2024-01-25T14:29:22Z</time>
      </trkpt>
      <trkpt lat="48.76762" lon="-1.38623">
        <ele>125</ele>
        <time>2024-01-25T14:29:23Z</time>
      </trkpt>
      <trkpt lat="48.76758" lon="-1.38631">
        <ele>125.1</ele>
        <time>2024-01-25T14:29:24Z</time>
      </trkpt>
      <trkpt lat="48.76755" lon="-1.38639">
        <ele>125.1</ele>
        <time>2024-01-25T14:29:25Z</time>
      </trkpt>
      <trkpt lat="48.7675" lon="-1.38647">
        <ele>125.2</ele>
        <time>2024-01-25T14:29:26Z</time>
      </trkpt>
      <trkpt lat="48.76746" lon="-1.38654">
        <ele>125.3</ele>
        <time>2024-01-25T14:29:27Z</time>
      </trkpt>
      <trkpt lat="48.76742" lon="-1.38662">
        <ele>125.3</ele>
        <time>2024-01-25T14:29:28Z</time>
      </trkpt>
      <trkpt lat="48.76738" lon="-1.38669">
        <ele>125.4</ele>
        <time>2024-01-25T14:29:29Z</time>
      </trkpt>
      <trkpt lat="48.76734" lon="-1.38677">
        <ele>125.4</ele>
        <time>2024-01-25T14:29:30Z</time>
      </trkpt>
      <trkpt lat="48.7673" lon="-1.38683">
        <ele>125.5</ele>
        <time>2024-01-25T14:29:31Z</time>
      </trkpt>
      <trkpt lat="48.76726" lon="-1.3869">
        <ele>125.5</ele>
        <time>2024-01-25T14:29:32Z</time>
      </trkpt>
      <trkpt lat="48.76722" lon="-1.38697">
        <ele>125.6</ele>
        <time>2024-01-25T14:29:33Z</time>
      </trkpt>
      <trkpt lat="48.76718" lon="-1.38704">
        <ele>125.6</ele>
        <time>2024-01-25T14:29:34Z</time>
      </trkpt>
      <trkpt lat="48.76714" lon="-1.3871">
        <ele>125.7</ele>
        <time>2024-01-25T14:29:35Z</time>
      </trkpt>
      <trkpt lat="48.76709" lon="-1.38716">
        <ele>125.8</ele>
        <time>2024-01-25T14:29:36Z</time>
      </trkpt>
      <trkpt lat="48.76705" lon="-1.38723">
        <ele>125.8</ele>
        <time>2024-01-25T14:29:37Z</time>
      </trkpt>
      <trkpt lat="48.76701" lon="-1.38729">
        <ele>125.9</ele>
        <time>2024-01-25T14:29:38Z</time>
      </trkpt>
      <trkpt lat="48.76696" lon="-1.38734">
        <ele>125.9</ele>
        <time>2024-01-25T14:29:39Z</time>
      </trkpt>
      <trkpt lat="48.76692" lon="-1.38741">
        <ele>126</ele>
        <time>2024-01-25T14:29:40Z</time>
      </trkpt>
      <trkpt lat="48.76687" lon="-1.38747">
        <ele>126</ele>
        <time>2024-01-25T14:29:41Z</time>
      </trkpt>
      <trkpt lat="48.76682" lon="-1.38753">
        <ele>126.1</ele>
        <time>2024-01-25T14:29:42Z</time>
      </trkpt>
      <trkpt lat="48.76678" lon="-1.3876">
        <ele>126.1</ele>
        <time>2024-01-25T14:29:43Z</time>
      </trkpt>
      <trkpt lat="48.76673" lon="-1.38766">
        <ele>126.1</ele>
        <time>2024-01-25T14:29:44Z</time>
      </trkpt>
      <trkpt lat="48.76669" lon="-1.38773">
        <ele>126.2</ele>
        <time>2024-01-25T14:29:45Z</time>
      </trkpt>
      <trkpt lat="48.76665" lon="-1.3878">
        <ele>126.2</ele>
        <time>2024-01-25T14:29:46Z</time>
      </trkpt>
      <trkpt lat="48.7666" lon="-1.38786">
        <ele>126.3</ele>
        <time>2024-01-25T14:29:47Z</time>
      </trkpt>
      <trkpt lat="48.76656" lon="-1.38792">
        <ele>126.4</ele>
        <time>2024-01-25T14:29:48Z</time>
      </trkpt>
      <trkpt lat="48.76651" lon="-1.38798">
        <ele>126.4</ele>
        <time>2024-01-25T14:29:49Z</time>
      </trkpt>
      <trkpt lat="48.76647" lon="-1.38803">
        <ele>126.5</ele>
        <time>2024-01-25T14:29:50Z</time>
      </trkpt>
      <trkpt lat="48.76642" lon="-1.38809">
        <ele>126.5</ele>
        <time>2024-01-25T14:29:51Z</time>
      </trkpt>
      <trkpt lat="48.76637" lon="-1.38814">
        <ele>126.6</ele>
        <time>2024-01-25T14:29:52Z</time>
      </trkpt>
      <trkpt lat="48.76632" lon="-1.38819">
        <ele>126.6</ele>
        <time>2024-01-25T14:29:53Z</time>
      </trkpt>
      <trkpt lat="48.76628" lon="-1.38825">
        <ele>126.6</ele>
        <time>2024-01-25T14:29:54Z</time>
      </trkpt>
      <trkpt lat="48.76623" lon="-1.38832">
        <ele>126.7</ele>
        <time>2024-01-25T14:29:55Z</time>
      </trkpt>
      <trkpt lat="48.76618" lon="-1.38838">
        <ele>126.7</ele>
        <time>2024-01-25T14:29:56Z</time>
      </trkpt>
      <trkpt lat="48.76613" lon="-1.38845">
        <ele>126.8</ele>
        <time>2024-01-25T14:29:57Z</time>
      </trkpt>
      <trkpt lat="48.76608" lon="-1.38851">
        <ele>126.8</ele>
        <time>2024-01-25T14:29:58Z</time>
      </trkpt>
      <trkpt lat="48.76603" lon="-1.38858">
        <ele>126.9</ele>
        <time>2024-01-25T14:29:59Z</time>
      </trkpt>
      <trkpt lat="48.76598" lon="-1.38864">
        <ele>126.9</ele>
        <time>2024-01-25T14:30:00Z</time>
      </trkpt>
      <trkpt lat="48.76593" lon="-1.3887">
        <ele>126.9</ele>
        <time>2024-01-25T14:30:01Z</time>
      </trkpt>
      <trkpt lat="48.76588" lon="-1.38876">
        <ele>126.9</ele>
        <time>2024-01-25T14:30:02Z</time>
      </trkpt>
      <trkpt lat="48.76583" lon="-1.38882">
        <ele>126.8</ele>
        <time>2024-01-25T14:30:03Z</time>
      </trkpt>
      <trkpt lat="48.76578" lon="-1.38887">
        <ele>126.7</ele>
        <time>2024-01-25T14:30:04Z</time>
      </trkpt>
      <trkpt lat="48.76573" lon="-1.38893">
        <ele>126.6</ele>
        <time>2024-01-25T14:30:05Z</time>
      </trkpt>
      <trkpt lat="48.76568" lon="-1.38899">
        <ele>126.4</ele>
        <time>2024-01-25T14:30:06Z</time>
      </trkpt>
      <trkpt lat="48.76562" lon="-1.38904">
        <ele>126.2</ele>
        <time>2024-01-25T14:30:07Z</time>
      </trkpt>
      <trkpt lat="48.76556" lon="-1.38908">
        <ele>126</ele>
        <time>2024-01-25T14:30:08Z</time>
      </trkpt>
      <trkpt lat="48.7655" lon="-1.38914">
        <ele>125.8</ele>
        <time>2024-01-25T14:30:09Z</time>
      </trkpt>
      <trkpt lat="48.76544" lon="-1.3892">
        <ele>125.6</ele>
        <time>2024-01-25T14:30:10Z</time>
      </trkpt>
      <trkpt lat="48.76538" lon="-1.38926">
        <ele>125.3</ele>
        <time>2024-01-25T14:30:11Z</time>
      </trkpt>
      <trkpt lat="48.76532" lon="-1.38932">
        <ele>125.1</ele>
        <time>2024-01-25T14:30:12Z</time>
      </trkpt>
      <trkpt lat="48.76525" lon="-1.38938">
        <ele>124.8</ele>
        <time>2024-01-25T14:30:13Z</time>
      </trkpt>
      <trkpt lat="48.76519" lon="-1.38944">
        <ele>124.6</ele>
        <time>2024-01-25T14:30:14Z</time>
      </trkpt>
      <trkpt lat="48.76513" lon="-1.3895">
        <ele>124.4</ele>
        <time>2024-01-25T14:30:15Z</time>
      </trkpt>
      <trkpt lat="48.76506" lon="-1.38956">
        <ele>124.1</ele>
        <time>2024-01-25T14:30:16Z</time>
      </trkpt>
      <trkpt lat="48.76499" lon="-1.38963">
        <ele>123.9</ele>
        <time>2024-01-25T14:30:17Z</time>
      </trkpt>
      <trkpt lat="48.76493" lon="-1.38969">
        <ele>123.6</ele>
        <time>2024-01-25T14:30:18Z</time>
      </trkpt>
      <trkpt lat="48.76486" lon="-1.38976">
        <ele>123.3</ele>
        <time>2024-01-25T14:30:19Z</time>
      </trkpt>
      <trkpt lat="48.7648" lon="-1.38983">
        <ele>123</ele>
        <time>2024-01-25T14:30:20Z</time>
      </trkpt>
      <trkpt lat="48.76473" lon="-1.38989">
        <ele>122.7</ele>
        <time>2024-01-25T14:30:21Z</time>
      </trkpt>
      <trkpt lat="48.76466" lon="-1.38995">
        <ele>122.5</ele>
        <time>2024-01-25T14:30:22Z</time>
      </trkpt>
      <trkpt lat="48.76459" lon="-1.39001">
        <ele>122.2</ele>
        <time>2024-01-25T14:30:23Z</time>
      </trkpt>
      <trkpt lat="48.76452" lon="-1.39008">
        <ele>121.9</ele>
        <time>2024-01-25T14:30:24Z</time>
      </trkpt>
      <trkpt lat="48.76446" lon="-1.39014">
        <ele>121.7</ele>
        <time>2024-01-25T14:30:25Z</time>
      </trkpt>
      <trkpt lat="48.76439" lon="-1.39021">
        <ele>121.4</ele>
        <time>2024-01-25T14:30:26Z</time>
      </trkpt>
      <trkpt lat="48.76433" lon="-1.39028">
        <ele>121.2</ele>
        <time>2024-01-25T14:30:27Z</time>
      </trkpt>
      <trkpt lat="48.76426" lon="-1.39034">
        <ele>120.8</ele>
        <time>2024-01-25T14:30:28Z</time>
      </trkpt>
      <trkpt lat="48.7642" lon="-1.39041">
        <ele>120.5</ele>
        <time>2024-01-25T14:30:29Z</time>
      </trkpt>
      <trkpt lat="48.76413" lon="-1.39047">
        <ele>120.2</ele>
        <time>2024-01-25T14:30:30Z</time>
      </trkpt>
      <trkpt lat="48.76406" lon="-1.39053">
        <ele>119.9</ele>
        <time>2024-01-25T14:30:31Z</time>
      </trkpt>
      <trkpt lat="48.764" lon="-1.3906">
        <ele>119.6</ele>
        <time>2024-01-25T14:30:32Z</time>
      </trkpt>
      <trkpt lat="48.76393" lon="-1.39066">
        <ele>119.3</ele>
        <time>2024-01-25T14:30:33Z</time>
      </trkpt>
      <trkpt lat="48.76386" lon="-1.39072">
        <ele>119.1</ele>
        <time>2024-01-25T14:30:34Z</time>
      </trkpt>
      <trkpt lat="48.7638" lon="-1.39079">
        <ele>118.8</ele>
        <time>2024-01-25T14:30:35Z</time>
      </trkpt>
      <trkpt lat="48.76373" lon="-1.39085">
        <ele>118.6</ele>
        <time>2024-01-25T14:30:36Z</time>
      </trkpt>
      <trkpt lat="48.76366" lon="-1.39092">
        <ele>118.5</ele>
        <time>2024-01-25T14:30:37Z</time>
      </trkpt>
      <trkpt lat="48.7636" lon="-1.39098">
        <ele>118.3</ele>
        <time>2024-01-25T14:30:38Z</time>
      </trkpt>
      <trkpt lat="48.76353" lon="-1.39104">
        <ele>118.1</ele>
        <time>2024-01-25T14:30:39Z</time>
      </trkpt>
      <trkpt lat="48.76346" lon="-1.3911">
        <ele>117.9</ele>
        <time>2024-01-25T14:30:40Z</time>
      </trkpt>
      <trkpt lat="48.76339" lon="-1.39117">
        <ele>117.6</ele>
        <time>2024-01-25T14:30:41Z</time>
      </trkpt>
      <trkpt lat="48.76333" lon="-1.39123">
        <ele>117.3</ele>
        <time>2024-01-25T14:30:42Z</time>
      </trkpt>
      <trkpt lat="48.76326" lon="-1.39129">
        <ele>117.1</ele>
        <time>2024-01-25T14:30:43Z</time>
      </trkpt>
      <trkpt lat="48.76319" lon="-1.39136">
        <ele>116.9</ele>
        <time>2024-01-25T14:30:44Z</time>
      </trkpt>
      <trkpt lat="48.76313" lon="-1.39142">
        <ele>116.8</ele>
        <time>2024-01-25T14:30:45Z</time>
      </trkpt>
      <trkpt lat="48.76306" lon="-1.39148">
        <ele>116.6</ele>
        <time>2024-01-25T14:30:46Z</time>
      </trkpt>
      <trkpt lat="48.76299" lon="-1.39154">
        <ele>116.5</ele>
        <time>2024-01-25T14:30:47Z</time>
      </trkpt>
      <trkpt lat="48.76293" lon="-1.3916">
        <ele>116.4</ele>
        <time>2024-01-25T14:30:48Z</time>
      </trkpt>
      <trkpt lat="48.76286" lon="-1.39166">
        <ele>116.3</ele>
        <time>2024-01-25T14:30:49Z</time>
      </trkpt>
      <trkpt lat="48.7628" lon="-1.39171">
        <ele>116.2</ele>
        <time>2024-01-25T14:30:50Z</time>
      </trkpt>
      <trkpt lat="48.76273" lon="-1.39178">
        <ele>116.2</ele>
        <time>2024-01-25T14:30:51Z</time>
      </trkpt>
      <trkpt lat="48.76266" lon="-1.39184">
        <ele>116.1</ele>
        <time>2024-01-25T14:30:52Z</time>
      </trkpt>
      <trkpt lat="48.76259" lon="-1.3919">
        <ele>116</ele>
        <time>2024-01-25T14:30:53Z</time>
      </trkpt>
      <trkpt lat="48.76252" lon="-1.39196">
        <ele>116</ele>
        <time>2024-01-25T14:30:54Z</time>
      </trkpt>
      <trkpt lat="48.76245" lon="-1.39201">
        <ele>116</ele>
        <time>2024-01-25T14:30:55Z</time>
      </trkpt>
      <trkpt lat="48.76238" lon="-1.39206">
        <ele>116</ele>
        <time>2024-01-25T14:30:56Z</time>
      </trkpt>
      <trkpt lat="48.76231" lon="-1.3921">
        <ele>116.1</ele>
        <time>2024-01-25T14:30:57Z</time>
      </trkpt>
      <trkpt lat="48.76225" lon="-1.39214">
        <ele>116.2</ele>
        <time>2024-01-25T14:30:58Z</time>
      </trkpt>
      <trkpt lat="48.76218" lon="-1.39217">
        <ele>116.2</ele>
        <time>2024-01-25T14:30:59Z</time>
      </trkpt>
      <trkpt lat="48.76212" lon="-1.3922">
        <ele>116.1</ele>
        <time>2024-01-25T14:31:00Z</time>
      </trkpt>
      <trkpt lat="48.76205" lon="-1.39223">
        <ele>116.1</ele>
        <time>2024-01-25T14:31:01Z</time>
      </trkpt>
      <trkpt lat="48.76198" lon="-1.39225">
        <ele>116.1</ele>
        <time>2024-01-25T14:31:02Z</time>
      </trkpt>
      <trkpt lat="48.76192" lon="-1.39227">
        <ele>116</ele>
        <time>2024-01-25T14:31:03Z</time>
      </trkpt>
      <trkpt lat="48.76185" lon="-1.39229">
        <ele>116</ele>
        <time>2024-01-25T14:31:04Z</time>
      </trkpt>
      <trkpt lat="48.76178" lon="-1.39232">
        <ele>116.1</ele>
        <time>2024-01-25T14:31:05Z</time>
      </trkpt>
      <trkpt lat="48.76172" lon="-1.39234">
        <ele>116.1</ele>
        <time>2024-01-25T14:31:06Z</time>
      </trkpt>
      <trkpt lat="48.76165" lon="-1.39237">
        <ele>116.2</ele>
        <time>2024-01-25T14:31:07Z</time>
      </trkpt>
      <trkpt lat="48.76159" lon="-1.3924">
        <ele>116.2</ele>
        <time>2024-01-25T14:31:08Z</time>
      </trkpt>
      <trkpt lat="48.76153" lon="-1.39243">
        <ele>116.3</ele>
        <time>2024-01-25T14:31:09Z</time>
      </trkpt>
      <trkpt lat="48.76147" lon="-1.39246">
        <ele>116.3</ele>
        <time>2024-01-25T14:31:10Z</time>
      </trkpt>
      <trkpt lat="48.76141" lon="-1.39249">
        <ele>116.4</ele>
        <time>2024-01-25T14:31:11Z</time>
      </trkpt>
      <trkpt lat="48.76134" lon="-1.39253">
        <ele>116.5</ele>
        <time>2024-01-25T14:31:12Z</time>
      </trkpt>
      <trkpt lat="48.76128" lon="-1.39256">
        <ele>116.5</ele>
        <time>2024-01-25T14:31:13Z</time>
      </trkpt>
      <trkpt lat="48.76122" lon="-1.39259">
        <ele>116.6</ele>
        <time>2024-01-25T14:31:14Z</time>
      </trkpt>
      <trkpt lat="48.76116" lon="-1.39263">
        <ele>116.7</ele>
        <time>2024-01-25T14:31:15Z</time>
      </trkpt>
      <trkpt lat="48.7611" lon="-1.39267">
        <ele>116.7</ele>
        <time>2024-01-25T14:31:16Z</time>
      </trkpt>
      <trkpt lat="48.76104" lon="-1.39271">
        <ele>116.8</ele>
        <time>2024-01-25T14:31:17Z</time>
      </trkpt>
      <trkpt lat="48.76098" lon="-1.39274">
        <ele>116.9</ele>
        <time>2024-01-25T14:31:18Z</time>
      </trkpt>
      <trkpt lat="48.76091" lon="-1.39278">
        <ele>117</ele>
        <time>2024-01-25T14:31:19Z</time>
      </trkpt>
      <trkpt lat="48.76085" lon="-1.39281">
        <ele>117.1</ele>
        <time>2024-01-25T14:31:20Z</time>
      </trkpt>
      <trkpt lat="48.76079" lon="-1.39285">
        <ele>117.2</ele>
        <time>2024-01-25T14:31:21Z</time>
      </trkpt>
      <trkpt lat="48.76073" lon="-1.39289">
        <ele>117.3</ele>
        <time>2024-01-25T14:31:22Z</time>
      </trkpt>
      <trkpt lat="48.76067" lon="-1.39293">
        <ele>117.4</ele>
        <time>2024-01-25T14:31:23Z</time>
      </trkpt>
      <trkpt lat="48.76061" lon="-1.39296">
        <ele>117.6</ele>
        <time>2024-01-25T14:31:24Z</time>
      </trkpt>
      <trkpt lat="48.76055" lon="-1.39299">
        <ele>117.7</ele>
        <time>2024-01-25T14:31:25Z</time>
      </trkpt>
      <trkpt lat="48.76049" lon="-1.39302">
        <ele>117.9</ele>
        <time>2024-01-25T14:31:26Z</time>
      </trkpt>
      <trkpt lat="48.76043" lon="-1.39305">
        <ele>118</ele>
        <time>2024-01-25T14:31:27Z</time>
      </trkpt>
      <trkpt lat="48.76037" lon="-1.39308">
        <ele>118.1</ele>
        <time>2024-01-25T14:31:28Z</time>
      </trkpt>
      <trkpt lat="48.76031" lon="-1.39311">
        <ele>118.2</ele>
        <time>2024-01-25T14:31:29Z</time>
      </trkpt>
      <trkpt lat="48.76025" lon="-1.39314">
        <ele>118.3</ele>
        <time>2024-01-25T14:31:30Z</time>
      </trkpt>
      <trkpt lat="48.7602" lon="-1.39317">
        <ele>118.5</ele>
        <time>2024-01-25T14:31:31Z</time>
      </trkpt>
      <trkpt lat="48.76013" lon="-1.39321">
        <ele>118.6</ele>
        <time>2024-01-25T14:31:32Z</time>
      </trkpt>
      <trkpt lat="48.76007" lon="-1.39324">
        <ele>118.7</ele>
        <time>2024-01-25T14:31:33Z</time>
      </trkpt>
      <trkpt lat="48.76001" lon="-1.39327">
        <ele>118.8</ele>
        <time>2024-01-25T14:31:34Z</time>
      </trkpt>
      <trkpt lat="48.75995" lon="-1.3933">
        <ele>118.9</ele>
        <time>2024-01-25T14:31:35Z</time>
      </trkpt>
      <trkpt lat="48.7599" lon="-1.39333">
        <ele>119</ele>
        <time>2024-01-25T14:31:36Z</time>
      </trkpt>
      <trkpt lat="48.75984" lon="-1.39336">
        <ele>119</ele>
        <time>2024-01-25T14:31:37Z</time>
      </trkpt>
      <trkpt lat="48.75978" lon="-1.3934">
        <ele>119</ele>
        <time>2024-01-25T14:31:38Z</time>
      </trkpt>
      <trkpt lat="48.75971" lon="-1.39343">
        <ele>118.9</ele>
        <time>2024-01-25T14:31:39Z</time>
      </trkpt>
      <trkpt lat="48.75965" lon="-1.39348">
        <ele>118.8</ele>
        <time>2024-01-25T14:31:40Z</time>
      </trkpt>
      <trkpt lat="48.75959" lon="-1.39352">
        <ele>118.7</ele>
        <time>2024-01-25T14:31:41Z</time>
      </trkpt>
      <trkpt lat="48.75952" lon="-1.39356">
        <ele>118.6</ele>
        <time>2024-01-25T14:31:42Z</time>
      </trkpt>
      <trkpt lat="48.75945" lon="-1.3936">
        <ele>118.5</ele>
        <time>2024-01-25T14:31:43Z</time>
      </trkpt>
      <trkpt lat="48.75939" lon="-1.39364">
        <ele>118.3</ele>
        <time>2024-01-25T14:31:44Z</time>
      </trkpt>
      <trkpt lat="48.75932" lon="-1.39368">
        <ele>118.1</ele>
        <time>2024-01-25T14:31:45Z</time>
      </trkpt>
      <trkpt lat="48.75926" lon="-1.39372">
        <ele>118</ele>
        <time>2024-01-25T14:31:46Z</time>
      </trkpt>
      <trkpt lat="48.75919" lon="-1.39377">
        <ele>117.8</ele>
        <time>2024-01-25T14:31:47Z</time>
      </trkpt>
      <trkpt lat="48.75912" lon="-1.39381">
        <ele>117.7</ele>
        <time>2024-01-25T14:31:48Z</time>
      </trkpt>
      <trkpt lat="48.75906" lon="-1.39386">
        <ele>117.5</ele>
        <time>2024-01-25T14:31:49Z</time>
      </trkpt>
      <trkpt lat="48.75899" lon="-1.39391">
        <ele>117.3</ele>
        <time>2024-01-25T14:31:50Z</time>
      </trkpt>
      <trkpt lat="48.75893" lon="-1.39396">
        <ele>117.1</ele>
        <time>2024-01-25T14:31:51Z</time>
      </trkpt>
      <trkpt lat="48.75886" lon="-1.39402">
        <ele>117</ele>
        <time>2024-01-25T14:31:52Z</time>
      </trkpt>
      <trkpt lat="48.7588" lon="-1.39407">
        <ele>116.8</ele>
        <time>2024-01-25T14:31:53Z</time>
      </trkpt>
      <trkpt lat="48.75873" lon="-1.39413">
        <ele>116.6</ele>
        <time>2024-01-25T14:31:54Z</time>
      </trkpt>
      <trkpt lat="48.75867" lon="-1.39419">
        <ele>116.4</ele>
        <time>2024-01-25T14:31:55Z</time>
      </trkpt>
      <trkpt lat="48.75861" lon="-1.39425">
        <ele>116.2</ele>
        <time>2024-01-25T14:31:56Z</time>
      </trkpt>
      <trkpt lat="48.75855" lon="-1.39431">
        <ele>116</ele>
        <time>2024-01-25T14:31:57Z</time>
      </trkpt>
      <trkpt lat="48.75849" lon="-1.39437">
        <ele>115.8</ele>
        <time>2024-01-25T14:31:58Z</time>
      </trkpt>
      <trkpt lat="48.75843" lon="-1.39444">
        <ele>115.6</ele>
        <time>2024-01-25T14:31:59Z</time>
      </trkpt>
      <trkpt lat="48.75837" lon="-1.3945">
        <ele>115.5</ele>
        <time>2024-01-25T14:32:00Z</time>
      </trkpt>
      <trkpt lat="48.75831" lon="-1.39457">
        <ele>115.3</ele>
        <time>2024-01-25T14:32:01Z</time>
      </trkpt>
      <trkpt lat="48.75825" lon="-1.39463">
        <ele>115.2</ele>
        <time>2024-01-25T14:32:02Z</time>
      </trkpt>
      <trkpt lat="48.7582" lon="-1.3947">
        <ele>115.2</ele>
        <time>2024-01-25T14:32:03Z</time>
      </trkpt>
      <trkpt lat="48.75814" lon="-1.39477">
        <ele>115</ele>
        <time>2024-01-25T14:32:04Z</time>
      </trkpt>
      <trkpt lat="48.75808" lon="-1.39484">
        <ele>114.8</ele>
        <time>2024-01-25T14:32:05Z</time>
      </trkpt>
      <trkpt lat="48.75802" lon="-1.39491">
        <ele>114.6</ele>
        <time>2024-01-25T14:32:06Z</time>
      </trkpt>
      <trkpt lat="48.75797" lon="-1.39498">
        <ele>114.5</ele>
        <time>2024-01-25T14:32:07Z</time>
      </trkpt>
      <trkpt lat="48.75791" lon="-1.39505">
        <ele>114.4</ele>
        <time>2024-01-25T14:32:08Z</time>
      </trkpt>
      <trkpt lat="48.75786" lon="-1.39511">
        <ele>114.3</ele>
        <time>2024-01-25T14:32:09Z</time>
      </trkpt>
      <trkpt lat="48.7578" lon="-1.39518">
        <ele>114.1</ele>
        <time>2024-01-25T14:32:10Z</time>
      </trkpt>
      <trkpt lat="48.75774" lon="-1.39524">
        <ele>114</ele>
        <time>2024-01-25T14:32:11Z</time>
      </trkpt>
      <trkpt lat="48.75769" lon="-1.3953">
        <ele>113.9</ele>
        <time>2024-01-25T14:32:12Z</time>
      </trkpt>
      <trkpt lat="48.75763" lon="-1.39536">
        <ele>113.8</ele>
        <time>2024-01-25T14:32:13Z</time>
      </trkpt>
      <trkpt lat="48.75758" lon="-1.39542">
        <ele>113.6</ele>
        <time>2024-01-25T14:32:14Z</time>
      </trkpt>
      <trkpt lat="48.75752" lon="-1.39548">
        <ele>113.5</ele>
        <time>2024-01-25T14:32:15Z</time>
      </trkpt>
      <trkpt lat="48.75747" lon="-1.39554">
        <ele>113.4</ele>
        <time>2024-01-25T14:32:16Z</time>
      </trkpt>
      <trkpt lat="48.75741" lon="-1.3956">
        <ele>113.3</ele>
        <time>2024-01-25T14:32:17Z</time>
      </trkpt>
      <trkpt lat="48.75736" lon="-1.39566">
        <ele>113.2</ele>
        <time>2024-01-25T14:32:18Z</time>
      </trkpt>
      <trkpt lat="48.7573" lon="-1.39572">
        <ele>113.1</ele>
        <time>2024-01-25T14:32:19Z</time>
      </trkpt>
      <trkpt lat="48.75725" lon="-1.39578">
        <ele>113</ele>
        <time>2024-01-25T14:32:20Z</time>
      </trkpt>
      <trkpt lat="48.75719" lon="-1.39584">
        <ele>112.9</ele>
        <time>2024-01-25T14:32:21Z</time>
      </trkpt>
      <trkpt lat="48.75713" lon="-1.39591">
        <ele>112.7</ele>
        <time>2024-01-25T14:32:22Z</time>
      </trkpt>
      <trkpt lat="48.75708" lon="-1.39597">
        <ele>112.6</ele>
        <time>2024-01-25T14:32:23Z</time>
      </trkpt>
      <trkpt lat="48.75702" lon="-1.39603">
        <ele>112.5</ele>
        <time>2024-01-25T14:32:24Z</time>
      </trkpt>
      <trkpt lat="48.75697" lon="-1.39609">
        <ele>112.4</ele>
        <time>2024-01-25T14:32:25Z</time>
      </trkpt>
      <trkpt lat="48.75691" lon="-1.39616">
        <ele>112.3</ele>
        <time>2024-01-25T14:32:26Z</time>
      </trkpt>
      <trkpt lat="48.75685" lon="-1.39622">
        <ele>112.2</ele>
        <time>2024-01-25T14:32:27Z</time>
      </trkpt>
      <trkpt lat="48.7568" lon="-1.39628">
        <ele>112.1</ele>
        <time>2024-01-25T14:32:28Z</time>
      </trkpt>
      <trkpt lat="48.75674" lon="-1.39635">
        <ele>112</ele>
        <time>2024-01-25T14:32:29Z</time>
      </trkpt>
      <trkpt lat="48.75668" lon="-1.39641">
        <ele>111.9</ele>
        <time>2024-01-25T14:32:30Z</time>
      </trkpt>
      <trkpt lat="48.75663" lon="-1.39648">
        <ele>111.8</ele>
        <time>2024-01-25T14:32:31Z</time>
      </trkpt>
      <trkpt lat="48.75657" lon="-1.39655">
        <ele>111.7</ele>
        <time>2024-01-25T14:32:32Z</time>
      </trkpt>
      <trkpt lat="48.75651" lon="-1.39661">
        <ele>111.6</ele>
        <time>2024-01-25T14:32:33Z</time>
      </trkpt>
      <trkpt lat="48.75646" lon="-1.39667">
        <ele>111.5</ele>
        <time>2024-01-25T14:32:34Z</time>
      </trkpt>
      <trkpt lat="48.7564" lon="-1.39673">
        <ele>111.3</ele>
        <time>2024-01-25T14:32:35Z</time>
      </trkpt>
      <trkpt lat="48.75634" lon="-1.39679">
        <ele>111.2</ele>
        <time>2024-01-25T14:32:36Z</time>
      </trkpt>
      <trkpt lat="48.75628" lon="-1.39686">
        <ele>111</ele>
        <time>2024-01-25T14:32:37Z</time>
      </trkpt>
      <trkpt lat="48.75622" lon="-1.39693">
        <ele>110.9</ele>
        <time>2024-01-25T14:32:38Z</time>
      </trkpt>
      <trkpt lat="48.75616" lon="-1.39699">
        <ele>110.7</ele>
        <time>2024-01-25T14:32:39Z</time>
      </trkpt>
      <trkpt lat="48.7561" lon="-1.39706">
        <ele>110.6</ele>
        <time>2024-01-25T14:32:40Z</time>
      </trkpt>
      <trkpt lat="48.75604" lon="-1.39713">
        <ele>110.4</ele>
        <time>2024-01-25T14:32:41Z</time>
      </trkpt>
      <trkpt lat="48.75598" lon="-1.3972">
        <ele>110.3</ele>
        <time>2024-01-25T14:32:42Z</time>
      </trkpt>
      <trkpt lat="48.75592" lon="-1.39727">
        <ele>110.2</ele>
        <time>2024-01-25T14:32:43Z</time>
      </trkpt>
      <trkpt lat="48.75586" lon="-1.39733">
        <ele>110</ele>
        <time>2024-01-25T14:32:44Z</time>
      </trkpt>
      <trkpt lat="48.7558" lon="-1.3974">
        <ele>109.9</ele>
        <time>2024-01-25T14:32:45Z</time>
      </trkpt>
      <trkpt lat="48.75574" lon="-1.39747">
        <ele>109.9</ele>
        <time>2024-01-25T14:32:46Z</time>
      </trkpt>
      <trkpt lat="48.75568" lon="-1.39754">
        <ele>109.8</ele>
        <time>2024-01-25T14:32:47Z</time>
      </trkpt>
      <trkpt lat="48.75562" lon="-1.39761">
        <ele>109.7</ele>
        <time>2024-01-25T14:32:48Z</time>
      </trkpt>
      <trkpt lat="48.75556" lon="-1.39768">
        <ele>109.6</ele>
        <time>2024-01-25T14:32:49Z</time>
      </trkpt>
      <trkpt lat="48.7555" lon="-1.39775">
        <ele>109.5</ele>
        <time>2024-01-25T14:32:50Z</time>
      </trkpt>
      <trkpt lat="48.75544" lon="-1.39782">
        <ele>109.4</ele>
        <time>2024-01-25T14:32:51Z</time>
      </trkpt>
      <trkpt lat="48.75538" lon="-1.39789">
        <ele>109.3</ele>
        <time>2024-01-25T14:32:52Z</time>
      </trkpt>
      <trkpt lat="48.75532" lon="-1.39796">
        <ele>109.2</ele>
        <time>2024-01-25T14:32:53Z</time>
      </trkpt>
      <trkpt lat="48.75526" lon="-1.39802">
        <ele>109.2</ele>
        <time>2024-01-25T14:32:54Z</time>
      </trkpt>
      <trkpt lat="48.7552" lon="-1.39809">
        <ele>109</ele>
        <time>2024-01-25T14:32:55Z</time>
      </trkpt>
      <trkpt lat="48.75514" lon="-1.39816">
        <ele>108.9</ele>
        <time>2024-01-25T14:32:56Z</time>
      </trkpt>
      <trkpt lat="48.75508" lon="-1.39823">
        <ele>108.8</ele>
        <time>2024-01-25T14:32:57Z</time>
      </trkpt>
      <trkpt lat="48.75502" lon="-1.3983">
        <ele>108.7</ele>
        <time>2024-01-25T14:32:58Z</time>
      </trkpt>
      <trkpt lat="48.75496" lon="-1.39837">
        <ele>108.6</ele>
        <time>2024-01-25T14:32:59Z</time>
      </trkpt>
      <trkpt lat="48.75491" lon="-1.39844">
        <ele>108.6</ele>
        <time>2024-01-25T14:33:00Z</time>
      </trkpt>
      <trkpt lat="48.75486" lon="-1.39852">
        <ele>108.5</ele>
        <time>2024-01-25T14:33:01Z</time>
      </trkpt>
      <trkpt lat="48.7548" lon="-1.39859">
        <ele>108.4</ele>
        <time>2024-01-25T14:33:02Z</time>
      </trkpt>
      <trkpt lat="48.75475" lon="-1.39867">
        <ele>108.3</ele>
        <time>2024-01-25T14:33:03Z</time>
      </trkpt>
      <trkpt lat="48.7547" lon="-1.39874">
        <ele>108.2</ele>
        <time>2024-01-25T14:33:04Z</time>
      </trkpt>
      <trkpt lat="48.75466" lon="-1.39882">
        <ele>108.2</ele>
        <time>2024-01-25T14:33:05Z</time>
      </trkpt>
      <trkpt lat="48.75461" lon="-1.3989">
        <ele>108.1</ele>
        <time>2024-01-25T14:33:06Z</time>
      </trkpt>
      <trkpt lat="48.75456" lon="-1.39899">
        <ele>108</ele>
        <time>2024-01-25T14:33:07Z</time>
      </trkpt>
      <trkpt lat="48.75451" lon="-1.39908">
        <ele>108</ele>
        <time>2024-01-25T14:33:08Z</time>
      </trkpt>
      <trkpt lat="48.75446" lon="-1.39916">
        <ele>107.9</ele>
        <time>2024-01-25T14:33:09Z</time>
      </trkpt>
      <trkpt lat="48.75442" lon="-1.39923">
        <ele>107.9</ele>
        <time>2024-01-25T14:33:10Z</time>
      </trkpt>
      <trkpt lat="48.75437" lon="-1.3993">
        <ele>107.8</ele>
        <time>2024-01-25T14:33:11Z</time>
      </trkpt>
      <trkpt lat="48.75432" lon="-1.39937">
        <ele>107.8</ele>
        <time>2024-01-25T14:33:12Z</time>
      </trkpt>
      <trkpt lat="48.75427" lon="-1.39944">
        <ele>107.7</ele>
        <time>2024-01-25T14:33:13Z</time>
      </trkpt>
      <trkpt lat="48.75423" lon="-1.39952">
        <ele>107.7</ele>
        <time>2024-01-25T14:33:14Z</time>
      </trkpt>
      <trkpt lat="48.75418" lon="-1.3996">
        <ele>107.7</ele>
        <time>2024-01-25T14:33:15Z</time>
      </trkpt>
      <trkpt lat="48.75413" lon="-1.39967">
        <ele>107.6</ele>
        <time>2024-01-25T14:33:16Z</time>
      </trkpt>
      <trkpt lat="48.75408" lon="-1.39974">
        <ele>107.6</ele>
        <time>2024-01-25T14:33:17Z</time>
      </trkpt>
      <trkpt lat="48.75403" lon="-1.39981">
        <ele>107.6</ele>
        <time>2024-01-25T14:33:18Z</time>
      </trkpt>
      <trkpt lat="48.75398" lon="-1.39988">
        <ele>107.6</ele>
        <time>2024-01-25T14:33:19Z</time>
      </trkpt>
      <trkpt lat="48.75393" lon="-1.39996">
        <ele>107.5</ele>
        <time>2024-01-25T14:33:20Z</time>
      </trkpt>
      <trkpt lat="48.75388" lon="-1.40004">
        <ele>107.5</ele>
        <time>2024-01-25T14:33:21Z</time>
      </trkpt>
      <trkpt lat="48.75383" lon="-1.40012">
        <ele>107.5</ele>
        <time>2024-01-25T14:33:22Z</time>
      </trkpt>
      <trkpt lat="48.75379" lon="-1.4002">
        <ele>107.4</ele>
        <time>2024-01-25T14:33:23Z</time>
      </trkpt>
      <trkpt lat="48.75374" lon="-1.40028">
        <ele>107.4</ele>
        <time>2024-01-25T14:33:24Z</time>
      </trkpt>
      <trkpt lat="48.75369" lon="-1.40035">
        <ele>107.3</ele>
        <time>2024-01-25T14:33:25Z</time>
      </trkpt>
      <trkpt lat="48.75365" lon="-1.40042">
        <ele>107.3</ele>
        <time>2024-01-25T14:33:26Z</time>
      </trkpt>
      <trkpt lat="48.7536" lon="-1.4005">
        <ele>107.3</ele>
        <time>2024-01-25T14:33:27Z</time>
      </trkpt>
      <trkpt lat="48.75356" lon="-1.40057">
        <ele>107.3</ele>
        <time>2024-01-25T14:33:28Z</time>
      </trkpt>
      <trkpt lat="48.75351" lon="-1.40065">
        <ele>107.2</ele>
        <time>2024-01-25T14:33:29Z</time>
      </trkpt>
      <trkpt lat="48.75346" lon="-1.40072">
        <ele>107.2</ele>
        <time>2024-01-25T14:33:30Z</time>
      </trkpt>
      <trkpt lat="48.75341" lon="-1.40079">
        <ele>107.2</ele>
        <time>2024-01-25T14:33:31Z</time>
      </trkpt>
      <trkpt lat="48.75337" lon="-1.40086">
        <ele>107.1</ele>
        <time>2024-01-25T14:33:32Z</time>
      </trkpt>
      <trkpt lat="48.75332" lon="-1.40093">
        <ele>107.1</ele>
        <time>2024-01-25T14:33:33Z</time>
      </trkpt>
      <trkpt lat="48.75327" lon="-1.401">
        <ele>107</ele>
        <time>2024-01-25T14:33:34Z</time>
      </trkpt>
      <trkpt lat="48.75322" lon="-1.40107">
        <ele>107</ele>
        <time>2024-01-25T14:33:35Z</time>
      </trkpt>
      <trkpt lat="48.75317" lon="-1.40114">
        <ele>106.9</ele>
        <time>2024-01-25T14:33:36Z</time>
      </trkpt>
      <trkpt lat="48.75313" lon="-1.40121">
        <ele>106.9</ele>
        <time>2024-01-25T14:33:37Z</time>
      </trkpt>
      <trkpt lat="48.75308" lon="-1.40127">
        <ele>106.9</ele>
        <time>2024-01-25T14:33:38Z</time>
      </trkpt>
      <trkpt lat="48.75303" lon="-1.40134">
        <ele>106.8</ele>
        <time>2024-01-25T14:33:39Z</time>
      </trkpt>
      <trkpt lat="48.75298" lon="-1.40141">
        <ele>106.7</ele>
        <time>2024-01-25T14:33:40Z</time>
      </trkpt>
      <trkpt lat="48.75294" lon="-1.40149">
        <ele>106.7</ele>
        <time>2024-01-25T14:33:41Z</time>
      </trkpt>
      <trkpt lat="48.75289" lon="-1.40156">
        <ele>106.6</ele>
        <time>2024-01-25T14:33:42Z</time>
      </trkpt>
      <trkpt lat="48.75284" lon="-1.40164">
        <ele>106.6</ele>
        <time>2024-01-25T14:33:43Z</time>
      </trkpt>
      <trkpt lat="48.7528" lon="-1.40171">
        <ele>106.5</ele>
        <time>2024-01-25T14:33:44Z</time>
      </trkpt>
      <trkpt lat="48.75275" lon="-1.40179">
        <ele>106.5</ele>
        <time>2024-01-25T14:33:45Z</time>
      </trkpt>
      <trkpt lat="48.7527" lon="-1.40187">
        <ele>106.5</ele>
        <time>2024-01-25T14:33:46Z</time>
      </trkpt>
      <trkpt lat="48.75266" lon="-1.40194">
        <ele>106.4</ele>
        <time>2024-01-25T14:33:47Z</time>
      </trkpt>
      <trkpt lat="48.75261" lon="-1.40203">
        <ele>106.4</ele>
        <time>2024-01-25T14:33:48Z</time>
      </trkpt>
      <trkpt lat="48.75256" lon="-1.40211">
        <ele>106.4</ele>
        <time>2024-01-25T14:33:49Z</time>
      </trkpt>
      <trkpt lat="48.75252" lon="-1.40218">
        <ele>106.3</ele>
        <time>2024-01-25T14:33:50Z</time>
      </trkpt>
      <trkpt lat="48.75247" lon="-1.40225">
        <ele>106.2</ele>
        <time>2024-01-25T14:33:51Z</time>
      </trkpt>
      <trkpt lat="48.75242" lon="-1.40232">
        <ele>106.2</ele>
        <time>2024-01-25T14:33:52Z</time>
      </trkpt>
      <trkpt lat="48.75238" lon="-1.40239">
        <ele>106.1</ele>
        <time>2024-01-25T14:33:53Z</time>
      </trkpt>
      <trkpt lat="48.75233" lon="-1.40246">
        <ele>106.1</ele>
        <time>2024-01-25T14:33:54Z</time>
      </trkpt>
      <trkpt lat="48.75228" lon="-1.40254">
        <ele>106</ele>
        <time>2024-01-25T14:33:55Z</time>
      </trkpt>
      <trkpt lat="48.75223" lon="-1.4026">
        <ele>106</ele>
        <time>2024-01-25T14:33:56Z</time>
      </trkpt>
      <trkpt lat="48.75218" lon="-1.40268">
        <ele>105.9</ele>
        <time>2024-01-25T14:33:57Z</time>
      </trkpt>
      <trkpt lat="48.75214" lon="-1.40276">
        <ele>105.9</ele>
        <time>2024-01-25T14:33:58Z</time>
      </trkpt>
      <trkpt lat="48.75209" lon="-1.40284">
        <ele>105.9</ele>
        <time>2024-01-25T14:33:59Z</time>
      </trkpt>
      <trkpt lat="48.75204" lon="-1.40291">
        <ele>105.8</ele>
        <time>2024-01-25T14:34:00Z</time>
      </trkpt>
      <trkpt lat="48.752" lon="-1.40298">
        <ele>105.8</ele>
        <time>2024-01-25T14:34:01Z</time>
      </trkpt>
      <trkpt lat="48.75195" lon="-1.40305">
        <ele>105.8</ele>
        <time>2024-01-25T14:34:02Z</time>
      </trkpt>
      <trkpt lat="48.7519" lon="-1.40312">
        <ele>105.8</ele>
        <time>2024-01-25T14:34:03Z</time>
      </trkpt>
      <trkpt lat="48.75186" lon="-1.40318">
        <ele>105.8</ele>
        <time>2024-01-25T14:34:04Z</time>
      </trkpt>
      <trkpt lat="48.7518" lon="-1.40324">
        <ele>105.7</ele>
        <time>2024-01-25T14:34:05Z</time>
      </trkpt>
      <trkpt lat="48.75175" lon="-1.4033">
        <ele>105.7</ele>
        <time>2024-01-25T14:34:06Z</time>
      </trkpt>
      <trkpt lat="48.75169" lon="-1.40335">
        <ele>105.7</ele>
        <time>2024-01-25T14:34:07Z</time>
      </trkpt>
      <trkpt lat="48.75163" lon="-1.4034">
        <ele>105.7</ele>
        <time>2024-01-25T14:34:08Z</time>
      </trkpt>
      <trkpt lat="48.75158" lon="-1.40346">
        <ele>105.6</ele>
        <time>2024-01-25T14:34:09Z</time>
      </trkpt>
      <trkpt lat="48.75153" lon="-1.40352">
        <ele>105.6</ele>
        <time>2024-01-25T14:34:10Z</time>
      </trkpt>
      <trkpt lat="48.75147" lon="-1.40357">
        <ele>105.5</ele>
        <time>2024-01-25T14:34:11Z</time>
      </trkpt>
      <trkpt lat="48.75141" lon="-1.40362">
        <ele>105.5</ele>
        <time>2024-01-25T14:34:12Z</time>
      </trkpt>
      <trkpt lat="48.75136" lon="-1.40367">
        <ele>105.4</ele>
        <time>2024-01-25T14:34:13Z</time>
      </trkpt>
      <trkpt lat="48.7513" lon="-1.40372">
        <ele>105.4</ele>
        <time>2024-01-25T14:34:14Z</time>
      </trkpt>
      <trkpt lat="48.75124" lon="-1.40377">
        <ele>105.3</ele>
        <time>2024-01-25T14:34:15Z</time>
      </trkpt>
      <trkpt lat="48.75118" lon="-1.40382">
        <ele>105.2</ele>
        <time>2024-01-25T14:34:16Z</time>
      </trkpt>
      <trkpt lat="48.75112" lon="-1.40387">
        <ele>105.2</ele>
        <time>2024-01-25T14:34:17Z</time>
      </trkpt>
      <trkpt lat="48.75106" lon="-1.40393">
        <ele>105.1</ele>
        <time>2024-01-25T14:34:18Z</time>
      </trkpt>
      <trkpt lat="48.751" lon="-1.40399">
        <ele>105.1</ele>
        <time>2024-01-25T14:34:19Z</time>
      </trkpt>
      <trkpt lat="48.75094" lon="-1.40404">
        <ele>105.1</ele>
        <time>2024-01-25T14:34:20Z</time>
      </trkpt>
      <trkpt lat="48.75088" lon="-1.4041">
        <ele>105.1</ele>
        <time>2024-01-25T14:34:21Z</time>
      </trkpt>
      <trkpt lat="48.75083" lon="-1.40415">
        <ele>105.1</ele>
        <time>2024-01-25T14:34:22Z</time>
      </trkpt>
      <trkpt lat="48.75077" lon="-1.4042">
        <ele>105</ele>
        <time>2024-01-25T14:34:23Z</time>
      </trkpt>
      <trkpt lat="48.75071" lon="-1.40426">
        <ele>105</ele>
        <time>2024-01-25T14:34:24Z</time>
      </trkpt>
      <trkpt lat="48.75065" lon="-1.40432">
        <ele>104.9</ele>
        <time>2024-01-25T14:34:25Z</time>
      </trkpt>
      <trkpt lat="48.75059" lon="-1.40438">
        <ele>104.9</ele>
        <time>2024-01-25T14:34:26Z</time>
      </trkpt>
      <trkpt lat="48.75053" lon="-1.40443">
        <ele>104.9</ele>
        <time>2024-01-25T14:34:27Z</time>
      </trkpt>
      <trkpt lat="48.75047" lon="-1.40449">
        <ele>104.9</ele>
        <time>2024-01-25T14:34:28Z</time>
      </trkpt>
      <trkpt lat="48.75041" lon="-1.40454">
        <ele>104.9</ele>
        <time>2024-01-25T14:34:29Z</time>
      </trkpt>
      <trkpt lat="48.75035" lon="-1.40459">
        <ele>104.9</ele>
        <time>2024-01-25T14:34:30Z</time>
      </trkpt>
      <trkpt lat="48.75029" lon="-1.40464">
        <ele>105</ele>
        <time>2024-01-25T14:34:31Z</time>
      </trkpt>
      <trkpt lat="48.75023" lon="-1.40468">
        <ele>105.1</ele>
        <time>2024-01-25T14:34:32Z</time>
      </trkpt>
      <trkpt lat="48.75017" lon="-1.40473">
        <ele>105.2</ele>
        <time>2024-01-25T14:34:33Z</time>
      </trkpt>
      <trkpt lat="48.75012" lon="-1.40478">
        <ele>105.3</ele>
        <time>2024-01-25T14:34:34Z</time>
      </trkpt>
      <trkpt lat="48.75006" lon="-1.40483">
        <ele>105.4</ele>
        <time>2024-01-25T14:34:35Z</time>
      </trkpt>
      <trkpt lat="48.75001" lon="-1.40488">
        <ele>105.5</ele>
        <time>2024-01-25T14:34:36Z</time>
      </trkpt>
      <trkpt lat="48.74995" lon="-1.40493">
        <ele>105.7</ele>
        <time>2024-01-25T14:34:37Z</time>
      </trkpt>
      <trkpt lat="48.7499" lon="-1.40497">
        <ele>105.8</ele>
        <time>2024-01-25T14:34:38Z</time>
      </trkpt>
      <trkpt lat="48.74985" lon="-1.40503">
        <ele>105.9</ele>
        <time>2024-01-25T14:34:39Z</time>
      </trkpt>
      <trkpt lat="48.7498" lon="-1.40507">
        <ele>106.1</ele>
        <time>2024-01-25T14:34:40Z</time>
      </trkpt>
      <trkpt lat="48.74975" lon="-1.40512">
        <ele>106.2</ele>
        <time>2024-01-25T14:34:41Z</time>
      </trkpt>
      <trkpt lat="48.7497" lon="-1.40516">
        <ele>106.4</ele>
        <time>2024-01-25T14:34:42Z</time>
      </trkpt>
      <trkpt lat="48.74964" lon="-1.4052">
        <ele>106.5</ele>
        <time>2024-01-25T14:34:43Z</time>
      </trkpt>
      <trkpt lat="48.74959" lon="-1.40525">
        <ele>106.7</ele>
        <time>2024-01-25T14:34:44Z</time>
      </trkpt>
      <trkpt lat="48.74955" lon="-1.4053">
        <ele>106.8</ele>
        <time>2024-01-25T14:34:45Z</time>
      </trkpt>
      <trkpt lat="48.7495" lon="-1.40534">
        <ele>107</ele>
        <time>2024-01-25T14:34:46Z</time>
      </trkpt>
      <trkpt lat="48.74945" lon="-1.40539">
        <ele>107.1</ele>
        <time>2024-01-25T14:34:47Z</time>
      </trkpt>
      <trkpt lat="48.7494" lon="-1.40543">
        <ele>107.3</ele>
        <time>2024-01-25T14:34:48Z</time>
      </trkpt>
      <trkpt lat="48.74935" lon="-1.40546">
        <ele>107.5</ele>
        <time>2024-01-25T14:34:49Z</time>
      </trkpt>
      <trkpt lat="48.7493" lon="-1.4055">
        <ele>107.7</ele>
        <time>2024-01-25T14:34:50Z</time>
      </trkpt>
      <trkpt lat="48.74925" lon="-1.40554">
        <ele>107.8</ele>
        <time>2024-01-25T14:34:51Z</time>
      </trkpt>
      <trkpt lat="48.74921" lon="-1.40558">
        <ele>108</ele>
        <time>2024-01-25T14:34:52Z</time>
      </trkpt>
      <trkpt lat="48.74916" lon="-1.40561">
        <ele>108.2</ele>
        <time>2024-01-25T14:34:53Z</time>
      </trkpt>
      <trkpt lat="48.74911" lon="-1.40565">
        <ele>108.3</ele>
        <time>2024-01-25T14:34:54Z</time>
      </trkpt>
      <trkpt lat="48.74907" lon="-1.40568">
        <ele>108.5</ele>
        <time>2024-01-25T14:34:55Z</time>
      </trkpt>
      <trkpt lat="48.74902" lon="-1.40572">
        <ele>108.7</ele>
        <time>2024-01-25T14:34:56Z</time>
      </trkpt>
      <trkpt lat="48.74897" lon="-1.40577">
        <ele>108.8</ele>
        <time>2024-01-25T14:34:57Z</time>
      </trkpt>
      <trkpt lat="48.74892" lon="-1.40581">
        <ele>109</ele>
        <time>2024-01-25T14:34:58Z</time>
      </trkpt>
      <trkpt lat="48.74888" lon="-1.40585">
        <ele>109.1</ele>
        <time>2024-01-25T14:34:59Z</time>
      </trkpt>
      <trkpt lat="48.74884" lon="-1.40589">
        <ele>109.3</ele>
        <time>2024-01-25T14:35:00Z</time>
      </trkpt>
      <trkpt lat="48.74879" lon="-1.40593">
        <ele>109.4</ele>
        <time>2024-01-25T14:35:01Z</time>
      </trkpt>
      <trkpt lat="48.74875" lon="-1.40595">
        <ele>109.6</ele>
        <time>2024-01-25T14:35:02Z</time>
      </trkpt>
      <trkpt lat="48.74871" lon="-1.40599">
        <ele>109.7</ele>
        <time>2024-01-25T14:35:03Z</time>
      </trkpt>
      <trkpt lat="48.74866" lon="-1.40602">
        <ele>109.9</ele>
        <time>2024-01-25T14:35:04Z</time>
      </trkpt>
      <trkpt lat="48.74862" lon="-1.40607">
        <ele>110</ele>
        <time>2024-01-25T14:35:05Z</time>
      </trkpt>
      <trkpt lat="48.74858" lon="-1.4061">
        <ele>110.2</ele>
        <time>2024-01-25T14:35:06Z</time>
      </trkpt>
      <trkpt lat="48.74854" lon="-1.40615">
        <ele>110.4</ele>
        <time>2024-01-25T14:35:07Z</time>
      </trkpt>
      <trkpt lat="48.7485" lon="-1.40618">
        <ele>110.6</ele>
        <time>2024-01-25T14:35:08Z</time>
      </trkpt>
      <trkpt lat="48.74846" lon="-1.40622">
        <ele>110.8</ele>
        <time>2024-01-25T14:35:09Z</time>
      </trkpt>
      <trkpt lat="48.74842" lon="-1.40624">
        <ele>111</ele>
        <time>2024-01-25T14:35:10Z</time>
      </trkpt>
      <trkpt lat="48.74838" lon="-1.40628">
        <ele>111.1</ele>
        <time>2024-01-25T14:35:11Z</time>
      </trkpt>
      <trkpt lat="48.74833" lon="-1.40632">
        <ele>111.2</ele>
        <time>2024-01-25T14:35:12Z</time>
      </trkpt>
      <trkpt lat="48.74829" lon="-1.40636">
        <ele>111.3</ele>
        <time>2024-01-25T14:35:13Z</time>
      </trkpt>
      <trkpt lat="48.74825" lon="-1.4064">
        <ele>111.4</ele>
        <time>2024-01-25T14:35:14Z</time>
      </trkpt>
      <trkpt lat="48.74821" lon="-1.40644">
        <ele>111.5</ele>
        <time>2024-01-25T14:35:15Z</time>
      </trkpt>
      <trkpt lat="48.74816" lon="-1.40648">
        <ele>111.6</ele>
        <time>2024-01-25T14:35:16Z</time>
      </trkpt>
      <trkpt lat="48.74812" lon="-1.40652">
        <ele>111.7</ele>
        <time>2024-01-25T14:35:17Z</time>
      </trkpt>
      <trkpt lat="48.74808" lon="-1.40656">
        <ele>111.9</ele>
        <time>2024-01-25T14:35:18Z</time>
      </trkpt>
      <trkpt lat="48.74803" lon="-1.4066">
        <ele>112</ele>
        <time>2024-01-25T14:35:19Z</time>
      </trkpt>
      <trkpt lat="48.74799" lon="-1.40664">
        <ele>112.1</ele>
        <time>2024-01-25T14:35:20Z</time>
      </trkpt>
      <trkpt lat="48.74795" lon="-1.40669">
        <ele>112.2</ele>
        <time>2024-01-25T14:35:21Z</time>
      </trkpt>
      <trkpt lat="48.74791" lon="-1.40674">
        <ele>112.3</ele>
        <time>2024-01-25T14:35:22Z</time>
      </trkpt>
      <trkpt lat="48.74786" lon="-1.40679">
        <ele>112.4</ele>
        <time>2024-01-25T14:35:23Z</time>
      </trkpt>
      <trkpt lat="48.74782" lon="-1.40685">
        <ele>112.4</ele>
        <time>2024-01-25T14:35:24Z</time>
      </trkpt>
      <trkpt lat="48.74778" lon="-1.40691">
        <ele>112.5</ele>
        <time>2024-01-25T14:35:25Z</time>
      </trkpt>
      <trkpt lat="48.74774" lon="-1.40696">
        <ele>112.6</ele>
        <time>2024-01-25T14:35:26Z</time>
      </trkpt>
      <trkpt lat="48.7477" lon="-1.40702">
        <ele>112.6</ele>
        <time>2024-01-25T14:35:27Z</time>
      </trkpt>
      <trkpt lat="48.74765" lon="-1.40707">
        <ele>112.6</ele>
        <time>2024-01-25T14:35:28Z</time>
      </trkpt>
      <trkpt lat="48.74761" lon="-1.40713">
        <ele>112.7</ele>
        <time>2024-01-25T14:35:29Z</time>
      </trkpt>
      <trkpt lat="48.74757" lon="-1.40719">
        <ele>112.7</ele>
        <time>2024-01-25T14:35:30Z</time>
      </trkpt>
      <trkpt lat="48.74752" lon="-1.40725">
        <ele>112.6</ele>
        <time>2024-01-25T14:35:31Z</time>
      </trkpt>
      <trkpt lat="48.74748" lon="-1.40731">
        <ele>112.6</ele>
        <time>2024-01-25T14:35:32Z</time>
      </trkpt>
      <trkpt lat="48.74744" lon="-1.40737">
        <ele>112.6</ele>
        <time>2024-01-25T14:35:33Z</time>
      </trkpt>
      <trkpt lat="48.7474" lon="-1.40744">
        <ele>112.5</ele>
        <time>2024-01-25T14:35:34Z</time>
      </trkpt>
      <trkpt lat="48.74736" lon="-1.4075">
        <ele>112.4</ele>
        <time>2024-01-25T14:35:35Z</time>
      </trkpt>
      <trkpt lat="48.74732" lon="-1.40757">
        <ele>112.4</ele>
        <time>2024-01-25T14:35:36Z</time>
      </trkpt>
      <trkpt lat="48.74728" lon="-1.40764">
        <ele>112.3</ele>
        <time>2024-01-25T14:35:37Z</time>
      </trkpt>
      <trkpt lat="48.74724" lon="-1.40771">
        <ele>112.2</ele>
        <time>2024-01-25T14:35:38Z</time>
      </trkpt>
      <trkpt lat="48.7472" lon="-1.40778">
        <ele>112.1</ele>
        <time>2024-01-25T14:35:39Z</time>
      </trkpt>
      <trkpt lat="48.74717" lon="-1.40784">
        <ele>112</ele>
        <time>2024-01-25T14:35:40Z</time>
      </trkpt>
      <trkpt lat="48.74713" lon="-1.40791">
        <ele>111.9</ele>
        <time>2024-01-25T14:35:41Z</time>
      </trkpt>
      <trkpt lat="48.74709" lon="-1.40798">
        <ele>111.8</ele>
        <time>2024-01-25T14:35:42Z</time>
      </trkpt>
      <trkpt lat="48.74706" lon="-1.40805">
        <ele>111.7</ele>
        <time>2024-01-25T14:35:43Z</time>
      </trkpt>
      <trkpt lat="48.74704" lon="-1.40812">
        <ele>111.6</ele>
        <time>2024-01-25T14:35:44Z</time>
      </trkpt>
      <trkpt lat="48.74701" lon="-1.40819">
        <ele>111.6</ele>
        <time>2024-01-25T14:35:45Z</time>
      </trkpt>
      <trkpt lat="48.74698" lon="-1.40826">
        <ele>111.5</ele>
        <time>2024-01-25T14:35:46Z</time>
      </trkpt>
      <trkpt lat="48.74695" lon="-1.40834">
        <ele>111.4</ele>
        <time>2024-01-25T14:35:47Z</time>
      </trkpt>
      <trkpt lat="48.74692" lon="-1.40841">
        <ele>111.3</ele>
        <time>2024-01-25T14:35:48Z</time>
      </trkpt>
      <trkpt lat="48.74689" lon="-1.40849">
        <ele>111.1</ele>
        <time>2024-01-25T14:35:49Z</time>
      </trkpt>
      <trkpt lat="48.74687" lon="-1.40857">
        <ele>111</ele>
        <time>2024-01-25T14:35:50Z</time>
      </trkpt>
      <trkpt lat="48.74683" lon="-1.40865">
        <ele>110.9</ele>
        <time>2024-01-25T14:35:51Z</time>
      </trkpt>
      <trkpt lat="48.7468" lon="-1.40874">
        <ele>110.7</ele>
        <time>2024-01-25T14:35:52Z</time>
      </trkpt>
      <trkpt lat="48.74677" lon="-1.40883">
        <ele>110.6</ele>
        <time>2024-01-25T14:35:53Z</time>
      </trkpt>
      <trkpt lat="48.74674" lon="-1.40892">
        <ele>110.5</ele>
        <time>2024-01-25T14:35:54Z</time>
      </trkpt>
      <trkpt lat="48.7467" lon="-1.40901">
        <ele>110.3</ele>
        <time>2024-01-25T14:35:55Z</time>
      </trkpt>
      <trkpt lat="48.74667" lon="-1.40909">
        <ele>110.2</ele>
        <time>2024-01-25T14:35:56Z</time>
      </trkpt>
      <trkpt lat="48.74663" lon="-1.40918">
        <ele>110.1</ele>
        <time>2024-01-25T14:35:57Z</time>
      </trkpt>
      <trkpt lat="48.7466" lon="-1.40927">
        <ele>110</ele>
        <time>2024-01-25T14:35:58Z</time>
      </trkpt>
      <trkpt lat="48.74657" lon="-1.40936">
        <ele>109.9</ele>
        <time>2024-01-25T14:35:59Z</time>
      </trkpt>
      <trkpt lat="48.74653" lon="-1.40944">
        <ele>109.8</ele>
        <time>2024-01-25T14:36:00Z</time>
      </trkpt>
      <trkpt lat="48.74649" lon="-1.40952">
        <ele>109.7</ele>
        <time>2024-01-25T14:36:01Z</time>
      </trkpt>
      <trkpt lat="48.74645" lon="-1.40961">
        <ele>109.5</ele>
        <time>2024-01-25T14:36:02Z</time>
      </trkpt>
      <trkpt lat="48.74641" lon="-1.4097">
        <ele>109.4</ele>
        <time>2024-01-25T14:36:03Z</time>
      </trkpt>
      <trkpt lat="48.74636" lon="-1.40978">
        <ele>109.3</ele>
        <time>2024-01-25T14:36:04Z</time>
      </trkpt>
      <trkpt lat="48.74632" lon="-1.40987">
        <ele>109.3</ele>
        <time>2024-01-25T14:36:05Z</time>
      </trkpt>
      <trkpt lat="48.74628" lon="-1.40996">
        <ele>109.2</ele>
        <time>2024-01-25T14:36:06Z</time>
      </trkpt>
      <trkpt lat="48.74624" lon="-1.41005">
        <ele>109.2</ele>
        <time>2024-01-25T14:36:07Z</time>
      </trkpt>
      <trkpt lat="48.7462" lon="-1.41015">
        <ele>109.1</ele>
        <time>2024-01-25T14:36:08Z</time>
      </trkpt>
      <trkpt lat="48.74617" lon="-1.41024">
        <ele>109.1</ele>
        <time>2024-01-25T14:36:09Z</time>
      </trkpt>
      <trkpt lat="48.74613" lon="-1.41034">
        <ele>109.1</ele>
        <time>2024-01-25T14:36:10Z</time>
      </trkpt>
      <trkpt lat="48.74609" lon="-1.41043">
        <ele>109</ele>
        <time>2024-01-25T14:36:11Z</time>
      </trkpt>
      <trkpt lat="48.74605" lon="-1.41051">
        <ele>109</ele>
        <time>2024-01-25T14:36:12Z</time>
      </trkpt>
      <trkpt lat="48.74601" lon="-1.4106">
        <ele>109</ele>
        <time>2024-01-25T14:36:13Z</time>
      </trkpt>
      <trkpt lat="48.74597" lon="-1.41069">
        <ele>109</ele>
        <time>2024-01-25T14:36:14Z</time>
      </trkpt>
      <trkpt lat="48.74593" lon="-1.41078">
        <ele>109</ele>
        <time>2024-01-25T14:36:15Z</time>
      </trkpt>
      <trkpt lat="48.74589" lon="-1.41086">
        <ele>109</ele>
        <time>2024-01-25T14:36:16Z</time>
      </trkpt>
      <trkpt lat="48.74585" lon="-1.41095">
        <ele>109</ele>
        <time>2024-01-25T14:36:17Z</time>
      </trkpt>
      <trkpt lat="48.74581" lon="-1.41103">
        <ele>109</ele>
        <time>2024-01-25T14:36:18Z</time>
      </trkpt>
      <trkpt lat="48.74577" lon="-1.41112">
        <ele>109</ele>
        <time>2024-01-25T14:36:19Z</time>
      </trkpt>
      <trkpt lat="48.74573" lon="-1.41121">
        <ele>109</ele>
        <time>2024-01-25T14:36:20Z</time>
      </trkpt>
      <trkpt lat="48.7457" lon="-1.4113">
        <ele>109</ele>
        <time>2024-01-25T14:36:21Z</time>
      </trkpt>
      <trkpt lat="48.74566" lon="-1.4114">
        <ele>109.1</ele>
        <time>2024-01-25T14:36:22Z</time>
      </trkpt>
      <trkpt lat="48.74563" lon="-1.41149">
        <ele>109.2</ele>
        <time>2024-01-25T14:36:23Z</time>
      </trkpt>
      <trkpt lat="48.7456" lon="-1.41158">
        <ele>109.2</ele>
        <time>2024-01-25T14:36:24Z</time>
      </trkpt>
      <trkpt lat="48.74556" lon="-1.41167">
        <ele>109.3</ele>
        <time>2024-01-25T14:36:25Z</time>
      </trkpt>
      <trkpt lat="48.74553" lon="-1.41175">
        <ele>109.4</ele>
        <time>2024-01-25T14:36:26Z</time>
      </trkpt>
      <trkpt lat="48.7455" lon="-1.41184">
        <ele>109.4</ele>
        <time>2024-01-25T14:36:27Z</time>
      </trkpt>
      <trkpt lat="48.74547" lon="-1.41193">
        <ele>109.5</ele>
        <time>2024-01-25T14:36:28Z</time>
      </trkpt>
      <trkpt lat="48.74544" lon="-1.41202">
        <ele>109.5</ele>
        <time>2024-01-25T14:36:29Z</time>
      </trkpt>
      <trkpt lat="48.74542" lon="-1.41211">
        <ele>109.5</ele>
        <time>2024-01-25T14:36:30Z</time>
      </trkpt>
      <trkpt lat="48.74539" lon="-1.4122">
        <ele>109.5</ele>
        <time>2024-01-25T14:36:31Z</time>
      </trkpt>
      <trkpt lat="48.74536" lon="-1.4123">
        <ele>109.5</ele>
        <time>2024-01-25T14:36:32Z</time>
      </trkpt>
      <trkpt lat="48.74533" lon="-1.41239">
        <ele>109.5</ele>
        <time>2024-01-25T14:36:33Z</time>
      </trkpt>
      <trkpt lat="48.7453" lon="-1.41248">
        <ele>109.6</ele>
        <time>2024-01-25T14:36:34Z</time>
      </trkpt>
      <trkpt lat="48.74527" lon="-1.41257">
        <ele>109.6</ele>
        <time>2024-01-25T14:36:35Z</time>
      </trkpt>
      <trkpt lat="48.74524" lon="-1.41266">
        <ele>109.6</ele>
        <time>2024-01-25T14:36:36Z</time>
      </trkpt>
      <trkpt lat="48.7452" lon="-1.41275">
        <ele>109.6</ele>
        <time>2024-01-25T14:36:37Z</time>
      </trkpt>
      <trkpt lat="48.74517" lon="-1.41285">
        <ele>109.6</ele>
        <time>2024-01-25T14:36:38Z</time>
      </trkpt>
      <trkpt lat="48.74514" lon="-1.41294">
        <ele>109.6</ele>
        <time>2024-01-25T14:36:39Z</time>
      </trkpt>
      <trkpt lat="48.7451" lon="-1.41303">
        <ele>109.6</ele>
        <time>2024-01-25T14:36:40Z</time>
      </trkpt>
      <trkpt lat="48.74506" lon="-1.41311">
        <ele>109.7</ele>
        <time>2024-01-25T14:36:41Z</time>
      </trkpt>
      <trkpt lat="48.74501" lon="-1.41318">
        <ele>109.7</ele>
        <time>2024-01-25T14:36:42Z</time>
      </trkpt>
      <trkpt lat="48.74496" lon="-1.41326">
        <ele>109.7</ele>
        <time>2024-01-25T14:36:43Z</time>
      </trkpt>
      <trkpt lat="48.74491" lon="-1.41334">
        <ele>109.8</ele>
        <time>2024-01-25T14:36:44Z</time>
      </trkpt>
      <trkpt lat="48.74486" lon="-1.41342">
        <ele>109.8</ele>
        <time>2024-01-25T14:36:45Z</time>
      </trkpt>
      <trkpt lat="48.74481" lon="-1.41349">
        <ele>109.9</ele>
        <time>2024-01-25T14:36:46Z</time>
      </trkpt>
      <trkpt lat="48.74476" lon="-1.41355">
        <ele>110</ele>
        <time>2024-01-25T14:36:47Z</time>
      </trkpt>
      <trkpt lat="48.74472" lon="-1.41361">
        <ele>110</ele>
        <time>2024-01-25T14:36:48Z</time>
      </trkpt>
      <trkpt lat="48.74467" lon="-1.41367">
        <ele>110.1</ele>
        <time>2024-01-25T14:36:49Z</time>
      </trkpt>
      <trkpt lat="48.74462" lon="-1.41373">
        <ele>110.2</ele>
        <time>2024-01-25T14:36:50Z</time>
      </trkpt>
      <trkpt lat="48.74458" lon="-1.41379">
        <ele>110.3</ele>
        <time>2024-01-25T14:36:51Z</time>
      </trkpt>
      <trkpt lat="48.74453" lon="-1.41385">
        <ele>110.3</ele>
        <time>2024-01-25T14:36:52Z</time>
      </trkpt>
      <trkpt lat="48.74448" lon="-1.4139">
        <ele>110.3</ele>
        <time>2024-01-25T14:36:53Z</time>
      </trkpt>
      <trkpt lat="48.74443" lon="-1.41396">
        <ele>110.4</ele>
        <time>2024-01-25T14:36:54Z</time>
      </trkpt>
      <trkpt lat="48.74438" lon="-1.41402">
        <ele>110.4</ele>
        <time>2024-01-25T14:36:55Z</time>
      </trkpt>
      <trkpt lat="48.74433" lon="-1.41409">
        <ele>110.5</ele>
        <time>2024-01-25T14:36:56Z</time>
      </trkpt>
      <trkpt lat="48.74428" lon="-1.41415">
        <ele>110.6</ele>
        <time>2024-01-25T14:36:57Z</time>
      </trkpt>
      <trkpt lat="48.74423" lon="-1.41421">
        <ele>110.6</ele>
        <time>2024-01-25T14:36:58Z</time>
      </trkpt>
      <trkpt lat="48.74419" lon="-1.41427">
        <ele>110.6</ele>
        <time>2024-01-25T14:36:59Z</time>
      </trkpt>
      <trkpt lat="48.74414" lon="-1.41434">
        <ele>110.6</ele>
        <time>2024-01-25T14:37:00Z</time>
      </trkpt>
      <trkpt lat="48.74409" lon="-1.4144">
        <ele>110.5</ele>
        <time>2024-01-25T14:37:01Z</time>
      </trkpt>
      <trkpt lat="48.74404" lon="-1.41447">
        <ele>110.5</ele>
        <time>2024-01-25T14:37:02Z</time>
      </trkpt>
      <trkpt lat="48.74399" lon="-1.41454">
        <ele>110.4</ele>
        <time>2024-01-25T14:37:03Z</time>
      </trkpt>
      <trkpt lat="48.74394" lon="-1.41461">
        <ele>110.3</ele>
        <time>2024-01-25T14:37:04Z</time>
      </trkpt>
      <trkpt lat="48.74388" lon="-1.41468">
        <ele>110.2</ele>
        <time>2024-01-25T14:37:05Z</time>
      </trkpt>
      <trkpt lat="48.74383" lon="-1.41476">
        <ele>110.2</ele>
        <time>2024-01-25T14:37:06Z</time>
      </trkpt>
      <trkpt lat="48.74378" lon="-1.41483">
        <ele>110.1</ele>
        <time>2024-01-25T14:37:07Z</time>
      </trkpt>
      <trkpt lat="48.74372" lon="-1.41491">
        <ele>109.9</ele>
        <time>2024-01-25T14:37:08Z</time>
      </trkpt>
      <trkpt lat="48.74367" lon="-1.41499">
        <ele>109.8</ele>
        <time>2024-01-25T14:37:09Z</time>
      </trkpt>
      <trkpt lat="48.74361" lon="-1.41506">
        <ele>109.6</ele>
        <time>2024-01-25T14:37:10Z</time>
      </trkpt>
      <trkpt lat="48.74356" lon="-1.41514">
        <ele>109.5</ele>
        <time>2024-01-25T14:37:11Z</time>
      </trkpt>
      <trkpt lat="48.7435" lon="-1.41522">
        <ele>109.3</ele>
        <time>2024-01-25T14:37:12Z</time>
      </trkpt>
      <trkpt lat="48.74345" lon="-1.41529">
        <ele>109.2</ele>
        <time>2024-01-25T14:37:13Z</time>
      </trkpt>
      <trkpt lat="48.74339" lon="-1.41536">
        <ele>109.1</ele>
        <time>2024-01-25T14:37:14Z</time>
      </trkpt>
      <trkpt lat="48.74334" lon="-1.41543">
        <ele>108.9</ele>
        <time>2024-01-25T14:37:15Z</time>
      </trkpt>
      <trkpt lat="48.74328" lon="-1.41549">
        <ele>108.7</ele>
        <time>2024-01-25T14:37:16Z</time>
      </trkpt>
      <trkpt lat="48.74322" lon="-1.41555">
        <ele>108.5</ele>
        <time>2024-01-25T14:37:17Z</time>
      </trkpt>
      <trkpt lat="48.74316" lon="-1.41561">
        <ele>108.2</ele>
        <time>2024-01-25T14:37:18Z</time>
      </trkpt>
      <trkpt lat="48.74309" lon="-1.41567">
        <ele>107.9</ele>
        <time>2024-01-25T14:37:19Z</time>
      </trkpt>
      <trkpt lat="48.74303" lon="-1.41572">
        <ele>107.6</ele>
        <time>2024-01-25T14:37:20Z</time>
      </trkpt>
      <trkpt lat="48.74296" lon="-1.41578">
        <ele>107.2</ele>
        <time>2024-01-25T14:37:21Z</time>
      </trkpt>
      <trkpt lat="48.74289" lon="-1.41584">
        <ele>106.8</ele>
        <time>2024-01-25T14:37:22Z</time>
      </trkpt>
      <trkpt lat="48.74282" lon="-1.4159">
        <ele>106.4</ele>
        <time>2024-01-25T14:37:23Z</time>
      </trkpt>
      <trkpt lat="48.74275" lon="-1.41596">
        <ele>106</ele>
        <time>2024-01-25T14:37:24Z</time>
      </trkpt>
      <trkpt lat="48.74267" lon="-1.41602">
        <ele>105.6</ele>
        <time>2024-01-25T14:37:25Z</time>
      </trkpt>
      <trkpt lat="48.7426" lon="-1.41608">
        <ele>105.2</ele>
        <time>2024-01-25T14:37:26Z</time>
      </trkpt>
      <trkpt lat="48.74252" lon="-1.41615">
        <ele>104.7</ele>
        <time>2024-01-25T14:37:27Z</time>
      </trkpt>
      <trkpt lat="48.74244" lon="-1.41621">
        <ele>104.1</ele>
        <time>2024-01-25T14:37:28Z</time>
      </trkpt>
      <trkpt lat="48.74236" lon="-1.41627">
        <ele>103.5</ele>
        <time>2024-01-25T14:37:29Z</time>
      </trkpt>
      <trkpt lat="48.74227" lon="-1.41632">
        <ele>103</ele>
        <time>2024-01-25T14:37:30Z</time>
      </trkpt>
      <trkpt lat="48.74219" lon="-1.41638">
        <ele>102.4</ele>
        <time>2024-01-25T14:37:31Z</time>
      </trkpt>
      <trkpt lat="48.7421" lon="-1.41644">
        <ele>101.8</ele>
        <time>2024-01-25T14:37:32Z</time>
      </trkpt>
      <trkpt lat="48.74202" lon="-1.41651">
        <ele>101.2</ele>
        <time>2024-01-25T14:37:33Z</time>
      </trkpt>
      <trkpt lat="48.74193" lon="-1.41657">
        <ele>100.7</ele>
        <time>2024-01-25T14:37:34Z</time>
      </trkpt>
      <trkpt lat="48.74185" lon="-1.41664">
        <ele>100.2</ele>
        <time>2024-01-25T14:37:35Z</time>
      </trkpt>
      <trkpt lat="48.74177" lon="-1.41671">
        <ele>99.7</ele>
        <time>2024-01-25T14:37:36Z</time>
      </trkpt>
      <trkpt lat="48.74169" lon="-1.41678">
        <ele>99.3</ele>
        <time>2024-01-25T14:37:37Z</time>
      </trkpt>
      <trkpt lat="48.74161" lon="-1.41685">
        <ele>98.8</ele>
        <time>2024-01-25T14:37:38Z</time>
      </trkpt>
      <trkpt lat="48.74153" lon="-1.41691">
        <ele>98.4</ele>
        <time>2024-01-25T14:37:39Z</time>
      </trkpt>
      <trkpt lat="48.74146" lon="-1.41698">
        <ele>98</ele>
        <time>2024-01-25T14:37:40Z</time>
      </trkpt>
      <trkpt lat="48.74138" lon="-1.41704">
        <ele>97.6</ele>
        <time>2024-01-25T14:37:41Z</time>
      </trkpt>
      <trkpt lat="48.7413" lon="-1.41711">
        <ele>97.2</ele>
        <time>2024-01-25T14:37:42Z</time>
      </trkpt>
      <trkpt lat="48.74123" lon="-1.41718">
        <ele>96.9</ele>
        <time>2024-01-25T14:37:43Z</time>
      </trkpt>
      <trkpt lat="48.74115" lon="-1.41725">
        <ele>96.5</ele>
        <time>2024-01-25T14:37:44Z</time>
      </trkpt>
      <trkpt lat="48.74108" lon="-1.41732">
        <ele>96.2</ele>
        <time>2024-01-25T14:37:45Z</time>
      </trkpt>
      <trkpt lat="48.741" lon="-1.41738">
        <ele>95.9</ele>
        <time>2024-01-25T14:37:46Z</time>
      </trkpt>
      <trkpt lat="48.74093" lon="-1.41745">
        <ele>95.6</ele>
        <time>2024-01-25T14:37:47Z</time>
      </trkpt>
      <trkpt lat="48.74086" lon="-1.41752">
        <ele>95.4</ele>
        <time>2024-01-25T14:37:48Z</time>
      </trkpt>
      <trkpt lat="48.74079" lon="-1.41759">
        <ele>95.2</ele>
        <time>2024-01-25T14:37:49Z</time>
      </trkpt>
      <trkpt lat="48.74071" lon="-1.41766">
        <ele>95.1</ele>
        <time>2024-01-25T14:37:50Z</time>
      </trkpt>
      <trkpt lat="48.74064" lon="-1.41773">
        <ele>94.9</ele>
        <time>2024-01-25T14:37:51Z</time>
      </trkpt>
      <trkpt lat="48.74057" lon="-1.4178">
        <ele>94.7</ele>
        <time>2024-01-25T14:37:52Z</time>
      </trkpt>
      <trkpt lat="48.7405" lon="-1.41788">
        <ele>94.5</ele>
        <time>2024-01-25T14:37:53Z</time>
      </trkpt>
      <trkpt lat="48.74043" lon="-1.41795">
        <ele>94.3</ele>
        <time>2024-01-25T14:37:54Z</time>
      </trkpt>
      <trkpt lat="48.74036" lon="-1.41803">
        <ele>94.1</ele>
        <time>2024-01-25T14:37:55Z</time>
      </trkpt>
      <trkpt lat="48.74029" lon="-1.41811">
        <ele>94</ele>
        <time>2024-01-25T14:37:56Z</time>
      </trkpt>
      <trkpt lat="48.74022" lon="-1.41818">
        <ele>93.8</ele>
        <time>2024-01-25T14:37:57Z</time>
      </trkpt>
      <trkpt lat="48.74014" lon="-1.41825">
        <ele>93.7</ele>
        <time>2024-01-25T14:37:58Z</time>
      </trkpt>
      <trkpt lat="48.74007" lon="-1.41832">
        <ele>93.5</ele>
        <time>2024-01-25T14:37:59Z</time>
      </trkpt>
      <trkpt lat="48.74" lon="-1.41838">
        <ele>93.4</ele>
        <time>2024-01-25T14:38:00Z</time>
      </trkpt>
      <trkpt lat="48.73992" lon="-1.41844">
        <ele>93.2</ele>
        <time>2024-01-25T14:38:01Z</time>
      </trkpt>
      <trkpt lat="48.73985" lon="-1.41849">
        <ele>93.1</ele>
        <time>2024-01-25T14:38:02Z</time>
      </trkpt>
      <trkpt lat="48.73978" lon="-1.41854">
        <ele>93</ele>
        <time>2024-01-25T14:38:03Z</time>
      </trkpt>
      <trkpt lat="48.73971" lon="-1.41859">
        <ele>92.9</ele>
        <time>2024-01-25T14:38:04Z</time>
      </trkpt>
      <trkpt lat="48.73964" lon="-1.41864">
        <ele>92.8</ele>
        <time>2024-01-25T14:38:05Z</time>
      </trkpt>
      <trkpt lat="48.73957" lon="-1.4187">
        <ele>92.7</ele>
        <time>2024-01-25T14:38:06Z</time>
      </trkpt>
      <trkpt lat="48.73949" lon="-1.41875">
        <ele>92.6</ele>
        <time>2024-01-25T14:38:07Z</time>
      </trkpt>
      <trkpt lat="48.7394" lon="-1.41879">
        <ele>92.5</ele>
        <time>2024-01-25T14:38:08Z</time>
      </trkpt>
      <trkpt lat="48.73933" lon="-1.41883">
        <ele>92.4</ele>
        <time>2024-01-25T14:38:09Z</time>
      </trkpt>
      <trkpt lat="48.73925" lon="-1.41887">
        <ele>92.3</ele>
        <time>2024-01-25T14:38:10Z</time>
      </trkpt>
      <trkpt lat="48.73918" lon="-1.4189">
        <ele>92.2</ele>
        <time>2024-01-25T14:38:11Z</time>
      </trkpt>
      <trkpt lat="48.73911" lon="-1.41893">
        <ele>92.1</ele>
        <time>2024-01-25T14:38:12Z</time>
      </trkpt>
      <trkpt lat="48.73903" lon="-1.41896">
        <ele>92.1</ele>
        <time>2024-01-25T14:38:13Z</time>
      </trkpt>
      <trkpt lat="48.73895" lon="-1.41898">
        <ele>92</ele>
        <time>2024-01-25T14:38:14Z</time>
      </trkpt>
      <trkpt lat="48.73887" lon="-1.41901">
        <ele>92</ele>
        <time>2024-01-25T14:38:15Z</time>
      </trkpt>
      <trkpt lat="48.7388" lon="-1.41904">
        <ele>91.9</ele>
        <time>2024-01-25T14:38:16Z</time>
      </trkpt>
      <trkpt lat="48.73872" lon="-1.41907">
        <ele>91.9</ele>
        <time>2024-01-25T14:38:17Z</time>
      </trkpt>
      <trkpt lat="48.73864" lon="-1.4191">
        <ele>91.9</ele>
        <time>2024-01-25T14:38:18Z</time>
      </trkpt>
      <trkpt lat="48.73857" lon="-1.41913">
        <ele>91.8</ele>
        <time>2024-01-25T14:38:19Z</time>
      </trkpt>
      <trkpt lat="48.7385" lon="-1.41915">
        <ele>91.9</ele>
        <time>2024-01-25T14:38:20Z</time>
      </trkpt>
      <trkpt lat="48.73843" lon="-1.41918">
        <ele>91.9</ele>
        <time>2024-01-25T14:38:21Z</time>
      </trkpt>
      <trkpt lat="48.73836" lon="-1.41921">
        <ele>91.9</ele>
        <time>2024-01-25T14:38:22Z</time>
      </trkpt>
      <trkpt lat="48.73829" lon="-1.41924">
        <ele>91.9</ele>
        <time>2024-01-25T14:38:23Z</time>
      </trkpt>
      <trkpt lat="48.73822" lon="-1.41928">
        <ele>91.8</ele>
        <time>2024-01-25T14:38:24Z</time>
      </trkpt>
      <trkpt lat="48.73816" lon="-1.41931">
        <ele>91.7</ele>
        <time>2024-01-25T14:38:25Z</time>
      </trkpt>
      <trkpt lat="48.7381" lon="-1.41935">
        <ele>91.6</ele>
        <time>2024-01-25T14:38:26Z</time>
      </trkpt>
      <trkpt lat="48.73804" lon="-1.41939">
        <ele>91.5</ele>
        <time>2024-01-25T14:38:27Z</time>
      </trkpt>
      <trkpt lat="48.73798" lon="-1.41943">
        <ele>91.4</ele>
        <time>2024-01-25T14:38:28Z</time>
      </trkpt>
      <trkpt lat="48.73792" lon="-1.41947">
        <ele>91.3</ele>
        <time>2024-01-25T14:38:29Z</time>
      </trkpt>
      <trkpt lat="48.73786" lon="-1.41952">
        <ele>91.1</ele>
        <time>2024-01-25T14:38:30Z</time>
      </trkpt>
      <trkpt lat="48.7378" lon="-1.41958">
        <ele>91</ele>
        <time>2024-01-25T14:38:31Z</time>
      </trkpt>
      <trkpt lat="48.73773" lon="-1.41963">
        <ele>90.8</ele>
        <time>2024-01-25T14:38:32Z</time>
      </trkpt>
      <trkpt lat="48.73766" lon="-1.41969">
        <ele>90.7</ele>
        <time>2024-01-25T14:38:33Z</time>
      </trkpt>
      <trkpt lat="48.7376" lon="-1.41975">
        <ele>90.5</ele>
        <time>2024-01-25T14:38:34Z</time>
      </trkpt>
      <trkpt lat="48.73753" lon="-1.41981">
        <ele>90.4</ele>
        <time>2024-01-25T14:38:35Z</time>
      </trkpt>
      <trkpt lat="48.73746" lon="-1.41987">
        <ele>90.3</ele>
        <time>2024-01-25T14:38:36Z</time>
      </trkpt>
      <trkpt lat="48.7374" lon="-1.41993">
        <ele>90.2</ele>
        <time>2024-01-25T14:38:37Z</time>
      </trkpt>
      <trkpt lat="48.73733" lon="-1.42">
        <ele>90</ele>
        <time>2024-01-25T14:38:38Z</time>
      </trkpt>
      <trkpt lat="48.73727" lon="-1.42006">
        <ele>89.8</ele>
        <time>2024-01-25T14:38:39Z</time>
      </trkpt>
      <trkpt lat="48.7372" lon="-1.42012">
        <ele>89.6</ele>
        <time>2024-01-25T14:38:40Z</time>
      </trkpt>
      <trkpt lat="48.73714" lon="-1.42018">
        <ele>89.3</ele>
        <time>2024-01-25T14:38:41Z</time>
      </trkpt>
      <trkpt lat="48.73708" lon="-1.42024">
        <ele>89.1</ele>
        <time>2024-01-25T14:38:42Z</time>
      </trkpt>
      <trkpt lat="48.73702" lon="-1.42031">
        <ele>88.9</ele>
        <time>2024-01-25T14:38:43Z</time>
      </trkpt>
      <trkpt lat="48.73695" lon="-1.42036">
        <ele>88.6</ele>
        <time>2024-01-25T14:38:44Z</time>
      </trkpt>
      <trkpt lat="48.73689" lon="-1.4204">
        <ele>88.4</ele>
        <time>2024-01-25T14:38:45Z</time>
      </trkpt>
      <trkpt lat="48.73683" lon="-1.42045">
        <ele>88.2</ele>
        <time>2024-01-25T14:38:46Z</time>
      </trkpt>
      <trkpt lat="48.73676" lon="-1.42048">
        <ele>87.8</ele>
        <time>2024-01-25T14:38:47Z</time>
      </trkpt>
      <trkpt lat="48.73669" lon="-1.42051">
        <ele>87.4</ele>
        <time>2024-01-25T14:38:48Z</time>
      </trkpt>
      <trkpt lat="48.73662" lon="-1.42054">
        <ele>87</ele>
        <time>2024-01-25T14:38:49Z</time>
      </trkpt>
      <trkpt lat="48.73655" lon="-1.42059">
        <ele>86.6</ele>
        <time>2024-01-25T14:38:50Z</time>
      </trkpt>
      <trkpt lat="48.73648" lon="-1.42063">
        <ele>86.1</ele>
        <time>2024-01-25T14:38:51Z</time>
      </trkpt>
      <trkpt lat="48.7364" lon="-1.42066">
        <ele>85.6</ele>
        <time>2024-01-25T14:38:52Z</time>
      </trkpt>
      <trkpt lat="48.73631" lon="-1.42069">
        <ele>85</ele>
        <time>2024-01-25T14:38:53Z</time>
      </trkpt>
      <trkpt lat="48.73623" lon="-1.42072">
        <ele>84.4</ele>
        <time>2024-01-25T14:38:54Z</time>
      </trkpt>
      <trkpt lat="48.73615" lon="-1.42076">
        <ele>83.8</ele>
        <time>2024-01-25T14:38:55Z</time>
      </trkpt>
      <trkpt lat="48.73606" lon="-1.4208">
        <ele>83.1</ele>
        <time>2024-01-25T14:38:56Z</time>
      </trkpt>
      <trkpt lat="48.73597" lon="-1.42085">
        <ele>82.4</ele>
        <time>2024-01-25T14:38:57Z</time>
      </trkpt>
      <trkpt lat="48.73588" lon="-1.4209">
        <ele>81.6</ele>
        <time>2024-01-25T14:38:58Z</time>
      </trkpt>
      <trkpt lat="48.73579" lon="-1.42095">
        <ele>80.8</ele>
        <time>2024-01-25T14:38:59Z</time>
      </trkpt>
      <trkpt lat="48.73569" lon="-1.421">
        <ele>79.9</ele>
        <time>2024-01-25T14:39:00Z</time>
      </trkpt>
      <trkpt lat="48.73559" lon="-1.42106">
        <ele>79</ele>
        <time>2024-01-25T14:39:01Z</time>
      </trkpt>
      <trkpt lat="48.73549" lon="-1.42111">
        <ele>78</ele>
        <time>2024-01-25T14:39:02Z</time>
      </trkpt>
      <trkpt lat="48.73538" lon="-1.42116">
        <ele>77</ele>
        <time>2024-01-25T14:39:03Z</time>
      </trkpt>
      <trkpt lat="48.73528" lon="-1.42121">
        <ele>76</ele>
        <time>2024-01-25T14:39:04Z</time>
      </trkpt>
      <trkpt lat="48.73517" lon="-1.42127">
        <ele>75</ele>
        <time>2024-01-25T14:39:05Z</time>
      </trkpt>
      <trkpt lat="48.73506" lon="-1.42133">
        <ele>74</ele>
        <time>2024-01-25T14:39:06Z</time>
      </trkpt>
      <trkpt lat="48.73495" lon="-1.4214">
        <ele>73</ele>
        <time>2024-01-25T14:39:07Z</time>
      </trkpt>
      <trkpt lat="48.73484" lon="-1.42147">
        <ele>71.9</ele>
        <time>2024-01-25T14:39:08Z</time>
      </trkpt>
      <trkpt lat="48.73473" lon="-1.42156">
        <ele>70.7</ele>
        <time>2024-01-25T14:39:09Z</time>
      </trkpt>
      <trkpt lat="48.73462" lon="-1.42166">
        <ele>69.6</ele>
        <time>2024-01-25T14:39:10Z</time>
      </trkpt>
      <trkpt lat="48.73451" lon="-1.42177">
        <ele>68.4</ele>
        <time>2024-01-25T14:39:11Z</time>
      </trkpt>
      <trkpt lat="48.7344" lon="-1.42189">
        <ele>67.2</ele>
        <time>2024-01-25T14:39:12Z</time>
      </trkpt>
      <trkpt lat="48.73429" lon="-1.42201">
        <ele>66</ele>
        <time>2024-01-25T14:39:13Z</time>
      </trkpt>
      <trkpt lat="48.73418" lon="-1.42214">
        <ele>65</ele>
        <time>2024-01-25T14:39:14Z</time>
      </trkpt>
      <trkpt lat="48.73408" lon="-1.42225">
        <ele>64</ele>
        <time>2024-01-25T14:39:15Z</time>
      </trkpt>
      <trkpt lat="48.73397" lon="-1.42236">
        <ele>63.1</ele>
        <time>2024-01-25T14:39:16Z</time>
      </trkpt>
      <trkpt lat="48.73386" lon="-1.42247">
        <ele>62.3</ele>
        <time>2024-01-25T14:39:17Z</time>
      </trkpt>
      <trkpt lat="48.73375" lon="-1.42258">
        <ele>61.6</ele>
        <time>2024-01-25T14:39:18Z</time>
      </trkpt>
      <trkpt lat="48.73364" lon="-1.42267">
        <ele>60.9</ele>
        <time>2024-01-25T14:39:19Z</time>
      </trkpt>
      <trkpt lat="48.73353" lon="-1.42276">
        <ele>60.3</ele>
        <time>2024-01-25T14:39:20Z</time>
      </trkpt>
      <trkpt lat="48.73342" lon="-1.42283">
        <ele>59.8</ele>
        <time>2024-01-25T14:39:21Z</time>
      </trkpt>
      <trkpt lat="48.73331" lon="-1.42291">
        <ele>59.3</ele>
        <time>2024-01-25T14:39:22Z</time>
      </trkpt>
      <trkpt lat="48.7332" lon="-1.42298">
        <ele>59</ele>
        <time>2024-01-25T14:39:23Z</time>
      </trkpt>
      <trkpt lat="48.73309" lon="-1.42304">
        <ele>58.7</ele>
        <time>2024-01-25T14:39:24Z</time>
      </trkpt>
      <trkpt lat="48.73298" lon="-1.4231">
        <ele>58.6</ele>
        <time>2024-01-25T14:39:25Z</time>
      </trkpt>
      <trkpt lat="48.73287" lon="-1.42315">
        <ele>58.6</ele>
        <time>2024-01-25T14:39:26Z</time>
      </trkpt>
      <trkpt lat="48.73277" lon="-1.4232">
        <ele>58.7</ele>
        <time>2024-01-25T14:39:27Z</time>
      </trkpt>
      <trkpt lat="48.73267" lon="-1.42324">
        <ele>58.9</ele>
        <time>2024-01-25T14:39:28Z</time>
      </trkpt>
      <trkpt lat="48.73257" lon="-1.42328">
        <ele>59.1</ele>
        <time>2024-01-25T14:39:29Z</time>
      </trkpt>
      <trkpt lat="48.73248" lon="-1.42333">
        <ele>59.4</ele>
        <time>2024-01-25T14:39:30Z</time>
      </trkpt>
      <trkpt lat="48.7324" lon="-1.42337">
        <ele>59.7</ele>
        <time>2024-01-25T14:39:31Z</time>
      </trkpt>
      <trkpt lat="48.73232" lon="-1.4234">
        <ele>60.1</ele>
        <time>2024-01-25T14:39:32Z</time>
      </trkpt>
      <trkpt lat="48.73224" lon="-1.42344">
        <ele>60.5</ele>
        <time>2024-01-25T14:39:33Z</time>
      </trkpt>
      <trkpt lat="48.73217" lon="-1.42347">
        <ele>60.8</ele>
        <time>2024-01-25T14:39:34Z</time>
      </trkpt>
      <trkpt lat="48.73211" lon="-1.4235">
        <ele>61.2</ele>
        <time>2024-01-25T14:39:35Z</time>
      </trkpt>
      <trkpt lat="48.73205" lon="-1.42354">
        <ele>61.6</ele>
        <time>2024-01-25T14:39:36Z</time>
      </trkpt>
      <trkpt lat="48.73199" lon="-1.42355">
        <ele>61.9</ele>
        <time>2024-01-25T14:39:37Z</time>
      </trkpt>
      <trkpt lat="48.73194" lon="-1.42355">
        <ele>62.2</ele>
        <time>2024-01-25T14:39:38Z</time>
      </trkpt>
      <trkpt lat="48.73189" lon="-1.42356">
        <ele>62.5</ele>
        <time>2024-01-25T14:39:39Z</time>
      </trkpt>
      <trkpt lat="48.73184" lon="-1.42358">
        <ele>62.9</ele>
        <time>2024-01-25T14:39:40Z</time>
      </trkpt>
      <trkpt lat="48.73179" lon="-1.4236">
        <ele>63.2</ele>
        <time>2024-01-25T14:39:41Z</time>
      </trkpt>
      <trkpt lat="48.73174" lon="-1.42362">
        <ele>63.5</ele>
        <time>2024-01-25T14:39:42Z</time>
      </trkpt>
      <trkpt lat="48.7317" lon="-1.42363">
        <ele>63.8</ele>
        <time>2024-01-25T14:39:43Z</time>
      </trkpt>
      <trkpt lat="48.73165" lon="-1.42364">
        <ele>64.1</ele>
        <time>2024-01-25T14:39:44Z</time>
      </trkpt>
      <trkpt lat="48.73162" lon="-1.42365">
        <ele>64.3</ele>
        <time>2024-01-25T14:39:45Z</time>
      </trkpt>
      <trkpt lat="48.73158" lon="-1.42365">
        <ele>64.5</ele>
        <time>2024-01-25T14:39:46Z</time>
      </trkpt>
      <trkpt lat="48.73155" lon="-1.42365">
        <ele>64.7</ele>
        <time>2024-01-25T14:39:47Z</time>
      </trkpt>
      <trkpt lat="48.73151" lon="-1.42366">
        <ele>65</ele>
        <time>2024-01-25T14:39:48Z</time>
      </trkpt>
      <trkpt lat="48.73147" lon="-1.42366">
        <ele>65.2</ele>
        <time>2024-01-25T14:39:49Z</time>
      </trkpt>
      <trkpt lat="48.73142" lon="-1.42367">
        <ele>65.5</ele>
        <time>2024-01-25T14:39:50Z</time>
      </trkpt>
      <trkpt lat="48.73138" lon="-1.42368">
        <ele>65.8</ele>
        <time>2024-01-25T14:39:51Z</time>
      </trkpt>
      <trkpt lat="48.73133" lon="-1.42369">
        <ele>66.1</ele>
        <time>2024-01-25T14:39:52Z</time>
      </trkpt>
      <trkpt lat="48.73129" lon="-1.4237">
        <ele>66.4</ele>
        <time>2024-01-25T14:39:53Z</time>
      </trkpt>
      <trkpt lat="48.73124" lon="-1.42371">
        <ele>66.6</ele>
        <time>2024-01-25T14:39:54Z</time>
      </trkpt>
      <trkpt lat="48.7312" lon="-1.42371">
        <ele>66.9</ele>
        <time>2024-01-25T14:39:55Z</time>
      </trkpt>
      <trkpt lat="48.73117" lon="-1.42375">
        <ele>67.1</ele>
        <time>2024-01-25T14:39:57Z</time>
      </trkpt>
      <trkpt lat="48.73112" lon="-1.42375">
        <ele>67.4</ele>
        <time>2024-01-25T14:39:58Z</time>
      </trkpt>
      <trkpt lat="48.73107" lon="-1.42376">
        <ele>67.7</ele>
        <time>2024-01-25T14:39:59Z</time>
      </trkpt>
      <trkpt lat="48.73103" lon="-1.42379">
        <ele>68</ele>
        <time>2024-01-25T14:40:00Z</time>
      </trkpt>
      <trkpt lat="48.731" lon="-1.4238">
        <ele>68.3</ele>
        <time>2024-01-25T14:40:01Z</time>
      </trkpt>
      <trkpt lat="48.73096" lon="-1.42381">
        <ele>68.6</ele>
        <time>2024-01-25T14:40:02Z</time>
      </trkpt>
      <trkpt lat="48.73092" lon="-1.42383">
        <ele>68.9</ele>
        <time>2024-01-25T14:40:03Z</time>
      </trkpt>
      <trkpt lat="48.73088" lon="-1.42386">
        <ele>69.2</ele>
        <time>2024-01-25T14:40:04Z</time>
      </trkpt>
      <trkpt lat="48.73084" lon="-1.42389">
        <ele>69.5</ele>
        <time>2024-01-25T14:40:05Z</time>
      </trkpt>
      <trkpt lat="48.73081" lon="-1.42391">
        <ele>69.8</ele>
        <time>2024-01-25T14:40:06Z</time>
      </trkpt>
      <trkpt lat="48.73078" lon="-1.42394">
        <ele>70.1</ele>
        <time>2024-01-25T14:40:07Z</time>
      </trkpt>
      <trkpt lat="48.73074" lon="-1.42396">
        <ele>70.4</ele>
        <time>2024-01-25T14:40:08Z</time>
      </trkpt>
      <trkpt lat="48.73071" lon="-1.42399">
        <ele>70.6</ele>
        <time>2024-01-25T14:40:09Z</time>
      </trkpt>
      <trkpt lat="48.73068" lon="-1.42401">
        <ele>70.9</ele>
        <time>2024-01-25T14:40:10Z</time>
      </trkpt>
      <trkpt lat="48.73063" lon="-1.42402">
        <ele>71.2</ele>
        <time>2024-01-25T14:40:11Z</time>
      </trkpt>
      <trkpt lat="48.73059" lon="-1.42403">
        <ele>71.5</ele>
        <time>2024-01-25T14:40:12Z</time>
      </trkpt>
      <trkpt lat="48.73056" lon="-1.42405">
        <ele>71.8</ele>
        <time>2024-01-25T14:40:13Z</time>
      </trkpt>
      <trkpt lat="48.73051" lon="-1.42406">
        <ele>72</ele>
        <time>2024-01-25T14:40:14Z</time>
      </trkpt>
      <trkpt lat="48.73048" lon="-1.42407">
        <ele>72.3</ele>
        <time>2024-01-25T14:40:15Z</time>
      </trkpt>
      <trkpt lat="48.73043" lon="-1.42408">
        <ele>72.6</ele>
        <time>2024-01-25T14:40:16Z</time>
      </trkpt>
      <trkpt lat="48.73039" lon="-1.42409">
        <ele>72.8</ele>
        <time>2024-01-25T14:40:17Z</time>
      </trkpt>
      <trkpt lat="48.73035" lon="-1.42409">
        <ele>73.1</ele>
        <time>2024-01-25T14:40:18Z</time>
      </trkpt>
      <trkpt lat="48.7303" lon="-1.4241">
        <ele>73.4</ele>
        <time>2024-01-25T14:40:19Z</time>
      </trkpt>
      <trkpt lat="48.73026" lon="-1.4241">
        <ele>73.7</ele>
        <time>2024-01-25T14:40:20Z</time>
      </trkpt>
      <trkpt lat="48.73023" lon="-1.42412">
        <ele>73.9</ele>
        <time>2024-01-25T14:40:21Z</time>
      </trkpt>
      <trkpt lat="48.7302" lon="-1.42413">
        <ele>74.1</ele>
        <time>2024-01-25T14:40:22Z</time>
      </trkpt>
      <trkpt lat="48.73017" lon="-1.42414">
        <ele>74.4</ele>
        <time>2024-01-25T14:40:23Z</time>
      </trkpt>
      <trkpt lat="48.73014" lon="-1.42416">
        <ele>74.6</ele>
        <time>2024-01-25T14:40:24Z</time>
      </trkpt>
      <trkpt lat="48.73013" lon="-1.42417">
        <ele>74.7</ele>
        <time>2024-01-25T14:40:25Z</time>
      </trkpt>
      <trkpt lat="48.7301" lon="-1.42419">
        <ele>75</ele>
        <time>2024-01-25T14:40:26Z</time>
      </trkpt>
      <trkpt lat="48.73007" lon="-1.42421">
        <ele>75.2</ele>
        <time>2024-01-25T14:40:27Z</time>
      </trkpt>
      <trkpt lat="48.73005" lon="-1.42425">
        <ele>75.5</ele>
        <time>2024-01-25T14:40:28Z</time>
      </trkpt>
      <trkpt lat="48.73002" lon="-1.42429">
        <ele>75.8</ele>
        <time>2024-01-25T14:40:29Z</time>
      </trkpt>
      <trkpt lat="48.73" lon="-1.42434">
        <ele>76.1</ele>
        <time>2024-01-25T14:40:30Z</time>
      </trkpt>
      <trkpt lat="48.72997" lon="-1.42438">
        <ele>76.4</ele>
        <time>2024-01-25T14:40:31Z</time>
      </trkpt>
      <trkpt lat="48.72994" lon="-1.42444">
        <ele>76.8</ele>
        <time>2024-01-25T14:40:32Z</time>
      </trkpt>
      <trkpt lat="48.72991" lon="-1.4245">
        <ele>77.1</ele>
        <time>2024-01-25T14:40:33Z</time>
      </trkpt>
      <trkpt lat="48.72987" lon="-1.42455">
        <ele>77.3</ele>
        <time>2024-01-25T14:40:34Z</time>
      </trkpt>
      <trkpt lat="48.72983" lon="-1.42461">
        <ele>77.3</ele>
        <time>2024-01-25T14:40:35Z</time>
      </trkpt>
      <trkpt lat="48.72979" lon="-1.42467">
        <ele>77.4</ele>
        <time>2024-01-25T14:40:36Z</time>
      </trkpt>
      <trkpt lat="48.72974" lon="-1.42469">
        <ele>77.4</ele>
        <time>2024-01-25T14:40:37Z</time>
      </trkpt>
      <trkpt lat="48.7297" lon="-1.42471">
        <ele>77.4</ele>
        <time>2024-01-25T14:40:38Z</time>
      </trkpt>
      <trkpt lat="48.72965" lon="-1.42471">
        <ele>77.3</ele>
        <time>2024-01-25T14:40:39Z</time>
      </trkpt>
      <trkpt lat="48.7296" lon="-1.4247">
        <ele>77.2</ele>
        <time>2024-01-25T14:40:40Z</time>
      </trkpt>
      <trkpt lat="48.72955" lon="-1.42469">
        <ele>77.1</ele>
        <time>2024-01-25T14:40:41Z</time>
      </trkpt>
      <trkpt lat="48.7295" lon="-1.42467">
        <ele>76.9</ele>
        <time>2024-01-25T14:40:42Z</time>
      </trkpt>
      <trkpt lat="48.72944" lon="-1.42465">
        <ele>76.8</ele>
        <time>2024-01-25T14:40:43Z</time>
      </trkpt>
      <trkpt lat="48.72939" lon="-1.42463">
        <ele>76.7</ele>
        <time>2024-01-25T14:40:44Z</time>
      </trkpt>
      <trkpt lat="48.72934" lon="-1.42462">
        <ele>76.5</ele>
        <time>2024-01-25T14:40:45Z</time>
      </trkpt>
      <trkpt lat="48.72928" lon="-1.42461">
        <ele>76.3</ele>
        <time>2024-01-25T14:40:46Z</time>
      </trkpt>
      <trkpt lat="48.72921" lon="-1.42461">
        <ele>76.2</ele>
        <time>2024-01-25T14:40:47Z</time>
      </trkpt>
      <trkpt lat="48.72915" lon="-1.42461">
        <ele>76</ele>
        <time>2024-01-25T14:40:48Z</time>
      </trkpt>
      <trkpt lat="48.72908" lon="-1.4246">
        <ele>75.8</ele>
        <time>2024-01-25T14:40:49Z</time>
      </trkpt>
      <trkpt lat="48.72901" lon="-1.42461">
        <ele>75.6</ele>
        <time>2024-01-25T14:40:50Z</time>
      </trkpt>
      <trkpt lat="48.72895" lon="-1.42461">
        <ele>75.4</ele>
        <time>2024-01-25T14:40:51Z</time>
      </trkpt>
      <trkpt lat="48.72888" lon="-1.42462">
        <ele>75.2</ele>
        <time>2024-01-25T14:40:52Z</time>
      </trkpt>
      <trkpt lat="48.7288" lon="-1.42464">
        <ele>75</ele>
        <time>2024-01-25T14:40:53Z</time>
      </trkpt>
      <trkpt lat="48.72873" lon="-1.42465">
        <ele>74.8</ele>
        <time>2024-01-25T14:40:54Z</time>
      </trkpt>
      <trkpt lat="48.72866" lon="-1.42466">
        <ele>74.6</ele>
        <time>2024-01-25T14:40:55Z</time>
      </trkpt>
      <trkpt lat="48.72859" lon="-1.42466">
        <ele>74.5</ele>
        <time>2024-01-25T14:40:56Z</time>
      </trkpt>
      <trkpt lat="48.72852" lon="-1.42466">
        <ele>74.3</ele>
        <time>2024-01-25T14:40:57Z</time>
      </trkpt>
      <trkpt lat="48.72846" lon="-1.42466">
        <ele>74.2</ele>
        <time>2024-01-25T14:40:58Z</time>
      </trkpt>
      <trkpt lat="48.72839" lon="-1.42466">
        <ele>74.1</ele>
        <time>2024-01-25T14:40:59Z</time>
      </trkpt>
      <trkpt lat="48.72832" lon="-1.42466">
        <ele>73.9</ele>
        <time>2024-01-25T14:41:00Z</time>
      </trkpt>
      <trkpt lat="48.72826" lon="-1.42464">
        <ele>73.8</ele>
        <time>2024-01-25T14:41:01Z</time>
      </trkpt>
      <trkpt lat="48.7282" lon="-1.42462">
        <ele>73.7</ele>
        <time>2024-01-25T14:41:02Z</time>
      </trkpt>
      <trkpt lat="48.72813" lon="-1.42461">
        <ele>73.6</ele>
        <time>2024-01-25T14:41:03Z</time>
      </trkpt>
      <trkpt lat="48.72807" lon="-1.4246">
        <ele>73.5</ele>
        <time>2024-01-25T14:41:04Z</time>
      </trkpt>
      <trkpt lat="48.728" lon="-1.4246">
        <ele>73.3</ele>
        <time>2024-01-25T14:41:05Z</time>
      </trkpt>
      <trkpt lat="48.72793" lon="-1.42458">
        <ele>73.2</ele>
        <time>2024-01-25T14:41:06Z</time>
      </trkpt>
      <trkpt lat="48.72786" lon="-1.42457">
        <ele>73.1</ele>
        <time>2024-01-25T14:41:07Z</time>
      </trkpt>
      <trkpt lat="48.72779" lon="-1.42457">
        <ele>72.9</ele>
        <time>2024-01-25T14:41:08Z</time>
      </trkpt>
      <trkpt lat="48.72772" lon="-1.42456">
        <ele>72.8</ele>
        <time>2024-01-25T14:41:09Z</time>
      </trkpt>
      <trkpt lat="48.72765" lon="-1.42455">
        <ele>72.7</ele>
        <time>2024-01-25T14:41:10Z</time>
      </trkpt>
      <trkpt lat="48.72758" lon="-1.42454">
        <ele>72.5</ele>
        <time>2024-01-25T14:41:11Z</time>
      </trkpt>
      <trkpt lat="48.7275" lon="-1.42452">
        <ele>72.4</ele>
        <time>2024-01-25T14:41:12Z</time>
      </trkpt>
      <trkpt lat="48.72743" lon="-1.42451">
        <ele>72.3</ele>
        <time>2024-01-25T14:41:13Z</time>
      </trkpt>
      <trkpt lat="48.72735" lon="-1.42449">
        <ele>72.2</ele>
        <time>2024-01-25T14:41:14Z</time>
      </trkpt>
      <trkpt lat="48.72728" lon="-1.42448">
        <ele>72.1</ele>
        <time>2024-01-25T14:41:15Z</time>
      </trkpt>
      <trkpt lat="48.72721" lon="-1.42447">
        <ele>72</ele>
        <time>2024-01-25T14:41:16Z</time>
      </trkpt>
      <trkpt lat="48.72714" lon="-1.42446">
        <ele>71.9</ele>
        <time>2024-01-25T14:41:17Z</time>
      </trkpt>
      <trkpt lat="48.72708" lon="-1.42445">
        <ele>71.7</ele>
        <time>2024-01-25T14:41:18Z</time>
      </trkpt>
      <trkpt lat="48.72701" lon="-1.42445">
        <ele>71.6</ele>
        <time>2024-01-25T14:41:19Z</time>
      </trkpt>
      <trkpt lat="48.72695" lon="-1.42444">
        <ele>71.5</ele>
        <time>2024-01-25T14:41:20Z</time>
      </trkpt>
      <trkpt lat="48.72689" lon="-1.42443">
        <ele>71.4</ele>
        <time>2024-01-25T14:41:21Z</time>
      </trkpt>
      <trkpt lat="48.72683" lon="-1.42442">
        <ele>71.3</ele>
        <time>2024-01-25T14:41:22Z</time>
      </trkpt>
      <trkpt lat="48.72676" lon="-1.42441">
        <ele>71.2</ele>
        <time>2024-01-25T14:41:23Z</time>
      </trkpt>
      <trkpt lat="48.7267" lon="-1.4244">
        <ele>71.1</ele>
        <time>2024-01-25T14:41:24Z</time>
      </trkpt>
      <trkpt lat="48.72663" lon="-1.42438">
        <ele>71</ele>
        <time>2024-01-25T14:41:25Z</time>
      </trkpt>
      <trkpt lat="48.72656" lon="-1.42437">
        <ele>70.9</ele>
        <time>2024-01-25T14:41:26Z</time>
      </trkpt>
      <trkpt lat="48.7265" lon="-1.42436">
        <ele>70.8</ele>
        <time>2024-01-25T14:41:27Z</time>
      </trkpt>
      <trkpt lat="48.72643" lon="-1.42435">
        <ele>70.7</ele>
        <time>2024-01-25T14:41:28Z</time>
      </trkpt>
      <trkpt lat="48.72636" lon="-1.42434">
        <ele>70.6</ele>
        <time>2024-01-25T14:41:29Z</time>
      </trkpt>
      <trkpt lat="48.72629" lon="-1.42432">
        <ele>70.5</ele>
        <time>2024-01-25T14:41:30Z</time>
      </trkpt>
      <trkpt lat="48.72622" lon="-1.42431">
        <ele>70.4</ele>
        <time>2024-01-25T14:41:31Z</time>
      </trkpt>
      <trkpt lat="48.72615" lon="-1.4243">
        <ele>70.2</ele>
        <time>2024-01-25T14:41:32Z</time>
      </trkpt>
      <trkpt lat="48.72608" lon="-1.42429">
        <ele>70</ele>
        <time>2024-01-25T14:41:33Z</time>
      </trkpt>
      <trkpt lat="48.72601" lon="-1.42428">
        <ele>69.8</ele>
        <time>2024-01-25T14:41:34Z</time>
      </trkpt>
      <trkpt lat="48.72593" lon="-1.42428">
        <ele>69.6</ele>
        <time>2024-01-25T14:41:35Z</time>
      </trkpt>
      <trkpt lat="48.72586" lon="-1.42428">
        <ele>69.4</ele>
        <time>2024-01-25T14:41:36Z</time>
      </trkpt>
      <trkpt lat="48.72579" lon="-1.42426">
        <ele>69.1</ele>
        <time>2024-01-25T14:41:37Z</time>
      </trkpt>
      <trkpt lat="48.72571" lon="-1.42425">
        <ele>68.9</ele>
        <time>2024-01-25T14:41:38Z</time>
      </trkpt>
      <trkpt lat="48.72564" lon="-1.42424">
        <ele>68.7</ele>
        <time>2024-01-25T14:41:39Z</time>
      </trkpt>
      <trkpt lat="48.72556" lon="-1.42423">
        <ele>68.5</ele>
        <time>2024-01-25T14:41:40Z</time>
      </trkpt>
      <trkpt lat="48.7255" lon="-1.42421">
        <ele>68.4</ele>
        <time>2024-01-25T14:41:41Z</time>
      </trkpt>
      <trkpt lat="48.72543" lon="-1.42419">
        <ele>68.2</ele>
        <time>2024-01-25T14:41:42Z</time>
      </trkpt>
      <trkpt lat="48.72536" lon="-1.42418">
        <ele>68.1</ele>
        <time>2024-01-25T14:41:43Z</time>
      </trkpt>
      <trkpt lat="48.72529" lon="-1.42417">
        <ele>68</ele>
        <time>2024-01-25T14:41:44Z</time>
      </trkpt>
      <trkpt lat="48.72523" lon="-1.42415">
        <ele>67.9</ele>
        <time>2024-01-25T14:41:45Z</time>
      </trkpt>
      <trkpt lat="48.72516" lon="-1.42414">
        <ele>67.8</ele>
        <time>2024-01-25T14:41:46Z</time>
      </trkpt>
      <trkpt lat="48.7251" lon="-1.42413">
        <ele>67.7</ele>
        <time>2024-01-25T14:41:47Z</time>
      </trkpt>
      <trkpt lat="48.72505" lon="-1.42413">
        <ele>67.7</ele>
        <time>2024-01-25T14:41:48Z</time>
      </trkpt>
      <trkpt lat="48.725" lon="-1.42413">
        <ele>67.7</ele>
        <time>2024-01-25T14:41:49Z</time>
      </trkpt>
      <trkpt lat="48.72496" lon="-1.42413">
        <ele>67.7</ele>
        <time>2024-01-25T14:41:50Z</time>
      </trkpt>
      <trkpt lat="48.72492" lon="-1.42413">
        <ele>67.7</ele>
        <time>2024-01-25T14:41:51Z</time>
      </trkpt>
      <trkpt lat="48.72489" lon="-1.42413">
        <ele>67.7</ele>
        <time>2024-01-25T14:41:52Z</time>
      </trkpt>
      <trkpt lat="48.72485" lon="-1.42414">
        <ele>67.6</ele>
        <time>2024-01-25T14:41:53Z</time>
      </trkpt>
      <trkpt lat="48.72484" lon="-1.42414">
        <ele>67.6</ele>
        <time>2024-01-25T14:41:54Z</time>
      </trkpt>
      <trkpt lat="48.72481" lon="-1.42414">
        <ele>67.5</ele>
        <time>2024-01-25T14:41:55Z</time>
      </trkpt>
      <trkpt lat="48.72478" lon="-1.42414">
        <ele>67.3</ele>
        <time>2024-01-25T14:41:56Z</time>
      </trkpt>
      <trkpt lat="48.72475" lon="-1.42414">
        <ele>67.2</ele>
        <time>2024-01-25T14:41:58Z</time>
      </trkpt>
      <trkpt lat="48.7247" lon="-1.42412">
        <ele>66.9</ele>
        <time>2024-01-25T14:41:59Z</time>
      </trkpt>
      <trkpt lat="48.72465" lon="-1.4241">
        <ele>66.6</ele>
        <time>2024-01-25T14:42:00Z</time>
      </trkpt>
      <trkpt lat="48.72456" lon="-1.42411">
        <ele>66.2</ele>
        <time>2024-01-25T14:42:01Z</time>
      </trkpt>
      <trkpt lat="48.72451" lon="-1.42413">
        <ele>66</ele>
        <time>2024-01-25T14:42:02Z</time>
      </trkpt>
      <trkpt lat="48.72445" lon="-1.42414">
        <ele>65.8</ele>
        <time>2024-01-25T14:42:03Z</time>
      </trkpt>
      <trkpt lat="48.7244" lon="-1.42415">
        <ele>65.6</ele>
        <time>2024-01-25T14:42:04Z</time>
      </trkpt>
      <trkpt lat="48.72435" lon="-1.42416">
        <ele>65.4</ele>
        <time>2024-01-25T14:42:05Z</time>
      </trkpt>
      <trkpt lat="48.72429" lon="-1.42417">
        <ele>65.2</ele>
        <time>2024-01-25T14:42:06Z</time>
      </trkpt>
      <trkpt lat="48.72424" lon="-1.42417">
        <ele>65</ele>
        <time>2024-01-25T14:42:07Z</time>
      </trkpt>
      <trkpt lat="48.72418" lon="-1.42419">
        <ele>64.8</ele>
        <time>2024-01-25T14:42:08Z</time>
      </trkpt>
      <trkpt lat="48.72412" lon="-1.4242">
        <ele>64.5</ele>
        <time>2024-01-25T14:42:09Z</time>
      </trkpt>
      <trkpt lat="48.72405" lon="-1.42421">
        <ele>64.3</ele>
        <time>2024-01-25T14:42:10Z</time>
      </trkpt>
      <trkpt lat="48.72398" lon="-1.42423">
        <ele>64.1</ele>
        <time>2024-01-25T14:42:11Z</time>
      </trkpt>
      <trkpt lat="48.72391" lon="-1.42425">
        <ele>63.9</ele>
        <time>2024-01-25T14:42:12Z</time>
      </trkpt>
      <trkpt lat="48.72384" lon="-1.42427">
        <ele>63.8</ele>
        <time>2024-01-25T14:42:13Z</time>
      </trkpt>
      <trkpt lat="48.72377" lon="-1.42429">
        <ele>63.6</ele>
        <time>2024-01-25T14:42:14Z</time>
      </trkpt>
      <trkpt lat="48.7237" lon="-1.4243">
        <ele>63.4</ele>
        <time>2024-01-25T14:42:15Z</time>
      </trkpt>
      <trkpt lat="48.72363" lon="-1.42432">
        <ele>63.2</ele>
        <time>2024-01-25T14:42:16Z</time>
      </trkpt>
      <trkpt lat="48.72356" lon="-1.42433">
        <ele>63</ele>
        <time>2024-01-25T14:42:17Z</time>
      </trkpt>
      <trkpt lat="48.72349" lon="-1.42435">
        <ele>62.8</ele>
        <time>2024-01-25T14:42:18Z</time>
      </trkpt>
      <trkpt lat="48.72341" lon="-1.42437">
        <ele>62.7</ele>
        <time>2024-01-25T14:42:19Z</time>
      </trkpt>
      <trkpt lat="48.72334" lon="-1.42439">
        <ele>62.5</ele>
        <time>2024-01-25T14:42:20Z</time>
      </trkpt>
      <trkpt lat="48.72327" lon="-1.42442">
        <ele>62.3</ele>
        <time>2024-01-25T14:42:21Z</time>
      </trkpt>
      <trkpt lat="48.72319" lon="-1.42444">
        <ele>62.1</ele>
        <time>2024-01-25T14:42:22Z</time>
      </trkpt>
      <trkpt lat="48.72311" lon="-1.42447">
        <ele>62</ele>
        <time>2024-01-25T14:42:23Z</time>
      </trkpt>
      <trkpt lat="48.72303" lon="-1.42449">
        <ele>61.9</ele>
        <time>2024-01-25T14:42:24Z</time>
      </trkpt>
      <trkpt lat="48.72295" lon="-1.42451">
        <ele>61.8</ele>
        <time>2024-01-25T14:42:25Z</time>
      </trkpt>
      <trkpt lat="48.72286" lon="-1.42453">
        <ele>61.7</ele>
        <time>2024-01-25T14:42:26Z</time>
      </trkpt>
      <trkpt lat="48.72278" lon="-1.42455">
        <ele>61.6</ele>
        <time>2024-01-25T14:42:27Z</time>
      </trkpt>
      <trkpt lat="48.72269" lon="-1.42457">
        <ele>61.6</ele>
        <time>2024-01-25T14:42:28Z</time>
      </trkpt>
      <trkpt lat="48.72261" lon="-1.42459">
        <ele>61.5</ele>
        <time>2024-01-25T14:42:29Z</time>
      </trkpt>
      <trkpt lat="48.72252" lon="-1.4246">
        <ele>61.5</ele>
        <time>2024-01-25T14:42:30Z</time>
      </trkpt>
      <trkpt lat="48.72244" lon="-1.42462">
        <ele>61.4</ele>
        <time>2024-01-25T14:42:31Z</time>
      </trkpt>
      <trkpt lat="48.72236" lon="-1.42464">
        <ele>61.4</ele>
        <time>2024-01-25T14:42:32Z</time>
      </trkpt>
      <trkpt lat="48.72228" lon="-1.42466">
        <ele>61.3</ele>
        <time>2024-01-25T14:42:33Z</time>
      </trkpt>
      <trkpt lat="48.7222" lon="-1.42468">
        <ele>61.3</ele>
        <time>2024-01-25T14:42:34Z</time>
      </trkpt>
      <trkpt lat="48.72212" lon="-1.4247">
        <ele>61.2</ele>
        <time>2024-01-25T14:42:35Z</time>
      </trkpt>
      <trkpt lat="48.72204" lon="-1.42473">
        <ele>61.2</ele>
        <time>2024-01-25T14:42:36Z</time>
      </trkpt>
      <trkpt lat="48.72197" lon="-1.42475">
        <ele>61.2</ele>
        <time>2024-01-25T14:42:37Z</time>
      </trkpt>
      <trkpt lat="48.72189" lon="-1.42477">
        <ele>61.1</ele>
        <time>2024-01-25T14:42:38Z</time>
      </trkpt>
      <trkpt lat="48.72182" lon="-1.42479">
        <ele>61.1</ele>
        <time>2024-01-25T14:42:39Z</time>
      </trkpt>
      <trkpt lat="48.72174" lon="-1.4248">
        <ele>61</ele>
        <time>2024-01-25T14:42:40Z</time>
      </trkpt>
      <trkpt lat="48.72166" lon="-1.42482">
        <ele>61</ele>
        <time>2024-01-25T14:42:41Z</time>
      </trkpt>
      <trkpt lat="48.72159" lon="-1.42484">
        <ele>60.9</ele>
        <time>2024-01-25T14:42:42Z</time>
      </trkpt>
      <trkpt lat="48.72152" lon="-1.42485">
        <ele>60.8</ele>
        <time>2024-01-25T14:42:43Z</time>
      </trkpt>
      <trkpt lat="48.72144" lon="-1.42486">
        <ele>60.8</ele>
        <time>2024-01-25T14:42:44Z</time>
      </trkpt>
      <trkpt lat="48.72137" lon="-1.42487">
        <ele>60.7</ele>
        <time>2024-01-25T14:42:45Z</time>
      </trkpt>
      <trkpt lat="48.72129" lon="-1.42488">
        <ele>60.6</ele>
        <time>2024-01-25T14:42:46Z</time>
      </trkpt>
      <trkpt lat="48.72121" lon="-1.42489">
        <ele>60.5</ele>
        <time>2024-01-25T14:42:47Z</time>
      </trkpt>
      <trkpt lat="48.72114" lon="-1.42491">
        <ele>60.4</ele>
        <time>2024-01-25T14:42:48Z</time>
      </trkpt>
      <trkpt lat="48.72107" lon="-1.42492">
        <ele>60.3</ele>
        <time>2024-01-25T14:42:49Z</time>
      </trkpt>
      <trkpt lat="48.72099" lon="-1.42493">
        <ele>60.2</ele>
        <time>2024-01-25T14:42:50Z</time>
      </trkpt>
      <trkpt lat="48.72092" lon="-1.42494">
        <ele>60.1</ele>
        <time>2024-01-25T14:42:51Z</time>
      </trkpt>
      <trkpt lat="48.72084" lon="-1.42495">
        <ele>60</ele>
        <time>2024-01-25T14:42:52Z</time>
      </trkpt>
      <trkpt lat="48.72077" lon="-1.42497">
        <ele>59.8</ele>
        <time>2024-01-25T14:42:53Z</time>
      </trkpt>
      <trkpt lat="48.72069" lon="-1.42498">
        <ele>59.7</ele>
        <time>2024-01-25T14:42:54Z</time>
      </trkpt>
      <trkpt lat="48.72061" lon="-1.425">
        <ele>59.6</ele>
        <time>2024-01-25T14:42:55Z</time>
      </trkpt>
      <trkpt lat="48.72054" lon="-1.42502">
        <ele>59.4</ele>
        <time>2024-01-25T14:42:56Z</time>
      </trkpt>
      <trkpt lat="48.72046" lon="-1.42504">
        <ele>59.3</ele>
        <time>2024-01-25T14:42:57Z</time>
      </trkpt>
      <trkpt lat="48.72039" lon="-1.42507">
        <ele>59.2</ele>
        <time>2024-01-25T14:42:58Z</time>
      </trkpt>
      <trkpt lat="48.72031" lon="-1.4251">
        <ele>59.1</ele>
        <time>2024-01-25T14:42:59Z</time>
      </trkpt>
      <trkpt lat="48.72024" lon="-1.42513">
        <ele>59</ele>
        <time>2024-01-25T14:43:00Z</time>
      </trkpt>
      <trkpt lat="48.72016" lon="-1.42517">
        <ele>58.9</ele>
        <time>2024-01-25T14:43:01Z</time>
      </trkpt>
      <trkpt lat="48.72009" lon="-1.4252">
        <ele>58.8</ele>
        <time>2024-01-25T14:43:02Z</time>
      </trkpt>
      <trkpt lat="48.72002" lon="-1.42524">
        <ele>58.6</ele>
        <time>2024-01-25T14:43:03Z</time>
      </trkpt>
      <trkpt lat="48.71994" lon="-1.42529">
        <ele>58.5</ele>
        <time>2024-01-25T14:43:04Z</time>
      </trkpt>
      <trkpt lat="48.71987" lon="-1.42534">
        <ele>58.4</ele>
        <time>2024-01-25T14:43:05Z</time>
      </trkpt>
      <trkpt lat="48.71981" lon="-1.42538">
        <ele>58.3</ele>
        <time>2024-01-25T14:43:06Z</time>
      </trkpt>
      <trkpt lat="48.71975" lon="-1.42543">
        <ele>58.2</ele>
        <time>2024-01-25T14:43:07Z</time>
      </trkpt>
      <trkpt lat="48.71969" lon="-1.42549">
        <ele>58.2</ele>
        <time>2024-01-25T14:43:08Z</time>
      </trkpt>
      <trkpt lat="48.71963" lon="-1.42555">
        <ele>58.1</ele>
        <time>2024-01-25T14:43:09Z</time>
      </trkpt>
      <trkpt lat="48.71956" lon="-1.42561">
        <ele>58</ele>
        <time>2024-01-25T14:43:10Z</time>
      </trkpt>
      <trkpt lat="48.7195" lon="-1.42567">
        <ele>58</ele>
        <time>2024-01-25T14:43:11Z</time>
      </trkpt>
      <trkpt lat="48.71944" lon="-1.42573">
        <ele>57.9</ele>
        <time>2024-01-25T14:43:12Z</time>
      </trkpt>
      <trkpt lat="48.71938" lon="-1.42579">
        <ele>57.8</ele>
        <time>2024-01-25T14:43:13Z</time>
      </trkpt>
      <trkpt lat="48.71931" lon="-1.42585">
        <ele>57.8</ele>
        <time>2024-01-25T14:43:14Z</time>
      </trkpt>
      <trkpt lat="48.71925" lon="-1.42591">
        <ele>57.7</ele>
        <time>2024-01-25T14:43:15Z</time>
      </trkpt>
      <trkpt lat="48.71918" lon="-1.42597">
        <ele>57.6</ele>
        <time>2024-01-25T14:43:16Z</time>
      </trkpt>
      <trkpt lat="48.71912" lon="-1.42603">
        <ele>57.5</ele>
        <time>2024-01-25T14:43:17Z</time>
      </trkpt>
      <trkpt lat="48.71907" lon="-1.42609">
        <ele>57.4</ele>
        <time>2024-01-25T14:43:18Z</time>
      </trkpt>
      <trkpt lat="48.71901" lon="-1.42614">
        <ele>57.3</ele>
        <time>2024-01-25T14:43:19Z</time>
      </trkpt>
      <trkpt lat="48.71894" lon="-1.4262">
        <ele>57.2</ele>
        <time>2024-01-25T14:43:20Z</time>
      </trkpt>
      <trkpt lat="48.71888" lon="-1.42625">
        <ele>57.1</ele>
        <time>2024-01-25T14:43:21Z</time>
      </trkpt>
      <trkpt lat="48.71882" lon="-1.42631">
        <ele>57.1</ele>
        <time>2024-01-25T14:43:22Z</time>
      </trkpt>
      <trkpt lat="48.71876" lon="-1.42637">
        <ele>57</ele>
        <time>2024-01-25T14:43:23Z</time>
      </trkpt>
      <trkpt lat="48.71869" lon="-1.42643">
        <ele>56.9</ele>
        <time>2024-01-25T14:43:24Z</time>
      </trkpt>
      <trkpt lat="48.71863" lon="-1.42649">
        <ele>56.8</ele>
        <time>2024-01-25T14:43:25Z</time>
      </trkpt>
      <trkpt lat="48.71857" lon="-1.42656">
        <ele>56.7</ele>
        <time>2024-01-25T14:43:26Z</time>
      </trkpt>
      <trkpt lat="48.7185" lon="-1.42663">
        <ele>56.7</ele>
        <time>2024-01-25T14:43:27Z</time>
      </trkpt>
      <trkpt lat="48.71844" lon="-1.42669">
        <ele>56.5</ele>
        <time>2024-01-25T14:43:28Z</time>
      </trkpt>
      <trkpt lat="48.71837" lon="-1.42676">
        <ele>56.4</ele>
        <time>2024-01-25T14:43:29Z</time>
      </trkpt>
      <trkpt lat="48.7183" lon="-1.42682">
        <ele>56.3</ele>
        <time>2024-01-25T14:43:30Z</time>
      </trkpt>
      <trkpt lat="48.71823" lon="-1.42688">
        <ele>56.2</ele>
        <time>2024-01-25T14:43:31Z</time>
      </trkpt>
      <trkpt lat="48.71817" lon="-1.42694">
        <ele>56</ele>
        <time>2024-01-25T14:43:32Z</time>
      </trkpt>
      <trkpt lat="48.7181" lon="-1.42699">
        <ele>55.9</ele>
        <time>2024-01-25T14:43:33Z</time>
      </trkpt>
      <trkpt lat="48.71803" lon="-1.42705">
        <ele>55.8</ele>
        <time>2024-01-25T14:43:34Z</time>
      </trkpt>
      <trkpt lat="48.71797" lon="-1.42711">
        <ele>55.7</ele>
        <time>2024-01-25T14:43:35Z</time>
      </trkpt>
      <trkpt lat="48.7179" lon="-1.42717">
        <ele>55.6</ele>
        <time>2024-01-25T14:43:36Z</time>
      </trkpt>
      <trkpt lat="48.71784" lon="-1.42723">
        <ele>55.5</ele>
        <time>2024-01-25T14:43:37Z</time>
      </trkpt>
      <trkpt lat="48.71777" lon="-1.42729">
        <ele>55.3</ele>
        <time>2024-01-25T14:43:38Z</time>
      </trkpt>
      <trkpt lat="48.71771" lon="-1.42735">
        <ele>55.2</ele>
        <time>2024-01-25T14:43:39Z</time>
      </trkpt>
      <trkpt lat="48.71765" lon="-1.4274">
        <ele>55.1</ele>
        <time>2024-01-25T14:43:40Z</time>
      </trkpt>
      <trkpt lat="48.71758" lon="-1.42746">
        <ele>54.9</ele>
        <time>2024-01-25T14:43:41Z</time>
      </trkpt>
      <trkpt lat="48.71752" lon="-1.42751">
        <ele>54.8</ele>
        <time>2024-01-25T14:43:42Z</time>
      </trkpt>
      <trkpt lat="48.71746" lon="-1.42757">
        <ele>54.6</ele>
        <time>2024-01-25T14:43:43Z</time>
      </trkpt>
      <trkpt lat="48.7174" lon="-1.42763">
        <ele>54.5</ele>
        <time>2024-01-25T14:43:44Z</time>
      </trkpt>
      <trkpt lat="48.71734" lon="-1.4277">
        <ele>54.3</ele>
        <time>2024-01-25T14:43:45Z</time>
      </trkpt>
      <trkpt lat="48.71728" lon="-1.42777">
        <ele>54.1</ele>
        <time>2024-01-25T14:43:46Z</time>
      </trkpt>
      <trkpt lat="48.71722" lon="-1.42784">
        <ele>54</ele>
        <time>2024-01-25T14:43:47Z</time>
      </trkpt>
      <trkpt lat="48.71715" lon="-1.42791">
        <ele>53.8</ele>
        <time>2024-01-25T14:43:48Z</time>
      </trkpt>
      <trkpt lat="48.71709" lon="-1.42798">
        <ele>53.7</ele>
        <time>2024-01-25T14:43:49Z</time>
      </trkpt>
      <trkpt lat="48.71702" lon="-1.42805">
        <ele>53.5</ele>
        <time>2024-01-25T14:43:50Z</time>
      </trkpt>
      <trkpt lat="48.71696" lon="-1.42812">
        <ele>53.4</ele>
        <time>2024-01-25T14:43:51Z</time>
      </trkpt>
      <trkpt lat="48.71689" lon="-1.42819">
        <ele>53.2</ele>
        <time>2024-01-25T14:43:52Z</time>
      </trkpt>
      <trkpt lat="48.71682" lon="-1.42826">
        <ele>53.1</ele>
        <time>2024-01-25T14:43:53Z</time>
      </trkpt>
      <trkpt lat="48.71675" lon="-1.42833">
        <ele>53</ele>
        <time>2024-01-25T14:43:54Z</time>
      </trkpt>
      <trkpt lat="48.71667" lon="-1.4284">
        <ele>52.8</ele>
        <time>2024-01-25T14:43:55Z</time>
      </trkpt>
      <trkpt lat="48.7166" lon="-1.42847">
        <ele>52.7</ele>
        <time>2024-01-25T14:43:56Z</time>
      </trkpt>
      <trkpt lat="48.71653" lon="-1.42853">
        <ele>52.6</ele>
        <time>2024-01-25T14:43:57Z</time>
      </trkpt>
      <trkpt lat="48.71645" lon="-1.42859">
        <ele>52.4</ele>
        <time>2024-01-25T14:43:58Z</time>
      </trkpt>
      <trkpt lat="48.71637" lon="-1.42864">
        <ele>52.3</ele>
        <time>2024-01-25T14:43:59Z</time>
      </trkpt>
      <trkpt lat="48.71629" lon="-1.42869">
        <ele>52.2</ele>
        <time>2024-01-25T14:44:00Z</time>
      </trkpt>
      <trkpt lat="48.71621" lon="-1.42873">
        <ele>52.1</ele>
        <time>2024-01-25T14:44:01Z</time>
      </trkpt>
      <trkpt lat="48.71613" lon="-1.42877">
        <ele>52</ele>
        <time>2024-01-25T14:44:02Z</time>
      </trkpt>
      <trkpt lat="48.71605" lon="-1.42881">
        <ele>51.9</ele>
        <time>2024-01-25T14:44:03Z</time>
      </trkpt>
      <trkpt lat="48.71597" lon="-1.42885">
        <ele>51.7</ele>
        <time>2024-01-25T14:44:04Z</time>
      </trkpt>
      <trkpt lat="48.71588" lon="-1.42888">
        <ele>51.6</ele>
        <time>2024-01-25T14:44:05Z</time>
      </trkpt>
      <trkpt lat="48.7158" lon="-1.42891">
        <ele>51.5</ele>
        <time>2024-01-25T14:44:06Z</time>
      </trkpt>
      <trkpt lat="48.71571" lon="-1.42893">
        <ele>51.3</ele>
        <time>2024-01-25T14:44:07Z</time>
      </trkpt>
      <trkpt lat="48.71562" lon="-1.42895">
        <ele>51.2</ele>
        <time>2024-01-25T14:44:08Z</time>
      </trkpt>
      <trkpt lat="48.71554" lon="-1.42896">
        <ele>51.1</ele>
        <time>2024-01-25T14:44:09Z</time>
      </trkpt>
      <trkpt lat="48.71545" lon="-1.42897">
        <ele>50.9</ele>
        <time>2024-01-25T14:44:10Z</time>
      </trkpt>
      <trkpt lat="48.71536" lon="-1.42897">
        <ele>50.8</ele>
        <time>2024-01-25T14:44:11Z</time>
      </trkpt>
      <trkpt lat="48.71527" lon="-1.42898">
        <ele>50.6</ele>
        <time>2024-01-25T14:44:12Z</time>
      </trkpt>
      <trkpt lat="48.71518" lon="-1.42899">
        <ele>50.5</ele>
        <time>2024-01-25T14:44:13Z</time>
      </trkpt>
      <trkpt lat="48.7151" lon="-1.42899">
        <ele>50.3</ele>
        <time>2024-01-25T14:44:14Z</time>
      </trkpt>
      <trkpt lat="48.71501" lon="-1.429">
        <ele>50.2</ele>
        <time>2024-01-25T14:44:15Z</time>
      </trkpt>
      <trkpt lat="48.71492" lon="-1.429">
        <ele>50</ele>
        <time>2024-01-25T14:44:16Z</time>
      </trkpt>
      <trkpt lat="48.71483" lon="-1.42901">
        <ele>49.9</ele>
        <time>2024-01-25T14:44:17Z</time>
      </trkpt>
      <trkpt lat="48.71474" lon="-1.42902">
        <ele>49.8</ele>
        <time>2024-01-25T14:44:18Z</time>
      </trkpt>
      <trkpt lat="48.71466" lon="-1.42903">
        <ele>49.6</ele>
        <time>2024-01-25T14:44:19Z</time>
      </trkpt>
      <trkpt lat="48.71458" lon="-1.42903">
        <ele>49.5</ele>
        <time>2024-01-25T14:44:20Z</time>
      </trkpt>
      <trkpt lat="48.71449" lon="-1.42903">
        <ele>49.3</ele>
        <time>2024-01-25T14:44:21Z</time>
      </trkpt>
      <trkpt lat="48.71441" lon="-1.42904">
        <ele>49.1</ele>
        <time>2024-01-25T14:44:22Z</time>
      </trkpt>
      <trkpt lat="48.71432" lon="-1.42904">
        <ele>49</ele>
        <time>2024-01-25T14:44:23Z</time>
      </trkpt>
      <trkpt lat="48.71424" lon="-1.42904">
        <ele>48.8</ele>
        <time>2024-01-25T14:44:24Z</time>
      </trkpt>
      <trkpt lat="48.71415" lon="-1.42905">
        <ele>48.6</ele>
        <time>2024-01-25T14:44:25Z</time>
      </trkpt>
      <trkpt lat="48.71407" lon="-1.42906">
        <ele>48.5</ele>
        <time>2024-01-25T14:44:26Z</time>
      </trkpt>
      <trkpt lat="48.71399" lon="-1.42907">
        <ele>48.3</ele>
        <time>2024-01-25T14:44:27Z</time>
      </trkpt>
      <trkpt lat="48.7139" lon="-1.4291">
        <ele>48.1</ele>
        <time>2024-01-25T14:44:28Z</time>
      </trkpt>
      <trkpt lat="48.71382" lon="-1.42913">
        <ele>48</ele>
        <time>2024-01-25T14:44:29Z</time>
      </trkpt>
      <trkpt lat="48.71374" lon="-1.42917">
        <ele>47.8</ele>
        <time>2024-01-25T14:44:30Z</time>
      </trkpt>
      <trkpt lat="48.71366" lon="-1.4292">
        <ele>47.7</ele>
        <time>2024-01-25T14:44:31Z</time>
      </trkpt>
      <trkpt lat="48.71358" lon="-1.42925">
        <ele>47.5</ele>
        <time>2024-01-25T14:44:32Z</time>
      </trkpt>
      <trkpt lat="48.71349" lon="-1.42929">
        <ele>47.3</ele>
        <time>2024-01-25T14:44:33Z</time>
      </trkpt>
      <trkpt lat="48.71341" lon="-1.42933">
        <ele>47.1</ele>
        <time>2024-01-25T14:44:34Z</time>
      </trkpt>
      <trkpt lat="48.71333" lon="-1.42938">
        <ele>47</ele>
        <time>2024-01-25T14:44:35Z</time>
      </trkpt>
      <trkpt lat="48.71324" lon="-1.42943">
        <ele>46.8</ele>
        <time>2024-01-25T14:44:36Z</time>
      </trkpt>
      <trkpt lat="48.71316" lon="-1.42947">
        <ele>46.6</ele>
        <time>2024-01-25T14:44:37Z</time>
      </trkpt>
      <trkpt lat="48.71308" lon="-1.42952">
        <ele>46.4</ele>
        <time>2024-01-25T14:44:38Z</time>
      </trkpt>
      <trkpt lat="48.71299" lon="-1.42956">
        <ele>46.2</ele>
        <time>2024-01-25T14:44:39Z</time>
      </trkpt>
      <trkpt lat="48.71291" lon="-1.42961">
        <ele>46</ele>
        <time>2024-01-25T14:44:40Z</time>
      </trkpt>
      <trkpt lat="48.71282" lon="-1.42965">
        <ele>45.8</ele>
        <time>2024-01-25T14:44:41Z</time>
      </trkpt>
      <trkpt lat="48.71274" lon="-1.42969">
        <ele>45.7</ele>
        <time>2024-01-25T14:44:42Z</time>
      </trkpt>
      <trkpt lat="48.71265" lon="-1.42974">
        <ele>45.6</ele>
        <time>2024-01-25T14:44:43Z</time>
      </trkpt>
      <trkpt lat="48.71257" lon="-1.42979">
        <ele>45.4</ele>
        <time>2024-01-25T14:44:44Z</time>
      </trkpt>
      <trkpt lat="48.71248" lon="-1.42983">
        <ele>45.3</ele>
        <time>2024-01-25T14:44:45Z</time>
      </trkpt>
      <trkpt lat="48.7124" lon="-1.42987">
        <ele>45.2</ele>
        <time>2024-01-25T14:44:46Z</time>
      </trkpt>
      <trkpt lat="48.71232" lon="-1.42991">
        <ele>45.1</ele>
        <time>2024-01-25T14:44:47Z</time>
      </trkpt>
      <trkpt lat="48.71223" lon="-1.42996">
        <ele>44.9</ele>
        <time>2024-01-25T14:44:48Z</time>
      </trkpt>
      <trkpt lat="48.71215" lon="-1.43">
        <ele>44.8</ele>
        <time>2024-01-25T14:44:49Z</time>
      </trkpt>
      <trkpt lat="48.71207" lon="-1.43005">
        <ele>44.6</ele>
        <time>2024-01-25T14:44:50Z</time>
      </trkpt>
      <trkpt lat="48.71199" lon="-1.4301">
        <ele>44.5</ele>
        <time>2024-01-25T14:44:51Z</time>
      </trkpt>
      <trkpt lat="48.71191" lon="-1.43015">
        <ele>44.4</ele>
        <time>2024-01-25T14:44:52Z</time>
      </trkpt>
      <trkpt lat="48.71183" lon="-1.4302">
        <ele>44.3</ele>
        <time>2024-01-25T14:44:53Z</time>
      </trkpt>
      <trkpt lat="48.71175" lon="-1.43025">
        <ele>44.1</ele>
        <time>2024-01-25T14:44:54Z</time>
      </trkpt>
      <trkpt lat="48.71167" lon="-1.43031">
        <ele>44</ele>
        <time>2024-01-25T14:44:55Z</time>
      </trkpt>
      <trkpt lat="48.71159" lon="-1.43038">
        <ele>43.9</ele>
        <time>2024-01-25T14:44:56Z</time>
      </trkpt>
      <trkpt lat="48.71151" lon="-1.43045">
        <ele>43.7</ele>
        <time>2024-01-25T14:44:57Z</time>
      </trkpt>
      <trkpt lat="48.71143" lon="-1.43052">
        <ele>43.6</ele>
        <time>2024-01-25T14:44:58Z</time>
      </trkpt>
      <trkpt lat="48.71135" lon="-1.43059">
        <ele>43.5</ele>
        <time>2024-01-25T14:44:59Z</time>
      </trkpt>
      <trkpt lat="48.71128" lon="-1.43066">
        <ele>43.4</ele>
        <time>2024-01-25T14:45:00Z</time>
      </trkpt>
      <trkpt lat="48.7112" lon="-1.43072">
        <ele>43.3</ele>
        <time>2024-01-25T14:45:01Z</time>
      </trkpt>
      <trkpt lat="48.71112" lon="-1.43078">
        <ele>43.2</ele>
        <time>2024-01-25T14:45:02Z</time>
      </trkpt>
      <trkpt lat="48.71105" lon="-1.43085">
        <ele>43.1</ele>
        <time>2024-01-25T14:45:03Z</time>
      </trkpt>
      <trkpt lat="48.71097" lon="-1.43091">
        <ele>43</ele>
        <time>2024-01-25T14:45:04Z</time>
      </trkpt>
      <trkpt lat="48.71089" lon="-1.43097">
        <ele>43</ele>
        <time>2024-01-25T14:45:05Z</time>
      </trkpt>
      <trkpt lat="48.71082" lon="-1.43104">
        <ele>42.9</ele>
        <time>2024-01-25T14:45:06Z</time>
      </trkpt>
      <trkpt lat="48.71075" lon="-1.43111">
        <ele>42.8</ele>
        <time>2024-01-25T14:45:07Z</time>
      </trkpt>
      <trkpt lat="48.71068" lon="-1.43117">
        <ele>42.8</ele>
        <time>2024-01-25T14:45:08Z</time>
      </trkpt>
      <trkpt lat="48.7106" lon="-1.43123">
        <ele>42.7</ele>
        <time>2024-01-25T14:45:09Z</time>
      </trkpt>
      <trkpt lat="48.71053" lon="-1.43129">
        <ele>42.6</ele>
        <time>2024-01-25T14:45:10Z</time>
      </trkpt>
      <trkpt lat="48.71046" lon="-1.43134">
        <ele>42.6</ele>
        <time>2024-01-25T14:45:11Z</time>
      </trkpt>
      <trkpt lat="48.71038" lon="-1.4314">
        <ele>42.5</ele>
        <time>2024-01-25T14:45:12Z</time>
      </trkpt>
      <trkpt lat="48.71031" lon="-1.43146">
        <ele>42.4</ele>
        <time>2024-01-25T14:45:13Z</time>
      </trkpt>
      <trkpt lat="48.71024" lon="-1.43153">
        <ele>42.4</ele>
        <time>2024-01-25T14:45:14Z</time>
      </trkpt>
      <trkpt lat="48.71017" lon="-1.4316">
        <ele>42.3</ele>
        <time>2024-01-25T14:45:15Z</time>
      </trkpt>
      <trkpt lat="48.7101" lon="-1.43166">
        <ele>42.2</ele>
        <time>2024-01-25T14:45:16Z</time>
      </trkpt>
      <trkpt lat="48.71003" lon="-1.43172">
        <ele>42.2</ele>
        <time>2024-01-25T14:45:17Z</time>
      </trkpt>
      <trkpt lat="48.70996" lon="-1.43179">
        <ele>42.1</ele>
        <time>2024-01-25T14:45:18Z</time>
      </trkpt>
      <trkpt lat="48.7099" lon="-1.43185">
        <ele>42.1</ele>
        <time>2024-01-25T14:45:19Z</time>
      </trkpt>
      <trkpt lat="48.70983" lon="-1.43192">
        <ele>42.1</ele>
        <time>2024-01-25T14:45:20Z</time>
      </trkpt>
      <trkpt lat="48.70976" lon="-1.43198">
        <ele>42</ele>
        <time>2024-01-25T14:45:21Z</time>
      </trkpt>
      <trkpt lat="48.70968" lon="-1.43205">
        <ele>41.9</ele>
        <time>2024-01-25T14:45:22Z</time>
      </trkpt>
      <trkpt lat="48.70961" lon="-1.4321">
        <ele>41.9</ele>
        <time>2024-01-25T14:45:23Z</time>
      </trkpt>
      <trkpt lat="48.70954" lon="-1.43216">
        <ele>41.8</ele>
        <time>2024-01-25T14:45:24Z</time>
      </trkpt>
      <trkpt lat="48.70947" lon="-1.43222">
        <ele>41.7</ele>
        <time>2024-01-25T14:45:25Z</time>
      </trkpt>
      <trkpt lat="48.70939" lon="-1.43227">
        <ele>41.7</ele>
        <time>2024-01-25T14:45:26Z</time>
      </trkpt>
      <trkpt lat="48.70932" lon="-1.43233">
        <ele>41.6</ele>
        <time>2024-01-25T14:45:27Z</time>
      </trkpt>
      <trkpt lat="48.70925" lon="-1.43239">
        <ele>41.6</ele>
        <time>2024-01-25T14:45:28Z</time>
      </trkpt>
      <trkpt lat="48.70918" lon="-1.43244">
        <ele>41.5</ele>
        <time>2024-01-25T14:45:29Z</time>
      </trkpt>
      <trkpt lat="48.70911" lon="-1.4325">
        <ele>41.4</ele>
        <time>2024-01-25T14:45:30Z</time>
      </trkpt>
      <trkpt lat="48.70905" lon="-1.43256">
        <ele>41.4</ele>
        <time>2024-01-25T14:45:31Z</time>
      </trkpt>
      <trkpt lat="48.70898" lon="-1.43262">
        <ele>41.3</ele>
        <time>2024-01-25T14:45:32Z</time>
      </trkpt>
      <trkpt lat="48.7089" lon="-1.43268">
        <ele>41.3</ele>
        <time>2024-01-25T14:45:33Z</time>
      </trkpt>
      <trkpt lat="48.70884" lon="-1.43273">
        <ele>41.2</ele>
        <time>2024-01-25T14:45:34Z</time>
      </trkpt>
      <trkpt lat="48.70876" lon="-1.43278">
        <ele>41.2</ele>
        <time>2024-01-25T14:45:35Z</time>
      </trkpt>
      <trkpt lat="48.70869" lon="-1.43284">
        <ele>41.1</ele>
        <time>2024-01-25T14:45:36Z</time>
      </trkpt>
      <trkpt lat="48.70862" lon="-1.43291">
        <ele>41.1</ele>
        <time>2024-01-25T14:45:37Z</time>
      </trkpt>
      <trkpt lat="48.70855" lon="-1.43298">
        <ele>41</ele>
        <time>2024-01-25T14:45:38Z</time>
      </trkpt>
      <trkpt lat="48.70848" lon="-1.43304">
        <ele>41</ele>
        <time>2024-01-25T14:45:39Z</time>
      </trkpt>
      <trkpt lat="48.70841" lon="-1.43311">
        <ele>41</ele>
        <time>2024-01-25T14:45:40Z</time>
      </trkpt>
      <trkpt lat="48.70835" lon="-1.43317">
        <ele>41</ele>
        <time>2024-01-25T14:45:41Z</time>
      </trkpt>
      <trkpt lat="48.70828" lon="-1.43324">
        <ele>40.9</ele>
        <time>2024-01-25T14:45:42Z</time>
      </trkpt>
      <trkpt lat="48.70821" lon="-1.43331">
        <ele>40.9</ele>
        <time>2024-01-25T14:45:43Z</time>
      </trkpt>
      <trkpt lat="48.70814" lon="-1.43338">
        <ele>40.9</ele>
        <time>2024-01-25T14:45:44Z</time>
      </trkpt>
      <trkpt lat="48.70807" lon="-1.43344">
        <ele>40.9</ele>
        <time>2024-01-25T14:45:45Z</time>
      </trkpt>
      <trkpt lat="48.70799" lon="-1.4335">
        <ele>40.9</ele>
        <time>2024-01-25T14:45:46Z</time>
      </trkpt>
      <trkpt lat="48.70792" lon="-1.43355">
        <ele>40.9</ele>
        <time>2024-01-25T14:45:47Z</time>
      </trkpt>
      <trkpt lat="48.70785" lon="-1.43361">
        <ele>40.9</ele>
        <time>2024-01-25T14:45:48Z</time>
      </trkpt>
      <trkpt lat="48.70778" lon="-1.43367">
        <ele>40.9</ele>
        <time>2024-01-25T14:45:49Z</time>
      </trkpt>
      <trkpt lat="48.70771" lon="-1.43373">
        <ele>40.9</ele>
        <time>2024-01-25T14:45:50Z</time>
      </trkpt>
      <trkpt lat="48.70764" lon="-1.4338">
        <ele>40.8</ele>
        <time>2024-01-25T14:45:51Z</time>
      </trkpt>
      <trkpt lat="48.70757" lon="-1.43386">
        <ele>40.7</ele>
        <time>2024-01-25T14:45:52Z</time>
      </trkpt>
      <trkpt lat="48.70749" lon="-1.43393">
        <ele>40.6</ele>
        <time>2024-01-25T14:45:53Z</time>
      </trkpt>
      <trkpt lat="48.70742" lon="-1.43399">
        <ele>40.4</ele>
        <time>2024-01-25T14:45:54Z</time>
      </trkpt>
      <trkpt lat="48.70734" lon="-1.43405">
        <ele>40.2</ele>
        <time>2024-01-25T14:45:55Z</time>
      </trkpt>
      <trkpt lat="48.70727" lon="-1.43411">
        <ele>40</ele>
        <time>2024-01-25T14:45:56Z</time>
      </trkpt>
      <trkpt lat="48.70719" lon="-1.43417">
        <ele>39.8</ele>
        <time>2024-01-25T14:45:57Z</time>
      </trkpt>
      <trkpt lat="48.70712" lon="-1.43423">
        <ele>39.6</ele>
        <time>2024-01-25T14:45:58Z</time>
      </trkpt>
      <trkpt lat="48.70704" lon="-1.43429">
        <ele>39.4</ele>
        <time>2024-01-25T14:45:59Z</time>
      </trkpt>
      <trkpt lat="48.70697" lon="-1.43435">
        <ele>39.1</ele>
        <time>2024-01-25T14:46:00Z</time>
      </trkpt>
      <trkpt lat="48.70689" lon="-1.43441">
        <ele>38.9</ele>
        <time>2024-01-25T14:46:01Z</time>
      </trkpt>
      <trkpt lat="48.70682" lon="-1.43447">
        <ele>38.7</ele>
        <time>2024-01-25T14:46:02Z</time>
      </trkpt>
      <trkpt lat="48.70675" lon="-1.43453">
        <ele>38.5</ele>
        <time>2024-01-25T14:46:03Z</time>
      </trkpt>
      <trkpt lat="48.70667" lon="-1.43458">
        <ele>38.3</ele>
        <time>2024-01-25T14:46:04Z</time>
      </trkpt>
      <trkpt lat="48.7066" lon="-1.43464">
        <ele>38</ele>
        <time>2024-01-25T14:46:05Z</time>
      </trkpt>
      <trkpt lat="48.70653" lon="-1.4347">
        <ele>37.8</ele>
        <time>2024-01-25T14:46:06Z</time>
      </trkpt>
      <trkpt lat="48.70647" lon="-1.43477">
        <ele>37.5</ele>
        <time>2024-01-25T14:46:07Z</time>
      </trkpt>
      <trkpt lat="48.70639" lon="-1.43484">
        <ele>37.3</ele>
        <time>2024-01-25T14:46:08Z</time>
      </trkpt>
      <trkpt lat="48.70632" lon="-1.43492">
        <ele>37</ele>
        <time>2024-01-25T14:46:09Z</time>
      </trkpt>
      <trkpt lat="48.70625" lon="-1.435">
        <ele>36.7</ele>
        <time>2024-01-25T14:46:10Z</time>
      </trkpt>
      <trkpt lat="48.70618" lon="-1.43508">
        <ele>36.4</ele>
        <time>2024-01-25T14:46:11Z</time>
      </trkpt>
      <trkpt lat="48.7061" lon="-1.43516">
        <ele>36.1</ele>
        <time>2024-01-25T14:46:12Z</time>
      </trkpt>
      <trkpt lat="48.70603" lon="-1.43525">
        <ele>35.8</ele>
        <time>2024-01-25T14:46:13Z</time>
      </trkpt>
      <trkpt lat="48.70595" lon="-1.43533">
        <ele>35.5</ele>
        <time>2024-01-25T14:46:14Z</time>
      </trkpt>
      <trkpt lat="48.70588" lon="-1.43542">
        <ele>35.2</ele>
        <time>2024-01-25T14:46:15Z</time>
      </trkpt>
      <trkpt lat="48.70581" lon="-1.43551">
        <ele>34.9</ele>
        <time>2024-01-25T14:46:16Z</time>
      </trkpt>
      <trkpt lat="48.70574" lon="-1.43559">
        <ele>34.6</ele>
        <time>2024-01-25T14:46:17Z</time>
      </trkpt>
      <trkpt lat="48.70567" lon="-1.43568">
        <ele>34.3</ele>
        <time>2024-01-25T14:46:18Z</time>
      </trkpt>
      <trkpt lat="48.7056" lon="-1.43577">
        <ele>34</ele>
        <time>2024-01-25T14:46:19Z</time>
      </trkpt>
      <trkpt lat="48.70552" lon="-1.43585">
        <ele>33.8</ele>
        <time>2024-01-25T14:46:20Z</time>
      </trkpt>
      <trkpt lat="48.70545" lon="-1.43593">
        <ele>33.5</ele>
        <time>2024-01-25T14:46:21Z</time>
      </trkpt>
      <trkpt lat="48.70538" lon="-1.43603">
        <ele>33.3</ele>
        <time>2024-01-25T14:46:22Z</time>
      </trkpt>
      <trkpt lat="48.70531" lon="-1.43612">
        <ele>33</ele>
        <time>2024-01-25T14:46:23Z</time>
      </trkpt>
      <trkpt lat="48.70524" lon="-1.43621">
        <ele>32.7</ele>
        <time>2024-01-25T14:46:24Z</time>
      </trkpt>
      <trkpt lat="48.70516" lon="-1.43629">
        <ele>32.5</ele>
        <time>2024-01-25T14:46:25Z</time>
      </trkpt>
      <trkpt lat="48.70508" lon="-1.43637">
        <ele>32.3</ele>
        <time>2024-01-25T14:46:26Z</time>
      </trkpt>
      <trkpt lat="48.70501" lon="-1.43646">
        <ele>32.1</ele>
        <time>2024-01-25T14:46:27Z</time>
      </trkpt>
      <trkpt lat="48.70494" lon="-1.43653">
        <ele>31.9</ele>
        <time>2024-01-25T14:46:28Z</time>
      </trkpt>
      <trkpt lat="48.70487" lon="-1.43661">
        <ele>31.7</ele>
        <time>2024-01-25T14:46:29Z</time>
      </trkpt>
      <trkpt lat="48.7048" lon="-1.43669">
        <ele>31.5</ele>
        <time>2024-01-25T14:46:30Z</time>
      </trkpt>
      <trkpt lat="48.70473" lon="-1.43677">
        <ele>31.3</ele>
        <time>2024-01-25T14:46:31Z</time>
      </trkpt>
      <trkpt lat="48.70466" lon="-1.43685">
        <ele>31.1</ele>
        <time>2024-01-25T14:46:32Z</time>
      </trkpt>
      <trkpt lat="48.70459" lon="-1.43693">
        <ele>31</ele>
        <time>2024-01-25T14:46:33Z</time>
      </trkpt>
      <trkpt lat="48.70452" lon="-1.437">
        <ele>30.8</ele>
        <time>2024-01-25T14:46:34Z</time>
      </trkpt>
      <trkpt lat="48.70444" lon="-1.43708">
        <ele>30.6</ele>
        <time>2024-01-25T14:46:35Z</time>
      </trkpt>
      <trkpt lat="48.70437" lon="-1.43716">
        <ele>30.4</ele>
        <time>2024-01-25T14:46:36Z</time>
      </trkpt>
      <trkpt lat="48.7043" lon="-1.43724">
        <ele>30.3</ele>
        <time>2024-01-25T14:46:37Z</time>
      </trkpt>
      <trkpt lat="48.70424" lon="-1.43733">
        <ele>30.2</ele>
        <time>2024-01-25T14:46:38Z</time>
      </trkpt>
      <trkpt lat="48.70417" lon="-1.43741">
        <ele>30.1</ele>
        <time>2024-01-25T14:46:39Z</time>
      </trkpt>
      <trkpt lat="48.7041" lon="-1.4375">
        <ele>30</ele>
        <time>2024-01-25T14:46:40Z</time>
      </trkpt>
      <trkpt lat="48.70403" lon="-1.43758">
        <ele>29.9</ele>
        <time>2024-01-25T14:46:41Z</time>
      </trkpt>
      <trkpt lat="48.70397" lon="-1.43768">
        <ele>29.9</ele>
        <time>2024-01-25T14:46:42Z</time>
      </trkpt>
      <trkpt lat="48.70391" lon="-1.43777">
        <ele>29.8</ele>
        <time>2024-01-25T14:46:43Z</time>
      </trkpt>
      <trkpt lat="48.70385" lon="-1.43787">
        <ele>29.6</ele>
        <time>2024-01-25T14:46:44Z</time>
      </trkpt>
      <trkpt lat="48.7038" lon="-1.43797">
        <ele>29.5</ele>
        <time>2024-01-25T14:46:45Z</time>
      </trkpt>
      <trkpt lat="48.70375" lon="-1.43808">
        <ele>29.4</ele>
        <time>2024-01-25T14:46:46Z</time>
      </trkpt>
      <trkpt lat="48.70369" lon="-1.43819">
        <ele>29.2</ele>
        <time>2024-01-25T14:46:47Z</time>
      </trkpt>
      <trkpt lat="48.70364" lon="-1.43829">
        <ele>29.1</ele>
        <time>2024-01-25T14:46:48Z</time>
      </trkpt>
      <trkpt lat="48.70359" lon="-1.43839">
        <ele>28.9</ele>
        <time>2024-01-25T14:46:49Z</time>
      </trkpt>
      <trkpt lat="48.70354" lon="-1.4385">
        <ele>28.8</ele>
        <time>2024-01-25T14:46:50Z</time>
      </trkpt>
      <trkpt lat="48.70348" lon="-1.4386">
        <ele>28.8</ele>
        <time>2024-01-25T14:46:51Z</time>
      </trkpt>
      <trkpt lat="48.70343" lon="-1.4387">
        <ele>28.7</ele>
        <time>2024-01-25T14:46:52Z</time>
      </trkpt>
      <trkpt lat="48.70337" lon="-1.4388">
        <ele>28.5</ele>
        <time>2024-01-25T14:46:53Z</time>
      </trkpt>
      <trkpt lat="48.70332" lon="-1.4389">
        <ele>28.4</ele>
        <time>2024-01-25T14:46:54Z</time>
      </trkpt>
      <trkpt lat="48.70326" lon="-1.43899">
        <ele>28.3</ele>
        <time>2024-01-25T14:46:55Z</time>
      </trkpt>
      <trkpt lat="48.7032" lon="-1.43909">
        <ele>28.2</ele>
        <time>2024-01-25T14:46:56Z</time>
      </trkpt>
      <trkpt lat="48.70314" lon="-1.43917">
        <ele>28.1</ele>
        <time>2024-01-25T14:46:57Z</time>
      </trkpt>
      <trkpt lat="48.70308" lon="-1.43925">
        <ele>28</ele>
        <time>2024-01-25T14:46:58Z</time>
      </trkpt>
      <trkpt lat="48.70302" lon="-1.43934">
        <ele>27.9</ele>
        <time>2024-01-25T14:46:59Z</time>
      </trkpt>
      <trkpt lat="48.70295" lon="-1.43943">
        <ele>27.8</ele>
        <time>2024-01-25T14:47:00Z</time>
      </trkpt>
      <trkpt lat="48.70289" lon="-1.43951">
        <ele>27.7</ele>
        <time>2024-01-25T14:47:01Z</time>
      </trkpt>
      <trkpt lat="48.70282" lon="-1.43959">
        <ele>27.6</ele>
        <time>2024-01-25T14:47:02Z</time>
      </trkpt>
      <trkpt lat="48.70275" lon="-1.43966">
        <ele>27.5</ele>
        <time>2024-01-25T14:47:03Z</time>
      </trkpt>
      <trkpt lat="48.70268" lon="-1.43973">
        <ele>27.4</ele>
        <time>2024-01-25T14:47:04Z</time>
      </trkpt>
      <trkpt lat="48.70261" lon="-1.4398">
        <ele>27.3</ele>
        <time>2024-01-25T14:47:05Z</time>
      </trkpt>
      <trkpt lat="48.70254" lon="-1.43986">
        <ele>27.2</ele>
        <time>2024-01-25T14:47:06Z</time>
      </trkpt>
      <trkpt lat="48.70247" lon="-1.43992">
        <ele>27.2</ele>
        <time>2024-01-25T14:47:07Z</time>
      </trkpt>
      <trkpt lat="48.70241" lon="-1.43996">
        <ele>27.2</ele>
        <time>2024-01-25T14:47:08Z</time>
      </trkpt>
      <trkpt lat="48.70234" lon="-1.44001">
        <ele>27.2</ele>
        <time>2024-01-25T14:47:09Z</time>
      </trkpt>
      <trkpt lat="48.70228" lon="-1.44006">
        <ele>27.2</ele>
        <time>2024-01-25T14:47:10Z</time>
      </trkpt>
      <trkpt lat="48.70222" lon="-1.44011">
        <ele>27.2</ele>
        <time>2024-01-25T14:47:11Z</time>
      </trkpt>
      <trkpt lat="48.70216" lon="-1.44015">
        <ele>27.2</ele>
        <time>2024-01-25T14:47:12Z</time>
      </trkpt>
      <trkpt lat="48.7021" lon="-1.44019">
        <ele>27.2</ele>
        <time>2024-01-25T14:47:13Z</time>
      </trkpt>
      <trkpt lat="48.70204" lon="-1.44023">
        <ele>27.2</ele>
        <time>2024-01-25T14:47:14Z</time>
      </trkpt>
      <trkpt lat="48.70199" lon="-1.44027">
        <ele>27.2</ele>
        <time>2024-01-25T14:47:15Z</time>
      </trkpt>
      <trkpt lat="48.70193" lon="-1.4403">
        <ele>27.2</ele>
        <time>2024-01-25T14:47:16Z</time>
      </trkpt>
      <trkpt lat="48.70188" lon="-1.44034">
        <ele>27.1</ele>
        <time>2024-01-25T14:47:17Z</time>
      </trkpt>
      <trkpt lat="48.70182" lon="-1.44038">
        <ele>27.1</ele>
        <time>2024-01-25T14:47:18Z</time>
      </trkpt>
      <trkpt lat="48.70177" lon="-1.44043">
        <ele>27.1</ele>
        <time>2024-01-25T14:47:19Z</time>
      </trkpt>
      <trkpt lat="48.70171" lon="-1.44046">
        <ele>27.1</ele>
        <time>2024-01-25T14:47:20Z</time>
      </trkpt>
      <trkpt lat="48.70165" lon="-1.4405">
        <ele>27.1</ele>
        <time>2024-01-25T14:47:21Z</time>
      </trkpt>
      <trkpt lat="48.70159" lon="-1.44054">
        <ele>27.1</ele>
        <time>2024-01-25T14:47:22Z</time>
      </trkpt>
      <trkpt lat="48.70154" lon="-1.44059">
        <ele>27.1</ele>
        <time>2024-01-25T14:47:23Z</time>
      </trkpt>
      <trkpt lat="48.70148" lon="-1.44063">
        <ele>27.1</ele>
        <time>2024-01-25T14:47:24Z</time>
      </trkpt>
      <trkpt lat="48.70143" lon="-1.44068">
        <ele>27</ele>
        <time>2024-01-25T14:47:25Z</time>
      </trkpt>
      <trkpt lat="48.70137" lon="-1.44073">
        <ele>27</ele>
        <time>2024-01-25T14:47:26Z</time>
      </trkpt>
      <trkpt lat="48.70133" lon="-1.44079">
        <ele>27</ele>
        <time>2024-01-25T14:47:27Z</time>
      </trkpt>
      <trkpt lat="48.70128" lon="-1.44085">
        <ele>27</ele>
        <time>2024-01-25T14:47:28Z</time>
      </trkpt>
      <trkpt lat="48.70124" lon="-1.4409">
        <ele>26.9</ele>
        <time>2024-01-25T14:47:29Z</time>
      </trkpt>
      <trkpt lat="48.70119" lon="-1.44096">
        <ele>26.9</ele>
        <time>2024-01-25T14:47:30Z</time>
      </trkpt>
      <trkpt lat="48.70115" lon="-1.44103">
        <ele>26.9</ele>
        <time>2024-01-25T14:47:31Z</time>
      </trkpt>
      <trkpt lat="48.70111" lon="-1.4411">
        <ele>26.8</ele>
        <time>2024-01-25T14:47:32Z</time>
      </trkpt>
      <trkpt lat="48.70107" lon="-1.44117">
        <ele>26.8</ele>
        <time>2024-01-25T14:47:33Z</time>
      </trkpt>
      <trkpt lat="48.70102" lon="-1.44123">
        <ele>26.9</ele>
        <time>2024-01-25T14:47:34Z</time>
      </trkpt>
      <trkpt lat="48.70097" lon="-1.44128">
        <ele>27</ele>
        <time>2024-01-25T14:47:35Z</time>
      </trkpt>
      <trkpt lat="48.70091" lon="-1.44133">
        <ele>27</ele>
        <time>2024-01-25T14:47:36Z</time>
      </trkpt>
      <trkpt lat="48.70086" lon="-1.44136">
        <ele>27.1</ele>
        <time>2024-01-25T14:47:37Z</time>
      </trkpt>
      <trkpt lat="48.7008" lon="-1.44139">
        <ele>27.2</ele>
        <time>2024-01-25T14:47:38Z</time>
      </trkpt>
      <trkpt lat="48.70075" lon="-1.44142">
        <ele>27.2</ele>
        <time>2024-01-25T14:47:39Z</time>
      </trkpt>
      <trkpt lat="48.7007" lon="-1.44145">
        <ele>27.3</ele>
        <time>2024-01-25T14:47:40Z</time>
      </trkpt>
      <trkpt lat="48.70065" lon="-1.44148">
        <ele>27.4</ele>
        <time>2024-01-25T14:47:41Z</time>
      </trkpt>
      <trkpt lat="48.70061" lon="-1.4415">
        <ele>27.4</ele>
        <time>2024-01-25T14:47:42Z</time>
      </trkpt>
      <trkpt lat="48.70056" lon="-1.44153">
        <ele>27.3</ele>
        <time>2024-01-25T14:47:43Z</time>
      </trkpt>
      <trkpt lat="48.70052" lon="-1.44156">
        <ele>27.1</ele>
        <time>2024-01-25T14:47:44Z</time>
      </trkpt>
      <trkpt lat="48.70048" lon="-1.4416">
        <ele>27</ele>
        <time>2024-01-25T14:47:45Z</time>
      </trkpt>
      <trkpt lat="48.70043" lon="-1.44164">
        <ele>26.8</ele>
        <time>2024-01-25T14:47:46Z</time>
      </trkpt>
      <trkpt lat="48.70039" lon="-1.44169">
        <ele>26.6</ele>
        <time>2024-01-25T14:47:47Z</time>
      </trkpt>
      <trkpt lat="48.70034" lon="-1.44175">
        <ele>26.4</ele>
        <time>2024-01-25T14:47:48Z</time>
      </trkpt>
      <trkpt lat="48.70029" lon="-1.44181">
        <ele>26.3</ele>
        <time>2024-01-25T14:47:49Z</time>
      </trkpt>
      <trkpt lat="48.70024" lon="-1.44186">
        <ele>26.2</ele>
        <time>2024-01-25T14:47:50Z</time>
      </trkpt>
      <trkpt lat="48.70019" lon="-1.44191">
        <ele>26.1</ele>
        <time>2024-01-25T14:47:51Z</time>
      </trkpt>
      <trkpt lat="48.70013" lon="-1.44196">
        <ele>26</ele>
        <time>2024-01-25T14:47:52Z</time>
      </trkpt>
      <trkpt lat="48.70008" lon="-1.44202">
        <ele>25.9</ele>
        <time>2024-01-25T14:47:53Z</time>
      </trkpt>
      <trkpt lat="48.70002" lon="-1.44207">
        <ele>25.8</ele>
        <time>2024-01-25T14:47:54Z</time>
      </trkpt>
      <trkpt lat="48.69997" lon="-1.44212">
        <ele>25.7</ele>
        <time>2024-01-25T14:47:55Z</time>
      </trkpt>
      <trkpt lat="48.69991" lon="-1.44217">
        <ele>25.5</ele>
        <time>2024-01-25T14:47:56Z</time>
      </trkpt>
      <trkpt lat="48.69985" lon="-1.44222">
        <ele>25.4</ele>
        <time>2024-01-25T14:47:57Z</time>
      </trkpt>
      <trkpt lat="48.69978" lon="-1.44226">
        <ele>25.3</ele>
        <time>2024-01-25T14:47:58Z</time>
      </trkpt>
      <trkpt lat="48.69972" lon="-1.4423">
        <ele>25.2</ele>
        <time>2024-01-25T14:47:59Z</time>
      </trkpt>
      <trkpt lat="48.69966" lon="-1.44233">
        <ele>25</ele>
        <time>2024-01-25T14:48:00Z</time>
      </trkpt>
      <trkpt lat="48.69959" lon="-1.44237">
        <ele>24.9</ele>
        <time>2024-01-25T14:48:01Z</time>
      </trkpt>
      <trkpt lat="48.69953" lon="-1.4424">
        <ele>24.8</ele>
        <time>2024-01-25T14:48:02Z</time>
      </trkpt>
      <trkpt lat="48.69946" lon="-1.44243">
        <ele>24.8</ele>
        <time>2024-01-25T14:48:03Z</time>
      </trkpt>
      <trkpt lat="48.69939" lon="-1.44246">
        <ele>24.7</ele>
        <time>2024-01-25T14:48:04Z</time>
      </trkpt>
      <trkpt lat="48.69932" lon="-1.44248">
        <ele>24.6</ele>
        <time>2024-01-25T14:48:05Z</time>
      </trkpt>
      <trkpt lat="48.69926" lon="-1.44251">
        <ele>24.5</ele>
        <time>2024-01-25T14:48:06Z</time>
      </trkpt>
      <trkpt lat="48.6992" lon="-1.44255">
        <ele>24.4</ele>
        <time>2024-01-25T14:48:07Z</time>
      </trkpt>
      <trkpt lat="48.69914" lon="-1.44258">
        <ele>24.3</ele>
        <time>2024-01-25T14:48:08Z</time>
      </trkpt>
      <trkpt lat="48.69908" lon="-1.44262">
        <ele>24.2</ele>
        <time>2024-01-25T14:48:09Z</time>
      </trkpt>
      <trkpt lat="48.69903" lon="-1.44268">
        <ele>24.1</ele>
        <time>2024-01-25T14:48:10Z</time>
      </trkpt>
      <trkpt lat="48.69898" lon="-1.44275">
        <ele>23.9</ele>
        <time>2024-01-25T14:48:11Z</time>
      </trkpt>
      <trkpt lat="48.69895" lon="-1.44285">
        <ele>23.8</ele>
        <time>2024-01-25T14:48:12Z</time>
      </trkpt>
      <trkpt lat="48.69893" lon="-1.44296">
        <ele>23.6</ele>
        <time>2024-01-25T14:48:13Z</time>
      </trkpt>
      <trkpt lat="48.69893" lon="-1.44309">
        <ele>23.4</ele>
        <time>2024-01-25T14:48:14Z</time>
      </trkpt>
      <trkpt lat="48.69895" lon="-1.44321">
        <ele>23.2</ele>
        <time>2024-01-25T14:48:15Z</time>
      </trkpt>
      <trkpt lat="48.69897" lon="-1.44333">
        <ele>23.1</ele>
        <time>2024-01-25T14:48:16Z</time>
      </trkpt>
      <trkpt lat="48.69901" lon="-1.44345">
        <ele>22.9</ele>
        <time>2024-01-25T14:48:17Z</time>
      </trkpt>
      <trkpt lat="48.69904" lon="-1.44356">
        <ele>22.8</ele>
        <time>2024-01-25T14:48:18Z</time>
      </trkpt>
      <trkpt lat="48.69908" lon="-1.44366">
        <ele>22.7</ele>
        <time>2024-01-25T14:48:19Z</time>
      </trkpt>
      <trkpt lat="48.69911" lon="-1.44377">
        <ele>22.6</ele>
        <time>2024-01-25T14:48:20Z</time>
      </trkpt>
      <trkpt lat="48.69915" lon="-1.44388">
        <ele>22.4</ele>
        <time>2024-01-25T14:48:21Z</time>
      </trkpt>
      <trkpt lat="48.69918" lon="-1.44399">
        <ele>22.3</ele>
        <time>2024-01-25T14:48:22Z</time>
      </trkpt>
      <trkpt lat="48.69921" lon="-1.44409">
        <ele>22.2</ele>
        <time>2024-01-25T14:48:23Z</time>
      </trkpt>
      <trkpt lat="48.69925" lon="-1.4442">
        <ele>22.1</ele>
        <time>2024-01-25T14:48:24Z</time>
      </trkpt>
      <trkpt lat="48.69929" lon="-1.44432">
        <ele>21.9</ele>
        <time>2024-01-25T14:48:25Z</time>
      </trkpt>
      <trkpt lat="48.69932" lon="-1.44443">
        <ele>21.8</ele>
        <time>2024-01-25T14:48:26Z</time>
      </trkpt>
      <trkpt lat="48.69936" lon="-1.44454">
        <ele>21.7</ele>
        <time>2024-01-25T14:48:27Z</time>
      </trkpt>
      <trkpt lat="48.6994" lon="-1.44465">
        <ele>21.5</ele>
        <time>2024-01-25T14:48:28Z</time>
      </trkpt>
      <trkpt lat="48.69943" lon="-1.44476">
        <ele>21.4</ele>
        <time>2024-01-25T14:48:29Z</time>
      </trkpt>
      <trkpt lat="48.69947" lon="-1.44487">
        <ele>21.2</ele>
        <time>2024-01-25T14:48:30Z</time>
      </trkpt>
      <trkpt lat="48.6995" lon="-1.44498">
        <ele>21.1</ele>
        <time>2024-01-25T14:48:31Z</time>
      </trkpt>
      <trkpt lat="48.69953" lon="-1.4451">
        <ele>21</ele>
        <time>2024-01-25T14:48:32Z</time>
      </trkpt>
      <trkpt lat="48.69956" lon="-1.44521">
        <ele>20.9</ele>
        <time>2024-01-25T14:48:33Z</time>
      </trkpt>
      <trkpt lat="48.69958" lon="-1.44533">
        <ele>20.8</ele>
        <time>2024-01-25T14:48:34Z</time>
      </trkpt>
      <trkpt lat="48.69961" lon="-1.44545">
        <ele>20.7</ele>
        <time>2024-01-25T14:48:35Z</time>
      </trkpt>
      <trkpt lat="48.69963" lon="-1.44556">
        <ele>20.6</ele>
        <time>2024-01-25T14:48:36Z</time>
      </trkpt>
      <trkpt lat="48.69964" lon="-1.44567">
        <ele>20.5</ele>
        <time>2024-01-25T14:48:37Z</time>
      </trkpt>
      <trkpt lat="48.69966" lon="-1.44579">
        <ele>20.4</ele>
        <time>2024-01-25T14:48:38Z</time>
      </trkpt>
      <trkpt lat="48.69968" lon="-1.4459">
        <ele>20.3</ele>
        <time>2024-01-25T14:48:39Z</time>
      </trkpt>
      <trkpt lat="48.6997" lon="-1.44601">
        <ele>20.3</ele>
        <time>2024-01-25T14:48:40Z</time>
      </trkpt>
      <trkpt lat="48.69971" lon="-1.44612">
        <ele>20.2</ele>
        <time>2024-01-25T14:48:41Z</time>
      </trkpt>
      <trkpt lat="48.69973" lon="-1.44624">
        <ele>20.2</ele>
        <time>2024-01-25T14:48:42Z</time>
      </trkpt>
      <trkpt lat="48.69975" lon="-1.44635">
        <ele>20.2</ele>
        <time>2024-01-25T14:48:43Z</time>
      </trkpt>
      <trkpt lat="48.69977" lon="-1.44646">
        <ele>20.1</ele>
        <time>2024-01-25T14:48:44Z</time>
      </trkpt>
      <trkpt lat="48.69978" lon="-1.44657">
        <ele>20.1</ele>
        <time>2024-01-25T14:48:45Z</time>
      </trkpt>
      <trkpt lat="48.6998" lon="-1.44669">
        <ele>20</ele>
        <time>2024-01-25T14:48:46Z</time>
      </trkpt>
      <trkpt lat="48.69982" lon="-1.4468">
        <ele>20</ele>
        <time>2024-01-25T14:48:47Z</time>
      </trkpt>
      <trkpt lat="48.69983" lon="-1.44691">
        <ele>19.9</ele>
        <time>2024-01-25T14:48:48Z</time>
      </trkpt>
      <trkpt lat="48.69985" lon="-1.44702">
        <ele>19.9</ele>
        <time>2024-01-25T14:48:49Z</time>
      </trkpt>
      <trkpt lat="48.69987" lon="-1.44712">
        <ele>19.8</ele>
        <time>2024-01-25T14:48:50Z</time>
      </trkpt>
      <trkpt lat="48.69989" lon="-1.44723">
        <ele>19.8</ele>
        <time>2024-01-25T14:48:51Z</time>
      </trkpt>
      <trkpt lat="48.6999" lon="-1.44733">
        <ele>19.7</ele>
        <time>2024-01-25T14:48:52Z</time>
      </trkpt>
      <trkpt lat="48.69992" lon="-1.44743">
        <ele>19.7</ele>
        <time>2024-01-25T14:48:53Z</time>
      </trkpt>
      <trkpt lat="48.69993" lon="-1.44753">
        <ele>19.7</ele>
        <time>2024-01-25T14:48:54Z</time>
      </trkpt>
      <trkpt lat="48.69995" lon="-1.44763">
        <ele>19.7</ele>
        <time>2024-01-25T14:48:55Z</time>
      </trkpt>
      <trkpt lat="48.69996" lon="-1.44772">
        <ele>19.6</ele>
        <time>2024-01-25T14:48:56Z</time>
      </trkpt>
      <trkpt lat="48.69998" lon="-1.44783">
        <ele>19.6</ele>
        <time>2024-01-25T14:48:57Z</time>
      </trkpt>
      <trkpt lat="48.7" lon="-1.44793">
        <ele>19.5</ele>
        <time>2024-01-25T14:48:58Z</time>
      </trkpt>
      <trkpt lat="48.70002" lon="-1.44803">
        <ele>19.5</ele>
        <time>2024-01-25T14:48:59Z</time>
      </trkpt>
      <trkpt lat="48.70003" lon="-1.44813">
        <ele>19.4</ele>
        <time>2024-01-25T14:49:00Z</time>
      </trkpt>
      <trkpt lat="48.70005" lon="-1.44824">
        <ele>19.3</ele>
        <time>2024-01-25T14:49:01Z</time>
      </trkpt>
      <trkpt lat="48.70005" lon="-1.44835">
        <ele>19.2</ele>
        <time>2024-01-25T14:49:02Z</time>
      </trkpt>
      <trkpt lat="48.70004" lon="-1.44846">
        <ele>19.1</ele>
        <time>2024-01-25T14:49:03Z</time>
      </trkpt>
      <trkpt lat="48.70003" lon="-1.44857">
        <ele>19.1</ele>
        <time>2024-01-25T14:49:04Z</time>
      </trkpt>
      <trkpt lat="48.69999" lon="-1.44867">
        <ele>19</ele>
        <time>2024-01-25T14:49:05Z</time>
      </trkpt>
      <trkpt lat="48.69995" lon="-1.44876">
        <ele>19</ele>
        <time>2024-01-25T14:49:06Z</time>
      </trkpt>
      <trkpt lat="48.6999" lon="-1.44885">
        <ele>19</ele>
        <time>2024-01-25T14:49:07Z</time>
      </trkpt>
      <trkpt lat="48.69985" lon="-1.44893">
        <ele>18.9</ele>
        <time>2024-01-25T14:49:08Z</time>
      </trkpt>
      <trkpt lat="48.6998" lon="-1.44902">
        <ele>18.9</ele>
        <time>2024-01-25T14:49:09Z</time>
      </trkpt>
      <trkpt lat="48.69974" lon="-1.44909">
        <ele>18.8</ele>
        <time>2024-01-25T14:49:10Z</time>
      </trkpt>
      <trkpt lat="48.69969" lon="-1.44917">
        <ele>18.8</ele>
        <time>2024-01-25T14:49:11Z</time>
      </trkpt>
      <trkpt lat="48.69964" lon="-1.44925">
        <ele>18.7</ele>
        <time>2024-01-25T14:49:12Z</time>
      </trkpt>
      <trkpt lat="48.69959" lon="-1.44933">
        <ele>18.6</ele>
        <time>2024-01-25T14:49:13Z</time>
      </trkpt>
      <trkpt lat="48.69954" lon="-1.44941">
        <ele>18.6</ele>
        <time>2024-01-25T14:49:14Z</time>
      </trkpt>
      <trkpt lat="48.69949" lon="-1.4495">
        <ele>18.5</ele>
        <time>2024-01-25T14:49:15Z</time>
      </trkpt>
      <trkpt lat="48.69944" lon="-1.44958">
        <ele>18.5</ele>
        <time>2024-01-25T14:49:16Z</time>
      </trkpt>
      <trkpt lat="48.69939" lon="-1.44965">
        <ele>18.5</ele>
        <time>2024-01-25T14:49:17Z</time>
      </trkpt>
      <trkpt lat="48.69934" lon="-1.44973">
        <ele>18.5</ele>
        <time>2024-01-25T14:49:18Z</time>
      </trkpt>
      <trkpt lat="48.69929" lon="-1.4498">
        <ele>18.5</ele>
        <time>2024-01-25T14:49:19Z</time>
      </trkpt>
      <trkpt lat="48.69924" lon="-1.44988">
        <ele>18.5</ele>
        <time>2024-01-25T14:49:20Z</time>
      </trkpt>
      <trkpt lat="48.69919" lon="-1.44996">
        <ele>18.4</ele>
        <time>2024-01-25T14:49:21Z</time>
      </trkpt>
      <trkpt lat="48.69914" lon="-1.45004">
        <ele>18.4</ele>
        <time>2024-01-25T14:49:22Z</time>
      </trkpt>
      <trkpt lat="48.69908" lon="-1.45011">
        <ele>18.4</ele>
        <time>2024-01-25T14:49:23Z</time>
      </trkpt>
      <trkpt lat="48.69903" lon="-1.45019">
        <ele>18.3</ele>
        <time>2024-01-25T14:49:24Z</time>
      </trkpt>
      <trkpt lat="48.69898" lon="-1.45027">
        <ele>18.3</ele>
        <time>2024-01-25T14:49:25Z</time>
      </trkpt>
      <trkpt lat="48.69894" lon="-1.45033">
        <ele>18.3</ele>
        <time>2024-01-25T14:49:26Z</time>
      </trkpt>
      <trkpt lat="48.69889" lon="-1.45039">
        <ele>18.2</ele>
        <time>2024-01-25T14:49:27Z</time>
      </trkpt>
      <trkpt lat="48.69884" lon="-1.45044">
        <ele>18.2</ele>
        <time>2024-01-25T14:49:28Z</time>
      </trkpt>
      <trkpt lat="48.69879" lon="-1.45049">
        <ele>18.2</ele>
        <time>2024-01-25T14:49:29Z</time>
      </trkpt>
      <trkpt lat="48.69876" lon="-1.45055">
        <ele>18.2</ele>
        <time>2024-01-25T14:49:30Z</time>
      </trkpt>
      <trkpt lat="48.69872" lon="-1.45059">
        <ele>18.1</ele>
        <time>2024-01-25T14:49:31Z</time>
      </trkpt>
      <trkpt lat="48.6987" lon="-1.45063">
        <ele>18.1</ele>
        <time>2024-01-25T14:49:32Z</time>
      </trkpt>
      <trkpt lat="48.69868" lon="-1.45067">
        <ele>18.1</ele>
        <time>2024-01-25T14:49:33Z</time>
      </trkpt>
      <trkpt lat="48.69867" lon="-1.45068">
        <ele>18.1</ele>
        <time>2024-01-25T14:49:34Z</time>
      </trkpt>
      <trkpt lat="48.69867" lon="-1.45069">
        <ele>18.1</ele>
        <time>2024-01-25T14:49:35Z</time>
      </trkpt>
      <trkpt lat="48.69867" lon="-1.45069">
        <ele>18.1</ele>
        <time>2024-01-25T14:49:36Z</time>
      </trkpt>
      <trkpt lat="48.69867" lon="-1.45069">
        <ele>18.1</ele>
        <time>2024-01-25T14:49:37Z</time>
      </trkpt>
      <trkpt lat="48.69866" lon="-1.45069">
        <ele>18.1</ele>
        <time>2024-01-25T14:49:39Z</time>
      </trkpt>
      <trkpt lat="48.69866" lon="-1.4507">
        <ele>18.1</ele>
        <time>2024-01-25T14:49:40Z</time>
      </trkpt>
      <trkpt lat="48.69866" lon="-1.4507">
        <ele>18.1</ele>
        <time>2024-01-25T14:49:41Z</time>
      </trkpt>
      <trkpt lat="48.69866" lon="-1.4507">
        <ele>18.1</ele>
        <time>2024-01-25T14:49:42Z</time>
      </trkpt>
      <trkpt lat="48.69866" lon="-1.4507">
        <ele>18.1</ele>
        <time>2024-01-25T14:49:43Z</time>
      </trkpt>
      <trkpt lat="48.69865" lon="-1.45071">
        <ele>18.1</ele>
        <time>2024-01-25T14:49:44Z</time>
      </trkpt>
      <trkpt lat="48.69865" lon="-1.45071">
        <ele>18.1</ele>
        <time>2024-01-25T14:49:45Z</time>
      </trkpt>
      <trkpt lat="48.69865" lon="-1.45071">
        <ele>18.1</ele>
        <time>2024-01-25T14:49:46Z</time>
      </trkpt>
      <trkpt lat="48.69865" lon="-1.45071">
        <ele>18</ele>
        <time>2024-01-25T14:49:47Z</time>
      </trkpt>
      <trkpt lat="48.69864" lon="-1.45072">
        <ele>18</ele>
        <time>2024-01-25T14:49:48Z</time>
      </trkpt>
      <trkpt lat="48.69862" lon="-1.45075">
        <ele>18</ele>
        <time>2024-01-25T14:49:49Z</time>
      </trkpt>
      <trkpt lat="48.69859" lon="-1.45079">
        <ele>18</ele>
        <time>2024-01-25T14:49:50Z</time>
      </trkpt>
      <trkpt lat="48.69859" lon="-1.45081">
        <ele>18</ele>
        <time>2024-01-25T14:49:51Z</time>
      </trkpt>
      <trkpt lat="48.69856" lon="-1.45083">
        <ele>18</ele>
        <time>2024-01-25T14:49:52Z</time>
      </trkpt>
      <trkpt lat="48.69853" lon="-1.45087">
        <ele>18</ele>
        <time>2024-01-25T14:49:53Z</time>
      </trkpt>
      <trkpt lat="48.69849" lon="-1.45092">
        <ele>17.9</ele>
        <time>2024-01-25T14:49:54Z</time>
      </trkpt>
      <trkpt lat="48.69845" lon="-1.45096">
        <ele>17.9</ele>
        <time>2024-01-25T14:49:55Z</time>
      </trkpt>
      <trkpt lat="48.69841" lon="-1.45101">
        <ele>17.9</ele>
        <time>2024-01-25T14:49:56Z</time>
      </trkpt>
      <trkpt lat="48.69837" lon="-1.45106">
        <ele>17.9</ele>
        <time>2024-01-25T14:49:57Z</time>
      </trkpt>
      <trkpt lat="48.69833" lon="-1.45112">
        <ele>17.8</ele>
        <time>2024-01-25T14:49:58Z</time>
      </trkpt>
      <trkpt lat="48.69829" lon="-1.45118">
        <ele>17.8</ele>
        <time>2024-01-25T14:49:59Z</time>
      </trkpt>
      <trkpt lat="48.69825" lon="-1.45124">
        <ele>17.8</ele>
        <time>2024-01-25T14:50:00Z</time>
      </trkpt>
      <trkpt lat="48.69821" lon="-1.4513">
        <ele>17.7</ele>
        <time>2024-01-25T14:50:01Z</time>
      </trkpt>
      <trkpt lat="48.69817" lon="-1.45136">
        <ele>17.6</ele>
        <time>2024-01-25T14:50:02Z</time>
      </trkpt>
      <trkpt lat="48.69813" lon="-1.45143">
        <ele>17.6</ele>
        <time>2024-01-25T14:50:03Z</time>
      </trkpt>
      <trkpt lat="48.69809" lon="-1.45149">
        <ele>17.5</ele>
        <time>2024-01-25T14:50:04Z</time>
      </trkpt>
      <trkpt lat="48.69804" lon="-1.45156">
        <ele>17.4</ele>
        <time>2024-01-25T14:50:05Z</time>
      </trkpt>
      <trkpt lat="48.698" lon="-1.45161">
        <ele>17.4</ele>
        <time>2024-01-25T14:50:06Z</time>
      </trkpt>
      <trkpt lat="48.69795" lon="-1.45167">
        <ele>17.3</ele>
        <time>2024-01-25T14:50:07Z</time>
      </trkpt>
      <trkpt lat="48.69791" lon="-1.45173">
        <ele>17.2</ele>
        <time>2024-01-25T14:50:08Z</time>
      </trkpt>
      <trkpt lat="48.69787" lon="-1.45179">
        <ele>17.1</ele>
        <time>2024-01-25T14:50:09Z</time>
      </trkpt>
      <trkpt lat="48.69783" lon="-1.45186">
        <ele>17.1</ele>
        <time>2024-01-25T14:50:10Z</time>
      </trkpt>
      <trkpt lat="48.69778" lon="-1.45192">
        <ele>17</ele>
        <time>2024-01-25T14:50:11Z</time>
      </trkpt>
      <trkpt lat="48.69774" lon="-1.45199">
        <ele>16.9</ele>
        <time>2024-01-25T14:50:12Z</time>
      </trkpt>
      <trkpt lat="48.69771" lon="-1.45206">
        <ele>16.9</ele>
        <time>2024-01-25T14:50:13Z</time>
      </trkpt>
      <trkpt lat="48.69767" lon="-1.45212">
        <ele>16.8</ele>
        <time>2024-01-25T14:50:14Z</time>
      </trkpt>
      <trkpt lat="48.69764" lon="-1.45219">
        <ele>16.7</ele>
        <time>2024-01-25T14:50:15Z</time>
      </trkpt>
      <trkpt lat="48.69761" lon="-1.45226">
        <ele>16.7</ele>
        <time>2024-01-25T14:50:16Z</time>
      </trkpt>
      <trkpt lat="48.69757" lon="-1.45233">
        <ele>16.6</ele>
        <time>2024-01-25T14:50:17Z</time>
      </trkpt>
      <trkpt lat="48.69754" lon="-1.4524">
        <ele>16.6</ele>
        <time>2024-01-25T14:50:18Z</time>
      </trkpt>
      <trkpt lat="48.69751" lon="-1.45247">
        <ele>16.5</ele>
        <time>2024-01-25T14:50:19Z</time>
      </trkpt>
      <trkpt lat="48.69749" lon="-1.45255">
        <ele>16.4</ele>
        <time>2024-01-25T14:50:20Z</time>
      </trkpt>
      <trkpt lat="48.69746" lon="-1.45263">
        <ele>16.4</ele>
        <time>2024-01-25T14:50:21Z</time>
      </trkpt>
      <trkpt lat="48.69743" lon="-1.45269">
        <ele>16.3</ele>
        <time>2024-01-25T14:50:22Z</time>
      </trkpt>
      <trkpt lat="48.69739" lon="-1.45276">
        <ele>16.3</ele>
        <time>2024-01-25T14:50:23Z</time>
      </trkpt>
      <trkpt lat="48.69736" lon="-1.45282">
        <ele>16.2</ele>
        <time>2024-01-25T14:50:24Z</time>
      </trkpt>
      <trkpt lat="48.69733" lon="-1.45287">
        <ele>16.2</ele>
        <time>2024-01-25T14:50:25Z</time>
      </trkpt>
      <trkpt lat="48.69729" lon="-1.45292">
        <ele>16.2</ele>
        <time>2024-01-25T14:50:26Z</time>
      </trkpt>
      <trkpt lat="48.69726" lon="-1.45297">
        <ele>16.1</ele>
        <time>2024-01-25T14:50:27Z</time>
      </trkpt>
      <trkpt lat="48.69723" lon="-1.45302">
        <ele>16.1</ele>
        <time>2024-01-25T14:50:28Z</time>
      </trkpt>
      <trkpt lat="48.6972" lon="-1.45309">
        <ele>16.1</ele>
        <time>2024-01-25T14:50:29Z</time>
      </trkpt>
      <trkpt lat="48.69717" lon="-1.45315">
        <ele>16.1</ele>
        <time>2024-01-25T14:50:30Z</time>
      </trkpt>
      <trkpt lat="48.69714" lon="-1.4532">
        <ele>16.1</ele>
        <time>2024-01-25T14:50:31Z</time>
      </trkpt>
      <trkpt lat="48.69711" lon="-1.45326">
        <ele>16</ele>
        <time>2024-01-25T14:50:32Z</time>
      </trkpt>
      <trkpt lat="48.69708" lon="-1.45331">
        <ele>16</ele>
        <time>2024-01-25T14:50:33Z</time>
      </trkpt>
      <trkpt lat="48.69705" lon="-1.45335">
        <ele>16</ele>
        <time>2024-01-25T14:50:34Z</time>
      </trkpt>
      <trkpt lat="48.69702" lon="-1.45339">
        <ele>16</ele>
        <time>2024-01-25T14:50:35Z</time>
      </trkpt>
      <trkpt lat="48.697" lon="-1.45344">
        <ele>16</ele>
        <time>2024-01-25T14:50:36Z</time>
      </trkpt>
      <trkpt lat="48.69697" lon="-1.45349">
        <ele>16</ele>
        <time>2024-01-25T14:50:37Z</time>
      </trkpt>
      <trkpt lat="48.69694" lon="-1.45354">
        <ele>16</ele>
        <time>2024-01-25T14:50:38Z</time>
      </trkpt>
      <trkpt lat="48.69691" lon="-1.45361">
        <ele>16</ele>
        <time>2024-01-25T14:50:39Z</time>
      </trkpt>
      <trkpt lat="48.69687" lon="-1.45367">
        <ele>15.9</ele>
        <time>2024-01-25T14:50:40Z</time>
      </trkpt>
      <trkpt lat="48.69684" lon="-1.45373">
        <ele>15.9</ele>
        <time>2024-01-25T14:50:41Z</time>
      </trkpt>
      <trkpt lat="48.6968" lon="-1.45379">
        <ele>16</ele>
        <time>2024-01-25T14:50:42Z</time>
      </trkpt>
      <trkpt lat="48.69677" lon="-1.45386">
        <ele>16</ele>
        <time>2024-01-25T14:50:43Z</time>
      </trkpt>
      <trkpt lat="48.69674" lon="-1.45394">
        <ele>16</ele>
        <time>2024-01-25T14:50:44Z</time>
      </trkpt>
      <trkpt lat="48.69671" lon="-1.45402">
        <ele>16</ele>
        <time>2024-01-25T14:50:45Z</time>
      </trkpt>
      <trkpt lat="48.69668" lon="-1.4541">
        <ele>16.1</ele>
        <time>2024-01-25T14:50:46Z</time>
      </trkpt>
      <trkpt lat="48.69665" lon="-1.45419">
        <ele>16.1</ele>
        <time>2024-01-25T14:50:47Z</time>
      </trkpt>
      <trkpt lat="48.6966" lon="-1.45426">
        <ele>16.2</ele>
        <time>2024-01-25T14:50:48Z</time>
      </trkpt>
      <trkpt lat="48.69657" lon="-1.45435">
        <ele>16.2</ele>
        <time>2024-01-25T14:50:49Z</time>
      </trkpt>
      <trkpt lat="48.69653" lon="-1.45442">
        <ele>16.2</ele>
        <time>2024-01-25T14:50:50Z</time>
      </trkpt>
      <trkpt lat="48.69649" lon="-1.4545">
        <ele>16.3</ele>
        <time>2024-01-25T14:50:51Z</time>
      </trkpt>
      <trkpt lat="48.69645" lon="-1.45458">
        <ele>16.4</ele>
        <time>2024-01-25T14:50:52Z</time>
      </trkpt>
      <trkpt lat="48.69641" lon="-1.45466">
        <ele>16.4</ele>
        <time>2024-01-25T14:50:53Z</time>
      </trkpt>
      <trkpt lat="48.69637" lon="-1.45474">
        <ele>16.5</ele>
        <time>2024-01-25T14:50:54Z</time>
      </trkpt>
      <trkpt lat="48.69633" lon="-1.45482">
        <ele>16.6</ele>
        <time>2024-01-25T14:50:55Z</time>
      </trkpt>
      <trkpt lat="48.69629" lon="-1.4549">
        <ele>16.6</ele>
        <time>2024-01-25T14:50:56Z</time>
      </trkpt>
      <trkpt lat="48.69625" lon="-1.45498">
        <ele>16.7</ele>
        <time>2024-01-25T14:50:57Z</time>
      </trkpt>
      <trkpt lat="48.69621" lon="-1.45506">
        <ele>16.8</ele>
        <time>2024-01-25T14:50:58Z</time>
      </trkpt>
      <trkpt lat="48.69618" lon="-1.45514">
        <ele>16.8</ele>
        <time>2024-01-25T14:50:59Z</time>
      </trkpt>
      <trkpt lat="48.69614" lon="-1.45521">
        <ele>16.9</ele>
        <time>2024-01-25T14:51:00Z</time>
      </trkpt>
      <trkpt lat="48.6961" lon="-1.45528">
        <ele>16.9</ele>
        <time>2024-01-25T14:51:01Z</time>
      </trkpt>
      <trkpt lat="48.69606" lon="-1.45535">
        <ele>17</ele>
        <time>2024-01-25T14:51:02Z</time>
      </trkpt>
      <trkpt lat="48.69602" lon="-1.45543">
        <ele>17</ele>
        <time>2024-01-25T14:51:03Z</time>
      </trkpt>
      <trkpt lat="48.69599" lon="-1.4555">
        <ele>17.1</ele>
        <time>2024-01-25T14:51:04Z</time>
      </trkpt>
      <trkpt lat="48.69595" lon="-1.45557">
        <ele>17.1</ele>
        <time>2024-01-25T14:51:05Z</time>
      </trkpt>
      <trkpt lat="48.69591" lon="-1.45564">
        <ele>17.2</ele>
        <time>2024-01-25T14:51:06Z</time>
      </trkpt>
      <trkpt lat="48.69587" lon="-1.45571">
        <ele>17.2</ele>
        <time>2024-01-25T14:51:07Z</time>
      </trkpt>
      <trkpt lat="48.69583" lon="-1.45578">
        <ele>17.3</ele>
        <time>2024-01-25T14:51:08Z</time>
      </trkpt>
      <trkpt lat="48.69579" lon="-1.45584">
        <ele>17.3</ele>
        <time>2024-01-25T14:51:09Z</time>
      </trkpt>
      <trkpt lat="48.69575" lon="-1.45591">
        <ele>17.4</ele>
        <time>2024-01-25T14:51:10Z</time>
      </trkpt>
      <trkpt lat="48.69572" lon="-1.45598">
        <ele>17.4</ele>
        <time>2024-01-25T14:51:11Z</time>
      </trkpt>
      <trkpt lat="48.69569" lon="-1.45605">
        <ele>17.5</ele>
        <time>2024-01-25T14:51:12Z</time>
      </trkpt>
      <trkpt lat="48.69566" lon="-1.45612">
        <ele>17.5</ele>
        <time>2024-01-25T14:51:13Z</time>
      </trkpt>
      <trkpt lat="48.69563" lon="-1.4562">
        <ele>17.6</ele>
        <time>2024-01-25T14:51:14Z</time>
      </trkpt>
      <trkpt lat="48.69559" lon="-1.45627">
        <ele>17.6</ele>
        <time>2024-01-25T14:51:15Z</time>
      </trkpt>
      <trkpt lat="48.69556" lon="-1.45634">
        <ele>17.7</ele>
        <time>2024-01-25T14:51:16Z</time>
      </trkpt>
      <trkpt lat="48.69552" lon="-1.4564">
        <ele>17.7</ele>
        <time>2024-01-25T14:51:17Z</time>
      </trkpt>
      <trkpt lat="48.69549" lon="-1.45646">
        <ele>17.7</ele>
        <time>2024-01-25T14:51:18Z</time>
      </trkpt>
      <trkpt lat="48.69545" lon="-1.45651">
        <ele>17.7</ele>
        <time>2024-01-25T14:51:19Z</time>
      </trkpt>
      <trkpt lat="48.69541" lon="-1.45657">
        <ele>17.6</ele>
        <time>2024-01-25T14:51:20Z</time>
      </trkpt>
      <trkpt lat="48.69537" lon="-1.45663">
        <ele>17.6</ele>
        <time>2024-01-25T14:51:21Z</time>
      </trkpt>
      <trkpt lat="48.69533" lon="-1.45669">
        <ele>17.5</ele>
        <time>2024-01-25T14:51:22Z</time>
      </trkpt>
      <trkpt lat="48.69528" lon="-1.45675">
        <ele>17.4</ele>
        <time>2024-01-25T14:51:23Z</time>
      </trkpt>
      <trkpt lat="48.69524" lon="-1.45681">
        <ele>17.3</ele>
        <time>2024-01-25T14:51:24Z</time>
      </trkpt>
      <trkpt lat="48.6952" lon="-1.45687">
        <ele>17.2</ele>
        <time>2024-01-25T14:51:25Z</time>
      </trkpt>
      <trkpt lat="48.69515" lon="-1.45694">
        <ele>17.1</ele>
        <time>2024-01-25T14:51:26Z</time>
      </trkpt>
      <trkpt lat="48.69511" lon="-1.45701">
        <ele>17.1</ele>
        <time>2024-01-25T14:51:27Z</time>
      </trkpt>
      <trkpt lat="48.69506" lon="-1.45708">
        <ele>17</ele>
        <time>2024-01-25T14:51:28Z</time>
      </trkpt>
      <trkpt lat="48.69502" lon="-1.45715">
        <ele>16.9</ele>
        <time>2024-01-25T14:51:29Z</time>
      </trkpt>
      <trkpt lat="48.69497" lon="-1.45721">
        <ele>16.9</ele>
        <time>2024-01-25T14:51:30Z</time>
      </trkpt>
      <trkpt lat="48.69491" lon="-1.45726">
        <ele>16.9</ele>
        <time>2024-01-25T14:51:31Z</time>
      </trkpt>
      <trkpt lat="48.69486" lon="-1.45732">
        <ele>16.9</ele>
        <time>2024-01-25T14:51:32Z</time>
      </trkpt>
      <trkpt lat="48.6948" lon="-1.45737">
        <ele>17</ele>
        <time>2024-01-25T14:51:33Z</time>
      </trkpt>
      <trkpt lat="48.69475" lon="-1.45742">
        <ele>17</ele>
        <time>2024-01-25T14:51:34Z</time>
      </trkpt>
      <trkpt lat="48.6947" lon="-1.45747">
        <ele>17.1</ele>
        <time>2024-01-25T14:51:35Z</time>
      </trkpt>
      <trkpt lat="48.69465" lon="-1.45752">
        <ele>17.2</ele>
        <time>2024-01-25T14:51:36Z</time>
      </trkpt>
      <trkpt lat="48.69459" lon="-1.45757">
        <ele>17.3</ele>
        <time>2024-01-25T14:51:37Z</time>
      </trkpt>
      <trkpt lat="48.69454" lon="-1.45761">
        <ele>17.4</ele>
        <time>2024-01-25T14:51:38Z</time>
      </trkpt>
      <trkpt lat="48.69449" lon="-1.45765">
        <ele>17.5</ele>
        <time>2024-01-25T14:51:39Z</time>
      </trkpt>
      <trkpt lat="48.69444" lon="-1.45769">
        <ele>17.6</ele>
        <time>2024-01-25T14:51:40Z</time>
      </trkpt>
      <trkpt lat="48.69439" lon="-1.45774">
        <ele>17.6</ele>
        <time>2024-01-25T14:51:41Z</time>
      </trkpt>
      <trkpt lat="48.69434" lon="-1.45778">
        <ele>17.7</ele>
        <time>2024-01-25T14:51:42Z</time>
      </trkpt>
      <trkpt lat="48.69429" lon="-1.45783">
        <ele>17.8</ele>
        <time>2024-01-25T14:51:43Z</time>
      </trkpt>
      <trkpt lat="48.69425" lon="-1.45787">
        <ele>17.9</ele>
        <time>2024-01-25T14:51:44Z</time>
      </trkpt>
      <trkpt lat="48.6942" lon="-1.45792">
        <ele>18</ele>
        <time>2024-01-25T14:51:45Z</time>
      </trkpt>
      <trkpt lat="48.69416" lon="-1.45798">
        <ele>18.1</ele>
        <time>2024-01-25T14:51:46Z</time>
      </trkpt>
      <trkpt lat="48.69411" lon="-1.45802">
        <ele>18.2</ele>
        <time>2024-01-25T14:51:47Z</time>
      </trkpt>
      <trkpt lat="48.69407" lon="-1.45808">
        <ele>18.3</ele>
        <time>2024-01-25T14:51:48Z</time>
      </trkpt>
      <trkpt lat="48.69403" lon="-1.45813">
        <ele>18.4</ele>
        <time>2024-01-25T14:51:49Z</time>
      </trkpt>
      <trkpt lat="48.69399" lon="-1.45819">
        <ele>18.4</ele>
        <time>2024-01-25T14:51:50Z</time>
      </trkpt>
      <trkpt lat="48.69395" lon="-1.45824">
        <ele>18.5</ele>
        <time>2024-01-25T14:51:51Z</time>
      </trkpt>
      <trkpt lat="48.69391" lon="-1.45829">
        <ele>18.6</ele>
        <time>2024-01-25T14:51:52Z</time>
      </trkpt>
      <trkpt lat="48.69386" lon="-1.45835">
        <ele>18.7</ele>
        <time>2024-01-25T14:51:53Z</time>
      </trkpt>
      <trkpt lat="48.69383" lon="-1.45842">
        <ele>18.8</ele>
        <time>2024-01-25T14:51:54Z</time>
      </trkpt>
      <trkpt lat="48.69379" lon="-1.45847">
        <ele>18.8</ele>
        <time>2024-01-25T14:51:55Z</time>
      </trkpt>
      <trkpt lat="48.69374" lon="-1.45853">
        <ele>18.9</ele>
        <time>2024-01-25T14:51:56Z</time>
      </trkpt>
      <trkpt lat="48.6937" lon="-1.45859">
        <ele>19</ele>
        <time>2024-01-25T14:51:57Z</time>
      </trkpt>
      <trkpt lat="48.69366" lon="-1.45864">
        <ele>19.1</ele>
        <time>2024-01-25T14:51:58Z</time>
      </trkpt>
      <trkpt lat="48.69362" lon="-1.45869">
        <ele>19.1</ele>
        <time>2024-01-25T14:51:59Z</time>
      </trkpt>
      <trkpt lat="48.69359" lon="-1.45875">
        <ele>19.2</ele>
        <time>2024-01-25T14:52:00Z</time>
      </trkpt>
      <trkpt lat="48.69355" lon="-1.4588">
        <ele>19.3</ele>
        <time>2024-01-25T14:52:01Z</time>
      </trkpt>
      <trkpt lat="48.6935" lon="-1.45884">
        <ele>19.4</ele>
        <time>2024-01-25T14:52:02Z</time>
      </trkpt>
      <trkpt lat="48.69345" lon="-1.45887">
        <ele>19.4</ele>
        <time>2024-01-25T14:52:03Z</time>
      </trkpt>
      <trkpt lat="48.6934" lon="-1.4589">
        <ele>19.5</ele>
        <time>2024-01-25T14:52:04Z</time>
      </trkpt>
      <trkpt lat="48.69335" lon="-1.45893">
        <ele>19.6</ele>
        <time>2024-01-25T14:52:05Z</time>
      </trkpt>
      <trkpt lat="48.6933" lon="-1.45896">
        <ele>19.8</ele>
        <time>2024-01-25T14:52:06Z</time>
      </trkpt>
      <trkpt lat="48.69325" lon="-1.45899">
        <ele>19.9</ele>
        <time>2024-01-25T14:52:07Z</time>
      </trkpt>
      <trkpt lat="48.69319" lon="-1.45901">
        <ele>20.1</ele>
        <time>2024-01-25T14:52:08Z</time>
      </trkpt>
      <trkpt lat="48.69314" lon="-1.45904">
        <ele>20.2</ele>
        <time>2024-01-25T14:52:09Z</time>
      </trkpt>
      <trkpt lat="48.69309" lon="-1.45906">
        <ele>20.4</ele>
        <time>2024-01-25T14:52:10Z</time>
      </trkpt>
      <trkpt lat="48.69303" lon="-1.45908">
        <ele>20.6</ele>
        <time>2024-01-25T14:52:11Z</time>
      </trkpt>
      <trkpt lat="48.69298" lon="-1.4591">
        <ele>20.7</ele>
        <time>2024-01-25T14:52:12Z</time>
      </trkpt>
      <trkpt lat="48.69293" lon="-1.45912">
        <ele>20.9</ele>
        <time>2024-01-25T14:52:13Z</time>
      </trkpt>
      <trkpt lat="48.69288" lon="-1.45914">
        <ele>21</ele>
        <time>2024-01-25T14:52:14Z</time>
      </trkpt>
      <trkpt lat="48.69283" lon="-1.45917">
        <ele>21.2</ele>
        <time>2024-01-25T14:52:15Z</time>
      </trkpt>
      <trkpt lat="48.69278" lon="-1.45919">
        <ele>21.4</ele>
        <time>2024-01-25T14:52:16Z</time>
      </trkpt>
      <trkpt lat="48.69272" lon="-1.45921">
        <ele>21.5</ele>
        <time>2024-01-25T14:52:17Z</time>
      </trkpt>
      <trkpt lat="48.69267" lon="-1.45923">
        <ele>21.7</ele>
        <time>2024-01-25T14:52:18Z</time>
      </trkpt>
      <trkpt lat="48.69263" lon="-1.45924">
        <ele>21.8</ele>
        <time>2024-01-25T14:52:19Z</time>
      </trkpt>
      <trkpt lat="48.69258" lon="-1.45926">
        <ele>22</ele>
        <time>2024-01-25T14:52:20Z</time>
      </trkpt>
      <trkpt lat="48.69252" lon="-1.45927">
        <ele>22.1</ele>
        <time>2024-01-25T14:52:21Z</time>
      </trkpt>
      <trkpt lat="48.69247" lon="-1.45928">
        <ele>22.2</ele>
        <time>2024-01-25T14:52:22Z</time>
      </trkpt>
      <trkpt lat="48.69241" lon="-1.45929">
        <ele>22.2</ele>
        <time>2024-01-25T14:52:23Z</time>
      </trkpt>
      <trkpt lat="48.69236" lon="-1.45931">
        <ele>22.2</ele>
        <time>2024-01-25T14:52:24Z</time>
      </trkpt>
      <trkpt lat="48.6923" lon="-1.45933">
        <ele>22.2</ele>
        <time>2024-01-25T14:52:25Z</time>
      </trkpt>
      <trkpt lat="48.69224" lon="-1.45935">
        <ele>22.2</ele>
        <time>2024-01-25T14:52:26Z</time>
      </trkpt>
      <trkpt lat="48.69219" lon="-1.45937">
        <ele>22.1</ele>
        <time>2024-01-25T14:52:27Z</time>
      </trkpt>
      <trkpt lat="48.69213" lon="-1.45939">
        <ele>22</ele>
        <time>2024-01-25T14:52:28Z</time>
      </trkpt>
      <trkpt lat="48.69207" lon="-1.45943">
        <ele>21.9</ele>
        <time>2024-01-25T14:52:29Z</time>
      </trkpt>
      <trkpt lat="48.69201" lon="-1.45946">
        <ele>21.8</ele>
        <time>2024-01-25T14:52:30Z</time>
      </trkpt>
      <trkpt lat="48.69195" lon="-1.45951">
        <ele>21.7</ele>
        <time>2024-01-25T14:52:31Z</time>
      </trkpt>
      <trkpt lat="48.6919" lon="-1.45956">
        <ele>21.6</ele>
        <time>2024-01-25T14:52:32Z</time>
      </trkpt>
      <trkpt lat="48.69185" lon="-1.45961">
        <ele>21.5</ele>
        <time>2024-01-25T14:52:33Z</time>
      </trkpt>
      <trkpt lat="48.69179" lon="-1.45966">
        <ele>21.4</ele>
        <time>2024-01-25T14:52:34Z</time>
      </trkpt>
      <trkpt lat="48.69174" lon="-1.45972">
        <ele>21.3</ele>
        <time>2024-01-25T14:52:35Z</time>
      </trkpt>
      <trkpt lat="48.69168" lon="-1.45977">
        <ele>21.1</ele>
        <time>2024-01-25T14:52:36Z</time>
      </trkpt>
      <trkpt lat="48.69162" lon="-1.45982">
        <ele>21</ele>
        <time>2024-01-25T14:52:37Z</time>
      </trkpt>
      <trkpt lat="48.69155" lon="-1.45987">
        <ele>20.8</ele>
        <time>2024-01-25T14:52:38Z</time>
      </trkpt>
      <trkpt lat="48.69149" lon="-1.45991">
        <ele>20.7</ele>
        <time>2024-01-25T14:52:39Z</time>
      </trkpt>
      <trkpt lat="48.69142" lon="-1.45995">
        <ele>20.6</ele>
        <time>2024-01-25T14:52:40Z</time>
      </trkpt>
      <trkpt lat="48.69135" lon="-1.46">
        <ele>20.5</ele>
        <time>2024-01-25T14:52:41Z</time>
      </trkpt>
      <trkpt lat="48.69128" lon="-1.46004">
        <ele>20.3</ele>
        <time>2024-01-25T14:52:42Z</time>
      </trkpt>
      <trkpt lat="48.69121" lon="-1.46007">
        <ele>20.2</ele>
        <time>2024-01-25T14:52:43Z</time>
      </trkpt>
      <trkpt lat="48.69114" lon="-1.46011">
        <ele>20.1</ele>
        <time>2024-01-25T14:52:44Z</time>
      </trkpt>
      <trkpt lat="48.69108" lon="-1.46014">
        <ele>20</ele>
        <time>2024-01-25T14:52:45Z</time>
      </trkpt>
      <trkpt lat="48.69101" lon="-1.46017">
        <ele>19.9</ele>
        <time>2024-01-25T14:52:46Z</time>
      </trkpt>
      <trkpt lat="48.69094" lon="-1.4602">
        <ele>19.8</ele>
        <time>2024-01-25T14:52:47Z</time>
      </trkpt>
      <trkpt lat="48.69087" lon="-1.46023">
        <ele>19.7</ele>
        <time>2024-01-25T14:52:48Z</time>
      </trkpt>
      <trkpt lat="48.6908" lon="-1.46025">
        <ele>19.7</ele>
        <time>2024-01-25T14:52:49Z</time>
      </trkpt>
      <trkpt lat="48.69073" lon="-1.46028">
        <ele>19.6</ele>
        <time>2024-01-25T14:52:50Z</time>
      </trkpt>
      <trkpt lat="48.69066" lon="-1.4603">
        <ele>19.5</ele>
        <time>2024-01-25T14:52:51Z</time>
      </trkpt>
      <trkpt lat="48.69059" lon="-1.46032">
        <ele>19.4</ele>
        <time>2024-01-25T14:52:52Z</time>
      </trkpt>
      <trkpt lat="48.69052" lon="-1.46034">
        <ele>19.3</ele>
        <time>2024-01-25T14:52:53Z</time>
      </trkpt>
      <trkpt lat="48.69046" lon="-1.46035">
        <ele>19.2</ele>
        <time>2024-01-25T14:52:54Z</time>
      </trkpt>
      <trkpt lat="48.69039" lon="-1.46036">
        <ele>19.2</ele>
        <time>2024-01-25T14:52:55Z</time>
      </trkpt>
      <trkpt lat="48.69033" lon="-1.46037">
        <ele>19.1</ele>
        <time>2024-01-25T14:52:56Z</time>
      </trkpt>
      <trkpt lat="48.69026" lon="-1.46038">
        <ele>19</ele>
        <time>2024-01-25T14:52:57Z</time>
      </trkpt>
      <trkpt lat="48.6902" lon="-1.46038">
        <ele>18.9</ele>
        <time>2024-01-25T14:52:58Z</time>
      </trkpt>
      <trkpt lat="48.69013" lon="-1.46039">
        <ele>18.9</ele>
        <time>2024-01-25T14:52:59Z</time>
      </trkpt>
      <trkpt lat="48.69007" lon="-1.46041">
        <ele>18.8</ele>
        <time>2024-01-25T14:53:00Z</time>
      </trkpt>
      <trkpt lat="48.69001" lon="-1.46043">
        <ele>18.7</ele>
        <time>2024-01-25T14:53:01Z</time>
      </trkpt>
      <trkpt lat="48.68995" lon="-1.46046">
        <ele>18.6</ele>
        <time>2024-01-25T14:53:02Z</time>
      </trkpt>
      <trkpt lat="48.68989" lon="-1.46048">
        <ele>18.6</ele>
        <time>2024-01-25T14:53:03Z</time>
      </trkpt>
      <trkpt lat="48.68983" lon="-1.4605">
        <ele>18.5</ele>
        <time>2024-01-25T14:53:04Z</time>
      </trkpt>
      <trkpt lat="48.68976" lon="-1.46053">
        <ele>18.4</ele>
        <time>2024-01-25T14:53:05Z</time>
      </trkpt>
      <trkpt lat="48.6897" lon="-1.46055">
        <ele>18.4</ele>
        <time>2024-01-25T14:53:06Z</time>
      </trkpt>
      <trkpt lat="48.68964" lon="-1.46058">
        <ele>18.4</ele>
        <time>2024-01-25T14:53:07Z</time>
      </trkpt>
      <trkpt lat="48.68958" lon="-1.46061">
        <ele>18.4</ele>
        <time>2024-01-25T14:53:08Z</time>
      </trkpt>
      <trkpt lat="48.68952" lon="-1.46063">
        <ele>18.4</ele>
        <time>2024-01-25T14:53:09Z</time>
      </trkpt>
      <trkpt lat="48.68946" lon="-1.46067">
        <ele>18.5</ele>
        <time>2024-01-25T14:53:10Z</time>
      </trkpt>
      <trkpt lat="48.6894" lon="-1.46071">
        <ele>18.5</ele>
        <time>2024-01-25T14:53:11Z</time>
      </trkpt>
      <trkpt lat="48.68934" lon="-1.46075">
        <ele>18.5</ele>
        <time>2024-01-25T14:53:12Z</time>
      </trkpt>
      <trkpt lat="48.68929" lon="-1.46079">
        <ele>18.5</ele>
        <time>2024-01-25T14:53:13Z</time>
      </trkpt>
      <trkpt lat="48.68923" lon="-1.46082">
        <ele>18.6</ele>
        <time>2024-01-25T14:53:14Z</time>
      </trkpt>
      <trkpt lat="48.68917" lon="-1.46086">
        <ele>18.6</ele>
        <time>2024-01-25T14:53:15Z</time>
      </trkpt>
      <trkpt lat="48.68912" lon="-1.4609">
        <ele>18.6</ele>
        <time>2024-01-25T14:53:16Z</time>
      </trkpt>
      <trkpt lat="48.68906" lon="-1.46093">
        <ele>18.7</ele>
        <time>2024-01-25T14:53:17Z</time>
      </trkpt>
      <trkpt lat="48.68901" lon="-1.46097">
        <ele>18.7</ele>
        <time>2024-01-25T14:53:18Z</time>
      </trkpt>
      <trkpt lat="48.68896" lon="-1.46101">
        <ele>18.8</ele>
        <time>2024-01-25T14:53:19Z</time>
      </trkpt>
      <trkpt lat="48.6889" lon="-1.46105">
        <ele>18.8</ele>
        <time>2024-01-25T14:53:20Z</time>
      </trkpt>
      <trkpt lat="48.68885" lon="-1.4611">
        <ele>18.9</ele>
        <time>2024-01-25T14:53:21Z</time>
      </trkpt>
      <trkpt lat="48.6888" lon="-1.46114">
        <ele>19</ele>
        <time>2024-01-25T14:53:22Z</time>
      </trkpt>
      <trkpt lat="48.68876" lon="-1.46119">
        <ele>19</ele>
        <time>2024-01-25T14:53:23Z</time>
      </trkpt>
      <trkpt lat="48.68871" lon="-1.46124">
        <ele>19</ele>
        <time>2024-01-25T14:53:24Z</time>
      </trkpt>
      <trkpt lat="48.68866" lon="-1.4613">
        <ele>19</ele>
        <time>2024-01-25T14:53:25Z</time>
      </trkpt>
      <trkpt lat="48.68861" lon="-1.46135">
        <ele>19</ele>
        <time>2024-01-25T14:53:26Z</time>
      </trkpt>
      <trkpt lat="48.68856" lon="-1.4614">
        <ele>18.9</ele>
        <time>2024-01-25T14:53:27Z</time>
      </trkpt>
      <trkpt lat="48.68851" lon="-1.46145">
        <ele>18.9</ele>
        <time>2024-01-25T14:53:28Z</time>
      </trkpt>
      <trkpt lat="48.68846" lon="-1.4615">
        <ele>18.8</ele>
        <time>2024-01-25T14:53:29Z</time>
      </trkpt>
      <trkpt lat="48.68841" lon="-1.46155">
        <ele>18.8</ele>
        <time>2024-01-25T14:53:30Z</time>
      </trkpt>
      <trkpt lat="48.68836" lon="-1.4616">
        <ele>18.7</ele>
        <time>2024-01-25T14:53:31Z</time>
      </trkpt>
      <trkpt lat="48.68831" lon="-1.46163">
        <ele>18.7</ele>
        <time>2024-01-25T14:53:32Z</time>
      </trkpt>
      <trkpt lat="48.68825" lon="-1.46165">
        <ele>18.6</ele>
        <time>2024-01-25T14:53:33Z</time>
      </trkpt>
      <trkpt lat="48.68819" lon="-1.46167">
        <ele>18.5</ele>
        <time>2024-01-25T14:53:34Z</time>
      </trkpt>
      <trkpt lat="48.68813" lon="-1.46168">
        <ele>18.4</ele>
        <time>2024-01-25T14:53:35Z</time>
      </trkpt>
      <trkpt lat="48.68808" lon="-1.46168">
        <ele>18.3</ele>
        <time>2024-01-25T14:53:36Z</time>
      </trkpt>
      <trkpt lat="48.68802" lon="-1.46168">
        <ele>18.2</ele>
        <time>2024-01-25T14:53:37Z</time>
      </trkpt>
      <trkpt lat="48.68797" lon="-1.46167">
        <ele>18.1</ele>
        <time>2024-01-25T14:53:38Z</time>
      </trkpt>
      <trkpt lat="48.68791" lon="-1.46167">
        <ele>18</ele>
        <time>2024-01-25T14:53:39Z</time>
      </trkpt>
      <trkpt lat="48.68785" lon="-1.46167">
        <ele>17.9</ele>
        <time>2024-01-25T14:53:40Z</time>
      </trkpt>
      <trkpt lat="48.68779" lon="-1.46167">
        <ele>17.8</ele>
        <time>2024-01-25T14:53:41Z</time>
      </trkpt>
      <trkpt lat="48.68773" lon="-1.46167">
        <ele>17.7</ele>
        <time>2024-01-25T14:53:42Z</time>
      </trkpt>
      <trkpt lat="48.68768" lon="-1.46167">
        <ele>17.6</ele>
        <time>2024-01-25T14:53:43Z</time>
      </trkpt>
      <trkpt lat="48.68763" lon="-1.46167">
        <ele>17.6</ele>
        <time>2024-01-25T14:53:44Z</time>
      </trkpt>
      <trkpt lat="48.68758" lon="-1.46166">
        <ele>17.5</ele>
        <time>2024-01-25T14:53:45Z</time>
      </trkpt>
      <trkpt lat="48.68753" lon="-1.46166">
        <ele>17.4</ele>
        <time>2024-01-25T14:53:46Z</time>
      </trkpt>
      <trkpt lat="48.68748" lon="-1.46167">
        <ele>17.4</ele>
        <time>2024-01-25T14:53:47Z</time>
      </trkpt>
      <trkpt lat="48.68744" lon="-1.46169">
        <ele>17.4</ele>
        <time>2024-01-25T14:53:48Z</time>
      </trkpt>
      <trkpt lat="48.68741" lon="-1.46172">
        <ele>17.3</ele>
        <time>2024-01-25T14:53:49Z</time>
      </trkpt>
      <trkpt lat="48.68738" lon="-1.46176">
        <ele>17.3</ele>
        <time>2024-01-25T14:53:50Z</time>
      </trkpt>
      <trkpt lat="48.68736" lon="-1.46182">
        <ele>17.2</ele>
        <time>2024-01-25T14:53:51Z</time>
      </trkpt>
      <trkpt lat="48.68735" lon="-1.46188">
        <ele>17.1</ele>
        <time>2024-01-25T14:53:52Z</time>
      </trkpt>
      <trkpt lat="48.68735" lon="-1.46195">
        <ele>17</ele>
        <time>2024-01-25T14:53:53Z</time>
      </trkpt>
      <trkpt lat="48.68733" lon="-1.46202">
        <ele>16.8</ele>
        <time>2024-01-25T14:53:54Z</time>
      </trkpt>
      <trkpt lat="48.68732" lon="-1.46211">
        <ele>16.7</ele>
        <time>2024-01-25T14:53:55Z</time>
      </trkpt>
      <trkpt lat="48.68731" lon="-1.46219">
        <ele>16.6</ele>
        <time>2024-01-25T14:53:56Z</time>
      </trkpt>
      <trkpt lat="48.68729" lon="-1.46229">
        <ele>16.4</ele>
        <time>2024-01-25T14:53:57Z</time>
      </trkpt>
      <trkpt lat="48.68726" lon="-1.46238">
        <ele>16.3</ele>
        <time>2024-01-25T14:53:58Z</time>
      </trkpt>
      <trkpt lat="48.68724" lon="-1.46247">
        <ele>16.1</ele>
        <time>2024-01-25T14:53:59Z</time>
      </trkpt>
      <trkpt lat="48.68722" lon="-1.46256">
        <ele>16</ele>
        <time>2024-01-25T14:54:00Z</time>
      </trkpt>
      <trkpt lat="48.6872" lon="-1.46265">
        <ele>15.9</ele>
        <time>2024-01-25T14:54:01Z</time>
      </trkpt>
      <trkpt lat="48.68718" lon="-1.46275">
        <ele>15.8</ele>
        <time>2024-01-25T14:54:02Z</time>
      </trkpt>
      <trkpt lat="48.68716" lon="-1.46284">
        <ele>15.7</ele>
        <time>2024-01-25T14:54:03Z</time>
      </trkpt>
      <trkpt lat="48.68714" lon="-1.46294">
        <ele>15.5</ele>
        <time>2024-01-25T14:54:04Z</time>
      </trkpt>
      <trkpt lat="48.68712" lon="-1.46304">
        <ele>15.4</ele>
        <time>2024-01-25T14:54:05Z</time>
      </trkpt>
      <trkpt lat="48.6871" lon="-1.46314">
        <ele>15.3</ele>
        <time>2024-01-25T14:54:06Z</time>
      </trkpt>
      <trkpt lat="48.68708" lon="-1.46324">
        <ele>15.3</ele>
        <time>2024-01-25T14:54:07Z</time>
      </trkpt>
      <trkpt lat="48.68705" lon="-1.46334">
        <ele>15.2</ele>
        <time>2024-01-25T14:54:08Z</time>
      </trkpt>
      <trkpt lat="48.68703" lon="-1.46343">
        <ele>15.1</ele>
        <time>2024-01-25T14:54:09Z</time>
      </trkpt>
      <trkpt lat="48.68701" lon="-1.46352">
        <ele>15.1</ele>
        <time>2024-01-25T14:54:10Z</time>
      </trkpt>
      <trkpt lat="48.68698" lon="-1.46361">
        <ele>15.1</ele>
        <time>2024-01-25T14:54:11Z</time>
      </trkpt>
      <trkpt lat="48.68696" lon="-1.4637">
        <ele>15</ele>
        <time>2024-01-25T14:54:12Z</time>
      </trkpt>
      <trkpt lat="48.68693" lon="-1.46379">
        <ele>15</ele>
        <time>2024-01-25T14:54:13Z</time>
      </trkpt>
      <trkpt lat="48.68691" lon="-1.46388">
        <ele>14.9</ele>
        <time>2024-01-25T14:54:14Z</time>
      </trkpt>
      <trkpt lat="48.6869" lon="-1.46397">
        <ele>14.8</ele>
        <time>2024-01-25T14:54:15Z</time>
      </trkpt>
      <trkpt lat="48.68687" lon="-1.46406">
        <ele>14.7</ele>
        <time>2024-01-25T14:54:16Z</time>
      </trkpt>
      <trkpt lat="48.68686" lon="-1.46415">
        <ele>14.6</ele>
        <time>2024-01-25T14:54:17Z</time>
      </trkpt>
      <trkpt lat="48.68684" lon="-1.46424">
        <ele>14.5</ele>
        <time>2024-01-25T14:54:18Z</time>
      </trkpt>
      <trkpt lat="48.68682" lon="-1.46433">
        <ele>14.5</ele>
        <time>2024-01-25T14:54:19Z</time>
      </trkpt>
      <trkpt lat="48.6868" lon="-1.46442">
        <ele>14.4</ele>
        <time>2024-01-25T14:54:20Z</time>
      </trkpt>
      <trkpt lat="48.68678" lon="-1.46451">
        <ele>14.3</ele>
        <time>2024-01-25T14:54:21Z</time>
      </trkpt>
      <trkpt lat="48.68677" lon="-1.4646">
        <ele>14.3</ele>
        <time>2024-01-25T14:54:22Z</time>
      </trkpt>
      <trkpt lat="48.68675" lon="-1.4647">
        <ele>14.2</ele>
        <time>2024-01-25T14:54:23Z</time>
      </trkpt>
      <trkpt lat="48.68674" lon="-1.46479">
        <ele>14.1</ele>
        <time>2024-01-25T14:54:24Z</time>
      </trkpt>
      <trkpt lat="48.68672" lon="-1.46489">
        <ele>14.1</ele>
        <time>2024-01-25T14:54:25Z</time>
      </trkpt>
      <trkpt lat="48.68671" lon="-1.46498">
        <ele>14</ele>
        <time>2024-01-25T14:54:26Z</time>
      </trkpt>
      <trkpt lat="48.6867" lon="-1.46508">
        <ele>14</ele>
        <time>2024-01-25T14:54:27Z</time>
      </trkpt>
      <trkpt lat="48.68668" lon="-1.46517">
        <ele>13.9</ele>
        <time>2024-01-25T14:54:28Z</time>
      </trkpt>
      <trkpt lat="48.68667" lon="-1.46527">
        <ele>13.9</ele>
        <time>2024-01-25T14:54:29Z</time>
      </trkpt>
      <trkpt lat="48.68666" lon="-1.46536">
        <ele>13.8</ele>
        <time>2024-01-25T14:54:30Z</time>
      </trkpt>
      <trkpt lat="48.68664" lon="-1.46544">
        <ele>13.7</ele>
        <time>2024-01-25T14:54:31Z</time>
      </trkpt>
      <trkpt lat="48.68663" lon="-1.46554">
        <ele>13.7</ele>
        <time>2024-01-25T14:54:32Z</time>
      </trkpt>
      <trkpt lat="48.68661" lon="-1.46562">
        <ele>13.6</ele>
        <time>2024-01-25T14:54:33Z</time>
      </trkpt>
      <trkpt lat="48.6866" lon="-1.46572">
        <ele>13.6</ele>
        <time>2024-01-25T14:54:34Z</time>
      </trkpt>
      <trkpt lat="48.68658" lon="-1.46582">
        <ele>13.6</ele>
        <time>2024-01-25T14:54:35Z</time>
      </trkpt>
      <trkpt lat="48.68656" lon="-1.46591">
        <ele>13.5</ele>
        <time>2024-01-25T14:54:36Z</time>
      </trkpt>
      <trkpt lat="48.68654" lon="-1.46601">
        <ele>13.5</ele>
        <time>2024-01-25T14:54:37Z</time>
      </trkpt>
      <trkpt lat="48.68652" lon="-1.4661">
        <ele>13.5</ele>
        <time>2024-01-25T14:54:38Z</time>
      </trkpt>
      <trkpt lat="48.6865" lon="-1.4662">
        <ele>13.4</ele>
        <time>2024-01-25T14:54:39Z</time>
      </trkpt>
      <trkpt lat="48.68647" lon="-1.4663">
        <ele>13.4</ele>
        <time>2024-01-25T14:54:40Z</time>
      </trkpt>
      <trkpt lat="48.68645" lon="-1.46639">
        <ele>13.3</ele>
        <time>2024-01-25T14:54:41Z</time>
      </trkpt>
      <trkpt lat="48.68642" lon="-1.46648">
        <ele>13.2</ele>
        <time>2024-01-25T14:54:42Z</time>
      </trkpt>
      <trkpt lat="48.68638" lon="-1.46656">
        <ele>13.2</ele>
        <time>2024-01-25T14:54:43Z</time>
      </trkpt>
      <trkpt lat="48.68634" lon="-1.46664">
        <ele>13.2</ele>
        <time>2024-01-25T14:54:44Z</time>
      </trkpt>
      <trkpt lat="48.6863" lon="-1.46672">
        <ele>13.1</ele>
        <time>2024-01-25T14:54:45Z</time>
      </trkpt>
      <trkpt lat="48.68626" lon="-1.4668">
        <ele>13.1</ele>
        <time>2024-01-25T14:54:46Z</time>
      </trkpt>
      <trkpt lat="48.68622" lon="-1.46687">
        <ele>13.1</ele>
        <time>2024-01-25T14:54:47Z</time>
      </trkpt>
      <trkpt lat="48.68618" lon="-1.46694">
        <ele>13.1</ele>
        <time>2024-01-25T14:54:48Z</time>
      </trkpt>
      <trkpt lat="48.68614" lon="-1.467">
        <ele>13.1</ele>
        <time>2024-01-25T14:54:49Z</time>
      </trkpt>
      <trkpt lat="48.6861" lon="-1.46705">
        <ele>13.1</ele>
        <time>2024-01-25T14:54:50Z</time>
      </trkpt>
      <trkpt lat="48.68605" lon="-1.4671">
        <ele>13.1</ele>
        <time>2024-01-25T14:54:51Z</time>
      </trkpt>
      <trkpt lat="48.686" lon="-1.46716">
        <ele>13</ele>
        <time>2024-01-25T14:54:52Z</time>
      </trkpt>
      <trkpt lat="48.68595" lon="-1.46721">
        <ele>13</ele>
        <time>2024-01-25T14:54:53Z</time>
      </trkpt>
      <trkpt lat="48.6859" lon="-1.46726">
        <ele>13</ele>
        <time>2024-01-25T14:54:54Z</time>
      </trkpt>
      <trkpt lat="48.68585" lon="-1.46731">
        <ele>12.9</ele>
        <time>2024-01-25T14:54:55Z</time>
      </trkpt>
      <trkpt lat="48.6858" lon="-1.46737">
        <ele>12.9</ele>
        <time>2024-01-25T14:54:56Z</time>
      </trkpt>
      <trkpt lat="48.68574" lon="-1.46742">
        <ele>12.8</ele>
        <time>2024-01-25T14:54:57Z</time>
      </trkpt>
      <trkpt lat="48.68569" lon="-1.46749">
        <ele>12.8</ele>
        <time>2024-01-25T14:54:58Z</time>
      </trkpt>
      <trkpt lat="48.68564" lon="-1.46756">
        <ele>12.7</ele>
        <time>2024-01-25T14:54:59Z</time>
      </trkpt>
      <trkpt lat="48.68559" lon="-1.46763">
        <ele>12.7</ele>
        <time>2024-01-25T14:55:00Z</time>
      </trkpt>
      <trkpt lat="48.68553" lon="-1.46769">
        <ele>12.7</ele>
        <time>2024-01-25T14:55:01Z</time>
      </trkpt>
      <trkpt lat="48.68549" lon="-1.46776">
        <ele>12.6</ele>
        <time>2024-01-25T14:55:02Z</time>
      </trkpt>
      <trkpt lat="48.68544" lon="-1.46783">
        <ele>12.6</ele>
        <time>2024-01-25T14:55:03Z</time>
      </trkpt>
      <trkpt lat="48.68541" lon="-1.46791">
        <ele>12.6</ele>
        <time>2024-01-25T14:55:04Z</time>
      </trkpt>
      <trkpt lat="48.68538" lon="-1.46799">
        <ele>12.6</ele>
        <time>2024-01-25T14:55:05Z</time>
      </trkpt>
      <trkpt lat="48.68535" lon="-1.46807">
        <ele>12.6</ele>
        <time>2024-01-25T14:55:06Z</time>
      </trkpt>
      <trkpt lat="48.68532" lon="-1.46814">
        <ele>12.6</ele>
        <time>2024-01-25T14:55:07Z</time>
      </trkpt>
      <trkpt lat="48.6853" lon="-1.46823">
        <ele>12.5</ele>
        <time>2024-01-25T14:55:08Z</time>
      </trkpt>
      <trkpt lat="48.68527" lon="-1.46831">
        <ele>12.5</ele>
        <time>2024-01-25T14:55:09Z</time>
      </trkpt>
      <trkpt lat="48.68525" lon="-1.4684">
        <ele>12.4</ele>
        <time>2024-01-25T14:55:10Z</time>
      </trkpt>
      <trkpt lat="48.68524" lon="-1.46849">
        <ele>12.4</ele>
        <time>2024-01-25T14:55:11Z</time>
      </trkpt>
      <trkpt lat="48.68522" lon="-1.46857">
        <ele>12.4</ele>
        <time>2024-01-25T14:55:12Z</time>
      </trkpt>
      <trkpt lat="48.68519" lon="-1.46865">
        <ele>12.4</ele>
        <time>2024-01-25T14:55:13Z</time>
      </trkpt>
      <trkpt lat="48.68516" lon="-1.46872">
        <ele>12.4</ele>
        <time>2024-01-25T14:55:14Z</time>
      </trkpt>
      <trkpt lat="48.68514" lon="-1.4688">
        <ele>12.3</ele>
        <time>2024-01-25T14:55:15Z</time>
      </trkpt>
      <trkpt lat="48.68512" lon="-1.46889">
        <ele>12.3</ele>
        <time>2024-01-25T14:55:16Z</time>
      </trkpt>
      <trkpt lat="48.6851" lon="-1.46898">
        <ele>12.3</ele>
        <time>2024-01-25T14:55:17Z</time>
      </trkpt>
      <trkpt lat="48.68508" lon="-1.46907">
        <ele>12.2</ele>
        <time>2024-01-25T14:55:18Z</time>
      </trkpt>
      <trkpt lat="48.68506" lon="-1.46916">
        <ele>12.2</ele>
        <time>2024-01-25T14:55:19Z</time>
      </trkpt>
      <trkpt lat="48.68504" lon="-1.46925">
        <ele>12.2</ele>
        <time>2024-01-25T14:55:20Z</time>
      </trkpt>
      <trkpt lat="48.68502" lon="-1.46934">
        <ele>12.1</ele>
        <time>2024-01-25T14:55:21Z</time>
      </trkpt>
      <trkpt lat="48.68499" lon="-1.46944">
        <ele>12.1</ele>
        <time>2024-01-25T14:55:22Z</time>
      </trkpt>
      <trkpt lat="48.68497" lon="-1.46953">
        <ele>12</ele>
        <time>2024-01-25T14:55:23Z</time>
      </trkpt>
      <trkpt lat="48.68495" lon="-1.46962">
        <ele>12</ele>
        <time>2024-01-25T14:55:24Z</time>
      </trkpt>
      <trkpt lat="48.68492" lon="-1.4697">
        <ele>11.9</ele>
        <time>2024-01-25T14:55:25Z</time>
      </trkpt>
      <trkpt lat="48.6849" lon="-1.46979">
        <ele>11.8</ele>
        <time>2024-01-25T14:55:26Z</time>
      </trkpt>
      <trkpt lat="48.68488" lon="-1.46987">
        <ele>11.8</ele>
        <time>2024-01-25T14:55:27Z</time>
      </trkpt>
      <trkpt lat="48.68486" lon="-1.46995">
        <ele>11.7</ele>
        <time>2024-01-25T14:55:28Z</time>
      </trkpt>
      <trkpt lat="48.68484" lon="-1.47004">
        <ele>11.6</ele>
        <time>2024-01-25T14:55:29Z</time>
      </trkpt>
      <trkpt lat="48.68482" lon="-1.47013">
        <ele>11.5</ele>
        <time>2024-01-25T14:55:30Z</time>
      </trkpt>
      <trkpt lat="48.68479" lon="-1.47023">
        <ele>11.4</ele>
        <time>2024-01-25T14:55:31Z</time>
      </trkpt>
      <trkpt lat="48.68476" lon="-1.47033">
        <ele>11.4</ele>
        <time>2024-01-25T14:55:32Z</time>
      </trkpt>
      <trkpt lat="48.68472" lon="-1.47043">
        <ele>11.3</ele>
        <time>2024-01-25T14:55:33Z</time>
      </trkpt>
      <trkpt lat="48.68469" lon="-1.47054">
        <ele>11.2</ele>
        <time>2024-01-25T14:55:34Z</time>
      </trkpt>
      <trkpt lat="48.68466" lon="-1.47064">
        <ele>11.1</ele>
        <time>2024-01-25T14:55:35Z</time>
      </trkpt>
      <trkpt lat="48.68463" lon="-1.47073">
        <ele>11.1</ele>
        <time>2024-01-25T14:55:36Z</time>
      </trkpt>
      <trkpt lat="48.6846" lon="-1.47083">
        <ele>11</ele>
        <time>2024-01-25T14:55:37Z</time>
      </trkpt>
      <trkpt lat="48.68456" lon="-1.47091">
        <ele>10.9</ele>
        <time>2024-01-25T14:55:38Z</time>
      </trkpt>
      <trkpt lat="48.68454" lon="-1.471">
        <ele>10.8</ele>
        <time>2024-01-25T14:55:39Z</time>
      </trkpt>
      <trkpt lat="48.68451" lon="-1.47109">
        <ele>10.8</ele>
        <time>2024-01-25T14:55:40Z</time>
      </trkpt>
      <trkpt lat="48.68449" lon="-1.47117">
        <ele>10.7</ele>
        <time>2024-01-25T14:55:41Z</time>
      </trkpt>
      <trkpt lat="48.68447" lon="-1.47124">
        <ele>10.6</ele>
        <time>2024-01-25T14:55:42Z</time>
      </trkpt>
      <trkpt lat="48.68445" lon="-1.47131">
        <ele>10.6</ele>
        <time>2024-01-25T14:55:43Z</time>
      </trkpt>
      <trkpt lat="48.68443" lon="-1.47139">
        <ele>10.6</ele>
        <time>2024-01-25T14:55:44Z</time>
      </trkpt>
      <trkpt lat="48.68441" lon="-1.47147">
        <ele>10.5</ele>
        <time>2024-01-25T14:55:45Z</time>
      </trkpt>
      <trkpt lat="48.68439" lon="-1.47156">
        <ele>10.5</ele>
        <time>2024-01-25T14:55:46Z</time>
      </trkpt>
      <trkpt lat="48.68438" lon="-1.47166">
        <ele>10.4</ele>
        <time>2024-01-25T14:55:47Z</time>
      </trkpt>
      <trkpt lat="48.68439" lon="-1.47175">
        <ele>10.3</ele>
        <time>2024-01-25T14:55:48Z</time>
      </trkpt>
      <trkpt lat="48.6844" lon="-1.47185">
        <ele>10.3</ele>
        <time>2024-01-25T14:55:49Z</time>
      </trkpt>
      <trkpt lat="48.68443" lon="-1.47194">
        <ele>10.2</ele>
        <time>2024-01-25T14:55:50Z</time>
      </trkpt>
      <trkpt lat="48.68447" lon="-1.47203">
        <ele>10.1</ele>
        <time>2024-01-25T14:55:51Z</time>
      </trkpt>
      <trkpt lat="48.68451" lon="-1.4721">
        <ele>10</ele>
        <time>2024-01-25T14:55:52Z</time>
      </trkpt>
      <trkpt lat="48.68456" lon="-1.47218">
        <ele>9.9</ele>
        <time>2024-01-25T14:55:53Z</time>
      </trkpt>
      <trkpt lat="48.68461" lon="-1.47224">
        <ele>9.8</ele>
        <time>2024-01-25T14:55:54Z</time>
      </trkpt>
      <trkpt lat="48.68466" lon="-1.47231">
        <ele>9.8</ele>
        <time>2024-01-25T14:55:55Z</time>
      </trkpt>
      <trkpt lat="48.68471" lon="-1.47238">
        <ele>9.7</ele>
        <time>2024-01-25T14:55:56Z</time>
      </trkpt>
      <trkpt lat="48.68476" lon="-1.47244">
        <ele>9.6</ele>
        <time>2024-01-25T14:55:57Z</time>
      </trkpt>
      <trkpt lat="48.68481" lon="-1.47249">
        <ele>9.6</ele>
        <time>2024-01-25T14:55:58Z</time>
      </trkpt>
      <trkpt lat="48.68486" lon="-1.47255">
        <ele>9.5</ele>
        <time>2024-01-25T14:55:59Z</time>
      </trkpt>
      <trkpt lat="48.6849" lon="-1.4726">
        <ele>9.5</ele>
        <time>2024-01-25T14:56:00Z</time>
      </trkpt>
      <trkpt lat="48.68494" lon="-1.47266">
        <ele>9.5</ele>
        <time>2024-01-25T14:56:01Z</time>
      </trkpt>
      <trkpt lat="48.68496" lon="-1.47274">
        <ele>9.4</ele>
        <time>2024-01-25T14:56:02Z</time>
      </trkpt>
      <trkpt lat="48.68497" lon="-1.47283">
        <ele>9.4</ele>
        <time>2024-01-25T14:56:03Z</time>
      </trkpt>
      <trkpt lat="48.68497" lon="-1.47292">
        <ele>9.3</ele>
        <time>2024-01-25T14:56:04Z</time>
      </trkpt>
      <trkpt lat="48.68496" lon="-1.47303">
        <ele>9.2</ele>
        <time>2024-01-25T14:56:05Z</time>
      </trkpt>
      <trkpt lat="48.68494" lon="-1.47313">
        <ele>9.1</ele>
        <time>2024-01-25T14:56:06Z</time>
      </trkpt>
      <trkpt lat="48.68491" lon="-1.47324">
        <ele>9</ele>
        <time>2024-01-25T14:56:07Z</time>
      </trkpt>
      <trkpt lat="48.68489" lon="-1.47334">
        <ele>9</ele>
        <time>2024-01-25T14:56:08Z</time>
      </trkpt>
      <trkpt lat="48.68486" lon="-1.47345">
        <ele>8.9</ele>
        <time>2024-01-25T14:56:09Z</time>
      </trkpt>
      <trkpt lat="48.68484" lon="-1.47355">
        <ele>8.9</ele>
        <time>2024-01-25T14:56:10Z</time>
      </trkpt>
      <trkpt lat="48.68481" lon="-1.47365">
        <ele>8.8</ele>
        <time>2024-01-25T14:56:11Z</time>
      </trkpt>
      <trkpt lat="48.68479" lon="-1.47374">
        <ele>8.8</ele>
        <time>2024-01-25T14:56:12Z</time>
      </trkpt>
      <trkpt lat="48.68476" lon="-1.47383">
        <ele>8.8</ele>
        <time>2024-01-25T14:56:13Z</time>
      </trkpt>
      <trkpt lat="48.68474" lon="-1.47392">
        <ele>8.8</ele>
        <time>2024-01-25T14:56:14Z</time>
      </trkpt>
      <trkpt lat="48.68472" lon="-1.47401">
        <ele>8.8</ele>
        <time>2024-01-25T14:56:15Z</time>
      </trkpt>
      <trkpt lat="48.68469" lon="-1.47411">
        <ele>8.8</ele>
        <time>2024-01-25T14:56:16Z</time>
      </trkpt>
      <trkpt lat="48.68466" lon="-1.47419">
        <ele>8.8</ele>
        <time>2024-01-25T14:56:17Z</time>
      </trkpt>
      <trkpt lat="48.68464" lon="-1.47428">
        <ele>8.7</ele>
        <time>2024-01-25T14:56:18Z</time>
      </trkpt>
      <trkpt lat="48.68461" lon="-1.47436">
        <ele>8.7</ele>
        <time>2024-01-25T14:56:19Z</time>
      </trkpt>
      <trkpt lat="48.68459" lon="-1.47445">
        <ele>8.7</ele>
        <time>2024-01-25T14:56:20Z</time>
      </trkpt>
      <trkpt lat="48.68457" lon="-1.47453">
        <ele>8.7</ele>
        <time>2024-01-25T14:56:21Z</time>
      </trkpt>
      <trkpt lat="48.68455" lon="-1.47463">
        <ele>8.6</ele>
        <time>2024-01-25T14:56:22Z</time>
      </trkpt>
      <trkpt lat="48.68453" lon="-1.47472">
        <ele>8.6</ele>
        <time>2024-01-25T14:56:23Z</time>
      </trkpt>
      <trkpt lat="48.68452" lon="-1.47481">
        <ele>8.6</ele>
        <time>2024-01-25T14:56:24Z</time>
      </trkpt>
      <trkpt lat="48.68452" lon="-1.47492">
        <ele>8.5</ele>
        <time>2024-01-25T14:56:25Z</time>
      </trkpt>
      <trkpt lat="48.68451" lon="-1.47502">
        <ele>8.5</ele>
        <time>2024-01-25T14:56:26Z</time>
      </trkpt>
      <trkpt lat="48.6845" lon="-1.47511">
        <ele>8.5</ele>
        <time>2024-01-25T14:56:27Z</time>
      </trkpt>
      <trkpt lat="48.68449" lon="-1.47521">
        <ele>8.5</ele>
        <time>2024-01-25T14:56:28Z</time>
      </trkpt>
      <trkpt lat="48.68448" lon="-1.4753">
        <ele>8.4</ele>
        <time>2024-01-25T14:56:29Z</time>
      </trkpt>
      <trkpt lat="48.68447" lon="-1.4754">
        <ele>8.4</ele>
        <time>2024-01-25T14:56:30Z</time>
      </trkpt>
      <trkpt lat="48.68447" lon="-1.4755">
        <ele>8.4</ele>
        <time>2024-01-25T14:56:31Z</time>
      </trkpt>
      <trkpt lat="48.68446" lon="-1.4756">
        <ele>8.4</ele>
        <time>2024-01-25T14:56:32Z</time>
      </trkpt>
      <trkpt lat="48.68445" lon="-1.4757">
        <ele>8.3</ele>
        <time>2024-01-25T14:56:33Z</time>
      </trkpt>
      <trkpt lat="48.68445" lon="-1.4758">
        <ele>8.3</ele>
        <time>2024-01-25T14:56:34Z</time>
      </trkpt>
      <trkpt lat="48.68444" lon="-1.47589">
        <ele>8.3</ele>
        <time>2024-01-25T14:56:35Z</time>
      </trkpt>
      <trkpt lat="48.68443" lon="-1.47599">
        <ele>8.3</ele>
        <time>2024-01-25T14:56:36Z</time>
      </trkpt>
      <trkpt lat="48.68442" lon="-1.47608">
        <ele>8.2</ele>
        <time>2024-01-25T14:56:37Z</time>
      </trkpt>
      <trkpt lat="48.68441" lon="-1.47617">
        <ele>8.2</ele>
        <time>2024-01-25T14:56:38Z</time>
      </trkpt>
      <trkpt lat="48.6844" lon="-1.47626">
        <ele>8.2</ele>
        <time>2024-01-25T14:56:39Z</time>
      </trkpt>
      <trkpt lat="48.68439" lon="-1.47634">
        <ele>8.2</ele>
        <time>2024-01-25T14:56:40Z</time>
      </trkpt>
      <trkpt lat="48.68437" lon="-1.47641">
        <ele>8.1</ele>
        <time>2024-01-25T14:56:41Z</time>
      </trkpt>
      <trkpt lat="48.68436" lon="-1.47649">
        <ele>8.1</ele>
        <time>2024-01-25T14:56:42Z</time>
      </trkpt>
      <trkpt lat="48.68434" lon="-1.47657">
        <ele>8.1</ele>
        <time>2024-01-25T14:56:43Z</time>
      </trkpt>
      <trkpt lat="48.68433" lon="-1.47665">
        <ele>8.1</ele>
        <time>2024-01-25T14:56:44Z</time>
      </trkpt>
      <trkpt lat="48.68432" lon="-1.47673">
        <ele>8.1</ele>
        <time>2024-01-25T14:56:45Z</time>
      </trkpt>
      <trkpt lat="48.6843" lon="-1.47682">
        <ele>8.1</ele>
        <time>2024-01-25T14:56:46Z</time>
      </trkpt>
      <trkpt lat="48.68429" lon="-1.47691">
        <ele>8.1</ele>
        <time>2024-01-25T14:56:47Z</time>
      </trkpt>
      <trkpt lat="48.68427" lon="-1.477">
        <ele>8.1</ele>
        <time>2024-01-25T14:56:48Z</time>
      </trkpt>
      <trkpt lat="48.68425" lon="-1.47708">
        <ele>8.1</ele>
        <time>2024-01-25T14:56:49Z</time>
      </trkpt>
      <trkpt lat="48.68424" lon="-1.47718">
        <ele>8.1</ele>
        <time>2024-01-25T14:56:50Z</time>
      </trkpt>
      <trkpt lat="48.68423" lon="-1.47727">
        <ele>8.1</ele>
        <time>2024-01-25T14:56:51Z</time>
      </trkpt>
      <trkpt lat="48.68424" lon="-1.47737">
        <ele>8.2</ele>
        <time>2024-01-25T14:56:52Z</time>
      </trkpt>
      <trkpt lat="48.68424" lon="-1.47747">
        <ele>8.2</ele>
        <time>2024-01-25T14:56:53Z</time>
      </trkpt>
      <trkpt lat="48.68424" lon="-1.47757">
        <ele>8.2</ele>
        <time>2024-01-25T14:56:54Z</time>
      </trkpt>
      <trkpt lat="48.68424" lon="-1.47766">
        <ele>8.2</ele>
        <time>2024-01-25T14:56:55Z</time>
      </trkpt>
      <trkpt lat="48.68425" lon="-1.47775">
        <ele>8.3</ele>
        <time>2024-01-25T14:56:56Z</time>
      </trkpt>
      <trkpt lat="48.68428" lon="-1.47783">
        <ele>8.3</ele>
        <time>2024-01-25T14:56:57Z</time>
      </trkpt>
      <trkpt lat="48.68432" lon="-1.47791">
        <ele>8.4</ele>
        <time>2024-01-25T14:56:58Z</time>
      </trkpt>
      <trkpt lat="48.68437" lon="-1.47797">
        <ele>8.4</ele>
        <time>2024-01-25T14:56:59Z</time>
      </trkpt>
      <trkpt lat="48.68441" lon="-1.47803">
        <ele>8.5</ele>
        <time>2024-01-25T14:57:00Z</time>
      </trkpt>
      <trkpt lat="48.68445" lon="-1.47809">
        <ele>8.6</ele>
        <time>2024-01-25T14:57:01Z</time>
      </trkpt>
      <trkpt lat="48.6845" lon="-1.47815">
        <ele>8.6</ele>
        <time>2024-01-25T14:57:02Z</time>
      </trkpt>
      <trkpt lat="48.68455" lon="-1.47821">
        <ele>8.7</ele>
        <time>2024-01-25T14:57:03Z</time>
      </trkpt>
      <trkpt lat="48.68459" lon="-1.47827">
        <ele>8.7</ele>
        <time>2024-01-25T14:57:04Z</time>
      </trkpt>
      <trkpt lat="48.68464" lon="-1.47833">
        <ele>8.8</ele>
        <time>2024-01-25T14:57:05Z</time>
      </trkpt>
      <trkpt lat="48.68468" lon="-1.47839">
        <ele>8.8</ele>
        <time>2024-01-25T14:57:06Z</time>
      </trkpt>
      <trkpt lat="48.68473" lon="-1.47844">
        <ele>8.9</ele>
        <time>2024-01-25T14:57:07Z</time>
      </trkpt>
      <trkpt lat="48.68479" lon="-1.47849">
        <ele>9</ele>
        <time>2024-01-25T14:57:08Z</time>
      </trkpt>
      <trkpt lat="48.68483" lon="-1.47855">
        <ele>9.1</ele>
        <time>2024-01-25T14:57:09Z</time>
      </trkpt>
      <trkpt lat="48.68488" lon="-1.47861">
        <ele>9.3</ele>
        <time>2024-01-25T14:57:10Z</time>
      </trkpt>
      <trkpt lat="48.68492" lon="-1.47866">
        <ele>9.4</ele>
        <time>2024-01-25T14:57:11Z</time>
      </trkpt>
      <trkpt lat="48.68496" lon="-1.47871">
        <ele>9.5</ele>
        <time>2024-01-25T14:57:12Z</time>
      </trkpt>
      <trkpt lat="48.685" lon="-1.47877">
        <ele>9.6</ele>
        <time>2024-01-25T14:57:13Z</time>
      </trkpt>
      <trkpt lat="48.68504" lon="-1.47883">
        <ele>9.7</ele>
        <time>2024-01-25T14:57:14Z</time>
      </trkpt>
      <trkpt lat="48.68507" lon="-1.47889">
        <ele>9.8</ele>
        <time>2024-01-25T14:57:15Z</time>
      </trkpt>
      <trkpt lat="48.68511" lon="-1.47895">
        <ele>9.9</ele>
        <time>2024-01-25T14:57:16Z</time>
      </trkpt>
      <trkpt lat="48.68515" lon="-1.479">
        <ele>10</ele>
        <time>2024-01-25T14:57:17Z</time>
      </trkpt>
      <trkpt lat="48.68518" lon="-1.47905">
        <ele>10.1</ele>
        <time>2024-01-25T14:57:18Z</time>
      </trkpt>
      <trkpt lat="48.68522" lon="-1.4791">
        <ele>10.2</ele>
        <time>2024-01-25T14:57:19Z</time>
      </trkpt>
      <trkpt lat="48.68525" lon="-1.47915">
        <ele>10.3</ele>
        <time>2024-01-25T14:57:20Z</time>
      </trkpt>
      <trkpt lat="48.68529" lon="-1.47921">
        <ele>10.5</ele>
        <time>2024-01-25T14:57:21Z</time>
      </trkpt>
      <trkpt lat="48.68532" lon="-1.47926">
        <ele>10.6</ele>
        <time>2024-01-25T14:57:22Z</time>
      </trkpt>
      <trkpt lat="48.68536" lon="-1.4793">
        <ele>10.7</ele>
        <time>2024-01-25T14:57:23Z</time>
      </trkpt>
      <trkpt lat="48.68539" lon="-1.47934">
        <ele>10.8</ele>
        <time>2024-01-25T14:57:24Z</time>
      </trkpt>
      <trkpt lat="48.68543" lon="-1.47939">
        <ele>10.9</ele>
        <time>2024-01-25T14:57:25Z</time>
      </trkpt>
      <trkpt lat="48.68547" lon="-1.47943">
        <ele>10.9</ele>
        <time>2024-01-25T14:57:26Z</time>
      </trkpt>
      <trkpt lat="48.68551" lon="-1.47948">
        <ele>11</ele>
        <time>2024-01-25T14:57:27Z</time>
      </trkpt>
      <trkpt lat="48.68555" lon="-1.47952">
        <ele>11.1</ele>
        <time>2024-01-25T14:57:28Z</time>
      </trkpt>
      <trkpt lat="48.6856" lon="-1.47957">
        <ele>11.2</ele>
        <time>2024-01-25T14:57:29Z</time>
      </trkpt>
      <trkpt lat="48.68565" lon="-1.47961">
        <ele>11.2</ele>
        <time>2024-01-25T14:57:30Z</time>
      </trkpt>
      <trkpt lat="48.6857" lon="-1.47965">
        <ele>11.3</ele>
        <time>2024-01-25T14:57:31Z</time>
      </trkpt>
      <trkpt lat="48.68575" lon="-1.47968">
        <ele>11.4</ele>
        <time>2024-01-25T14:57:32Z</time>
      </trkpt>
      <trkpt lat="48.68579" lon="-1.4797">
        <ele>11.4</ele>
        <time>2024-01-25T14:57:33Z</time>
      </trkpt>
      <trkpt lat="48.68584" lon="-1.47973">
        <ele>11.5</ele>
        <time>2024-01-25T14:57:34Z</time>
      </trkpt>
      <trkpt lat="48.68588" lon="-1.47976">
        <ele>11.5</ele>
        <time>2024-01-25T14:57:35Z</time>
      </trkpt>
      <trkpt lat="48.68593" lon="-1.47979">
        <ele>11.6</ele>
        <time>2024-01-25T14:57:36Z</time>
      </trkpt>
      <trkpt lat="48.68597" lon="-1.47981">
        <ele>11.6</ele>
        <time>2024-01-25T14:57:37Z</time>
      </trkpt>
      <trkpt lat="48.68602" lon="-1.47983">
        <ele>11.7</ele>
        <time>2024-01-25T14:57:38Z</time>
      </trkpt>
      <trkpt lat="48.68607" lon="-1.47984">
        <ele>11.8</ele>
        <time>2024-01-25T14:57:39Z</time>
      </trkpt>
      <trkpt lat="48.68612" lon="-1.47986">
        <ele>11.8</ele>
        <time>2024-01-25T14:57:40Z</time>
      </trkpt>
      <trkpt lat="48.68617" lon="-1.47988">
        <ele>11.9</ele>
        <time>2024-01-25T14:57:41Z</time>
      </trkpt>
      <trkpt lat="48.68623" lon="-1.4799">
        <ele>12</ele>
        <time>2024-01-25T14:57:42Z</time>
      </trkpt>
      <trkpt lat="48.68628" lon="-1.47992">
        <ele>12</ele>
        <time>2024-01-25T14:57:43Z</time>
      </trkpt>
      <trkpt lat="48.68631" lon="-1.47996">
        <ele>12.1</ele>
        <time>2024-01-25T14:57:44Z</time>
      </trkpt>
      <trkpt lat="48.68632" lon="-1.48002">
        <ele>12.1</ele>
        <time>2024-01-25T14:57:45Z</time>
      </trkpt>
      <trkpt lat="48.68631" lon="-1.4801">
        <ele>12.1</ele>
        <time>2024-01-25T14:57:46Z</time>
      </trkpt>
      <trkpt lat="48.6863" lon="-1.48018">
        <ele>12.1</ele>
        <time>2024-01-25T14:57:47Z</time>
      </trkpt>
      <trkpt lat="48.68628" lon="-1.48027">
        <ele>12.2</ele>
        <time>2024-01-25T14:57:48Z</time>
      </trkpt>
      <trkpt lat="48.68627" lon="-1.48035">
        <ele>12.2</ele>
        <time>2024-01-25T14:57:49Z</time>
      </trkpt>
      <trkpt lat="48.68626" lon="-1.48043">
        <ele>12.2</ele>
        <time>2024-01-25T14:57:50Z</time>
      </trkpt>
      <trkpt lat="48.68625" lon="-1.48051">
        <ele>12.1</ele>
        <time>2024-01-25T14:57:51Z</time>
      </trkpt>
      <trkpt lat="48.68626" lon="-1.4806">
        <ele>12.1</ele>
        <time>2024-01-25T14:57:52Z</time>
      </trkpt>
      <trkpt lat="48.68627" lon="-1.48068">
        <ele>12.1</ele>
        <time>2024-01-25T14:57:53Z</time>
      </trkpt>
      <trkpt lat="48.68628" lon="-1.48076">
        <ele>12</ele>
        <time>2024-01-25T14:57:54Z</time>
      </trkpt>
      <trkpt lat="48.6863" lon="-1.48085">
        <ele>12</ele>
        <time>2024-01-25T14:57:55Z</time>
      </trkpt>
      <trkpt lat="48.68633" lon="-1.48093">
        <ele>11.9</ele>
        <time>2024-01-25T14:57:56Z</time>
      </trkpt>
      <trkpt lat="48.68636" lon="-1.48101">
        <ele>11.8</ele>
        <time>2024-01-25T14:57:57Z</time>
      </trkpt>
      <trkpt lat="48.68639" lon="-1.48109">
        <ele>11.7</ele>
        <time>2024-01-25T14:57:58Z</time>
      </trkpt>
      <trkpt lat="48.68642" lon="-1.48117">
        <ele>11.6</ele>
        <time>2024-01-25T14:57:59Z</time>
      </trkpt>
      <trkpt lat="48.68645" lon="-1.48125">
        <ele>11.5</ele>
        <time>2024-01-25T14:58:00Z</time>
      </trkpt>
      <trkpt lat="48.68649" lon="-1.48133">
        <ele>11.3</ele>
        <time>2024-01-25T14:58:01Z</time>
      </trkpt>
      <trkpt lat="48.68652" lon="-1.48141">
        <ele>11.2</ele>
        <time>2024-01-25T14:58:02Z</time>
      </trkpt>
      <trkpt lat="48.68656" lon="-1.4815">
        <ele>11</ele>
        <time>2024-01-25T14:58:03Z</time>
      </trkpt>
      <trkpt lat="48.68659" lon="-1.48158">
        <ele>10.9</ele>
        <time>2024-01-25T14:58:04Z</time>
      </trkpt>
      <trkpt lat="48.68662" lon="-1.48166">
        <ele>10.8</ele>
        <time>2024-01-25T14:58:05Z</time>
      </trkpt>
      <trkpt lat="48.68666" lon="-1.48175">
        <ele>10.7</ele>
        <time>2024-01-25T14:58:06Z</time>
      </trkpt>
      <trkpt lat="48.6867" lon="-1.48184">
        <ele>10.6</ele>
        <time>2024-01-25T14:58:07Z</time>
      </trkpt>
      <trkpt lat="48.68673" lon="-1.48193">
        <ele>10.5</ele>
        <time>2024-01-25T14:58:08Z</time>
      </trkpt>
      <trkpt lat="48.68676" lon="-1.48201">
        <ele>10.4</ele>
        <time>2024-01-25T14:58:09Z</time>
      </trkpt>
      <trkpt lat="48.68679" lon="-1.4821">
        <ele>10.3</ele>
        <time>2024-01-25T14:58:10Z</time>
      </trkpt>
      <trkpt lat="48.68682" lon="-1.48218">
        <ele>10.3</ele>
        <time>2024-01-25T14:58:11Z</time>
      </trkpt>
      <trkpt lat="48.68685" lon="-1.48227">
        <ele>10.2</ele>
        <time>2024-01-25T14:58:12Z</time>
      </trkpt>
      <trkpt lat="48.68688" lon="-1.48235">
        <ele>10.2</ele>
        <time>2024-01-25T14:58:13Z</time>
      </trkpt>
      <trkpt lat="48.68691" lon="-1.48243">
        <ele>10.2</ele>
        <time>2024-01-25T14:58:14Z</time>
      </trkpt>
      <trkpt lat="48.68694" lon="-1.48251">
        <ele>10.1</ele>
        <time>2024-01-25T14:58:15Z</time>
      </trkpt>
      <trkpt lat="48.68697" lon="-1.48259">
        <ele>10.1</ele>
        <time>2024-01-25T14:58:16Z</time>
      </trkpt>
      <trkpt lat="48.687" lon="-1.48268">
        <ele>10.1</ele>
        <time>2024-01-25T14:58:17Z</time>
      </trkpt>
      <trkpt lat="48.68703" lon="-1.48276">
        <ele>10.1</ele>
        <time>2024-01-25T14:58:18Z</time>
      </trkpt>
      <trkpt lat="48.68706" lon="-1.48284">
        <ele>10.1</ele>
        <time>2024-01-25T14:58:19Z</time>
      </trkpt>
      <trkpt lat="48.68709" lon="-1.48292">
        <ele>10.1</ele>
        <time>2024-01-25T14:58:20Z</time>
      </trkpt>
      <trkpt lat="48.68713" lon="-1.483">
        <ele>10.1</ele>
        <time>2024-01-25T14:58:21Z</time>
      </trkpt>
      <trkpt lat="48.68716" lon="-1.48308">
        <ele>10.1</ele>
        <time>2024-01-25T14:58:22Z</time>
      </trkpt>
      <trkpt lat="48.68719" lon="-1.48316">
        <ele>10.1</ele>
        <time>2024-01-25T14:58:23Z</time>
      </trkpt>
      <trkpt lat="48.68722" lon="-1.48325">
        <ele>10.2</ele>
        <time>2024-01-25T14:58:24Z</time>
      </trkpt>
      <trkpt lat="48.68725" lon="-1.48333">
        <ele>10.2</ele>
        <time>2024-01-25T14:58:25Z</time>
      </trkpt>
      <trkpt lat="48.68729" lon="-1.48341">
        <ele>10.2</ele>
        <time>2024-01-25T14:58:26Z</time>
      </trkpt>
      <trkpt lat="48.68732" lon="-1.4835">
        <ele>10.2</ele>
        <time>2024-01-25T14:58:27Z</time>
      </trkpt>
      <trkpt lat="48.68735" lon="-1.48359">
        <ele>10.1</ele>
        <time>2024-01-25T14:58:28Z</time>
      </trkpt>
      <trkpt lat="48.68738" lon="-1.48367">
        <ele>10.1</ele>
        <time>2024-01-25T14:58:29Z</time>
      </trkpt>
      <trkpt lat="48.68742" lon="-1.48376">
        <ele>10.1</ele>
        <time>2024-01-25T14:58:30Z</time>
      </trkpt>
      <trkpt lat="48.68745" lon="-1.48384">
        <ele>10.1</ele>
        <time>2024-01-25T14:58:31Z</time>
      </trkpt>
      <trkpt lat="48.68749" lon="-1.48393">
        <ele>10.1</ele>
        <time>2024-01-25T14:58:32Z</time>
      </trkpt>
      <trkpt lat="48.68752" lon="-1.48401">
        <ele>10.1</ele>
        <time>2024-01-25T14:58:33Z</time>
      </trkpt>
      <trkpt lat="48.68755" lon="-1.48409">
        <ele>10</ele>
        <time>2024-01-25T14:58:34Z</time>
      </trkpt>
      <trkpt lat="48.68758" lon="-1.48417">
        <ele>10</ele>
        <time>2024-01-25T14:58:35Z</time>
      </trkpt>
      <trkpt lat="48.68761" lon="-1.48426">
        <ele>9.9</ele>
        <time>2024-01-25T14:58:36Z</time>
      </trkpt>
      <trkpt lat="48.68764" lon="-1.48434">
        <ele>9.9</ele>
        <time>2024-01-25T14:58:37Z</time>
      </trkpt>
      <trkpt lat="48.68768" lon="-1.48443">
        <ele>9.9</ele>
        <time>2024-01-25T14:58:38Z</time>
      </trkpt>
      <trkpt lat="48.68772" lon="-1.4845">
        <ele>9.8</ele>
        <time>2024-01-25T14:58:39Z</time>
      </trkpt>
      <trkpt lat="48.68776" lon="-1.48457">
        <ele>9.8</ele>
        <time>2024-01-25T14:58:40Z</time>
      </trkpt>
      <trkpt lat="48.68781" lon="-1.48464">
        <ele>9.8</ele>
        <time>2024-01-25T14:58:41Z</time>
      </trkpt>
      <trkpt lat="48.68785" lon="-1.48472">
        <ele>9.7</ele>
        <time>2024-01-25T14:58:42Z</time>
      </trkpt>
      <trkpt lat="48.6879" lon="-1.48479">
        <ele>9.7</ele>
        <time>2024-01-25T14:58:43Z</time>
      </trkpt>
      <trkpt lat="48.68794" lon="-1.48487">
        <ele>9.6</ele>
        <time>2024-01-25T14:58:44Z</time>
      </trkpt>
      <trkpt lat="48.68798" lon="-1.48494">
        <ele>9.5</ele>
        <time>2024-01-25T14:58:45Z</time>
      </trkpt>
      <trkpt lat="48.68802" lon="-1.48502">
        <ele>9.4</ele>
        <time>2024-01-25T14:58:46Z</time>
      </trkpt>
      <trkpt lat="48.68807" lon="-1.4851">
        <ele>9.3</ele>
        <time>2024-01-25T14:58:47Z</time>
      </trkpt>
      <trkpt lat="48.68811" lon="-1.48519">
        <ele>9.1</ele>
        <time>2024-01-25T14:58:48Z</time>
      </trkpt>
      <trkpt lat="48.68815" lon="-1.48526">
        <ele>9</ele>
        <time>2024-01-25T14:58:49Z</time>
      </trkpt>
      <trkpt lat="48.6882" lon="-1.48534">
        <ele>8.9</ele>
        <time>2024-01-25T14:58:50Z</time>
      </trkpt>
      <trkpt lat="48.68824" lon="-1.48542">
        <ele>8.8</ele>
        <time>2024-01-25T14:58:51Z</time>
      </trkpt>
      <trkpt lat="48.68828" lon="-1.48551">
        <ele>8.7</ele>
        <time>2024-01-25T14:58:52Z</time>
      </trkpt>
      <trkpt lat="48.68833" lon="-1.48559">
        <ele>8.6</ele>
        <time>2024-01-25T14:58:53Z</time>
      </trkpt>
      <trkpt lat="48.68838" lon="-1.48567">
        <ele>8.6</ele>
        <time>2024-01-25T14:58:54Z</time>
      </trkpt>
      <trkpt lat="48.68842" lon="-1.48575">
        <ele>8.5</ele>
        <time>2024-01-25T14:58:55Z</time>
      </trkpt>
      <trkpt lat="48.68847" lon="-1.48583">
        <ele>8.4</ele>
        <time>2024-01-25T14:58:56Z</time>
      </trkpt>
      <trkpt lat="48.68852" lon="-1.48591">
        <ele>8.3</ele>
        <time>2024-01-25T14:58:57Z</time>
      </trkpt>
      <trkpt lat="48.68857" lon="-1.48599">
        <ele>8.3</ele>
        <time>2024-01-25T14:58:58Z</time>
      </trkpt>
      <trkpt lat="48.68862" lon="-1.48606">
        <ele>8.2</ele>
        <time>2024-01-25T14:58:59Z</time>
      </trkpt>
      <trkpt lat="48.68867" lon="-1.48614">
        <ele>8.2</ele>
        <time>2024-01-25T14:59:00Z</time>
      </trkpt>
      <trkpt lat="48.68872" lon="-1.48621">
        <ele>8.1</ele>
        <time>2024-01-25T14:59:01Z</time>
      </trkpt>
      <trkpt lat="48.68877" lon="-1.48628">
        <ele>8.1</ele>
        <time>2024-01-25T14:59:02Z</time>
      </trkpt>
      <trkpt lat="48.68882" lon="-1.48635">
        <ele>8</ele>
        <time>2024-01-25T14:59:03Z</time>
      </trkpt>
      <trkpt lat="48.68888" lon="-1.48642">
        <ele>8</ele>
        <time>2024-01-25T14:59:04Z</time>
      </trkpt>
      <trkpt lat="48.68894" lon="-1.48649">
        <ele>7.9</ele>
        <time>2024-01-25T14:59:05Z</time>
      </trkpt>
      <trkpt lat="48.689" lon="-1.48657">
        <ele>7.9</ele>
        <time>2024-01-25T14:59:06Z</time>
      </trkpt>
      <trkpt lat="48.68906" lon="-1.48664">
        <ele>7.9</ele>
        <time>2024-01-25T14:59:07Z</time>
      </trkpt>
      <trkpt lat="48.68912" lon="-1.48672">
        <ele>7.9</ele>
        <time>2024-01-25T14:59:08Z</time>
      </trkpt>
      <trkpt lat="48.68918" lon="-1.48679">
        <ele>7.8</ele>
        <time>2024-01-25T14:59:09Z</time>
      </trkpt>
      <trkpt lat="48.68923" lon="-1.48687">
        <ele>7.8</ele>
        <time>2024-01-25T14:59:10Z</time>
      </trkpt>
      <trkpt lat="48.68929" lon="-1.48695">
        <ele>7.8</ele>
        <time>2024-01-25T14:59:11Z</time>
      </trkpt>
      <trkpt lat="48.68934" lon="-1.48702">
        <ele>7.8</ele>
        <time>2024-01-25T14:59:12Z</time>
      </trkpt>
      <trkpt lat="48.6894" lon="-1.48709">
        <ele>7.8</ele>
        <time>2024-01-25T14:59:13Z</time>
      </trkpt>
      <trkpt lat="48.68946" lon="-1.48716">
        <ele>7.8</ele>
        <time>2024-01-25T14:59:14Z</time>
      </trkpt>
      <trkpt lat="48.68952" lon="-1.48723">
        <ele>7.7</ele>
        <time>2024-01-25T14:59:15Z</time>
      </trkpt>
      <trkpt lat="48.68957" lon="-1.48729">
        <ele>7.7</ele>
        <time>2024-01-25T14:59:16Z</time>
      </trkpt>
      <trkpt lat="48.68962" lon="-1.48736">
        <ele>7.7</ele>
        <time>2024-01-25T14:59:17Z</time>
      </trkpt>
      <trkpt lat="48.68967" lon="-1.48743">
        <ele>7.6</ele>
        <time>2024-01-25T14:59:18Z</time>
      </trkpt>
      <trkpt lat="48.68971" lon="-1.48751">
        <ele>7.6</ele>
        <time>2024-01-25T14:59:19Z</time>
      </trkpt>
      <trkpt lat="48.68972" lon="-1.4876">
        <ele>7.6</ele>
        <time>2024-01-25T14:59:20Z</time>
      </trkpt>
      <trkpt lat="48.68973" lon="-1.48769">
        <ele>7.5</ele>
        <time>2024-01-25T14:59:21Z</time>
      </trkpt>
      <trkpt lat="48.6897" lon="-1.48778">
        <ele>7.4</ele>
        <time>2024-01-25T14:59:22Z</time>
      </trkpt>
      <trkpt lat="48.68966" lon="-1.48787">
        <ele>7.3</ele>
        <time>2024-01-25T14:59:23Z</time>
      </trkpt>
      <trkpt lat="48.68961" lon="-1.48795">
        <ele>7.2</ele>
        <time>2024-01-25T14:59:24Z</time>
      </trkpt>
      <trkpt lat="48.68955" lon="-1.48804">
        <ele>7.1</ele>
        <time>2024-01-25T14:59:25Z</time>
      </trkpt>
      <trkpt lat="48.6895" lon="-1.48812">
        <ele>7.1</ele>
        <time>2024-01-25T14:59:26Z</time>
      </trkpt>
      <trkpt lat="48.68945" lon="-1.48821">
        <ele>7</ele>
        <time>2024-01-25T14:59:27Z</time>
      </trkpt>
      <trkpt lat="48.6894" lon="-1.48829">
        <ele>7</ele>
        <time>2024-01-25T14:59:28Z</time>
      </trkpt>
      <trkpt lat="48.68935" lon="-1.48838">
        <ele>7</ele>
        <time>2024-01-25T14:59:29Z</time>
      </trkpt>
      <trkpt lat="48.68931" lon="-1.48847">
        <ele>7</ele>
        <time>2024-01-25T14:59:30Z</time>
      </trkpt>
      <trkpt lat="48.68926" lon="-1.48855">
        <ele>7</ele>
        <time>2024-01-25T14:59:31Z</time>
      </trkpt>
      <trkpt lat="48.68921" lon="-1.48863">
        <ele>7</ele>
        <time>2024-01-25T14:59:32Z</time>
      </trkpt>
      <trkpt lat="48.68916" lon="-1.48871">
        <ele>7</ele>
        <time>2024-01-25T14:59:33Z</time>
      </trkpt>
      <trkpt lat="48.68912" lon="-1.48879">
        <ele>7</ele>
        <time>2024-01-25T14:59:34Z</time>
      </trkpt>
      <trkpt lat="48.68907" lon="-1.48887">
        <ele>7</ele>
        <time>2024-01-25T14:59:35Z</time>
      </trkpt>
      <trkpt lat="48.68902" lon="-1.48895">
        <ele>7</ele>
        <time>2024-01-25T14:59:36Z</time>
      </trkpt>
      <trkpt lat="48.68897" lon="-1.48902">
        <ele>7</ele>
        <time>2024-01-25T14:59:37Z</time>
      </trkpt>
      <trkpt lat="48.68893" lon="-1.4891">
        <ele>7.1</ele>
        <time>2024-01-25T14:59:38Z</time>
      </trkpt>
      <trkpt lat="48.68888" lon="-1.48917">
        <ele>7.1</ele>
        <time>2024-01-25T14:59:39Z</time>
      </trkpt>
      <trkpt lat="48.68884" lon="-1.48923">
        <ele>7.1</ele>
        <time>2024-01-25T14:59:40Z</time>
      </trkpt>
      <trkpt lat="48.68879" lon="-1.4893">
        <ele>7.1</ele>
        <time>2024-01-25T14:59:41Z</time>
      </trkpt>
      <trkpt lat="48.68875" lon="-1.48936">
        <ele>7.1</ele>
        <time>2024-01-25T14:59:42Z</time>
      </trkpt>
      <trkpt lat="48.6887" lon="-1.48944">
        <ele>7.2</ele>
        <time>2024-01-25T14:59:43Z</time>
      </trkpt>
      <trkpt lat="48.68866" lon="-1.48952">
        <ele>7.2</ele>
        <time>2024-01-25T14:59:44Z</time>
      </trkpt>
      <trkpt lat="48.68861" lon="-1.4896">
        <ele>7.3</ele>
        <time>2024-01-25T14:59:45Z</time>
      </trkpt>
      <trkpt lat="48.68857" lon="-1.48968">
        <ele>7.3</ele>
        <time>2024-01-25T14:59:46Z</time>
      </trkpt>
      <trkpt lat="48.68854" lon="-1.48976">
        <ele>7.3</ele>
        <time>2024-01-25T14:59:47Z</time>
      </trkpt>
      <trkpt lat="48.68852" lon="-1.48986">
        <ele>7.3</ele>
        <time>2024-01-25T14:59:48Z</time>
      </trkpt>
      <trkpt lat="48.68851" lon="-1.48995">
        <ele>7.3</ele>
        <time>2024-01-25T14:59:49Z</time>
      </trkpt>
      <trkpt lat="48.68852" lon="-1.49005">
        <ele>7.3</ele>
        <time>2024-01-25T14:59:50Z</time>
      </trkpt>
      <trkpt lat="48.68853" lon="-1.49016">
        <ele>7.2</ele>
        <time>2024-01-25T14:59:51Z</time>
      </trkpt>
      <trkpt lat="48.68855" lon="-1.49027">
        <ele>7.2</ele>
        <time>2024-01-25T14:59:52Z</time>
      </trkpt>
      <trkpt lat="48.68857" lon="-1.49039">
        <ele>7.1</ele>
        <time>2024-01-25T14:59:53Z</time>
      </trkpt>
      <trkpt lat="48.68858" lon="-1.49049">
        <ele>7.1</ele>
        <time>2024-01-25T14:59:54Z</time>
      </trkpt>
      <trkpt lat="48.68859" lon="-1.4906">
        <ele>7</ele>
        <time>2024-01-25T14:59:55Z</time>
      </trkpt>
      <trkpt lat="48.68859" lon="-1.4907">
        <ele>7</ele>
        <time>2024-01-25T14:59:56Z</time>
      </trkpt>
      <trkpt lat="48.68859" lon="-1.4908">
        <ele>7</ele>
        <time>2024-01-25T14:59:57Z</time>
      </trkpt>
      <trkpt lat="48.68858" lon="-1.4909">
        <ele>7</ele>
        <time>2024-01-25T14:59:58Z</time>
      </trkpt>
      <trkpt lat="48.68856" lon="-1.491">
        <ele>7</ele>
        <time>2024-01-25T14:59:59Z</time>
      </trkpt>
      <trkpt lat="48.68855" lon="-1.49109">
        <ele>7</ele>
        <time>2024-01-25T15:00:00Z</time>
      </trkpt>
      <trkpt lat="48.68853" lon="-1.49118">
        <ele>7</ele>
        <time>2024-01-25T15:00:01Z</time>
      </trkpt>
      <trkpt lat="48.6885" lon="-1.49127">
        <ele>7</ele>
        <time>2024-01-25T15:00:02Z</time>
      </trkpt>
      <trkpt lat="48.68847" lon="-1.49135">
        <ele>6.9</ele>
        <time>2024-01-25T15:00:03Z</time>
      </trkpt>
      <trkpt lat="48.68845" lon="-1.49145">
        <ele>6.9</ele>
        <time>2024-01-25T15:00:04Z</time>
      </trkpt>
      <trkpt lat="48.68843" lon="-1.49154">
        <ele>6.9</ele>
        <time>2024-01-25T15:00:05Z</time>
      </trkpt>
      <trkpt lat="48.6884" lon="-1.49163">
        <ele>6.9</ele>
        <time>2024-01-25T15:00:06Z</time>
      </trkpt>
      <trkpt lat="48.68837" lon="-1.49173">
        <ele>6.9</ele>
        <time>2024-01-25T15:00:07Z</time>
      </trkpt>
      <trkpt lat="48.68834" lon="-1.49183">
        <ele>6.9</ele>
        <time>2024-01-25T15:00:08Z</time>
      </trkpt>
      <trkpt lat="48.68832" lon="-1.49193">
        <ele>6.9</ele>
        <time>2024-01-25T15:00:09Z</time>
      </trkpt>
      <trkpt lat="48.68829" lon="-1.49203">
        <ele>6.8</ele>
        <time>2024-01-25T15:00:10Z</time>
      </trkpt>
      <trkpt lat="48.68826" lon="-1.49213">
        <ele>6.8</ele>
        <time>2024-01-25T15:00:11Z</time>
      </trkpt>
      <trkpt lat="48.68824" lon="-1.49224">
        <ele>6.8</ele>
        <time>2024-01-25T15:00:12Z</time>
      </trkpt>
      <trkpt lat="48.68821" lon="-1.49235">
        <ele>6.8</ele>
        <time>2024-01-25T15:00:13Z</time>
      </trkpt>
      <trkpt lat="48.68819" lon="-1.49246">
        <ele>6.8</ele>
        <time>2024-01-25T15:00:14Z</time>
      </trkpt>
      <trkpt lat="48.68816" lon="-1.49257">
        <ele>6.8</ele>
        <time>2024-01-25T15:00:15Z</time>
      </trkpt>
      <trkpt lat="48.68814" lon="-1.49267">
        <ele>6.7</ele>
        <time>2024-01-25T15:00:16Z</time>
      </trkpt>
      <trkpt lat="48.68811" lon="-1.49278">
        <ele>6.7</ele>
        <time>2024-01-25T15:00:17Z</time>
      </trkpt>
      <trkpt lat="48.68808" lon="-1.49288">
        <ele>6.7</ele>
        <time>2024-01-25T15:00:18Z</time>
      </trkpt>
      <trkpt lat="48.68805" lon="-1.49299">
        <ele>6.7</ele>
        <time>2024-01-25T15:00:19Z</time>
      </trkpt>
      <trkpt lat="48.68803" lon="-1.49309">
        <ele>6.7</ele>
        <time>2024-01-25T15:00:20Z</time>
      </trkpt>
      <trkpt lat="48.68801" lon="-1.4932">
        <ele>6.7</ele>
        <time>2024-01-25T15:00:21Z</time>
      </trkpt>
      <trkpt lat="48.68798" lon="-1.4933">
        <ele>6.7</ele>
        <time>2024-01-25T15:00:22Z</time>
      </trkpt>
      <trkpt lat="48.68795" lon="-1.4934">
        <ele>6.7</ele>
        <time>2024-01-25T15:00:23Z</time>
      </trkpt>
      <trkpt lat="48.68792" lon="-1.4935">
        <ele>6.7</ele>
        <time>2024-01-25T15:00:24Z</time>
      </trkpt>
      <trkpt lat="48.6879" lon="-1.49361">
        <ele>6.7</ele>
        <time>2024-01-25T15:00:25Z</time>
      </trkpt>
      <trkpt lat="48.68787" lon="-1.49371">
        <ele>6.7</ele>
        <time>2024-01-25T15:00:26Z</time>
      </trkpt>
      <trkpt lat="48.68785" lon="-1.49381">
        <ele>6.7</ele>
        <time>2024-01-25T15:00:27Z</time>
      </trkpt>
      <trkpt lat="48.68782" lon="-1.49391">
        <ele>6.7</ele>
        <time>2024-01-25T15:00:28Z</time>
      </trkpt>
      <trkpt lat="48.6878" lon="-1.49402">
        <ele>6.8</ele>
        <time>2024-01-25T15:00:29Z</time>
      </trkpt>
      <trkpt lat="48.68777" lon="-1.49412">
        <ele>6.8</ele>
        <time>2024-01-25T15:00:30Z</time>
      </trkpt>
      <trkpt lat="48.68774" lon="-1.49422">
        <ele>6.9</ele>
        <time>2024-01-25T15:00:31Z</time>
      </trkpt>
      <trkpt lat="48.68772" lon="-1.49433">
        <ele>6.9</ele>
        <time>2024-01-25T15:00:32Z</time>
      </trkpt>
      <trkpt lat="48.6877" lon="-1.49444">
        <ele>6.9</ele>
        <time>2024-01-25T15:00:33Z</time>
      </trkpt>
      <trkpt lat="48.68768" lon="-1.49454">
        <ele>6.9</ele>
        <time>2024-01-25T15:00:34Z</time>
      </trkpt>
      <trkpt lat="48.68766" lon="-1.49464">
        <ele>6.9</ele>
        <time>2024-01-25T15:00:35Z</time>
      </trkpt>
      <trkpt lat="48.68764" lon="-1.49474">
        <ele>6.9</ele>
        <time>2024-01-25T15:00:36Z</time>
      </trkpt>
      <trkpt lat="48.68762" lon="-1.49482">
        <ele>6.9</ele>
        <time>2024-01-25T15:00:37Z</time>
      </trkpt>
      <trkpt lat="48.68761" lon="-1.49492">
        <ele>7</ele>
        <time>2024-01-25T15:00:38Z</time>
      </trkpt>
      <trkpt lat="48.6876" lon="-1.49501">
        <ele>7</ele>
        <time>2024-01-25T15:00:39Z</time>
      </trkpt>
      <trkpt lat="48.68759" lon="-1.49511">
        <ele>7</ele>
        <time>2024-01-25T15:00:40Z</time>
      </trkpt>
      <trkpt lat="48.68758" lon="-1.49521">
        <ele>7</ele>
        <time>2024-01-25T15:00:41Z</time>
      </trkpt>
      <trkpt lat="48.68757" lon="-1.49531">
        <ele>7.1</ele>
        <time>2024-01-25T15:00:42Z</time>
      </trkpt>
      <trkpt lat="48.68756" lon="-1.4954">
        <ele>7.1</ele>
        <time>2024-01-25T15:00:43Z</time>
      </trkpt>
      <trkpt lat="48.68755" lon="-1.4955">
        <ele>7.1</ele>
        <time>2024-01-25T15:00:44Z</time>
      </trkpt>
      <trkpt lat="48.68754" lon="-1.4956">
        <ele>7.2</ele>
        <time>2024-01-25T15:00:45Z</time>
      </trkpt>
      <trkpt lat="48.68753" lon="-1.49569">
        <ele>7.3</ele>
        <time>2024-01-25T15:00:46Z</time>
      </trkpt>
      <trkpt lat="48.68751" lon="-1.49577">
        <ele>7.4</ele>
        <time>2024-01-25T15:00:47Z</time>
      </trkpt>
      <trkpt lat="48.6875" lon="-1.49586">
        <ele>7.4</ele>
        <time>2024-01-25T15:00:48Z</time>
      </trkpt>
      <trkpt lat="48.6875" lon="-1.49595">
        <ele>7.5</ele>
        <time>2024-01-25T15:00:49Z</time>
      </trkpt>
      <trkpt lat="48.6875" lon="-1.49604">
        <ele>7.5</ele>
        <time>2024-01-25T15:00:50Z</time>
      </trkpt>
      <trkpt lat="48.68751" lon="-1.49614">
        <ele>7.6</ele>
        <time>2024-01-25T15:00:51Z</time>
      </trkpt>
      <trkpt lat="48.68751" lon="-1.49623">
        <ele>7.6</ele>
        <time>2024-01-25T15:00:52Z</time>
      </trkpt>
      <trkpt lat="48.68753" lon="-1.49632">
        <ele>7.7</ele>
        <time>2024-01-25T15:00:53Z</time>
      </trkpt>
      <trkpt lat="48.68756" lon="-1.4964">
        <ele>7.7</ele>
        <time>2024-01-25T15:00:54Z</time>
      </trkpt>
      <trkpt lat="48.68761" lon="-1.49646">
        <ele>7.7</ele>
        <time>2024-01-25T15:00:55Z</time>
      </trkpt>
      <trkpt lat="48.68766" lon="-1.49652">
        <ele>7.6</ele>
        <time>2024-01-25T15:00:56Z</time>
      </trkpt>
      <trkpt lat="48.68771" lon="-1.49658">
        <ele>7.6</ele>
        <time>2024-01-25T15:00:57Z</time>
      </trkpt>
      <trkpt lat="48.68776" lon="-1.49663">
        <ele>7.6</ele>
        <time>2024-01-25T15:00:58Z</time>
      </trkpt>
      <trkpt lat="48.68782" lon="-1.49667">
        <ele>7.6</ele>
        <time>2024-01-25T15:00:59Z</time>
      </trkpt>
      <trkpt lat="48.68787" lon="-1.49671">
        <ele>7.6</ele>
        <time>2024-01-25T15:01:00Z</time>
      </trkpt>
      <trkpt lat="48.68792" lon="-1.49677">
        <ele>7.5</ele>
        <time>2024-01-25T15:01:01Z</time>
      </trkpt>
      <trkpt lat="48.68798" lon="-1.49682">
        <ele>7.5</ele>
        <time>2024-01-25T15:01:02Z</time>
      </trkpt>
      <trkpt lat="48.68803" lon="-1.49688">
        <ele>7.5</ele>
        <time>2024-01-25T15:01:03Z</time>
      </trkpt>
      <trkpt lat="48.68809" lon="-1.49693">
        <ele>7.5</ele>
        <time>2024-01-25T15:01:04Z</time>
      </trkpt>
      <trkpt lat="48.68816" lon="-1.49698">
        <ele>7.5</ele>
        <time>2024-01-25T15:01:05Z</time>
      </trkpt>
      <trkpt lat="48.68822" lon="-1.49703">
        <ele>7.4</ele>
        <time>2024-01-25T15:01:06Z</time>
      </trkpt>
      <trkpt lat="48.68828" lon="-1.49708">
        <ele>7.4</ele>
        <time>2024-01-25T15:01:07Z</time>
      </trkpt>
      <trkpt lat="48.68834" lon="-1.49712">
        <ele>7.4</ele>
        <time>2024-01-25T15:01:08Z</time>
      </trkpt>
      <trkpt lat="48.68839" lon="-1.49718">
        <ele>7.4</ele>
        <time>2024-01-25T15:01:09Z</time>
      </trkpt>
      <trkpt lat="48.68845" lon="-1.49724">
        <ele>7.4</ele>
        <time>2024-01-25T15:01:10Z</time>
      </trkpt>
      <trkpt lat="48.6885" lon="-1.49729">
        <ele>7.3</ele>
        <time>2024-01-25T15:01:11Z</time>
      </trkpt>
      <trkpt lat="48.68855" lon="-1.49735">
        <ele>7.3</ele>
        <time>2024-01-25T15:01:12Z</time>
      </trkpt>
      <trkpt lat="48.6886" lon="-1.4974">
        <ele>7.3</ele>
        <time>2024-01-25T15:01:13Z</time>
      </trkpt>
      <trkpt lat="48.68865" lon="-1.49745">
        <ele>7.3</ele>
        <time>2024-01-25T15:01:14Z</time>
      </trkpt>
      <trkpt lat="48.68871" lon="-1.4975">
        <ele>7.3</ele>
        <time>2024-01-25T15:01:15Z</time>
      </trkpt>
      <trkpt lat="48.68876" lon="-1.49755">
        <ele>7.3</ele>
        <time>2024-01-25T15:01:16Z</time>
      </trkpt>
      <trkpt lat="48.68882" lon="-1.49761">
        <ele>7.3</ele>
        <time>2024-01-25T15:01:17Z</time>
      </trkpt>
      <trkpt lat="48.68887" lon="-1.49766">
        <ele>7.3</ele>
        <time>2024-01-25T15:01:18Z</time>
      </trkpt>
      <trkpt lat="48.68893" lon="-1.49771">
        <ele>7.3</ele>
        <time>2024-01-25T15:01:19Z</time>
      </trkpt>
      <trkpt lat="48.68899" lon="-1.49775">
        <ele>7.4</ele>
        <time>2024-01-25T15:01:20Z</time>
      </trkpt>
      <trkpt lat="48.68904" lon="-1.4978">
        <ele>7.4</ele>
        <time>2024-01-25T15:01:21Z</time>
      </trkpt>
      <trkpt lat="48.6891" lon="-1.49784">
        <ele>7.4</ele>
        <time>2024-01-25T15:01:22Z</time>
      </trkpt>
      <trkpt lat="48.68916" lon="-1.49789">
        <ele>7.4</ele>
        <time>2024-01-25T15:01:23Z</time>
      </trkpt>
      <trkpt lat="48.68921" lon="-1.49795">
        <ele>7.4</ele>
        <time>2024-01-25T15:01:24Z</time>
      </trkpt>
      <trkpt lat="48.68927" lon="-1.498">
        <ele>7.4</ele>
        <time>2024-01-25T15:01:25Z</time>
      </trkpt>
      <trkpt lat="48.68932" lon="-1.49806">
        <ele>7.4</ele>
        <time>2024-01-25T15:01:26Z</time>
      </trkpt>
      <trkpt lat="48.68938" lon="-1.49811">
        <ele>7.3</ele>
        <time>2024-01-25T15:01:27Z</time>
      </trkpt>
      <trkpt lat="48.68944" lon="-1.49816">
        <ele>7.3</ele>
        <time>2024-01-25T15:01:28Z</time>
      </trkpt>
      <trkpt lat="48.6895" lon="-1.4982">
        <ele>7.3</ele>
        <time>2024-01-25T15:01:29Z</time>
      </trkpt>
      <trkpt lat="48.68955" lon="-1.49825">
        <ele>7.3</ele>
        <time>2024-01-25T15:01:30Z</time>
      </trkpt>
      <trkpt lat="48.68961" lon="-1.49829">
        <ele>7.3</ele>
        <time>2024-01-25T15:01:31Z</time>
      </trkpt>
      <trkpt lat="48.68966" lon="-1.49834">
        <ele>7.3</ele>
        <time>2024-01-25T15:01:32Z</time>
      </trkpt>
      <trkpt lat="48.68971" lon="-1.49838">
        <ele>7.3</ele>
        <time>2024-01-25T15:01:33Z</time>
      </trkpt>
      <trkpt lat="48.68975" lon="-1.49843">
        <ele>7.3</ele>
        <time>2024-01-25T15:01:34Z</time>
      </trkpt>
      <trkpt lat="48.6898" lon="-1.49847">
        <ele>7.3</ele>
        <time>2024-01-25T15:01:35Z</time>
      </trkpt>
      <trkpt lat="48.68985" lon="-1.49852">
        <ele>7.3</ele>
        <time>2024-01-25T15:01:36Z</time>
      </trkpt>
      <trkpt lat="48.6899" lon="-1.49857">
        <ele>7.3</ele>
        <time>2024-01-25T15:01:37Z</time>
      </trkpt>
      <trkpt lat="48.68995" lon="-1.49861">
        <ele>7.4</ele>
        <time>2024-01-25T15:01:38Z</time>
      </trkpt>
      <trkpt lat="48.69" lon="-1.49865">
        <ele>7.3</ele>
        <time>2024-01-25T15:01:39Z</time>
      </trkpt>
      <trkpt lat="48.69005" lon="-1.4987">
        <ele>7.3</ele>
        <time>2024-01-25T15:01:40Z</time>
      </trkpt>
      <trkpt lat="48.69009" lon="-1.49875">
        <ele>7.3</ele>
        <time>2024-01-25T15:01:41Z</time>
      </trkpt>
      <trkpt lat="48.69013" lon="-1.4988">
        <ele>7.3</ele>
        <time>2024-01-25T15:01:42Z</time>
      </trkpt>
      <trkpt lat="48.69017" lon="-1.49885">
        <ele>7.3</ele>
        <time>2024-01-25T15:01:43Z</time>
      </trkpt>
      <trkpt lat="48.69021" lon="-1.49891">
        <ele>7.3</ele>
        <time>2024-01-25T15:01:44Z</time>
      </trkpt>
      <trkpt lat="48.69025" lon="-1.49896">
        <ele>7.3</ele>
        <time>2024-01-25T15:01:45Z</time>
      </trkpt>
      <trkpt lat="48.6903" lon="-1.49901">
        <ele>7.3</ele>
        <time>2024-01-25T15:01:46Z</time>
      </trkpt>
      <trkpt lat="48.69035" lon="-1.49906">
        <ele>7.3</ele>
        <time>2024-01-25T15:01:47Z</time>
      </trkpt>
      <trkpt lat="48.69039" lon="-1.49912">
        <ele>7.3</ele>
        <time>2024-01-25T15:01:48Z</time>
      </trkpt>
      <trkpt lat="48.69044" lon="-1.49917">
        <ele>7.3</ele>
        <time>2024-01-25T15:01:49Z</time>
      </trkpt>
      <trkpt lat="48.69048" lon="-1.49923">
        <ele>7.4</ele>
        <time>2024-01-25T15:01:50Z</time>
      </trkpt>
      <trkpt lat="48.69052" lon="-1.49928">
        <ele>7.4</ele>
        <time>2024-01-25T15:01:51Z</time>
      </trkpt>
      <trkpt lat="48.69057" lon="-1.49934">
        <ele>7.4</ele>
        <time>2024-01-25T15:01:52Z</time>
      </trkpt>
      <trkpt lat="48.69062" lon="-1.4994">
        <ele>7.4</ele>
        <time>2024-01-25T15:01:53Z</time>
      </trkpt>
      <trkpt lat="48.69067" lon="-1.49946">
        <ele>7.5</ele>
        <time>2024-01-25T15:01:54Z</time>
      </trkpt>
      <trkpt lat="48.69072" lon="-1.49952">
        <ele>7.5</ele>
        <time>2024-01-25T15:01:55Z</time>
      </trkpt>
      <trkpt lat="48.69077" lon="-1.49957">
        <ele>7.5</ele>
        <time>2024-01-25T15:01:56Z</time>
      </trkpt>
      <trkpt lat="48.69082" lon="-1.49962">
        <ele>7.5</ele>
        <time>2024-01-25T15:01:57Z</time>
      </trkpt>
      <trkpt lat="48.69087" lon="-1.49968">
        <ele>7.5</ele>
        <time>2024-01-25T15:01:58Z</time>
      </trkpt>
      <trkpt lat="48.69092" lon="-1.49974">
        <ele>7.5</ele>
        <time>2024-01-25T15:01:59Z</time>
      </trkpt>
      <trkpt lat="48.69098" lon="-1.49979">
        <ele>7.5</ele>
        <time>2024-01-25T15:02:00Z</time>
      </trkpt>
      <trkpt lat="48.69104" lon="-1.49985">
        <ele>7.6</ele>
        <time>2024-01-25T15:02:01Z</time>
      </trkpt>
      <trkpt lat="48.69109" lon="-1.4999">
        <ele>7.6</ele>
        <time>2024-01-25T15:02:02Z</time>
      </trkpt>
      <trkpt lat="48.69115" lon="-1.49995">
        <ele>7.6</ele>
        <time>2024-01-25T15:02:03Z</time>
      </trkpt>
      <trkpt lat="48.6912" lon="-1.50001">
        <ele>7.6</ele>
        <time>2024-01-25T15:02:04Z</time>
      </trkpt>
      <trkpt lat="48.69126" lon="-1.50006">
        <ele>7.7</ele>
        <time>2024-01-25T15:02:05Z</time>
      </trkpt>
      <trkpt lat="48.69131" lon="-1.50011">
        <ele>7.7</ele>
        <time>2024-01-25T15:02:06Z</time>
      </trkpt>
      <trkpt lat="48.69136" lon="-1.50016">
        <ele>7.7</ele>
        <time>2024-01-25T15:02:07Z</time>
      </trkpt>
      <trkpt lat="48.69141" lon="-1.50022">
        <ele>7.7</ele>
        <time>2024-01-25T15:02:08Z</time>
      </trkpt>
      <trkpt lat="48.69146" lon="-1.50027">
        <ele>7.7</ele>
        <time>2024-01-25T15:02:09Z</time>
      </trkpt>
      <trkpt lat="48.6915" lon="-1.50033">
        <ele>7.7</ele>
        <time>2024-01-25T15:02:10Z</time>
      </trkpt>
      <trkpt lat="48.69155" lon="-1.50039">
        <ele>7.7</ele>
        <time>2024-01-25T15:02:11Z</time>
      </trkpt>
      <trkpt lat="48.69159" lon="-1.50045">
        <ele>7.7</ele>
        <time>2024-01-25T15:02:12Z</time>
      </trkpt>
      <trkpt lat="48.69163" lon="-1.50051">
        <ele>7.7</ele>
        <time>2024-01-25T15:02:13Z</time>
      </trkpt>
      <trkpt lat="48.69168" lon="-1.50057">
        <ele>7.7</ele>
        <time>2024-01-25T15:02:14Z</time>
      </trkpt>
      <trkpt lat="48.69173" lon="-1.50062">
        <ele>7.7</ele>
        <time>2024-01-25T15:02:15Z</time>
      </trkpt>
      <trkpt lat="48.69178" lon="-1.50068">
        <ele>7.7</ele>
        <time>2024-01-25T15:02:16Z</time>
      </trkpt>
      <trkpt lat="48.69183" lon="-1.50073">
        <ele>7.8</ele>
        <time>2024-01-25T15:02:17Z</time>
      </trkpt>
      <trkpt lat="48.69188" lon="-1.50078">
        <ele>7.8</ele>
        <time>2024-01-25T15:02:18Z</time>
      </trkpt>
      <trkpt lat="48.69192" lon="-1.50083">
        <ele>7.8</ele>
        <time>2024-01-25T15:02:19Z</time>
      </trkpt>
      <trkpt lat="48.69197" lon="-1.50088">
        <ele>7.9</ele>
        <time>2024-01-25T15:02:20Z</time>
      </trkpt>
      <trkpt lat="48.69202" lon="-1.50094">
        <ele>7.9</ele>
        <time>2024-01-25T15:02:21Z</time>
      </trkpt>
      <trkpt lat="48.69207" lon="-1.50101">
        <ele>7.9</ele>
        <time>2024-01-25T15:02:22Z</time>
      </trkpt>
      <trkpt lat="48.69212" lon="-1.50107">
        <ele>8</ele>
        <time>2024-01-25T15:02:23Z</time>
      </trkpt>
      <trkpt lat="48.69217" lon="-1.50113">
        <ele>8</ele>
        <time>2024-01-25T15:02:24Z</time>
      </trkpt>
      <trkpt lat="48.69222" lon="-1.50118">
        <ele>8</ele>
        <time>2024-01-25T15:02:25Z</time>
      </trkpt>
      <trkpt lat="48.69227" lon="-1.50123">
        <ele>8.1</ele>
        <time>2024-01-25T15:02:26Z</time>
      </trkpt>
      <trkpt lat="48.69232" lon="-1.50128">
        <ele>8.1</ele>
        <time>2024-01-25T15:02:27Z</time>
      </trkpt>
      <trkpt lat="48.69236" lon="-1.50133">
        <ele>8.1</ele>
        <time>2024-01-25T15:02:28Z</time>
      </trkpt>
      <trkpt lat="48.69241" lon="-1.50138">
        <ele>8.1</ele>
        <time>2024-01-25T15:02:29Z</time>
      </trkpt>
      <trkpt lat="48.69246" lon="-1.50144">
        <ele>8.1</ele>
        <time>2024-01-25T15:02:30Z</time>
      </trkpt>
      <trkpt lat="48.69252" lon="-1.50149">
        <ele>8.1</ele>
        <time>2024-01-25T15:02:31Z</time>
      </trkpt>
      <trkpt lat="48.69257" lon="-1.50154">
        <ele>8.1</ele>
        <time>2024-01-25T15:02:32Z</time>
      </trkpt>
      <trkpt lat="48.69262" lon="-1.50159">
        <ele>8.1</ele>
        <time>2024-01-25T15:02:33Z</time>
      </trkpt>
      <trkpt lat="48.69267" lon="-1.50165">
        <ele>8.1</ele>
        <time>2024-01-25T15:02:34Z</time>
      </trkpt>
      <trkpt lat="48.69273" lon="-1.50171">
        <ele>8.1</ele>
        <time>2024-01-25T15:02:35Z</time>
      </trkpt>
      <trkpt lat="48.69278" lon="-1.50177">
        <ele>8.1</ele>
        <time>2024-01-25T15:02:36Z</time>
      </trkpt>
      <trkpt lat="48.69283" lon="-1.50183">
        <ele>8.2</ele>
        <time>2024-01-25T15:02:37Z</time>
      </trkpt>
      <trkpt lat="48.69287" lon="-1.5019">
        <ele>8.2</ele>
        <time>2024-01-25T15:02:38Z</time>
      </trkpt>
      <trkpt lat="48.69292" lon="-1.50196">
        <ele>8.2</ele>
        <time>2024-01-25T15:02:39Z</time>
      </trkpt>
      <trkpt lat="48.69296" lon="-1.50202">
        <ele>8.2</ele>
        <time>2024-01-25T15:02:40Z</time>
      </trkpt>
      <trkpt lat="48.693" lon="-1.50209">
        <ele>8.1</ele>
        <time>2024-01-25T15:02:41Z</time>
      </trkpt>
      <trkpt lat="48.69303" lon="-1.50215">
        <ele>8.1</ele>
        <time>2024-01-25T15:02:42Z</time>
      </trkpt>
      <trkpt lat="48.69307" lon="-1.50222">
        <ele>8.1</ele>
        <time>2024-01-25T15:02:43Z</time>
      </trkpt>
      <trkpt lat="48.69312" lon="-1.50229">
        <ele>8</ele>
        <time>2024-01-25T15:02:44Z</time>
      </trkpt>
      <trkpt lat="48.69317" lon="-1.50237">
        <ele>7.9</ele>
        <time>2024-01-25T15:02:45Z</time>
      </trkpt>
      <trkpt lat="48.69322" lon="-1.50243">
        <ele>7.9</ele>
        <time>2024-01-25T15:02:46Z</time>
      </trkpt>
      <trkpt lat="48.69327" lon="-1.50251">
        <ele>7.8</ele>
        <time>2024-01-25T15:02:47Z</time>
      </trkpt>
      <trkpt lat="48.69332" lon="-1.50258">
        <ele>7.8</ele>
        <time>2024-01-25T15:02:48Z</time>
      </trkpt>
      <trkpt lat="48.69337" lon="-1.50265">
        <ele>7.7</ele>
        <time>2024-01-25T15:02:49Z</time>
      </trkpt>
      <trkpt lat="48.69342" lon="-1.50273">
        <ele>7.7</ele>
        <time>2024-01-25T15:02:50Z</time>
      </trkpt>
      <trkpt lat="48.69347" lon="-1.5028">
        <ele>7.7</ele>
        <time>2024-01-25T15:02:51Z</time>
      </trkpt>
      <trkpt lat="48.69352" lon="-1.50287">
        <ele>7.7</ele>
        <time>2024-01-25T15:02:52Z</time>
      </trkpt>
      <trkpt lat="48.69358" lon="-1.50293">
        <ele>7.7</ele>
        <time>2024-01-25T15:02:53Z</time>
      </trkpt>
      <trkpt lat="48.69363" lon="-1.503">
        <ele>7.6</ele>
        <time>2024-01-25T15:02:54Z</time>
      </trkpt>
      <trkpt lat="48.69369" lon="-1.50306">
        <ele>7.6</ele>
        <time>2024-01-25T15:02:55Z</time>
      </trkpt>
      <trkpt lat="48.69374" lon="-1.50312">
        <ele>7.6</ele>
        <time>2024-01-25T15:02:56Z</time>
      </trkpt>
      <trkpt lat="48.69379" lon="-1.50318">
        <ele>7.6</ele>
        <time>2024-01-25T15:02:57Z</time>
      </trkpt>
      <trkpt lat="48.69385" lon="-1.50323">
        <ele>7.5</ele>
        <time>2024-01-25T15:02:58Z</time>
      </trkpt>
      <trkpt lat="48.69391" lon="-1.50328">
        <ele>7.5</ele>
        <time>2024-01-25T15:02:59Z</time>
      </trkpt>
      <trkpt lat="48.69397" lon="-1.50333">
        <ele>7.5</ele>
        <time>2024-01-25T15:03:00Z</time>
      </trkpt>
      <trkpt lat="48.69403" lon="-1.50338">
        <ele>7.5</ele>
        <time>2024-01-25T15:03:01Z</time>
      </trkpt>
      <trkpt lat="48.69409" lon="-1.50343">
        <ele>7.5</ele>
        <time>2024-01-25T15:03:02Z</time>
      </trkpt>
      <trkpt lat="48.69415" lon="-1.50347">
        <ele>7.5</ele>
        <time>2024-01-25T15:03:03Z</time>
      </trkpt>
      <trkpt lat="48.69421" lon="-1.5035">
        <ele>7.5</ele>
        <time>2024-01-25T15:03:04Z</time>
      </trkpt>
      <trkpt lat="48.69426" lon="-1.50354">
        <ele>7.5</ele>
        <time>2024-01-25T15:03:05Z</time>
      </trkpt>
      <trkpt lat="48.69432" lon="-1.50357">
        <ele>7.5</ele>
        <time>2024-01-25T15:03:06Z</time>
      </trkpt>
      <trkpt lat="48.69438" lon="-1.5036">
        <ele>7.5</ele>
        <time>2024-01-25T15:03:07Z</time>
      </trkpt>
      <trkpt lat="48.69443" lon="-1.50363">
        <ele>7.5</ele>
        <time>2024-01-25T15:03:08Z</time>
      </trkpt>
      <trkpt lat="48.69449" lon="-1.50366">
        <ele>7.5</ele>
        <time>2024-01-25T15:03:09Z</time>
      </trkpt>
      <trkpt lat="48.69456" lon="-1.50369">
        <ele>7.5</ele>
        <time>2024-01-25T15:03:10Z</time>
      </trkpt>
      <trkpt lat="48.69462" lon="-1.50372">
        <ele>7.5</ele>
        <time>2024-01-25T15:03:11Z</time>
      </trkpt>
      <trkpt lat="48.69468" lon="-1.50374">
        <ele>7.5</ele>
        <time>2024-01-25T15:03:12Z</time>
      </trkpt>
      <trkpt lat="48.69474" lon="-1.50377">
        <ele>7.5</ele>
        <time>2024-01-25T15:03:13Z</time>
      </trkpt>
      <trkpt lat="48.6948" lon="-1.5038">
        <ele>7.5</ele>
        <time>2024-01-25T15:03:14Z</time>
      </trkpt>
      <trkpt lat="48.69486" lon="-1.50383">
        <ele>7.5</ele>
        <time>2024-01-25T15:03:15Z</time>
      </trkpt>
      <trkpt lat="48.69492" lon="-1.50387">
        <ele>7.5</ele>
        <time>2024-01-25T15:03:16Z</time>
      </trkpt>
      <trkpt lat="48.69498" lon="-1.5039">
        <ele>7.5</ele>
        <time>2024-01-25T15:03:17Z</time>
      </trkpt>
      <trkpt lat="48.69504" lon="-1.50393">
        <ele>7.5</ele>
        <time>2024-01-25T15:03:18Z</time>
      </trkpt>
      <trkpt lat="48.6951" lon="-1.50396">
        <ele>7.5</ele>
        <time>2024-01-25T15:03:19Z</time>
      </trkpt>
      <trkpt lat="48.69515" lon="-1.50399">
        <ele>7.6</ele>
        <time>2024-01-25T15:03:20Z</time>
      </trkpt>
      <trkpt lat="48.69521" lon="-1.50403">
        <ele>7.6</ele>
        <time>2024-01-25T15:03:21Z</time>
      </trkpt>
      <trkpt lat="48.69527" lon="-1.50406">
        <ele>7.6</ele>
        <time>2024-01-25T15:03:22Z</time>
      </trkpt>
      <trkpt lat="48.69533" lon="-1.50409">
        <ele>7.6</ele>
        <time>2024-01-25T15:03:23Z</time>
      </trkpt>
      <trkpt lat="48.69539" lon="-1.50412">
        <ele>7.6</ele>
        <time>2024-01-25T15:03:24Z</time>
      </trkpt>
      <trkpt lat="48.69545" lon="-1.50415">
        <ele>7.6</ele>
        <time>2024-01-25T15:03:25Z</time>
      </trkpt>
      <trkpt lat="48.69551" lon="-1.50416">
        <ele>7.6</ele>
        <time>2024-01-25T15:03:26Z</time>
      </trkpt>
      <trkpt lat="48.69558" lon="-1.50419">
        <ele>7.6</ele>
        <time>2024-01-25T15:03:27Z</time>
      </trkpt>
      <trkpt lat="48.69564" lon="-1.50423">
        <ele>7.6</ele>
        <time>2024-01-25T15:03:28Z</time>
      </trkpt>
      <trkpt lat="48.69571" lon="-1.50425">
        <ele>7.6</ele>
        <time>2024-01-25T15:03:29Z</time>
      </trkpt>
      <trkpt lat="48.69577" lon="-1.50428">
        <ele>7.6</ele>
        <time>2024-01-25T15:03:30Z</time>
      </trkpt>
      <trkpt lat="48.69583" lon="-1.50432">
        <ele>7.6</ele>
        <time>2024-01-25T15:03:31Z</time>
      </trkpt>
      <trkpt lat="48.69589" lon="-1.50436">
        <ele>7.6</ele>
        <time>2024-01-25T15:03:32Z</time>
      </trkpt>
      <trkpt lat="48.69595" lon="-1.5044">
        <ele>7.6</ele>
        <time>2024-01-25T15:03:33Z</time>
      </trkpt>
      <trkpt lat="48.69601" lon="-1.50443">
        <ele>7.6</ele>
        <time>2024-01-25T15:03:34Z</time>
      </trkpt>
      <trkpt lat="48.69607" lon="-1.50447">
        <ele>7.6</ele>
        <time>2024-01-25T15:03:35Z</time>
      </trkpt>
      <trkpt lat="48.69613" lon="-1.5045">
        <ele>7.6</ele>
        <time>2024-01-25T15:03:36Z</time>
      </trkpt>
      <trkpt lat="48.69619" lon="-1.50453">
        <ele>7.6</ele>
        <time>2024-01-25T15:03:37Z</time>
      </trkpt>
      <trkpt lat="48.69625" lon="-1.50455">
        <ele>7.7</ele>
        <time>2024-01-25T15:03:38Z</time>
      </trkpt>
      <trkpt lat="48.69632" lon="-1.50458">
        <ele>7.7</ele>
        <time>2024-01-25T15:03:39Z</time>
      </trkpt>
      <trkpt lat="48.69637" lon="-1.50462">
        <ele>7.7</ele>
        <time>2024-01-25T15:03:40Z</time>
      </trkpt>
      <trkpt lat="48.69643" lon="-1.50465">
        <ele>7.8</ele>
        <time>2024-01-25T15:03:41Z</time>
      </trkpt>
      <trkpt lat="48.69648" lon="-1.50467">
        <ele>7.8</ele>
        <time>2024-01-25T15:03:42Z</time>
      </trkpt>
      <trkpt lat="48.69653" lon="-1.5047">
        <ele>7.9</ele>
        <time>2024-01-25T15:03:43Z</time>
      </trkpt>
      <trkpt lat="48.69659" lon="-1.50473">
        <ele>7.9</ele>
        <time>2024-01-25T15:03:44Z</time>
      </trkpt>
      <trkpt lat="48.69665" lon="-1.50476">
        <ele>7.9</ele>
        <time>2024-01-25T15:03:45Z</time>
      </trkpt>
      <trkpt lat="48.69671" lon="-1.50479">
        <ele>7.9</ele>
        <time>2024-01-25T15:03:46Z</time>
      </trkpt>
      <trkpt lat="48.69678" lon="-1.50482">
        <ele>7.9</ele>
        <time>2024-01-25T15:03:47Z</time>
      </trkpt>
      <trkpt lat="48.69683" lon="-1.50486">
        <ele>7.8</ele>
        <time>2024-01-25T15:03:48Z</time>
      </trkpt>
      <trkpt lat="48.69689" lon="-1.50489">
        <ele>7.8</ele>
        <time>2024-01-25T15:03:49Z</time>
      </trkpt>
      <trkpt lat="48.69695" lon="-1.50493">
        <ele>7.8</ele>
        <time>2024-01-25T15:03:50Z</time>
      </trkpt>
      <trkpt lat="48.697" lon="-1.50497">
        <ele>7.8</ele>
        <time>2024-01-25T15:03:51Z</time>
      </trkpt>
      <trkpt lat="48.69706" lon="-1.50501">
        <ele>7.8</ele>
        <time>2024-01-25T15:03:52Z</time>
      </trkpt>
      <trkpt lat="48.69713" lon="-1.50505">
        <ele>7.8</ele>
        <time>2024-01-25T15:03:53Z</time>
      </trkpt>
      <trkpt lat="48.6972" lon="-1.50509">
        <ele>7.8</ele>
        <time>2024-01-25T15:03:54Z</time>
      </trkpt>
      <trkpt lat="48.69728" lon="-1.50512">
        <ele>7.8</ele>
        <time>2024-01-25T15:03:55Z</time>
      </trkpt>
      <trkpt lat="48.69735" lon="-1.50515">
        <ele>7.8</ele>
        <time>2024-01-25T15:03:56Z</time>
      </trkpt>
      <trkpt lat="48.69743" lon="-1.50517">
        <ele>7.8</ele>
        <time>2024-01-25T15:03:57Z</time>
      </trkpt>
      <trkpt lat="48.6975" lon="-1.5052">
        <ele>7.8</ele>
        <time>2024-01-25T15:03:58Z</time>
      </trkpt>
      <trkpt lat="48.69757" lon="-1.50522">
        <ele>7.9</ele>
        <time>2024-01-25T15:03:59Z</time>
      </trkpt>
      <trkpt lat="48.69765" lon="-1.50525">
        <ele>7.9</ele>
        <time>2024-01-25T15:04:00Z</time>
      </trkpt>
      <trkpt lat="48.69772" lon="-1.50528">
        <ele>7.9</ele>
        <time>2024-01-25T15:04:01Z</time>
      </trkpt>
      <trkpt lat="48.69779" lon="-1.50532">
        <ele>7.9</ele>
        <time>2024-01-25T15:04:02Z</time>
      </trkpt>
      <trkpt lat="48.69787" lon="-1.50535">
        <ele>7.9</ele>
        <time>2024-01-25T15:04:03Z</time>
      </trkpt>
      <trkpt lat="48.69794" lon="-1.50538">
        <ele>7.9</ele>
        <time>2024-01-25T15:04:04Z</time>
      </trkpt>
      <trkpt lat="48.69802" lon="-1.50541">
        <ele>7.9</ele>
        <time>2024-01-25T15:04:05Z</time>
      </trkpt>
      <trkpt lat="48.6981" lon="-1.50543">
        <ele>7.9</ele>
        <time>2024-01-25T15:04:06Z</time>
      </trkpt>
      <trkpt lat="48.69817" lon="-1.50546">
        <ele>7.9</ele>
        <time>2024-01-25T15:04:07Z</time>
      </trkpt>
      <trkpt lat="48.69824" lon="-1.50549">
        <ele>7.8</ele>
        <time>2024-01-25T15:04:08Z</time>
      </trkpt>
      <trkpt lat="48.6983" lon="-1.50553">
        <ele>7.8</ele>
        <time>2024-01-25T15:04:09Z</time>
      </trkpt>
      <trkpt lat="48.69837" lon="-1.50557">
        <ele>7.8</ele>
        <time>2024-01-25T15:04:10Z</time>
      </trkpt>
      <trkpt lat="48.69844" lon="-1.50562">
        <ele>7.8</ele>
        <time>2024-01-25T15:04:11Z</time>
      </trkpt>
      <trkpt lat="48.69851" lon="-1.50565">
        <ele>7.8</ele>
        <time>2024-01-25T15:04:12Z</time>
      </trkpt>
      <trkpt lat="48.69857" lon="-1.50568">
        <ele>7.9</ele>
        <time>2024-01-25T15:04:13Z</time>
      </trkpt>
      <trkpt lat="48.69864" lon="-1.50572">
        <ele>7.9</ele>
        <time>2024-01-25T15:04:14Z</time>
      </trkpt>
      <trkpt lat="48.69871" lon="-1.50575">
        <ele>7.9</ele>
        <time>2024-01-25T15:04:15Z</time>
      </trkpt>
      <trkpt lat="48.69878" lon="-1.50579">
        <ele>7.9</ele>
        <time>2024-01-25T15:04:16Z</time>
      </trkpt>
      <trkpt lat="48.69884" lon="-1.50583">
        <ele>8</ele>
        <time>2024-01-25T15:04:17Z</time>
      </trkpt>
      <trkpt lat="48.69891" lon="-1.50588">
        <ele>8</ele>
        <time>2024-01-25T15:04:18Z</time>
      </trkpt>
      <trkpt lat="48.69897" lon="-1.50593">
        <ele>8</ele>
        <time>2024-01-25T15:04:19Z</time>
      </trkpt>
      <trkpt lat="48.69904" lon="-1.50599">
        <ele>8</ele>
        <time>2024-01-25T15:04:20Z</time>
      </trkpt>
      <trkpt lat="48.6991" lon="-1.50604">
        <ele>8</ele>
        <time>2024-01-25T15:04:21Z</time>
      </trkpt>
      <trkpt lat="48.69916" lon="-1.50609">
        <ele>8.1</ele>
        <time>2024-01-25T15:04:22Z</time>
      </trkpt>
      <trkpt lat="48.69923" lon="-1.50613">
        <ele>8.1</ele>
        <time>2024-01-25T15:04:23Z</time>
      </trkpt>
      <trkpt lat="48.6993" lon="-1.50617">
        <ele>8.1</ele>
        <time>2024-01-25T15:04:24Z</time>
      </trkpt>
      <trkpt lat="48.69936" lon="-1.50622">
        <ele>8.2</ele>
        <time>2024-01-25T15:04:25Z</time>
      </trkpt>
      <trkpt lat="48.69942" lon="-1.50626">
        <ele>8.2</ele>
        <time>2024-01-25T15:04:26Z</time>
      </trkpt>
      <trkpt lat="48.69949" lon="-1.5063">
        <ele>8.3</ele>
        <time>2024-01-25T15:04:27Z</time>
      </trkpt>
      <trkpt lat="48.69954" lon="-1.50634">
        <ele>8.3</ele>
        <time>2024-01-25T15:04:28Z</time>
      </trkpt>
      <trkpt lat="48.6996" lon="-1.50639">
        <ele>8.4</ele>
        <time>2024-01-25T15:04:29Z</time>
      </trkpt>
      <trkpt lat="48.69965" lon="-1.50643">
        <ele>8.5</ele>
        <time>2024-01-25T15:04:30Z</time>
      </trkpt>
      <trkpt lat="48.6997" lon="-1.50647">
        <ele>8.5</ele>
        <time>2024-01-25T15:04:31Z</time>
      </trkpt>
      <trkpt lat="48.69975" lon="-1.50651">
        <ele>8.6</ele>
        <time>2024-01-25T15:04:32Z</time>
      </trkpt>
      <trkpt lat="48.6998" lon="-1.50655">
        <ele>8.6</ele>
        <time>2024-01-25T15:04:33Z</time>
      </trkpt>
      <trkpt lat="48.69985" lon="-1.50659">
        <ele>8.7</ele>
        <time>2024-01-25T15:04:34Z</time>
      </trkpt>
      <trkpt lat="48.6999" lon="-1.50664">
        <ele>8.7</ele>
        <time>2024-01-25T15:04:35Z</time>
      </trkpt>
      <trkpt lat="48.69996" lon="-1.50668">
        <ele>8.7</ele>
        <time>2024-01-25T15:04:36Z</time>
      </trkpt>
      <trkpt lat="48.7" lon="-1.50673">
        <ele>8.8</ele>
        <time>2024-01-25T15:04:37Z</time>
      </trkpt>
      <trkpt lat="48.70005" lon="-1.50679">
        <ele>8.8</ele>
        <time>2024-01-25T15:04:38Z</time>
      </trkpt>
      <trkpt lat="48.70009" lon="-1.50684">
        <ele>8.8</ele>
        <time>2024-01-25T15:04:39Z</time>
      </trkpt>
      <trkpt lat="48.70013" lon="-1.50688">
        <ele>8.8</ele>
        <time>2024-01-25T15:04:40Z</time>
      </trkpt>
      <trkpt lat="48.70018" lon="-1.50693">
        <ele>8.8</ele>
        <time>2024-01-25T15:04:41Z</time>
      </trkpt>
      <trkpt lat="48.70023" lon="-1.50696">
        <ele>8.8</ele>
        <time>2024-01-25T15:04:42Z</time>
      </trkpt>
      <trkpt lat="48.70028" lon="-1.507">
        <ele>8.7</ele>
        <time>2024-01-25T15:04:43Z</time>
      </trkpt>
      <trkpt lat="48.70032" lon="-1.50705">
        <ele>8.7</ele>
        <time>2024-01-25T15:04:44Z</time>
      </trkpt>
      <trkpt lat="48.70037" lon="-1.50709">
        <ele>8.7</ele>
        <time>2024-01-25T15:04:45Z</time>
      </trkpt>
      <trkpt lat="48.70041" lon="-1.50713">
        <ele>8.7</ele>
        <time>2024-01-25T15:04:46Z</time>
      </trkpt>
      <trkpt lat="48.70046" lon="-1.50716">
        <ele>8.6</ele>
        <time>2024-01-25T15:04:47Z</time>
      </trkpt>
      <trkpt lat="48.70052" lon="-1.50718">
        <ele>8.6</ele>
        <time>2024-01-25T15:04:48Z</time>
      </trkpt>
      <trkpt lat="48.70058" lon="-1.50722">
        <ele>8.6</ele>
        <time>2024-01-25T15:04:49Z</time>
      </trkpt>
      <trkpt lat="48.70064" lon="-1.50726">
        <ele>8.5</ele>
        <time>2024-01-25T15:04:50Z</time>
      </trkpt>
      <trkpt lat="48.70071" lon="-1.5073">
        <ele>8.4</ele>
        <time>2024-01-25T15:04:51Z</time>
      </trkpt>
      <trkpt lat="48.70077" lon="-1.50734">
        <ele>8.3</ele>
        <time>2024-01-25T15:04:52Z</time>
      </trkpt>
      <trkpt lat="48.70083" lon="-1.50738">
        <ele>8.2</ele>
        <time>2024-01-25T15:04:53Z</time>
      </trkpt>
      <trkpt lat="48.70089" lon="-1.50743">
        <ele>8.1</ele>
        <time>2024-01-25T15:04:54Z</time>
      </trkpt>
      <trkpt lat="48.70095" lon="-1.50748">
        <ele>8.1</ele>
        <time>2024-01-25T15:04:55Z</time>
      </trkpt>
      <trkpt lat="48.70101" lon="-1.50753">
        <ele>8</ele>
        <time>2024-01-25T15:04:56Z</time>
      </trkpt>
      <trkpt lat="48.70107" lon="-1.50757">
        <ele>8</ele>
        <time>2024-01-25T15:04:57Z</time>
      </trkpt>
      <trkpt lat="48.70113" lon="-1.50761">
        <ele>8</ele>
        <time>2024-01-25T15:04:58Z</time>
      </trkpt>
      <trkpt lat="48.7012" lon="-1.50765">
        <ele>8</ele>
        <time>2024-01-25T15:04:59Z</time>
      </trkpt>
      <trkpt lat="48.70126" lon="-1.50769">
        <ele>7.9</ele>
        <time>2024-01-25T15:05:00Z</time>
      </trkpt>
      <trkpt lat="48.70132" lon="-1.50774">
        <ele>7.9</ele>
        <time>2024-01-25T15:05:01Z</time>
      </trkpt>
      <trkpt lat="48.70137" lon="-1.50778">
        <ele>7.9</ele>
        <time>2024-01-25T15:05:02Z</time>
      </trkpt>
      <trkpt lat="48.70143" lon="-1.50781">
        <ele>7.9</ele>
        <time>2024-01-25T15:05:03Z</time>
      </trkpt>
      <trkpt lat="48.70148" lon="-1.50784">
        <ele>7.9</ele>
        <time>2024-01-25T15:05:04Z</time>
      </trkpt>
      <trkpt lat="48.70155" lon="-1.50786">
        <ele>7.9</ele>
        <time>2024-01-25T15:05:05Z</time>
      </trkpt>
      <trkpt lat="48.70161" lon="-1.50788">
        <ele>7.9</ele>
        <time>2024-01-25T15:05:06Z</time>
      </trkpt>
      <trkpt lat="48.70166" lon="-1.50789">
        <ele>7.9</ele>
        <time>2024-01-25T15:05:07Z</time>
      </trkpt>
      <trkpt lat="48.70171" lon="-1.5079">
        <ele>7.8</ele>
        <time>2024-01-25T15:05:08Z</time>
      </trkpt>
      <trkpt lat="48.70176" lon="-1.50792">
        <ele>7.8</ele>
        <time>2024-01-25T15:05:09Z</time>
      </trkpt>
      <trkpt lat="48.70181" lon="-1.50794">
        <ele>7.8</ele>
        <time>2024-01-25T15:05:10Z</time>
      </trkpt>
      <trkpt lat="48.70188" lon="-1.50795">
        <ele>7.7</ele>
        <time>2024-01-25T15:05:11Z</time>
      </trkpt>
      <trkpt lat="48.70195" lon="-1.50796">
        <ele>7.7</ele>
        <time>2024-01-25T15:05:12Z</time>
      </trkpt>
      <trkpt lat="48.70202" lon="-1.50798">
        <ele>7.7</ele>
        <time>2024-01-25T15:05:13Z</time>
      </trkpt>
      <trkpt lat="48.70208" lon="-1.508">
        <ele>7.7</ele>
        <time>2024-01-25T15:05:14Z</time>
      </trkpt>
      <trkpt lat="48.70214" lon="-1.50801">
        <ele>7.7</ele>
        <time>2024-01-25T15:05:15Z</time>
      </trkpt>
      <trkpt lat="48.7022" lon="-1.50803">
        <ele>7.7</ele>
        <time>2024-01-25T15:05:16Z</time>
      </trkpt>
      <trkpt lat="48.70225" lon="-1.50805">
        <ele>7.7</ele>
        <time>2024-01-25T15:05:17Z</time>
      </trkpt>
      <trkpt lat="48.7023" lon="-1.50808">
        <ele>7.7</ele>
        <time>2024-01-25T15:05:18Z</time>
      </trkpt>
      <trkpt lat="48.70236" lon="-1.5081">
        <ele>7.7</ele>
        <time>2024-01-25T15:05:19Z</time>
      </trkpt>
      <trkpt lat="48.70242" lon="-1.50811">
        <ele>7.7</ele>
        <time>2024-01-25T15:05:20Z</time>
      </trkpt>
      <trkpt lat="48.70248" lon="-1.50812">
        <ele>7.7</ele>
        <time>2024-01-25T15:05:21Z</time>
      </trkpt>
      <trkpt lat="48.70254" lon="-1.50814">
        <ele>7.7</ele>
        <time>2024-01-25T15:05:22Z</time>
      </trkpt>
      <trkpt lat="48.70261" lon="-1.50815">
        <ele>7.7</ele>
        <time>2024-01-25T15:05:23Z</time>
      </trkpt>
      <trkpt lat="48.70266" lon="-1.50817">
        <ele>7.7</ele>
        <time>2024-01-25T15:05:24Z</time>
      </trkpt>
      <trkpt lat="48.70272" lon="-1.50819">
        <ele>7.7</ele>
        <time>2024-01-25T15:05:25Z</time>
      </trkpt>
      <trkpt lat="48.70277" lon="-1.5082">
        <ele>7.7</ele>
        <time>2024-01-25T15:05:26Z</time>
      </trkpt>
      <trkpt lat="48.70284" lon="-1.50821">
        <ele>7.7</ele>
        <time>2024-01-25T15:05:27Z</time>
      </trkpt>
      <trkpt lat="48.70291" lon="-1.50822">
        <ele>7.7</ele>
        <time>2024-01-25T15:05:28Z</time>
      </trkpt>
      <trkpt lat="48.703" lon="-1.50822">
        <ele>7.7</ele>
        <time>2024-01-25T15:05:29Z</time>
      </trkpt>
      <trkpt lat="48.70308" lon="-1.50822">
        <ele>7.7</ele>
        <time>2024-01-25T15:05:30Z</time>
      </trkpt>
      <trkpt lat="48.70316" lon="-1.50822">
        <ele>7.7</ele>
        <time>2024-01-25T15:05:31Z</time>
      </trkpt>
      <trkpt lat="48.70324" lon="-1.50822">
        <ele>7.7</ele>
        <time>2024-01-25T15:05:32Z</time>
      </trkpt>
      <trkpt lat="48.70331" lon="-1.50821">
        <ele>7.7</ele>
        <time>2024-01-25T15:05:33Z</time>
      </trkpt>
      <trkpt lat="48.70339" lon="-1.50821">
        <ele>7.7</ele>
        <time>2024-01-25T15:05:34Z</time>
      </trkpt>
      <trkpt lat="48.70347" lon="-1.50821">
        <ele>7.7</ele>
        <time>2024-01-25T15:05:35Z</time>
      </trkpt>
      <trkpt lat="48.70354" lon="-1.5082">
        <ele>7.8</ele>
        <time>2024-01-25T15:05:36Z</time>
      </trkpt>
      <trkpt lat="48.70362" lon="-1.5082">
        <ele>7.8</ele>
        <time>2024-01-25T15:05:37Z</time>
      </trkpt>
      <trkpt lat="48.70369" lon="-1.50821">
        <ele>7.9</ele>
        <time>2024-01-25T15:05:38Z</time>
      </trkpt>
      <trkpt lat="48.70375" lon="-1.50822">
        <ele>7.9</ele>
        <time>2024-01-25T15:05:39Z</time>
      </trkpt>
      <trkpt lat="48.70382" lon="-1.50822">
        <ele>7.9</ele>
        <time>2024-01-25T15:05:40Z</time>
      </trkpt>
      <trkpt lat="48.70389" lon="-1.50822">
        <ele>8</ele>
        <time>2024-01-25T15:05:41Z</time>
      </trkpt>
      <trkpt lat="48.70397" lon="-1.50823">
        <ele>8</ele>
        <time>2024-01-25T15:05:42Z</time>
      </trkpt>
      <trkpt lat="48.70404" lon="-1.50823">
        <ele>8</ele>
        <time>2024-01-25T15:05:43Z</time>
      </trkpt>
      <trkpt lat="48.70411" lon="-1.50824">
        <ele>8</ele>
        <time>2024-01-25T15:05:44Z</time>
      </trkpt>
      <trkpt lat="48.70417" lon="-1.50825">
        <ele>8.1</ele>
        <time>2024-01-25T15:05:45Z</time>
      </trkpt>
      <trkpt lat="48.70424" lon="-1.50826">
        <ele>8.1</ele>
        <time>2024-01-25T15:05:46Z</time>
      </trkpt>
      <trkpt lat="48.70431" lon="-1.50827">
        <ele>8.1</ele>
        <time>2024-01-25T15:05:47Z</time>
      </trkpt>
      <trkpt lat="48.70438" lon="-1.50827">
        <ele>8.1</ele>
        <time>2024-01-25T15:05:48Z</time>
      </trkpt>
      <trkpt lat="48.70444" lon="-1.50828">
        <ele>8.1</ele>
        <time>2024-01-25T15:05:49Z</time>
      </trkpt>
      <trkpt lat="48.70451" lon="-1.50829">
        <ele>8.1</ele>
        <time>2024-01-25T15:05:50Z</time>
      </trkpt>
      <trkpt lat="48.70457" lon="-1.50831">
        <ele>8.1</ele>
        <time>2024-01-25T15:05:51Z</time>
      </trkpt>
      <trkpt lat="48.70464" lon="-1.50832">
        <ele>8.1</ele>
        <time>2024-01-25T15:05:52Z</time>
      </trkpt>
      <trkpt lat="48.7047" lon="-1.50834">
        <ele>8.1</ele>
        <time>2024-01-25T15:05:53Z</time>
      </trkpt>
      <trkpt lat="48.70477" lon="-1.50835">
        <ele>8.2</ele>
        <time>2024-01-25T15:05:54Z</time>
      </trkpt>
      <trkpt lat="48.70483" lon="-1.50836">
        <ele>8.2</ele>
        <time>2024-01-25T15:05:55Z</time>
      </trkpt>
      <trkpt lat="48.7049" lon="-1.50836">
        <ele>8.2</ele>
        <time>2024-01-25T15:05:56Z</time>
      </trkpt>
      <trkpt lat="48.70496" lon="-1.50837">
        <ele>8.2</ele>
        <time>2024-01-25T15:05:57Z</time>
      </trkpt>
      <trkpt lat="48.70502" lon="-1.50838">
        <ele>8.2</ele>
        <time>2024-01-25T15:05:58Z</time>
      </trkpt>
      <trkpt lat="48.70509" lon="-1.50839">
        <ele>8.2</ele>
        <time>2024-01-25T15:05:59Z</time>
      </trkpt>
      <trkpt lat="48.70515" lon="-1.5084">
        <ele>8.2</ele>
        <time>2024-01-25T15:06:00Z</time>
      </trkpt>
      <trkpt lat="48.70521" lon="-1.50841">
        <ele>8.2</ele>
        <time>2024-01-25T15:06:01Z</time>
      </trkpt>
      <trkpt lat="48.70527" lon="-1.50841">
        <ele>8.3</ele>
        <time>2024-01-25T15:06:02Z</time>
      </trkpt>
      <trkpt lat="48.70534" lon="-1.5084">
        <ele>8.3</ele>
        <time>2024-01-25T15:06:03Z</time>
      </trkpt>
      <trkpt lat="48.70541" lon="-1.5084">
        <ele>8.3</ele>
        <time>2024-01-25T15:06:04Z</time>
      </trkpt>
      <trkpt lat="48.70548" lon="-1.5084">
        <ele>8.3</ele>
        <time>2024-01-25T15:06:05Z</time>
      </trkpt>
      <trkpt lat="48.70554" lon="-1.5084">
        <ele>8.3</ele>
        <time>2024-01-25T15:06:06Z</time>
      </trkpt>
      <trkpt lat="48.70561" lon="-1.50841">
        <ele>8.3</ele>
        <time>2024-01-25T15:06:07Z</time>
      </trkpt>
      <trkpt lat="48.70568" lon="-1.50841">
        <ele>8.3</ele>
        <time>2024-01-25T15:06:08Z</time>
      </trkpt>
      <trkpt lat="48.70575" lon="-1.50841">
        <ele>8.3</ele>
        <time>2024-01-25T15:06:09Z</time>
      </trkpt>
      <trkpt lat="48.70582" lon="-1.5084">
        <ele>8.3</ele>
        <time>2024-01-25T15:06:10Z</time>
      </trkpt>
      <trkpt lat="48.70589" lon="-1.5084">
        <ele>8.3</ele>
        <time>2024-01-25T15:06:11Z</time>
      </trkpt>
      <trkpt lat="48.70596" lon="-1.50839">
        <ele>8.4</ele>
        <time>2024-01-25T15:06:12Z</time>
      </trkpt>
      <trkpt lat="48.70603" lon="-1.50839">
        <ele>8.4</ele>
        <time>2024-01-25T15:06:13Z</time>
      </trkpt>
      <trkpt lat="48.7061" lon="-1.50839">
        <ele>8.4</ele>
        <time>2024-01-25T15:06:14Z</time>
      </trkpt>
      <trkpt lat="48.70616" lon="-1.50839">
        <ele>8.5</ele>
        <time>2024-01-25T15:06:15Z</time>
      </trkpt>
      <trkpt lat="48.70623" lon="-1.5084">
        <ele>8.5</ele>
        <time>2024-01-25T15:06:16Z</time>
      </trkpt>
      <trkpt lat="48.7063" lon="-1.50842">
        <ele>8.5</ele>
        <time>2024-01-25T15:06:17Z</time>
      </trkpt>
      <trkpt lat="48.70636" lon="-1.50843">
        <ele>8.6</ele>
        <time>2024-01-25T15:06:18Z</time>
      </trkpt>
      <trkpt lat="48.70642" lon="-1.50844">
        <ele>8.6</ele>
        <time>2024-01-25T15:06:19Z</time>
      </trkpt>
      <trkpt lat="48.70649" lon="-1.50843">
        <ele>8.6</ele>
        <time>2024-01-25T15:06:20Z</time>
      </trkpt>
      <trkpt lat="48.70654" lon="-1.50843">
        <ele>8.6</ele>
        <time>2024-01-25T15:06:21Z</time>
      </trkpt>
      <trkpt lat="48.7066" lon="-1.50844">
        <ele>8.6</ele>
        <time>2024-01-25T15:06:22Z</time>
      </trkpt>
      <trkpt lat="48.70665" lon="-1.50844">
        <ele>8.6</ele>
        <time>2024-01-25T15:06:23Z</time>
      </trkpt>
      <trkpt lat="48.70671" lon="-1.50845">
        <ele>8.6</ele>
        <time>2024-01-25T15:06:24Z</time>
      </trkpt>
      <trkpt lat="48.70676" lon="-1.50846">
        <ele>8.6</ele>
        <time>2024-01-25T15:06:25Z</time>
      </trkpt>
      <trkpt lat="48.70683" lon="-1.50846">
        <ele>8.6</ele>
        <time>2024-01-25T15:06:26Z</time>
      </trkpt>
      <trkpt lat="48.70689" lon="-1.50846">
        <ele>8.7</ele>
        <time>2024-01-25T15:06:27Z</time>
      </trkpt>
      <trkpt lat="48.70695" lon="-1.50846">
        <ele>8.7</ele>
        <time>2024-01-25T15:06:28Z</time>
      </trkpt>
      <trkpt lat="48.707" lon="-1.50846">
        <ele>8.7</ele>
        <time>2024-01-25T15:06:29Z</time>
      </trkpt>
      <trkpt lat="48.70706" lon="-1.50847">
        <ele>8.7</ele>
        <time>2024-01-25T15:06:30Z</time>
      </trkpt>
      <trkpt lat="48.70712" lon="-1.50848">
        <ele>8.7</ele>
        <time>2024-01-25T15:06:31Z</time>
      </trkpt>
      <trkpt lat="48.70718" lon="-1.50849">
        <ele>8.7</ele>
        <time>2024-01-25T15:06:32Z</time>
      </trkpt>
      <trkpt lat="48.70725" lon="-1.50851">
        <ele>8.7</ele>
        <time>2024-01-25T15:06:33Z</time>
      </trkpt>
      <trkpt lat="48.70732" lon="-1.50852">
        <ele>8.8</ele>
        <time>2024-01-25T15:06:34Z</time>
      </trkpt>
      <trkpt lat="48.70739" lon="-1.50853">
        <ele>8.8</ele>
        <time>2024-01-25T15:06:35Z</time>
      </trkpt>
      <trkpt lat="48.70746" lon="-1.50855">
        <ele>8.7</ele>
        <time>2024-01-25T15:06:36Z</time>
      </trkpt>
      <trkpt lat="48.70753" lon="-1.50857">
        <ele>8.7</ele>
        <time>2024-01-25T15:06:37Z</time>
      </trkpt>
      <trkpt lat="48.70759" lon="-1.5086">
        <ele>8.7</ele>
        <time>2024-01-25T15:06:38Z</time>
      </trkpt>
      <trkpt lat="48.70766" lon="-1.50863">
        <ele>8.7</ele>
        <time>2024-01-25T15:06:39Z</time>
      </trkpt>
      <trkpt lat="48.70773" lon="-1.50865">
        <ele>8.7</ele>
        <time>2024-01-25T15:06:40Z</time>
      </trkpt>
      <trkpt lat="48.70779" lon="-1.50868">
        <ele>8.7</ele>
        <time>2024-01-25T15:06:41Z</time>
      </trkpt>
      <trkpt lat="48.70786" lon="-1.5087">
        <ele>8.7</ele>
        <time>2024-01-25T15:06:42Z</time>
      </trkpt>
      <trkpt lat="48.70793" lon="-1.50873">
        <ele>8.7</ele>
        <time>2024-01-25T15:06:43Z</time>
      </trkpt>
      <trkpt lat="48.708" lon="-1.50876">
        <ele>8.7</ele>
        <time>2024-01-25T15:06:44Z</time>
      </trkpt>
      <trkpt lat="48.70806" lon="-1.5088">
        <ele>8.7</ele>
        <time>2024-01-25T15:06:45Z</time>
      </trkpt>
      <trkpt lat="48.70813" lon="-1.50883">
        <ele>8.6</ele>
        <time>2024-01-25T15:06:46Z</time>
      </trkpt>
      <trkpt lat="48.7082" lon="-1.50885">
        <ele>8.6</ele>
        <time>2024-01-25T15:06:47Z</time>
      </trkpt>
      <trkpt lat="48.70826" lon="-1.50888">
        <ele>8.5</ele>
        <time>2024-01-25T15:06:48Z</time>
      </trkpt>
      <trkpt lat="48.70833" lon="-1.5089">
        <ele>8.5</ele>
        <time>2024-01-25T15:06:49Z</time>
      </trkpt>
      <trkpt lat="48.7084" lon="-1.50893">
        <ele>8.5</ele>
        <time>2024-01-25T15:06:50Z</time>
      </trkpt>
      <trkpt lat="48.70846" lon="-1.50895">
        <ele>8.4</ele>
        <time>2024-01-25T15:06:51Z</time>
      </trkpt>
      <trkpt lat="48.70853" lon="-1.50898">
        <ele>8.4</ele>
        <time>2024-01-25T15:06:52Z</time>
      </trkpt>
      <trkpt lat="48.70859" lon="-1.509">
        <ele>8.3</ele>
        <time>2024-01-25T15:06:53Z</time>
      </trkpt>
      <trkpt lat="48.70865" lon="-1.50902">
        <ele>8.3</ele>
        <time>2024-01-25T15:06:54Z</time>
      </trkpt>
      <trkpt lat="48.70872" lon="-1.50905">
        <ele>8.2</ele>
        <time>2024-01-25T15:06:55Z</time>
      </trkpt>
      <trkpt lat="48.70878" lon="-1.50907">
        <ele>8.2</ele>
        <time>2024-01-25T15:06:56Z</time>
      </trkpt>
      <trkpt lat="48.70884" lon="-1.50909">
        <ele>8.1</ele>
        <time>2024-01-25T15:06:57Z</time>
      </trkpt>
      <trkpt lat="48.70891" lon="-1.50911">
        <ele>8.1</ele>
        <time>2024-01-25T15:06:58Z</time>
      </trkpt>
      <trkpt lat="48.70898" lon="-1.50913">
        <ele>8.1</ele>
        <time>2024-01-25T15:06:59Z</time>
      </trkpt>
      <trkpt lat="48.70904" lon="-1.50916">
        <ele>8</ele>
        <time>2024-01-25T15:07:00Z</time>
      </trkpt>
      <trkpt lat="48.7091" lon="-1.50919">
        <ele>7.9</ele>
        <time>2024-01-25T15:07:01Z</time>
      </trkpt>
      <trkpt lat="48.70917" lon="-1.50922">
        <ele>7.9</ele>
        <time>2024-01-25T15:07:02Z</time>
      </trkpt>
      <trkpt lat="48.70923" lon="-1.50925">
        <ele>7.8</ele>
        <time>2024-01-25T15:07:03Z</time>
      </trkpt>
      <trkpt lat="48.7093" lon="-1.50927">
        <ele>7.7</ele>
        <time>2024-01-25T15:07:04Z</time>
      </trkpt>
      <trkpt lat="48.70937" lon="-1.50929">
        <ele>7.7</ele>
        <time>2024-01-25T15:07:05Z</time>
      </trkpt>
      <trkpt lat="48.70943" lon="-1.50931">
        <ele>7.6</ele>
        <time>2024-01-25T15:07:06Z</time>
      </trkpt>
      <trkpt lat="48.7095" lon="-1.50934">
        <ele>7.6</ele>
        <time>2024-01-25T15:07:07Z</time>
      </trkpt>
      <trkpt lat="48.70956" lon="-1.50937">
        <ele>7.5</ele>
        <time>2024-01-25T15:07:08Z</time>
      </trkpt>
      <trkpt lat="48.70962" lon="-1.50939">
        <ele>7.5</ele>
        <time>2024-01-25T15:07:09Z</time>
      </trkpt>
      <trkpt lat="48.70968" lon="-1.50941">
        <ele>7.5</ele>
        <time>2024-01-25T15:07:10Z</time>
      </trkpt>
      <trkpt lat="48.70974" lon="-1.50943">
        <ele>7.4</ele>
        <time>2024-01-25T15:07:11Z</time>
      </trkpt>
      <trkpt lat="48.7098" lon="-1.50946">
        <ele>7.4</ele>
        <time>2024-01-25T15:07:12Z</time>
      </trkpt>
      <trkpt lat="48.70986" lon="-1.50949">
        <ele>7.4</ele>
        <time>2024-01-25T15:07:13Z</time>
      </trkpt>
      <trkpt lat="48.70991" lon="-1.50952">
        <ele>7.4</ele>
        <time>2024-01-25T15:07:14Z</time>
      </trkpt>
      <trkpt lat="48.70997" lon="-1.50955">
        <ele>7.5</ele>
        <time>2024-01-25T15:07:15Z</time>
      </trkpt>
      <trkpt lat="48.71002" lon="-1.50958">
        <ele>7.5</ele>
        <time>2024-01-25T15:07:16Z</time>
      </trkpt>
      <trkpt lat="48.71007" lon="-1.5096">
        <ele>7.6</ele>
        <time>2024-01-25T15:07:17Z</time>
      </trkpt>
      <trkpt lat="48.71012" lon="-1.50964">
        <ele>7.6</ele>
        <time>2024-01-25T15:07:18Z</time>
      </trkpt>
      <trkpt lat="48.71015" lon="-1.50969">
        <ele>7.6</ele>
        <time>2024-01-25T15:07:19Z</time>
      </trkpt>
      <trkpt lat="48.71018" lon="-1.50975">
        <ele>7.5</ele>
        <time>2024-01-25T15:07:20Z</time>
      </trkpt>
      <trkpt lat="48.71019" lon="-1.50981">
        <ele>7.5</ele>
        <time>2024-01-25T15:07:21Z</time>
      </trkpt>
      <trkpt lat="48.71019" lon="-1.50988">
        <ele>7.4</ele>
        <time>2024-01-25T15:07:22Z</time>
      </trkpt>
      <trkpt lat="48.71019" lon="-1.50995">
        <ele>7.4</ele>
        <time>2024-01-25T15:07:23Z</time>
      </trkpt>
      <trkpt lat="48.71019" lon="-1.51002">
        <ele>7.4</ele>
        <time>2024-01-25T15:07:24Z</time>
      </trkpt>
      <trkpt lat="48.71018" lon="-1.5101">
        <ele>7.4</ele>
        <time>2024-01-25T15:07:25Z</time>
      </trkpt>
      <trkpt lat="48.71018" lon="-1.51018">
        <ele>7.4</ele>
        <time>2024-01-25T15:07:26Z</time>
      </trkpt>
      <trkpt lat="48.71017" lon="-1.51026">
        <ele>7.5</ele>
        <time>2024-01-25T15:07:27Z</time>
      </trkpt>
      <trkpt lat="48.71016" lon="-1.51034">
        <ele>7.5</ele>
        <time>2024-01-25T15:07:28Z</time>
      </trkpt>
      <trkpt lat="48.71016" lon="-1.51042">
        <ele>7.6</ele>
        <time>2024-01-25T15:07:29Z</time>
      </trkpt>
      <trkpt lat="48.71016" lon="-1.51051">
        <ele>7.6</ele>
        <time>2024-01-25T15:07:30Z</time>
      </trkpt>
      <trkpt lat="48.71018" lon="-1.51059">
        <ele>7.6</ele>
        <time>2024-01-25T15:07:31Z</time>
      </trkpt>
      <trkpt lat="48.71021" lon="-1.51065">
        <ele>7.6</ele>
        <time>2024-01-25T15:07:32Z</time>
      </trkpt>
      <trkpt lat="48.71026" lon="-1.51071">
        <ele>7.5</ele>
        <time>2024-01-25T15:07:33Z</time>
      </trkpt>
      <trkpt lat="48.7103" lon="-1.51076">
        <ele>7.4</ele>
        <time>2024-01-25T15:07:34Z</time>
      </trkpt>
      <trkpt lat="48.71035" lon="-1.51081">
        <ele>7.3</ele>
        <time>2024-01-25T15:07:35Z</time>
      </trkpt>
      <trkpt lat="48.71039" lon="-1.51086">
        <ele>7.1</ele>
        <time>2024-01-25T15:07:36Z</time>
      </trkpt>
      <trkpt lat="48.71044" lon="-1.51091">
        <ele>7.1</ele>
        <time>2024-01-25T15:07:37Z</time>
      </trkpt>
      <trkpt lat="48.71048" lon="-1.51096">
        <ele>7</ele>
        <time>2024-01-25T15:07:38Z</time>
      </trkpt>
      <trkpt lat="48.71053" lon="-1.51101">
        <ele>7</ele>
        <time>2024-01-25T15:07:39Z</time>
      </trkpt>
      <trkpt lat="48.71058" lon="-1.51106">
        <ele>6.9</ele>
        <time>2024-01-25T15:07:40Z</time>
      </trkpt>
      <trkpt lat="48.71062" lon="-1.51111">
        <ele>6.9</ele>
        <time>2024-01-25T15:07:41Z</time>
      </trkpt>
      <trkpt lat="48.71067" lon="-1.51117">
        <ele>7</ele>
        <time>2024-01-25T15:07:42Z</time>
      </trkpt>
      <trkpt lat="48.71071" lon="-1.51122">
        <ele>7</ele>
        <time>2024-01-25T15:07:43Z</time>
      </trkpt>
      <trkpt lat="48.71075" lon="-1.51129">
        <ele>7.1</ele>
        <time>2024-01-25T15:07:44Z</time>
      </trkpt>
      <trkpt lat="48.7108" lon="-1.51135">
        <ele>7.1</ele>
        <time>2024-01-25T15:07:45Z</time>
      </trkpt>
      <trkpt lat="48.71084" lon="-1.5114">
        <ele>7.1</ele>
        <time>2024-01-25T15:07:46Z</time>
      </trkpt>
      <trkpt lat="48.71089" lon="-1.51145">
        <ele>7.2</ele>
        <time>2024-01-25T15:07:47Z</time>
      </trkpt>
      <trkpt lat="48.71094" lon="-1.5115">
        <ele>7.2</ele>
        <time>2024-01-25T15:07:48Z</time>
      </trkpt>
      <trkpt lat="48.71098" lon="-1.51156">
        <ele>7.2</ele>
        <time>2024-01-25T15:07:49Z</time>
      </trkpt>
      <trkpt lat="48.71103" lon="-1.51161">
        <ele>7.3</ele>
        <time>2024-01-25T15:07:50Z</time>
      </trkpt>
      <trkpt lat="48.71107" lon="-1.51167">
        <ele>7.3</ele>
        <time>2024-01-25T15:07:51Z</time>
      </trkpt>
      <trkpt lat="48.71111" lon="-1.51173">
        <ele>7.3</ele>
        <time>2024-01-25T15:07:52Z</time>
      </trkpt>
      <trkpt lat="48.71116" lon="-1.51178">
        <ele>7.3</ele>
        <time>2024-01-25T15:07:53Z</time>
      </trkpt>
      <trkpt lat="48.71121" lon="-1.51184">
        <ele>7.4</ele>
        <time>2024-01-25T15:07:54Z</time>
      </trkpt>
      <trkpt lat="48.71126" lon="-1.51189">
        <ele>7.4</ele>
        <time>2024-01-25T15:07:55Z</time>
      </trkpt>
      <trkpt lat="48.71131" lon="-1.51194">
        <ele>7.4</ele>
        <time>2024-01-25T15:07:56Z</time>
      </trkpt>
      <trkpt lat="48.71135" lon="-1.512">
        <ele>7.5</ele>
        <time>2024-01-25T15:07:57Z</time>
      </trkpt>
      <trkpt lat="48.7114" lon="-1.51205">
        <ele>7.5</ele>
        <time>2024-01-25T15:07:58Z</time>
      </trkpt>
      <trkpt lat="48.71145" lon="-1.5121">
        <ele>7.5</ele>
        <time>2024-01-25T15:07:59Z</time>
      </trkpt>
      <trkpt lat="48.7115" lon="-1.51215">
        <ele>7.6</ele>
        <time>2024-01-25T15:08:00Z</time>
      </trkpt>
      <trkpt lat="48.71155" lon="-1.51219">
        <ele>7.6</ele>
        <time>2024-01-25T15:08:01Z</time>
      </trkpt>
      <trkpt lat="48.7116" lon="-1.51223">
        <ele>7.6</ele>
        <time>2024-01-25T15:08:02Z</time>
      </trkpt>
      <trkpt lat="48.71166" lon="-1.51226">
        <ele>7.7</ele>
        <time>2024-01-25T15:08:03Z</time>
      </trkpt>
      <trkpt lat="48.71172" lon="-1.51229">
        <ele>7.7</ele>
        <time>2024-01-25T15:08:04Z</time>
      </trkpt>
      <trkpt lat="48.71179" lon="-1.51233">
        <ele>7.7</ele>
        <time>2024-01-25T15:08:05Z</time>
      </trkpt>
      <trkpt lat="48.71185" lon="-1.51237">
        <ele>7.7</ele>
        <time>2024-01-25T15:08:06Z</time>
      </trkpt>
      <trkpt lat="48.71191" lon="-1.51241">
        <ele>7.6</ele>
        <time>2024-01-25T15:08:07Z</time>
      </trkpt>
      <trkpt lat="48.71197" lon="-1.51245">
        <ele>7.6</ele>
        <time>2024-01-25T15:08:08Z</time>
      </trkpt>
      <trkpt lat="48.71204" lon="-1.51249">
        <ele>7.6</ele>
        <time>2024-01-25T15:08:09Z</time>
      </trkpt>
      <trkpt lat="48.71209" lon="-1.51254">
        <ele>7.5</ele>
        <time>2024-01-25T15:08:10Z</time>
      </trkpt>
      <trkpt lat="48.71215" lon="-1.51258">
        <ele>7.5</ele>
        <time>2024-01-25T15:08:11Z</time>
      </trkpt>
      <trkpt lat="48.71222" lon="-1.51262">
        <ele>7.5</ele>
        <time>2024-01-25T15:08:12Z</time>
      </trkpt>
      <trkpt lat="48.71228" lon="-1.51266">
        <ele>7.5</ele>
        <time>2024-01-25T15:08:13Z</time>
      </trkpt>
      <trkpt lat="48.71234" lon="-1.51271">
        <ele>7.5</ele>
        <time>2024-01-25T15:08:14Z</time>
      </trkpt>
      <trkpt lat="48.7124" lon="-1.51275">
        <ele>7.5</ele>
        <time>2024-01-25T15:08:15Z</time>
      </trkpt>
      <trkpt lat="48.71246" lon="-1.5128">
        <ele>7.5</ele>
        <time>2024-01-25T15:08:16Z</time>
      </trkpt>
      <trkpt lat="48.71252" lon="-1.51284">
        <ele>7.5</ele>
        <time>2024-01-25T15:08:17Z</time>
      </trkpt>
      <trkpt lat="48.71258" lon="-1.51289">
        <ele>7.5</ele>
        <time>2024-01-25T15:08:18Z</time>
      </trkpt>
      <trkpt lat="48.71264" lon="-1.51293">
        <ele>7.5</ele>
        <time>2024-01-25T15:08:19Z</time>
      </trkpt>
      <trkpt lat="48.7127" lon="-1.51297">
        <ele>7.5</ele>
        <time>2024-01-25T15:08:20Z</time>
      </trkpt>
      <trkpt lat="48.71276" lon="-1.51301">
        <ele>7.5</ele>
        <time>2024-01-25T15:08:21Z</time>
      </trkpt>
      <trkpt lat="48.71282" lon="-1.51305">
        <ele>7.5</ele>
        <time>2024-01-25T15:08:22Z</time>
      </trkpt>
      <trkpt lat="48.71288" lon="-1.51309">
        <ele>7.5</ele>
        <time>2024-01-25T15:08:23Z</time>
      </trkpt>
      <trkpt lat="48.71294" lon="-1.51313">
        <ele>7.5</ele>
        <time>2024-01-25T15:08:24Z</time>
      </trkpt>
      <trkpt lat="48.713" lon="-1.51317">
        <ele>7.5</ele>
        <time>2024-01-25T15:08:25Z</time>
      </trkpt>
      <trkpt lat="48.71306" lon="-1.5132">
        <ele>7.4</ele>
        <time>2024-01-25T15:08:26Z</time>
      </trkpt>
      <trkpt lat="48.71312" lon="-1.51325">
        <ele>7.4</ele>
        <time>2024-01-25T15:08:27Z</time>
      </trkpt>
      <trkpt lat="48.71318" lon="-1.51329">
        <ele>7.4</ele>
        <time>2024-01-25T15:08:28Z</time>
      </trkpt>
      <trkpt lat="48.71324" lon="-1.51334">
        <ele>7.4</ele>
        <time>2024-01-25T15:08:29Z</time>
      </trkpt>
      <trkpt lat="48.7133" lon="-1.51338">
        <ele>7.4</ele>
        <time>2024-01-25T15:08:30Z</time>
      </trkpt>
      <trkpt lat="48.71337" lon="-1.51342">
        <ele>7.4</ele>
        <time>2024-01-25T15:08:31Z</time>
      </trkpt>
      <trkpt lat="48.71344" lon="-1.51346">
        <ele>7.4</ele>
        <time>2024-01-25T15:08:32Z</time>
      </trkpt>
      <trkpt lat="48.7135" lon="-1.5135">
        <ele>7.4</ele>
        <time>2024-01-25T15:08:33Z</time>
      </trkpt>
      <trkpt lat="48.71357" lon="-1.51353">
        <ele>7.4</ele>
        <time>2024-01-25T15:08:34Z</time>
      </trkpt>
      <trkpt lat="48.71364" lon="-1.51356">
        <ele>7.4</ele>
        <time>2024-01-25T15:08:35Z</time>
      </trkpt>
      <trkpt lat="48.71371" lon="-1.51359">
        <ele>7.4</ele>
        <time>2024-01-25T15:08:36Z</time>
      </trkpt>
      <trkpt lat="48.71377" lon="-1.51361">
        <ele>7.4</ele>
        <time>2024-01-25T15:08:37Z</time>
      </trkpt>
      <trkpt lat="48.71384" lon="-1.51363">
        <ele>7.4</ele>
        <time>2024-01-25T15:08:38Z</time>
      </trkpt>
      <trkpt lat="48.7139" lon="-1.51365">
        <ele>7.4</ele>
        <time>2024-01-25T15:08:39Z</time>
      </trkpt>
      <trkpt lat="48.71397" lon="-1.51367">
        <ele>7.4</ele>
        <time>2024-01-25T15:08:40Z</time>
      </trkpt>
      <trkpt lat="48.71404" lon="-1.51369">
        <ele>7.4</ele>
        <time>2024-01-25T15:08:41Z</time>
      </trkpt>
      <trkpt lat="48.7141" lon="-1.51371">
        <ele>7.4</ele>
        <time>2024-01-25T15:08:42Z</time>
      </trkpt>
      <trkpt lat="48.71417" lon="-1.51374">
        <ele>7.4</ele>
        <time>2024-01-25T15:08:43Z</time>
      </trkpt>
      <trkpt lat="48.71423" lon="-1.51376">
        <ele>7.4</ele>
        <time>2024-01-25T15:08:44Z</time>
      </trkpt>
      <trkpt lat="48.71429" lon="-1.51379">
        <ele>7.4</ele>
        <time>2024-01-25T15:08:45Z</time>
      </trkpt>
      <trkpt lat="48.71434" lon="-1.51382">
        <ele>7.4</ele>
        <time>2024-01-25T15:08:46Z</time>
      </trkpt>
      <trkpt lat="48.7144" lon="-1.51385">
        <ele>7.4</ele>
        <time>2024-01-25T15:08:47Z</time>
      </trkpt>
      <trkpt lat="48.71446" lon="-1.51389">
        <ele>7.4</ele>
        <time>2024-01-25T15:08:48Z</time>
      </trkpt>
      <trkpt lat="48.71451" lon="-1.51392">
        <ele>7.5</ele>
        <time>2024-01-25T15:08:49Z</time>
      </trkpt>
      <trkpt lat="48.71457" lon="-1.51396">
        <ele>7.5</ele>
        <time>2024-01-25T15:08:50Z</time>
      </trkpt>
      <trkpt lat="48.71462" lon="-1.51401">
        <ele>7.5</ele>
        <time>2024-01-25T15:08:51Z</time>
      </trkpt>
      <trkpt lat="48.71468" lon="-1.51406">
        <ele>7.6</ele>
        <time>2024-01-25T15:08:52Z</time>
      </trkpt>
      <trkpt lat="48.71474" lon="-1.51411">
        <ele>7.6</ele>
        <time>2024-01-25T15:08:53Z</time>
      </trkpt>
      <trkpt lat="48.7148" lon="-1.51415">
        <ele>7.6</ele>
        <time>2024-01-25T15:08:54Z</time>
      </trkpt>
      <trkpt lat="48.71486" lon="-1.51419">
        <ele>7.6</ele>
        <time>2024-01-25T15:08:55Z</time>
      </trkpt>
      <trkpt lat="48.71493" lon="-1.51423">
        <ele>7.7</ele>
        <time>2024-01-25T15:08:56Z</time>
      </trkpt>
      <trkpt lat="48.715" lon="-1.51427">
        <ele>7.7</ele>
        <time>2024-01-25T15:08:57Z</time>
      </trkpt>
      <trkpt lat="48.71506" lon="-1.5143">
        <ele>7.8</ele>
        <time>2024-01-25T15:08:58Z</time>
      </trkpt>
      <trkpt lat="48.71512" lon="-1.51434">
        <ele>7.9</ele>
        <time>2024-01-25T15:08:59Z</time>
      </trkpt>
      <trkpt lat="48.71519" lon="-1.51438">
        <ele>8</ele>
        <time>2024-01-25T15:09:00Z</time>
      </trkpt>
      <trkpt lat="48.71525" lon="-1.51442">
        <ele>8.1</ele>
        <time>2024-01-25T15:09:01Z</time>
      </trkpt>
      <trkpt lat="48.7153" lon="-1.51446">
        <ele>8.1</ele>
        <time>2024-01-25T15:09:02Z</time>
      </trkpt>
      <trkpt lat="48.71536" lon="-1.5145">
        <ele>8.2</ele>
        <time>2024-01-25T15:09:03Z</time>
      </trkpt>
      <trkpt lat="48.71542" lon="-1.51454">
        <ele>8.3</ele>
        <time>2024-01-25T15:09:04Z</time>
      </trkpt>
      <trkpt lat="48.71547" lon="-1.51459">
        <ele>8.4</ele>
        <time>2024-01-25T15:09:05Z</time>
      </trkpt>
      <trkpt lat="48.71553" lon="-1.51463">
        <ele>8.4</ele>
        <time>2024-01-25T15:09:06Z</time>
      </trkpt>
      <trkpt lat="48.71559" lon="-1.51467">
        <ele>8.5</ele>
        <time>2024-01-25T15:09:07Z</time>
      </trkpt>
      <trkpt lat="48.71565" lon="-1.51472">
        <ele>8.5</ele>
        <time>2024-01-25T15:09:08Z</time>
      </trkpt>
      <trkpt lat="48.71571" lon="-1.51475">
        <ele>8.6</ele>
        <time>2024-01-25T15:09:09Z</time>
      </trkpt>
      <trkpt lat="48.71578" lon="-1.51478">
        <ele>8.6</ele>
        <time>2024-01-25T15:09:10Z</time>
      </trkpt>
      <trkpt lat="48.71584" lon="-1.51481">
        <ele>8.6</ele>
        <time>2024-01-25T15:09:11Z</time>
      </trkpt>
      <trkpt lat="48.71591" lon="-1.51484">
        <ele>8.7</ele>
        <time>2024-01-25T15:09:12Z</time>
      </trkpt>
      <trkpt lat="48.71597" lon="-1.51487">
        <ele>8.7</ele>
        <time>2024-01-25T15:09:13Z</time>
      </trkpt>
      <trkpt lat="48.71603" lon="-1.5149">
        <ele>8.7</ele>
        <time>2024-01-25T15:09:14Z</time>
      </trkpt>
      <trkpt lat="48.71609" lon="-1.51494">
        <ele>8.7</ele>
        <time>2024-01-25T15:09:15Z</time>
      </trkpt>
      <trkpt lat="48.71616" lon="-1.51499">
        <ele>8.7</ele>
        <time>2024-01-25T15:09:16Z</time>
      </trkpt>
      <trkpt lat="48.71622" lon="-1.51504">
        <ele>8.7</ele>
        <time>2024-01-25T15:09:17Z</time>
      </trkpt>
      <trkpt lat="48.71627" lon="-1.5151">
        <ele>8.6</ele>
        <time>2024-01-25T15:09:18Z</time>
      </trkpt>
      <trkpt lat="48.71633" lon="-1.51516">
        <ele>8.6</ele>
        <time>2024-01-25T15:09:19Z</time>
      </trkpt>
      <trkpt lat="48.71638" lon="-1.51523">
        <ele>8.6</ele>
        <time>2024-01-25T15:09:20Z</time>
      </trkpt>
      <trkpt lat="48.71643" lon="-1.5153">
        <ele>8.6</ele>
        <time>2024-01-25T15:09:21Z</time>
      </trkpt>
      <trkpt lat="48.71648" lon="-1.51537">
        <ele>8.5</ele>
        <time>2024-01-25T15:09:22Z</time>
      </trkpt>
      <trkpt lat="48.71654" lon="-1.51544">
        <ele>8.4</ele>
        <time>2024-01-25T15:09:23Z</time>
      </trkpt>
      <trkpt lat="48.71659" lon="-1.51551">
        <ele>8.4</ele>
        <time>2024-01-25T15:09:24Z</time>
      </trkpt>
      <trkpt lat="48.71665" lon="-1.51557">
        <ele>8.3</ele>
        <time>2024-01-25T15:09:25Z</time>
      </trkpt>
      <trkpt lat="48.7167" lon="-1.51564">
        <ele>8.3</ele>
        <time>2024-01-25T15:09:26Z</time>
      </trkpt>
      <trkpt lat="48.71675" lon="-1.5157">
        <ele>8.3</ele>
        <time>2024-01-25T15:09:27Z</time>
      </trkpt>
      <trkpt lat="48.71681" lon="-1.51576">
        <ele>8.2</ele>
        <time>2024-01-25T15:09:28Z</time>
      </trkpt>
      <trkpt lat="48.71687" lon="-1.51582">
        <ele>8.2</ele>
        <time>2024-01-25T15:09:29Z</time>
      </trkpt>
      <trkpt lat="48.71693" lon="-1.51588">
        <ele>8.2</ele>
        <time>2024-01-25T15:09:30Z</time>
      </trkpt>
      <trkpt lat="48.71699" lon="-1.51594">
        <ele>8.3</ele>
        <time>2024-01-25T15:09:31Z</time>
      </trkpt>
      <trkpt lat="48.71705" lon="-1.516">
        <ele>8.3</ele>
        <time>2024-01-25T15:09:32Z</time>
      </trkpt>
      <trkpt lat="48.71711" lon="-1.51605">
        <ele>8.3</ele>
        <time>2024-01-25T15:09:33Z</time>
      </trkpt>
      <trkpt lat="48.71717" lon="-1.5161">
        <ele>8.4</ele>
        <time>2024-01-25T15:09:34Z</time>
      </trkpt>
      <trkpt lat="48.71722" lon="-1.51616">
        <ele>8.5</ele>
        <time>2024-01-25T15:09:35Z</time>
      </trkpt>
      <trkpt lat="48.71728" lon="-1.51622">
        <ele>8.5</ele>
        <time>2024-01-25T15:09:36Z</time>
      </trkpt>
      <trkpt lat="48.71733" lon="-1.51628">
        <ele>8.6</ele>
        <time>2024-01-25T15:09:37Z</time>
      </trkpt>
      <trkpt lat="48.71738" lon="-1.51633">
        <ele>8.6</ele>
        <time>2024-01-25T15:09:38Z</time>
      </trkpt>
      <trkpt lat="48.71743" lon="-1.51639">
        <ele>8.6</ele>
        <time>2024-01-25T15:09:39Z</time>
      </trkpt>
      <trkpt lat="48.71748" lon="-1.51644">
        <ele>8.7</ele>
        <time>2024-01-25T15:09:40Z</time>
      </trkpt>
      <trkpt lat="48.71753" lon="-1.51648">
        <ele>8.7</ele>
        <time>2024-01-25T15:09:41Z</time>
      </trkpt>
      <trkpt lat="48.71758" lon="-1.51652">
        <ele>8.7</ele>
        <time>2024-01-25T15:09:42Z</time>
      </trkpt>
      <trkpt lat="48.71764" lon="-1.51656">
        <ele>8.8</ele>
        <time>2024-01-25T15:09:43Z</time>
      </trkpt>
      <trkpt lat="48.71769" lon="-1.5166">
        <ele>8.9</ele>
        <time>2024-01-25T15:09:44Z</time>
      </trkpt>
      <trkpt lat="48.71775" lon="-1.51664">
        <ele>9</ele>
        <time>2024-01-25T15:09:45Z</time>
      </trkpt>
      <trkpt lat="48.71781" lon="-1.51668">
        <ele>9.1</ele>
        <time>2024-01-25T15:09:46Z</time>
      </trkpt>
      <trkpt lat="48.71787" lon="-1.51673">
        <ele>9.2</ele>
        <time>2024-01-25T15:09:47Z</time>
      </trkpt>
      <trkpt lat="48.71793" lon="-1.51678">
        <ele>9.3</ele>
        <time>2024-01-25T15:09:48Z</time>
      </trkpt>
      <trkpt lat="48.71799" lon="-1.51683">
        <ele>9.4</ele>
        <time>2024-01-25T15:09:49Z</time>
      </trkpt>
      <trkpt lat="48.71805" lon="-1.51688">
        <ele>9.5</ele>
        <time>2024-01-25T15:09:50Z</time>
      </trkpt>
      <trkpt lat="48.7181" lon="-1.51692">
        <ele>9.6</ele>
        <time>2024-01-25T15:09:51Z</time>
      </trkpt>
      <trkpt lat="48.71816" lon="-1.51697">
        <ele>9.7</ele>
        <time>2024-01-25T15:09:52Z</time>
      </trkpt>
      <trkpt lat="48.71822" lon="-1.51703">
        <ele>9.8</ele>
        <time>2024-01-25T15:09:53Z</time>
      </trkpt>
      <trkpt lat="48.71828" lon="-1.51709">
        <ele>9.9</ele>
        <time>2024-01-25T15:09:54Z</time>
      </trkpt>
      <trkpt lat="48.71834" lon="-1.51715">
        <ele>9.9</ele>
        <time>2024-01-25T15:09:55Z</time>
      </trkpt>
      <trkpt lat="48.71839" lon="-1.5172">
        <ele>9.9</ele>
        <time>2024-01-25T15:09:56Z</time>
      </trkpt>
      <trkpt lat="48.71844" lon="-1.51726">
        <ele>9.9</ele>
        <time>2024-01-25T15:09:57Z</time>
      </trkpt>
      <trkpt lat="48.71848" lon="-1.51731">
        <ele>9.9</ele>
        <time>2024-01-25T15:09:58Z</time>
      </trkpt>
      <trkpt lat="48.71852" lon="-1.51737">
        <ele>9.9</ele>
        <time>2024-01-25T15:09:59Z</time>
      </trkpt>
      <trkpt lat="48.71856" lon="-1.51743">
        <ele>9.9</ele>
        <time>2024-01-25T15:10:00Z</time>
      </trkpt>
      <trkpt lat="48.7186" lon="-1.51748">
        <ele>9.8</ele>
        <time>2024-01-25T15:10:01Z</time>
      </trkpt>
      <trkpt lat="48.71865" lon="-1.51755">
        <ele>9.8</ele>
        <time>2024-01-25T15:10:02Z</time>
      </trkpt>
      <trkpt lat="48.71869" lon="-1.51761">
        <ele>9.7</ele>
        <time>2024-01-25T15:10:03Z</time>
      </trkpt>
      <trkpt lat="48.71875" lon="-1.51768">
        <ele>9.7</ele>
        <time>2024-01-25T15:10:04Z</time>
      </trkpt>
      <trkpt lat="48.7188" lon="-1.51775">
        <ele>9.6</ele>
        <time>2024-01-25T15:10:05Z</time>
      </trkpt>
      <trkpt lat="48.71885" lon="-1.51782">
        <ele>9.5</ele>
        <time>2024-01-25T15:10:06Z</time>
      </trkpt>
      <trkpt lat="48.71892" lon="-1.51789">
        <ele>9.4</ele>
        <time>2024-01-25T15:10:07Z</time>
      </trkpt>
      <trkpt lat="48.71897" lon="-1.51795">
        <ele>9.3</ele>
        <time>2024-01-25T15:10:08Z</time>
      </trkpt>
      <trkpt lat="48.71903" lon="-1.51801">
        <ele>9.2</ele>
        <time>2024-01-25T15:10:09Z</time>
      </trkpt>
      <trkpt lat="48.71909" lon="-1.51808">
        <ele>9.2</ele>
        <time>2024-01-25T15:10:10Z</time>
      </trkpt>
      <trkpt lat="48.71915" lon="-1.51814">
        <ele>9.2</ele>
        <time>2024-01-25T15:10:11Z</time>
      </trkpt>
      <trkpt lat="48.71921" lon="-1.5182">
        <ele>9.1</ele>
        <time>2024-01-25T15:10:12Z</time>
      </trkpt>
      <trkpt lat="48.71927" lon="-1.51826">
        <ele>9.1</ele>
        <time>2024-01-25T15:10:13Z</time>
      </trkpt>
      <trkpt lat="48.71932" lon="-1.51831">
        <ele>9.1</ele>
        <time>2024-01-25T15:10:14Z</time>
      </trkpt>
      <trkpt lat="48.71938" lon="-1.51837">
        <ele>9</ele>
        <time>2024-01-25T15:10:15Z</time>
      </trkpt>
      <trkpt lat="48.71944" lon="-1.51842">
        <ele>8.9</ele>
        <time>2024-01-25T15:10:16Z</time>
      </trkpt>
      <trkpt lat="48.7195" lon="-1.51847">
        <ele>8.9</ele>
        <time>2024-01-25T15:10:17Z</time>
      </trkpt>
      <trkpt lat="48.71956" lon="-1.51852">
        <ele>8.8</ele>
        <time>2024-01-25T15:10:18Z</time>
      </trkpt>
      <trkpt lat="48.71963" lon="-1.51856">
        <ele>8.7</ele>
        <time>2024-01-25T15:10:19Z</time>
      </trkpt>
      <trkpt lat="48.71969" lon="-1.51861">
        <ele>8.7</ele>
        <time>2024-01-25T15:10:20Z</time>
      </trkpt>
      <trkpt lat="48.71975" lon="-1.51866">
        <ele>8.6</ele>
        <time>2024-01-25T15:10:21Z</time>
      </trkpt>
      <trkpt lat="48.71981" lon="-1.51871">
        <ele>8.6</ele>
        <time>2024-01-25T15:10:22Z</time>
      </trkpt>
      <trkpt lat="48.71988" lon="-1.51876">
        <ele>8.6</ele>
        <time>2024-01-25T15:10:23Z</time>
      </trkpt>
      <trkpt lat="48.71994" lon="-1.51881">
        <ele>8.6</ele>
        <time>2024-01-25T15:10:24Z</time>
      </trkpt>
      <trkpt lat="48.72" lon="-1.51886">
        <ele>8.6</ele>
        <time>2024-01-25T15:10:25Z</time>
      </trkpt>
      <trkpt lat="48.72007" lon="-1.5189">
        <ele>8.6</ele>
        <time>2024-01-25T15:10:26Z</time>
      </trkpt>
      <trkpt lat="48.72013" lon="-1.51895">
        <ele>8.6</ele>
        <time>2024-01-25T15:10:27Z</time>
      </trkpt>
      <trkpt lat="48.72019" lon="-1.51899">
        <ele>8.6</ele>
        <time>2024-01-25T15:10:28Z</time>
      </trkpt>
      <trkpt lat="48.72025" lon="-1.51904">
        <ele>8.6</ele>
        <time>2024-01-25T15:10:29Z</time>
      </trkpt>
      <trkpt lat="48.72031" lon="-1.51908">
        <ele>8.6</ele>
        <time>2024-01-25T15:10:30Z</time>
      </trkpt>
      <trkpt lat="48.72037" lon="-1.51911">
        <ele>8.6</ele>
        <time>2024-01-25T15:10:31Z</time>
      </trkpt>
      <trkpt lat="48.72044" lon="-1.51915">
        <ele>8.6</ele>
        <time>2024-01-25T15:10:32Z</time>
      </trkpt>
      <trkpt lat="48.7205" lon="-1.51918">
        <ele>8.5</ele>
        <time>2024-01-25T15:10:33Z</time>
      </trkpt>
      <trkpt lat="48.72056" lon="-1.51921">
        <ele>8.5</ele>
        <time>2024-01-25T15:10:34Z</time>
      </trkpt>
      <trkpt lat="48.72062" lon="-1.51924">
        <ele>8.4</ele>
        <time>2024-01-25T15:10:35Z</time>
      </trkpt>
      <trkpt lat="48.72068" lon="-1.51928">
        <ele>8.4</ele>
        <time>2024-01-25T15:10:36Z</time>
      </trkpt>
      <trkpt lat="48.72075" lon="-1.5193">
        <ele>8.4</ele>
        <time>2024-01-25T15:10:37Z</time>
      </trkpt>
      <trkpt lat="48.72082" lon="-1.51933">
        <ele>8.4</ele>
        <time>2024-01-25T15:10:38Z</time>
      </trkpt>
      <trkpt lat="48.72088" lon="-1.51936">
        <ele>8.4</ele>
        <time>2024-01-25T15:10:39Z</time>
      </trkpt>
      <trkpt lat="48.72095" lon="-1.51939">
        <ele>8.4</ele>
        <time>2024-01-25T15:10:40Z</time>
      </trkpt>
      <trkpt lat="48.72101" lon="-1.51942">
        <ele>8.4</ele>
        <time>2024-01-25T15:10:41Z</time>
      </trkpt>
      <trkpt lat="48.72108" lon="-1.51944">
        <ele>8.4</ele>
        <time>2024-01-25T15:10:42Z</time>
      </trkpt>
      <trkpt lat="48.72114" lon="-1.51947">
        <ele>8.4</ele>
        <time>2024-01-25T15:10:43Z</time>
      </trkpt>
      <trkpt lat="48.7212" lon="-1.5195">
        <ele>8.4</ele>
        <time>2024-01-25T15:10:44Z</time>
      </trkpt>
      <trkpt lat="48.72126" lon="-1.51954">
        <ele>8.4</ele>
        <time>2024-01-25T15:10:45Z</time>
      </trkpt>
      <trkpt lat="48.72133" lon="-1.51957">
        <ele>8.4</ele>
        <time>2024-01-25T15:10:46Z</time>
      </trkpt>
      <trkpt lat="48.72139" lon="-1.5196">
        <ele>8.4</ele>
        <time>2024-01-25T15:10:47Z</time>
      </trkpt>
      <trkpt lat="48.72145" lon="-1.51963">
        <ele>8.4</ele>
        <time>2024-01-25T15:10:48Z</time>
      </trkpt>
      <trkpt lat="48.72151" lon="-1.51967">
        <ele>8.4</ele>
        <time>2024-01-25T15:10:49Z</time>
      </trkpt>
      <trkpt lat="48.72157" lon="-1.5197">
        <ele>8.4</ele>
        <time>2024-01-25T15:10:50Z</time>
      </trkpt>
      <trkpt lat="48.72163" lon="-1.51974">
        <ele>8.4</ele>
        <time>2024-01-25T15:10:51Z</time>
      </trkpt>
      <trkpt lat="48.72169" lon="-1.51978">
        <ele>8.4</ele>
        <time>2024-01-25T15:10:52Z</time>
      </trkpt>
      <trkpt lat="48.72175" lon="-1.51981">
        <ele>8.4</ele>
        <time>2024-01-25T15:10:53Z</time>
      </trkpt>
      <trkpt lat="48.72181" lon="-1.51985">
        <ele>8.4</ele>
        <time>2024-01-25T15:10:54Z</time>
      </trkpt>
      <trkpt lat="48.72186" lon="-1.51989">
        <ele>8.3</ele>
        <time>2024-01-25T15:10:55Z</time>
      </trkpt>
      <trkpt lat="48.72192" lon="-1.51993">
        <ele>8.3</ele>
        <time>2024-01-25T15:10:56Z</time>
      </trkpt>
      <trkpt lat="48.72198" lon="-1.51997">
        <ele>8.3</ele>
        <time>2024-01-25T15:10:57Z</time>
      </trkpt>
      <trkpt lat="48.72204" lon="-1.52">
        <ele>8.3</ele>
        <time>2024-01-25T15:10:58Z</time>
      </trkpt>
      <trkpt lat="48.72209" lon="-1.52005">
        <ele>8.3</ele>
        <time>2024-01-25T15:10:59Z</time>
      </trkpt>
      <trkpt lat="48.72214" lon="-1.52008">
        <ele>8.3</ele>
        <time>2024-01-25T15:11:00Z</time>
      </trkpt>
      <trkpt lat="48.7222" lon="-1.52012">
        <ele>8.3</ele>
        <time>2024-01-25T15:11:01Z</time>
      </trkpt>
      <trkpt lat="48.72226" lon="-1.52016">
        <ele>8.3</ele>
        <time>2024-01-25T15:11:02Z</time>
      </trkpt>
      <trkpt lat="48.72232" lon="-1.5202">
        <ele>8.4</ele>
        <time>2024-01-25T15:11:03Z</time>
      </trkpt>
      <trkpt lat="48.72238" lon="-1.52024">
        <ele>8.4</ele>
        <time>2024-01-25T15:11:04Z</time>
      </trkpt>
      <trkpt lat="48.72244" lon="-1.52027">
        <ele>8.5</ele>
        <time>2024-01-25T15:11:05Z</time>
      </trkpt>
      <trkpt lat="48.7225" lon="-1.5203">
        <ele>8.6</ele>
        <time>2024-01-25T15:11:06Z</time>
      </trkpt>
      <trkpt lat="48.72255" lon="-1.52034">
        <ele>8.6</ele>
        <time>2024-01-25T15:11:07Z</time>
      </trkpt>
      <trkpt lat="48.7226" lon="-1.52037">
        <ele>8.7</ele>
        <time>2024-01-25T15:11:08Z</time>
      </trkpt>
      <trkpt lat="48.72265" lon="-1.52041">
        <ele>8.8</ele>
        <time>2024-01-25T15:11:09Z</time>
      </trkpt>
      <trkpt lat="48.7227" lon="-1.52045">
        <ele>8.8</ele>
        <time>2024-01-25T15:11:10Z</time>
      </trkpt>
      <trkpt lat="48.72275" lon="-1.52049">
        <ele>8.9</ele>
        <time>2024-01-25T15:11:11Z</time>
      </trkpt>
      <trkpt lat="48.7228" lon="-1.52053">
        <ele>9</ele>
        <time>2024-01-25T15:11:12Z</time>
      </trkpt>
      <trkpt lat="48.72284" lon="-1.52057">
        <ele>9</ele>
        <time>2024-01-25T15:11:13Z</time>
      </trkpt>
      <trkpt lat="48.72289" lon="-1.52061">
        <ele>9.1</ele>
        <time>2024-01-25T15:11:14Z</time>
      </trkpt>
      <trkpt lat="48.72294" lon="-1.52065">
        <ele>9.2</ele>
        <time>2024-01-25T15:11:15Z</time>
      </trkpt>
      <trkpt lat="48.72299" lon="-1.52069">
        <ele>9.2</ele>
        <time>2024-01-25T15:11:16Z</time>
      </trkpt>
      <trkpt lat="48.72304" lon="-1.52073">
        <ele>9.3</ele>
        <time>2024-01-25T15:11:17Z</time>
      </trkpt>
      <trkpt lat="48.72309" lon="-1.52077">
        <ele>9.3</ele>
        <time>2024-01-25T15:11:18Z</time>
      </trkpt>
      <trkpt lat="48.72314" lon="-1.52082">
        <ele>9.3</ele>
        <time>2024-01-25T15:11:19Z</time>
      </trkpt>
      <trkpt lat="48.7232" lon="-1.52086">
        <ele>9.4</ele>
        <time>2024-01-25T15:11:20Z</time>
      </trkpt>
      <trkpt lat="48.72325" lon="-1.5209">
        <ele>9.4</ele>
        <time>2024-01-25T15:11:21Z</time>
      </trkpt>
      <trkpt lat="48.72331" lon="-1.52094">
        <ele>9.5</ele>
        <time>2024-01-25T15:11:22Z</time>
      </trkpt>
      <trkpt lat="48.72336" lon="-1.52097">
        <ele>9.5</ele>
        <time>2024-01-25T15:11:23Z</time>
      </trkpt>
      <trkpt lat="48.72342" lon="-1.521">
        <ele>9.6</ele>
        <time>2024-01-25T15:11:24Z</time>
      </trkpt>
      <trkpt lat="48.72347" lon="-1.52104">
        <ele>9.7</ele>
        <time>2024-01-25T15:11:25Z</time>
      </trkpt>
      <trkpt lat="48.72353" lon="-1.52107">
        <ele>9.7</ele>
        <time>2024-01-25T15:11:26Z</time>
      </trkpt>
      <trkpt lat="48.72358" lon="-1.52111">
        <ele>9.8</ele>
        <time>2024-01-25T15:11:27Z</time>
      </trkpt>
      <trkpt lat="48.72364" lon="-1.52114">
        <ele>9.8</ele>
        <time>2024-01-25T15:11:28Z</time>
      </trkpt>
      <trkpt lat="48.72369" lon="-1.52117">
        <ele>9.9</ele>
        <time>2024-01-25T15:11:29Z</time>
      </trkpt>
      <trkpt lat="48.72374" lon="-1.5212">
        <ele>9.9</ele>
        <time>2024-01-25T15:11:30Z</time>
      </trkpt>
      <trkpt lat="48.72379" lon="-1.52124">
        <ele>9.9</ele>
        <time>2024-01-25T15:11:31Z</time>
      </trkpt>
      <trkpt lat="48.72384" lon="-1.52128">
        <ele>9.9</ele>
        <time>2024-01-25T15:11:32Z</time>
      </trkpt>
      <trkpt lat="48.72389" lon="-1.52132">
        <ele>9.9</ele>
        <time>2024-01-25T15:11:33Z</time>
      </trkpt>
      <trkpt lat="48.72393" lon="-1.52137">
        <ele>9.9</ele>
        <time>2024-01-25T15:11:34Z</time>
      </trkpt>
      <trkpt lat="48.72398" lon="-1.52141">
        <ele>9.9</ele>
        <time>2024-01-25T15:11:35Z</time>
      </trkpt>
      <trkpt lat="48.72402" lon="-1.52146">
        <ele>9.9</ele>
        <time>2024-01-25T15:11:36Z</time>
      </trkpt>
      <trkpt lat="48.72406" lon="-1.52151">
        <ele>9.9</ele>
        <time>2024-01-25T15:11:37Z</time>
      </trkpt>
      <trkpt lat="48.72411" lon="-1.52157">
        <ele>9.9</ele>
        <time>2024-01-25T15:11:38Z</time>
      </trkpt>
      <trkpt lat="48.72415" lon="-1.52161">
        <ele>9.9</ele>
        <time>2024-01-25T15:11:39Z</time>
      </trkpt>
      <trkpt lat="48.7242" lon="-1.52166">
        <ele>9.9</ele>
        <time>2024-01-25T15:11:40Z</time>
      </trkpt>
      <trkpt lat="48.72424" lon="-1.52171">
        <ele>9.8</ele>
        <time>2024-01-25T15:11:41Z</time>
      </trkpt>
      <trkpt lat="48.72429" lon="-1.52175">
        <ele>9.8</ele>
        <time>2024-01-25T15:11:42Z</time>
      </trkpt>
      <trkpt lat="48.72434" lon="-1.52179">
        <ele>9.8</ele>
        <time>2024-01-25T15:11:43Z</time>
      </trkpt>
      <trkpt lat="48.72439" lon="-1.52183">
        <ele>9.8</ele>
        <time>2024-01-25T15:11:44Z</time>
      </trkpt>
      <trkpt lat="48.72443" lon="-1.52186">
        <ele>9.8</ele>
        <time>2024-01-25T15:11:45Z</time>
      </trkpt>
      <trkpt lat="48.72447" lon="-1.5219">
        <ele>9.7</ele>
        <time>2024-01-25T15:11:46Z</time>
      </trkpt>
      <trkpt lat="48.72452" lon="-1.52195">
        <ele>9.7</ele>
        <time>2024-01-25T15:11:47Z</time>
      </trkpt>
      <trkpt lat="48.72456" lon="-1.522">
        <ele>9.7</ele>
        <time>2024-01-25T15:11:48Z</time>
      </trkpt>
      <trkpt lat="48.7246" lon="-1.52205">
        <ele>9.7</ele>
        <time>2024-01-25T15:11:49Z</time>
      </trkpt>
      <trkpt lat="48.72464" lon="-1.52209">
        <ele>9.7</ele>
        <time>2024-01-25T15:11:50Z</time>
      </trkpt>
      <trkpt lat="48.72468" lon="-1.52214">
        <ele>9.7</ele>
        <time>2024-01-25T15:11:51Z</time>
      </trkpt>
      <trkpt lat="48.72472" lon="-1.52217">
        <ele>9.7</ele>
        <time>2024-01-25T15:11:52Z</time>
      </trkpt>
      <trkpt lat="48.72476" lon="-1.52221">
        <ele>9.8</ele>
        <time>2024-01-25T15:11:53Z</time>
      </trkpt>
      <trkpt lat="48.72479" lon="-1.52223">
        <ele>9.8</ele>
        <time>2024-01-25T15:11:54Z</time>
      </trkpt>
      <trkpt lat="48.72483" lon="-1.52225">
        <ele>9.8</ele>
        <time>2024-01-25T15:11:55Z</time>
      </trkpt>
      <trkpt lat="48.72484" lon="-1.52226">
        <ele>9.8</ele>
        <time>2024-01-25T15:11:56Z</time>
      </trkpt>
      <trkpt lat="48.72487" lon="-1.52229">
        <ele>9.8</ele>
        <time>2024-01-25T15:11:57Z</time>
      </trkpt>
      <trkpt lat="48.72488" lon="-1.5223">
        <ele>9.8</ele>
        <time>2024-01-25T15:11:58Z</time>
      </trkpt>
      <trkpt lat="48.7249" lon="-1.52233">
        <ele>9.8</ele>
        <time>2024-01-25T15:11:59Z</time>
      </trkpt>
      <trkpt lat="48.72488" lon="-1.52235">
        <ele>9.8</ele>
        <time>2024-01-25T15:12:00Z</time>
      </trkpt>
      <trkpt lat="48.72484" lon="-1.52238">
        <ele>9.9</ele>
        <time>2024-01-25T15:12:01Z</time>
      </trkpt>
      <trkpt lat="48.72481" lon="-1.5224">
        <ele>10</ele>
        <time>2024-01-25T15:12:02Z</time>
      </trkpt>
      <trkpt lat="48.72477" lon="-1.52244">
        <ele>10</ele>
        <time>2024-01-25T15:12:03Z</time>
      </trkpt>
      <trkpt lat="48.72474" lon="-1.5225">
        <ele>10.1</ele>
        <time>2024-01-25T15:12:04Z</time>
      </trkpt>
      <trkpt lat="48.7247" lon="-1.52254">
        <ele>10.2</ele>
        <time>2024-01-25T15:12:05Z</time>
      </trkpt>
      <trkpt lat="48.72467" lon="-1.52257">
        <ele>10.2</ele>
        <time>2024-01-25T15:12:06Z</time>
      </trkpt>
      <trkpt lat="48.72463" lon="-1.5226">
        <ele>10.3</ele>
        <time>2024-01-25T15:12:07Z</time>
      </trkpt>
      <trkpt lat="48.7246" lon="-1.52264">
        <ele>10.4</ele>
        <time>2024-01-25T15:12:08Z</time>
      </trkpt>
      <trkpt lat="48.72457" lon="-1.52266">
        <ele>10.5</ele>
        <time>2024-01-25T15:12:09Z</time>
      </trkpt>
      <trkpt lat="48.72452" lon="-1.52269">
        <ele>10.6</ele>
        <time>2024-01-25T15:12:10Z</time>
      </trkpt>
      <trkpt lat="48.72448" lon="-1.52273">
        <ele>10.6</ele>
        <time>2024-01-25T15:12:11Z</time>
      </trkpt>
      <trkpt lat="48.72444" lon="-1.52277">
        <ele>10.7</ele>
        <time>2024-01-25T15:12:12Z</time>
      </trkpt>
      <trkpt lat="48.7244" lon="-1.52281">
        <ele>10.8</ele>
        <time>2024-01-25T15:12:13Z</time>
      </trkpt>
      <trkpt lat="48.72436" lon="-1.52285">
        <ele>10.9</ele>
        <time>2024-01-25T15:12:14Z</time>
      </trkpt>
      <trkpt lat="48.72433" lon="-1.52289">
        <ele>11</ele>
        <time>2024-01-25T15:12:15Z</time>
      </trkpt>
      <trkpt lat="48.72429" lon="-1.52292">
        <ele>11</ele>
        <time>2024-01-25T15:12:16Z</time>
      </trkpt>
      <trkpt lat="48.72424" lon="-1.52296">
        <ele>11</ele>
        <time>2024-01-25T15:12:17Z</time>
      </trkpt>
      <trkpt lat="48.7242" lon="-1.52299">
        <ele>11</ele>
        <time>2024-01-25T15:12:18Z</time>
      </trkpt>
      <trkpt lat="48.72417" lon="-1.52304">
        <ele>10.9</ele>
        <time>2024-01-25T15:12:19Z</time>
      </trkpt>
      <trkpt lat="48.72413" lon="-1.52308">
        <ele>10.9</ele>
        <time>2024-01-25T15:12:20Z</time>
      </trkpt>
      <trkpt lat="48.72409" lon="-1.52313">
        <ele>10.8</ele>
        <time>2024-01-25T15:12:21Z</time>
      </trkpt>
      <trkpt lat="48.72404" lon="-1.52317">
        <ele>10.7</ele>
        <time>2024-01-25T15:12:22Z</time>
      </trkpt>
      <trkpt lat="48.724" lon="-1.52322">
        <ele>10.6</ele>
        <time>2024-01-25T15:12:23Z</time>
      </trkpt>
      <trkpt lat="48.72395" lon="-1.52327">
        <ele>10.5</ele>
        <time>2024-01-25T15:12:24Z</time>
      </trkpt>
      <trkpt lat="48.7239" lon="-1.52332">
        <ele>10.4</ele>
        <time>2024-01-25T15:12:25Z</time>
      </trkpt>
      <trkpt lat="48.72386" lon="-1.52338">
        <ele>10.2</ele>
        <time>2024-01-25T15:12:26Z</time>
      </trkpt>
      <trkpt lat="48.72381" lon="-1.52344">
        <ele>10.1</ele>
        <time>2024-01-25T15:12:27Z</time>
      </trkpt>
      <trkpt lat="48.72377" lon="-1.5235">
        <ele>10</ele>
        <time>2024-01-25T15:12:28Z</time>
      </trkpt>
      <trkpt lat="48.72374" lon="-1.52357">
        <ele>10</ele>
        <time>2024-01-25T15:12:29Z</time>
      </trkpt>
      <trkpt lat="48.7237" lon="-1.52364">
        <ele>10</ele>
        <time>2024-01-25T15:12:30Z</time>
      </trkpt>
      <trkpt lat="48.72368" lon="-1.52371">
        <ele>10</ele>
        <time>2024-01-25T15:12:31Z</time>
      </trkpt>
      <trkpt lat="48.72366" lon="-1.52378">
        <ele>10</ele>
        <time>2024-01-25T15:12:32Z</time>
      </trkpt>
      <trkpt lat="48.72364" lon="-1.52384">
        <ele>9.9</ele>
        <time>2024-01-25T15:12:33Z</time>
      </trkpt>
      <trkpt lat="48.72363" lon="-1.52392">
        <ele>9.9</ele>
        <time>2024-01-25T15:12:34Z</time>
      </trkpt>
      <trkpt lat="48.72362" lon="-1.52399">
        <ele>9.9</ele>
        <time>2024-01-25T15:12:35Z</time>
      </trkpt>
      <trkpt lat="48.72361" lon="-1.52407">
        <ele>9.8</ele>
        <time>2024-01-25T15:12:36Z</time>
      </trkpt>
      <trkpt lat="48.72359" lon="-1.52414">
        <ele>9.8</ele>
        <time>2024-01-25T15:12:37Z</time>
      </trkpt>
      <trkpt lat="48.72357" lon="-1.52422">
        <ele>9.8</ele>
        <time>2024-01-25T15:12:38Z</time>
      </trkpt>
      <trkpt lat="48.72356" lon="-1.5243">
        <ele>9.7</ele>
        <time>2024-01-25T15:12:39Z</time>
      </trkpt>
      <trkpt lat="48.72355" lon="-1.52437">
        <ele>9.7</ele>
        <time>2024-01-25T15:12:40Z</time>
      </trkpt>
      <trkpt lat="48.72354" lon="-1.52445">
        <ele>9.7</ele>
        <time>2024-01-25T15:12:41Z</time>
      </trkpt>
      <trkpt lat="48.72354" lon="-1.52453">
        <ele>9.6</ele>
        <time>2024-01-25T15:12:42Z</time>
      </trkpt>
      <trkpt lat="48.72356" lon="-1.5246">
        <ele>9.6</ele>
        <time>2024-01-25T15:12:43Z</time>
      </trkpt>
      <trkpt lat="48.72359" lon="-1.52465">
        <ele>9.6</ele>
        <time>2024-01-25T15:12:44Z</time>
      </trkpt>
      <trkpt lat="48.72363" lon="-1.52468">
        <ele>9.5</ele>
        <time>2024-01-25T15:12:45Z</time>
      </trkpt>
      <trkpt lat="48.72368" lon="-1.52471">
        <ele>9.5</ele>
        <time>2024-01-25T15:12:46Z</time>
      </trkpt>
      <trkpt lat="48.72373" lon="-1.52474">
        <ele>9.5</ele>
        <time>2024-01-25T15:12:47Z</time>
      </trkpt>
      <trkpt lat="48.7238" lon="-1.52476">
        <ele>9.5</ele>
        <time>2024-01-25T15:12:48Z</time>
      </trkpt>
      <trkpt lat="48.72385" lon="-1.52478">
        <ele>9.5</ele>
        <time>2024-01-25T15:12:49Z</time>
      </trkpt>
      <trkpt lat="48.72391" lon="-1.5248">
        <ele>9.5</ele>
        <time>2024-01-25T15:12:50Z</time>
      </trkpt>
      <trkpt lat="48.72396" lon="-1.52482">
        <ele>9.6</ele>
        <time>2024-01-25T15:12:51Z</time>
      </trkpt>
      <trkpt lat="48.724" lon="-1.52483">
        <ele>9.6</ele>
        <time>2024-01-25T15:12:52Z</time>
      </trkpt>
      <trkpt lat="48.72405" lon="-1.52484">
        <ele>9.6</ele>
        <time>2024-01-25T15:12:53Z</time>
      </trkpt>
      <trkpt lat="48.7241" lon="-1.52485">
        <ele>9.6</ele>
        <time>2024-01-25T15:12:54Z</time>
      </trkpt>
      <trkpt lat="48.72415" lon="-1.52487">
        <ele>9.7</ele>
        <time>2024-01-25T15:12:55Z</time>
      </trkpt>
      <trkpt lat="48.7242" lon="-1.52489">
        <ele>9.7</ele>
        <time>2024-01-25T15:12:56Z</time>
      </trkpt>
      <trkpt lat="48.72425" lon="-1.52491">
        <ele>9.7</ele>
        <time>2024-01-25T15:12:57Z</time>
      </trkpt>
      <trkpt lat="48.7243" lon="-1.52494">
        <ele>9.8</ele>
        <time>2024-01-25T15:12:58Z</time>
      </trkpt>
      <trkpt lat="48.72435" lon="-1.52496">
        <ele>9.8</ele>
        <time>2024-01-25T15:12:59Z</time>
      </trkpt>
      <trkpt lat="48.72441" lon="-1.52499">
        <ele>9.8</ele>
        <time>2024-01-25T15:13:00Z</time>
      </trkpt>
      <trkpt lat="48.72446" lon="-1.52501">
        <ele>9.9</ele>
        <time>2024-01-25T15:13:01Z</time>
      </trkpt>
      <trkpt lat="48.72451" lon="-1.52503">
        <ele>9.9</ele>
        <time>2024-01-25T15:13:02Z</time>
      </trkpt>
      <trkpt lat="48.72456" lon="-1.52505">
        <ele>9.9</ele>
        <time>2024-01-25T15:13:03Z</time>
      </trkpt>
      <trkpt lat="48.7246" lon="-1.52506">
        <ele>9.9</ele>
        <time>2024-01-25T15:13:04Z</time>
      </trkpt>
      <trkpt lat="48.72465" lon="-1.52507">
        <ele>10</ele>
        <time>2024-01-25T15:13:05Z</time>
      </trkpt>
      <trkpt lat="48.72469" lon="-1.52508">
        <ele>10</ele>
        <time>2024-01-25T15:13:06Z</time>
      </trkpt>
      <trkpt lat="48.72474" lon="-1.5251">
        <ele>10</ele>
        <time>2024-01-25T15:13:07Z</time>
      </trkpt>
      <trkpt lat="48.72479" lon="-1.52512">
        <ele>10.1</ele>
        <time>2024-01-25T15:13:08Z</time>
      </trkpt>
      <trkpt lat="48.72483" lon="-1.52514">
        <ele>10.1</ele>
        <time>2024-01-25T15:13:09Z</time>
      </trkpt>
      <trkpt lat="48.72488" lon="-1.52516">
        <ele>10.1</ele>
        <time>2024-01-25T15:13:10Z</time>
      </trkpt>
      <trkpt lat="48.72493" lon="-1.52519">
        <ele>10.1</ele>
        <time>2024-01-25T15:13:11Z</time>
      </trkpt>
      <trkpt lat="48.72498" lon="-1.52521">
        <ele>10.1</ele>
        <time>2024-01-25T15:13:12Z</time>
      </trkpt>
      <trkpt lat="48.72502" lon="-1.52523">
        <ele>10.2</ele>
        <time>2024-01-25T15:13:13Z</time>
      </trkpt>
      <trkpt lat="48.72507" lon="-1.52526">
        <ele>10.2</ele>
        <time>2024-01-25T15:13:14Z</time>
      </trkpt>
      <trkpt lat="48.72511" lon="-1.52528">
        <ele>10.2</ele>
        <time>2024-01-25T15:13:15Z</time>
      </trkpt>
      <trkpt lat="48.72516" lon="-1.52531">
        <ele>10.2</ele>
        <time>2024-01-25T15:13:16Z</time>
      </trkpt>
      <trkpt lat="48.72521" lon="-1.52534">
        <ele>10.2</ele>
        <time>2024-01-25T15:13:17Z</time>
      </trkpt>
      <trkpt lat="48.72526" lon="-1.52537">
        <ele>10.2</ele>
        <time>2024-01-25T15:13:18Z</time>
      </trkpt>
      <trkpt lat="48.72531" lon="-1.52539">
        <ele>10.2</ele>
        <time>2024-01-25T15:13:19Z</time>
      </trkpt>
      <trkpt lat="48.72536" lon="-1.52541">
        <ele>10.2</ele>
        <time>2024-01-25T15:13:20Z</time>
      </trkpt>
      <trkpt lat="48.72542" lon="-1.52543">
        <ele>10.1</ele>
        <time>2024-01-25T15:13:21Z</time>
      </trkpt>
      <trkpt lat="48.72547" lon="-1.52545">
        <ele>10.1</ele>
        <time>2024-01-25T15:13:22Z</time>
      </trkpt>
      <trkpt lat="48.72553" lon="-1.52546">
        <ele>10.1</ele>
        <time>2024-01-25T15:13:23Z</time>
      </trkpt>
      <trkpt lat="48.72557" lon="-1.52548">
        <ele>10.1</ele>
        <time>2024-01-25T15:13:24Z</time>
      </trkpt>
      <trkpt lat="48.72562" lon="-1.5255">
        <ele>10</ele>
        <time>2024-01-25T15:13:25Z</time>
      </trkpt>
      <trkpt lat="48.72568" lon="-1.52552">
        <ele>10</ele>
        <time>2024-01-25T15:13:26Z</time>
      </trkpt>
      <trkpt lat="48.72573" lon="-1.52553">
        <ele>10</ele>
        <time>2024-01-25T15:13:27Z</time>
      </trkpt>
      <trkpt lat="48.72578" lon="-1.52555">
        <ele>9.9</ele>
        <time>2024-01-25T15:13:28Z</time>
      </trkpt>
      <trkpt lat="48.72583" lon="-1.52557">
        <ele>9.9</ele>
        <time>2024-01-25T15:13:29Z</time>
      </trkpt>
      <trkpt lat="48.72589" lon="-1.52559">
        <ele>9.9</ele>
        <time>2024-01-25T15:13:30Z</time>
      </trkpt>
      <trkpt lat="48.72594" lon="-1.52561">
        <ele>9.9</ele>
        <time>2024-01-25T15:13:31Z</time>
      </trkpt>
      <trkpt lat="48.726" lon="-1.52563">
        <ele>9.8</ele>
        <time>2024-01-25T15:13:32Z</time>
      </trkpt>
      <trkpt lat="48.72605" lon="-1.52564">
        <ele>9.8</ele>
        <time>2024-01-25T15:13:33Z</time>
      </trkpt>
      <trkpt lat="48.72611" lon="-1.52566">
        <ele>9.8</ele>
        <time>2024-01-25T15:13:34Z</time>
      </trkpt>
      <trkpt lat="48.72617" lon="-1.52567">
        <ele>9.8</ele>
        <time>2024-01-25T15:13:35Z</time>
      </trkpt>
      <trkpt lat="48.72623" lon="-1.52569">
        <ele>9.8</ele>
        <time>2024-01-25T15:13:36Z</time>
      </trkpt>
      <trkpt lat="48.72628" lon="-1.5257">
        <ele>9.8</ele>
        <time>2024-01-25T15:13:37Z</time>
      </trkpt>
      <trkpt lat="48.72634" lon="-1.52572">
        <ele>9.8</ele>
        <time>2024-01-25T15:13:38Z</time>
      </trkpt>
      <trkpt lat="48.72639" lon="-1.52574">
        <ele>9.8</ele>
        <time>2024-01-25T15:13:39Z</time>
      </trkpt>
      <trkpt lat="48.72645" lon="-1.52576">
        <ele>9.8</ele>
        <time>2024-01-25T15:13:40Z</time>
      </trkpt>
      <trkpt lat="48.7265" lon="-1.52578">
        <ele>9.9</ele>
        <time>2024-01-25T15:13:41Z</time>
      </trkpt>
      <trkpt lat="48.72656" lon="-1.5258">
        <ele>9.9</ele>
        <time>2024-01-25T15:13:42Z</time>
      </trkpt>
      <trkpt lat="48.72661" lon="-1.52583">
        <ele>9.9</ele>
        <time>2024-01-25T15:13:43Z</time>
      </trkpt>
      <trkpt lat="48.72667" lon="-1.52585">
        <ele>9.9</ele>
        <time>2024-01-25T15:13:44Z</time>
      </trkpt>
      <trkpt lat="48.72672" lon="-1.52588">
        <ele>10</ele>
        <time>2024-01-25T15:13:45Z</time>
      </trkpt>
      <trkpt lat="48.72677" lon="-1.52591">
        <ele>10</ele>
        <time>2024-01-25T15:13:46Z</time>
      </trkpt>
      <trkpt lat="48.72682" lon="-1.52595">
        <ele>10.1</ele>
        <time>2024-01-25T15:13:47Z</time>
      </trkpt>
      <trkpt lat="48.72687" lon="-1.52598">
        <ele>10.1</ele>
        <time>2024-01-25T15:13:48Z</time>
      </trkpt>
      <trkpt lat="48.72691" lon="-1.52602">
        <ele>10.2</ele>
        <time>2024-01-25T15:13:49Z</time>
      </trkpt>
      <trkpt lat="48.72697" lon="-1.52604">
        <ele>10.2</ele>
        <time>2024-01-25T15:13:50Z</time>
      </trkpt>
      <trkpt lat="48.72702" lon="-1.52604">
        <ele>10.2</ele>
        <time>2024-01-25T15:13:51Z</time>
      </trkpt>
      <trkpt lat="48.72707" lon="-1.52602">
        <ele>10.3</ele>
        <time>2024-01-25T15:13:52Z</time>
      </trkpt>
      <trkpt lat="48.72712" lon="-1.52599">
        <ele>10.3</ele>
        <time>2024-01-25T15:13:53Z</time>
      </trkpt>
      <trkpt lat="48.72716" lon="-1.52595">
        <ele>10.3</ele>
        <time>2024-01-25T15:13:54Z</time>
      </trkpt>
      <trkpt lat="48.7272" lon="-1.52591">
        <ele>10.4</ele>
        <time>2024-01-25T15:13:55Z</time>
      </trkpt>
      <trkpt lat="48.72723" lon="-1.52588">
        <ele>10.4</ele>
        <time>2024-01-25T15:13:56Z</time>
      </trkpt>
      <trkpt lat="48.72727" lon="-1.52585">
        <ele>10.4</ele>
        <time>2024-01-25T15:13:57Z</time>
      </trkpt>
      <trkpt lat="48.72732" lon="-1.52581">
        <ele>10.4</ele>
        <time>2024-01-25T15:13:58Z</time>
      </trkpt>
      <trkpt lat="48.72736" lon="-1.52578">
        <ele>10.4</ele>
        <time>2024-01-25T15:13:59Z</time>
      </trkpt>
      <trkpt lat="48.72739" lon="-1.52575">
        <ele>10.4</ele>
        <time>2024-01-25T15:14:00Z</time>
      </trkpt>
      <trkpt lat="48.72743" lon="-1.52572">
        <ele>10.3</ele>
        <time>2024-01-25T15:14:01Z</time>
      </trkpt>
      <trkpt lat="48.72746" lon="-1.52568">
        <ele>10.3</ele>
        <time>2024-01-25T15:14:02Z</time>
      </trkpt>
      <trkpt lat="48.72752" lon="-1.52563">
        <ele>10.2</ele>
        <time>2024-01-25T15:14:04Z</time>
      </trkpt>
      <trkpt lat="48.72756" lon="-1.5256">
        <ele>10.1</ele>
        <time>2024-01-25T15:14:05Z</time>
      </trkpt>
      <trkpt lat="48.7276" lon="-1.52557">
        <ele>10.1</ele>
        <time>2024-01-25T15:14:07Z</time>
      </trkpt>
      <trkpt lat="48.72764" lon="-1.52557">
        <ele>10</ele>
        <time>2024-01-25T15:14:08Z</time>
      </trkpt>
      <trkpt lat="48.72768" lon="-1.52557">
        <ele>10</ele>
        <time>2024-01-25T15:14:09Z</time>
      </trkpt>
      <trkpt lat="48.72772" lon="-1.52558">
        <ele>9.9</ele>
        <time>2024-01-25T15:14:10Z</time>
      </trkpt>
      <trkpt lat="48.72778" lon="-1.5256">
        <ele>9.9</ele>
        <time>2024-01-25T15:14:11Z</time>
      </trkpt>
      <trkpt lat="48.72789" lon="-1.52564">
        <ele>9.8</ele>
        <time>2024-01-25T15:14:12Z</time>
      </trkpt>
      <trkpt lat="48.72794" lon="-1.52571">
        <ele>9.7</ele>
        <time>2024-01-25T15:14:13Z</time>
      </trkpt>
      <trkpt lat="48.72799" lon="-1.52578">
        <ele>9.6</ele>
        <time>2024-01-25T15:14:14Z</time>
      </trkpt>
      <trkpt lat="48.72802" lon="-1.52585">
        <ele>9.6</ele>
        <time>2024-01-25T15:14:15Z</time>
      </trkpt>
      <trkpt lat="48.72806" lon="-1.52593">
        <ele>9.5</ele>
        <time>2024-01-25T15:14:16Z</time>
      </trkpt>
      <trkpt lat="48.7281" lon="-1.526">
        <ele>9.5</ele>
        <time>2024-01-25T15:14:17Z</time>
      </trkpt>
      <trkpt lat="48.72814" lon="-1.52607">
        <ele>9.5</ele>
        <time>2024-01-25T15:14:18Z</time>
      </trkpt>
      <trkpt lat="48.72818" lon="-1.52614">
        <ele>9.4</ele>
        <time>2024-01-25T15:14:19Z</time>
      </trkpt>
      <trkpt lat="48.72822" lon="-1.52621">
        <ele>9.4</ele>
        <time>2024-01-25T15:14:20Z</time>
      </trkpt>
      <trkpt lat="48.72826" lon="-1.52627">
        <ele>9.5</ele>
        <time>2024-01-25T15:14:21Z</time>
      </trkpt>
      <trkpt lat="48.7283" lon="-1.52634">
        <ele>9.5</ele>
        <time>2024-01-25T15:14:22Z</time>
      </trkpt>
      <trkpt lat="48.72833" lon="-1.5264">
        <ele>9.5</ele>
        <time>2024-01-25T15:14:23Z</time>
      </trkpt>
      <trkpt lat="48.72837" lon="-1.52645">
        <ele>9.5</ele>
        <time>2024-01-25T15:14:24Z</time>
      </trkpt>
      <trkpt lat="48.72841" lon="-1.5265">
        <ele>9.6</ele>
        <time>2024-01-25T15:14:25Z</time>
      </trkpt>
      <trkpt lat="48.72844" lon="-1.52656">
        <ele>9.6</ele>
        <time>2024-01-25T15:14:26Z</time>
      </trkpt>
      <trkpt lat="48.72847" lon="-1.52662">
        <ele>9.6</ele>
        <time>2024-01-25T15:14:27Z</time>
      </trkpt>
      <trkpt lat="48.72851" lon="-1.52666">
        <ele>9.7</ele>
        <time>2024-01-25T15:14:28Z</time>
      </trkpt>
      <trkpt lat="48.72854" lon="-1.52671">
        <ele>9.7</ele>
        <time>2024-01-25T15:14:29Z</time>
      </trkpt>
      <trkpt lat="48.72857" lon="-1.52676">
        <ele>9.7</ele>
        <time>2024-01-25T15:14:30Z</time>
      </trkpt>
      <trkpt lat="48.72861" lon="-1.52681">
        <ele>9.7</ele>
        <time>2024-01-25T15:14:31Z</time>
      </trkpt>
      <trkpt lat="48.72864" lon="-1.52686">
        <ele>9.8</ele>
        <time>2024-01-25T15:14:32Z</time>
      </trkpt>
      <trkpt lat="48.72868" lon="-1.52691">
        <ele>9.8</ele>
        <time>2024-01-25T15:14:33Z</time>
      </trkpt>
      <trkpt lat="48.72872" lon="-1.52696">
        <ele>9.8</ele>
        <time>2024-01-25T15:14:34Z</time>
      </trkpt>
      <trkpt lat="48.72876" lon="-1.52702">
        <ele>9.9</ele>
        <time>2024-01-25T15:14:35Z</time>
      </trkpt>
      <trkpt lat="48.7288" lon="-1.52708">
        <ele>9.9</ele>
        <time>2024-01-25T15:14:36Z</time>
      </trkpt>
      <trkpt lat="48.72884" lon="-1.52713">
        <ele>9.9</ele>
        <time>2024-01-25T15:14:37Z</time>
      </trkpt>
      <trkpt lat="48.72888" lon="-1.52719">
        <ele>9.9</ele>
        <time>2024-01-25T15:14:38Z</time>
      </trkpt>
      <trkpt lat="48.72892" lon="-1.52724">
        <ele>9.9</ele>
        <time>2024-01-25T15:14:39Z</time>
      </trkpt>
      <trkpt lat="48.72897" lon="-1.5273">
        <ele>9.9</ele>
        <time>2024-01-25T15:14:40Z</time>
      </trkpt>
      <trkpt lat="48.72901" lon="-1.52736">
        <ele>9.9</ele>
        <time>2024-01-25T15:14:41Z</time>
      </trkpt>
      <trkpt lat="48.72906" lon="-1.52741">
        <ele>9.8</ele>
        <time>2024-01-25T15:14:42Z</time>
      </trkpt>
      <trkpt lat="48.7291" lon="-1.52747">
        <ele>9.8</ele>
        <time>2024-01-25T15:14:43Z</time>
      </trkpt>
      <trkpt lat="48.72915" lon="-1.52753">
        <ele>9.8</ele>
        <time>2024-01-25T15:14:44Z</time>
      </trkpt>
      <trkpt lat="48.7292" lon="-1.52759">
        <ele>9.7</ele>
        <time>2024-01-25T15:14:45Z</time>
      </trkpt>
      <trkpt lat="48.72924" lon="-1.52764">
        <ele>9.7</ele>
        <time>2024-01-25T15:14:46Z</time>
      </trkpt>
      <trkpt lat="48.72928" lon="-1.5277">
        <ele>9.7</ele>
        <time>2024-01-25T15:14:47Z</time>
      </trkpt>
      <trkpt lat="48.72932" lon="-1.52776">
        <ele>9.7</ele>
        <time>2024-01-25T15:14:48Z</time>
      </trkpt>
      <trkpt lat="48.72936" lon="-1.52782">
        <ele>9.7</ele>
        <time>2024-01-25T15:14:49Z</time>
      </trkpt>
      <trkpt lat="48.7294" lon="-1.52789">
        <ele>9.7</ele>
        <time>2024-01-25T15:14:50Z</time>
      </trkpt>
      <trkpt lat="48.72944" lon="-1.52795">
        <ele>9.7</ele>
        <time>2024-01-25T15:14:51Z</time>
      </trkpt>
      <trkpt lat="48.72948" lon="-1.52801">
        <ele>9.7</ele>
        <time>2024-01-25T15:14:52Z</time>
      </trkpt>
      <trkpt lat="48.72953" lon="-1.52806">
        <ele>9.7</ele>
        <time>2024-01-25T15:14:53Z</time>
      </trkpt>
      <trkpt lat="48.72957" lon="-1.52811">
        <ele>9.7</ele>
        <time>2024-01-25T15:14:54Z</time>
      </trkpt>
      <trkpt lat="48.72963" lon="-1.52817">
        <ele>9.7</ele>
        <time>2024-01-25T15:14:55Z</time>
      </trkpt>
      <trkpt lat="48.72968" lon="-1.52821">
        <ele>9.7</ele>
        <time>2024-01-25T15:14:56Z</time>
      </trkpt>
      <trkpt lat="48.72973" lon="-1.52826">
        <ele>9.7</ele>
        <time>2024-01-25T15:14:57Z</time>
      </trkpt>
      <trkpt lat="48.72977" lon="-1.52831">
        <ele>9.7</ele>
        <time>2024-01-25T15:14:58Z</time>
      </trkpt>
      <trkpt lat="48.72982" lon="-1.52837">
        <ele>9.8</ele>
        <time>2024-01-25T15:14:59Z</time>
      </trkpt>
      <trkpt lat="48.72986" lon="-1.52842">
        <ele>9.8</ele>
        <time>2024-01-25T15:15:00Z</time>
      </trkpt>
      <trkpt lat="48.72991" lon="-1.52847">
        <ele>9.9</ele>
        <time>2024-01-25T15:15:01Z</time>
      </trkpt>
      <trkpt lat="48.72994" lon="-1.52851">
        <ele>9.9</ele>
        <time>2024-01-25T15:15:02Z</time>
      </trkpt>
      <trkpt lat="48.72998" lon="-1.52855">
        <ele>10</ele>
        <time>2024-01-25T15:15:03Z</time>
      </trkpt>
      <trkpt lat="48.73003" lon="-1.52859">
        <ele>10.1</ele>
        <time>2024-01-25T15:15:04Z</time>
      </trkpt>
      <trkpt lat="48.73008" lon="-1.52861">
        <ele>10.1</ele>
        <time>2024-01-25T15:15:05Z</time>
      </trkpt>
      <trkpt lat="48.73012" lon="-1.52861">
        <ele>10.2</ele>
        <time>2024-01-25T15:15:06Z</time>
      </trkpt>
      <trkpt lat="48.73016" lon="-1.52859">
        <ele>10.2</ele>
        <time>2024-01-25T15:15:07Z</time>
      </trkpt>
      <trkpt lat="48.73019" lon="-1.52855">
        <ele>10.3</ele>
        <time>2024-01-25T15:15:08Z</time>
      </trkpt>
      <trkpt lat="48.73022" lon="-1.52849">
        <ele>10.4</ele>
        <time>2024-01-25T15:15:09Z</time>
      </trkpt>
      <trkpt lat="48.73024" lon="-1.52843">
        <ele>10.5</ele>
        <time>2024-01-25T15:15:10Z</time>
      </trkpt>
      <trkpt lat="48.73026" lon="-1.52837">
        <ele>10.6</ele>
        <time>2024-01-25T15:15:11Z</time>
      </trkpt>
      <trkpt lat="48.73028" lon="-1.52831">
        <ele>10.7</ele>
        <time>2024-01-25T15:15:12Z</time>
      </trkpt>
      <trkpt lat="48.73031" lon="-1.52824">
        <ele>10.8</ele>
        <time>2024-01-25T15:15:13Z</time>
      </trkpt>
      <trkpt lat="48.73032" lon="-1.52816">
        <ele>10.9</ele>
        <time>2024-01-25T15:15:14Z</time>
      </trkpt>
      <trkpt lat="48.73033" lon="-1.5281">
        <ele>11</ele>
        <time>2024-01-25T15:15:15Z</time>
      </trkpt>
      <trkpt lat="48.73035" lon="-1.52802">
        <ele>11.1</ele>
        <time>2024-01-25T15:15:16Z</time>
      </trkpt>
      <trkpt lat="48.73037" lon="-1.52794">
        <ele>11.2</ele>
        <time>2024-01-25T15:15:17Z</time>
      </trkpt>
      <trkpt lat="48.73038" lon="-1.52787">
        <ele>11.4</ele>
        <time>2024-01-25T15:15:18Z</time>
      </trkpt>
      <trkpt lat="48.7304" lon="-1.5278">
        <ele>11.4</ele>
        <time>2024-01-25T15:15:19Z</time>
      </trkpt>
      <trkpt lat="48.73041" lon="-1.52771">
        <ele>11.4</ele>
        <time>2024-01-25T15:15:20Z</time>
      </trkpt>
      <trkpt lat="48.73043" lon="-1.52762">
        <ele>11.4</ele>
        <time>2024-01-25T15:15:21Z</time>
      </trkpt>
      <trkpt lat="48.73045" lon="-1.52753">
        <ele>11.4</ele>
        <time>2024-01-25T15:15:22Z</time>
      </trkpt>
      <trkpt lat="48.73046" lon="-1.52744">
        <ele>11.5</ele>
        <time>2024-01-25T15:15:23Z</time>
      </trkpt>
      <trkpt lat="48.73047" lon="-1.52735">
        <ele>11.5</ele>
        <time>2024-01-25T15:15:24Z</time>
      </trkpt>
      <trkpt lat="48.73048" lon="-1.52726">
        <ele>11.5</ele>
        <time>2024-01-25T15:15:25Z</time>
      </trkpt>
      <trkpt lat="48.73048" lon="-1.52718">
        <ele>11.5</ele>
        <time>2024-01-25T15:15:26Z</time>
      </trkpt>
      <trkpt lat="48.73049" lon="-1.52709">
        <ele>11.5</ele>
        <time>2024-01-25T15:15:27Z</time>
      </trkpt>
      <trkpt lat="48.73051" lon="-1.52701">
        <ele>11.6</ele>
        <time>2024-01-25T15:15:28Z</time>
      </trkpt>
      <trkpt lat="48.73052" lon="-1.52692">
        <ele>11.6</ele>
        <time>2024-01-25T15:15:29Z</time>
      </trkpt>
      <trkpt lat="48.73052" lon="-1.52683">
        <ele>11.6</ele>
        <time>2024-01-25T15:15:30Z</time>
      </trkpt>
      <trkpt lat="48.73053" lon="-1.52675">
        <ele>11.6</ele>
        <time>2024-01-25T15:15:31Z</time>
      </trkpt>
      <trkpt lat="48.73054" lon="-1.52666">
        <ele>11.6</ele>
        <time>2024-01-25T15:15:32Z</time>
      </trkpt>
      <trkpt lat="48.73056" lon="-1.52658">
        <ele>11.6</ele>
        <time>2024-01-25T15:15:33Z</time>
      </trkpt>
      <trkpt lat="48.73058" lon="-1.52649">
        <ele>11.6</ele>
        <time>2024-01-25T15:15:34Z</time>
      </trkpt>
      <trkpt lat="48.73059" lon="-1.52641">
        <ele>11.6</ele>
        <time>2024-01-25T15:15:35Z</time>
      </trkpt>
      <trkpt lat="48.7306" lon="-1.52633">
        <ele>11.6</ele>
        <time>2024-01-25T15:15:36Z</time>
      </trkpt>
      <trkpt lat="48.73062" lon="-1.52624">
        <ele>11.6</ele>
        <time>2024-01-25T15:15:37Z</time>
      </trkpt>
      <trkpt lat="48.73063" lon="-1.52616">
        <ele>11.6</ele>
        <time>2024-01-25T15:15:38Z</time>
      </trkpt>
      <trkpt lat="48.73064" lon="-1.52607">
        <ele>11.6</ele>
        <time>2024-01-25T15:15:39Z</time>
      </trkpt>
      <trkpt lat="48.73065" lon="-1.52599">
        <ele>11.5</ele>
        <time>2024-01-25T15:15:40Z</time>
      </trkpt>
      <trkpt lat="48.73066" lon="-1.5259">
        <ele>11.5</ele>
        <time>2024-01-25T15:15:41Z</time>
      </trkpt>
      <trkpt lat="48.73067" lon="-1.52581">
        <ele>11.5</ele>
        <time>2024-01-25T15:15:42Z</time>
      </trkpt>
      <trkpt lat="48.73067" lon="-1.52573">
        <ele>11.5</ele>
        <time>2024-01-25T15:15:43Z</time>
      </trkpt>
      <trkpt lat="48.73068" lon="-1.52564">
        <ele>11.4</ele>
        <time>2024-01-25T15:15:44Z</time>
      </trkpt>
      <trkpt lat="48.73068" lon="-1.52556">
        <ele>11.4</ele>
        <time>2024-01-25T15:15:45Z</time>
      </trkpt>
      <trkpt lat="48.73069" lon="-1.52548">
        <ele>11.4</ele>
        <time>2024-01-25T15:15:46Z</time>
      </trkpt>
      <trkpt lat="48.73069" lon="-1.52539">
        <ele>11.3</ele>
        <time>2024-01-25T15:15:47Z</time>
      </trkpt>
      <trkpt lat="48.7307" lon="-1.5253">
        <ele>11.3</ele>
        <time>2024-01-25T15:15:48Z</time>
      </trkpt>
      <trkpt lat="48.7307" lon="-1.52522">
        <ele>11.2</ele>
        <time>2024-01-25T15:15:49Z</time>
      </trkpt>
      <trkpt lat="48.73069" lon="-1.52514">
        <ele>11.2</ele>
        <time>2024-01-25T15:15:50Z</time>
      </trkpt>
      <trkpt lat="48.73067" lon="-1.52505">
        <ele>11.1</ele>
        <time>2024-01-25T15:15:51Z</time>
      </trkpt>
      <trkpt lat="48.73065" lon="-1.52497">
        <ele>11</ele>
        <time>2024-01-25T15:15:52Z</time>
      </trkpt>
      <trkpt lat="48.73063" lon="-1.52489">
        <ele>10.9</ele>
        <time>2024-01-25T15:15:53Z</time>
      </trkpt>
      <trkpt lat="48.7306" lon="-1.52481">
        <ele>10.8</ele>
        <time>2024-01-25T15:15:54Z</time>
      </trkpt>
      <trkpt lat="48.73055" lon="-1.52474">
        <ele>10.7</ele>
        <time>2024-01-25T15:15:55Z</time>
      </trkpt>
      <trkpt lat="48.73051" lon="-1.52467">
        <ele>10.6</ele>
        <time>2024-01-25T15:15:56Z</time>
      </trkpt>
      <trkpt lat="48.73047" lon="-1.52459">
        <ele>10.5</ele>
        <time>2024-01-25T15:15:57Z</time>
      </trkpt>
      <trkpt lat="48.73043" lon="-1.52452">
        <ele>10.5</ele>
        <time>2024-01-25T15:15:58Z</time>
      </trkpt>
      <trkpt lat="48.7304" lon="-1.52444">
        <ele>10.4</ele>
        <time>2024-01-25T15:15:59Z</time>
      </trkpt>
      <trkpt lat="48.73038" lon="-1.52434">
        <ele>10.3</ele>
        <time>2024-01-25T15:16:00Z</time>
      </trkpt>
      <trkpt lat="48.73037" lon="-1.52424">
        <ele>10.2</ele>
        <time>2024-01-25T15:16:01Z</time>
      </trkpt>
      <trkpt lat="48.73036" lon="-1.52414">
        <ele>10.1</ele>
        <time>2024-01-25T15:16:02Z</time>
      </trkpt>
      <trkpt lat="48.73036" lon="-1.52404">
        <ele>10.1</ele>
        <time>2024-01-25T15:16:03Z</time>
      </trkpt>
      <trkpt lat="48.73035" lon="-1.52394">
        <ele>10</ele>
        <time>2024-01-25T15:16:04Z</time>
      </trkpt>
      <trkpt lat="48.73034" lon="-1.52385">
        <ele>10</ele>
        <time>2024-01-25T15:16:05Z</time>
      </trkpt>
      <trkpt lat="48.73034" lon="-1.52375">
        <ele>10</ele>
        <time>2024-01-25T15:16:06Z</time>
      </trkpt>
      <trkpt lat="48.73033" lon="-1.52365">
        <ele>10</ele>
        <time>2024-01-25T15:16:07Z</time>
      </trkpt>
      <trkpt lat="48.73033" lon="-1.52355">
        <ele>10</ele>
        <time>2024-01-25T15:16:08Z</time>
      </trkpt>
      <trkpt lat="48.73032" lon="-1.52345">
        <ele>10</ele>
        <time>2024-01-25T15:16:09Z</time>
      </trkpt>
      <trkpt lat="48.73031" lon="-1.52337">
        <ele>10.1</ele>
        <time>2024-01-25T15:16:10Z</time>
      </trkpt>
      <trkpt lat="48.73031" lon="-1.52328">
        <ele>10.2</ele>
        <time>2024-01-25T15:16:11Z</time>
      </trkpt>
      <trkpt lat="48.7303" lon="-1.5232">
        <ele>10.2</ele>
        <time>2024-01-25T15:16:12Z</time>
      </trkpt>
      <trkpt lat="48.7303" lon="-1.52313">
        <ele>10.3</ele>
        <time>2024-01-25T15:16:13Z</time>
      </trkpt>
      <trkpt lat="48.73031" lon="-1.52305">
        <ele>10.4</ele>
        <time>2024-01-25T15:16:14Z</time>
      </trkpt>
      <trkpt lat="48.73032" lon="-1.52298">
        <ele>10.5</ele>
        <time>2024-01-25T15:16:15Z</time>
      </trkpt>
      <trkpt lat="48.73034" lon="-1.52291">
        <ele>10.5</ele>
        <time>2024-01-25T15:16:16Z</time>
      </trkpt>
      <trkpt lat="48.73036" lon="-1.52284">
        <ele>10.6</ele>
        <time>2024-01-25T15:16:17Z</time>
      </trkpt>
      <trkpt lat="48.73037" lon="-1.52277">
        <ele>10.7</ele>
        <time>2024-01-25T15:16:18Z</time>
      </trkpt>
      <trkpt lat="48.73039" lon="-1.5227">
        <ele>10.8</ele>
        <time>2024-01-25T15:16:19Z</time>
      </trkpt>
      <trkpt lat="48.73041" lon="-1.52263">
        <ele>11</ele>
        <time>2024-01-25T15:16:20Z</time>
      </trkpt>
      <trkpt lat="48.73043" lon="-1.52257">
        <ele>11.1</ele>
        <time>2024-01-25T15:16:21Z</time>
      </trkpt>
      <trkpt lat="48.73044" lon="-1.52251">
        <ele>11.2</ele>
        <time>2024-01-25T15:16:22Z</time>
      </trkpt>
      <trkpt lat="48.73046" lon="-1.52244">
        <ele>11.3</ele>
        <time>2024-01-25T15:16:23Z</time>
      </trkpt>
      <trkpt lat="48.73047" lon="-1.52239">
        <ele>11.5</ele>
        <time>2024-01-25T15:16:24Z</time>
      </trkpt>
      <trkpt lat="48.73049" lon="-1.52232">
        <ele>11.6</ele>
        <time>2024-01-25T15:16:25Z</time>
      </trkpt>
      <trkpt lat="48.73051" lon="-1.52225">
        <ele>11.8</ele>
        <time>2024-01-25T15:16:26Z</time>
      </trkpt>
      <trkpt lat="48.73053" lon="-1.52218">
        <ele>11.9</ele>
        <time>2024-01-25T15:16:27Z</time>
      </trkpt>
      <trkpt lat="48.73054" lon="-1.5221">
        <ele>12</ele>
        <time>2024-01-25T15:16:28Z</time>
      </trkpt>
      <trkpt lat="48.73055" lon="-1.52203">
        <ele>12.1</ele>
        <time>2024-01-25T15:16:29Z</time>
      </trkpt>
      <trkpt lat="48.73056" lon="-1.52196">
        <ele>12.2</ele>
        <time>2024-01-25T15:16:30Z</time>
      </trkpt>
      <trkpt lat="48.73056" lon="-1.52191">
        <ele>12.3</ele>
        <time>2024-01-25T15:16:31Z</time>
      </trkpt>
      <trkpt lat="48.73058" lon="-1.52182">
        <ele>12.5</ele>
        <time>2024-01-25T15:16:32Z</time>
      </trkpt>
      <trkpt lat="48.7306" lon="-1.52174">
        <ele>12.7</ele>
        <time>2024-01-25T15:16:33Z</time>
      </trkpt>
      <trkpt lat="48.73061" lon="-1.52166">
        <ele>12.8</ele>
        <time>2024-01-25T15:16:34Z</time>
      </trkpt>
      <trkpt lat="48.73061" lon="-1.5216">
        <ele>13</ele>
        <time>2024-01-25T15:16:35Z</time>
      </trkpt>
      <trkpt lat="48.73061" lon="-1.52153">
        <ele>13.1</ele>
        <time>2024-01-25T15:16:36Z</time>
      </trkpt>
      <trkpt lat="48.73061" lon="-1.52146">
        <ele>13.2</ele>
        <time>2024-01-25T15:16:37Z</time>
      </trkpt>
      <trkpt lat="48.73064" lon="-1.52134">
        <ele>13.4</ele>
        <time>2024-01-25T15:16:39Z</time>
      </trkpt>
      <trkpt lat="48.73066" lon="-1.52125">
        <ele>13.5</ele>
        <time>2024-01-25T15:16:40Z</time>
      </trkpt>
      <trkpt lat="48.73066" lon="-1.52118">
        <ele>13.5</ele>
        <time>2024-01-25T15:16:41Z</time>
      </trkpt>
      <trkpt lat="48.73066" lon="-1.52111">
        <ele>13.5</ele>
        <time>2024-01-25T15:16:42Z</time>
      </trkpt>
      <trkpt lat="48.73066" lon="-1.52104">
        <ele>13.5</ele>
        <time>2024-01-25T15:16:43Z</time>
      </trkpt>
      <trkpt lat="48.73066" lon="-1.52097">
        <ele>13.6</ele>
        <time>2024-01-25T15:16:44Z</time>
      </trkpt>
      <trkpt lat="48.73065" lon="-1.52089">
        <ele>13.6</ele>
        <time>2024-01-25T15:16:45Z</time>
      </trkpt>
      <trkpt lat="48.73063" lon="-1.52081">
        <ele>13.6</ele>
        <time>2024-01-25T15:16:46Z</time>
      </trkpt>
      <trkpt lat="48.73063" lon="-1.52073">
        <ele>13.6</ele>
        <time>2024-01-25T15:16:47Z</time>
      </trkpt>
      <trkpt lat="48.73063" lon="-1.52065">
        <ele>13.6</ele>
        <time>2024-01-25T15:16:48Z</time>
      </trkpt>
      <trkpt lat="48.73062" lon="-1.52057">
        <ele>13.6</ele>
        <time>2024-01-25T15:16:49Z</time>
      </trkpt>
      <trkpt lat="48.73062" lon="-1.52049">
        <ele>13.7</ele>
        <time>2024-01-25T15:16:50Z</time>
      </trkpt>
      <trkpt lat="48.73062" lon="-1.52041">
        <ele>13.7</ele>
        <time>2024-01-25T15:16:51Z</time>
      </trkpt>
      <trkpt lat="48.73062" lon="-1.52034">
        <ele>13.7</ele>
        <time>2024-01-25T15:16:52Z</time>
      </trkpt>
      <trkpt lat="48.73061" lon="-1.52027">
        <ele>13.8</ele>
        <time>2024-01-25T15:16:53Z</time>
      </trkpt>
      <trkpt lat="48.7306" lon="-1.52021">
        <ele>13.8</ele>
        <time>2024-01-25T15:16:54Z</time>
      </trkpt>
      <trkpt lat="48.73058" lon="-1.52017">
        <ele>13.8</ele>
        <time>2024-01-25T15:16:55Z</time>
      </trkpt>
      <trkpt lat="48.73057" lon="-1.52012">
        <ele>13.9</ele>
        <time>2024-01-25T15:16:56Z</time>
      </trkpt>
      <trkpt lat="48.73054" lon="-1.5201">
        <ele>13.8</ele>
        <time>2024-01-25T15:16:57Z</time>
      </trkpt>
      <trkpt lat="48.73053" lon="-1.52007">
        <ele>13.8</ele>
        <time>2024-01-25T15:16:58Z</time>
      </trkpt>
      <trkpt lat="48.73051" lon="-1.52004">
        <ele>13.7</ele>
        <time>2024-01-25T15:16:59Z</time>
      </trkpt>
      <trkpt lat="48.73051" lon="-1.52002">
        <ele>13.7</ele>
        <time>2024-01-25T15:17:00Z</time>
      </trkpt>
      <trkpt lat="48.73048" lon="-1.51998">
        <ele>13.6</ele>
        <time>2024-01-25T15:17:01Z</time>
      </trkpt>
      <trkpt lat="48.73047" lon="-1.51998">
        <ele>13.6</ele>
        <time>2024-01-25T15:17:02Z</time>
      </trkpt>
      <trkpt lat="48.73046" lon="-1.51994">
        <ele>13.5</ele>
        <time>2024-01-25T15:17:03Z</time>
      </trkpt>
      <trkpt lat="48.73044" lon="-1.51988">
        <ele>13.4</ele>
        <time>2024-01-25T15:17:04Z</time>
      </trkpt>
      <trkpt lat="48.73042" lon="-1.51984">
        <ele>13.4</ele>
        <time>2024-01-25T15:17:05Z</time>
      </trkpt>
      <trkpt lat="48.73039" lon="-1.51978">
        <ele>13.3</ele>
        <time>2024-01-25T15:17:06Z</time>
      </trkpt>
      <trkpt lat="48.73038" lon="-1.51972">
        <ele>13.2</ele>
        <time>2024-01-25T15:17:07Z</time>
      </trkpt>
      <trkpt lat="48.73035" lon="-1.5196">
        <ele>13</ele>
        <time>2024-01-25T15:17:09Z</time>
      </trkpt>
      <trkpt lat="48.73032" lon="-1.51952">
        <ele>12.9</ele>
        <time>2024-01-25T15:17:10Z</time>
      </trkpt>
      <trkpt lat="48.73029" lon="-1.51945">
        <ele>12.8</ele>
        <time>2024-01-25T15:17:11Z</time>
      </trkpt>
      <trkpt lat="48.73025" lon="-1.51937">
        <ele>12.7</ele>
        <time>2024-01-25T15:17:12Z</time>
      </trkpt>
      <trkpt lat="48.73022" lon="-1.51928">
        <ele>12.6</ele>
        <time>2024-01-25T15:17:13Z</time>
      </trkpt>
      <trkpt lat="48.73018" lon="-1.51921">
        <ele>12.5</ele>
        <time>2024-01-25T15:17:14Z</time>
      </trkpt>
      <trkpt lat="48.73016" lon="-1.51915">
        <ele>12.4</ele>
        <time>2024-01-25T15:17:15Z</time>
      </trkpt>
      <trkpt lat="48.73013" lon="-1.51907">
        <ele>12.4</ele>
        <time>2024-01-25T15:17:16Z</time>
      </trkpt>
      <trkpt lat="48.7301" lon="-1.51899">
        <ele>12.3</ele>
        <time>2024-01-25T15:17:17Z</time>
      </trkpt>
      <trkpt lat="48.73007" lon="-1.51892">
        <ele>12.3</ele>
        <time>2024-01-25T15:17:18Z</time>
      </trkpt>
      <trkpt lat="48.73006" lon="-1.51884">
        <ele>12.3</ele>
        <time>2024-01-25T15:17:19Z</time>
      </trkpt>
      <trkpt lat="48.73004" lon="-1.51877">
        <ele>12.3</ele>
        <time>2024-01-25T15:17:20Z</time>
      </trkpt>
      <trkpt lat="48.73002" lon="-1.51871">
        <ele>12.3</ele>
        <time>2024-01-25T15:17:21Z</time>
      </trkpt>
      <trkpt lat="48.73" lon="-1.51865">
        <ele>12.2</ele>
        <time>2024-01-25T15:17:22Z</time>
      </trkpt>
      <trkpt lat="48.72998" lon="-1.51859">
        <ele>12.1</ele>
        <time>2024-01-25T15:17:23Z</time>
      </trkpt>
      <trkpt lat="48.72998" lon="-1.51853">
        <ele>12.1</ele>
        <time>2024-01-25T15:17:25Z</time>
      </trkpt>
      <trkpt lat="48.72999" lon="-1.51849">
        <ele>12</ele>
        <time>2024-01-25T15:17:26Z</time>
      </trkpt>
      <trkpt lat="48.72999" lon="-1.51846">
        <ele>12</ele>
        <time>2024-01-25T15:17:27Z</time>
      </trkpt>
      <trkpt lat="48.73" lon="-1.51844">
        <ele>12.1</ele>
        <time>2024-01-25T15:17:28Z</time>
      </trkpt>
      <trkpt lat="48.73001" lon="-1.51843">
        <ele>12.2</ele>
        <time>2024-01-25T15:17:29Z</time>
      </trkpt>
      <trkpt lat="48.73003" lon="-1.51843">
        <ele>12.3</ele>
        <time>2024-01-25T15:17:30Z</time>
      </trkpt>
      <trkpt lat="48.73003" lon="-1.51844">
        <ele>12.4</ele>
        <time>2024-01-25T15:17:31Z</time>
      </trkpt>
      <trkpt lat="48.73005" lon="-1.51846">
        <ele>12.5</ele>
        <time>2024-01-25T15:17:32Z</time>
      </trkpt>
      <trkpt lat="48.73006" lon="-1.51847">
        <ele>12.6</ele>
        <time>2024-01-25T15:17:33Z</time>
      </trkpt>
      <trkpt lat="48.73009" lon="-1.51849">
        <ele>12.9</ele>
        <time>2024-01-25T15:17:34Z</time>
      </trkpt>
      <trkpt lat="48.73012" lon="-1.51851">
        <ele>13.2</ele>
        <time>2024-01-25T15:17:35Z</time>
      </trkpt>
      <trkpt lat="48.73013" lon="-1.51853">
        <ele>13.3</ele>
        <time>2024-01-25T15:17:36Z</time>
      </trkpt>
      <trkpt lat="48.73016" lon="-1.51856">
        <ele>13.6</ele>
        <time>2024-01-25T15:17:37Z</time>
      </trkpt>
      <trkpt lat="48.73018" lon="-1.51858">
        <ele>13.8</ele>
        <time>2024-01-25T15:17:38Z</time>
      </trkpt>
      <trkpt lat="48.73021" lon="-1.5186">
        <ele>14.2</ele>
        <time>2024-01-25T15:17:39Z</time>
      </trkpt>
      <trkpt lat="48.73025" lon="-1.51863">
        <ele>14.5</ele>
        <time>2024-01-25T15:17:40Z</time>
      </trkpt>
      <trkpt lat="48.73028" lon="-1.51865">
        <ele>14.8</ele>
        <time>2024-01-25T15:17:41Z</time>
      </trkpt>
      <trkpt lat="48.73032" lon="-1.51867">
        <ele>15.2</ele>
        <time>2024-01-25T15:17:42Z</time>
      </trkpt>
      <trkpt lat="48.73035" lon="-1.51868">
        <ele>15.4</ele>
        <time>2024-01-25T15:17:43Z</time>
      </trkpt>
      <trkpt lat="48.7304" lon="-1.5187">
        <ele>15.4</ele>
        <time>2024-01-25T15:17:44Z</time>
      </trkpt>
      <trkpt lat="48.73044" lon="-1.51874">
        <ele>15.5</ele>
        <time>2024-01-25T15:17:45Z</time>
      </trkpt>
      <trkpt lat="48.73048" lon="-1.51876">
        <ele>15.6</ele>
        <time>2024-01-25T15:17:46Z</time>
      </trkpt>
      <trkpt lat="48.73051" lon="-1.51882">
        <ele>15.7</ele>
        <time>2024-01-25T15:17:47Z</time>
      </trkpt>
      <trkpt lat="48.73054" lon="-1.51886">
        <ele>15.9</ele>
        <time>2024-01-25T15:17:48Z</time>
      </trkpt>
      <trkpt lat="48.73055" lon="-1.51892">
        <ele>16.1</ele>
        <time>2024-01-25T15:17:49Z</time>
      </trkpt>
      <trkpt lat="48.73056" lon="-1.51898">
        <ele>16.3</ele>
        <time>2024-01-25T15:17:50Z</time>
      </trkpt>
      <trkpt lat="48.73057" lon="-1.51904">
        <ele>16.5</ele>
        <time>2024-01-25T15:17:51Z</time>
      </trkpt>
      <trkpt lat="48.73059" lon="-1.5191">
        <ele>16.7</ele>
        <time>2024-01-25T15:17:52Z</time>
      </trkpt>
      <trkpt lat="48.73061" lon="-1.51915">
        <ele>16.9</ele>
        <time>2024-01-25T15:17:53Z</time>
      </trkpt>
      <trkpt lat="48.73063" lon="-1.51919">
        <ele>17.1</ele>
        <time>2024-01-25T15:17:54Z</time>
      </trkpt>
      <trkpt lat="48.73065" lon="-1.51922">
        <ele>17.2</ele>
        <time>2024-01-25T15:17:55Z</time>
      </trkpt>
      <trkpt lat="48.73066" lon="-1.51926">
        <ele>17.4</ele>
        <time>2024-01-25T15:17:56Z</time>
      </trkpt>
      <trkpt lat="48.73068" lon="-1.5193">
        <ele>17.6</ele>
        <time>2024-01-25T15:17:57Z</time>
      </trkpt>
      <trkpt lat="48.73069" lon="-1.51934">
        <ele>17.7</ele>
        <time>2024-01-25T15:17:58Z</time>
      </trkpt>
      <trkpt lat="48.73071" lon="-1.51938">
        <ele>17.9</ele>
        <time>2024-01-25T15:17:59Z</time>
      </trkpt>
      <trkpt lat="48.73073" lon="-1.51943">
        <ele>18.1</ele>
        <time>2024-01-25T15:18:00Z</time>
      </trkpt>
      <trkpt lat="48.73076" lon="-1.51947">
        <ele>18.3</ele>
        <time>2024-01-25T15:18:01Z</time>
      </trkpt>
      <trkpt lat="48.73078" lon="-1.51952">
        <ele>18.5</ele>
        <time>2024-01-25T15:18:02Z</time>
      </trkpt>
      <trkpt lat="48.7308" lon="-1.51956">
        <ele>18.7</ele>
        <time>2024-01-25T15:18:03Z</time>
      </trkpt>
      <trkpt lat="48.73083" lon="-1.51959">
        <ele>18.9</ele>
        <time>2024-01-25T15:18:04Z</time>
      </trkpt>
      <trkpt lat="48.73085" lon="-1.51964">
        <ele>19.1</ele>
        <time>2024-01-25T15:18:05Z</time>
      </trkpt>
      <trkpt lat="48.73085" lon="-1.51971">
        <ele>19.3</ele>
        <time>2024-01-25T15:18:06Z</time>
      </trkpt>
      <trkpt lat="48.73086" lon="-1.51977">
        <ele>19.6</ele>
        <time>2024-01-25T15:18:07Z</time>
      </trkpt>
      <trkpt lat="48.73087" lon="-1.51982">
        <ele>19.8</ele>
        <time>2024-01-25T15:18:08Z</time>
      </trkpt>
      <trkpt lat="48.73085" lon="-1.51988">
        <ele>20</ele>
        <time>2024-01-25T15:18:09Z</time>
      </trkpt>
      <trkpt lat="48.73086" lon="-1.51992">
        <ele>20.2</ele>
        <time>2024-01-25T15:18:10Z</time>
      </trkpt>
      <trkpt lat="48.73088" lon="-1.51998">
        <ele>20.4</ele>
        <time>2024-01-25T15:18:11Z</time>
      </trkpt>
      <trkpt lat="48.73089" lon="-1.52004">
        <ele>20.7</ele>
        <time>2024-01-25T15:18:12Z</time>
      </trkpt>
      <trkpt lat="48.7309" lon="-1.52008">
        <ele>20.9</ele>
        <time>2024-01-25T15:18:13Z</time>
      </trkpt>
      <trkpt lat="48.73091" lon="-1.52013">
        <ele>21.1</ele>
        <time>2024-01-25T15:18:14Z</time>
      </trkpt>
      <trkpt lat="48.73092" lon="-1.52018">
        <ele>21.3</ele>
        <time>2024-01-25T15:18:15Z</time>
      </trkpt>
      <trkpt lat="48.73093" lon="-1.52025">
        <ele>21.5</ele>
        <time>2024-01-25T15:18:16Z</time>
      </trkpt>
      <trkpt lat="48.73093" lon="-1.5203">
        <ele>21.7</ele>
        <time>2024-01-25T15:18:17Z</time>
      </trkpt>
      <trkpt lat="48.73094" lon="-1.52036">
        <ele>22</ele>
        <time>2024-01-25T15:18:18Z</time>
      </trkpt>
      <trkpt lat="48.73095" lon="-1.52041">
        <ele>22.2</ele>
        <time>2024-01-25T15:18:19Z</time>
      </trkpt>
      <trkpt lat="48.73096" lon="-1.52047">
        <ele>22.4</ele>
        <time>2024-01-25T15:18:20Z</time>
      </trkpt>
      <trkpt lat="48.73097" lon="-1.52053">
        <ele>22.7</ele>
        <time>2024-01-25T15:18:21Z</time>
      </trkpt>
      <trkpt lat="48.73097" lon="-1.52059">
        <ele>22.9</ele>
        <time>2024-01-25T15:18:22Z</time>
      </trkpt>
      <trkpt lat="48.73099" lon="-1.52063">
        <ele>23.1</ele>
        <time>2024-01-25T15:18:23Z</time>
      </trkpt>
      <trkpt lat="48.73101" lon="-1.52067">
        <ele>23.3</ele>
        <time>2024-01-25T15:18:24Z</time>
      </trkpt>
      <trkpt lat="48.73103" lon="-1.5207">
        <ele>23.5</ele>
        <time>2024-01-25T15:18:25Z</time>
      </trkpt>
      <trkpt lat="48.73106" lon="-1.52074">
        <ele>23.7</ele>
        <time>2024-01-25T15:18:26Z</time>
      </trkpt>
      <trkpt lat="48.73108" lon="-1.52079">
        <ele>23.9</ele>
        <time>2024-01-25T15:18:27Z</time>
      </trkpt>
      <trkpt lat="48.7311" lon="-1.52084">
        <ele>24.2</ele>
        <time>2024-01-25T15:18:28Z</time>
      </trkpt>
      <trkpt lat="48.73111" lon="-1.52089">
        <ele>24.4</ele>
        <time>2024-01-25T15:18:29Z</time>
      </trkpt>
      <trkpt lat="48.73113" lon="-1.52093">
        <ele>24.6</ele>
        <time>2024-01-25T15:18:30Z</time>
      </trkpt>
      <trkpt lat="48.73115" lon="-1.52098">
        <ele>24.8</ele>
        <time>2024-01-25T15:18:31Z</time>
      </trkpt>
      <trkpt lat="48.73117" lon="-1.52103">
        <ele>25</ele>
        <time>2024-01-25T15:18:32Z</time>
      </trkpt>
      <trkpt lat="48.73119" lon="-1.52106">
        <ele>25.2</ele>
        <time>2024-01-25T15:18:33Z</time>
      </trkpt>
      <trkpt lat="48.73121" lon="-1.52109">
        <ele>25.5</ele>
        <time>2024-01-25T15:18:34Z</time>
      </trkpt>
      <trkpt lat="48.73124" lon="-1.52112">
        <ele>25.6</ele>
        <time>2024-01-25T15:18:35Z</time>
      </trkpt>
      <trkpt lat="48.73126" lon="-1.52116">
        <ele>25.9</ele>
        <time>2024-01-25T15:18:36Z</time>
      </trkpt>
      <trkpt lat="48.73127" lon="-1.52118">
        <ele>26</ele>
        <time>2024-01-25T15:18:37Z</time>
      </trkpt>
      <trkpt lat="48.73129" lon="-1.52123">
        <ele>26.2</ele>
        <time>2024-01-25T15:18:38Z</time>
      </trkpt>
      <trkpt lat="48.73129" lon="-1.52124">
        <ele>26.3</ele>
        <time>2024-01-25T15:18:39Z</time>
      </trkpt>
      <trkpt lat="48.73131" lon="-1.52128">
        <ele>26.6</ele>
        <time>2024-01-25T15:18:40Z</time>
      </trkpt>
      <trkpt lat="48.73131" lon="-1.5213">
        <ele>26.6</ele>
        <time>2024-01-25T15:18:41Z</time>
      </trkpt>
      <trkpt lat="48.73133" lon="-1.52133">
        <ele>26.8</ele>
        <time>2024-01-25T15:18:42Z</time>
      </trkpt>
      <trkpt lat="48.73134" lon="-1.52134">
        <ele>26.9</ele>
        <time>2024-01-25T15:18:43Z</time>
      </trkpt>
      <trkpt lat="48.73136" lon="-1.52136">
        <ele>27.1</ele>
        <time>2024-01-25T15:18:44Z</time>
      </trkpt>
      <trkpt lat="48.73137" lon="-1.52136">
        <ele>27.1</ele>
        <time>2024-01-25T15:18:45Z</time>
      </trkpt>
      <trkpt lat="48.73139" lon="-1.52136">
        <ele>27.3</ele>
        <time>2024-01-25T15:18:46Z</time>
      </trkpt>
      <trkpt lat="48.7314" lon="-1.52138">
        <ele>27.4</ele>
        <time>2024-01-25T15:18:47Z</time>
      </trkpt>
      <trkpt lat="48.73141" lon="-1.52139">
        <ele>27.5</ele>
        <time>2024-01-25T15:18:48Z</time>
      </trkpt>
      <trkpt lat="48.73142" lon="-1.52142">
        <ele>27.6</ele>
        <time>2024-01-25T15:18:49Z</time>
      </trkpt>
      <trkpt lat="48.73142" lon="-1.52144">
        <ele>27.7</ele>
        <time>2024-01-25T15:18:50Z</time>
      </trkpt>
      <trkpt lat="48.73143" lon="-1.52146">
        <ele>27.8</ele>
        <time>2024-01-25T15:18:51Z</time>
      </trkpt>
      <trkpt lat="48.73144" lon="-1.52148">
        <ele>28</ele>
        <time>2024-01-25T15:18:52Z</time>
      </trkpt>
      <trkpt lat="48.73145" lon="-1.5215">
        <ele>28</ele>
        <time>2024-01-25T15:18:53Z</time>
      </trkpt>
      <trkpt lat="48.73146" lon="-1.52153">
        <ele>28.2</ele>
        <time>2024-01-25T15:18:54Z</time>
      </trkpt>
      <trkpt lat="48.73147" lon="-1.52154">
        <ele>28.2</ele>
        <time>2024-01-25T15:18:55Z</time>
      </trkpt>
      <trkpt lat="48.73148" lon="-1.52155">
        <ele>28.2</ele>
        <time>2024-01-25T15:18:56Z</time>
      </trkpt>
      <trkpt lat="48.73148" lon="-1.52157">
        <ele>28.3</ele>
        <time>2024-01-25T15:18:57Z</time>
      </trkpt>
      <trkpt lat="48.7315" lon="-1.52157">
        <ele>28.4</ele>
        <time>2024-01-25T15:18:58Z</time>
      </trkpt>
      <trkpt lat="48.73151" lon="-1.52158">
        <ele>28.5</ele>
        <time>2024-01-25T15:18:59Z</time>
      </trkpt>
      <trkpt lat="48.73153" lon="-1.5216">
        <ele>28.6</ele>
        <time>2024-01-25T15:19:00Z</time>
      </trkpt>
      <trkpt lat="48.73155" lon="-1.52162">
        <ele>28.7</ele>
        <time>2024-01-25T15:19:01Z</time>
      </trkpt>
      <trkpt lat="48.73156" lon="-1.52164">
        <ele>28.7</ele>
        <time>2024-01-25T15:19:02Z</time>
      </trkpt>
      <trkpt lat="48.73158" lon="-1.52169">
        <ele>28.8</ele>
        <time>2024-01-25T15:19:03Z</time>
      </trkpt>
      <trkpt lat="48.73159" lon="-1.52171">
        <ele>28.9</ele>
        <time>2024-01-25T15:19:04Z</time>
      </trkpt>
      <trkpt lat="48.7316" lon="-1.52175">
        <ele>29</ele>
        <time>2024-01-25T15:19:05Z</time>
      </trkpt>
      <trkpt lat="48.7316" lon="-1.5218">
        <ele>29.1</ele>
        <time>2024-01-25T15:19:06Z</time>
      </trkpt>
      <trkpt lat="48.7316" lon="-1.52185">
        <ele>29.3</ele>
        <time>2024-01-25T15:19:07Z</time>
      </trkpt>
      <trkpt lat="48.7316" lon="-1.52191">
        <ele>29.6</ele>
        <time>2024-01-25T15:19:08Z</time>
      </trkpt>
      <trkpt lat="48.73159" lon="-1.52196">
        <ele>29.8</ele>
        <time>2024-01-25T15:19:09Z</time>
      </trkpt>
      <trkpt lat="48.73158" lon="-1.522">
        <ele>30</ele>
        <time>2024-01-25T15:19:10Z</time>
      </trkpt>
      <trkpt lat="48.73157" lon="-1.52205">
        <ele>30.2</ele>
        <time>2024-01-25T15:19:11Z</time>
      </trkpt>
      <trkpt lat="48.73156" lon="-1.52211">
        <ele>30.4</ele>
        <time>2024-01-25T15:19:12Z</time>
      </trkpt>
      <trkpt lat="48.73155" lon="-1.52216">
        <ele>30.6</ele>
        <time>2024-01-25T15:19:13Z</time>
      </trkpt>
      <trkpt lat="48.73154" lon="-1.52221">
        <ele>30.8</ele>
        <time>2024-01-25T15:19:14Z</time>
      </trkpt>
      <trkpt lat="48.73154" lon="-1.52226">
        <ele>31</ele>
        <time>2024-01-25T15:19:15Z</time>
      </trkpt>
      <trkpt lat="48.73155" lon="-1.52228">
        <ele>31</ele>
        <time>2024-01-25T15:19:16Z</time>
      </trkpt>
      <trkpt lat="48.73155" lon="-1.52233">
        <ele>31.2</ele>
        <time>2024-01-25T15:19:17Z</time>
      </trkpt>
      <trkpt lat="48.73157" lon="-1.52238">
        <ele>31.4</ele>
        <time>2024-01-25T15:19:18Z</time>
      </trkpt>
      <trkpt lat="48.73158" lon="-1.52243">
        <ele>31.6</ele>
        <time>2024-01-25T15:19:19Z</time>
      </trkpt>
      <trkpt lat="48.73158" lon="-1.52249">
        <ele>31.8</ele>
        <time>2024-01-25T15:19:20Z</time>
      </trkpt>
      <trkpt lat="48.7316" lon="-1.52256">
        <ele>32.1</ele>
        <time>2024-01-25T15:19:21Z</time>
      </trkpt>
      <trkpt lat="48.73161" lon="-1.52262">
        <ele>32.3</ele>
        <time>2024-01-25T15:19:22Z</time>
      </trkpt>
      <trkpt lat="48.73163" lon="-1.52268">
        <ele>32.5</ele>
        <time>2024-01-25T15:19:23Z</time>
      </trkpt>
      <trkpt lat="48.73163" lon="-1.52274">
        <ele>32.8</ele>
        <time>2024-01-25T15:19:24Z</time>
      </trkpt>
      <trkpt lat="48.73165" lon="-1.52279">
        <ele>33</ele>
        <time>2024-01-25T15:19:25Z</time>
      </trkpt>
      <trkpt lat="48.73166" lon="-1.52285">
        <ele>33.2</ele>
        <time>2024-01-25T15:19:26Z</time>
      </trkpt>
      <trkpt lat="48.73167" lon="-1.5229">
        <ele>33.4</ele>
        <time>2024-01-25T15:19:27Z</time>
      </trkpt>
      <trkpt lat="48.73169" lon="-1.52295">
        <ele>33.6</ele>
        <time>2024-01-25T15:19:28Z</time>
      </trkpt>
      <trkpt lat="48.73171" lon="-1.523">
        <ele>33.8</ele>
        <time>2024-01-25T15:19:29Z</time>
      </trkpt>
      <trkpt lat="48.73173" lon="-1.52306">
        <ele>34.1</ele>
        <time>2024-01-25T15:19:30Z</time>
      </trkpt>
      <trkpt lat="48.73174" lon="-1.52312">
        <ele>34.3</ele>
        <time>2024-01-25T15:19:31Z</time>
      </trkpt>
      <trkpt lat="48.73175" lon="-1.52317">
        <ele>34.5</ele>
        <time>2024-01-25T15:19:32Z</time>
      </trkpt>
      <trkpt lat="48.73177" lon="-1.52323">
        <ele>34.8</ele>
        <time>2024-01-25T15:19:33Z</time>
      </trkpt>
      <trkpt lat="48.73178" lon="-1.52328">
        <ele>35</ele>
        <time>2024-01-25T15:19:34Z</time>
      </trkpt>
      <trkpt lat="48.73179" lon="-1.52332">
        <ele>35.2</ele>
        <time>2024-01-25T15:19:35Z</time>
      </trkpt>
      <trkpt lat="48.7318" lon="-1.52336">
        <ele>35.4</ele>
        <time>2024-01-25T15:19:36Z</time>
      </trkpt>
      <trkpt lat="48.73181" lon="-1.52341">
        <ele>35.6</ele>
        <time>2024-01-25T15:19:37Z</time>
      </trkpt>
      <trkpt lat="48.73183" lon="-1.52347">
        <ele>35.9</ele>
        <time>2024-01-25T15:19:38Z</time>
      </trkpt>
      <trkpt lat="48.73183" lon="-1.52351">
        <ele>36.1</ele>
        <time>2024-01-25T15:19:39Z</time>
      </trkpt>
      <trkpt lat="48.73184" lon="-1.52355">
        <ele>36.2</ele>
        <time>2024-01-25T15:19:40Z</time>
      </trkpt>
      <trkpt lat="48.73185" lon="-1.52359">
        <ele>36.4</ele>
        <time>2024-01-25T15:19:42Z</time>
      </trkpt>
      <trkpt lat="48.73187" lon="-1.52365">
        <ele>36.7</ele>
        <time>2024-01-25T15:19:43Z</time>
      </trkpt>
      <trkpt lat="48.73188" lon="-1.52372">
        <ele>37</ele>
        <time>2024-01-25T15:19:44Z</time>
      </trkpt>
      <trkpt lat="48.73188" lon="-1.52375">
        <ele>37.1</ele>
        <time>2024-01-25T15:19:45Z</time>
      </trkpt>
      <trkpt lat="48.73188" lon="-1.5238">
        <ele>37.3</ele>
        <time>2024-01-25T15:19:46Z</time>
      </trkpt>
      <trkpt lat="48.73188" lon="-1.52385">
        <ele>37.5</ele>
        <time>2024-01-25T15:19:47Z</time>
      </trkpt>
      <trkpt lat="48.7319" lon="-1.52388">
        <ele>37.7</ele>
        <time>2024-01-25T15:19:48Z</time>
      </trkpt>
      <trkpt lat="48.73191" lon="-1.52394">
        <ele>38</ele>
        <time>2024-01-25T15:19:49Z</time>
      </trkpt>
      <trkpt lat="48.73193" lon="-1.52399">
        <ele>38.2</ele>
        <time>2024-01-25T15:19:50Z</time>
      </trkpt>
      <trkpt lat="48.73194" lon="-1.52403">
        <ele>38.4</ele>
        <time>2024-01-25T15:19:51Z</time>
      </trkpt>
      <trkpt lat="48.73194" lon="-1.5241">
        <ele>38.6</ele>
        <time>2024-01-25T15:19:52Z</time>
      </trkpt>
      <trkpt lat="48.73195" lon="-1.52414">
        <ele>38.8</ele>
        <time>2024-01-25T15:19:53Z</time>
      </trkpt>
      <trkpt lat="48.73196" lon="-1.5242">
        <ele>39</ele>
        <time>2024-01-25T15:19:54Z</time>
      </trkpt>
      <trkpt lat="48.73198" lon="-1.52425">
        <ele>39.3</ele>
        <time>2024-01-25T15:19:55Z</time>
      </trkpt>
      <trkpt lat="48.73198" lon="-1.5243">
        <ele>39.5</ele>
        <time>2024-01-25T15:19:56Z</time>
      </trkpt>
      <trkpt lat="48.73198" lon="-1.52438">
        <ele>39.7</ele>
        <time>2024-01-25T15:19:57Z</time>
      </trkpt>
      <trkpt lat="48.73197" lon="-1.52445">
        <ele>40</ele>
        <time>2024-01-25T15:19:58Z</time>
      </trkpt>
      <trkpt lat="48.73197" lon="-1.5245">
        <ele>40.2</ele>
        <time>2024-01-25T15:19:59Z</time>
      </trkpt>
      <trkpt lat="48.73199" lon="-1.52455">
        <ele>40.4</ele>
        <time>2024-01-25T15:20:00Z</time>
      </trkpt>
      <trkpt lat="48.732" lon="-1.52461">
        <ele>40.6</ele>
        <time>2024-01-25T15:20:01Z</time>
      </trkpt>
      <trkpt lat="48.732" lon="-1.52467">
        <ele>40.8</ele>
        <time>2024-01-25T15:20:02Z</time>
      </trkpt>
      <trkpt lat="48.73199" lon="-1.52473">
        <ele>41</ele>
        <time>2024-01-25T15:20:03Z</time>
      </trkpt>
      <trkpt lat="48.73197" lon="-1.52478">
        <ele>41.2</ele>
        <time>2024-01-25T15:20:04Z</time>
      </trkpt>
      <trkpt lat="48.73197" lon="-1.52484">
        <ele>41.4</ele>
        <time>2024-01-25T15:20:05Z</time>
      </trkpt>
      <trkpt lat="48.73195" lon="-1.5249">
        <ele>41.7</ele>
        <time>2024-01-25T15:20:06Z</time>
      </trkpt>
      <trkpt lat="48.73193" lon="-1.52495">
        <ele>41.9</ele>
        <time>2024-01-25T15:20:07Z</time>
      </trkpt>
      <trkpt lat="48.73191" lon="-1.52501">
        <ele>42.2</ele>
        <time>2024-01-25T15:20:08Z</time>
      </trkpt>
      <trkpt lat="48.73189" lon="-1.52505">
        <ele>42.4</ele>
        <time>2024-01-25T15:20:09Z</time>
      </trkpt>
      <trkpt lat="48.73188" lon="-1.5251">
        <ele>42.6</ele>
        <time>2024-01-25T15:20:10Z</time>
      </trkpt>
      <trkpt lat="48.73186" lon="-1.52515">
        <ele>42.8</ele>
        <time>2024-01-25T15:20:11Z</time>
      </trkpt>
      <trkpt lat="48.73184" lon="-1.52521">
        <ele>43.1</ele>
        <time>2024-01-25T15:20:12Z</time>
      </trkpt>
      <trkpt lat="48.73182" lon="-1.52532">
        <ele>43.5</ele>
        <time>2024-01-25T15:20:14Z</time>
      </trkpt>
      <trkpt lat="48.7318" lon="-1.52542">
        <ele>43.9</ele>
        <time>2024-01-25T15:20:16Z</time>
      </trkpt>
      <trkpt lat="48.73179" lon="-1.5255">
        <ele>44.2</ele>
        <time>2024-01-25T15:20:18Z</time>
      </trkpt>
      <trkpt lat="48.73178" lon="-1.52556">
        <ele>44.4</ele>
        <time>2024-01-25T15:20:19Z</time>
      </trkpt>
      <trkpt lat="48.73177" lon="-1.52558">
        <ele>44.5</ele>
        <time>2024-01-25T15:20:20Z</time>
      </trkpt>
      <trkpt lat="48.73176" lon="-1.52561">
        <ele>44.7</ele>
        <time>2024-01-25T15:20:21Z</time>
      </trkpt>
      <trkpt lat="48.73175" lon="-1.52567">
        <ele>44.9</ele>
        <time>2024-01-25T15:20:22Z</time>
      </trkpt>
      <trkpt lat="48.73175" lon="-1.52569">
        <ele>45</ele>
        <time>2024-01-25T15:20:23Z</time>
      </trkpt>
      <trkpt lat="48.73175" lon="-1.52574">
        <ele>45.1</ele>
        <time>2024-01-25T15:20:24Z</time>
      </trkpt>
      <trkpt lat="48.73176" lon="-1.52579">
        <ele>45.3</ele>
        <time>2024-01-25T15:20:25Z</time>
      </trkpt>
      <trkpt lat="48.73177" lon="-1.52581">
        <ele>45.4</ele>
        <time>2024-01-25T15:20:26Z</time>
      </trkpt>
      <trkpt lat="48.73177" lon="-1.52585">
        <ele>45.5</ele>
        <time>2024-01-25T15:20:27Z</time>
      </trkpt>
      <trkpt lat="48.73177" lon="-1.52591">
        <ele>45.8</ele>
        <time>2024-01-25T15:20:28Z</time>
      </trkpt>
      <trkpt lat="48.73177" lon="-1.52597">
        <ele>46</ele>
        <time>2024-01-25T15:20:29Z</time>
      </trkpt>
      <trkpt lat="48.73178" lon="-1.52603">
        <ele>46.2</ele>
        <time>2024-01-25T15:20:30Z</time>
      </trkpt>
      <trkpt lat="48.73178" lon="-1.5261">
        <ele>46.4</ele>
        <time>2024-01-25T15:20:31Z</time>
      </trkpt>
      <trkpt lat="48.73179" lon="-1.52615">
        <ele>46.6</ele>
        <time>2024-01-25T15:20:32Z</time>
      </trkpt>
      <trkpt lat="48.73179" lon="-1.5262">
        <ele>46.8</ele>
        <time>2024-01-25T15:20:33Z</time>
      </trkpt>
      <trkpt lat="48.73178" lon="-1.52625">
        <ele>46.9</ele>
        <time>2024-01-25T15:20:34Z</time>
      </trkpt>
      <trkpt lat="48.73177" lon="-1.52632">
        <ele>47.1</ele>
        <time>2024-01-25T15:20:35Z</time>
      </trkpt>
      <trkpt lat="48.73177" lon="-1.52637">
        <ele>47.3</ele>
        <time>2024-01-25T15:20:36Z</time>
      </trkpt>
      <trkpt lat="48.73177" lon="-1.52642">
        <ele>47.5</ele>
        <time>2024-01-25T15:20:37Z</time>
      </trkpt>
      <trkpt lat="48.73178" lon="-1.52649">
        <ele>47.8</ele>
        <time>2024-01-25T15:20:38Z</time>
      </trkpt>
      <trkpt lat="48.73177" lon="-1.52656">
        <ele>48</ele>
        <time>2024-01-25T15:20:39Z</time>
      </trkpt>
      <trkpt lat="48.73178" lon="-1.52662">
        <ele>48.3</ele>
        <time>2024-01-25T15:20:40Z</time>
      </trkpt>
      <trkpt lat="48.73178" lon="-1.52668">
        <ele>48.5</ele>
        <time>2024-01-25T15:20:41Z</time>
      </trkpt>
      <trkpt lat="48.73178" lon="-1.52674">
        <ele>48.7</ele>
        <time>2024-01-25T15:20:42Z</time>
      </trkpt>
      <trkpt lat="48.73178" lon="-1.5268">
        <ele>49</ele>
        <time>2024-01-25T15:20:43Z</time>
      </trkpt>
      <trkpt lat="48.73179" lon="-1.52686">
        <ele>49.2</ele>
        <time>2024-01-25T15:20:44Z</time>
      </trkpt>
      <trkpt lat="48.7318" lon="-1.52691">
        <ele>49.4</ele>
        <time>2024-01-25T15:20:45Z</time>
      </trkpt>
      <trkpt lat="48.7318" lon="-1.52697">
        <ele>49.7</ele>
        <time>2024-01-25T15:20:46Z</time>
      </trkpt>
      <trkpt lat="48.7318" lon="-1.52703">
        <ele>49.9</ele>
        <time>2024-01-25T15:20:47Z</time>
      </trkpt>
      <trkpt lat="48.7318" lon="-1.52708">
        <ele>50.1</ele>
        <time>2024-01-25T15:20:48Z</time>
      </trkpt>
      <trkpt lat="48.7318" lon="-1.52713">
        <ele>50.3</ele>
        <time>2024-01-25T15:20:49Z</time>
      </trkpt>
      <trkpt lat="48.7318" lon="-1.52719">
        <ele>50.6</ele>
        <time>2024-01-25T15:20:50Z</time>
      </trkpt>
      <trkpt lat="48.7318" lon="-1.52724">
        <ele>50.8</ele>
        <time>2024-01-25T15:20:51Z</time>
      </trkpt>
      <trkpt lat="48.73179" lon="-1.52729">
        <ele>51</ele>
        <time>2024-01-25T15:20:52Z</time>
      </trkpt>
      <trkpt lat="48.73178" lon="-1.52733">
        <ele>51.2</ele>
        <time>2024-01-25T15:20:53Z</time>
      </trkpt>
      <trkpt lat="48.73177" lon="-1.52738">
        <ele>51.4</ele>
        <time>2024-01-25T15:20:54Z</time>
      </trkpt>
      <trkpt lat="48.73176" lon="-1.52742">
        <ele>51.6</ele>
        <time>2024-01-25T15:20:55Z</time>
      </trkpt>
      <trkpt lat="48.73175" lon="-1.52747">
        <ele>51.8</ele>
        <time>2024-01-25T15:20:56Z</time>
      </trkpt>
      <trkpt lat="48.73174" lon="-1.52752">
        <ele>52</ele>
        <time>2024-01-25T15:20:57Z</time>
      </trkpt>
      <trkpt lat="48.73173" lon="-1.52758">
        <ele>52.2</ele>
        <time>2024-01-25T15:20:58Z</time>
      </trkpt>
      <trkpt lat="48.73172" lon="-1.52764">
        <ele>52.4</ele>
        <time>2024-01-25T15:20:59Z</time>
      </trkpt>
      <trkpt lat="48.73172" lon="-1.52771">
        <ele>52.7</ele>
        <time>2024-01-25T15:21:00Z</time>
      </trkpt>
      <trkpt lat="48.73172" lon="-1.52775">
        <ele>52.8</ele>
        <time>2024-01-25T15:21:01Z</time>
      </trkpt>
      <trkpt lat="48.73169" lon="-1.5278">
        <ele>53</ele>
        <time>2024-01-25T15:21:02Z</time>
      </trkpt>
      <trkpt lat="48.73168" lon="-1.52784">
        <ele>53.2</ele>
        <time>2024-01-25T15:21:03Z</time>
      </trkpt>
      <trkpt lat="48.73167" lon="-1.5279">
        <ele>53.4</ele>
        <time>2024-01-25T15:21:04Z</time>
      </trkpt>
      <trkpt lat="48.73166" lon="-1.52795">
        <ele>53.6</ele>
        <time>2024-01-25T15:21:05Z</time>
      </trkpt>
      <trkpt lat="48.73165" lon="-1.528">
        <ele>53.7</ele>
        <time>2024-01-25T15:21:06Z</time>
      </trkpt>
      <trkpt lat="48.73164" lon="-1.52806">
        <ele>54</ele>
        <time>2024-01-25T15:21:07Z</time>
      </trkpt>
      <trkpt lat="48.73162" lon="-1.52811">
        <ele>54.1</ele>
        <time>2024-01-25T15:21:08Z</time>
      </trkpt>
      <trkpt lat="48.73161" lon="-1.52816">
        <ele>54.3</ele>
        <time>2024-01-25T15:21:09Z</time>
      </trkpt>
      <trkpt lat="48.7316" lon="-1.5282">
        <ele>54.5</ele>
        <time>2024-01-25T15:21:10Z</time>
      </trkpt>
      <trkpt lat="48.73159" lon="-1.52826">
        <ele>54.7</ele>
        <time>2024-01-25T15:21:11Z</time>
      </trkpt>
      <trkpt lat="48.73158" lon="-1.5283">
        <ele>54.9</ele>
        <time>2024-01-25T15:21:12Z</time>
      </trkpt>
      <trkpt lat="48.73158" lon="-1.52836">
        <ele>55.1</ele>
        <time>2024-01-25T15:21:13Z</time>
      </trkpt>
      <trkpt lat="48.73157" lon="-1.52842">
        <ele>55.4</ele>
        <time>2024-01-25T15:21:14Z</time>
      </trkpt>
      <trkpt lat="48.73158" lon="-1.52848">
        <ele>55.6</ele>
        <time>2024-01-25T15:21:15Z</time>
      </trkpt>
      <trkpt lat="48.73158" lon="-1.52854">
        <ele>55.8</ele>
        <time>2024-01-25T15:21:16Z</time>
      </trkpt>
      <trkpt lat="48.73157" lon="-1.52859">
        <ele>56</ele>
        <time>2024-01-25T15:21:17Z</time>
      </trkpt>
      <trkpt lat="48.73157" lon="-1.52863">
        <ele>56.1</ele>
        <time>2024-01-25T15:21:18Z</time>
      </trkpt>
      <trkpt lat="48.73157" lon="-1.52869">
        <ele>56.4</ele>
        <time>2024-01-25T15:21:19Z</time>
      </trkpt>
      <trkpt lat="48.73156" lon="-1.52871">
        <ele>56.4</ele>
        <time>2024-01-25T15:21:20Z</time>
      </trkpt>
      <trkpt lat="48.73157" lon="-1.52875">
        <ele>56.6</ele>
        <time>2024-01-25T15:21:21Z</time>
      </trkpt>
      <trkpt lat="48.73158" lon="-1.5288">
        <ele>56.8</ele>
        <time>2024-01-25T15:21:22Z</time>
      </trkpt>
      <trkpt lat="48.73158" lon="-1.52885">
        <ele>57</ele>
        <time>2024-01-25T15:21:23Z</time>
      </trkpt>
      <trkpt lat="48.73158" lon="-1.52888">
        <ele>57.1</ele>
        <time>2024-01-25T15:21:24Z</time>
      </trkpt>
      <trkpt lat="48.73158" lon="-1.52892">
        <ele>57.3</ele>
        <time>2024-01-25T15:21:25Z</time>
      </trkpt>
      <trkpt lat="48.73159" lon="-1.52896">
        <ele>57.4</ele>
        <time>2024-01-25T15:21:26Z</time>
      </trkpt>
      <trkpt lat="48.73159" lon="-1.52901">
        <ele>57.6</ele>
        <time>2024-01-25T15:21:27Z</time>
      </trkpt>
      <trkpt lat="48.73159" lon="-1.52905">
        <ele>57.8</ele>
        <time>2024-01-25T15:21:28Z</time>
      </trkpt>
      <trkpt lat="48.7316" lon="-1.52911">
        <ele>58</ele>
        <time>2024-01-25T15:21:29Z</time>
      </trkpt>
      <trkpt lat="48.7316" lon="-1.52916">
        <ele>58.2</ele>
        <time>2024-01-25T15:21:30Z</time>
      </trkpt>
      <trkpt lat="48.73159" lon="-1.52921">
        <ele>58.4</ele>
        <time>2024-01-25T15:21:32Z</time>
      </trkpt>
      <trkpt lat="48.73159" lon="-1.52926">
        <ele>58.5</ele>
        <time>2024-01-25T15:21:33Z</time>
      </trkpt>
      <trkpt lat="48.73159" lon="-1.5293">
        <ele>58.7</ele>
        <time>2024-01-25T15:21:34Z</time>
      </trkpt>
      <trkpt lat="48.73158" lon="-1.52935">
        <ele>58.9</ele>
        <time>2024-01-25T15:21:35Z</time>
      </trkpt>
      <trkpt lat="48.73158" lon="-1.52941">
        <ele>59.1</ele>
        <time>2024-01-25T15:21:36Z</time>
      </trkpt>
      <trkpt lat="48.73158" lon="-1.52947">
        <ele>59.3</ele>
        <time>2024-01-25T15:21:37Z</time>
      </trkpt>
      <trkpt lat="48.73158" lon="-1.52953">
        <ele>59.5</ele>
        <time>2024-01-25T15:21:38Z</time>
      </trkpt>
      <trkpt lat="48.73158" lon="-1.52961">
        <ele>59.8</ele>
        <time>2024-01-25T15:21:39Z</time>
      </trkpt>
      <trkpt lat="48.73159" lon="-1.52967">
        <ele>60</ele>
        <time>2024-01-25T15:21:41Z</time>
      </trkpt>
      <trkpt lat="48.7316" lon="-1.52973">
        <ele>60.3</ele>
        <time>2024-01-25T15:21:42Z</time>
      </trkpt>
      <trkpt lat="48.7316" lon="-1.52979">
        <ele>60.5</ele>
        <time>2024-01-25T15:21:43Z</time>
      </trkpt>
      <trkpt lat="48.73161" lon="-1.52984">
        <ele>60.7</ele>
        <time>2024-01-25T15:21:44Z</time>
      </trkpt>
      <trkpt lat="48.73161" lon="-1.5299">
        <ele>60.9</ele>
        <time>2024-01-25T15:21:45Z</time>
      </trkpt>
      <trkpt lat="48.73162" lon="-1.52996">
        <ele>61.1</ele>
        <time>2024-01-25T15:21:46Z</time>
      </trkpt>
      <trkpt lat="48.73163" lon="-1.53001">
        <ele>61.4</ele>
        <time>2024-01-25T15:21:47Z</time>
      </trkpt>
      <trkpt lat="48.73163" lon="-1.53007">
        <ele>61.6</ele>
        <time>2024-01-25T15:21:48Z</time>
      </trkpt>
      <trkpt lat="48.73163" lon="-1.53012">
        <ele>61.8</ele>
        <time>2024-01-25T15:21:49Z</time>
      </trkpt>
      <trkpt lat="48.73164" lon="-1.53018">
        <ele>62</ele>
        <time>2024-01-25T15:21:50Z</time>
      </trkpt>
      <trkpt lat="48.73165" lon="-1.53024">
        <ele>62.3</ele>
        <time>2024-01-25T15:21:51Z</time>
      </trkpt>
      <trkpt lat="48.73166" lon="-1.53029">
        <ele>62.5</ele>
        <time>2024-01-25T15:21:52Z</time>
      </trkpt>
      <trkpt lat="48.73168" lon="-1.53035">
        <ele>62.7</ele>
        <time>2024-01-25T15:21:53Z</time>
      </trkpt>
      <trkpt lat="48.73168" lon="-1.5304">
        <ele>62.9</ele>
        <time>2024-01-25T15:21:54Z</time>
      </trkpt>
      <trkpt lat="48.73169" lon="-1.53048">
        <ele>63.2</ele>
        <time>2024-01-25T15:21:55Z</time>
      </trkpt>
      <trkpt lat="48.73171" lon="-1.53053">
        <ele>63.4</ele>
        <time>2024-01-25T15:21:56Z</time>
      </trkpt>
      <trkpt lat="48.73173" lon="-1.53058">
        <ele>63.6</ele>
        <time>2024-01-25T15:21:57Z</time>
      </trkpt>
      <trkpt lat="48.73176" lon="-1.53063">
        <ele>63.8</ele>
        <time>2024-01-25T15:21:58Z</time>
      </trkpt>
      <trkpt lat="48.73178" lon="-1.53067">
        <ele>64</ele>
        <time>2024-01-25T15:21:59Z</time>
      </trkpt>
      <trkpt lat="48.73181" lon="-1.53071">
        <ele>64.2</ele>
        <time>2024-01-25T15:22:00Z</time>
      </trkpt>
      <trkpt lat="48.73183" lon="-1.53074">
        <ele>64.4</ele>
        <time>2024-01-25T15:22:01Z</time>
      </trkpt>
      <trkpt lat="48.73187" lon="-1.53078">
        <ele>64.6</ele>
        <time>2024-01-25T15:22:02Z</time>
      </trkpt>
      <trkpt lat="48.73189" lon="-1.5308">
        <ele>64.8</ele>
        <time>2024-01-25T15:22:03Z</time>
      </trkpt>
      <trkpt lat="48.73195" lon="-1.53083">
        <ele>65.1</ele>
        <time>2024-01-25T15:22:04Z</time>
      </trkpt>
      <trkpt lat="48.73199" lon="-1.53084">
        <ele>65.4</ele>
        <time>2024-01-25T15:22:05Z</time>
      </trkpt>
      <trkpt lat="48.73203" lon="-1.53085">
        <ele>65.6</ele>
        <time>2024-01-25T15:22:06Z</time>
      </trkpt>
      <trkpt lat="48.73206" lon="-1.53087">
        <ele>65.8</ele>
        <time>2024-01-25T15:22:07Z</time>
      </trkpt>
      <trkpt lat="48.7321" lon="-1.53089">
        <ele>66</ele>
        <time>2024-01-25T15:22:08Z</time>
      </trkpt>
      <trkpt lat="48.73213" lon="-1.53091">
        <ele>66.2</ele>
        <time>2024-01-25T15:22:09Z</time>
      </trkpt>
      <trkpt lat="48.73216" lon="-1.53092">
        <ele>66.3</ele>
        <time>2024-01-25T15:22:10Z</time>
      </trkpt>
      <trkpt lat="48.73219" lon="-1.53094">
        <ele>66.5</ele>
        <time>2024-01-25T15:22:11Z</time>
      </trkpt>
      <trkpt lat="48.73222" lon="-1.53097">
        <ele>66.7</ele>
        <time>2024-01-25T15:22:12Z</time>
      </trkpt>
      <trkpt lat="48.73225" lon="-1.531">
        <ele>67</ele>
        <time>2024-01-25T15:22:13Z</time>
      </trkpt>
      <trkpt lat="48.73229" lon="-1.53103">
        <ele>67.2</ele>
        <time>2024-01-25T15:22:14Z</time>
      </trkpt>
      <trkpt lat="48.73232" lon="-1.53105">
        <ele>67.4</ele>
        <time>2024-01-25T15:22:15Z</time>
      </trkpt>
      <trkpt lat="48.73236" lon="-1.53107">
        <ele>67.6</ele>
        <time>2024-01-25T15:22:16Z</time>
      </trkpt>
      <trkpt lat="48.73239" lon="-1.5311">
        <ele>67.8</ele>
        <time>2024-01-25T15:22:17Z</time>
      </trkpt>
      <trkpt lat="48.73242" lon="-1.53112">
        <ele>68</ele>
        <time>2024-01-25T15:22:18Z</time>
      </trkpt>
      <trkpt lat="48.73245" lon="-1.53114">
        <ele>68.2</ele>
        <time>2024-01-25T15:22:19Z</time>
      </trkpt>
      <trkpt lat="48.73249" lon="-1.53116">
        <ele>68.4</ele>
        <time>2024-01-25T15:22:20Z</time>
      </trkpt>
      <trkpt lat="48.73252" lon="-1.53118">
        <ele>68.6</ele>
        <time>2024-01-25T15:22:21Z</time>
      </trkpt>
      <trkpt lat="48.73254" lon="-1.53119">
        <ele>68.7</ele>
        <time>2024-01-25T15:22:22Z</time>
      </trkpt>
      <trkpt lat="48.73257" lon="-1.53121">
        <ele>68.9</ele>
        <time>2024-01-25T15:22:23Z</time>
      </trkpt>
      <trkpt lat="48.73259" lon="-1.53126">
        <ele>69.1</ele>
        <time>2024-01-25T15:22:24Z</time>
      </trkpt>
      <trkpt lat="48.7326" lon="-1.53127">
        <ele>69.2</ele>
        <time>2024-01-25T15:22:25Z</time>
      </trkpt>
      <trkpt lat="48.73263" lon="-1.53131">
        <ele>69.4</ele>
        <time>2024-01-25T15:22:26Z</time>
      </trkpt>
      <trkpt lat="48.73265" lon="-1.53133">
        <ele>69.6</ele>
        <time>2024-01-25T15:22:27Z</time>
      </trkpt>
      <trkpt lat="48.73268" lon="-1.53135">
        <ele>69.8</ele>
        <time>2024-01-25T15:22:28Z</time>
      </trkpt>
      <trkpt lat="48.73271" lon="-1.53137">
        <ele>70</ele>
        <time>2024-01-25T15:22:29Z</time>
      </trkpt>
      <trkpt lat="48.73276" lon="-1.5314">
        <ele>70.3</ele>
        <time>2024-01-25T15:22:30Z</time>
      </trkpt>
      <trkpt lat="48.73279" lon="-1.53141">
        <ele>70.5</ele>
        <time>2024-01-25T15:22:31Z</time>
      </trkpt>
      <trkpt lat="48.73284" lon="-1.53143">
        <ele>70.8</ele>
        <time>2024-01-25T15:22:32Z</time>
      </trkpt>
      <trkpt lat="48.73288" lon="-1.53145">
        <ele>71.1</ele>
        <time>2024-01-25T15:22:33Z</time>
      </trkpt>
      <trkpt lat="48.73292" lon="-1.53145">
        <ele>71.3</ele>
        <time>2024-01-25T15:22:34Z</time>
      </trkpt>
      <trkpt lat="48.73296" lon="-1.53146">
        <ele>71.6</ele>
        <time>2024-01-25T15:22:35Z</time>
      </trkpt>
      <trkpt lat="48.733" lon="-1.53146">
        <ele>71.8</ele>
        <time>2024-01-25T15:22:36Z</time>
      </trkpt>
      <trkpt lat="48.73303" lon="-1.53146">
        <ele>72</ele>
        <time>2024-01-25T15:22:37Z</time>
      </trkpt>
      <trkpt lat="48.73307" lon="-1.53146">
        <ele>72.3</ele>
        <time>2024-01-25T15:22:38Z</time>
      </trkpt>
      <trkpt lat="48.73311" lon="-1.53144">
        <ele>72.5</ele>
        <time>2024-01-25T15:22:39Z</time>
      </trkpt>
      <trkpt lat="48.73315" lon="-1.53141">
        <ele>72.8</ele>
        <time>2024-01-25T15:22:40Z</time>
      </trkpt>
      <trkpt lat="48.73319" lon="-1.53139">
        <ele>73.1</ele>
        <time>2024-01-25T15:22:41Z</time>
      </trkpt>
      <trkpt lat="48.73322" lon="-1.53137">
        <ele>73.3</ele>
        <time>2024-01-25T15:22:42Z</time>
      </trkpt>
      <trkpt lat="48.73323" lon="-1.53136">
        <ele>73.4</ele>
        <time>2024-01-25T15:22:43Z</time>
      </trkpt>
      <trkpt lat="48.73326" lon="-1.53134">
        <ele>73.6</ele>
        <time>2024-01-25T15:22:44Z</time>
      </trkpt>
      <trkpt lat="48.7333" lon="-1.53131">
        <ele>73.9</ele>
        <time>2024-01-25T15:22:45Z</time>
      </trkpt>
      <trkpt lat="48.73331" lon="-1.53131">
        <ele>74</ele>
        <time>2024-01-25T15:22:46Z</time>
      </trkpt>
      <trkpt lat="48.73335" lon="-1.53127">
        <ele>74.3</ele>
        <time>2024-01-25T15:22:47Z</time>
      </trkpt>
      <trkpt lat="48.73339" lon="-1.53124">
        <ele>74.6</ele>
        <time>2024-01-25T15:22:48Z</time>
      </trkpt>
      <trkpt lat="48.73343" lon="-1.53122">
        <ele>74.9</ele>
        <time>2024-01-25T15:22:49Z</time>
      </trkpt>
      <trkpt lat="48.73346" lon="-1.53118">
        <ele>75.1</ele>
        <time>2024-01-25T15:22:50Z</time>
      </trkpt>
      <trkpt lat="48.73349" lon="-1.53114">
        <ele>75.4</ele>
        <time>2024-01-25T15:22:51Z</time>
      </trkpt>
      <trkpt lat="48.73352" lon="-1.5311">
        <ele>75.7</ele>
        <time>2024-01-25T15:22:52Z</time>
      </trkpt>
      <trkpt lat="48.73355" lon="-1.53107">
        <ele>76</ele>
        <time>2024-01-25T15:22:53Z</time>
      </trkpt>
      <trkpt lat="48.7336" lon="-1.53104">
        <ele>76.3</ele>
        <time>2024-01-25T15:22:54Z</time>
      </trkpt>
      <trkpt lat="48.73363" lon="-1.531">
        <ele>76.6</ele>
        <time>2024-01-25T15:22:55Z</time>
      </trkpt>
      <trkpt lat="48.73367" lon="-1.53097">
        <ele>76.9</ele>
        <time>2024-01-25T15:22:56Z</time>
      </trkpt>
      <trkpt lat="48.73371" lon="-1.53093">
        <ele>77.2</ele>
        <time>2024-01-25T15:22:57Z</time>
      </trkpt>
      <trkpt lat="48.73375" lon="-1.53089">
        <ele>77.5</ele>
        <time>2024-01-25T15:22:58Z</time>
      </trkpt>
      <trkpt lat="48.73378" lon="-1.53085">
        <ele>77.8</ele>
        <time>2024-01-25T15:22:59Z</time>
      </trkpt>
      <trkpt lat="48.73382" lon="-1.53081">
        <ele>78.1</ele>
        <time>2024-01-25T15:23:00Z</time>
      </trkpt>
      <trkpt lat="48.73385" lon="-1.53079">
        <ele>78.3</ele>
        <time>2024-01-25T15:23:01Z</time>
      </trkpt>
      <trkpt lat="48.73388" lon="-1.53077">
        <ele>78.6</ele>
        <time>2024-01-25T15:23:02Z</time>
      </trkpt>
      <trkpt lat="48.73391" lon="-1.53074">
        <ele>78.8</ele>
        <time>2024-01-25T15:23:03Z</time>
      </trkpt>
      <trkpt lat="48.73395" lon="-1.53073">
        <ele>79.1</ele>
        <time>2024-01-25T15:23:04Z</time>
      </trkpt>
      <trkpt lat="48.73398" lon="-1.53073">
        <ele>79.4</ele>
        <time>2024-01-25T15:23:05Z</time>
      </trkpt>
      <trkpt lat="48.73402" lon="-1.53072">
        <ele>79.6</ele>
        <time>2024-01-25T15:23:06Z</time>
      </trkpt>
      <trkpt lat="48.73406" lon="-1.53073">
        <ele>79.9</ele>
        <time>2024-01-25T15:23:07Z</time>
      </trkpt>
      <trkpt lat="48.73408" lon="-1.53077">
        <ele>80.1</ele>
        <time>2024-01-25T15:23:08Z</time>
      </trkpt>
      <trkpt lat="48.73411" lon="-1.5308">
        <ele>80.3</ele>
        <time>2024-01-25T15:23:09Z</time>
      </trkpt>
      <trkpt lat="48.73412" lon="-1.53084">
        <ele>80.5</ele>
        <time>2024-01-25T15:23:10Z</time>
      </trkpt>
      <trkpt lat="48.73415" lon="-1.53087">
        <ele>80.7</ele>
        <time>2024-01-25T15:23:11Z</time>
      </trkpt>
      <trkpt lat="48.73417" lon="-1.53091">
        <ele>80.8</ele>
        <time>2024-01-25T15:23:12Z</time>
      </trkpt>
      <trkpt lat="48.7342" lon="-1.53095">
        <ele>81.1</ele>
        <time>2024-01-25T15:23:13Z</time>
      </trkpt>
      <trkpt lat="48.73422" lon="-1.53099">
        <ele>81.2</ele>
        <time>2024-01-25T15:23:14Z</time>
      </trkpt>
      <trkpt lat="48.73425" lon="-1.53102">
        <ele>81.4</ele>
        <time>2024-01-25T15:23:15Z</time>
      </trkpt>
      <trkpt lat="48.73427" lon="-1.53107">
        <ele>81.6</ele>
        <time>2024-01-25T15:23:16Z</time>
      </trkpt>
      <trkpt lat="48.73429" lon="-1.53111">
        <ele>81.7</ele>
        <time>2024-01-25T15:23:17Z</time>
      </trkpt>
      <trkpt lat="48.73431" lon="-1.53116">
        <ele>81.9</ele>
        <time>2024-01-25T15:23:18Z</time>
      </trkpt>
      <trkpt lat="48.73433" lon="-1.53121">
        <ele>82.1</ele>
        <time>2024-01-25T15:23:19Z</time>
      </trkpt>
      <trkpt lat="48.73435" lon="-1.53125">
        <ele>82.3</ele>
        <time>2024-01-25T15:23:20Z</time>
      </trkpt>
      <trkpt lat="48.73437" lon="-1.53129">
        <ele>82.4</ele>
        <time>2024-01-25T15:23:21Z</time>
      </trkpt>
      <trkpt lat="48.73439" lon="-1.53132">
        <ele>82.5</ele>
        <time>2024-01-25T15:23:22Z</time>
      </trkpt>
      <trkpt lat="48.73441" lon="-1.53136">
        <ele>82.7</ele>
        <time>2024-01-25T15:23:23Z</time>
      </trkpt>
      <trkpt lat="48.73442" lon="-1.53142">
        <ele>82.9</ele>
        <time>2024-01-25T15:23:24Z</time>
      </trkpt>
      <trkpt lat="48.73444" lon="-1.53147">
        <ele>83</ele>
        <time>2024-01-25T15:23:25Z</time>
      </trkpt>
      <trkpt lat="48.73445" lon="-1.53151">
        <ele>83.2</ele>
        <time>2024-01-25T15:23:26Z</time>
      </trkpt>
      <trkpt lat="48.73447" lon="-1.53154">
        <ele>83.3</ele>
        <time>2024-01-25T15:23:27Z</time>
      </trkpt>
      <trkpt lat="48.73449" lon="-1.53158">
        <ele>83.4</ele>
        <time>2024-01-25T15:23:28Z</time>
      </trkpt>
      <trkpt lat="48.73451" lon="-1.53163">
        <ele>83.6</ele>
        <time>2024-01-25T15:23:29Z</time>
      </trkpt>
      <trkpt lat="48.73452" lon="-1.53165">
        <ele>83.6</ele>
        <time>2024-01-25T15:23:30Z</time>
      </trkpt>
      <trkpt lat="48.73453" lon="-1.53169">
        <ele>83.8</ele>
        <time>2024-01-25T15:23:31Z</time>
      </trkpt>
      <trkpt lat="48.73453" lon="-1.53173">
        <ele>83.9</ele>
        <time>2024-01-25T15:23:32Z</time>
      </trkpt>
      <trkpt lat="48.73454" lon="-1.53178">
        <ele>84</ele>
        <time>2024-01-25T15:23:33Z</time>
      </trkpt>
      <trkpt lat="48.73456" lon="-1.53181">
        <ele>84.1</ele>
        <time>2024-01-25T15:23:34Z</time>
      </trkpt>
      <trkpt lat="48.73457" lon="-1.53182">
        <ele>84.1</ele>
        <time>2024-01-25T15:23:35Z</time>
      </trkpt>
      <trkpt lat="48.7346" lon="-1.5318">
        <ele>84.2</ele>
        <time>2024-01-25T15:23:36Z</time>
      </trkpt>
      <trkpt lat="48.73462" lon="-1.5318">
        <ele>84.3</ele>
        <time>2024-01-25T15:23:37Z</time>
      </trkpt>
      <trkpt lat="48.73463" lon="-1.5318">
        <ele>84.3</ele>
        <time>2024-01-25T15:23:38Z</time>
      </trkpt>
      <trkpt lat="48.73464" lon="-1.53181">
        <ele>84.4</ele>
        <time>2024-01-25T15:23:40Z</time>
      </trkpt>
      <trkpt lat="48.73463" lon="-1.53181">
        <ele>84.4</ele>
        <time>2024-01-25T15:23:42Z</time>
      </trkpt>
      <trkpt lat="48.73463" lon="-1.53182">
        <ele>84.4</ele>
        <time>2024-01-25T15:23:43Z</time>
      </trkpt>
      <trkpt lat="48.73463" lon="-1.53182">
        <ele>84.4</ele>
        <time>2024-01-25T15:23:44Z</time>
      </trkpt>
      <trkpt lat="48.73463" lon="-1.53182">
        <ele>84.4</ele>
        <time>2024-01-25T15:23:45Z</time>
      </trkpt>
      <trkpt lat="48.73463" lon="-1.53182">
        <ele>84.4</ele>
        <time>2024-01-25T15:23:46Z</time>
      </trkpt>
      <trkpt lat="48.73463" lon="-1.53182">
        <ele>84.4</ele>
        <time>2024-01-25T15:23:47Z</time>
      </trkpt>
      <trkpt lat="48.73462" lon="-1.53182">
        <ele>84.4</ele>
        <time>2024-01-25T15:23:48Z</time>
      </trkpt>
      <trkpt lat="48.73462" lon="-1.53182">
        <ele>84.4</ele>
        <time>2024-01-25T15:23:49Z</time>
      </trkpt>
      <trkpt lat="48.73462" lon="-1.53182">
        <ele>84.4</ele>
        <time>2024-01-25T15:23:50Z</time>
      </trkpt>
      <trkpt lat="48.73462" lon="-1.53182">
        <ele>84.4</ele>
        <time>2024-01-25T15:23:51Z</time>
      </trkpt>
      <trkpt lat="48.73462" lon="-1.53182">
        <ele>84.4</ele>
        <time>2024-01-25T15:23:52Z</time>
      </trkpt>
      <trkpt lat="48.73462" lon="-1.53182">
        <ele>84.4</ele>
        <time>2024-01-25T15:23:53Z</time>
      </trkpt>
      <trkpt lat="48.73462" lon="-1.53182">
        <ele>84.4</ele>
        <time>2024-01-25T15:23:54Z</time>
      </trkpt>
      <trkpt lat="48.73462" lon="-1.53182">
        <ele>84.4</ele>
        <time>2024-01-25T15:23:55Z</time>
      </trkpt>
      <trkpt lat="48.73462" lon="-1.53182">
        <ele>84.5</ele>
        <time>2024-01-25T15:23:56Z</time>
      </trkpt>
      <trkpt lat="48.73462" lon="-1.53182">
        <ele>84.5</ele>
        <time>2024-01-25T15:23:57Z</time>
      </trkpt>
      <trkpt lat="48.73462" lon="-1.53182">
        <ele>84.5</ele>
        <time>2024-01-25T15:23:58Z</time>
      </trkpt>
      <trkpt lat="48.73462" lon="-1.53182">
        <ele>84.5</ele>
        <time>2024-01-25T15:23:59Z</time>
      </trkpt>
      <trkpt lat="48.73462" lon="-1.53182">
        <ele>84.5</ele>
        <time>2024-01-25T15:24:00Z</time>
      </trkpt>
      <trkpt lat="48.73462" lon="-1.53182">
        <ele>84.5</ele>
        <time>2024-01-25T15:24:01Z</time>
      </trkpt>
      <trkpt lat="48.73462" lon="-1.53182">
        <ele>84.5</ele>
        <time>2024-01-25T15:24:02Z</time>
      </trkpt>
      <trkpt lat="48.73462" lon="-1.53182">
        <ele>84.5</ele>
        <time>2024-01-25T15:24:03Z</time>
      </trkpt>
      <trkpt lat="48.73462" lon="-1.53182">
        <ele>84.5</ele>
        <time>2024-01-25T15:24:04Z</time>
      </trkpt>
      <trkpt lat="48.73462" lon="-1.53182">
        <ele>84.5</ele>
        <time>2024-01-25T15:24:05Z</time>
      </trkpt>
      <trkpt lat="48.73462" lon="-1.53182">
        <ele>84.5</ele>
        <time>2024-01-25T15:24:06Z</time>
      </trkpt>
      <trkpt lat="48.73462" lon="-1.53182">
        <ele>84.5</ele>
        <time>2024-01-25T15:24:07Z</time>
      </trkpt>
      <trkpt lat="48.73462" lon="-1.53182">
        <ele>84.5</ele>
        <time>2024-01-25T15:24:08Z</time>
      </trkpt>
      <trkpt lat="48.73462" lon="-1.53182">
        <ele>84.5</ele>
        <time>2024-01-25T15:24:09Z</time>
      </trkpt>
      <trkpt lat="48.73462" lon="-1.53182">
        <ele>84.5</ele>
        <time>2024-01-25T15:24:10Z</time>
      </trkpt>
      <trkpt lat="48.73462" lon="-1.53182">
        <ele>84.5</ele>
        <time>2024-01-25T15:24:11Z</time>
      </trkpt>
      <trkpt lat="48.73462" lon="-1.53182">
        <ele>84.5</ele>
        <time>2024-01-25T15:24:12Z</time>
      </trkpt>
      <trkpt lat="48.73462" lon="-1.53182">
        <ele>84.5</ele>
        <time>2024-01-25T15:24:13Z</time>
      </trkpt>
      <trkpt lat="48.73462" lon="-1.53182">
        <ele>84.5</ele>
        <time>2024-01-25T15:24:14Z</time>
      </trkpt>
      <trkpt lat="48.73462" lon="-1.53182">
        <ele>84.5</ele>
        <time>2024-01-25T15:24:15Z</time>
      </trkpt>
      <trkpt lat="48.73462" lon="-1.53182">
        <ele>84.5</ele>
        <time>2024-01-25T15:24:16Z</time>
      </trkpt>
      <trkpt lat="48.73462" lon="-1.53182">
        <ele>84.5</ele>
        <time>2024-01-25T15:24:17Z</time>
      </trkpt>
      <trkpt lat="48.73463" lon="-1.53182">
        <ele>84.5</ele>
        <time>2024-01-25T15:24:18Z</time>
      </trkpt>
      <trkpt lat="48.73463" lon="-1.53182">
        <ele>84.5</ele>
        <time>2024-01-25T15:24:19Z</time>
      </trkpt>
      <trkpt lat="48.73463" lon="-1.53182">
        <ele>84.5</ele>
        <time>2024-01-25T15:24:20Z</time>
      </trkpt>
      <trkpt lat="48.73463" lon="-1.53182">
        <ele>84.5</ele>
        <time>2024-01-25T15:24:21Z</time>
      </trkpt>
      <trkpt lat="48.73463" lon="-1.53182">
        <ele>84.5</ele>
        <time>2024-01-25T15:24:22Z</time>
      </trkpt>
      <trkpt lat="48.73463" lon="-1.53182">
        <ele>84.5</ele>
        <time>2024-01-25T15:24:23Z</time>
      </trkpt>
      <trkpt lat="48.73463" lon="-1.53182">
        <ele>84.5</ele>
        <time>2024-01-25T15:24:24Z</time>
      </trkpt>
      <trkpt lat="48.73463" lon="-1.53182">
        <ele>84.5</ele>
        <time>2024-01-25T15:24:25Z</time>
      </trkpt>
      <trkpt lat="48.73463" lon="-1.53181">
        <ele>84.5</ele>
        <time>2024-01-25T15:24:26Z</time>
      </trkpt>
      <trkpt lat="48.73464" lon="-1.53181">
        <ele>84.5</ele>
        <time>2024-01-25T15:24:27Z</time>
      </trkpt>
      <trkpt lat="48.73464" lon="-1.5318">
        <ele>84.6</ele>
        <time>2024-01-25T15:24:28Z</time>
      </trkpt>
      <trkpt lat="48.73465" lon="-1.5318">
        <ele>84.6</ele>
        <time>2024-01-25T15:24:29Z</time>
      </trkpt>
      <trkpt lat="48.73466" lon="-1.53179">
        <ele>84.6</ele>
        <time>2024-01-25T15:24:30Z</time>
      </trkpt>
      <trkpt lat="48.73466" lon="-1.53178">
        <ele>84.6</ele>
        <time>2024-01-25T15:24:31Z</time>
      </trkpt>
      <trkpt lat="48.73467" lon="-1.53178">
        <ele>84.7</ele>
        <time>2024-01-25T15:24:32Z</time>
      </trkpt>
      <trkpt lat="48.73468" lon="-1.53178">
        <ele>84.7</ele>
        <time>2024-01-25T15:24:33Z</time>
      </trkpt>
      <trkpt lat="48.73468" lon="-1.53177">
        <ele>84.7</ele>
        <time>2024-01-25T15:24:34Z</time>
      </trkpt>
      <trkpt lat="48.73469" lon="-1.53176">
        <ele>84.7</ele>
        <time>2024-01-25T15:24:35Z</time>
      </trkpt>
      <trkpt lat="48.73469" lon="-1.53175">
        <ele>84.7</ele>
        <time>2024-01-25T15:24:36Z</time>
      </trkpt>
      <trkpt lat="48.7347" lon="-1.53175">
        <ele>84.8</ele>
        <time>2024-01-25T15:24:37Z</time>
      </trkpt>
      <trkpt lat="48.73471" lon="-1.53175">
        <ele>84.8</ele>
        <time>2024-01-25T15:24:38Z</time>
      </trkpt>
      <trkpt lat="48.73471" lon="-1.53175">
        <ele>84.8</ele>
        <time>2024-01-25T15:24:39Z</time>
      </trkpt>
      <trkpt lat="48.73472" lon="-1.53176">
        <ele>84.8</ele>
        <time>2024-01-25T15:24:40Z</time>
      </trkpt>
      <trkpt lat="48.73472" lon="-1.53176">
        <ele>84.8</ele>
        <time>2024-01-25T15:24:41Z</time>
      </trkpt>
      <trkpt lat="48.73473" lon="-1.53177">
        <ele>84.9</ele>
        <time>2024-01-25T15:24:42Z</time>
      </trkpt>
      <trkpt lat="48.73474" lon="-1.53177">
        <ele>84.9</ele>
        <time>2024-01-25T15:24:43Z</time>
      </trkpt>
      <trkpt lat="48.73474" lon="-1.53177">
        <ele>84.9</ele>
        <time>2024-01-25T15:24:44Z</time>
      </trkpt>
      <trkpt lat="48.73478" lon="-1.5318">
        <ele>85</ele>
        <time>2024-01-25T15:24:45Z</time>
      </trkpt>
      <trkpt lat="48.73483" lon="-1.53182">
        <ele>85.1</ele>
        <time>2024-01-25T15:24:46Z</time>
      </trkpt>
      <trkpt lat="48.73488" lon="-1.53184">
        <ele>85.2</ele>
        <time>2024-01-25T15:24:47Z</time>
      </trkpt>
      <trkpt lat="48.73491" lon="-1.53186">
        <ele>85.3</ele>
        <time>2024-01-25T15:24:48Z</time>
      </trkpt>
      <trkpt lat="48.73496" lon="-1.53189">
        <ele>85.4</ele>
        <time>2024-01-25T15:24:49Z</time>
      </trkpt>
      <trkpt lat="48.735" lon="-1.53191">
        <ele>85.4</ele>
        <time>2024-01-25T15:24:50Z</time>
      </trkpt>
      <trkpt lat="48.73504" lon="-1.53191">
        <ele>85.4</ele>
        <time>2024-01-25T15:24:51Z</time>
      </trkpt>
      <trkpt lat="48.73509" lon="-1.5319">
        <ele>85.4</ele>
        <time>2024-01-25T15:24:52Z</time>
      </trkpt>
      <trkpt lat="48.73514" lon="-1.53191">
        <ele>85.4</ele>
        <time>2024-01-25T15:24:53Z</time>
      </trkpt>
      <trkpt lat="48.73518" lon="-1.53192">
        <ele>85.5</ele>
        <time>2024-01-25T15:24:54Z</time>
      </trkpt>
      <trkpt lat="48.73523" lon="-1.53194">
        <ele>85.5</ele>
        <time>2024-01-25T15:24:55Z</time>
      </trkpt>
      <trkpt lat="48.73529" lon="-1.53195">
        <ele>85.4</ele>
        <time>2024-01-25T15:24:56Z</time>
      </trkpt>
      <trkpt lat="48.73534" lon="-1.53198">
        <ele>85.4</ele>
        <time>2024-01-25T15:24:57Z</time>
      </trkpt>
      <trkpt lat="48.73538" lon="-1.532">
        <ele>85.4</ele>
        <time>2024-01-25T15:24:58Z</time>
      </trkpt>
      <trkpt lat="48.73543" lon="-1.53201">
        <ele>85.3</ele>
        <time>2024-01-25T15:24:59Z</time>
      </trkpt>
      <trkpt lat="48.73548" lon="-1.53202">
        <ele>85.3</ele>
        <time>2024-01-25T15:25:00Z</time>
      </trkpt>
      <trkpt lat="48.73552" lon="-1.53203">
        <ele>85.2</ele>
        <time>2024-01-25T15:25:01Z</time>
      </trkpt>
      <trkpt lat="48.73557" lon="-1.53203">
        <ele>85.1</ele>
        <time>2024-01-25T15:25:02Z</time>
      </trkpt>
      <trkpt lat="48.73562" lon="-1.53203">
        <ele>85</ele>
        <time>2024-01-25T15:25:03Z</time>
      </trkpt>
      <trkpt lat="48.73568" lon="-1.53203">
        <ele>84.8</ele>
        <time>2024-01-25T15:25:04Z</time>
      </trkpt>
      <trkpt lat="48.73575" lon="-1.53202">
        <ele>84.6</ele>
        <time>2024-01-25T15:25:05Z</time>
      </trkpt>
      <trkpt lat="48.73582" lon="-1.53202">
        <ele>84.4</ele>
        <time>2024-01-25T15:25:06Z</time>
      </trkpt>
      <trkpt lat="48.73588" lon="-1.53202">
        <ele>84.1</ele>
        <time>2024-01-25T15:25:07Z</time>
      </trkpt>
      <trkpt lat="48.73594" lon="-1.532">
        <ele>83.8</ele>
        <time>2024-01-25T15:25:08Z</time>
      </trkpt>
      <trkpt lat="48.73601" lon="-1.53199">
        <ele>83.5</ele>
        <time>2024-01-25T15:25:09Z</time>
      </trkpt>
      <trkpt lat="48.73608" lon="-1.53196">
        <ele>83.1</ele>
        <time>2024-01-25T15:25:10Z</time>
      </trkpt>
      <trkpt lat="48.73616" lon="-1.53194">
        <ele>82.7</ele>
        <time>2024-01-25T15:25:11Z</time>
      </trkpt>
      <trkpt lat="48.73624" lon="-1.5319">
        <ele>82.2</ele>
        <time>2024-01-25T15:25:12Z</time>
      </trkpt>
      <trkpt lat="48.73632" lon="-1.53187">
        <ele>81.7</ele>
        <time>2024-01-25T15:25:13Z</time>
      </trkpt>
      <trkpt lat="48.7364" lon="-1.53183">
        <ele>81.2</ele>
        <time>2024-01-25T15:25:14Z</time>
      </trkpt>
      <trkpt lat="48.73649" lon="-1.5318">
        <ele>80.6</ele>
        <time>2024-01-25T15:25:15Z</time>
      </trkpt>
      <trkpt lat="48.73658" lon="-1.53176">
        <ele>80.1</ele>
        <time>2024-01-25T15:25:16Z</time>
      </trkpt>
      <trkpt lat="48.73667" lon="-1.53172">
        <ele>79.5</ele>
        <time>2024-01-25T15:25:17Z</time>
      </trkpt>
      <trkpt lat="48.73676" lon="-1.53168">
        <ele>78.9</ele>
        <time>2024-01-25T15:25:18Z</time>
      </trkpt>
      <trkpt lat="48.73686" lon="-1.53164">
        <ele>78.3</ele>
        <time>2024-01-25T15:25:19Z</time>
      </trkpt>
      <trkpt lat="48.73695" lon="-1.5316">
        <ele>77.7</ele>
        <time>2024-01-25T15:25:20Z</time>
      </trkpt>
      <trkpt lat="48.73705" lon="-1.53156">
        <ele>77.2</ele>
        <time>2024-01-25T15:25:21Z</time>
      </trkpt>
      <trkpt lat="48.73715" lon="-1.53153">
        <ele>76.5</ele>
        <time>2024-01-25T15:25:22Z</time>
      </trkpt>
      <trkpt lat="48.73725" lon="-1.5315">
        <ele>75.8</ele>
        <time>2024-01-25T15:25:23Z</time>
      </trkpt>
      <trkpt lat="48.73735" lon="-1.53147">
        <ele>75.1</ele>
        <time>2024-01-25T15:25:24Z</time>
      </trkpt>
      <trkpt lat="48.73745" lon="-1.53144">
        <ele>74.4</ele>
        <time>2024-01-25T15:25:25Z</time>
      </trkpt>
      <trkpt lat="48.73756" lon="-1.5314">
        <ele>73.6</ele>
        <time>2024-01-25T15:25:26Z</time>
      </trkpt>
      <trkpt lat="48.73767" lon="-1.53136">
        <ele>72.8</ele>
        <time>2024-01-25T15:25:27Z</time>
      </trkpt>
      <trkpt lat="48.73777" lon="-1.5313">
        <ele>72</ele>
        <time>2024-01-25T15:25:28Z</time>
      </trkpt>
      <trkpt lat="48.73787" lon="-1.53122">
        <ele>71.3</ele>
        <time>2024-01-25T15:25:29Z</time>
      </trkpt>
      <trkpt lat="48.73797" lon="-1.53111">
        <ele>70.7</ele>
        <time>2024-01-25T15:25:30Z</time>
      </trkpt>
      <trkpt lat="48.73806" lon="-1.53098">
        <ele>70.2</ele>
        <time>2024-01-25T15:25:31Z</time>
      </trkpt>
      <trkpt lat="48.73812" lon="-1.53083">
        <ele>70</ele>
        <time>2024-01-25T15:25:32Z</time>
      </trkpt>
      <trkpt lat="48.73817" lon="-1.53067">
        <ele>70</ele>
        <time>2024-01-25T15:25:33Z</time>
      </trkpt>
      <trkpt lat="48.73819" lon="-1.53051">
        <ele>70.2</ele>
        <time>2024-01-25T15:25:34Z</time>
      </trkpt>
      <trkpt lat="48.7382" lon="-1.53036">
        <ele>70.3</ele>
        <time>2024-01-25T15:25:35Z</time>
      </trkpt>
      <trkpt lat="48.7382" lon="-1.53021">
        <ele>70.5</ele>
        <time>2024-01-25T15:25:36Z</time>
      </trkpt>
      <trkpt lat="48.7382" lon="-1.53007">
        <ele>70.7</ele>
        <time>2024-01-25T15:25:37Z</time>
      </trkpt>
      <trkpt lat="48.73821" lon="-1.52993">
        <ele>71</ele>
        <time>2024-01-25T15:25:38Z</time>
      </trkpt>
      <trkpt lat="48.73822" lon="-1.52981">
        <ele>71.3</ele>
        <time>2024-01-25T15:25:39Z</time>
      </trkpt>
      <trkpt lat="48.73824" lon="-1.52969">
        <ele>71.6</ele>
        <time>2024-01-25T15:25:40Z</time>
      </trkpt>
      <trkpt lat="48.73826" lon="-1.52957">
        <ele>71.9</ele>
        <time>2024-01-25T15:25:41Z</time>
      </trkpt>
      <trkpt lat="48.73829" lon="-1.52946">
        <ele>72.2</ele>
        <time>2024-01-25T15:25:42Z</time>
      </trkpt>
      <trkpt lat="48.73832" lon="-1.52935">
        <ele>72.5</ele>
        <time>2024-01-25T15:25:43Z</time>
      </trkpt>
      <trkpt lat="48.73835" lon="-1.52926">
        <ele>72.8</ele>
        <time>2024-01-25T15:25:44Z</time>
      </trkpt>
      <trkpt lat="48.73837" lon="-1.52917">
        <ele>73.1</ele>
        <time>2024-01-25T15:25:45Z</time>
      </trkpt>
      <trkpt lat="48.73839" lon="-1.52909">
        <ele>73.3</ele>
        <time>2024-01-25T15:25:46Z</time>
      </trkpt>
      <trkpt lat="48.7384" lon="-1.529">
        <ele>73.6</ele>
        <time>2024-01-25T15:25:47Z</time>
      </trkpt>
      <trkpt lat="48.73842" lon="-1.52891">
        <ele>73.8</ele>
        <time>2024-01-25T15:25:48Z</time>
      </trkpt>
      <trkpt lat="48.73844" lon="-1.52884">
        <ele>74</ele>
        <time>2024-01-25T15:25:49Z</time>
      </trkpt>
      <trkpt lat="48.73846" lon="-1.52876">
        <ele>74.2</ele>
        <time>2024-01-25T15:25:50Z</time>
      </trkpt>
      <trkpt lat="48.73848" lon="-1.52868">
        <ele>74.4</ele>
        <time>2024-01-25T15:25:51Z</time>
      </trkpt>
      <trkpt lat="48.73849" lon="-1.5286">
        <ele>74.6</ele>
        <time>2024-01-25T15:25:52Z</time>
      </trkpt>
      <trkpt lat="48.73851" lon="-1.52852">
        <ele>74.8</ele>
        <time>2024-01-25T15:25:53Z</time>
      </trkpt>
      <trkpt lat="48.73854" lon="-1.52844">
        <ele>75</ele>
        <time>2024-01-25T15:25:54Z</time>
      </trkpt>
      <trkpt lat="48.73856" lon="-1.52837">
        <ele>75.2</ele>
        <time>2024-01-25T15:25:55Z</time>
      </trkpt>
      <trkpt lat="48.73858" lon="-1.5283">
        <ele>75.4</ele>
        <time>2024-01-25T15:25:56Z</time>
      </trkpt>
      <trkpt lat="48.73861" lon="-1.52824">
        <ele>75.7</ele>
        <time>2024-01-25T15:25:57Z</time>
      </trkpt>
      <trkpt lat="48.73864" lon="-1.52818">
        <ele>75.9</ele>
        <time>2024-01-25T15:25:58Z</time>
      </trkpt>
      <trkpt lat="48.73867" lon="-1.52812">
        <ele>76.1</ele>
        <time>2024-01-25T15:25:59Z</time>
      </trkpt>
      <trkpt lat="48.73871" lon="-1.52806">
        <ele>76.3</ele>
        <time>2024-01-25T15:26:00Z</time>
      </trkpt>
      <trkpt lat="48.73874" lon="-1.528">
        <ele>76.6</ele>
        <time>2024-01-25T15:26:01Z</time>
      </trkpt>
      <trkpt lat="48.73877" lon="-1.52795">
        <ele>76.8</ele>
        <time>2024-01-25T15:26:02Z</time>
      </trkpt>
      <trkpt lat="48.7388" lon="-1.52789">
        <ele>77</ele>
        <time>2024-01-25T15:26:03Z</time>
      </trkpt>
      <trkpt lat="48.73883" lon="-1.52784">
        <ele>77.2</ele>
        <time>2024-01-25T15:26:04Z</time>
      </trkpt>
      <trkpt lat="48.73885" lon="-1.5278">
        <ele>77.4</ele>
        <time>2024-01-25T15:26:05Z</time>
      </trkpt>
      <trkpt lat="48.73887" lon="-1.52774">
        <ele>77.6</ele>
        <time>2024-01-25T15:26:06Z</time>
      </trkpt>
      <trkpt lat="48.73892" lon="-1.52762">
        <ele>78.1</ele>
        <time>2024-01-25T15:26:08Z</time>
      </trkpt>
      <trkpt lat="48.73895" lon="-1.52756">
        <ele>78.3</ele>
        <time>2024-01-25T15:26:10Z</time>
      </trkpt>
      <trkpt lat="48.73898" lon="-1.52749">
        <ele>78.6</ele>
        <time>2024-01-25T15:26:11Z</time>
      </trkpt>
      <trkpt lat="48.73901" lon="-1.52742">
        <ele>78.8</ele>
        <time>2024-01-25T15:26:12Z</time>
      </trkpt>
      <trkpt lat="48.73904" lon="-1.52737">
        <ele>79.1</ele>
        <time>2024-01-25T15:26:13Z</time>
      </trkpt>
      <trkpt lat="48.73905" lon="-1.52731">
        <ele>79.2</ele>
        <time>2024-01-25T15:26:14Z</time>
      </trkpt>
      <trkpt lat="48.73908" lon="-1.52725">
        <ele>79.4</ele>
        <time>2024-01-25T15:26:15Z</time>
      </trkpt>
      <trkpt lat="48.7391" lon="-1.5272">
        <ele>79.5</ele>
        <time>2024-01-25T15:26:16Z</time>
      </trkpt>
      <trkpt lat="48.7391" lon="-1.52714">
        <ele>79.7</ele>
        <time>2024-01-25T15:26:17Z</time>
      </trkpt>
      <trkpt lat="48.73911" lon="-1.52707">
        <ele>79.8</ele>
        <time>2024-01-25T15:26:18Z</time>
      </trkpt>
      <trkpt lat="48.73911" lon="-1.52701">
        <ele>80</ele>
        <time>2024-01-25T15:26:19Z</time>
      </trkpt>
      <trkpt lat="48.73911" lon="-1.52695">
        <ele>80.1</ele>
        <time>2024-01-25T15:26:20Z</time>
      </trkpt>
      <trkpt lat="48.73911" lon="-1.52687">
        <ele>80.3</ele>
        <time>2024-01-25T15:26:21Z</time>
      </trkpt>
      <trkpt lat="48.73911" lon="-1.52681">
        <ele>80.4</ele>
        <time>2024-01-25T15:26:22Z</time>
      </trkpt>
      <trkpt lat="48.73911" lon="-1.52674">
        <ele>80.6</ele>
        <time>2024-01-25T15:26:23Z</time>
      </trkpt>
      <trkpt lat="48.7391" lon="-1.52667">
        <ele>80.8</ele>
        <time>2024-01-25T15:26:24Z</time>
      </trkpt>
      <trkpt lat="48.73909" lon="-1.52662">
        <ele>80.9</ele>
        <time>2024-01-25T15:26:25Z</time>
      </trkpt>
      <trkpt lat="48.73908" lon="-1.52655">
        <ele>81.1</ele>
        <time>2024-01-25T15:26:26Z</time>
      </trkpt>
      <trkpt lat="48.73908" lon="-1.52649">
        <ele>81.3</ele>
        <time>2024-01-25T15:26:27Z</time>
      </trkpt>
      <trkpt lat="48.73909" lon="-1.52643">
        <ele>81.4</ele>
        <time>2024-01-25T15:26:28Z</time>
      </trkpt>
      <trkpt lat="48.7391" lon="-1.52636">
        <ele>81.6</ele>
        <time>2024-01-25T15:26:29Z</time>
      </trkpt>
      <trkpt lat="48.7391" lon="-1.5263">
        <ele>81.7</ele>
        <time>2024-01-25T15:26:30Z</time>
      </trkpt>
      <trkpt lat="48.7391" lon="-1.52624">
        <ele>81.8</ele>
        <time>2024-01-25T15:26:31Z</time>
      </trkpt>
      <trkpt lat="48.7391" lon="-1.52618">
        <ele>82</ele>
        <time>2024-01-25T15:26:32Z</time>
      </trkpt>
      <trkpt lat="48.73911" lon="-1.52611">
        <ele>82.1</ele>
        <time>2024-01-25T15:26:33Z</time>
      </trkpt>
      <trkpt lat="48.73912" lon="-1.52605">
        <ele>82.2</ele>
        <time>2024-01-25T15:26:34Z</time>
      </trkpt>
      <trkpt lat="48.73914" lon="-1.526">
        <ele>82.3</ele>
        <time>2024-01-25T15:26:35Z</time>
      </trkpt>
      <trkpt lat="48.73917" lon="-1.52598">
        <ele>82.2</ele>
        <time>2024-01-25T15:26:36Z</time>
      </trkpt>
      <trkpt lat="48.7392" lon="-1.52598">
        <ele>82.2</ele>
        <time>2024-01-25T15:26:37Z</time>
      </trkpt>
      <trkpt lat="48.73923" lon="-1.52598">
        <ele>82.2</ele>
        <time>2024-01-25T15:26:38Z</time>
      </trkpt>
      <trkpt lat="48.73927" lon="-1.526">
        <ele>82.2</ele>
        <time>2024-01-25T15:26:39Z</time>
      </trkpt>
      <trkpt lat="48.73932" lon="-1.52602">
        <ele>82.1</ele>
        <time>2024-01-25T15:26:40Z</time>
      </trkpt>
      <trkpt lat="48.73937" lon="-1.52603">
        <ele>82</ele>
        <time>2024-01-25T15:26:41Z</time>
      </trkpt>
      <trkpt lat="48.73942" lon="-1.52605">
        <ele>82</ele>
        <time>2024-01-25T15:26:42Z</time>
      </trkpt>
      <trkpt lat="48.73948" lon="-1.52606">
        <ele>81.9</ele>
        <time>2024-01-25T15:26:43Z</time>
      </trkpt>
      <trkpt lat="48.73953" lon="-1.52607">
        <ele>81.8</ele>
        <time>2024-01-25T15:26:44Z</time>
      </trkpt>
      <trkpt lat="48.73958" lon="-1.52609">
        <ele>81.7</ele>
        <time>2024-01-25T15:26:45Z</time>
      </trkpt>
      <trkpt lat="48.73963" lon="-1.52611">
        <ele>81.6</ele>
        <time>2024-01-25T15:26:46Z</time>
      </trkpt>
      <trkpt lat="48.73969" lon="-1.52612">
        <ele>81.4</ele>
        <time>2024-01-25T15:26:47Z</time>
      </trkpt>
      <trkpt lat="48.73974" lon="-1.52615">
        <ele>81.3</ele>
        <time>2024-01-25T15:26:48Z</time>
      </trkpt>
      <trkpt lat="48.7398" lon="-1.52617">
        <ele>81.1</ele>
        <time>2024-01-25T15:26:49Z</time>
      </trkpt>
      <trkpt lat="48.73986" lon="-1.52619">
        <ele>80.9</ele>
        <time>2024-01-25T15:26:50Z</time>
      </trkpt>
      <trkpt lat="48.73992" lon="-1.52621">
        <ele>80.7</ele>
        <time>2024-01-25T15:26:51Z</time>
      </trkpt>
      <trkpt lat="48.73999" lon="-1.52623">
        <ele>80.5</ele>
        <time>2024-01-25T15:26:52Z</time>
      </trkpt>
      <trkpt lat="48.74006" lon="-1.52624">
        <ele>80.3</ele>
        <time>2024-01-25T15:26:53Z</time>
      </trkpt>
      <trkpt lat="48.74013" lon="-1.52626">
        <ele>80</ele>
        <time>2024-01-25T15:26:54Z</time>
      </trkpt>
      <trkpt lat="48.7402" lon="-1.52628">
        <ele>79.7</ele>
        <time>2024-01-25T15:26:55Z</time>
      </trkpt>
      <trkpt lat="48.74027" lon="-1.5263">
        <ele>79.4</ele>
        <time>2024-01-25T15:26:56Z</time>
      </trkpt>
      <trkpt lat="48.74035" lon="-1.52632">
        <ele>79.2</ele>
        <time>2024-01-25T15:26:57Z</time>
      </trkpt>
      <trkpt lat="48.74042" lon="-1.52635">
        <ele>78.8</ele>
        <time>2024-01-25T15:26:58Z</time>
      </trkpt>
      <trkpt lat="48.7405" lon="-1.52637">
        <ele>78.5</ele>
        <time>2024-01-25T15:26:59Z</time>
      </trkpt>
      <trkpt lat="48.74058" lon="-1.52639">
        <ele>78.1</ele>
        <time>2024-01-25T15:27:00Z</time>
      </trkpt>
      <trkpt lat="48.74066" lon="-1.52641">
        <ele>77.7</ele>
        <time>2024-01-25T15:27:01Z</time>
      </trkpt>
      <trkpt lat="48.74074" lon="-1.52644">
        <ele>77.2</ele>
        <time>2024-01-25T15:27:02Z</time>
      </trkpt>
      <trkpt lat="48.74082" lon="-1.52645">
        <ele>76.8</ele>
        <time>2024-01-25T15:27:03Z</time>
      </trkpt>
      <trkpt lat="48.74091" lon="-1.52647">
        <ele>76.3</ele>
        <time>2024-01-25T15:27:04Z</time>
      </trkpt>
      <trkpt lat="48.741" lon="-1.52646">
        <ele>75.9</ele>
        <time>2024-01-25T15:27:05Z</time>
      </trkpt>
      <trkpt lat="48.74108" lon="-1.52643">
        <ele>75.5</ele>
        <time>2024-01-25T15:27:06Z</time>
      </trkpt>
      <trkpt lat="48.74117" lon="-1.52638">
        <ele>75.1</ele>
        <time>2024-01-25T15:27:07Z</time>
      </trkpt>
      <trkpt lat="48.74125" lon="-1.52631">
        <ele>74.6</ele>
        <time>2024-01-25T15:27:08Z</time>
      </trkpt>
      <trkpt lat="48.74134" lon="-1.52623">
        <ele>74</ele>
        <time>2024-01-25T15:27:09Z</time>
      </trkpt>
      <trkpt lat="48.74142" lon="-1.52615">
        <ele>73.4</ele>
        <time>2024-01-25T15:27:10Z</time>
      </trkpt>
      <trkpt lat="48.74151" lon="-1.52607">
        <ele>72.8</ele>
        <time>2024-01-25T15:27:11Z</time>
      </trkpt>
      <trkpt lat="48.7416" lon="-1.526">
        <ele>72.2</ele>
        <time>2024-01-25T15:27:12Z</time>
      </trkpt>
      <trkpt lat="48.74169" lon="-1.52594">
        <ele>71.5</ele>
        <time>2024-01-25T15:27:13Z</time>
      </trkpt>
      <trkpt lat="48.7418" lon="-1.52589">
        <ele>70.7</ele>
        <time>2024-01-25T15:27:14Z</time>
      </trkpt>
      <trkpt lat="48.74191" lon="-1.52586">
        <ele>70</ele>
        <time>2024-01-25T15:27:15Z</time>
      </trkpt>
      <trkpt lat="48.74202" lon="-1.52584">
        <ele>69.3</ele>
        <time>2024-01-25T15:27:16Z</time>
      </trkpt>
      <trkpt lat="48.74214" lon="-1.52585">
        <ele>68.7</ele>
        <time>2024-01-25T15:27:17Z</time>
      </trkpt>
      <trkpt lat="48.74225" lon="-1.52587">
        <ele>68.2</ele>
        <time>2024-01-25T15:27:18Z</time>
      </trkpt>
      <trkpt lat="48.74237" lon="-1.52589">
        <ele>67.9</ele>
        <time>2024-01-25T15:27:19Z</time>
      </trkpt>
      <trkpt lat="48.74248" lon="-1.52592">
        <ele>67.7</ele>
        <time>2024-01-25T15:27:20Z</time>
      </trkpt>
      <trkpt lat="48.74259" lon="-1.52595">
        <ele>67.7</ele>
        <time>2024-01-25T15:27:21Z</time>
      </trkpt>
      <trkpt lat="48.74269" lon="-1.52598">
        <ele>67.8</ele>
        <time>2024-01-25T15:27:22Z</time>
      </trkpt>
      <trkpt lat="48.74279" lon="-1.52601">
        <ele>68</ele>
        <time>2024-01-25T15:27:23Z</time>
      </trkpt>
      <trkpt lat="48.74289" lon="-1.52604">
        <ele>68.3</ele>
        <time>2024-01-25T15:27:24Z</time>
      </trkpt>
      <trkpt lat="48.74297" lon="-1.52607">
        <ele>68.7</ele>
        <time>2024-01-25T15:27:25Z</time>
      </trkpt>
      <trkpt lat="48.74306" lon="-1.52609">
        <ele>69.1</ele>
        <time>2024-01-25T15:27:26Z</time>
      </trkpt>
      <trkpt lat="48.74313" lon="-1.52612">
        <ele>69.5</ele>
        <time>2024-01-25T15:27:27Z</time>
      </trkpt>
      <trkpt lat="48.7432" lon="-1.52615">
        <ele>69.9</ele>
        <time>2024-01-25T15:27:28Z</time>
      </trkpt>
      <trkpt lat="48.74327" lon="-1.52617">
        <ele>70.3</ele>
        <time>2024-01-25T15:27:29Z</time>
      </trkpt>
      <trkpt lat="48.74334" lon="-1.52619">
        <ele>70.8</ele>
        <time>2024-01-25T15:27:30Z</time>
      </trkpt>
      <trkpt lat="48.74341" lon="-1.52621">
        <ele>71.2</ele>
        <time>2024-01-25T15:27:31Z</time>
      </trkpt>
      <trkpt lat="48.74347" lon="-1.52623">
        <ele>71.6</ele>
        <time>2024-01-25T15:27:32Z</time>
      </trkpt>
      <trkpt lat="48.74352" lon="-1.52625">
        <ele>71.9</ele>
        <time>2024-01-25T15:27:33Z</time>
      </trkpt>
      <trkpt lat="48.74358" lon="-1.52627">
        <ele>72.3</ele>
        <time>2024-01-25T15:27:34Z</time>
      </trkpt>
      <trkpt lat="48.74364" lon="-1.52628">
        <ele>72.6</ele>
        <time>2024-01-25T15:27:35Z</time>
      </trkpt>
      <trkpt lat="48.74369" lon="-1.5263">
        <ele>72.9</ele>
        <time>2024-01-25T15:27:36Z</time>
      </trkpt>
      <trkpt lat="48.74375" lon="-1.52632">
        <ele>73.3</ele>
        <time>2024-01-25T15:27:37Z</time>
      </trkpt>
      <trkpt lat="48.7438" lon="-1.52634">
        <ele>73.6</ele>
        <time>2024-01-25T15:27:38Z</time>
      </trkpt>
      <trkpt lat="48.74385" lon="-1.52635">
        <ele>73.9</ele>
        <time>2024-01-25T15:27:39Z</time>
      </trkpt>
      <trkpt lat="48.7439" lon="-1.52637">
        <ele>74.2</ele>
        <time>2024-01-25T15:27:40Z</time>
      </trkpt>
      <trkpt lat="48.74395" lon="-1.52639">
        <ele>74.4</ele>
        <time>2024-01-25T15:27:41Z</time>
      </trkpt>
      <trkpt lat="48.74399" lon="-1.52641">
        <ele>74.7</ele>
        <time>2024-01-25T15:27:42Z</time>
      </trkpt>
      <trkpt lat="48.74404" lon="-1.52643">
        <ele>74.9</ele>
        <time>2024-01-25T15:27:43Z</time>
      </trkpt>
      <trkpt lat="48.74409" lon="-1.52645">
        <ele>75.2</ele>
        <time>2024-01-25T15:27:44Z</time>
      </trkpt>
      <trkpt lat="48.74413" lon="-1.52647">
        <ele>75.4</ele>
        <time>2024-01-25T15:27:45Z</time>
      </trkpt>
      <trkpt lat="48.74418" lon="-1.5265">
        <ele>75.6</ele>
        <time>2024-01-25T15:27:46Z</time>
      </trkpt>
      <trkpt lat="48.74423" lon="-1.52653">
        <ele>75.8</ele>
        <time>2024-01-25T15:27:47Z</time>
      </trkpt>
      <trkpt lat="48.74427" lon="-1.52656">
        <ele>76</ele>
        <time>2024-01-25T15:27:48Z</time>
      </trkpt>
      <trkpt lat="48.74432" lon="-1.52658">
        <ele>76.1</ele>
        <time>2024-01-25T15:27:49Z</time>
      </trkpt>
      <trkpt lat="48.74436" lon="-1.52661">
        <ele>76.3</ele>
        <time>2024-01-25T15:27:50Z</time>
      </trkpt>
      <trkpt lat="48.74441" lon="-1.52664">
        <ele>76.5</ele>
        <time>2024-01-25T15:27:51Z</time>
      </trkpt>
      <trkpt lat="48.74444" lon="-1.52667">
        <ele>76.6</ele>
        <time>2024-01-25T15:27:52Z</time>
      </trkpt>
      <trkpt lat="48.74448" lon="-1.5267">
        <ele>76.8</ele>
        <time>2024-01-25T15:27:53Z</time>
      </trkpt>
      <trkpt lat="48.74452" lon="-1.52674">
        <ele>76.9</ele>
        <time>2024-01-25T15:27:54Z</time>
      </trkpt>
      <trkpt lat="48.74456" lon="-1.52677">
        <ele>77.1</ele>
        <time>2024-01-25T15:27:55Z</time>
      </trkpt>
      <trkpt lat="48.7446" lon="-1.5268">
        <ele>77.3</ele>
        <time>2024-01-25T15:27:56Z</time>
      </trkpt>
      <trkpt lat="48.74465" lon="-1.52683">
        <ele>77.4</ele>
        <time>2024-01-25T15:27:57Z</time>
      </trkpt>
      <trkpt lat="48.74469" lon="-1.52686">
        <ele>77.6</ele>
        <time>2024-01-25T15:27:58Z</time>
      </trkpt>
      <trkpt lat="48.74473" lon="-1.52689">
        <ele>77.8</ele>
        <time>2024-01-25T15:27:59Z</time>
      </trkpt>
      <trkpt lat="48.74477" lon="-1.52692">
        <ele>78</ele>
        <time>2024-01-25T15:28:00Z</time>
      </trkpt>
      <trkpt lat="48.74481" lon="-1.52696">
        <ele>78.1</ele>
        <time>2024-01-25T15:28:01Z</time>
      </trkpt>
      <trkpt lat="48.74485" lon="-1.527">
        <ele>78.3</ele>
        <time>2024-01-25T15:28:02Z</time>
      </trkpt>
      <trkpt lat="48.74489" lon="-1.52702">
        <ele>78.5</ele>
        <time>2024-01-25T15:28:03Z</time>
      </trkpt>
      <trkpt lat="48.74494" lon="-1.52704">
        <ele>78.7</ele>
        <time>2024-01-25T15:28:04Z</time>
      </trkpt>
      <trkpt lat="48.74499" lon="-1.52706">
        <ele>78.8</ele>
        <time>2024-01-25T15:28:05Z</time>
      </trkpt>
      <trkpt lat="48.74503" lon="-1.52708">
        <ele>79</ele>
        <time>2024-01-25T15:28:06Z</time>
      </trkpt>
      <trkpt lat="48.74508" lon="-1.5271">
        <ele>79.1</ele>
        <time>2024-01-25T15:28:07Z</time>
      </trkpt>
      <trkpt lat="48.74513" lon="-1.52712">
        <ele>79.2</ele>
        <time>2024-01-25T15:28:08Z</time>
      </trkpt>
      <trkpt lat="48.74518" lon="-1.52714">
        <ele>79.3</ele>
        <time>2024-01-25T15:28:09Z</time>
      </trkpt>
      <trkpt lat="48.74523" lon="-1.52715">
        <ele>79.4</ele>
        <time>2024-01-25T15:28:10Z</time>
      </trkpt>
      <trkpt lat="48.74528" lon="-1.52717">
        <ele>79.5</ele>
        <time>2024-01-25T15:28:11Z</time>
      </trkpt>
      <trkpt lat="48.74533" lon="-1.52718">
        <ele>79.5</ele>
        <time>2024-01-25T15:28:12Z</time>
      </trkpt>
      <trkpt lat="48.74539" lon="-1.52721">
        <ele>79.6</ele>
        <time>2024-01-25T15:28:13Z</time>
      </trkpt>
      <trkpt lat="48.74545" lon="-1.52722">
        <ele>79.5</ele>
        <time>2024-01-25T15:28:14Z</time>
      </trkpt>
      <trkpt lat="48.74551" lon="-1.52723">
        <ele>79.4</ele>
        <time>2024-01-25T15:28:15Z</time>
      </trkpt>
      <trkpt lat="48.74557" lon="-1.52724">
        <ele>79.3</ele>
        <time>2024-01-25T15:28:16Z</time>
      </trkpt>
      <trkpt lat="48.74564" lon="-1.52724">
        <ele>79.2</ele>
        <time>2024-01-25T15:28:17Z</time>
      </trkpt>
      <trkpt lat="48.74571" lon="-1.52724">
        <ele>79</ele>
        <time>2024-01-25T15:28:18Z</time>
      </trkpt>
      <trkpt lat="48.74578" lon="-1.52725">
        <ele>78.9</ele>
        <time>2024-01-25T15:28:19Z</time>
      </trkpt>
      <trkpt lat="48.74584" lon="-1.52726">
        <ele>78.8</ele>
        <time>2024-01-25T15:28:20Z</time>
      </trkpt>
      <trkpt lat="48.74591" lon="-1.52727">
        <ele>78.7</ele>
        <time>2024-01-25T15:28:21Z</time>
      </trkpt>
      <trkpt lat="48.74598" lon="-1.52728">
        <ele>78.6</ele>
        <time>2024-01-25T15:28:22Z</time>
      </trkpt>
      <trkpt lat="48.74604" lon="-1.52729">
        <ele>78.4</ele>
        <time>2024-01-25T15:28:23Z</time>
      </trkpt>
      <trkpt lat="48.74611" lon="-1.5273">
        <ele>78.3</ele>
        <time>2024-01-25T15:28:24Z</time>
      </trkpt>
      <trkpt lat="48.74618" lon="-1.5273">
        <ele>78.3</ele>
        <time>2024-01-25T15:28:25Z</time>
      </trkpt>
      <trkpt lat="48.74624" lon="-1.52731">
        <ele>78.2</ele>
        <time>2024-01-25T15:28:26Z</time>
      </trkpt>
      <trkpt lat="48.74631" lon="-1.52732">
        <ele>78.1</ele>
        <time>2024-01-25T15:28:27Z</time>
      </trkpt>
      <trkpt lat="48.74637" lon="-1.52734">
        <ele>78.1</ele>
        <time>2024-01-25T15:28:28Z</time>
      </trkpt>
      <trkpt lat="48.74644" lon="-1.52735">
        <ele>78.1</ele>
        <time>2024-01-25T15:28:29Z</time>
      </trkpt>
      <trkpt lat="48.7465" lon="-1.52737">
        <ele>78.1</ele>
        <time>2024-01-25T15:28:30Z</time>
      </trkpt>
      <trkpt lat="48.74656" lon="-1.52739">
        <ele>78.1</ele>
        <time>2024-01-25T15:28:31Z</time>
      </trkpt>
      <trkpt lat="48.74662" lon="-1.52742">
        <ele>78.2</ele>
        <time>2024-01-25T15:28:32Z</time>
      </trkpt>
      <trkpt lat="48.74668" lon="-1.52745">
        <ele>78.3</ele>
        <time>2024-01-25T15:28:33Z</time>
      </trkpt>
      <trkpt lat="48.74674" lon="-1.52749">
        <ele>78.4</ele>
        <time>2024-01-25T15:28:34Z</time>
      </trkpt>
      <trkpt lat="48.7468" lon="-1.52752">
        <ele>78.6</ele>
        <time>2024-01-25T15:28:35Z</time>
      </trkpt>
      <trkpt lat="48.74686" lon="-1.52756">
        <ele>78.7</ele>
        <time>2024-01-25T15:28:36Z</time>
      </trkpt>
      <trkpt lat="48.74691" lon="-1.52758">
        <ele>78.9</ele>
        <time>2024-01-25T15:28:37Z</time>
      </trkpt>
      <trkpt lat="48.74696" lon="-1.52761">
        <ele>79.1</ele>
        <time>2024-01-25T15:28:38Z</time>
      </trkpt>
      <trkpt lat="48.74701" lon="-1.52764">
        <ele>79.2</ele>
        <time>2024-01-25T15:28:39Z</time>
      </trkpt>
      <trkpt lat="48.74706" lon="-1.52766">
        <ele>79.4</ele>
        <time>2024-01-25T15:28:40Z</time>
      </trkpt>
      <trkpt lat="48.74712" lon="-1.52768">
        <ele>79.5</ele>
        <time>2024-01-25T15:28:41Z</time>
      </trkpt>
      <trkpt lat="48.74717" lon="-1.5277">
        <ele>79.7</ele>
        <time>2024-01-25T15:28:42Z</time>
      </trkpt>
      <trkpt lat="48.74721" lon="-1.52772">
        <ele>79.9</ele>
        <time>2024-01-25T15:28:43Z</time>
      </trkpt>
      <trkpt lat="48.74726" lon="-1.52774">
        <ele>80.1</ele>
        <time>2024-01-25T15:28:44Z</time>
      </trkpt>
      <trkpt lat="48.7473" lon="-1.52776">
        <ele>80.2</ele>
        <time>2024-01-25T15:28:45Z</time>
      </trkpt>
      <trkpt lat="48.74735" lon="-1.52778">
        <ele>80.4</ele>
        <time>2024-01-25T15:28:46Z</time>
      </trkpt>
      <trkpt lat="48.74739" lon="-1.52781">
        <ele>80.6</ele>
        <time>2024-01-25T15:28:47Z</time>
      </trkpt>
      <trkpt lat="48.74744" lon="-1.52783">
        <ele>80.8</ele>
        <time>2024-01-25T15:28:48Z</time>
      </trkpt>
      <trkpt lat="48.74748" lon="-1.52785">
        <ele>81</ele>
        <time>2024-01-25T15:28:49Z</time>
      </trkpt>
      <trkpt lat="48.74753" lon="-1.52787">
        <ele>81.1</ele>
        <time>2024-01-25T15:28:50Z</time>
      </trkpt>
      <trkpt lat="48.74758" lon="-1.5279">
        <ele>81.3</ele>
        <time>2024-01-25T15:28:51Z</time>
      </trkpt>
      <trkpt lat="48.74762" lon="-1.52792">
        <ele>81.5</ele>
        <time>2024-01-25T15:28:52Z</time>
      </trkpt>
      <trkpt lat="48.74766" lon="-1.52794">
        <ele>81.7</ele>
        <time>2024-01-25T15:28:53Z</time>
      </trkpt>
      <trkpt lat="48.7477" lon="-1.52797">
        <ele>81.9</ele>
        <time>2024-01-25T15:28:54Z</time>
      </trkpt>
      <trkpt lat="48.74774" lon="-1.52799">
        <ele>82.1</ele>
        <time>2024-01-25T15:28:55Z</time>
      </trkpt>
      <trkpt lat="48.74779" lon="-1.52802">
        <ele>82.3</ele>
        <time>2024-01-25T15:28:56Z</time>
      </trkpt>
      <trkpt lat="48.74783" lon="-1.52804">
        <ele>82.5</ele>
        <time>2024-01-25T15:28:57Z</time>
      </trkpt>
      <trkpt lat="48.74787" lon="-1.52806">
        <ele>82.7</ele>
        <time>2024-01-25T15:28:58Z</time>
      </trkpt>
      <trkpt lat="48.74792" lon="-1.52808">
        <ele>82.8</ele>
        <time>2024-01-25T15:28:59Z</time>
      </trkpt>
      <trkpt lat="48.748" lon="-1.52812">
        <ele>83.1</ele>
        <time>2024-01-25T15:29:01Z</time>
      </trkpt>
      <trkpt lat="48.74805" lon="-1.52814">
        <ele>83.3</ele>
        <time>2024-01-25T15:29:02Z</time>
      </trkpt>
      <trkpt lat="48.7481" lon="-1.52816">
        <ele>83.5</ele>
        <time>2024-01-25T15:29:03Z</time>
      </trkpt>
      <trkpt lat="48.74815" lon="-1.52819">
        <ele>83.7</ele>
        <time>2024-01-25T15:29:04Z</time>
      </trkpt>
      <trkpt lat="48.7482" lon="-1.52821">
        <ele>83.9</ele>
        <time>2024-01-25T15:29:05Z</time>
      </trkpt>
      <trkpt lat="48.74828" lon="-1.52824">
        <ele>84.2</ele>
        <time>2024-01-25T15:29:07Z</time>
      </trkpt>
      <trkpt lat="48.74833" lon="-1.52826">
        <ele>84.4</ele>
        <time>2024-01-25T15:29:08Z</time>
      </trkpt>
      <trkpt lat="48.74838" lon="-1.52828">
        <ele>84.6</ele>
        <time>2024-01-25T15:29:09Z</time>
      </trkpt>
      <trkpt lat="48.74843" lon="-1.5283">
        <ele>84.7</ele>
        <time>2024-01-25T15:29:10Z</time>
      </trkpt>
      <trkpt lat="48.74848" lon="-1.52832">
        <ele>84.9</ele>
        <time>2024-01-25T15:29:11Z</time>
      </trkpt>
      <trkpt lat="48.74853" lon="-1.52834">
        <ele>85</ele>
        <time>2024-01-25T15:29:12Z</time>
      </trkpt>
      <trkpt lat="48.74858" lon="-1.52836">
        <ele>85.2</ele>
        <time>2024-01-25T15:29:13Z</time>
      </trkpt>
      <trkpt lat="48.74863" lon="-1.52839">
        <ele>85.3</ele>
        <time>2024-01-25T15:29:14Z</time>
      </trkpt>
      <trkpt lat="48.74868" lon="-1.5284">
        <ele>85.5</ele>
        <time>2024-01-25T15:29:15Z</time>
      </trkpt>
      <trkpt lat="48.74872" lon="-1.52843">
        <ele>85.7</ele>
        <time>2024-01-25T15:29:16Z</time>
      </trkpt>
      <trkpt lat="48.74877" lon="-1.52846">
        <ele>85.8</ele>
        <time>2024-01-25T15:29:17Z</time>
      </trkpt>
      <trkpt lat="48.74881" lon="-1.52848">
        <ele>86</ele>
        <time>2024-01-25T15:29:18Z</time>
      </trkpt>
      <trkpt lat="48.74887" lon="-1.52851">
        <ele>86.1</ele>
        <time>2024-01-25T15:29:19Z</time>
      </trkpt>
      <trkpt lat="48.74892" lon="-1.52853">
        <ele>86.3</ele>
        <time>2024-01-25T15:29:20Z</time>
      </trkpt>
      <trkpt lat="48.74897" lon="-1.52855">
        <ele>86.4</ele>
        <time>2024-01-25T15:29:21Z</time>
      </trkpt>
      <trkpt lat="48.74901" lon="-1.52858">
        <ele>86.5</ele>
        <time>2024-01-25T15:29:22Z</time>
      </trkpt>
      <trkpt lat="48.74906" lon="-1.5286">
        <ele>86.6</ele>
        <time>2024-01-25T15:29:23Z</time>
      </trkpt>
      <trkpt lat="48.74911" lon="-1.52862">
        <ele>86.7</ele>
        <time>2024-01-25T15:29:24Z</time>
      </trkpt>
      <trkpt lat="48.74916" lon="-1.52865">
        <ele>86.8</ele>
        <time>2024-01-25T15:29:25Z</time>
      </trkpt>
      <trkpt lat="48.74921" lon="-1.52866">
        <ele>86.9</ele>
        <time>2024-01-25T15:29:26Z</time>
      </trkpt>
      <trkpt lat="48.74926" lon="-1.52869">
        <ele>87</ele>
        <time>2024-01-25T15:29:27Z</time>
      </trkpt>
      <trkpt lat="48.7493" lon="-1.52871">
        <ele>87.1</ele>
        <time>2024-01-25T15:29:28Z</time>
      </trkpt>
      <trkpt lat="48.74936" lon="-1.52873">
        <ele>87.2</ele>
        <time>2024-01-25T15:29:29Z</time>
      </trkpt>
      <trkpt lat="48.74942" lon="-1.52874">
        <ele>87.3</ele>
        <time>2024-01-25T15:29:30Z</time>
      </trkpt>
      <trkpt lat="48.74947" lon="-1.52874">
        <ele>87.4</ele>
        <time>2024-01-25T15:29:31Z</time>
      </trkpt>
      <trkpt lat="48.74953" lon="-1.52873">
        <ele>87.4</ele>
        <time>2024-01-25T15:29:32Z</time>
      </trkpt>
      <trkpt lat="48.74958" lon="-1.52872">
        <ele>87.4</ele>
        <time>2024-01-25T15:29:33Z</time>
      </trkpt>
      <trkpt lat="48.74963" lon="-1.52872">
        <ele>87.3</ele>
        <time>2024-01-25T15:29:34Z</time>
      </trkpt>
      <trkpt lat="48.74967" lon="-1.52872">
        <ele>87.3</ele>
        <time>2024-01-25T15:29:35Z</time>
      </trkpt>
      <trkpt lat="48.74972" lon="-1.52872">
        <ele>87.3</ele>
        <time>2024-01-25T15:29:36Z</time>
      </trkpt>
      <trkpt lat="48.74978" lon="-1.52872">
        <ele>87.3</ele>
        <time>2024-01-25T15:29:37Z</time>
      </trkpt>
      <trkpt lat="48.74984" lon="-1.52873">
        <ele>87.2</ele>
        <time>2024-01-25T15:29:38Z</time>
      </trkpt>
      <trkpt lat="48.7499" lon="-1.52874">
        <ele>87.2</ele>
        <time>2024-01-25T15:29:39Z</time>
      </trkpt>
      <trkpt lat="48.74997" lon="-1.52876">
        <ele>87.1</ele>
        <time>2024-01-25T15:29:40Z</time>
      </trkpt>
      <trkpt lat="48.75003" lon="-1.52877">
        <ele>87</ele>
        <time>2024-01-25T15:29:41Z</time>
      </trkpt>
      <trkpt lat="48.7501" lon="-1.52878">
        <ele>87</ele>
        <time>2024-01-25T15:29:42Z</time>
      </trkpt>
      <trkpt lat="48.75016" lon="-1.52878">
        <ele>87</ele>
        <time>2024-01-25T15:29:43Z</time>
      </trkpt>
      <trkpt lat="48.75023" lon="-1.52878">
        <ele>86.9</ele>
        <time>2024-01-25T15:29:44Z</time>
      </trkpt>
      <trkpt lat="48.7503" lon="-1.52878">
        <ele>86.9</ele>
        <time>2024-01-25T15:29:45Z</time>
      </trkpt>
      <trkpt lat="48.75037" lon="-1.52877">
        <ele>86.9</ele>
        <time>2024-01-25T15:29:46Z</time>
      </trkpt>
      <trkpt lat="48.75044" lon="-1.52877">
        <ele>86.8</ele>
        <time>2024-01-25T15:29:47Z</time>
      </trkpt>
      <trkpt lat="48.75051" lon="-1.52876">
        <ele>86.8</ele>
        <time>2024-01-25T15:29:48Z</time>
      </trkpt>
      <trkpt lat="48.75058" lon="-1.52875">
        <ele>86.7</ele>
        <time>2024-01-25T15:29:49Z</time>
      </trkpt>
      <trkpt lat="48.75065" lon="-1.52875">
        <ele>86.7</ele>
        <time>2024-01-25T15:29:50Z</time>
      </trkpt>
      <trkpt lat="48.75072" lon="-1.52874">
        <ele>86.6</ele>
        <time>2024-01-25T15:29:51Z</time>
      </trkpt>
      <trkpt lat="48.75079" lon="-1.52873">
        <ele>86.6</ele>
        <time>2024-01-25T15:29:52Z</time>
      </trkpt>
      <trkpt lat="48.75086" lon="-1.52873">
        <ele>86.5</ele>
        <time>2024-01-25T15:29:53Z</time>
      </trkpt>
      <trkpt lat="48.75093" lon="-1.52872">
        <ele>86.5</ele>
        <time>2024-01-25T15:29:54Z</time>
      </trkpt>
      <trkpt lat="48.751" lon="-1.52872">
        <ele>86.4</ele>
        <time>2024-01-25T15:29:55Z</time>
      </trkpt>
      <trkpt lat="48.75107" lon="-1.52872">
        <ele>86.3</ele>
        <time>2024-01-25T15:29:56Z</time>
      </trkpt>
      <trkpt lat="48.75114" lon="-1.52872">
        <ele>86.2</ele>
        <time>2024-01-25T15:29:57Z</time>
      </trkpt>
      <trkpt lat="48.75121" lon="-1.52872">
        <ele>86.1</ele>
        <time>2024-01-25T15:29:58Z</time>
      </trkpt>
      <trkpt lat="48.75128" lon="-1.52872">
        <ele>86</ele>
        <time>2024-01-25T15:29:59Z</time>
      </trkpt>
      <trkpt lat="48.75135" lon="-1.52871">
        <ele>86</ele>
        <time>2024-01-25T15:30:00Z</time>
      </trkpt>
      <trkpt lat="48.75141" lon="-1.5287">
        <ele>85.9</ele>
        <time>2024-01-25T15:30:01Z</time>
      </trkpt>
      <trkpt lat="48.75148" lon="-1.5287">
        <ele>85.9</ele>
        <time>2024-01-25T15:30:02Z</time>
      </trkpt>
      <trkpt lat="48.75155" lon="-1.5287">
        <ele>85.8</ele>
        <time>2024-01-25T15:30:03Z</time>
      </trkpt>
      <trkpt lat="48.75163" lon="-1.52869">
        <ele>85.7</ele>
        <time>2024-01-25T15:30:04Z</time>
      </trkpt>
      <trkpt lat="48.7517" lon="-1.52868">
        <ele>85.7</ele>
        <time>2024-01-25T15:30:05Z</time>
      </trkpt>
      <trkpt lat="48.75177" lon="-1.52867">
        <ele>85.6</ele>
        <time>2024-01-25T15:30:06Z</time>
      </trkpt>
      <trkpt lat="48.75183" lon="-1.52867">
        <ele>85.5</ele>
        <time>2024-01-25T15:30:07Z</time>
      </trkpt>
      <trkpt lat="48.7519" lon="-1.52867">
        <ele>85.5</ele>
        <time>2024-01-25T15:30:08Z</time>
      </trkpt>
      <trkpt lat="48.75198" lon="-1.52866">
        <ele>85.4</ele>
        <time>2024-01-25T15:30:09Z</time>
      </trkpt>
      <trkpt lat="48.75205" lon="-1.52865">
        <ele>85.4</ele>
        <time>2024-01-25T15:30:10Z</time>
      </trkpt>
      <trkpt lat="48.75213" lon="-1.52865">
        <ele>85.3</ele>
        <time>2024-01-25T15:30:11Z</time>
      </trkpt>
      <trkpt lat="48.7522" lon="-1.52864">
        <ele>85.2</ele>
        <time>2024-01-25T15:30:12Z</time>
      </trkpt>
      <trkpt lat="48.75227" lon="-1.52863">
        <ele>85.1</ele>
        <time>2024-01-25T15:30:13Z</time>
      </trkpt>
      <trkpt lat="48.75233" lon="-1.52862">
        <ele>85</ele>
        <time>2024-01-25T15:30:14Z</time>
      </trkpt>
      <trkpt lat="48.7524" lon="-1.52862">
        <ele>85</ele>
        <time>2024-01-25T15:30:15Z</time>
      </trkpt>
      <trkpt lat="48.75247" lon="-1.52861">
        <ele>84.9</ele>
        <time>2024-01-25T15:30:16Z</time>
      </trkpt>
      <trkpt lat="48.75254" lon="-1.52861">
        <ele>84.8</ele>
        <time>2024-01-25T15:30:17Z</time>
      </trkpt>
      <trkpt lat="48.75261" lon="-1.52862">
        <ele>84.8</ele>
        <time>2024-01-25T15:30:18Z</time>
      </trkpt>
      <trkpt lat="48.75267" lon="-1.52861">
        <ele>84.7</ele>
        <time>2024-01-25T15:30:19Z</time>
      </trkpt>
      <trkpt lat="48.75274" lon="-1.52862">
        <ele>84.7</ele>
        <time>2024-01-25T15:30:20Z</time>
      </trkpt>
      <trkpt lat="48.75281" lon="-1.52862">
        <ele>84.7</ele>
        <time>2024-01-25T15:30:21Z</time>
      </trkpt>
      <trkpt lat="48.75288" lon="-1.52862">
        <ele>84.7</ele>
        <time>2024-01-25T15:30:22Z</time>
      </trkpt>
      <trkpt lat="48.75296" lon="-1.52863">
        <ele>84.6</ele>
        <time>2024-01-25T15:30:23Z</time>
      </trkpt>
      <trkpt lat="48.75304" lon="-1.52862">
        <ele>84.5</ele>
        <time>2024-01-25T15:30:24Z</time>
      </trkpt>
      <trkpt lat="48.75311" lon="-1.52861">
        <ele>84.4</ele>
        <time>2024-01-25T15:30:25Z</time>
      </trkpt>
      <trkpt lat="48.75319" lon="-1.5286">
        <ele>84.3</ele>
        <time>2024-01-25T15:30:26Z</time>
      </trkpt>
      <trkpt lat="48.75327" lon="-1.52858">
        <ele>84.3</ele>
        <time>2024-01-25T15:30:27Z</time>
      </trkpt>
      <trkpt lat="48.75335" lon="-1.52856">
        <ele>84.2</ele>
        <time>2024-01-25T15:30:28Z</time>
      </trkpt>
      <trkpt lat="48.75343" lon="-1.52854">
        <ele>84.1</ele>
        <time>2024-01-25T15:30:29Z</time>
      </trkpt>
      <trkpt lat="48.75351" lon="-1.52853">
        <ele>84.1</ele>
        <time>2024-01-25T15:30:30Z</time>
      </trkpt>
      <trkpt lat="48.75359" lon="-1.52851">
        <ele>84.1</ele>
        <time>2024-01-25T15:30:31Z</time>
      </trkpt>
      <trkpt lat="48.75367" lon="-1.52851">
        <ele>84.1</ele>
        <time>2024-01-25T15:30:32Z</time>
      </trkpt>
      <trkpt lat="48.75374" lon="-1.52851">
        <ele>84.1</ele>
        <time>2024-01-25T15:30:33Z</time>
      </trkpt>
      <trkpt lat="48.75381" lon="-1.5285">
        <ele>84.1</ele>
        <time>2024-01-25T15:30:34Z</time>
      </trkpt>
      <trkpt lat="48.75388" lon="-1.52849">
        <ele>84.1</ele>
        <time>2024-01-25T15:30:35Z</time>
      </trkpt>
      <trkpt lat="48.75395" lon="-1.52847">
        <ele>84.2</ele>
        <time>2024-01-25T15:30:36Z</time>
      </trkpt>
      <trkpt lat="48.75402" lon="-1.52845">
        <ele>84.2</ele>
        <time>2024-01-25T15:30:37Z</time>
      </trkpt>
      <trkpt lat="48.75409" lon="-1.52842">
        <ele>84.2</ele>
        <time>2024-01-25T15:30:38Z</time>
      </trkpt>
      <trkpt lat="48.75415" lon="-1.5284">
        <ele>84.2</ele>
        <time>2024-01-25T15:30:39Z</time>
      </trkpt>
      <trkpt lat="48.75422" lon="-1.52838">
        <ele>84.2</ele>
        <time>2024-01-25T15:30:40Z</time>
      </trkpt>
      <trkpt lat="48.75428" lon="-1.52835">
        <ele>84.3</ele>
        <time>2024-01-25T15:30:41Z</time>
      </trkpt>
      <trkpt lat="48.75434" lon="-1.52832">
        <ele>84.3</ele>
        <time>2024-01-25T15:30:42Z</time>
      </trkpt>
      <trkpt lat="48.7544" lon="-1.52829">
        <ele>84.3</ele>
        <time>2024-01-25T15:30:43Z</time>
      </trkpt>
      <trkpt lat="48.75446" lon="-1.52827">
        <ele>84.4</ele>
        <time>2024-01-25T15:30:44Z</time>
      </trkpt>
      <trkpt lat="48.75452" lon="-1.52825">
        <ele>84.4</ele>
        <time>2024-01-25T15:30:45Z</time>
      </trkpt>
      <trkpt lat="48.75457" lon="-1.52823">
        <ele>84.4</ele>
        <time>2024-01-25T15:30:46Z</time>
      </trkpt>
      <trkpt lat="48.75463" lon="-1.52821">
        <ele>84.5</ele>
        <time>2024-01-25T15:30:47Z</time>
      </trkpt>
      <trkpt lat="48.75468" lon="-1.52818">
        <ele>84.5</ele>
        <time>2024-01-25T15:30:48Z</time>
      </trkpt>
      <trkpt lat="48.75473" lon="-1.52816">
        <ele>84.6</ele>
        <time>2024-01-25T15:30:49Z</time>
      </trkpt>
      <trkpt lat="48.7548" lon="-1.52812">
        <ele>84.7</ele>
        <time>2024-01-25T15:30:50Z</time>
      </trkpt>
      <trkpt lat="48.75487" lon="-1.52808">
        <ele>84.7</ele>
        <time>2024-01-25T15:30:51Z</time>
      </trkpt>
      <trkpt lat="48.75494" lon="-1.52805">
        <ele>84.8</ele>
        <time>2024-01-25T15:30:52Z</time>
      </trkpt>
      <trkpt lat="48.755" lon="-1.52801">
        <ele>84.9</ele>
        <time>2024-01-25T15:30:53Z</time>
      </trkpt>
      <trkpt lat="48.75507" lon="-1.52799">
        <ele>85</ele>
        <time>2024-01-25T15:30:54Z</time>
      </trkpt>
      <trkpt lat="48.75513" lon="-1.52797">
        <ele>85</ele>
        <time>2024-01-25T15:30:55Z</time>
      </trkpt>
      <trkpt lat="48.75519" lon="-1.52796">
        <ele>85.1</ele>
        <time>2024-01-25T15:30:56Z</time>
      </trkpt>
      <trkpt lat="48.75525" lon="-1.52795">
        <ele>85.1</ele>
        <time>2024-01-25T15:30:57Z</time>
      </trkpt>
      <trkpt lat="48.75532" lon="-1.52794">
        <ele>85.2</ele>
        <time>2024-01-25T15:30:58Z</time>
      </trkpt>
      <trkpt lat="48.75539" lon="-1.52794">
        <ele>85.3</ele>
        <time>2024-01-25T15:30:59Z</time>
      </trkpt>
      <trkpt lat="48.75545" lon="-1.52794">
        <ele>85.4</ele>
        <time>2024-01-25T15:31:00Z</time>
      </trkpt>
      <trkpt lat="48.75552" lon="-1.52793">
        <ele>85.5</ele>
        <time>2024-01-25T15:31:01Z</time>
      </trkpt>
      <trkpt lat="48.75558" lon="-1.52793">
        <ele>85.6</ele>
        <time>2024-01-25T15:31:02Z</time>
      </trkpt>
      <trkpt lat="48.75565" lon="-1.52793">
        <ele>85.6</ele>
        <time>2024-01-25T15:31:03Z</time>
      </trkpt>
      <trkpt lat="48.75572" lon="-1.52792">
        <ele>85.7</ele>
        <time>2024-01-25T15:31:04Z</time>
      </trkpt>
      <trkpt lat="48.75579" lon="-1.52791">
        <ele>85.8</ele>
        <time>2024-01-25T15:31:05Z</time>
      </trkpt>
      <trkpt lat="48.75586" lon="-1.52791">
        <ele>85.8</ele>
        <time>2024-01-25T15:31:06Z</time>
      </trkpt>
      <trkpt lat="48.75593" lon="-1.5279">
        <ele>85.9</ele>
        <time>2024-01-25T15:31:07Z</time>
      </trkpt>
      <trkpt lat="48.75599" lon="-1.5279">
        <ele>85.9</ele>
        <time>2024-01-25T15:31:08Z</time>
      </trkpt>
      <trkpt lat="48.75606" lon="-1.52789">
        <ele>86</ele>
        <time>2024-01-25T15:31:09Z</time>
      </trkpt>
      <trkpt lat="48.75612" lon="-1.52789">
        <ele>86.1</ele>
        <time>2024-01-25T15:31:10Z</time>
      </trkpt>
      <trkpt lat="48.75618" lon="-1.52788">
        <ele>86.1</ele>
        <time>2024-01-25T15:31:11Z</time>
      </trkpt>
      <trkpt lat="48.75625" lon="-1.52788">
        <ele>86.2</ele>
        <time>2024-01-25T15:31:12Z</time>
      </trkpt>
      <trkpt lat="48.75631" lon="-1.52787">
        <ele>86.2</ele>
        <time>2024-01-25T15:31:13Z</time>
      </trkpt>
      <trkpt lat="48.75638" lon="-1.52786">
        <ele>86.3</ele>
        <time>2024-01-25T15:31:14Z</time>
      </trkpt>
      <trkpt lat="48.75645" lon="-1.52786">
        <ele>86.3</ele>
        <time>2024-01-25T15:31:15Z</time>
      </trkpt>
      <trkpt lat="48.75651" lon="-1.52785">
        <ele>86.4</ele>
        <time>2024-01-25T15:31:16Z</time>
      </trkpt>
      <trkpt lat="48.75657" lon="-1.52784">
        <ele>86.4</ele>
        <time>2024-01-25T15:31:17Z</time>
      </trkpt>
      <trkpt lat="48.75664" lon="-1.52784">
        <ele>86.5</ele>
        <time>2024-01-25T15:31:18Z</time>
      </trkpt>
      <trkpt lat="48.7567" lon="-1.52784">
        <ele>86.5</ele>
        <time>2024-01-25T15:31:19Z</time>
      </trkpt>
      <trkpt lat="48.75675" lon="-1.52784">
        <ele>86.5</ele>
        <time>2024-01-25T15:31:20Z</time>
      </trkpt>
      <trkpt lat="48.75681" lon="-1.52784">
        <ele>86.6</ele>
        <time>2024-01-25T15:31:21Z</time>
      </trkpt>
      <trkpt lat="48.75687" lon="-1.52784">
        <ele>86.6</ele>
        <time>2024-01-25T15:31:22Z</time>
      </trkpt>
      <trkpt lat="48.75692" lon="-1.52784">
        <ele>86.6</ele>
        <time>2024-01-25T15:31:23Z</time>
      </trkpt>
      <trkpt lat="48.75698" lon="-1.52783">
        <ele>86.7</ele>
        <time>2024-01-25T15:31:24Z</time>
      </trkpt>
      <trkpt lat="48.75704" lon="-1.52783">
        <ele>86.7</ele>
        <time>2024-01-25T15:31:25Z</time>
      </trkpt>
      <trkpt lat="48.7571" lon="-1.52783">
        <ele>86.8</ele>
        <time>2024-01-25T15:31:26Z</time>
      </trkpt>
      <trkpt lat="48.75716" lon="-1.52783">
        <ele>86.8</ele>
        <time>2024-01-25T15:31:27Z</time>
      </trkpt>
      <trkpt lat="48.75722" lon="-1.52783">
        <ele>86.8</ele>
        <time>2024-01-25T15:31:28Z</time>
      </trkpt>
      <trkpt lat="48.75728" lon="-1.52782">
        <ele>86.9</ele>
        <time>2024-01-25T15:31:29Z</time>
      </trkpt>
      <trkpt lat="48.75734" lon="-1.52782">
        <ele>86.9</ele>
        <time>2024-01-25T15:31:30Z</time>
      </trkpt>
      <trkpt lat="48.7574" lon="-1.52782">
        <ele>87</ele>
        <time>2024-01-25T15:31:31Z</time>
      </trkpt>
      <trkpt lat="48.75747" lon="-1.52782">
        <ele>87.1</ele>
        <time>2024-01-25T15:31:32Z</time>
      </trkpt>
      <trkpt lat="48.75754" lon="-1.52782">
        <ele>87.1</ele>
        <time>2024-01-25T15:31:33Z</time>
      </trkpt>
      <trkpt lat="48.7576" lon="-1.52782">
        <ele>87.2</ele>
        <time>2024-01-25T15:31:34Z</time>
      </trkpt>
      <trkpt lat="48.75766" lon="-1.52781">
        <ele>87.3</ele>
        <time>2024-01-25T15:31:35Z</time>
      </trkpt>
      <trkpt lat="48.75773" lon="-1.52781">
        <ele>87.3</ele>
        <time>2024-01-25T15:31:36Z</time>
      </trkpt>
      <trkpt lat="48.75779" lon="-1.5278">
        <ele>87.4</ele>
        <time>2024-01-25T15:31:37Z</time>
      </trkpt>
      <trkpt lat="48.75785" lon="-1.5278">
        <ele>87.5</ele>
        <time>2024-01-25T15:31:38Z</time>
      </trkpt>
      <trkpt lat="48.75791" lon="-1.52779">
        <ele>87.6</ele>
        <time>2024-01-25T15:31:39Z</time>
      </trkpt>
      <trkpt lat="48.75797" lon="-1.52779">
        <ele>87.6</ele>
        <time>2024-01-25T15:31:40Z</time>
      </trkpt>
      <trkpt lat="48.75804" lon="-1.52778">
        <ele>87.7</ele>
        <time>2024-01-25T15:31:41Z</time>
      </trkpt>
      <trkpt lat="48.7581" lon="-1.52777">
        <ele>87.8</ele>
        <time>2024-01-25T15:31:42Z</time>
      </trkpt>
      <trkpt lat="48.75817" lon="-1.52776">
        <ele>87.9</ele>
        <time>2024-01-25T15:31:43Z</time>
      </trkpt>
      <trkpt lat="48.75823" lon="-1.52775">
        <ele>87.9</ele>
        <time>2024-01-25T15:31:44Z</time>
      </trkpt>
      <trkpt lat="48.75829" lon="-1.52775">
        <ele>88</ele>
        <time>2024-01-25T15:31:45Z</time>
      </trkpt>
      <trkpt lat="48.75835" lon="-1.52774">
        <ele>88.1</ele>
        <time>2024-01-25T15:31:46Z</time>
      </trkpt>
      <trkpt lat="48.75842" lon="-1.52773">
        <ele>88.2</ele>
        <time>2024-01-25T15:31:47Z</time>
      </trkpt>
      <trkpt lat="48.75848" lon="-1.52773">
        <ele>88.2</ele>
        <time>2024-01-25T15:31:48Z</time>
      </trkpt>
      <trkpt lat="48.75854" lon="-1.52772">
        <ele>88.3</ele>
        <time>2024-01-25T15:31:49Z</time>
      </trkpt>
      <trkpt lat="48.7586" lon="-1.52771">
        <ele>88.4</ele>
        <time>2024-01-25T15:31:50Z</time>
      </trkpt>
      <trkpt lat="48.75866" lon="-1.52771">
        <ele>88.4</ele>
        <time>2024-01-25T15:31:51Z</time>
      </trkpt>
      <trkpt lat="48.75871" lon="-1.5277">
        <ele>88.5</ele>
        <time>2024-01-25T15:31:52Z</time>
      </trkpt>
      <trkpt lat="48.75877" lon="-1.5277">
        <ele>88.6</ele>
        <time>2024-01-25T15:31:53Z</time>
      </trkpt>
      <trkpt lat="48.75882" lon="-1.52769">
        <ele>88.7</ele>
        <time>2024-01-25T15:31:54Z</time>
      </trkpt>
      <trkpt lat="48.75888" lon="-1.52769">
        <ele>88.7</ele>
        <time>2024-01-25T15:31:55Z</time>
      </trkpt>
      <trkpt lat="48.75894" lon="-1.52768">
        <ele>88.8</ele>
        <time>2024-01-25T15:31:56Z</time>
      </trkpt>
      <trkpt lat="48.759" lon="-1.52768">
        <ele>88.9</ele>
        <time>2024-01-25T15:31:57Z</time>
      </trkpt>
      <trkpt lat="48.75905" lon="-1.52767">
        <ele>89</ele>
        <time>2024-01-25T15:31:58Z</time>
      </trkpt>
      <trkpt lat="48.7591" lon="-1.52768">
        <ele>89</ele>
        <time>2024-01-25T15:31:59Z</time>
      </trkpt>
      <trkpt lat="48.75916" lon="-1.52769">
        <ele>89.1</ele>
        <time>2024-01-25T15:32:00Z</time>
      </trkpt>
      <trkpt lat="48.7592" lon="-1.5277">
        <ele>89.2</ele>
        <time>2024-01-25T15:32:01Z</time>
      </trkpt>
      <trkpt lat="48.75926" lon="-1.52771">
        <ele>89.2</ele>
        <time>2024-01-25T15:32:02Z</time>
      </trkpt>
      <trkpt lat="48.75931" lon="-1.52772">
        <ele>89.3</ele>
        <time>2024-01-25T15:32:03Z</time>
      </trkpt>
      <trkpt lat="48.75937" lon="-1.52772">
        <ele>89.4</ele>
        <time>2024-01-25T15:32:04Z</time>
      </trkpt>
      <trkpt lat="48.75943" lon="-1.52774">
        <ele>89.5</ele>
        <time>2024-01-25T15:32:05Z</time>
      </trkpt>
      <trkpt lat="48.75949" lon="-1.52775">
        <ele>89.6</ele>
        <time>2024-01-25T15:32:06Z</time>
      </trkpt>
      <trkpt lat="48.75955" lon="-1.52777">
        <ele>89.7</ele>
        <time>2024-01-25T15:32:07Z</time>
      </trkpt>
      <trkpt lat="48.75961" lon="-1.52778">
        <ele>89.8</ele>
        <time>2024-01-25T15:32:08Z</time>
      </trkpt>
      <trkpt lat="48.75967" lon="-1.5278">
        <ele>90</ele>
        <time>2024-01-25T15:32:09Z</time>
      </trkpt>
      <trkpt lat="48.75974" lon="-1.52781">
        <ele>90.2</ele>
        <time>2024-01-25T15:32:10Z</time>
      </trkpt>
      <trkpt lat="48.75979" lon="-1.52783">
        <ele>90.4</ele>
        <time>2024-01-25T15:32:11Z</time>
      </trkpt>
      <trkpt lat="48.75984" lon="-1.52785">
        <ele>90.5</ele>
        <time>2024-01-25T15:32:12Z</time>
      </trkpt>
      <trkpt lat="48.75989" lon="-1.52788">
        <ele>90.7</ele>
        <time>2024-01-25T15:32:13Z</time>
      </trkpt>
      <trkpt lat="48.75994" lon="-1.5279">
        <ele>90.9</ele>
        <time>2024-01-25T15:32:14Z</time>
      </trkpt>
      <trkpt lat="48.76" lon="-1.52792">
        <ele>91.1</ele>
        <time>2024-01-25T15:32:15Z</time>
      </trkpt>
      <trkpt lat="48.76004" lon="-1.52794">
        <ele>91.3</ele>
        <time>2024-01-25T15:32:16Z</time>
      </trkpt>
      <trkpt lat="48.76009" lon="-1.52797">
        <ele>91.5</ele>
        <time>2024-01-25T15:32:17Z</time>
      </trkpt>
      <trkpt lat="48.76014" lon="-1.52799">
        <ele>91.6</ele>
        <time>2024-01-25T15:32:18Z</time>
      </trkpt>
      <trkpt lat="48.76019" lon="-1.52802">
        <ele>91.8</ele>
        <time>2024-01-25T15:32:19Z</time>
      </trkpt>
      <trkpt lat="48.76024" lon="-1.52805">
        <ele>92</ele>
        <time>2024-01-25T15:32:20Z</time>
      </trkpt>
      <trkpt lat="48.76029" lon="-1.52808">
        <ele>92.1</ele>
        <time>2024-01-25T15:32:21Z</time>
      </trkpt>
      <trkpt lat="48.76035" lon="-1.5281">
        <ele>92.3</ele>
        <time>2024-01-25T15:32:22Z</time>
      </trkpt>
      <trkpt lat="48.7604" lon="-1.52812">
        <ele>92.5</ele>
        <time>2024-01-25T15:32:23Z</time>
      </trkpt>
      <trkpt lat="48.76045" lon="-1.52814">
        <ele>92.7</ele>
        <time>2024-01-25T15:32:24Z</time>
      </trkpt>
      <trkpt lat="48.7605" lon="-1.52816">
        <ele>92.8</ele>
        <time>2024-01-25T15:32:25Z</time>
      </trkpt>
      <trkpt lat="48.76055" lon="-1.52818">
        <ele>93</ele>
        <time>2024-01-25T15:32:26Z</time>
      </trkpt>
      <trkpt lat="48.7606" lon="-1.52819">
        <ele>93.2</ele>
        <time>2024-01-25T15:32:27Z</time>
      </trkpt>
      <trkpt lat="48.76065" lon="-1.52821">
        <ele>93.3</ele>
        <time>2024-01-25T15:32:28Z</time>
      </trkpt>
      <trkpt lat="48.7607" lon="-1.52823">
        <ele>93.4</ele>
        <time>2024-01-25T15:32:29Z</time>
      </trkpt>
      <trkpt lat="48.76074" lon="-1.52825">
        <ele>93.5</ele>
        <time>2024-01-25T15:32:30Z</time>
      </trkpt>
      <trkpt lat="48.76079" lon="-1.52827">
        <ele>93.6</ele>
        <time>2024-01-25T15:32:31Z</time>
      </trkpt>
      <trkpt lat="48.76084" lon="-1.52829">
        <ele>93.6</ele>
        <time>2024-01-25T15:32:32Z</time>
      </trkpt>
      <trkpt lat="48.76088" lon="-1.52831">
        <ele>93.7</ele>
        <time>2024-01-25T15:32:33Z</time>
      </trkpt>
      <trkpt lat="48.76093" lon="-1.52834">
        <ele>93.7</ele>
        <time>2024-01-25T15:32:34Z</time>
      </trkpt>
      <trkpt lat="48.76097" lon="-1.52836">
        <ele>93.7</ele>
        <time>2024-01-25T15:32:35Z</time>
      </trkpt>
      <trkpt lat="48.76102" lon="-1.52838">
        <ele>93.7</ele>
        <time>2024-01-25T15:32:36Z</time>
      </trkpt>
      <trkpt lat="48.76107" lon="-1.5284">
        <ele>93.6</ele>
        <time>2024-01-25T15:32:37Z</time>
      </trkpt>
      <trkpt lat="48.76113" lon="-1.52842">
        <ele>93.5</ele>
        <time>2024-01-25T15:32:38Z</time>
      </trkpt>
      <trkpt lat="48.76118" lon="-1.52844">
        <ele>93.5</ele>
        <time>2024-01-25T15:32:39Z</time>
      </trkpt>
      <trkpt lat="48.76124" lon="-1.52846">
        <ele>93.4</ele>
        <time>2024-01-25T15:32:40Z</time>
      </trkpt>
      <trkpt lat="48.7613" lon="-1.52848">
        <ele>93.2</ele>
        <time>2024-01-25T15:32:41Z</time>
      </trkpt>
      <trkpt lat="48.76136" lon="-1.52851">
        <ele>93.1</ele>
        <time>2024-01-25T15:32:42Z</time>
      </trkpt>
      <trkpt lat="48.76142" lon="-1.52854">
        <ele>93</ele>
        <time>2024-01-25T15:32:43Z</time>
      </trkpt>
      <trkpt lat="48.76147" lon="-1.52858">
        <ele>92.8</ele>
        <time>2024-01-25T15:32:44Z</time>
      </trkpt>
      <trkpt lat="48.76153" lon="-1.52862">
        <ele>92.7</ele>
        <time>2024-01-25T15:32:45Z</time>
      </trkpt>
      <trkpt lat="48.7616" lon="-1.52867">
        <ele>92.5</ele>
        <time>2024-01-25T15:32:46Z</time>
      </trkpt>
      <trkpt lat="48.76166" lon="-1.52872">
        <ele>92.2</ele>
        <time>2024-01-25T15:32:47Z</time>
      </trkpt>
      <trkpt lat="48.76173" lon="-1.52877">
        <ele>91.9</ele>
        <time>2024-01-25T15:32:48Z</time>
      </trkpt>
      <trkpt lat="48.76181" lon="-1.52881">
        <ele>91.6</ele>
        <time>2024-01-25T15:32:49Z</time>
      </trkpt>
      <trkpt lat="48.76188" lon="-1.52885">
        <ele>91.3</ele>
        <time>2024-01-25T15:32:50Z</time>
      </trkpt>
      <trkpt lat="48.76195" lon="-1.52889">
        <ele>91</ele>
        <time>2024-01-25T15:32:51Z</time>
      </trkpt>
      <trkpt lat="48.76203" lon="-1.52894">
        <ele>90.8</ele>
        <time>2024-01-25T15:32:52Z</time>
      </trkpt>
      <trkpt lat="48.76209" lon="-1.529">
        <ele>90.6</ele>
        <time>2024-01-25T15:32:53Z</time>
      </trkpt>
      <trkpt lat="48.76215" lon="-1.52909">
        <ele>90.4</ele>
        <time>2024-01-25T15:32:54Z</time>
      </trkpt>
      <trkpt lat="48.76219" lon="-1.52919">
        <ele>90.3</ele>
        <time>2024-01-25T15:32:55Z</time>
      </trkpt>
      <trkpt lat="48.76222" lon="-1.5293">
        <ele>90.1</ele>
        <time>2024-01-25T15:32:56Z</time>
      </trkpt>
      <trkpt lat="48.76224" lon="-1.52942">
        <ele>90</ele>
        <time>2024-01-25T15:32:57Z</time>
      </trkpt>
      <trkpt lat="48.76225" lon="-1.52954">
        <ele>89.9</ele>
        <time>2024-01-25T15:32:58Z</time>
      </trkpt>
      <trkpt lat="48.76227" lon="-1.52964">
        <ele>89.9</ele>
        <time>2024-01-25T15:32:59Z</time>
      </trkpt>
      <trkpt lat="48.76228" lon="-1.52975">
        <ele>89.9</ele>
        <time>2024-01-25T15:33:00Z</time>
      </trkpt>
      <trkpt lat="48.76229" lon="-1.52985">
        <ele>90</ele>
        <time>2024-01-25T15:33:01Z</time>
      </trkpt>
      <trkpt lat="48.76231" lon="-1.52994">
        <ele>90</ele>
        <time>2024-01-25T15:33:02Z</time>
      </trkpt>
      <trkpt lat="48.76233" lon="-1.53003">
        <ele>90.1</ele>
        <time>2024-01-25T15:33:03Z</time>
      </trkpt>
      <trkpt lat="48.76236" lon="-1.53011">
        <ele>90.1</ele>
        <time>2024-01-25T15:33:04Z</time>
      </trkpt>
      <trkpt lat="48.76239" lon="-1.53019">
        <ele>90.2</ele>
        <time>2024-01-25T15:33:05Z</time>
      </trkpt>
      <trkpt lat="48.76242" lon="-1.53026">
        <ele>90.3</ele>
        <time>2024-01-25T15:33:06Z</time>
      </trkpt>
      <trkpt lat="48.76245" lon="-1.53034">
        <ele>90.2</ele>
        <time>2024-01-25T15:33:07Z</time>
      </trkpt>
      <trkpt lat="48.76248" lon="-1.53042">
        <ele>90.2</ele>
        <time>2024-01-25T15:33:08Z</time>
      </trkpt>
      <trkpt lat="48.76251" lon="-1.53049">
        <ele>90.1</ele>
        <time>2024-01-25T15:33:09Z</time>
      </trkpt>
      <trkpt lat="48.76255" lon="-1.53055">
        <ele>90.1</ele>
        <time>2024-01-25T15:33:10Z</time>
      </trkpt>
      <trkpt lat="48.76259" lon="-1.53061">
        <ele>90</ele>
        <time>2024-01-25T15:33:11Z</time>
      </trkpt>
      <trkpt lat="48.76263" lon="-1.53067">
        <ele>89.9</ele>
        <time>2024-01-25T15:33:12Z</time>
      </trkpt>
      <trkpt lat="48.76267" lon="-1.53074">
        <ele>89.8</ele>
        <time>2024-01-25T15:33:13Z</time>
      </trkpt>
      <trkpt lat="48.7627" lon="-1.53081">
        <ele>89.7</ele>
        <time>2024-01-25T15:33:14Z</time>
      </trkpt>
      <trkpt lat="48.76274" lon="-1.53088">
        <ele>89.6</ele>
        <time>2024-01-25T15:33:15Z</time>
      </trkpt>
      <trkpt lat="48.76279" lon="-1.53096">
        <ele>89.4</ele>
        <time>2024-01-25T15:33:16Z</time>
      </trkpt>
      <trkpt lat="48.76284" lon="-1.53103">
        <ele>89.1</ele>
        <time>2024-01-25T15:33:17Z</time>
      </trkpt>
      <trkpt lat="48.76289" lon="-1.5311">
        <ele>88.8</ele>
        <time>2024-01-25T15:33:18Z</time>
      </trkpt>
      <trkpt lat="48.76294" lon="-1.53119">
        <ele>88.5</ele>
        <time>2024-01-25T15:33:19Z</time>
      </trkpt>
      <trkpt lat="48.763" lon="-1.53128">
        <ele>88.1</ele>
        <time>2024-01-25T15:33:20Z</time>
      </trkpt>
      <trkpt lat="48.76305" lon="-1.53137">
        <ele>87.7</ele>
        <time>2024-01-25T15:33:21Z</time>
      </trkpt>
      <trkpt lat="48.76311" lon="-1.53146">
        <ele>87.3</ele>
        <time>2024-01-25T15:33:22Z</time>
      </trkpt>
      <trkpt lat="48.76317" lon="-1.53155">
        <ele>87</ele>
        <time>2024-01-25T15:33:23Z</time>
      </trkpt>
      <trkpt lat="48.76323" lon="-1.53164">
        <ele>86.6</ele>
        <time>2024-01-25T15:33:24Z</time>
      </trkpt>
      <trkpt lat="48.76329" lon="-1.53174">
        <ele>86.3</ele>
        <time>2024-01-25T15:33:25Z</time>
      </trkpt>
      <trkpt lat="48.76335" lon="-1.53184">
        <ele>86</ele>
        <time>2024-01-25T15:33:26Z</time>
      </trkpt>
      <trkpt lat="48.76341" lon="-1.53194">
        <ele>85.7</ele>
        <time>2024-01-25T15:33:27Z</time>
      </trkpt>
      <trkpt lat="48.76348" lon="-1.53203">
        <ele>85.5</ele>
        <time>2024-01-25T15:33:28Z</time>
      </trkpt>
      <trkpt lat="48.76354" lon="-1.53212">
        <ele>85.3</ele>
        <time>2024-01-25T15:33:29Z</time>
      </trkpt>
      <trkpt lat="48.7636" lon="-1.53222">
        <ele>85.1</ele>
        <time>2024-01-25T15:33:30Z</time>
      </trkpt>
      <trkpt lat="48.76366" lon="-1.53231">
        <ele>84.9</ele>
        <time>2024-01-25T15:33:31Z</time>
      </trkpt>
      <trkpt lat="48.76372" lon="-1.53241">
        <ele>84.7</ele>
        <time>2024-01-25T15:33:32Z</time>
      </trkpt>
      <trkpt lat="48.76378" lon="-1.53252">
        <ele>84.5</ele>
        <time>2024-01-25T15:33:33Z</time>
      </trkpt>
      <trkpt lat="48.76384" lon="-1.53262">
        <ele>84.3</ele>
        <time>2024-01-25T15:33:34Z</time>
      </trkpt>
      <trkpt lat="48.76391" lon="-1.53272">
        <ele>84.1</ele>
        <time>2024-01-25T15:33:35Z</time>
      </trkpt>
      <trkpt lat="48.76397" lon="-1.53283">
        <ele>83.9</ele>
        <time>2024-01-25T15:33:36Z</time>
      </trkpt>
      <trkpt lat="48.76403" lon="-1.53294">
        <ele>83.7</ele>
        <time>2024-01-25T15:33:37Z</time>
      </trkpt>
      <trkpt lat="48.7641" lon="-1.53305">
        <ele>83.5</ele>
        <time>2024-01-25T15:33:38Z</time>
      </trkpt>
      <trkpt lat="48.76417" lon="-1.53316">
        <ele>83.3</ele>
        <time>2024-01-25T15:33:39Z</time>
      </trkpt>
      <trkpt lat="48.76424" lon="-1.53326">
        <ele>83.1</ele>
        <time>2024-01-25T15:33:40Z</time>
      </trkpt>
      <trkpt lat="48.76431" lon="-1.53336">
        <ele>82.9</ele>
        <time>2024-01-25T15:33:41Z</time>
      </trkpt>
      <trkpt lat="48.76438" lon="-1.53345">
        <ele>82.6</ele>
        <time>2024-01-25T15:33:42Z</time>
      </trkpt>
      <trkpt lat="48.76446" lon="-1.53352">
        <ele>82.3</ele>
        <time>2024-01-25T15:33:43Z</time>
      </trkpt>
      <trkpt lat="48.76454" lon="-1.53358">
        <ele>82.1</ele>
        <time>2024-01-25T15:33:44Z</time>
      </trkpt>
      <trkpt lat="48.76463" lon="-1.53362">
        <ele>81.8</ele>
        <time>2024-01-25T15:33:45Z</time>
      </trkpt>
      <trkpt lat="48.76472" lon="-1.53365">
        <ele>81.6</ele>
        <time>2024-01-25T15:33:46Z</time>
      </trkpt>
      <trkpt lat="48.76482" lon="-1.53368">
        <ele>81.3</ele>
        <time>2024-01-25T15:33:47Z</time>
      </trkpt>
      <trkpt lat="48.76491" lon="-1.53369">
        <ele>81.1</ele>
        <time>2024-01-25T15:33:48Z</time>
      </trkpt>
      <trkpt lat="48.76501" lon="-1.53371">
        <ele>80.9</ele>
        <time>2024-01-25T15:33:49Z</time>
      </trkpt>
      <trkpt lat="48.76511" lon="-1.53373">
        <ele>80.7</ele>
        <time>2024-01-25T15:33:50Z</time>
      </trkpt>
      <trkpt lat="48.76521" lon="-1.53376">
        <ele>80.5</ele>
        <time>2024-01-25T15:33:51Z</time>
      </trkpt>
      <trkpt lat="48.76531" lon="-1.53379">
        <ele>80.3</ele>
        <time>2024-01-25T15:33:52Z</time>
      </trkpt>
      <trkpt lat="48.7654" lon="-1.53382">
        <ele>80.1</ele>
        <time>2024-01-25T15:33:53Z</time>
      </trkpt>
      <trkpt lat="48.7655" lon="-1.53384">
        <ele>79.9</ele>
        <time>2024-01-25T15:33:54Z</time>
      </trkpt>
      <trkpt lat="48.76559" lon="-1.53387">
        <ele>79.8</ele>
        <time>2024-01-25T15:33:55Z</time>
      </trkpt>
      <trkpt lat="48.7657" lon="-1.53389">
        <ele>79.6</ele>
        <time>2024-01-25T15:33:56Z</time>
      </trkpt>
      <trkpt lat="48.7658" lon="-1.53391">
        <ele>79.5</ele>
        <time>2024-01-25T15:33:57Z</time>
      </trkpt>
      <trkpt lat="48.7659" lon="-1.53393">
        <ele>79.3</ele>
        <time>2024-01-25T15:33:58Z</time>
      </trkpt>
      <trkpt lat="48.766" lon="-1.53395">
        <ele>79.2</ele>
        <time>2024-01-25T15:33:59Z</time>
      </trkpt>
      <trkpt lat="48.76611" lon="-1.53396">
        <ele>79</ele>
        <time>2024-01-25T15:34:00Z</time>
      </trkpt>
      <trkpt lat="48.76621" lon="-1.53399">
        <ele>78.9</ele>
        <time>2024-01-25T15:34:01Z</time>
      </trkpt>
      <trkpt lat="48.76631" lon="-1.53401">
        <ele>78.8</ele>
        <time>2024-01-25T15:34:02Z</time>
      </trkpt>
      <trkpt lat="48.76641" lon="-1.53402">
        <ele>78.7</ele>
        <time>2024-01-25T15:34:03Z</time>
      </trkpt>
      <trkpt lat="48.76652" lon="-1.53403">
        <ele>78.5</ele>
        <time>2024-01-25T15:34:04Z</time>
      </trkpt>
      <trkpt lat="48.76662" lon="-1.53406">
        <ele>78.4</ele>
        <time>2024-01-25T15:34:05Z</time>
      </trkpt>
      <trkpt lat="48.76672" lon="-1.53409">
        <ele>78.3</ele>
        <time>2024-01-25T15:34:06Z</time>
      </trkpt>
      <trkpt lat="48.76681" lon="-1.5341">
        <ele>78.2</ele>
        <time>2024-01-25T15:34:07Z</time>
      </trkpt>
      <trkpt lat="48.7669" lon="-1.53413">
        <ele>78.1</ele>
        <time>2024-01-25T15:34:08Z</time>
      </trkpt>
      <trkpt lat="48.76699" lon="-1.53414">
        <ele>78</ele>
        <time>2024-01-25T15:34:09Z</time>
      </trkpt>
      <trkpt lat="48.76707" lon="-1.53416">
        <ele>78</ele>
        <time>2024-01-25T15:34:10Z</time>
      </trkpt>
      <trkpt lat="48.76715" lon="-1.53417">
        <ele>77.9</ele>
        <time>2024-01-25T15:34:11Z</time>
      </trkpt>
      <trkpt lat="48.76723" lon="-1.53419">
        <ele>77.9</ele>
        <time>2024-01-25T15:34:12Z</time>
      </trkpt>
      <trkpt lat="48.76731" lon="-1.53421">
        <ele>77.9</ele>
        <time>2024-01-25T15:34:13Z</time>
      </trkpt>
      <trkpt lat="48.76739" lon="-1.53422">
        <ele>77.9</ele>
        <time>2024-01-25T15:34:14Z</time>
      </trkpt>
      <trkpt lat="48.76746" lon="-1.53424">
        <ele>77.9</ele>
        <time>2024-01-25T15:34:15Z</time>
      </trkpt>
      <trkpt lat="48.76754" lon="-1.53425">
        <ele>77.9</ele>
        <time>2024-01-25T15:34:16Z</time>
      </trkpt>
      <trkpt lat="48.76762" lon="-1.53427">
        <ele>77.9</ele>
        <time>2024-01-25T15:34:17Z</time>
      </trkpt>
      <trkpt lat="48.7677" lon="-1.53431">
        <ele>77.9</ele>
        <time>2024-01-25T15:34:18Z</time>
      </trkpt>
      <trkpt lat="48.76777" lon="-1.53434">
        <ele>77.9</ele>
        <time>2024-01-25T15:34:19Z</time>
      </trkpt>
      <trkpt lat="48.76785" lon="-1.53437">
        <ele>77.9</ele>
        <time>2024-01-25T15:34:20Z</time>
      </trkpt>
      <trkpt lat="48.76792" lon="-1.53438">
        <ele>77.9</ele>
        <time>2024-01-25T15:34:21Z</time>
      </trkpt>
      <trkpt lat="48.76799" lon="-1.53439">
        <ele>78</ele>
        <time>2024-01-25T15:34:22Z</time>
      </trkpt>
      <trkpt lat="48.76805" lon="-1.5344">
        <ele>78</ele>
        <time>2024-01-25T15:34:23Z</time>
      </trkpt>
      <trkpt lat="48.76812" lon="-1.53441">
        <ele>78</ele>
        <time>2024-01-25T15:34:24Z</time>
      </trkpt>
      <trkpt lat="48.76819" lon="-1.53443">
        <ele>78</ele>
        <time>2024-01-25T15:34:25Z</time>
      </trkpt>
      <trkpt lat="48.76826" lon="-1.53444">
        <ele>78</ele>
        <time>2024-01-25T15:34:26Z</time>
      </trkpt>
      <trkpt lat="48.76833" lon="-1.53445">
        <ele>78.1</ele>
        <time>2024-01-25T15:34:27Z</time>
      </trkpt>
      <trkpt lat="48.7684" lon="-1.53447">
        <ele>78.1</ele>
        <time>2024-01-25T15:34:28Z</time>
      </trkpt>
      <trkpt lat="48.76848" lon="-1.53449">
        <ele>78.1</ele>
        <time>2024-01-25T15:34:29Z</time>
      </trkpt>
      <trkpt lat="48.76856" lon="-1.5345">
        <ele>78.1</ele>
        <time>2024-01-25T15:34:30Z</time>
      </trkpt>
      <trkpt lat="48.76863" lon="-1.5345">
        <ele>78.1</ele>
        <time>2024-01-25T15:34:31Z</time>
      </trkpt>
      <trkpt lat="48.76869" lon="-1.53449">
        <ele>78.1</ele>
        <time>2024-01-25T15:34:32Z</time>
      </trkpt>
      <trkpt lat="48.76876" lon="-1.53449">
        <ele>78.2</ele>
        <time>2024-01-25T15:34:33Z</time>
      </trkpt>
      <trkpt lat="48.76883" lon="-1.53451">
        <ele>78.2</ele>
        <time>2024-01-25T15:34:34Z</time>
      </trkpt>
      <trkpt lat="48.76889" lon="-1.53454">
        <ele>78.2</ele>
        <time>2024-01-25T15:34:35Z</time>
      </trkpt>
      <trkpt lat="48.76896" lon="-1.53456">
        <ele>78.2</ele>
        <time>2024-01-25T15:34:36Z</time>
      </trkpt>
      <trkpt lat="48.76904" lon="-1.53458">
        <ele>78.1</ele>
        <time>2024-01-25T15:34:37Z</time>
      </trkpt>
      <trkpt lat="48.76911" lon="-1.5346">
        <ele>78.1</ele>
        <time>2024-01-25T15:34:38Z</time>
      </trkpt>
      <trkpt lat="48.76919" lon="-1.53463">
        <ele>78</ele>
        <time>2024-01-25T15:34:39Z</time>
      </trkpt>
      <trkpt lat="48.76927" lon="-1.53465">
        <ele>78</ele>
        <time>2024-01-25T15:34:40Z</time>
      </trkpt>
      <trkpt lat="48.76934" lon="-1.53467">
        <ele>78</ele>
        <time>2024-01-25T15:34:41Z</time>
      </trkpt>
      <trkpt lat="48.76942" lon="-1.53469">
        <ele>78.1</ele>
        <time>2024-01-25T15:34:42Z</time>
      </trkpt>
      <trkpt lat="48.76948" lon="-1.53472">
        <ele>78.2</ele>
        <time>2024-01-25T15:34:43Z</time>
      </trkpt>
      <trkpt lat="48.76955" lon="-1.53475">
        <ele>78.3</ele>
        <time>2024-01-25T15:34:44Z</time>
      </trkpt>
      <trkpt lat="48.76961" lon="-1.53479">
        <ele>78.4</ele>
        <time>2024-01-25T15:34:45Z</time>
      </trkpt>
      <trkpt lat="48.76966" lon="-1.53482">
        <ele>78.5</ele>
        <time>2024-01-25T15:34:46Z</time>
      </trkpt>
      <trkpt lat="48.76972" lon="-1.53486">
        <ele>78.6</ele>
        <time>2024-01-25T15:34:47Z</time>
      </trkpt>
      <trkpt lat="48.76978" lon="-1.53489">
        <ele>78.7</ele>
        <time>2024-01-25T15:34:48Z</time>
      </trkpt>
      <trkpt lat="48.76984" lon="-1.53493">
        <ele>78.8</ele>
        <time>2024-01-25T15:34:49Z</time>
      </trkpt>
      <trkpt lat="48.7699" lon="-1.53497">
        <ele>78.9</ele>
        <time>2024-01-25T15:34:50Z</time>
      </trkpt>
      <trkpt lat="48.76996" lon="-1.535">
        <ele>79.1</ele>
        <time>2024-01-25T15:34:51Z</time>
      </trkpt>
      <trkpt lat="48.77002" lon="-1.53504">
        <ele>79.2</ele>
        <time>2024-01-25T15:34:52Z</time>
      </trkpt>
      <trkpt lat="48.77007" lon="-1.53508">
        <ele>79.4</ele>
        <time>2024-01-25T15:34:53Z</time>
      </trkpt>
      <trkpt lat="48.77012" lon="-1.53512">
        <ele>79.5</ele>
        <time>2024-01-25T15:34:54Z</time>
      </trkpt>
      <trkpt lat="48.77018" lon="-1.53517">
        <ele>79.7</ele>
        <time>2024-01-25T15:34:55Z</time>
      </trkpt>
      <trkpt lat="48.77023" lon="-1.53521">
        <ele>79.8</ele>
        <time>2024-01-25T15:34:56Z</time>
      </trkpt>
      <trkpt lat="48.77028" lon="-1.53526">
        <ele>80</ele>
        <time>2024-01-25T15:34:57Z</time>
      </trkpt>
      <trkpt lat="48.77033" lon="-1.5353">
        <ele>80.1</ele>
        <time>2024-01-25T15:34:58Z</time>
      </trkpt>
      <trkpt lat="48.77038" lon="-1.53534">
        <ele>80.3</ele>
        <time>2024-01-25T15:34:59Z</time>
      </trkpt>
      <trkpt lat="48.77043" lon="-1.53539">
        <ele>80.5</ele>
        <time>2024-01-25T15:35:00Z</time>
      </trkpt>
      <trkpt lat="48.77048" lon="-1.53543">
        <ele>80.6</ele>
        <time>2024-01-25T15:35:01Z</time>
      </trkpt>
      <trkpt lat="48.77053" lon="-1.53546">
        <ele>80.8</ele>
        <time>2024-01-25T15:35:02Z</time>
      </trkpt>
      <trkpt lat="48.77058" lon="-1.5355">
        <ele>81</ele>
        <time>2024-01-25T15:35:03Z</time>
      </trkpt>
      <trkpt lat="48.77064" lon="-1.53554">
        <ele>81.2</ele>
        <time>2024-01-25T15:35:04Z</time>
      </trkpt>
      <trkpt lat="48.77069" lon="-1.53558">
        <ele>81.4</ele>
        <time>2024-01-25T15:35:05Z</time>
      </trkpt>
      <trkpt lat="48.77075" lon="-1.53561">
        <ele>81.6</ele>
        <time>2024-01-25T15:35:06Z</time>
      </trkpt>
      <trkpt lat="48.77081" lon="-1.53565">
        <ele>81.8</ele>
        <time>2024-01-25T15:35:07Z</time>
      </trkpt>
      <trkpt lat="48.77086" lon="-1.53568">
        <ele>82</ele>
        <time>2024-01-25T15:35:08Z</time>
      </trkpt>
      <trkpt lat="48.77092" lon="-1.53571">
        <ele>82.2</ele>
        <time>2024-01-25T15:35:09Z</time>
      </trkpt>
      <trkpt lat="48.77097" lon="-1.53575">
        <ele>82.4</ele>
        <time>2024-01-25T15:35:10Z</time>
      </trkpt>
      <trkpt lat="48.77102" lon="-1.53578">
        <ele>82.5</ele>
        <time>2024-01-25T15:35:11Z</time>
      </trkpt>
      <trkpt lat="48.77107" lon="-1.53582">
        <ele>82.7</ele>
        <time>2024-01-25T15:35:12Z</time>
      </trkpt>
      <trkpt lat="48.77113" lon="-1.53585">
        <ele>82.8</ele>
        <time>2024-01-25T15:35:13Z</time>
      </trkpt>
      <trkpt lat="48.77118" lon="-1.53589">
        <ele>83</ele>
        <time>2024-01-25T15:35:14Z</time>
      </trkpt>
      <trkpt lat="48.77123" lon="-1.53593">
        <ele>83.1</ele>
        <time>2024-01-25T15:35:15Z</time>
      </trkpt>
      <trkpt lat="48.77128" lon="-1.53597">
        <ele>83.2</ele>
        <time>2024-01-25T15:35:16Z</time>
      </trkpt>
      <trkpt lat="48.77133" lon="-1.536">
        <ele>83.3</ele>
        <time>2024-01-25T15:35:17Z</time>
      </trkpt>
      <trkpt lat="48.77138" lon="-1.53604">
        <ele>83.4</ele>
        <time>2024-01-25T15:35:18Z</time>
      </trkpt>
      <trkpt lat="48.77144" lon="-1.53608">
        <ele>83.5</ele>
        <time>2024-01-25T15:35:19Z</time>
      </trkpt>
      <trkpt lat="48.77149" lon="-1.53612">
        <ele>83.5</ele>
        <time>2024-01-25T15:35:20Z</time>
      </trkpt>
      <trkpt lat="48.77155" lon="-1.53616">
        <ele>83.6</ele>
        <time>2024-01-25T15:35:21Z</time>
      </trkpt>
      <trkpt lat="48.77161" lon="-1.5362">
        <ele>83.6</ele>
        <time>2024-01-25T15:35:22Z</time>
      </trkpt>
      <trkpt lat="48.77166" lon="-1.53624">
        <ele>83.7</ele>
        <time>2024-01-25T15:35:23Z</time>
      </trkpt>
      <trkpt lat="48.77172" lon="-1.53629">
        <ele>83.7</ele>
        <time>2024-01-25T15:35:24Z</time>
      </trkpt>
      <trkpt lat="48.77178" lon="-1.53633">
        <ele>83.7</ele>
        <time>2024-01-25T15:35:25Z</time>
      </trkpt>
      <trkpt lat="48.77184" lon="-1.53638">
        <ele>83.6</ele>
        <time>2024-01-25T15:35:26Z</time>
      </trkpt>
      <trkpt lat="48.7719" lon="-1.53643">
        <ele>83.6</ele>
        <time>2024-01-25T15:35:27Z</time>
      </trkpt>
      <trkpt lat="48.77196" lon="-1.53647">
        <ele>83.5</ele>
        <time>2024-01-25T15:35:28Z</time>
      </trkpt>
      <trkpt lat="48.77202" lon="-1.53652">
        <ele>83.4</ele>
        <time>2024-01-25T15:35:29Z</time>
      </trkpt>
      <trkpt lat="48.77207" lon="-1.53658">
        <ele>83.3</ele>
        <time>2024-01-25T15:35:30Z</time>
      </trkpt>
      <trkpt lat="48.77213" lon="-1.53664">
        <ele>83.2</ele>
        <time>2024-01-25T15:35:31Z</time>
      </trkpt>
      <trkpt lat="48.77218" lon="-1.53671">
        <ele>83.2</ele>
        <time>2024-01-25T15:35:32Z</time>
      </trkpt>
      <trkpt lat="48.77223" lon="-1.53678">
        <ele>83</ele>
        <time>2024-01-25T15:35:33Z</time>
      </trkpt>
      <trkpt lat="48.77228" lon="-1.53687">
        <ele>82.9</ele>
        <time>2024-01-25T15:35:34Z</time>
      </trkpt>
      <trkpt lat="48.77233" lon="-1.53696">
        <ele>82.7</ele>
        <time>2024-01-25T15:35:35Z</time>
      </trkpt>
      <trkpt lat="48.77237" lon="-1.53705">
        <ele>82.5</ele>
        <time>2024-01-25T15:35:36Z</time>
      </trkpt>
      <trkpt lat="48.77241" lon="-1.53714">
        <ele>82.4</ele>
        <time>2024-01-25T15:35:37Z</time>
      </trkpt>
      <trkpt lat="48.77244" lon="-1.53723">
        <ele>82.2</ele>
        <time>2024-01-25T15:35:38Z</time>
      </trkpt>
      <trkpt lat="48.77247" lon="-1.53734">
        <ele>82</ele>
        <time>2024-01-25T15:35:39Z</time>
      </trkpt>
      <trkpt lat="48.7725" lon="-1.53744">
        <ele>81.8</ele>
        <time>2024-01-25T15:35:40Z</time>
      </trkpt>
      <trkpt lat="48.77252" lon="-1.53754">
        <ele>81.6</ele>
        <time>2024-01-25T15:35:41Z</time>
      </trkpt>
      <trkpt lat="48.77255" lon="-1.53765">
        <ele>81.4</ele>
        <time>2024-01-25T15:35:42Z</time>
      </trkpt>
      <trkpt lat="48.77258" lon="-1.53775">
        <ele>81.2</ele>
        <time>2024-01-25T15:35:43Z</time>
      </trkpt>
      <trkpt lat="48.77261" lon="-1.53785">
        <ele>80.9</ele>
        <time>2024-01-25T15:35:44Z</time>
      </trkpt>
      <trkpt lat="48.77263" lon="-1.53795">
        <ele>80.7</ele>
        <time>2024-01-25T15:35:45Z</time>
      </trkpt>
      <trkpt lat="48.77266" lon="-1.53806">
        <ele>80.5</ele>
        <time>2024-01-25T15:35:46Z</time>
      </trkpt>
      <trkpt lat="48.77269" lon="-1.53817">
        <ele>80.2</ele>
        <time>2024-01-25T15:35:47Z</time>
      </trkpt>
      <trkpt lat="48.77272" lon="-1.53828">
        <ele>79.9</ele>
        <time>2024-01-25T15:35:48Z</time>
      </trkpt>
      <trkpt lat="48.77275" lon="-1.53839">
        <ele>79.7</ele>
        <time>2024-01-25T15:35:49Z</time>
      </trkpt>
      <trkpt lat="48.77278" lon="-1.5385">
        <ele>79.4</ele>
        <time>2024-01-25T15:35:50Z</time>
      </trkpt>
      <trkpt lat="48.77281" lon="-1.53862">
        <ele>79.1</ele>
        <time>2024-01-25T15:35:51Z</time>
      </trkpt>
      <trkpt lat="48.77283" lon="-1.53873">
        <ele>78.9</ele>
        <time>2024-01-25T15:35:52Z</time>
      </trkpt>
      <trkpt lat="48.77286" lon="-1.53883">
        <ele>78.6</ele>
        <time>2024-01-25T15:35:53Z</time>
      </trkpt>
      <trkpt lat="48.77289" lon="-1.53894">
        <ele>78.4</ele>
        <time>2024-01-25T15:35:54Z</time>
      </trkpt>
      <trkpt lat="48.77292" lon="-1.53905">
        <ele>78.1</ele>
        <time>2024-01-25T15:35:55Z</time>
      </trkpt>
      <trkpt lat="48.77295" lon="-1.53916">
        <ele>77.8</ele>
        <time>2024-01-25T15:35:56Z</time>
      </trkpt>
      <trkpt lat="48.77298" lon="-1.53928">
        <ele>77.6</ele>
        <time>2024-01-25T15:35:57Z</time>
      </trkpt>
      <trkpt lat="48.77301" lon="-1.53939">
        <ele>77.3</ele>
        <time>2024-01-25T15:35:58Z</time>
      </trkpt>
      <trkpt lat="48.77304" lon="-1.53951">
        <ele>77</ele>
        <time>2024-01-25T15:35:59Z</time>
      </trkpt>
      <trkpt lat="48.77307" lon="-1.53963">
        <ele>76.7</ele>
        <time>2024-01-25T15:36:00Z</time>
      </trkpt>
      <trkpt lat="48.77309" lon="-1.53975">
        <ele>76.4</ele>
        <time>2024-01-25T15:36:01Z</time>
      </trkpt>
      <trkpt lat="48.77312" lon="-1.53987">
        <ele>76.1</ele>
        <time>2024-01-25T15:36:02Z</time>
      </trkpt>
      <trkpt lat="48.77315" lon="-1.53999">
        <ele>75.8</ele>
        <time>2024-01-25T15:36:03Z</time>
      </trkpt>
      <trkpt lat="48.77318" lon="-1.54011">
        <ele>75.5</ele>
        <time>2024-01-25T15:36:04Z</time>
      </trkpt>
      <trkpt lat="48.77321" lon="-1.54022">
        <ele>75.2</ele>
        <time>2024-01-25T15:36:05Z</time>
      </trkpt>
      <trkpt lat="48.77324" lon="-1.54033">
        <ele>75</ele>
        <time>2024-01-25T15:36:06Z</time>
      </trkpt>
      <trkpt lat="48.77327" lon="-1.54044">
        <ele>74.7</ele>
        <time>2024-01-25T15:36:07Z</time>
      </trkpt>
      <trkpt lat="48.7733" lon="-1.54056">
        <ele>74.4</ele>
        <time>2024-01-25T15:36:08Z</time>
      </trkpt>
      <trkpt lat="48.77334" lon="-1.54067">
        <ele>74.1</ele>
        <time>2024-01-25T15:36:09Z</time>
      </trkpt>
      <trkpt lat="48.77337" lon="-1.54078">
        <ele>73.8</ele>
        <time>2024-01-25T15:36:10Z</time>
      </trkpt>
      <trkpt lat="48.7734" lon="-1.5409">
        <ele>73.5</ele>
        <time>2024-01-25T15:36:11Z</time>
      </trkpt>
      <trkpt lat="48.77343" lon="-1.54101">
        <ele>73.2</ele>
        <time>2024-01-25T15:36:12Z</time>
      </trkpt>
      <trkpt lat="48.77347" lon="-1.54112">
        <ele>72.9</ele>
        <time>2024-01-25T15:36:13Z</time>
      </trkpt>
      <trkpt lat="48.77351" lon="-1.54124">
        <ele>72.8</ele>
        <time>2024-01-25T15:36:14Z</time>
      </trkpt>
      <trkpt lat="48.77355" lon="-1.54134">
        <ele>72.4</ele>
        <time>2024-01-25T15:36:15Z</time>
      </trkpt>
      <trkpt lat="48.77361" lon="-1.54144">
        <ele>71.9</ele>
        <time>2024-01-25T15:36:16Z</time>
      </trkpt>
      <trkpt lat="48.77366" lon="-1.54154">
        <ele>71.5</ele>
        <time>2024-01-25T15:36:17Z</time>
      </trkpt>
      <trkpt lat="48.77373" lon="-1.54163">
        <ele>71</ele>
        <time>2024-01-25T15:36:18Z</time>
      </trkpt>
      <trkpt lat="48.7738" lon="-1.54171">
        <ele>70.5</ele>
        <time>2024-01-25T15:36:19Z</time>
      </trkpt>
      <trkpt lat="48.77389" lon="-1.54178">
        <ele>70</ele>
        <time>2024-01-25T15:36:20Z</time>
      </trkpt>
      <trkpt lat="48.77397" lon="-1.54184">
        <ele>69.4</ele>
        <time>2024-01-25T15:36:21Z</time>
      </trkpt>
      <trkpt lat="48.77406" lon="-1.54188">
        <ele>68.9</ele>
        <time>2024-01-25T15:36:22Z</time>
      </trkpt>
      <trkpt lat="48.77415" lon="-1.54192">
        <ele>68.3</ele>
        <time>2024-01-25T15:36:23Z</time>
      </trkpt>
      <trkpt lat="48.77424" lon="-1.54194">
        <ele>67.7</ele>
        <time>2024-01-25T15:36:24Z</time>
      </trkpt>
      <trkpt lat="48.77434" lon="-1.54196">
        <ele>67.1</ele>
        <time>2024-01-25T15:36:25Z</time>
      </trkpt>
      <trkpt lat="48.77444" lon="-1.54197">
        <ele>66.5</ele>
        <time>2024-01-25T15:36:26Z</time>
      </trkpt>
      <trkpt lat="48.77454" lon="-1.54197">
        <ele>65.9</ele>
        <time>2024-01-25T15:36:27Z</time>
      </trkpt>
      <trkpt lat="48.77465" lon="-1.54198">
        <ele>65.3</ele>
        <time>2024-01-25T15:36:28Z</time>
      </trkpt>
      <trkpt lat="48.77476" lon="-1.54199">
        <ele>64.6</ele>
        <time>2024-01-25T15:36:29Z</time>
      </trkpt>
      <trkpt lat="48.77487" lon="-1.542">
        <ele>64</ele>
        <time>2024-01-25T15:36:30Z</time>
      </trkpt>
      <trkpt lat="48.77497" lon="-1.542">
        <ele>63.4</ele>
        <time>2024-01-25T15:36:31Z</time>
      </trkpt>
      <trkpt lat="48.77508" lon="-1.54198">
        <ele>62.8</ele>
        <time>2024-01-25T15:36:32Z</time>
      </trkpt>
      <trkpt lat="48.7752" lon="-1.54196">
        <ele>62.2</ele>
        <time>2024-01-25T15:36:33Z</time>
      </trkpt>
      <trkpt lat="48.77531" lon="-1.54192">
        <ele>61.6</ele>
        <time>2024-01-25T15:36:34Z</time>
      </trkpt>
      <trkpt lat="48.77542" lon="-1.54187">
        <ele>61</ele>
        <time>2024-01-25T15:36:35Z</time>
      </trkpt>
      <trkpt lat="48.77553" lon="-1.54182">
        <ele>60.4</ele>
        <time>2024-01-25T15:36:36Z</time>
      </trkpt>
      <trkpt lat="48.77563" lon="-1.54176">
        <ele>59.8</ele>
        <time>2024-01-25T15:36:37Z</time>
      </trkpt>
      <trkpt lat="48.77574" lon="-1.54169">
        <ele>59.2</ele>
        <time>2024-01-25T15:36:38Z</time>
      </trkpt>
      <trkpt lat="48.77584" lon="-1.5416">
        <ele>58.6</ele>
        <time>2024-01-25T15:36:39Z</time>
      </trkpt>
      <trkpt lat="48.77594" lon="-1.54151">
        <ele>57.9</ele>
        <time>2024-01-25T15:36:40Z</time>
      </trkpt>
      <trkpt lat="48.77603" lon="-1.5414">
        <ele>57.3</ele>
        <time>2024-01-25T15:36:41Z</time>
      </trkpt>
      <trkpt lat="48.77613" lon="-1.5413">
        <ele>56.6</ele>
        <time>2024-01-25T15:36:42Z</time>
      </trkpt>
      <trkpt lat="48.77622" lon="-1.54119">
        <ele>56</ele>
        <time>2024-01-25T15:36:43Z</time>
      </trkpt>
      <trkpt lat="48.77631" lon="-1.54108">
        <ele>55.4</ele>
        <time>2024-01-25T15:36:44Z</time>
      </trkpt>
      <trkpt lat="48.7764" lon="-1.54097">
        <ele>54.8</ele>
        <time>2024-01-25T15:36:45Z</time>
      </trkpt>
      <trkpt lat="48.7765" lon="-1.54086">
        <ele>54.2</ele>
        <time>2024-01-25T15:36:46Z</time>
      </trkpt>
      <trkpt lat="48.77659" lon="-1.54075">
        <ele>53.6</ele>
        <time>2024-01-25T15:36:47Z</time>
      </trkpt>
      <trkpt lat="48.77668" lon="-1.54065">
        <ele>53</ele>
        <time>2024-01-25T15:36:48Z</time>
      </trkpt>
      <trkpt lat="48.77677" lon="-1.54054">
        <ele>52.4</ele>
        <time>2024-01-25T15:36:49Z</time>
      </trkpt>
      <trkpt lat="48.77687" lon="-1.54043">
        <ele>51.8</ele>
        <time>2024-01-25T15:36:50Z</time>
      </trkpt>
      <trkpt lat="48.77696" lon="-1.54032">
        <ele>51.1</ele>
        <time>2024-01-25T15:36:51Z</time>
      </trkpt>
      <trkpt lat="48.77705" lon="-1.54021">
        <ele>50.5</ele>
        <time>2024-01-25T15:36:52Z</time>
      </trkpt>
      <trkpt lat="48.77715" lon="-1.5401">
        <ele>49.8</ele>
        <time>2024-01-25T15:36:53Z</time>
      </trkpt>
      <trkpt lat="48.77724" lon="-1.54">
        <ele>49.2</ele>
        <time>2024-01-25T15:36:54Z</time>
      </trkpt>
      <trkpt lat="48.77733" lon="-1.53989">
        <ele>48.5</ele>
        <time>2024-01-25T15:36:55Z</time>
      </trkpt>
      <trkpt lat="48.77742" lon="-1.53979">
        <ele>47.9</ele>
        <time>2024-01-25T15:36:56Z</time>
      </trkpt>
      <trkpt lat="48.77751" lon="-1.53968">
        <ele>47.4</ele>
        <time>2024-01-25T15:36:57Z</time>
      </trkpt>
      <trkpt lat="48.77758" lon="-1.53956">
        <ele>46.8</ele>
        <time>2024-01-25T15:36:58Z</time>
      </trkpt>
      <trkpt lat="48.77765" lon="-1.53942">
        <ele>46.2</ele>
        <time>2024-01-25T15:36:59Z</time>
      </trkpt>
      <trkpt lat="48.7777" lon="-1.53928">
        <ele>45.7</ele>
        <time>2024-01-25T15:37:00Z</time>
      </trkpt>
      <trkpt lat="48.77774" lon="-1.53912">
        <ele>45.2</ele>
        <time>2024-01-25T15:37:01Z</time>
      </trkpt>
      <trkpt lat="48.77777" lon="-1.53896">
        <ele>44.7</ele>
        <time>2024-01-25T15:37:02Z</time>
      </trkpt>
      <trkpt lat="48.7778" lon="-1.5388">
        <ele>44.2</ele>
        <time>2024-01-25T15:37:03Z</time>
      </trkpt>
      <trkpt lat="48.77782" lon="-1.53864">
        <ele>43.7</ele>
        <time>2024-01-25T15:37:04Z</time>
      </trkpt>
      <trkpt lat="48.77784" lon="-1.53847">
        <ele>43.1</ele>
        <time>2024-01-25T15:37:05Z</time>
      </trkpt>
      <trkpt lat="48.77786" lon="-1.53831">
        <ele>42.5</ele>
        <time>2024-01-25T15:37:06Z</time>
      </trkpt>
      <trkpt lat="48.77788" lon="-1.53815">
        <ele>41.9</ele>
        <time>2024-01-25T15:37:07Z</time>
      </trkpt>
      <trkpt lat="48.77791" lon="-1.53798">
        <ele>41.4</ele>
        <time>2024-01-25T15:37:08Z</time>
      </trkpt>
      <trkpt lat="48.77794" lon="-1.53782">
        <ele>40.7</ele>
        <time>2024-01-25T15:37:09Z</time>
      </trkpt>
      <trkpt lat="48.77798" lon="-1.53766">
        <ele>40.1</ele>
        <time>2024-01-25T15:37:10Z</time>
      </trkpt>
      <trkpt lat="48.77802" lon="-1.53751">
        <ele>39.4</ele>
        <time>2024-01-25T15:37:11Z</time>
      </trkpt>
      <trkpt lat="48.77807" lon="-1.53735">
        <ele>38.7</ele>
        <time>2024-01-25T15:37:12Z</time>
      </trkpt>
      <trkpt lat="48.77813" lon="-1.5372">
        <ele>38.1</ele>
        <time>2024-01-25T15:37:13Z</time>
      </trkpt>
      <trkpt lat="48.77819" lon="-1.53704">
        <ele>37.4</ele>
        <time>2024-01-25T15:37:14Z</time>
      </trkpt>
      <trkpt lat="48.77825" lon="-1.53689">
        <ele>36.8</ele>
        <time>2024-01-25T15:37:15Z</time>
      </trkpt>
      <trkpt lat="48.77832" lon="-1.53674">
        <ele>36.3</ele>
        <time>2024-01-25T15:37:16Z</time>
      </trkpt>
      <trkpt lat="48.77838" lon="-1.53658">
        <ele>35.8</ele>
        <time>2024-01-25T15:37:17Z</time>
      </trkpt>
      <trkpt lat="48.77844" lon="-1.53643">
        <ele>35.3</ele>
        <time>2024-01-25T15:37:18Z</time>
      </trkpt>
      <trkpt lat="48.7785" lon="-1.53628">
        <ele>35</ele>
        <time>2024-01-25T15:37:19Z</time>
      </trkpt>
      <trkpt lat="48.77857" lon="-1.53613">
        <ele>34.7</ele>
        <time>2024-01-25T15:37:20Z</time>
      </trkpt>
      <trkpt lat="48.77862" lon="-1.53599">
        <ele>34.5</ele>
        <time>2024-01-25T15:37:21Z</time>
      </trkpt>
      <trkpt lat="48.77868" lon="-1.53585">
        <ele>34.3</ele>
        <time>2024-01-25T15:37:22Z</time>
      </trkpt>
      <trkpt lat="48.77875" lon="-1.53572">
        <ele>34.1</ele>
        <time>2024-01-25T15:37:23Z</time>
      </trkpt>
      <trkpt lat="48.77881" lon="-1.5356">
        <ele>33.9</ele>
        <time>2024-01-25T15:37:24Z</time>
      </trkpt>
      <trkpt lat="48.77889" lon="-1.53549">
        <ele>33.8</ele>
        <time>2024-01-25T15:37:25Z</time>
      </trkpt>
      <trkpt lat="48.77897" lon="-1.53538">
        <ele>33.6</ele>
        <time>2024-01-25T15:37:26Z</time>
      </trkpt>
      <trkpt lat="48.77904" lon="-1.53527">
        <ele>33.4</ele>
        <time>2024-01-25T15:37:27Z</time>
      </trkpt>
      <trkpt lat="48.77911" lon="-1.53516">
        <ele>33.3</ele>
        <time>2024-01-25T15:37:28Z</time>
      </trkpt>
      <trkpt lat="48.77918" lon="-1.53505">
        <ele>33.2</ele>
        <time>2024-01-25T15:37:29Z</time>
      </trkpt>
      <trkpt lat="48.77925" lon="-1.53495">
        <ele>33</ele>
        <time>2024-01-25T15:37:30Z</time>
      </trkpt>
      <trkpt lat="48.77931" lon="-1.53485">
        <ele>32.8</ele>
        <time>2024-01-25T15:37:31Z</time>
      </trkpt>
      <trkpt lat="48.77938" lon="-1.53475">
        <ele>32.6</ele>
        <time>2024-01-25T15:37:32Z</time>
      </trkpt>
      <trkpt lat="48.77945" lon="-1.53466">
        <ele>32.4</ele>
        <time>2024-01-25T15:37:33Z</time>
      </trkpt>
      <trkpt lat="48.77952" lon="-1.53457">
        <ele>32.2</ele>
        <time>2024-01-25T15:37:34Z</time>
      </trkpt>
      <trkpt lat="48.7796" lon="-1.53449">
        <ele>31.9</ele>
        <time>2024-01-25T15:37:35Z</time>
      </trkpt>
      <trkpt lat="48.77967" lon="-1.53441">
        <ele>31.6</ele>
        <time>2024-01-25T15:37:36Z</time>
      </trkpt>
      <trkpt lat="48.77974" lon="-1.53432">
        <ele>31.4</ele>
        <time>2024-01-25T15:37:37Z</time>
      </trkpt>
      <trkpt lat="48.77981" lon="-1.53424">
        <ele>31.1</ele>
        <time>2024-01-25T15:37:38Z</time>
      </trkpt>
      <trkpt lat="48.77989" lon="-1.53415">
        <ele>30.7</ele>
        <time>2024-01-25T15:37:39Z</time>
      </trkpt>
      <trkpt lat="48.77996" lon="-1.53406">
        <ele>30.4</ele>
        <time>2024-01-25T15:37:40Z</time>
      </trkpt>
      <trkpt lat="48.78003" lon="-1.53396">
        <ele>30.1</ele>
        <time>2024-01-25T15:37:41Z</time>
      </trkpt>
      <trkpt lat="48.78009" lon="-1.53385">
        <ele>29.6</ele>
        <time>2024-01-25T15:37:42Z</time>
      </trkpt>
      <trkpt lat="48.78015" lon="-1.53375">
        <ele>29.2</ele>
        <time>2024-01-25T15:37:43Z</time>
      </trkpt>
      <trkpt lat="48.78022" lon="-1.53364">
        <ele>28.8</ele>
        <time>2024-01-25T15:37:44Z</time>
      </trkpt>
      <trkpt lat="48.78029" lon="-1.53352">
        <ele>28.3</ele>
        <time>2024-01-25T15:37:45Z</time>
      </trkpt>
      <trkpt lat="48.78036" lon="-1.53341">
        <ele>27.8</ele>
        <time>2024-01-25T15:37:46Z</time>
      </trkpt>
      <trkpt lat="48.78042" lon="-1.5333">
        <ele>27.3</ele>
        <time>2024-01-25T15:37:47Z</time>
      </trkpt>
      <trkpt lat="48.78048" lon="-1.53318">
        <ele>26.8</ele>
        <time>2024-01-25T15:37:48Z</time>
      </trkpt>
      <trkpt lat="48.78054" lon="-1.53306">
        <ele>26.2</ele>
        <time>2024-01-25T15:37:49Z</time>
      </trkpt>
      <trkpt lat="48.78059" lon="-1.53294">
        <ele>25.7</ele>
        <time>2024-01-25T15:37:50Z</time>
      </trkpt>
      <trkpt lat="48.78065" lon="-1.53282">
        <ele>25.4</ele>
        <time>2024-01-25T15:37:51Z</time>
      </trkpt>
      <trkpt lat="48.78071" lon="-1.5327">
        <ele>25</ele>
        <time>2024-01-25T15:37:52Z</time>
      </trkpt>
      <trkpt lat="48.78077" lon="-1.53258">
        <ele>24.4</ele>
        <time>2024-01-25T15:37:53Z</time>
      </trkpt>
      <trkpt lat="48.78084" lon="-1.53246">
        <ele>23.8</ele>
        <time>2024-01-25T15:37:54Z</time>
      </trkpt>
      <trkpt lat="48.78092" lon="-1.53234">
        <ele>23.1</ele>
        <time>2024-01-25T15:37:55Z</time>
      </trkpt>
      <trkpt lat="48.78099" lon="-1.53223">
        <ele>22.4</ele>
        <time>2024-01-25T15:37:56Z</time>
      </trkpt>
      <trkpt lat="48.78106" lon="-1.53211">
        <ele>21.8</ele>
        <time>2024-01-25T15:37:57Z</time>
      </trkpt>
      <trkpt lat="48.78113" lon="-1.53198">
        <ele>21.1</ele>
        <time>2024-01-25T15:37:58Z</time>
      </trkpt>
      <trkpt lat="48.78121" lon="-1.53186">
        <ele>20.4</ele>
        <time>2024-01-25T15:37:59Z</time>
      </trkpt>
      <trkpt lat="48.78128" lon="-1.53173">
        <ele>19.7</ele>
        <time>2024-01-25T15:38:00Z</time>
      </trkpt>
      <trkpt lat="48.78135" lon="-1.5316">
        <ele>19.1</ele>
        <time>2024-01-25T15:38:01Z</time>
      </trkpt>
      <trkpt lat="48.78143" lon="-1.53148">
        <ele>18.4</ele>
        <time>2024-01-25T15:38:02Z</time>
      </trkpt>
      <trkpt lat="48.7815" lon="-1.53136">
        <ele>17.8</ele>
        <time>2024-01-25T15:38:03Z</time>
      </trkpt>
      <trkpt lat="48.78156" lon="-1.53125">
        <ele>17.2</ele>
        <time>2024-01-25T15:38:04Z</time>
      </trkpt>
      <trkpt lat="48.78162" lon="-1.53114">
        <ele>16.7</ele>
        <time>2024-01-25T15:38:05Z</time>
      </trkpt>
      <trkpt lat="48.78169" lon="-1.53103">
        <ele>16.2</ele>
        <time>2024-01-25T15:38:06Z</time>
      </trkpt>
      <trkpt lat="48.78176" lon="-1.53092">
        <ele>15.9</ele>
        <time>2024-01-25T15:38:07Z</time>
      </trkpt>
      <trkpt lat="48.78182" lon="-1.53081">
        <ele>15.5</ele>
        <time>2024-01-25T15:38:08Z</time>
      </trkpt>
      <trkpt lat="48.7819" lon="-1.5307">
        <ele>15.2</ele>
        <time>2024-01-25T15:38:09Z</time>
      </trkpt>
      <trkpt lat="48.78198" lon="-1.5306">
        <ele>14.9</ele>
        <time>2024-01-25T15:38:10Z</time>
      </trkpt>
      <trkpt lat="48.78206" lon="-1.53051">
        <ele>14.5</ele>
        <time>2024-01-25T15:38:11Z</time>
      </trkpt>
      <trkpt lat="48.78215" lon="-1.53043">
        <ele>14.2</ele>
        <time>2024-01-25T15:38:12Z</time>
      </trkpt>
      <trkpt lat="48.78224" lon="-1.53039">
        <ele>13.9</ele>
        <time>2024-01-25T15:38:13Z</time>
      </trkpt>
      <trkpt lat="48.78234" lon="-1.53037">
        <ele>13.5</ele>
        <time>2024-01-25T15:38:14Z</time>
      </trkpt>
      <trkpt lat="48.78243" lon="-1.53037">
        <ele>13.2</ele>
        <time>2024-01-25T15:38:15Z</time>
      </trkpt>
      <trkpt lat="48.78252" lon="-1.5304">
        <ele>12.9</ele>
        <time>2024-01-25T15:38:16Z</time>
      </trkpt>
      <trkpt lat="48.78262" lon="-1.53044">
        <ele>12.6</ele>
        <time>2024-01-25T15:38:17Z</time>
      </trkpt>
      <trkpt lat="48.7827" lon="-1.53048">
        <ele>12.4</ele>
        <time>2024-01-25T15:38:18Z</time>
      </trkpt>
      <trkpt lat="48.78279" lon="-1.53054">
        <ele>12.2</ele>
        <time>2024-01-25T15:38:19Z</time>
      </trkpt>
      <trkpt lat="48.78287" lon="-1.5306">
        <ele>12</ele>
        <time>2024-01-25T15:38:20Z</time>
      </trkpt>
      <trkpt lat="48.78294" lon="-1.53067">
        <ele>11.9</ele>
        <time>2024-01-25T15:38:21Z</time>
      </trkpt>
      <trkpt lat="48.78302" lon="-1.53074">
        <ele>11.7</ele>
        <time>2024-01-25T15:38:22Z</time>
      </trkpt>
      <trkpt lat="48.7831" lon="-1.53081">
        <ele>11.5</ele>
        <time>2024-01-25T15:38:23Z</time>
      </trkpt>
      <trkpt lat="48.78318" lon="-1.53087">
        <ele>11.4</ele>
        <time>2024-01-25T15:38:24Z</time>
      </trkpt>
      <trkpt lat="48.78325" lon="-1.53094">
        <ele>11.3</ele>
        <time>2024-01-25T15:38:25Z</time>
      </trkpt>
      <trkpt lat="48.78332" lon="-1.53101">
        <ele>11.2</ele>
        <time>2024-01-25T15:38:26Z</time>
      </trkpt>
      <trkpt lat="48.78339" lon="-1.53108">
        <ele>11.1</ele>
        <time>2024-01-25T15:38:27Z</time>
      </trkpt>
      <trkpt lat="48.78345" lon="-1.53117">
        <ele>11.1</ele>
        <time>2024-01-25T15:38:28Z</time>
      </trkpt>
      <trkpt lat="48.78351" lon="-1.53127">
        <ele>11.1</ele>
        <time>2024-01-25T15:38:29Z</time>
      </trkpt>
      <trkpt lat="48.78356" lon="-1.53137">
        <ele>11.1</ele>
        <time>2024-01-25T15:38:30Z</time>
      </trkpt>
      <trkpt lat="48.7836" lon="-1.53147">
        <ele>11.1</ele>
        <time>2024-01-25T15:38:31Z</time>
      </trkpt>
      <trkpt lat="48.78364" lon="-1.53159">
        <ele>11.2</ele>
        <time>2024-01-25T15:38:32Z</time>
      </trkpt>
      <trkpt lat="48.78368" lon="-1.5317">
        <ele>11.3</ele>
        <time>2024-01-25T15:38:33Z</time>
      </trkpt>
      <trkpt lat="48.78371" lon="-1.53181">
        <ele>11.4</ele>
        <time>2024-01-25T15:38:34Z</time>
      </trkpt>
      <trkpt lat="48.78374" lon="-1.53192">
        <ele>11.5</ele>
        <time>2024-01-25T15:38:35Z</time>
      </trkpt>
      <trkpt lat="48.78378" lon="-1.53202">
        <ele>11.6</ele>
        <time>2024-01-25T15:38:36Z</time>
      </trkpt>
      <trkpt lat="48.78382" lon="-1.53212">
        <ele>11.8</ele>
        <time>2024-01-25T15:38:37Z</time>
      </trkpt>
      <trkpt lat="48.78386" lon="-1.53221">
        <ele>11.9</ele>
        <time>2024-01-25T15:38:38Z</time>
      </trkpt>
      <trkpt lat="48.7839" lon="-1.5323">
        <ele>12.1</ele>
        <time>2024-01-25T15:38:39Z</time>
      </trkpt>
      <trkpt lat="48.78394" lon="-1.53239">
        <ele>12.2</ele>
        <time>2024-01-25T15:38:40Z</time>
      </trkpt>
      <trkpt lat="48.78398" lon="-1.53246">
        <ele>12.1</ele>
        <time>2024-01-25T15:38:41Z</time>
      </trkpt>
      <trkpt lat="48.78402" lon="-1.53254">
        <ele>12.2</ele>
        <time>2024-01-25T15:38:42Z</time>
      </trkpt>
      <trkpt lat="48.78406" lon="-1.53262">
        <ele>12.3</ele>
        <time>2024-01-25T15:38:43Z</time>
      </trkpt>
      <trkpt lat="48.7841" lon="-1.53269">
        <ele>12.3</ele>
        <time>2024-01-25T15:38:44Z</time>
      </trkpt>
      <trkpt lat="48.78415" lon="-1.53277">
        <ele>12.4</ele>
        <time>2024-01-25T15:38:45Z</time>
      </trkpt>
      <trkpt lat="48.78419" lon="-1.53285">
        <ele>12.5</ele>
        <time>2024-01-25T15:38:46Z</time>
      </trkpt>
      <trkpt lat="48.78423" lon="-1.53292">
        <ele>12.7</ele>
        <time>2024-01-25T15:38:47Z</time>
      </trkpt>
      <trkpt lat="48.78428" lon="-1.53298">
        <ele>12.9</ele>
        <time>2024-01-25T15:38:48Z</time>
      </trkpt>
      <trkpt lat="48.78433" lon="-1.53304">
        <ele>13</ele>
        <time>2024-01-25T15:38:49Z</time>
      </trkpt>
      <trkpt lat="48.78438" lon="-1.53309">
        <ele>13.2</ele>
        <time>2024-01-25T15:38:50Z</time>
      </trkpt>
      <trkpt lat="48.78443" lon="-1.53314">
        <ele>13.4</ele>
        <time>2024-01-25T15:38:51Z</time>
      </trkpt>
      <trkpt lat="48.78448" lon="-1.53318">
        <ele>13.6</ele>
        <time>2024-01-25T15:38:52Z</time>
      </trkpt>
      <trkpt lat="48.78454" lon="-1.53322">
        <ele>13.8</ele>
        <time>2024-01-25T15:38:53Z</time>
      </trkpt>
      <trkpt lat="48.78459" lon="-1.53326">
        <ele>14.1</ele>
        <time>2024-01-25T15:38:54Z</time>
      </trkpt>
      <trkpt lat="48.78465" lon="-1.53328">
        <ele>14.3</ele>
        <time>2024-01-25T15:38:55Z</time>
      </trkpt>
      <trkpt lat="48.7847" lon="-1.53331">
        <ele>14.5</ele>
        <time>2024-01-25T15:38:56Z</time>
      </trkpt>
      <trkpt lat="48.78475" lon="-1.53332">
        <ele>14.8</ele>
        <time>2024-01-25T15:38:57Z</time>
      </trkpt>
      <trkpt lat="48.78481" lon="-1.53333">
        <ele>15</ele>
        <time>2024-01-25T15:38:58Z</time>
      </trkpt>
      <trkpt lat="48.78486" lon="-1.53334">
        <ele>15.2</ele>
        <time>2024-01-25T15:38:59Z</time>
      </trkpt>
      <trkpt lat="48.78491" lon="-1.53335">
        <ele>15.4</ele>
        <time>2024-01-25T15:39:00Z</time>
      </trkpt>
      <trkpt lat="48.78496" lon="-1.53336">
        <ele>15.6</ele>
        <time>2024-01-25T15:39:01Z</time>
      </trkpt>
      <trkpt lat="48.785" lon="-1.53337">
        <ele>15.8</ele>
        <time>2024-01-25T15:39:02Z</time>
      </trkpt>
      <trkpt lat="48.78505" lon="-1.53338">
        <ele>16</ele>
        <time>2024-01-25T15:39:03Z</time>
      </trkpt>
      <trkpt lat="48.7851" lon="-1.53339">
        <ele>16.1</ele>
        <time>2024-01-25T15:39:04Z</time>
      </trkpt>
      <trkpt lat="48.78514" lon="-1.5334">
        <ele>16.3</ele>
        <time>2024-01-25T15:39:05Z</time>
      </trkpt>
      <trkpt lat="48.78519" lon="-1.5334">
        <ele>16.5</ele>
        <time>2024-01-25T15:39:06Z</time>
      </trkpt>
      <trkpt lat="48.78524" lon="-1.53341">
        <ele>16.7</ele>
        <time>2024-01-25T15:39:07Z</time>
      </trkpt>
      <trkpt lat="48.7853" lon="-1.53341">
        <ele>16.9</ele>
        <time>2024-01-25T15:39:08Z</time>
      </trkpt>
      <trkpt lat="48.78535" lon="-1.53341">
        <ele>17.1</ele>
        <time>2024-01-25T15:39:09Z</time>
      </trkpt>
      <trkpt lat="48.7854" lon="-1.53342">
        <ele>17.3</ele>
        <time>2024-01-25T15:39:10Z</time>
      </trkpt>
      <trkpt lat="48.78545" lon="-1.53343">
        <ele>17.5</ele>
        <time>2024-01-25T15:39:11Z</time>
      </trkpt>
      <trkpt lat="48.7855" lon="-1.53344">
        <ele>17.7</ele>
        <time>2024-01-25T15:39:12Z</time>
      </trkpt>
      <trkpt lat="48.78555" lon="-1.53345">
        <ele>17.9</ele>
        <time>2024-01-25T15:39:13Z</time>
      </trkpt>
      <trkpt lat="48.7856" lon="-1.53346">
        <ele>18.1</ele>
        <time>2024-01-25T15:39:14Z</time>
      </trkpt>
      <trkpt lat="48.78565" lon="-1.53347">
        <ele>18.3</ele>
        <time>2024-01-25T15:39:15Z</time>
      </trkpt>
      <trkpt lat="48.7857" lon="-1.53349">
        <ele>18.5</ele>
        <time>2024-01-25T15:39:16Z</time>
      </trkpt>
      <trkpt lat="48.78575" lon="-1.53352">
        <ele>18.7</ele>
        <time>2024-01-25T15:39:17Z</time>
      </trkpt>
      <trkpt lat="48.7858" lon="-1.53354">
        <ele>18.9</ele>
        <time>2024-01-25T15:39:18Z</time>
      </trkpt>
      <trkpt lat="48.78585" lon="-1.53357">
        <ele>19.1</ele>
        <time>2024-01-25T15:39:19Z</time>
      </trkpt>
      <trkpt lat="48.7859" lon="-1.53359">
        <ele>19.3</ele>
        <time>2024-01-25T15:39:20Z</time>
      </trkpt>
      <trkpt lat="48.78594" lon="-1.53362">
        <ele>19.4</ele>
        <time>2024-01-25T15:39:21Z</time>
      </trkpt>
      <trkpt lat="48.78599" lon="-1.53365">
        <ele>19.6</ele>
        <time>2024-01-25T15:39:22Z</time>
      </trkpt>
      <trkpt lat="48.78603" lon="-1.53368">
        <ele>19.7</ele>
        <time>2024-01-25T15:39:23Z</time>
      </trkpt>
      <trkpt lat="48.78608" lon="-1.53371">
        <ele>19.9</ele>
        <time>2024-01-25T15:39:24Z</time>
      </trkpt>
      <trkpt lat="48.78612" lon="-1.53373">
        <ele>20.1</ele>
        <time>2024-01-25T15:39:25Z</time>
      </trkpt>
      <trkpt lat="48.78617" lon="-1.53376">
        <ele>20.2</ele>
        <time>2024-01-25T15:39:26Z</time>
      </trkpt>
      <trkpt lat="48.78621" lon="-1.53379">
        <ele>20.4</ele>
        <time>2024-01-25T15:39:27Z</time>
      </trkpt>
      <trkpt lat="48.78625" lon="-1.53382">
        <ele>20.6</ele>
        <time>2024-01-25T15:39:28Z</time>
      </trkpt>
      <trkpt lat="48.78629" lon="-1.53386">
        <ele>20.8</ele>
        <time>2024-01-25T15:39:29Z</time>
      </trkpt>
      <trkpt lat="48.78633" lon="-1.53389">
        <ele>21</ele>
        <time>2024-01-25T15:39:30Z</time>
      </trkpt>
      <trkpt lat="48.78637" lon="-1.53392">
        <ele>21.2</ele>
        <time>2024-01-25T15:39:31Z</time>
      </trkpt>
      <trkpt lat="48.78641" lon="-1.53395">
        <ele>21.3</ele>
        <time>2024-01-25T15:39:32Z</time>
      </trkpt>
      <trkpt lat="48.78645" lon="-1.53398">
        <ele>21.5</ele>
        <time>2024-01-25T15:39:33Z</time>
      </trkpt>
      <trkpt lat="48.7865" lon="-1.53401">
        <ele>21.7</ele>
        <time>2024-01-25T15:39:34Z</time>
      </trkpt>
      <trkpt lat="48.78654" lon="-1.53404">
        <ele>21.8</ele>
        <time>2024-01-25T15:39:35Z</time>
      </trkpt>
      <trkpt lat="48.78658" lon="-1.53407">
        <ele>22</ele>
        <time>2024-01-25T15:39:36Z</time>
      </trkpt>
      <trkpt lat="48.78663" lon="-1.5341">
        <ele>22.2</ele>
        <time>2024-01-25T15:39:37Z</time>
      </trkpt>
      <trkpt lat="48.78667" lon="-1.53413">
        <ele>22.5</ele>
        <time>2024-01-25T15:39:38Z</time>
      </trkpt>
      <trkpt lat="48.78672" lon="-1.53415">
        <ele>22.7</ele>
        <time>2024-01-25T15:39:39Z</time>
      </trkpt>
      <trkpt lat="48.78676" lon="-1.53418">
        <ele>22.9</ele>
        <time>2024-01-25T15:39:40Z</time>
      </trkpt>
      <trkpt lat="48.78681" lon="-1.53421">
        <ele>23.2</ele>
        <time>2024-01-25T15:39:42Z</time>
      </trkpt>
      <trkpt lat="48.78686" lon="-1.53425">
        <ele>23.5</ele>
        <time>2024-01-25T15:39:43Z</time>
      </trkpt>
      <trkpt lat="48.78689" lon="-1.53427">
        <ele>23.7</ele>
        <time>2024-01-25T15:39:44Z</time>
      </trkpt>
      <trkpt lat="48.78694" lon="-1.53429">
        <ele>24</ele>
        <time>2024-01-25T15:39:45Z</time>
      </trkpt>
      <trkpt lat="48.78698" lon="-1.53432">
        <ele>24.2</ele>
        <time>2024-01-25T15:39:46Z</time>
      </trkpt>
      <trkpt lat="48.78703" lon="-1.53434">
        <ele>24.6</ele>
        <time>2024-01-25T15:39:47Z</time>
      </trkpt>
      <trkpt lat="48.78707" lon="-1.53437">
        <ele>24.9</ele>
        <time>2024-01-25T15:39:48Z</time>
      </trkpt>
      <trkpt lat="48.78711" lon="-1.53439">
        <ele>25.1</ele>
        <time>2024-01-25T15:39:49Z</time>
      </trkpt>
      <trkpt lat="48.78714" lon="-1.53441">
        <ele>25.3</ele>
        <time>2024-01-25T15:39:50Z</time>
      </trkpt>
      <trkpt lat="48.78719" lon="-1.53443">
        <ele>25.7</ele>
        <time>2024-01-25T15:39:51Z</time>
      </trkpt>
      <trkpt lat="48.78723" lon="-1.53445">
        <ele>25.9</ele>
        <time>2024-01-25T15:39:52Z</time>
      </trkpt>
      <trkpt lat="48.78727" lon="-1.53448">
        <ele>26.2</ele>
        <time>2024-01-25T15:39:53Z</time>
      </trkpt>
      <trkpt lat="48.78731" lon="-1.5345">
        <ele>26.4</ele>
        <time>2024-01-25T15:39:54Z</time>
      </trkpt>
      <trkpt lat="48.78734" lon="-1.53452">
        <ele>26.6</ele>
        <time>2024-01-25T15:39:55Z</time>
      </trkpt>
      <trkpt lat="48.78738" lon="-1.53454">
        <ele>26.9</ele>
        <time>2024-01-25T15:39:56Z</time>
      </trkpt>
      <trkpt lat="48.78742" lon="-1.53456">
        <ele>27.2</ele>
        <time>2024-01-25T15:39:57Z</time>
      </trkpt>
      <trkpt lat="48.78746" lon="-1.53459">
        <ele>27.4</ele>
        <time>2024-01-25T15:39:58Z</time>
      </trkpt>
      <trkpt lat="48.78751" lon="-1.53461">
        <ele>27.7</ele>
        <time>2024-01-25T15:39:59Z</time>
      </trkpt>
      <trkpt lat="48.78755" lon="-1.53464">
        <ele>28</ele>
        <time>2024-01-25T15:40:00Z</time>
      </trkpt>
      <trkpt lat="48.78758" lon="-1.53466">
        <ele>28.2</ele>
        <time>2024-01-25T15:40:01Z</time>
      </trkpt>
      <trkpt lat="48.78762" lon="-1.53468">
        <ele>28.4</ele>
        <time>2024-01-25T15:40:02Z</time>
      </trkpt>
      <trkpt lat="48.78765" lon="-1.5347">
        <ele>28.7</ele>
        <time>2024-01-25T15:40:03Z</time>
      </trkpt>
      <trkpt lat="48.78769" lon="-1.53472">
        <ele>28.9</ele>
        <time>2024-01-25T15:40:04Z</time>
      </trkpt>
      <trkpt lat="48.78773" lon="-1.53475">
        <ele>29.2</ele>
        <time>2024-01-25T15:40:05Z</time>
      </trkpt>
      <trkpt lat="48.78776" lon="-1.53477">
        <ele>29.4</ele>
        <time>2024-01-25T15:40:06Z</time>
      </trkpt>
      <trkpt lat="48.78779" lon="-1.53478">
        <ele>29.6</ele>
        <time>2024-01-25T15:40:07Z</time>
      </trkpt>
      <trkpt lat="48.78784" lon="-1.53481">
        <ele>29.8</ele>
        <time>2024-01-25T15:40:08Z</time>
      </trkpt>
      <trkpt lat="48.78787" lon="-1.53483">
        <ele>30</ele>
        <time>2024-01-25T15:40:09Z</time>
      </trkpt>
      <trkpt lat="48.7879" lon="-1.53486">
        <ele>30.3</ele>
        <time>2024-01-25T15:40:10Z</time>
      </trkpt>
      <trkpt lat="48.78795" lon="-1.53489">
        <ele>30.5</ele>
        <time>2024-01-25T15:40:11Z</time>
      </trkpt>
      <trkpt lat="48.78798" lon="-1.53491">
        <ele>30.7</ele>
        <time>2024-01-25T15:40:12Z</time>
      </trkpt>
      <trkpt lat="48.78802" lon="-1.53492">
        <ele>30.9</ele>
        <time>2024-01-25T15:40:13Z</time>
      </trkpt>
      <trkpt lat="48.78807" lon="-1.53495">
        <ele>31.1</ele>
        <time>2024-01-25T15:40:14Z</time>
      </trkpt>
      <trkpt lat="48.78811" lon="-1.53497">
        <ele>31.3</ele>
        <time>2024-01-25T15:40:15Z</time>
      </trkpt>
      <trkpt lat="48.78816" lon="-1.535">
        <ele>31.5</ele>
        <time>2024-01-25T15:40:16Z</time>
      </trkpt>
      <trkpt lat="48.78821" lon="-1.53501">
        <ele>31.7</ele>
        <time>2024-01-25T15:40:17Z</time>
      </trkpt>
      <trkpt lat="48.78826" lon="-1.53502">
        <ele>31.8</ele>
        <time>2024-01-25T15:40:18Z</time>
      </trkpt>
      <trkpt lat="48.78831" lon="-1.53504">
        <ele>32</ele>
        <time>2024-01-25T15:40:19Z</time>
      </trkpt>
      <trkpt lat="48.78836" lon="-1.53505">
        <ele>32.1</ele>
        <time>2024-01-25T15:40:20Z</time>
      </trkpt>
      <trkpt lat="48.78841" lon="-1.53506">
        <ele>32.1</ele>
        <time>2024-01-25T15:40:21Z</time>
      </trkpt>
      <trkpt lat="48.78846" lon="-1.53507">
        <ele>32.2</ele>
        <time>2024-01-25T15:40:22Z</time>
      </trkpt>
      <trkpt lat="48.78851" lon="-1.53508">
        <ele>32.2</ele>
        <time>2024-01-25T15:40:23Z</time>
      </trkpt>
      <trkpt lat="48.78856" lon="-1.53509">
        <ele>32.2</ele>
        <time>2024-01-25T15:40:24Z</time>
      </trkpt>
      <trkpt lat="48.78862" lon="-1.53511">
        <ele>32.2</ele>
        <time>2024-01-25T15:40:25Z</time>
      </trkpt>
      <trkpt lat="48.78867" lon="-1.53513">
        <ele>32.1</ele>
        <time>2024-01-25T15:40:26Z</time>
      </trkpt>
      <trkpt lat="48.78873" lon="-1.53514">
        <ele>32.1</ele>
        <time>2024-01-25T15:40:27Z</time>
      </trkpt>
      <trkpt lat="48.78879" lon="-1.53516">
        <ele>32.1</ele>
        <time>2024-01-25T15:40:28Z</time>
      </trkpt>
      <trkpt lat="48.78885" lon="-1.53518">
        <ele>32</ele>
        <time>2024-01-25T15:40:29Z</time>
      </trkpt>
      <trkpt lat="48.78891" lon="-1.5352">
        <ele>31.9</ele>
        <time>2024-01-25T15:40:30Z</time>
      </trkpt>
      <trkpt lat="48.78898" lon="-1.53522">
        <ele>31.8</ele>
        <time>2024-01-25T15:40:31Z</time>
      </trkpt>
      <trkpt lat="48.78905" lon="-1.53524">
        <ele>31.7</ele>
        <time>2024-01-25T15:40:32Z</time>
      </trkpt>
      <trkpt lat="48.78911" lon="-1.53526">
        <ele>31.6</ele>
        <time>2024-01-25T15:40:33Z</time>
      </trkpt>
      <trkpt lat="48.78918" lon="-1.53528">
        <ele>31.5</ele>
        <time>2024-01-25T15:40:34Z</time>
      </trkpt>
      <trkpt lat="48.78924" lon="-1.53531">
        <ele>31.4</ele>
        <time>2024-01-25T15:40:35Z</time>
      </trkpt>
      <trkpt lat="48.78931" lon="-1.53535">
        <ele>31.3</ele>
        <time>2024-01-25T15:40:36Z</time>
      </trkpt>
      <trkpt lat="48.78938" lon="-1.53538">
        <ele>31.2</ele>
        <time>2024-01-25T15:40:37Z</time>
      </trkpt>
      <trkpt lat="48.78944" lon="-1.53541">
        <ele>31.2</ele>
        <time>2024-01-25T15:40:38Z</time>
      </trkpt>
      <trkpt lat="48.78951" lon="-1.53543">
        <ele>31.1</ele>
        <time>2024-01-25T15:40:39Z</time>
      </trkpt>
      <trkpt lat="48.78957" lon="-1.53546">
        <ele>31</ele>
        <time>2024-01-25T15:40:40Z</time>
      </trkpt>
      <trkpt lat="48.78962" lon="-1.53549">
        <ele>30.9</ele>
        <time>2024-01-25T15:40:41Z</time>
      </trkpt>
      <trkpt lat="48.78968" lon="-1.53551">
        <ele>30.9</ele>
        <time>2024-01-25T15:40:42Z</time>
      </trkpt>
      <trkpt lat="48.78975" lon="-1.53554">
        <ele>30.8</ele>
        <time>2024-01-25T15:40:43Z</time>
      </trkpt>
      <trkpt lat="48.78982" lon="-1.53557">
        <ele>30.7</ele>
        <time>2024-01-25T15:40:44Z</time>
      </trkpt>
      <trkpt lat="48.78988" lon="-1.5356">
        <ele>30.6</ele>
        <time>2024-01-25T15:40:45Z</time>
      </trkpt>
      <trkpt lat="48.78995" lon="-1.53563">
        <ele>30.5</ele>
        <time>2024-01-25T15:40:46Z</time>
      </trkpt>
      <trkpt lat="48.79002" lon="-1.53566">
        <ele>30.4</ele>
        <time>2024-01-25T15:40:47Z</time>
      </trkpt>
      <trkpt lat="48.79008" lon="-1.5357">
        <ele>30.3</ele>
        <time>2024-01-25T15:40:48Z</time>
      </trkpt>
      <trkpt lat="48.79014" lon="-1.53573">
        <ele>30.2</ele>
        <time>2024-01-25T15:40:49Z</time>
      </trkpt>
      <trkpt lat="48.79021" lon="-1.53577">
        <ele>30.1</ele>
        <time>2024-01-25T15:40:50Z</time>
      </trkpt>
      <trkpt lat="48.79028" lon="-1.5358">
        <ele>30</ele>
        <time>2024-01-25T15:40:51Z</time>
      </trkpt>
      <trkpt lat="48.79034" lon="-1.53584">
        <ele>30</ele>
        <time>2024-01-25T15:40:52Z</time>
      </trkpt>
      <trkpt lat="48.79041" lon="-1.53588">
        <ele>29.9</ele>
        <time>2024-01-25T15:40:53Z</time>
      </trkpt>
      <trkpt lat="48.79048" lon="-1.53591">
        <ele>29.9</ele>
        <time>2024-01-25T15:40:54Z</time>
      </trkpt>
      <trkpt lat="48.79055" lon="-1.53594">
        <ele>29.8</ele>
        <time>2024-01-25T15:40:55Z</time>
      </trkpt>
      <trkpt lat="48.79062" lon="-1.53598">
        <ele>29.8</ele>
        <time>2024-01-25T15:40:56Z</time>
      </trkpt>
      <trkpt lat="48.79069" lon="-1.53602">
        <ele>29.7</ele>
        <time>2024-01-25T15:40:57Z</time>
      </trkpt>
      <trkpt lat="48.79076" lon="-1.53606">
        <ele>29.7</ele>
        <time>2024-01-25T15:40:58Z</time>
      </trkpt>
      <trkpt lat="48.79083" lon="-1.53609">
        <ele>29.7</ele>
        <time>2024-01-25T15:40:59Z</time>
      </trkpt>
      <trkpt lat="48.79089" lon="-1.53612">
        <ele>29.7</ele>
        <time>2024-01-25T15:41:00Z</time>
      </trkpt>
      <trkpt lat="48.79095" lon="-1.53615">
        <ele>29.8</ele>
        <time>2024-01-25T15:41:01Z</time>
      </trkpt>
      <trkpt lat="48.79101" lon="-1.53619">
        <ele>29.8</ele>
        <time>2024-01-25T15:41:02Z</time>
      </trkpt>
      <trkpt lat="48.79107" lon="-1.53622">
        <ele>29.9</ele>
        <time>2024-01-25T15:41:03Z</time>
      </trkpt>
      <trkpt lat="48.79113" lon="-1.53625">
        <ele>30</ele>
        <time>2024-01-25T15:41:04Z</time>
      </trkpt>
      <trkpt lat="48.79118" lon="-1.53628">
        <ele>30.1</ele>
        <time>2024-01-25T15:41:05Z</time>
      </trkpt>
      <trkpt lat="48.79124" lon="-1.5363">
        <ele>30.2</ele>
        <time>2024-01-25T15:41:06Z</time>
      </trkpt>
      <trkpt lat="48.79129" lon="-1.53634">
        <ele>30.3</ele>
        <time>2024-01-25T15:41:07Z</time>
      </trkpt>
      <trkpt lat="48.79134" lon="-1.53637">
        <ele>30.4</ele>
        <time>2024-01-25T15:41:08Z</time>
      </trkpt>
      <trkpt lat="48.7914" lon="-1.53641">
        <ele>30.6</ele>
        <time>2024-01-25T15:41:09Z</time>
      </trkpt>
      <trkpt lat="48.79145" lon="-1.53645">
        <ele>30.8</ele>
        <time>2024-01-25T15:41:10Z</time>
      </trkpt>
      <trkpt lat="48.79149" lon="-1.53649">
        <ele>30.9</ele>
        <time>2024-01-25T15:41:11Z</time>
      </trkpt>
      <trkpt lat="48.79154" lon="-1.53653">
        <ele>31.2</ele>
        <time>2024-01-25T15:41:12Z</time>
      </trkpt>
      <trkpt lat="48.79158" lon="-1.53656">
        <ele>31.4</ele>
        <time>2024-01-25T15:41:13Z</time>
      </trkpt>
      <trkpt lat="48.79162" lon="-1.5366">
        <ele>31.6</ele>
        <time>2024-01-25T15:41:14Z</time>
      </trkpt>
      <trkpt lat="48.79167" lon="-1.53663">
        <ele>31.9</ele>
        <time>2024-01-25T15:41:15Z</time>
      </trkpt>
      <trkpt lat="48.79171" lon="-1.53667">
        <ele>32.1</ele>
        <time>2024-01-25T15:41:16Z</time>
      </trkpt>
      <trkpt lat="48.79176" lon="-1.5367">
        <ele>32.4</ele>
        <time>2024-01-25T15:41:17Z</time>
      </trkpt>
      <trkpt lat="48.7918" lon="-1.53673">
        <ele>32.7</ele>
        <time>2024-01-25T15:41:18Z</time>
      </trkpt>
      <trkpt lat="48.79183" lon="-1.53677">
        <ele>33</ele>
        <time>2024-01-25T15:41:19Z</time>
      </trkpt>
      <trkpt lat="48.79186" lon="-1.5368">
        <ele>33.2</ele>
        <time>2024-01-25T15:41:20Z</time>
      </trkpt>
      <trkpt lat="48.7919" lon="-1.53684">
        <ele>33.5</ele>
        <time>2024-01-25T15:41:21Z</time>
      </trkpt>
      <trkpt lat="48.79193" lon="-1.53687">
        <ele>33.7</ele>
        <time>2024-01-25T15:41:22Z</time>
      </trkpt>
      <trkpt lat="48.79196" lon="-1.5369">
        <ele>34</ele>
        <time>2024-01-25T15:41:23Z</time>
      </trkpt>
      <trkpt lat="48.792" lon="-1.53694">
        <ele>34.3</ele>
        <time>2024-01-25T15:41:24Z</time>
      </trkpt>
      <trkpt lat="48.79204" lon="-1.53698">
        <ele>34.5</ele>
        <time>2024-01-25T15:41:25Z</time>
      </trkpt>
      <trkpt lat="48.79207" lon="-1.537">
        <ele>34.8</ele>
        <time>2024-01-25T15:41:27Z</time>
      </trkpt>
      <trkpt lat="48.79211" lon="-1.53704">
        <ele>35.1</ele>
        <time>2024-01-25T15:41:28Z</time>
      </trkpt>
      <trkpt lat="48.79215" lon="-1.53707">
        <ele>35.4</ele>
        <time>2024-01-25T15:41:29Z</time>
      </trkpt>
      <trkpt lat="48.79219" lon="-1.53712">
        <ele>35.8</ele>
        <time>2024-01-25T15:41:30Z</time>
      </trkpt>
      <trkpt lat="48.79223" lon="-1.53718">
        <ele>36.2</ele>
        <time>2024-01-25T15:41:31Z</time>
      </trkpt>
      <trkpt lat="48.79226" lon="-1.53721">
        <ele>36.4</ele>
        <time>2024-01-25T15:41:32Z</time>
      </trkpt>
      <trkpt lat="48.79229" lon="-1.53724">
        <ele>36.7</ele>
        <time>2024-01-25T15:41:33Z</time>
      </trkpt>
      <trkpt lat="48.79232" lon="-1.53727">
        <ele>36.9</ele>
        <time>2024-01-25T15:41:34Z</time>
      </trkpt>
      <trkpt lat="48.79235" lon="-1.53731">
        <ele>37.2</ele>
        <time>2024-01-25T15:41:35Z</time>
      </trkpt>
      <trkpt lat="48.79238" lon="-1.53734">
        <ele>37.4</ele>
        <time>2024-01-25T15:41:36Z</time>
      </trkpt>
      <trkpt lat="48.7924" lon="-1.53739">
        <ele>37.7</ele>
        <time>2024-01-25T15:41:37Z</time>
      </trkpt>
      <trkpt lat="48.79243" lon="-1.53741">
        <ele>37.9</ele>
        <time>2024-01-25T15:41:38Z</time>
      </trkpt>
      <trkpt lat="48.79246" lon="-1.53745">
        <ele>38.1</ele>
        <time>2024-01-25T15:41:39Z</time>
      </trkpt>
      <trkpt lat="48.79248" lon="-1.53749">
        <ele>38.3</ele>
        <time>2024-01-25T15:41:40Z</time>
      </trkpt>
      <trkpt lat="48.79251" lon="-1.53753">
        <ele>38.6</ele>
        <time>2024-01-25T15:41:41Z</time>
      </trkpt>
      <trkpt lat="48.79254" lon="-1.53756">
        <ele>38.8</ele>
        <time>2024-01-25T15:41:42Z</time>
      </trkpt>
      <trkpt lat="48.79257" lon="-1.53759">
        <ele>39</ele>
        <time>2024-01-25T15:41:43Z</time>
      </trkpt>
      <trkpt lat="48.7926" lon="-1.53763">
        <ele>39.1</ele>
        <time>2024-01-25T15:41:44Z</time>
      </trkpt>
      <trkpt lat="48.79263" lon="-1.53767">
        <ele>39.2</ele>
        <time>2024-01-25T15:41:45Z</time>
      </trkpt>
      <trkpt lat="48.79266" lon="-1.53769">
        <ele>39.3</ele>
        <time>2024-01-25T15:41:46Z</time>
      </trkpt>
      <trkpt lat="48.79268" lon="-1.53774">
        <ele>39.4</ele>
        <time>2024-01-25T15:41:47Z</time>
      </trkpt>
      <trkpt lat="48.79271" lon="-1.53776">
        <ele>39.5</ele>
        <time>2024-01-25T15:41:48Z</time>
      </trkpt>
      <trkpt lat="48.79275" lon="-1.53781">
        <ele>39.6</ele>
        <time>2024-01-25T15:41:49Z</time>
      </trkpt>
      <trkpt lat="48.79279" lon="-1.53785">
        <ele>39.7</ele>
        <time>2024-01-25T15:41:50Z</time>
      </trkpt>
      <trkpt lat="48.79283" lon="-1.5379">
        <ele>39.7</ele>
        <time>2024-01-25T15:41:51Z</time>
      </trkpt>
      <trkpt lat="48.79287" lon="-1.53796">
        <ele>39.7</ele>
        <time>2024-01-25T15:41:52Z</time>
      </trkpt>
      <trkpt lat="48.79292" lon="-1.53801">
        <ele>39.7</ele>
        <time>2024-01-25T15:41:53Z</time>
      </trkpt>
      <trkpt lat="48.79297" lon="-1.53806">
        <ele>39.7</ele>
        <time>2024-01-25T15:41:54Z</time>
      </trkpt>
      <trkpt lat="48.79301" lon="-1.53811">
        <ele>39.6</ele>
        <time>2024-01-25T15:41:55Z</time>
      </trkpt>
      <trkpt lat="48.79306" lon="-1.53816">
        <ele>39.6</ele>
        <time>2024-01-25T15:41:56Z</time>
      </trkpt>
      <trkpt lat="48.79311" lon="-1.5382">
        <ele>39.6</ele>
        <time>2024-01-25T15:41:57Z</time>
      </trkpt>
      <trkpt lat="48.79316" lon="-1.53825">
        <ele>39.5</ele>
        <time>2024-01-25T15:41:58Z</time>
      </trkpt>
      <trkpt lat="48.7932" lon="-1.53829">
        <ele>39.5</ele>
        <time>2024-01-25T15:41:59Z</time>
      </trkpt>
      <trkpt lat="48.79326" lon="-1.53834">
        <ele>39.5</ele>
        <time>2024-01-25T15:42:00Z</time>
      </trkpt>
      <trkpt lat="48.7933" lon="-1.53838">
        <ele>39.5</ele>
        <time>2024-01-25T15:42:01Z</time>
      </trkpt>
      <trkpt lat="48.79335" lon="-1.53842">
        <ele>39.4</ele>
        <time>2024-01-25T15:42:02Z</time>
      </trkpt>
      <trkpt lat="48.79341" lon="-1.53847">
        <ele>39.4</ele>
        <time>2024-01-25T15:42:03Z</time>
      </trkpt>
      <trkpt lat="48.79347" lon="-1.53852">
        <ele>39.3</ele>
        <time>2024-01-25T15:42:04Z</time>
      </trkpt>
      <trkpt lat="48.79353" lon="-1.53857">
        <ele>39.3</ele>
        <time>2024-01-25T15:42:05Z</time>
      </trkpt>
      <trkpt lat="48.79358" lon="-1.53863">
        <ele>39.2</ele>
        <time>2024-01-25T15:42:06Z</time>
      </trkpt>
      <trkpt lat="48.79364" lon="-1.53868">
        <ele>39.2</ele>
        <time>2024-01-25T15:42:07Z</time>
      </trkpt>
      <trkpt lat="48.79369" lon="-1.53873">
        <ele>39.2</ele>
        <time>2024-01-25T15:42:08Z</time>
      </trkpt>
      <trkpt lat="48.79374" lon="-1.53878">
        <ele>39.2</ele>
        <time>2024-01-25T15:42:09Z</time>
      </trkpt>
      <trkpt lat="48.79379" lon="-1.53883">
        <ele>39.2</ele>
        <time>2024-01-25T15:42:10Z</time>
      </trkpt>
      <trkpt lat="48.79384" lon="-1.53889">
        <ele>39.2</ele>
        <time>2024-01-25T15:42:11Z</time>
      </trkpt>
      <trkpt lat="48.79389" lon="-1.53893">
        <ele>39.2</ele>
        <time>2024-01-25T15:42:12Z</time>
      </trkpt>
      <trkpt lat="48.79394" lon="-1.53898">
        <ele>39.2</ele>
        <time>2024-01-25T15:42:13Z</time>
      </trkpt>
      <trkpt lat="48.79399" lon="-1.53903">
        <ele>39.2</ele>
        <time>2024-01-25T15:42:14Z</time>
      </trkpt>
      <trkpt lat="48.79405" lon="-1.53907">
        <ele>39.2</ele>
        <time>2024-01-25T15:42:15Z</time>
      </trkpt>
      <trkpt lat="48.79411" lon="-1.53911">
        <ele>39.2</ele>
        <time>2024-01-25T15:42:16Z</time>
      </trkpt>
      <trkpt lat="48.79417" lon="-1.53915">
        <ele>39.3</ele>
        <time>2024-01-25T15:42:17Z</time>
      </trkpt>
      <trkpt lat="48.79423" lon="-1.53919">
        <ele>39.3</ele>
        <time>2024-01-25T15:42:18Z</time>
      </trkpt>
      <trkpt lat="48.79429" lon="-1.53922">
        <ele>39.3</ele>
        <time>2024-01-25T15:42:19Z</time>
      </trkpt>
      <trkpt lat="48.79436" lon="-1.53925">
        <ele>39.4</ele>
        <time>2024-01-25T15:42:20Z</time>
      </trkpt>
      <trkpt lat="48.79443" lon="-1.53926">
        <ele>39.4</ele>
        <time>2024-01-25T15:42:21Z</time>
      </trkpt>
      <trkpt lat="48.7945" lon="-1.53927">
        <ele>39.5</ele>
        <time>2024-01-25T15:42:22Z</time>
      </trkpt>
      <trkpt lat="48.79457" lon="-1.53928">
        <ele>39.5</ele>
        <time>2024-01-25T15:42:23Z</time>
      </trkpt>
      <trkpt lat="48.79465" lon="-1.53927">
        <ele>39.6</ele>
        <time>2024-01-25T15:42:24Z</time>
      </trkpt>
      <trkpt lat="48.79472" lon="-1.53926">
        <ele>39.6</ele>
        <time>2024-01-25T15:42:25Z</time>
      </trkpt>
      <trkpt lat="48.79479" lon="-1.53924">
        <ele>39.6</ele>
        <time>2024-01-25T15:42:26Z</time>
      </trkpt>
      <trkpt lat="48.79486" lon="-1.53923">
        <ele>39.7</ele>
        <time>2024-01-25T15:42:27Z</time>
      </trkpt>
      <trkpt lat="48.79493" lon="-1.53922">
        <ele>39.7</ele>
        <time>2024-01-25T15:42:28Z</time>
      </trkpt>
      <trkpt lat="48.795" lon="-1.53923">
        <ele>39.8</ele>
        <time>2024-01-25T15:42:29Z</time>
      </trkpt>
      <trkpt lat="48.79506" lon="-1.53924">
        <ele>39.9</ele>
        <time>2024-01-25T15:42:30Z</time>
      </trkpt>
      <trkpt lat="48.79513" lon="-1.53924">
        <ele>40</ele>
        <time>2024-01-25T15:42:31Z</time>
      </trkpt>
      <trkpt lat="48.79519" lon="-1.53924">
        <ele>40</ele>
        <time>2024-01-25T15:42:32Z</time>
      </trkpt>
      <trkpt lat="48.79525" lon="-1.53925">
        <ele>40.1</ele>
        <time>2024-01-25T15:42:33Z</time>
      </trkpt>
      <trkpt lat="48.79532" lon="-1.53925">
        <ele>40.2</ele>
        <time>2024-01-25T15:42:34Z</time>
      </trkpt>
      <trkpt lat="48.79538" lon="-1.53926">
        <ele>40.3</ele>
        <time>2024-01-25T15:42:35Z</time>
      </trkpt>
      <trkpt lat="48.79544" lon="-1.53926">
        <ele>40.4</ele>
        <time>2024-01-25T15:42:36Z</time>
      </trkpt>
      <trkpt lat="48.79551" lon="-1.53926">
        <ele>40.5</ele>
        <time>2024-01-25T15:42:37Z</time>
      </trkpt>
      <trkpt lat="48.79558" lon="-1.53926">
        <ele>40.6</ele>
        <time>2024-01-25T15:42:38Z</time>
      </trkpt>
      <trkpt lat="48.79564" lon="-1.53927">
        <ele>40.6</ele>
        <time>2024-01-25T15:42:39Z</time>
      </trkpt>
      <trkpt lat="48.79571" lon="-1.53927">
        <ele>40.7</ele>
        <time>2024-01-25T15:42:40Z</time>
      </trkpt>
      <trkpt lat="48.79577" lon="-1.53928">
        <ele>40.7</ele>
        <time>2024-01-25T15:42:41Z</time>
      </trkpt>
      <trkpt lat="48.79583" lon="-1.53928">
        <ele>40.7</ele>
        <time>2024-01-25T15:42:42Z</time>
      </trkpt>
      <trkpt lat="48.79589" lon="-1.53929">
        <ele>40.7</ele>
        <time>2024-01-25T15:42:43Z</time>
      </trkpt>
      <trkpt lat="48.79595" lon="-1.5393">
        <ele>40.7</ele>
        <time>2024-01-25T15:42:44Z</time>
      </trkpt>
      <trkpt lat="48.79602" lon="-1.53932">
        <ele>40.6</ele>
        <time>2024-01-25T15:42:45Z</time>
      </trkpt>
      <trkpt lat="48.79608" lon="-1.53934">
        <ele>40.6</ele>
        <time>2024-01-25T15:42:46Z</time>
      </trkpt>
      <trkpt lat="48.79615" lon="-1.53936">
        <ele>40.5</ele>
        <time>2024-01-25T15:42:47Z</time>
      </trkpt>
      <trkpt lat="48.79622" lon="-1.53937">
        <ele>40.5</ele>
        <time>2024-01-25T15:42:48Z</time>
      </trkpt>
      <trkpt lat="48.79629" lon="-1.53938">
        <ele>40.4</ele>
        <time>2024-01-25T15:42:49Z</time>
      </trkpt>
      <trkpt lat="48.79636" lon="-1.53938">
        <ele>40.4</ele>
        <time>2024-01-25T15:42:50Z</time>
      </trkpt>
      <trkpt lat="48.79644" lon="-1.53939">
        <ele>40.4</ele>
        <time>2024-01-25T15:42:51Z</time>
      </trkpt>
      <trkpt lat="48.79651" lon="-1.53939">
        <ele>40.4</ele>
        <time>2024-01-25T15:42:52Z</time>
      </trkpt>
      <trkpt lat="48.79657" lon="-1.53939">
        <ele>40.4</ele>
        <time>2024-01-25T15:42:53Z</time>
      </trkpt>
      <trkpt lat="48.79664" lon="-1.5394">
        <ele>40.5</ele>
        <time>2024-01-25T15:42:54Z</time>
      </trkpt>
      <trkpt lat="48.79671" lon="-1.53941">
        <ele>40.5</ele>
        <time>2024-01-25T15:42:55Z</time>
      </trkpt>
      <trkpt lat="48.79677" lon="-1.53942">
        <ele>40.5</ele>
        <time>2024-01-25T15:42:56Z</time>
      </trkpt>
      <trkpt lat="48.79682" lon="-1.53945">
        <ele>40.6</ele>
        <time>2024-01-25T15:42:57Z</time>
      </trkpt>
      <trkpt lat="48.79688" lon="-1.53948">
        <ele>40.6</ele>
        <time>2024-01-25T15:42:58Z</time>
      </trkpt>
      <trkpt lat="48.79694" lon="-1.53951">
        <ele>40.6</ele>
        <time>2024-01-25T15:42:59Z</time>
      </trkpt>
      <trkpt lat="48.797" lon="-1.53953">
        <ele>40.7</ele>
        <time>2024-01-25T15:43:00Z</time>
      </trkpt>
      <trkpt lat="48.79706" lon="-1.53955">
        <ele>40.7</ele>
        <time>2024-01-25T15:43:01Z</time>
      </trkpt>
      <trkpt lat="48.79712" lon="-1.53958">
        <ele>40.7</ele>
        <time>2024-01-25T15:43:02Z</time>
      </trkpt>
      <trkpt lat="48.79717" lon="-1.5396">
        <ele>40.8</ele>
        <time>2024-01-25T15:43:03Z</time>
      </trkpt>
      <trkpt lat="48.79724" lon="-1.53963">
        <ele>40.8</ele>
        <time>2024-01-25T15:43:04Z</time>
      </trkpt>
      <trkpt lat="48.7973" lon="-1.53965">
        <ele>40.8</ele>
        <time>2024-01-25T15:43:05Z</time>
      </trkpt>
      <trkpt lat="48.79737" lon="-1.53967">
        <ele>40.9</ele>
        <time>2024-01-25T15:43:06Z</time>
      </trkpt>
      <trkpt lat="48.79744" lon="-1.53969">
        <ele>40.9</ele>
        <time>2024-01-25T15:43:07Z</time>
      </trkpt>
      <trkpt lat="48.79752" lon="-1.5397">
        <ele>41</ele>
        <time>2024-01-25T15:43:08Z</time>
      </trkpt>
      <trkpt lat="48.79759" lon="-1.53972">
        <ele>41</ele>
        <time>2024-01-25T15:43:09Z</time>
      </trkpt>
      <trkpt lat="48.79766" lon="-1.53975">
        <ele>41</ele>
        <time>2024-01-25T15:43:10Z</time>
      </trkpt>
      <trkpt lat="48.79773" lon="-1.53978">
        <ele>41</ele>
        <time>2024-01-25T15:43:11Z</time>
      </trkpt>
      <trkpt lat="48.79779" lon="-1.53982">
        <ele>40.9</ele>
        <time>2024-01-25T15:43:12Z</time>
      </trkpt>
      <trkpt lat="48.79786" lon="-1.53986">
        <ele>40.9</ele>
        <time>2024-01-25T15:43:13Z</time>
      </trkpt>
      <trkpt lat="48.79792" lon="-1.53989">
        <ele>40.9</ele>
        <time>2024-01-25T15:43:14Z</time>
      </trkpt>
      <trkpt lat="48.79798" lon="-1.53993">
        <ele>40.8</ele>
        <time>2024-01-25T15:43:15Z</time>
      </trkpt>
      <trkpt lat="48.79805" lon="-1.53996">
        <ele>40.8</ele>
        <time>2024-01-25T15:43:16Z</time>
      </trkpt>
      <trkpt lat="48.79812" lon="-1.54">
        <ele>40.8</ele>
        <time>2024-01-25T15:43:17Z</time>
      </trkpt>
      <trkpt lat="48.79818" lon="-1.54003">
        <ele>40.7</ele>
        <time>2024-01-25T15:43:18Z</time>
      </trkpt>
      <trkpt lat="48.79825" lon="-1.54006">
        <ele>40.7</ele>
        <time>2024-01-25T15:43:19Z</time>
      </trkpt>
      <trkpt lat="48.79832" lon="-1.54008">
        <ele>40.6</ele>
        <time>2024-01-25T15:43:20Z</time>
      </trkpt>
      <trkpt lat="48.7984" lon="-1.5401">
        <ele>40.6</ele>
        <time>2024-01-25T15:43:21Z</time>
      </trkpt>
      <trkpt lat="48.79847" lon="-1.54013">
        <ele>40.5</ele>
        <time>2024-01-25T15:43:22Z</time>
      </trkpt>
      <trkpt lat="48.79854" lon="-1.54014">
        <ele>40.5</ele>
        <time>2024-01-25T15:43:23Z</time>
      </trkpt>
      <trkpt lat="48.79861" lon="-1.54016">
        <ele>40.4</ele>
        <time>2024-01-25T15:43:24Z</time>
      </trkpt>
      <trkpt lat="48.79869" lon="-1.54017">
        <ele>40.3</ele>
        <time>2024-01-25T15:43:25Z</time>
      </trkpt>
      <trkpt lat="48.79876" lon="-1.54018">
        <ele>40.1</ele>
        <time>2024-01-25T15:43:26Z</time>
      </trkpt>
      <trkpt lat="48.79883" lon="-1.54019">
        <ele>40</ele>
        <time>2024-01-25T15:43:27Z</time>
      </trkpt>
      <trkpt lat="48.79891" lon="-1.5402">
        <ele>39.9</ele>
        <time>2024-01-25T15:43:28Z</time>
      </trkpt>
      <trkpt lat="48.79899" lon="-1.5402">
        <ele>39.7</ele>
        <time>2024-01-25T15:43:29Z</time>
      </trkpt>
      <trkpt lat="48.79907" lon="-1.54021">
        <ele>39.6</ele>
        <time>2024-01-25T15:43:30Z</time>
      </trkpt>
      <trkpt lat="48.79915" lon="-1.54022">
        <ele>39.5</ele>
        <time>2024-01-25T15:43:31Z</time>
      </trkpt>
      <trkpt lat="48.79923" lon="-1.54023">
        <ele>39.4</ele>
        <time>2024-01-25T15:43:32Z</time>
      </trkpt>
      <trkpt lat="48.79931" lon="-1.54024">
        <ele>39.3</ele>
        <time>2024-01-25T15:43:33Z</time>
      </trkpt>
      <trkpt lat="48.79938" lon="-1.54025">
        <ele>39.2</ele>
        <time>2024-01-25T15:43:34Z</time>
      </trkpt>
      <trkpt lat="48.79946" lon="-1.54027">
        <ele>39.2</ele>
        <time>2024-01-25T15:43:35Z</time>
      </trkpt>
      <trkpt lat="48.79953" lon="-1.5403">
        <ele>39.2</ele>
        <time>2024-01-25T15:43:36Z</time>
      </trkpt>
      <trkpt lat="48.79961" lon="-1.54033">
        <ele>39.1</ele>
        <time>2024-01-25T15:43:37Z</time>
      </trkpt>
      <trkpt lat="48.79968" lon="-1.54037">
        <ele>39.1</ele>
        <time>2024-01-25T15:43:38Z</time>
      </trkpt>
      <trkpt lat="48.79974" lon="-1.54043">
        <ele>39.1</ele>
        <time>2024-01-25T15:43:39Z</time>
      </trkpt>
      <trkpt lat="48.79981" lon="-1.5405">
        <ele>39.1</ele>
        <time>2024-01-25T15:43:40Z</time>
      </trkpt>
      <trkpt lat="48.79986" lon="-1.54058">
        <ele>39.2</ele>
        <time>2024-01-25T15:43:41Z</time>
      </trkpt>
      <trkpt lat="48.79991" lon="-1.54067">
        <ele>39.2</ele>
        <time>2024-01-25T15:43:42Z</time>
      </trkpt>
      <trkpt lat="48.79995" lon="-1.54076">
        <ele>39.2</ele>
        <time>2024-01-25T15:43:43Z</time>
      </trkpt>
      <trkpt lat="48.79999" lon="-1.54085">
        <ele>39.2</ele>
        <time>2024-01-25T15:43:44Z</time>
      </trkpt>
      <trkpt lat="48.80003" lon="-1.54094">
        <ele>39.2</ele>
        <time>2024-01-25T15:43:45Z</time>
      </trkpt>
      <trkpt lat="48.80006" lon="-1.54103">
        <ele>39.2</ele>
        <time>2024-01-25T15:43:46Z</time>
      </trkpt>
      <trkpt lat="48.80009" lon="-1.54112">
        <ele>39.3</ele>
        <time>2024-01-25T15:43:47Z</time>
      </trkpt>
      <trkpt lat="48.80012" lon="-1.54121">
        <ele>39.3</ele>
        <time>2024-01-25T15:43:48Z</time>
      </trkpt>
      <trkpt lat="48.80015" lon="-1.5413">
        <ele>39.3</ele>
        <time>2024-01-25T15:43:49Z</time>
      </trkpt>
      <trkpt lat="48.80018" lon="-1.54139">
        <ele>39.3</ele>
        <time>2024-01-25T15:43:50Z</time>
      </trkpt>
      <trkpt lat="48.80022" lon="-1.54148">
        <ele>39.4</ele>
        <time>2024-01-25T15:43:51Z</time>
      </trkpt>
      <trkpt lat="48.80025" lon="-1.54157">
        <ele>39.4</ele>
        <time>2024-01-25T15:43:52Z</time>
      </trkpt>
      <trkpt lat="48.80029" lon="-1.54165">
        <ele>39.4</ele>
        <time>2024-01-25T15:43:53Z</time>
      </trkpt>
      <trkpt lat="48.80032" lon="-1.54174">
        <ele>39.5</ele>
        <time>2024-01-25T15:43:54Z</time>
      </trkpt>
      <trkpt lat="48.80036" lon="-1.54182">
        <ele>39.6</ele>
        <time>2024-01-25T15:43:55Z</time>
      </trkpt>
      <trkpt lat="48.8004" lon="-1.5419">
        <ele>39.6</ele>
        <time>2024-01-25T15:43:56Z</time>
      </trkpt>
      <trkpt lat="48.80044" lon="-1.54198">
        <ele>39.7</ele>
        <time>2024-01-25T15:43:57Z</time>
      </trkpt>
      <trkpt lat="48.80048" lon="-1.54206">
        <ele>39.8</ele>
        <time>2024-01-25T15:43:58Z</time>
      </trkpt>
      <trkpt lat="48.80052" lon="-1.54214">
        <ele>39.9</ele>
        <time>2024-01-25T15:43:59Z</time>
      </trkpt>
      <trkpt lat="48.80056" lon="-1.54221">
        <ele>39.9</ele>
        <time>2024-01-25T15:44:00Z</time>
      </trkpt>
      <trkpt lat="48.8006" lon="-1.54228">
        <ele>40</ele>
        <time>2024-01-25T15:44:01Z</time>
      </trkpt>
      <trkpt lat="48.80064" lon="-1.54235">
        <ele>40.1</ele>
        <time>2024-01-25T15:44:02Z</time>
      </trkpt>
      <trkpt lat="48.80068" lon="-1.54242">
        <ele>40.2</ele>
        <time>2024-01-25T15:44:03Z</time>
      </trkpt>
      <trkpt lat="48.80071" lon="-1.54249">
        <ele>40.2</ele>
        <time>2024-01-25T15:44:04Z</time>
      </trkpt>
      <trkpt lat="48.80075" lon="-1.54256">
        <ele>40.3</ele>
        <time>2024-01-25T15:44:05Z</time>
      </trkpt>
      <trkpt lat="48.80079" lon="-1.54263">
        <ele>40.4</ele>
        <time>2024-01-25T15:44:06Z</time>
      </trkpt>
      <trkpt lat="48.80083" lon="-1.5427">
        <ele>40.4</ele>
        <time>2024-01-25T15:44:07Z</time>
      </trkpt>
      <trkpt lat="48.80088" lon="-1.54276">
        <ele>40.6</ele>
        <time>2024-01-25T15:44:08Z</time>
      </trkpt>
      <trkpt lat="48.80092" lon="-1.54283">
        <ele>40.7</ele>
        <time>2024-01-25T15:44:09Z</time>
      </trkpt>
      <trkpt lat="48.80095" lon="-1.54289">
        <ele>40.8</ele>
        <time>2024-01-25T15:44:10Z</time>
      </trkpt>
      <trkpt lat="48.80099" lon="-1.54296">
        <ele>40.9</ele>
        <time>2024-01-25T15:44:11Z</time>
      </trkpt>
      <trkpt lat="48.80102" lon="-1.54303">
        <ele>41</ele>
        <time>2024-01-25T15:44:12Z</time>
      </trkpt>
      <trkpt lat="48.80105" lon="-1.5431">
        <ele>41.1</ele>
        <time>2024-01-25T15:44:13Z</time>
      </trkpt>
      <trkpt lat="48.80108" lon="-1.54317">
        <ele>41.2</ele>
        <time>2024-01-25T15:44:14Z</time>
      </trkpt>
      <trkpt lat="48.80112" lon="-1.54324">
        <ele>41.3</ele>
        <time>2024-01-25T15:44:15Z</time>
      </trkpt>
      <trkpt lat="48.80115" lon="-1.54331">
        <ele>41.5</ele>
        <time>2024-01-25T15:44:16Z</time>
      </trkpt>
      <trkpt lat="48.80119" lon="-1.54338">
        <ele>41.6</ele>
        <time>2024-01-25T15:44:17Z</time>
      </trkpt>
      <trkpt lat="48.80123" lon="-1.54345">
        <ele>41.8</ele>
        <time>2024-01-25T15:44:18Z</time>
      </trkpt>
      <trkpt lat="48.80126" lon="-1.54352">
        <ele>42</ele>
        <time>2024-01-25T15:44:19Z</time>
      </trkpt>
      <trkpt lat="48.8013" lon="-1.54359">
        <ele>42.2</ele>
        <time>2024-01-25T15:44:20Z</time>
      </trkpt>
      <trkpt lat="48.80133" lon="-1.54367">
        <ele>42.4</ele>
        <time>2024-01-25T15:44:21Z</time>
      </trkpt>
      <trkpt lat="48.80137" lon="-1.54374">
        <ele>42.7</ele>
        <time>2024-01-25T15:44:22Z</time>
      </trkpt>
      <trkpt lat="48.80141" lon="-1.54381">
        <ele>42.9</ele>
        <time>2024-01-25T15:44:23Z</time>
      </trkpt>
      <trkpt lat="48.80145" lon="-1.54388">
        <ele>43.1</ele>
        <time>2024-01-25T15:44:24Z</time>
      </trkpt>
      <trkpt lat="48.80148" lon="-1.54395">
        <ele>43.4</ele>
        <time>2024-01-25T15:44:25Z</time>
      </trkpt>
      <trkpt lat="48.80151" lon="-1.54401">
        <ele>43.6</ele>
        <time>2024-01-25T15:44:26Z</time>
      </trkpt>
      <trkpt lat="48.80154" lon="-1.54407">
        <ele>43.9</ele>
        <time>2024-01-25T15:44:27Z</time>
      </trkpt>
      <trkpt lat="48.80157" lon="-1.54413">
        <ele>44.1</ele>
        <time>2024-01-25T15:44:28Z</time>
      </trkpt>
      <trkpt lat="48.80161" lon="-1.54419">
        <ele>44.4</ele>
        <time>2024-01-25T15:44:29Z</time>
      </trkpt>
      <trkpt lat="48.80164" lon="-1.54424">
        <ele>44.7</ele>
        <time>2024-01-25T15:44:30Z</time>
      </trkpt>
      <trkpt lat="48.80167" lon="-1.5443">
        <ele>44.9</ele>
        <time>2024-01-25T15:44:31Z</time>
      </trkpt>
      <trkpt lat="48.8017" lon="-1.54435">
        <ele>45.2</ele>
        <time>2024-01-25T15:44:32Z</time>
      </trkpt>
      <trkpt lat="48.80174" lon="-1.54441">
        <ele>45.5</ele>
        <time>2024-01-25T15:44:33Z</time>
      </trkpt>
      <trkpt lat="48.80177" lon="-1.54446">
        <ele>45.8</ele>
        <time>2024-01-25T15:44:34Z</time>
      </trkpt>
      <trkpt lat="48.80181" lon="-1.54452">
        <ele>46.1</ele>
        <time>2024-01-25T15:44:35Z</time>
      </trkpt>
      <trkpt lat="48.80185" lon="-1.54457">
        <ele>46.4</ele>
        <time>2024-01-25T15:44:36Z</time>
      </trkpt>
      <trkpt lat="48.80188" lon="-1.54462">
        <ele>46.7</ele>
        <time>2024-01-25T15:44:37Z</time>
      </trkpt>
      <trkpt lat="48.80191" lon="-1.54467">
        <ele>46.9</ele>
        <time>2024-01-25T15:44:38Z</time>
      </trkpt>
      <trkpt lat="48.80195" lon="-1.54472">
        <ele>47.2</ele>
        <time>2024-01-25T15:44:39Z</time>
      </trkpt>
      <trkpt lat="48.80198" lon="-1.54477">
        <ele>47.5</ele>
        <time>2024-01-25T15:44:40Z</time>
      </trkpt>
      <trkpt lat="48.80202" lon="-1.54482">
        <ele>47.8</ele>
        <time>2024-01-25T15:44:41Z</time>
      </trkpt>
      <trkpt lat="48.80205" lon="-1.54487">
        <ele>48</ele>
        <time>2024-01-25T15:44:42Z</time>
      </trkpt>
      <trkpt lat="48.80208" lon="-1.54492">
        <ele>48.3</ele>
        <time>2024-01-25T15:44:43Z</time>
      </trkpt>
      <trkpt lat="48.80212" lon="-1.54499">
        <ele>48.6</ele>
        <time>2024-01-25T15:44:45Z</time>
      </trkpt>
      <trkpt lat="48.80214" lon="-1.54502">
        <ele>48.7</ele>
        <time>2024-01-25T15:44:46Z</time>
      </trkpt>
      <trkpt lat="48.80218" lon="-1.54507">
        <ele>49</ele>
        <time>2024-01-25T15:44:47Z</time>
      </trkpt>
      <trkpt lat="48.80221" lon="-1.54512">
        <ele>49.3</ele>
        <time>2024-01-25T15:44:48Z</time>
      </trkpt>
      <trkpt lat="48.80225" lon="-1.54518">
        <ele>49.6</ele>
        <time>2024-01-25T15:44:49Z</time>
      </trkpt>
      <trkpt lat="48.80228" lon="-1.54524">
        <ele>49.8</ele>
        <time>2024-01-25T15:44:50Z</time>
      </trkpt>
      <trkpt lat="48.8023" lon="-1.54527">
        <ele>50</ele>
        <time>2024-01-25T15:44:51Z</time>
      </trkpt>
      <trkpt lat="48.80233" lon="-1.54532">
        <ele>50.2</ele>
        <time>2024-01-25T15:44:52Z</time>
      </trkpt>
      <trkpt lat="48.80235" lon="-1.54536">
        <ele>50.4</ele>
        <time>2024-01-25T15:44:53Z</time>
      </trkpt>
      <trkpt lat="48.80238" lon="-1.5454">
        <ele>50.6</ele>
        <time>2024-01-25T15:44:54Z</time>
      </trkpt>
      <trkpt lat="48.80241" lon="-1.54546">
        <ele>50.8</ele>
        <time>2024-01-25T15:44:55Z</time>
      </trkpt>
      <trkpt lat="48.80244" lon="-1.54551">
        <ele>51</ele>
        <time>2024-01-25T15:44:56Z</time>
      </trkpt>
      <trkpt lat="48.80247" lon="-1.54555">
        <ele>51.1</ele>
        <time>2024-01-25T15:44:57Z</time>
      </trkpt>
      <trkpt lat="48.8025" lon="-1.54561">
        <ele>51.3</ele>
        <time>2024-01-25T15:44:58Z</time>
      </trkpt>
      <trkpt lat="48.80253" lon="-1.54566">
        <ele>51.5</ele>
        <time>2024-01-25T15:44:59Z</time>
      </trkpt>
      <trkpt lat="48.80256" lon="-1.54571">
        <ele>51.6</ele>
        <time>2024-01-25T15:45:00Z</time>
      </trkpt>
      <trkpt lat="48.80259" lon="-1.54577">
        <ele>51.8</ele>
        <time>2024-01-25T15:45:01Z</time>
      </trkpt>
      <trkpt lat="48.80263" lon="-1.54583">
        <ele>51.9</ele>
        <time>2024-01-25T15:45:02Z</time>
      </trkpt>
      <trkpt lat="48.80266" lon="-1.5459">
        <ele>52</ele>
        <time>2024-01-25T15:45:03Z</time>
      </trkpt>
      <trkpt lat="48.80269" lon="-1.54595">
        <ele>52.1</ele>
        <time>2024-01-25T15:45:04Z</time>
      </trkpt>
      <trkpt lat="48.80272" lon="-1.546">
        <ele>52.2</ele>
        <time>2024-01-25T15:45:05Z</time>
      </trkpt>
      <trkpt lat="48.80276" lon="-1.54606">
        <ele>52.3</ele>
        <time>2024-01-25T15:45:06Z</time>
      </trkpt>
      <trkpt lat="48.80281" lon="-1.54613">
        <ele>52.4</ele>
        <time>2024-01-25T15:45:07Z</time>
      </trkpt>
      <trkpt lat="48.80285" lon="-1.54619">
        <ele>52.4</ele>
        <time>2024-01-25T15:45:08Z</time>
      </trkpt>
      <trkpt lat="48.80289" lon="-1.54626">
        <ele>52.5</ele>
        <time>2024-01-25T15:45:09Z</time>
      </trkpt>
      <trkpt lat="48.80293" lon="-1.54632">
        <ele>52.5</ele>
        <time>2024-01-25T15:45:10Z</time>
      </trkpt>
      <trkpt lat="48.80297" lon="-1.54639">
        <ele>52.6</ele>
        <time>2024-01-25T15:45:11Z</time>
      </trkpt>
      <trkpt lat="48.80301" lon="-1.54647">
        <ele>52.6</ele>
        <time>2024-01-25T15:45:12Z</time>
      </trkpt>
      <trkpt lat="48.80304" lon="-1.54655">
        <ele>52.6</ele>
        <time>2024-01-25T15:45:13Z</time>
      </trkpt>
      <trkpt lat="48.80308" lon="-1.54662">
        <ele>52.7</ele>
        <time>2024-01-25T15:45:14Z</time>
      </trkpt>
      <trkpt lat="48.80312" lon="-1.54669">
        <ele>52.7</ele>
        <time>2024-01-25T15:45:15Z</time>
      </trkpt>
      <trkpt lat="48.80316" lon="-1.54676">
        <ele>52.7</ele>
        <time>2024-01-25T15:45:16Z</time>
      </trkpt>
      <trkpt lat="48.8032" lon="-1.54683">
        <ele>52.7</ele>
        <time>2024-01-25T15:45:17Z</time>
      </trkpt>
      <trkpt lat="48.80323" lon="-1.54689">
        <ele>52.7</ele>
        <time>2024-01-25T15:45:18Z</time>
      </trkpt>
      <trkpt lat="48.80327" lon="-1.54695">
        <ele>52.7</ele>
        <time>2024-01-25T15:45:19Z</time>
      </trkpt>
      <trkpt lat="48.80331" lon="-1.54701">
        <ele>52.7</ele>
        <time>2024-01-25T15:45:20Z</time>
      </trkpt>
      <trkpt lat="48.80334" lon="-1.54708">
        <ele>52.7</ele>
        <time>2024-01-25T15:45:21Z</time>
      </trkpt>
      <trkpt lat="48.80338" lon="-1.54715">
        <ele>52.7</ele>
        <time>2024-01-25T15:45:22Z</time>
      </trkpt>
      <trkpt lat="48.80342" lon="-1.54723">
        <ele>52.7</ele>
        <time>2024-01-25T15:45:23Z</time>
      </trkpt>
      <trkpt lat="48.80345" lon="-1.54731">
        <ele>52.6</ele>
        <time>2024-01-25T15:45:24Z</time>
      </trkpt>
      <trkpt lat="48.80349" lon="-1.54738">
        <ele>52.6</ele>
        <time>2024-01-25T15:45:25Z</time>
      </trkpt>
      <trkpt lat="48.80353" lon="-1.54746">
        <ele>52.6</ele>
        <time>2024-01-25T15:45:26Z</time>
      </trkpt>
      <trkpt lat="48.80357" lon="-1.54753">
        <ele>52.6</ele>
        <time>2024-01-25T15:45:27Z</time>
      </trkpt>
      <trkpt lat="48.80361" lon="-1.5476">
        <ele>52.6</ele>
        <time>2024-01-25T15:45:28Z</time>
      </trkpt>
      <trkpt lat="48.80365" lon="-1.54768">
        <ele>52.5</ele>
        <time>2024-01-25T15:45:29Z</time>
      </trkpt>
      <trkpt lat="48.8037" lon="-1.54775">
        <ele>52.5</ele>
        <time>2024-01-25T15:45:30Z</time>
      </trkpt>
      <trkpt lat="48.80373" lon="-1.54782">
        <ele>52.5</ele>
        <time>2024-01-25T15:45:31Z</time>
      </trkpt>
      <trkpt lat="48.80377" lon="-1.54789">
        <ele>52.4</ele>
        <time>2024-01-25T15:45:32Z</time>
      </trkpt>
      <trkpt lat="48.80382" lon="-1.54796">
        <ele>52.4</ele>
        <time>2024-01-25T15:45:33Z</time>
      </trkpt>
      <trkpt lat="48.80386" lon="-1.54803">
        <ele>52.3</ele>
        <time>2024-01-25T15:45:34Z</time>
      </trkpt>
      <trkpt lat="48.8039" lon="-1.54811">
        <ele>52.2</ele>
        <time>2024-01-25T15:45:35Z</time>
      </trkpt>
      <trkpt lat="48.80395" lon="-1.54818">
        <ele>52.2</ele>
        <time>2024-01-25T15:45:36Z</time>
      </trkpt>
      <trkpt lat="48.80401" lon="-1.54825">
        <ele>52.1</ele>
        <time>2024-01-25T15:45:37Z</time>
      </trkpt>
      <trkpt lat="48.80407" lon="-1.54832">
        <ele>52.2</ele>
        <time>2024-01-25T15:45:38Z</time>
      </trkpt>
      <trkpt lat="48.80413" lon="-1.54839">
        <ele>52.3</ele>
        <time>2024-01-25T15:45:39Z</time>
      </trkpt>
      <trkpt lat="48.80418" lon="-1.54847">
        <ele>52.1</ele>
        <time>2024-01-25T15:45:40Z</time>
      </trkpt>
      <trkpt lat="48.80422" lon="-1.54857">
        <ele>52</ele>
        <time>2024-01-25T15:45:41Z</time>
      </trkpt>
      <trkpt lat="48.80426" lon="-1.54867">
        <ele>51.9</ele>
        <time>2024-01-25T15:45:42Z</time>
      </trkpt>
      <trkpt lat="48.80431" lon="-1.54876">
        <ele>51.7</ele>
        <time>2024-01-25T15:45:43Z</time>
      </trkpt>
      <trkpt lat="48.80436" lon="-1.54884">
        <ele>51.6</ele>
        <time>2024-01-25T15:45:44Z</time>
      </trkpt>
      <trkpt lat="48.80441" lon="-1.54893">
        <ele>51.4</ele>
        <time>2024-01-25T15:45:45Z</time>
      </trkpt>
      <trkpt lat="48.80446" lon="-1.54901">
        <ele>51.3</ele>
        <time>2024-01-25T15:45:46Z</time>
      </trkpt>
      <trkpt lat="48.80452" lon="-1.5491">
        <ele>51.1</ele>
        <time>2024-01-25T15:45:47Z</time>
      </trkpt>
      <trkpt lat="48.80458" lon="-1.54918">
        <ele>51</ele>
        <time>2024-01-25T15:45:48Z</time>
      </trkpt>
      <trkpt lat="48.80464" lon="-1.54926">
        <ele>50.9</ele>
        <time>2024-01-25T15:45:49Z</time>
      </trkpt>
      <trkpt lat="48.8047" lon="-1.54934">
        <ele>50.8</ele>
        <time>2024-01-25T15:45:50Z</time>
      </trkpt>
      <trkpt lat="48.80477" lon="-1.54943">
        <ele>50.6</ele>
        <time>2024-01-25T15:45:51Z</time>
      </trkpt>
      <trkpt lat="48.80483" lon="-1.54951">
        <ele>50.5</ele>
        <time>2024-01-25T15:45:52Z</time>
      </trkpt>
      <trkpt lat="48.80489" lon="-1.5496">
        <ele>50.3</ele>
        <time>2024-01-25T15:45:53Z</time>
      </trkpt>
      <trkpt lat="48.80495" lon="-1.54969">
        <ele>50</ele>
        <time>2024-01-25T15:45:54Z</time>
      </trkpt>
      <trkpt lat="48.80501" lon="-1.54979">
        <ele>49.8</ele>
        <time>2024-01-25T15:45:55Z</time>
      </trkpt>
      <trkpt lat="48.80507" lon="-1.54989">
        <ele>49.5</ele>
        <time>2024-01-25T15:45:56Z</time>
      </trkpt>
      <trkpt lat="48.80513" lon="-1.54998">
        <ele>49.3</ele>
        <time>2024-01-25T15:45:57Z</time>
      </trkpt>
      <trkpt lat="48.80519" lon="-1.55009">
        <ele>49</ele>
        <time>2024-01-25T15:45:58Z</time>
      </trkpt>
      <trkpt lat="48.80525" lon="-1.55019">
        <ele>48.6</ele>
        <time>2024-01-25T15:45:59Z</time>
      </trkpt>
      <trkpt lat="48.80531" lon="-1.5503">
        <ele>48.3</ele>
        <time>2024-01-25T15:46:00Z</time>
      </trkpt>
      <trkpt lat="48.80537" lon="-1.55041">
        <ele>48</ele>
        <time>2024-01-25T15:46:01Z</time>
      </trkpt>
      <trkpt lat="48.80542" lon="-1.55052">
        <ele>47.6</ele>
        <time>2024-01-25T15:46:02Z</time>
      </trkpt>
      <trkpt lat="48.80548" lon="-1.55063">
        <ele>47.3</ele>
        <time>2024-01-25T15:46:03Z</time>
      </trkpt>
      <trkpt lat="48.80554" lon="-1.55074">
        <ele>46.9</ele>
        <time>2024-01-25T15:46:04Z</time>
      </trkpt>
      <trkpt lat="48.8056" lon="-1.55086">
        <ele>46.5</ele>
        <time>2024-01-25T15:46:05Z</time>
      </trkpt>
      <trkpt lat="48.80566" lon="-1.55098">
        <ele>46.2</ele>
        <time>2024-01-25T15:46:06Z</time>
      </trkpt>
      <trkpt lat="48.80572" lon="-1.55109">
        <ele>45.8</ele>
        <time>2024-01-25T15:46:07Z</time>
      </trkpt>
      <trkpt lat="48.80578" lon="-1.55121">
        <ele>45.5</ele>
        <time>2024-01-25T15:46:08Z</time>
      </trkpt>
      <trkpt lat="48.80584" lon="-1.55132">
        <ele>45.3</ele>
        <time>2024-01-25T15:46:09Z</time>
      </trkpt>
      <trkpt lat="48.8059" lon="-1.55143">
        <ele>45.1</ele>
        <time>2024-01-25T15:46:10Z</time>
      </trkpt>
      <trkpt lat="48.80596" lon="-1.55153">
        <ele>44.9</ele>
        <time>2024-01-25T15:46:11Z</time>
      </trkpt>
      <trkpt lat="48.80602" lon="-1.55164">
        <ele>44.7</ele>
        <time>2024-01-25T15:46:12Z</time>
      </trkpt>
      <trkpt lat="48.80608" lon="-1.55174">
        <ele>44.6</ele>
        <time>2024-01-25T15:46:13Z</time>
      </trkpt>
      <trkpt lat="48.80614" lon="-1.55185">
        <ele>44.4</ele>
        <time>2024-01-25T15:46:14Z</time>
      </trkpt>
      <trkpt lat="48.8062" lon="-1.55195">
        <ele>44.3</ele>
        <time>2024-01-25T15:46:15Z</time>
      </trkpt>
      <trkpt lat="48.80626" lon="-1.55206">
        <ele>44.1</ele>
        <time>2024-01-25T15:46:16Z</time>
      </trkpt>
      <trkpt lat="48.80632" lon="-1.55216">
        <ele>44</ele>
        <time>2024-01-25T15:46:17Z</time>
      </trkpt>
      <trkpt lat="48.80638" lon="-1.55225">
        <ele>43.8</ele>
        <time>2024-01-25T15:46:18Z</time>
      </trkpt>
      <trkpt lat="48.80646" lon="-1.55233">
        <ele>43.7</ele>
        <time>2024-01-25T15:46:19Z</time>
      </trkpt>
      <trkpt lat="48.80653" lon="-1.55241">
        <ele>43.6</ele>
        <time>2024-01-25T15:46:20Z</time>
      </trkpt>
      <trkpt lat="48.80661" lon="-1.55249">
        <ele>43.5</ele>
        <time>2024-01-25T15:46:21Z</time>
      </trkpt>
      <trkpt lat="48.80669" lon="-1.55257">
        <ele>43.4</ele>
        <time>2024-01-25T15:46:22Z</time>
      </trkpt>
      <trkpt lat="48.80677" lon="-1.55264">
        <ele>43.4</ele>
        <time>2024-01-25T15:46:23Z</time>
      </trkpt>
      <trkpt lat="48.80685" lon="-1.55273">
        <ele>43.3</ele>
        <time>2024-01-25T15:46:24Z</time>
      </trkpt>
      <trkpt lat="48.80692" lon="-1.55282">
        <ele>43.3</ele>
        <time>2024-01-25T15:46:25Z</time>
      </trkpt>
      <trkpt lat="48.807" lon="-1.55291">
        <ele>43.2</ele>
        <time>2024-01-25T15:46:26Z</time>
      </trkpt>
      <trkpt lat="48.80707" lon="-1.553">
        <ele>43.2</ele>
        <time>2024-01-25T15:46:27Z</time>
      </trkpt>
      <trkpt lat="48.80713" lon="-1.5531">
        <ele>43.2</ele>
        <time>2024-01-25T15:46:28Z</time>
      </trkpt>
      <trkpt lat="48.8072" lon="-1.55321">
        <ele>43.2</ele>
        <time>2024-01-25T15:46:29Z</time>
      </trkpt>
      <trkpt lat="48.80726" lon="-1.55331">
        <ele>43.3</ele>
        <time>2024-01-25T15:46:30Z</time>
      </trkpt>
      <trkpt lat="48.80732" lon="-1.55341">
        <ele>43.3</ele>
        <time>2024-01-25T15:46:31Z</time>
      </trkpt>
      <trkpt lat="48.80739" lon="-1.55351">
        <ele>43.4</ele>
        <time>2024-01-25T15:46:32Z</time>
      </trkpt>
      <trkpt lat="48.80745" lon="-1.55362">
        <ele>43.5</ele>
        <time>2024-01-25T15:46:33Z</time>
      </trkpt>
      <trkpt lat="48.8075" lon="-1.55372">
        <ele>43.6</ele>
        <time>2024-01-25T15:46:34Z</time>
      </trkpt>
      <trkpt lat="48.80756" lon="-1.55382">
        <ele>43.7</ele>
        <time>2024-01-25T15:46:35Z</time>
      </trkpt>
      <trkpt lat="48.80762" lon="-1.55392">
        <ele>43.9</ele>
        <time>2024-01-25T15:46:36Z</time>
      </trkpt>
      <trkpt lat="48.80767" lon="-1.55402">
        <ele>44</ele>
        <time>2024-01-25T15:46:37Z</time>
      </trkpt>
      <trkpt lat="48.80773" lon="-1.55413">
        <ele>44.1</ele>
        <time>2024-01-25T15:46:38Z</time>
      </trkpt>
      <trkpt lat="48.80778" lon="-1.55423">
        <ele>44.2</ele>
        <time>2024-01-25T15:46:39Z</time>
      </trkpt>
      <trkpt lat="48.80784" lon="-1.55433">
        <ele>44.3</ele>
        <time>2024-01-25T15:46:40Z</time>
      </trkpt>
      <trkpt lat="48.80789" lon="-1.55443">
        <ele>44.3</ele>
        <time>2024-01-25T15:46:41Z</time>
      </trkpt>
      <trkpt lat="48.80794" lon="-1.55454">
        <ele>44.4</ele>
        <time>2024-01-25T15:46:42Z</time>
      </trkpt>
      <trkpt lat="48.80799" lon="-1.55463">
        <ele>44.4</ele>
        <time>2024-01-25T15:46:43Z</time>
      </trkpt>
      <trkpt lat="48.80805" lon="-1.55473">
        <ele>44.4</ele>
        <time>2024-01-25T15:46:44Z</time>
      </trkpt>
      <trkpt lat="48.8081" lon="-1.55482">
        <ele>44.4</ele>
        <time>2024-01-25T15:46:45Z</time>
      </trkpt>
      <trkpt lat="48.80815" lon="-1.55492">
        <ele>44.3</ele>
        <time>2024-01-25T15:46:46Z</time>
      </trkpt>
      <trkpt lat="48.8082" lon="-1.55501">
        <ele>44.3</ele>
        <time>2024-01-25T15:46:47Z</time>
      </trkpt>
      <trkpt lat="48.80825" lon="-1.5551">
        <ele>44.2</ele>
        <time>2024-01-25T15:46:48Z</time>
      </trkpt>
      <trkpt lat="48.80829" lon="-1.5552">
        <ele>44.2</ele>
        <time>2024-01-25T15:46:49Z</time>
      </trkpt>
      <trkpt lat="48.80834" lon="-1.55531">
        <ele>44.2</ele>
        <time>2024-01-25T15:46:50Z</time>
      </trkpt>
      <trkpt lat="48.80838" lon="-1.55542">
        <ele>44.2</ele>
        <time>2024-01-25T15:46:51Z</time>
      </trkpt>
      <trkpt lat="48.80843" lon="-1.55553">
        <ele>44.1</ele>
        <time>2024-01-25T15:46:52Z</time>
      </trkpt>
      <trkpt lat="48.80848" lon="-1.55563">
        <ele>44.1</ele>
        <time>2024-01-25T15:46:53Z</time>
      </trkpt>
      <trkpt lat="48.80854" lon="-1.55573">
        <ele>44.1</ele>
        <time>2024-01-25T15:46:54Z</time>
      </trkpt>
      <trkpt lat="48.8086" lon="-1.55582">
        <ele>44</ele>
        <time>2024-01-25T15:46:55Z</time>
      </trkpt>
      <trkpt lat="48.80866" lon="-1.55592">
        <ele>44</ele>
        <time>2024-01-25T15:46:56Z</time>
      </trkpt>
      <trkpt lat="48.80871" lon="-1.55602">
        <ele>44</ele>
        <time>2024-01-25T15:46:57Z</time>
      </trkpt>
      <trkpt lat="48.80875" lon="-1.55613">
        <ele>44</ele>
        <time>2024-01-25T15:46:58Z</time>
      </trkpt>
      <trkpt lat="48.8088" lon="-1.55623">
        <ele>44</ele>
        <time>2024-01-25T15:46:59Z</time>
      </trkpt>
      <trkpt lat="48.80884" lon="-1.55634">
        <ele>44</ele>
        <time>2024-01-25T15:47:00Z</time>
      </trkpt>
      <trkpt lat="48.80888" lon="-1.55645">
        <ele>44</ele>
        <time>2024-01-25T15:47:01Z</time>
      </trkpt>
      <trkpt lat="48.80891" lon="-1.55656">
        <ele>44.1</ele>
        <time>2024-01-25T15:47:02Z</time>
      </trkpt>
      <trkpt lat="48.80894" lon="-1.55668">
        <ele>44.1</ele>
        <time>2024-01-25T15:47:03Z</time>
      </trkpt>
      <trkpt lat="48.80896" lon="-1.5568">
        <ele>44.2</ele>
        <time>2024-01-25T15:47:04Z</time>
      </trkpt>
      <trkpt lat="48.80899" lon="-1.55691">
        <ele>44.2</ele>
        <time>2024-01-25T15:47:05Z</time>
      </trkpt>
      <trkpt lat="48.80902" lon="-1.55703">
        <ele>44.3</ele>
        <time>2024-01-25T15:47:06Z</time>
      </trkpt>
      <trkpt lat="48.80905" lon="-1.55714">
        <ele>44.4</ele>
        <time>2024-01-25T15:47:07Z</time>
      </trkpt>
      <trkpt lat="48.80908" lon="-1.55725">
        <ele>44.5</ele>
        <time>2024-01-25T15:47:08Z</time>
      </trkpt>
      <trkpt lat="48.8091" lon="-1.55736">
        <ele>44.6</ele>
        <time>2024-01-25T15:47:09Z</time>
      </trkpt>
      <trkpt lat="48.80912" lon="-1.55746">
        <ele>44.6</ele>
        <time>2024-01-25T15:47:10Z</time>
      </trkpt>
      <trkpt lat="48.80913" lon="-1.55756">
        <ele>44.6</ele>
        <time>2024-01-25T15:47:11Z</time>
      </trkpt>
      <trkpt lat="48.80915" lon="-1.55766">
        <ele>44.6</ele>
        <time>2024-01-25T15:47:12Z</time>
      </trkpt>
      <trkpt lat="48.80918" lon="-1.55776">
        <ele>44.6</ele>
        <time>2024-01-25T15:47:13Z</time>
      </trkpt>
      <trkpt lat="48.8092" lon="-1.55786">
        <ele>44.5</ele>
        <time>2024-01-25T15:47:14Z</time>
      </trkpt>
      <trkpt lat="48.80922" lon="-1.55797">
        <ele>44.4</ele>
        <time>2024-01-25T15:47:15Z</time>
      </trkpt>
      <trkpt lat="48.80924" lon="-1.55808">
        <ele>44.3</ele>
        <time>2024-01-25T15:47:16Z</time>
      </trkpt>
      <trkpt lat="48.80926" lon="-1.55818">
        <ele>44.2</ele>
        <time>2024-01-25T15:47:17Z</time>
      </trkpt>
      <trkpt lat="48.80929" lon="-1.55829">
        <ele>44</ele>
        <time>2024-01-25T15:47:18Z</time>
      </trkpt>
      <trkpt lat="48.80931" lon="-1.5584">
        <ele>43.9</ele>
        <time>2024-01-25T15:47:19Z</time>
      </trkpt>
      <trkpt lat="48.80934" lon="-1.55851">
        <ele>43.7</ele>
        <time>2024-01-25T15:47:20Z</time>
      </trkpt>
      <trkpt lat="48.80937" lon="-1.55862">
        <ele>43.6</ele>
        <time>2024-01-25T15:47:21Z</time>
      </trkpt>
      <trkpt lat="48.8094" lon="-1.55873">
        <ele>43.4</ele>
        <time>2024-01-25T15:47:22Z</time>
      </trkpt>
      <trkpt lat="48.80943" lon="-1.55885">
        <ele>43.3</ele>
        <time>2024-01-25T15:47:23Z</time>
      </trkpt>
      <trkpt lat="48.80946" lon="-1.55896">
        <ele>43.1</ele>
        <time>2024-01-25T15:47:24Z</time>
      </trkpt>
      <trkpt lat="48.8095" lon="-1.55906">
        <ele>42.9</ele>
        <time>2024-01-25T15:47:25Z</time>
      </trkpt>
      <trkpt lat="48.80954" lon="-1.55916">
        <ele>42.8</ele>
        <time>2024-01-25T15:47:26Z</time>
      </trkpt>
      <trkpt lat="48.80958" lon="-1.55927">
        <ele>42.6</ele>
        <time>2024-01-25T15:47:27Z</time>
      </trkpt>
      <trkpt lat="48.80962" lon="-1.55936">
        <ele>42.4</ele>
        <time>2024-01-25T15:47:28Z</time>
      </trkpt>
      <trkpt lat="48.80967" lon="-1.55946">
        <ele>42.2</ele>
        <time>2024-01-25T15:47:29Z</time>
      </trkpt>
      <trkpt lat="48.80972" lon="-1.55955">
        <ele>42</ele>
        <time>2024-01-25T15:47:30Z</time>
      </trkpt>
      <trkpt lat="48.80978" lon="-1.55962">
        <ele>41.9</ele>
        <time>2024-01-25T15:47:31Z</time>
      </trkpt>
      <trkpt lat="48.80984" lon="-1.55971">
        <ele>41.9</ele>
        <time>2024-01-25T15:47:32Z</time>
      </trkpt>
      <trkpt lat="48.80988" lon="-1.55981">
        <ele>41.7</ele>
        <time>2024-01-25T15:47:33Z</time>
      </trkpt>
      <trkpt lat="48.80992" lon="-1.55992">
        <ele>41.4</ele>
        <time>2024-01-25T15:47:34Z</time>
      </trkpt>
      <trkpt lat="48.80996" lon="-1.56002">
        <ele>41.1</ele>
        <time>2024-01-25T15:47:35Z</time>
      </trkpt>
      <trkpt lat="48.81" lon="-1.56012">
        <ele>40.8</ele>
        <time>2024-01-25T15:47:36Z</time>
      </trkpt>
      <trkpt lat="48.81005" lon="-1.56022">
        <ele>40.5</ele>
        <time>2024-01-25T15:47:37Z</time>
      </trkpt>
      <trkpt lat="48.8101" lon="-1.56031">
        <ele>40.2</ele>
        <time>2024-01-25T15:47:38Z</time>
      </trkpt>
      <trkpt lat="48.81015" lon="-1.56042">
        <ele>39.8</ele>
        <time>2024-01-25T15:47:39Z</time>
      </trkpt>
      <trkpt lat="48.8102" lon="-1.56052">
        <ele>39.6</ele>
        <time>2024-01-25T15:47:40Z</time>
      </trkpt>
      <trkpt lat="48.81026" lon="-1.56062">
        <ele>39.3</ele>
        <time>2024-01-25T15:47:41Z</time>
      </trkpt>
      <trkpt lat="48.81031" lon="-1.56072">
        <ele>39.1</ele>
        <time>2024-01-25T15:47:42Z</time>
      </trkpt>
      <trkpt lat="48.81036" lon="-1.56082">
        <ele>39</ele>
        <time>2024-01-25T15:47:43Z</time>
      </trkpt>
      <trkpt lat="48.81041" lon="-1.56093">
        <ele>38.9</ele>
        <time>2024-01-25T15:47:44Z</time>
      </trkpt>
      <trkpt lat="48.81046" lon="-1.56103">
        <ele>38.8</ele>
        <time>2024-01-25T15:47:45Z</time>
      </trkpt>
      <trkpt lat="48.81051" lon="-1.56114">
        <ele>38.8</ele>
        <time>2024-01-25T15:47:46Z</time>
      </trkpt>
      <trkpt lat="48.81056" lon="-1.56124">
        <ele>38.8</ele>
        <time>2024-01-25T15:47:47Z</time>
      </trkpt>
      <trkpt lat="48.81061" lon="-1.56135">
        <ele>38.8</ele>
        <time>2024-01-25T15:47:48Z</time>
      </trkpt>
      <trkpt lat="48.81066" lon="-1.56146">
        <ele>38.8</ele>
        <time>2024-01-25T15:47:49Z</time>
      </trkpt>
      <trkpt lat="48.8107" lon="-1.56158">
        <ele>38.9</ele>
        <time>2024-01-25T15:47:50Z</time>
      </trkpt>
      <trkpt lat="48.81073" lon="-1.56169">
        <ele>38.9</ele>
        <time>2024-01-25T15:47:51Z</time>
      </trkpt>
      <trkpt lat="48.81076" lon="-1.56181">
        <ele>39</ele>
        <time>2024-01-25T15:47:52Z</time>
      </trkpt>
      <trkpt lat="48.81079" lon="-1.56192">
        <ele>39.1</ele>
        <time>2024-01-25T15:47:53Z</time>
      </trkpt>
      <trkpt lat="48.81082" lon="-1.56203">
        <ele>39.3</ele>
        <time>2024-01-25T15:47:54Z</time>
      </trkpt>
      <trkpt lat="48.81085" lon="-1.56214">
        <ele>39.5</ele>
        <time>2024-01-25T15:47:55Z</time>
      </trkpt>
      <trkpt lat="48.81088" lon="-1.56225">
        <ele>39.6</ele>
        <time>2024-01-25T15:47:56Z</time>
      </trkpt>
      <trkpt lat="48.8109" lon="-1.56235">
        <ele>39.8</ele>
        <time>2024-01-25T15:47:57Z</time>
      </trkpt>
      <trkpt lat="48.81092" lon="-1.56245">
        <ele>39.9</ele>
        <time>2024-01-25T15:47:58Z</time>
      </trkpt>
      <trkpt lat="48.81094" lon="-1.56255">
        <ele>40.1</ele>
        <time>2024-01-25T15:47:59Z</time>
      </trkpt>
      <trkpt lat="48.81097" lon="-1.56264">
        <ele>40.2</ele>
        <time>2024-01-25T15:48:00Z</time>
      </trkpt>
      <trkpt lat="48.81099" lon="-1.56272">
        <ele>40.3</ele>
        <time>2024-01-25T15:48:01Z</time>
      </trkpt>
      <trkpt lat="48.81102" lon="-1.56281">
        <ele>40.5</ele>
        <time>2024-01-25T15:48:02Z</time>
      </trkpt>
      <trkpt lat="48.81104" lon="-1.56289">
        <ele>40.6</ele>
        <time>2024-01-25T15:48:03Z</time>
      </trkpt>
      <trkpt lat="48.81106" lon="-1.56297">
        <ele>40.8</ele>
        <time>2024-01-25T15:48:04Z</time>
      </trkpt>
      <trkpt lat="48.81109" lon="-1.56304">
        <ele>40.9</ele>
        <time>2024-01-25T15:48:05Z</time>
      </trkpt>
      <trkpt lat="48.81111" lon="-1.56312">
        <ele>41</ele>
        <time>2024-01-25T15:48:06Z</time>
      </trkpt>
      <trkpt lat="48.81114" lon="-1.56319">
        <ele>41.1</ele>
        <time>2024-01-25T15:48:07Z</time>
      </trkpt>
      <trkpt lat="48.81117" lon="-1.56325">
        <ele>41.2</ele>
        <time>2024-01-25T15:48:08Z</time>
      </trkpt>
      <trkpt lat="48.8112" lon="-1.56332">
        <ele>41.2</ele>
        <time>2024-01-25T15:48:09Z</time>
      </trkpt>
      <trkpt lat="48.81123" lon="-1.56338">
        <ele>41.2</ele>
        <time>2024-01-25T15:48:10Z</time>
      </trkpt>
      <trkpt lat="48.81126" lon="-1.56344">
        <ele>41.2</ele>
        <time>2024-01-25T15:48:11Z</time>
      </trkpt>
      <trkpt lat="48.8113" lon="-1.56349">
        <ele>41.1</ele>
        <time>2024-01-25T15:48:12Z</time>
      </trkpt>
      <trkpt lat="48.81133" lon="-1.56355">
        <ele>41</ele>
        <time>2024-01-25T15:48:13Z</time>
      </trkpt>
      <trkpt lat="48.81137" lon="-1.56361">
        <ele>40.9</ele>
        <time>2024-01-25T15:48:14Z</time>
      </trkpt>
      <trkpt lat="48.81141" lon="-1.56367">
        <ele>40.9</ele>
        <time>2024-01-25T15:48:15Z</time>
      </trkpt>
      <trkpt lat="48.81145" lon="-1.56373">
        <ele>40.8</ele>
        <time>2024-01-25T15:48:16Z</time>
      </trkpt>
      <trkpt lat="48.81149" lon="-1.5638">
        <ele>40.8</ele>
        <time>2024-01-25T15:48:17Z</time>
      </trkpt>
      <trkpt lat="48.81152" lon="-1.56387">
        <ele>40.7</ele>
        <time>2024-01-25T15:48:18Z</time>
      </trkpt>
      <trkpt lat="48.81157" lon="-1.56394">
        <ele>40.5</ele>
        <time>2024-01-25T15:48:19Z</time>
      </trkpt>
      <trkpt lat="48.81161" lon="-1.56401">
        <ele>40.2</ele>
        <time>2024-01-25T15:48:20Z</time>
      </trkpt>
      <trkpt lat="48.81165" lon="-1.56408">
        <ele>40</ele>
        <time>2024-01-25T15:48:21Z</time>
      </trkpt>
      <trkpt lat="48.81169" lon="-1.56416">
        <ele>39.7</ele>
        <time>2024-01-25T15:48:22Z</time>
      </trkpt>
      <trkpt lat="48.81174" lon="-1.56423">
        <ele>39.4</ele>
        <time>2024-01-25T15:48:23Z</time>
      </trkpt>
      <trkpt lat="48.8118" lon="-1.5643">
        <ele>39</ele>
        <time>2024-01-25T15:48:24Z</time>
      </trkpt>
      <trkpt lat="48.81185" lon="-1.56437">
        <ele>38.7</ele>
        <time>2024-01-25T15:48:25Z</time>
      </trkpt>
      <trkpt lat="48.8119" lon="-1.56444">
        <ele>38.3</ele>
        <time>2024-01-25T15:48:26Z</time>
      </trkpt>
      <trkpt lat="48.81195" lon="-1.56452">
        <ele>37.9</ele>
        <time>2024-01-25T15:48:27Z</time>
      </trkpt>
      <trkpt lat="48.81201" lon="-1.56461">
        <ele>37.5</ele>
        <time>2024-01-25T15:48:28Z</time>
      </trkpt>
      <trkpt lat="48.81207" lon="-1.56469">
        <ele>37.1</ele>
        <time>2024-01-25T15:48:29Z</time>
      </trkpt>
      <trkpt lat="48.81212" lon="-1.56478">
        <ele>36.7</ele>
        <time>2024-01-25T15:48:30Z</time>
      </trkpt>
      <trkpt lat="48.81217" lon="-1.56486">
        <ele>36.3</ele>
        <time>2024-01-25T15:48:31Z</time>
      </trkpt>
      <trkpt lat="48.81223" lon="-1.56494">
        <ele>35.8</ele>
        <time>2024-01-25T15:48:32Z</time>
      </trkpt>
      <trkpt lat="48.81228" lon="-1.56503">
        <ele>35.3</ele>
        <time>2024-01-25T15:48:33Z</time>
      </trkpt>
      <trkpt lat="48.81233" lon="-1.56512">
        <ele>34.8</ele>
        <time>2024-01-25T15:48:34Z</time>
      </trkpt>
      <trkpt lat="48.81238" lon="-1.56521">
        <ele>34.3</ele>
        <time>2024-01-25T15:48:35Z</time>
      </trkpt>
      <trkpt lat="48.81244" lon="-1.5653">
        <ele>33.8</ele>
        <time>2024-01-25T15:48:36Z</time>
      </trkpt>
      <trkpt lat="48.8125" lon="-1.56539">
        <ele>33.3</ele>
        <time>2024-01-25T15:48:37Z</time>
      </trkpt>
      <trkpt lat="48.81256" lon="-1.56547">
        <ele>32.8</ele>
        <time>2024-01-25T15:48:38Z</time>
      </trkpt>
      <trkpt lat="48.81261" lon="-1.56556">
        <ele>32.3</ele>
        <time>2024-01-25T15:48:39Z</time>
      </trkpt>
      <trkpt lat="48.81266" lon="-1.56564">
        <ele>32</ele>
        <time>2024-01-25T15:48:40Z</time>
      </trkpt>
      <trkpt lat="48.81271" lon="-1.56573">
        <ele>31.7</ele>
        <time>2024-01-25T15:48:41Z</time>
      </trkpt>
      <trkpt lat="48.81276" lon="-1.5658">
        <ele>31.4</ele>
        <time>2024-01-25T15:48:42Z</time>
      </trkpt>
      <trkpt lat="48.81281" lon="-1.56587">
        <ele>31.2</ele>
        <time>2024-01-25T15:48:43Z</time>
      </trkpt>
      <trkpt lat="48.81285" lon="-1.56593">
        <ele>31</ele>
        <time>2024-01-25T15:48:44Z</time>
      </trkpt>
      <trkpt lat="48.81289" lon="-1.56598">
        <ele>30.9</ele>
        <time>2024-01-25T15:48:45Z</time>
      </trkpt>
      <trkpt lat="48.81294" lon="-1.56602">
        <ele>30.8</ele>
        <time>2024-01-25T15:48:46Z</time>
      </trkpt>
      <trkpt lat="48.81298" lon="-1.56607">
        <ele>30.7</ele>
        <time>2024-01-25T15:48:47Z</time>
      </trkpt>
      <trkpt lat="48.81302" lon="-1.56613">
        <ele>30.6</ele>
        <time>2024-01-25T15:48:48Z</time>
      </trkpt>
      <trkpt lat="48.81306" lon="-1.56619">
        <ele>30.1</ele>
        <time>2024-01-25T15:48:49Z</time>
      </trkpt>
      <trkpt lat="48.8131" lon="-1.56627">
        <ele>29.6</ele>
        <time>2024-01-25T15:48:50Z</time>
      </trkpt>
      <trkpt lat="48.81315" lon="-1.56635">
        <ele>28.9</ele>
        <time>2024-01-25T15:48:51Z</time>
      </trkpt>
      <trkpt lat="48.8132" lon="-1.56644">
        <ele>28.3</ele>
        <time>2024-01-25T15:48:52Z</time>
      </trkpt>
      <trkpt lat="48.81325" lon="-1.56654">
        <ele>27.6</ele>
        <time>2024-01-25T15:48:53Z</time>
      </trkpt>
      <trkpt lat="48.81331" lon="-1.56663">
        <ele>26.9</ele>
        <time>2024-01-25T15:48:54Z</time>
      </trkpt>
      <trkpt lat="48.81337" lon="-1.56672">
        <ele>26.2</ele>
        <time>2024-01-25T15:48:55Z</time>
      </trkpt>
      <trkpt lat="48.81343" lon="-1.56682">
        <ele>25.4</ele>
        <time>2024-01-25T15:48:56Z</time>
      </trkpt>
      <trkpt lat="48.8135" lon="-1.56693">
        <ele>24.7</ele>
        <time>2024-01-25T15:48:57Z</time>
      </trkpt>
      <trkpt lat="48.81356" lon="-1.56703">
        <ele>24.2</ele>
        <time>2024-01-25T15:48:58Z</time>
      </trkpt>
      <trkpt lat="48.81363" lon="-1.56714">
        <ele>24</ele>
        <time>2024-01-25T15:48:59Z</time>
      </trkpt>
      <trkpt lat="48.81369" lon="-1.56726">
        <ele>23.3</ele>
        <time>2024-01-25T15:49:00Z</time>
      </trkpt>
      <trkpt lat="48.81374" lon="-1.56737">
        <ele>22.7</ele>
        <time>2024-01-25T15:49:01Z</time>
      </trkpt>
      <trkpt lat="48.8138" lon="-1.56745">
        <ele>22.2</ele>
        <time>2024-01-25T15:49:02Z</time>
      </trkpt>
      <trkpt lat="48.81385" lon="-1.56753">
        <ele>21.7</ele>
        <time>2024-01-25T15:49:03Z</time>
      </trkpt>
      <trkpt lat="48.81391" lon="-1.5676">
        <ele>21.3</ele>
        <time>2024-01-25T15:49:04Z</time>
      </trkpt>
      <trkpt lat="48.81396" lon="-1.56767">
        <ele>20.8</ele>
        <time>2024-01-25T15:49:05Z</time>
      </trkpt>
      <trkpt lat="48.81402" lon="-1.56773">
        <ele>20.4</ele>
        <time>2024-01-25T15:49:06Z</time>
      </trkpt>
      <trkpt lat="48.81405" lon="-1.56779">
        <ele>20.1</ele>
        <time>2024-01-25T15:49:07Z</time>
      </trkpt>
      <trkpt lat="48.81409" lon="-1.56785">
        <ele>19.9</ele>
        <time>2024-01-25T15:49:08Z</time>
      </trkpt>
      <trkpt lat="48.81413" lon="-1.56792">
        <ele>20</ele>
        <time>2024-01-25T15:49:09Z</time>
      </trkpt>
      <trkpt lat="48.81417" lon="-1.568">
        <ele>20.1</ele>
        <time>2024-01-25T15:49:10Z</time>
      </trkpt>
      <trkpt lat="48.81421" lon="-1.56809">
        <ele>20.1</ele>
        <time>2024-01-25T15:49:11Z</time>
      </trkpt>
      <trkpt lat="48.81425" lon="-1.56817">
        <ele>20.2</ele>
        <time>2024-01-25T15:49:12Z</time>
      </trkpt>
      <trkpt lat="48.8143" lon="-1.56826">
        <ele>20.3</ele>
        <time>2024-01-25T15:49:13Z</time>
      </trkpt>
      <trkpt lat="48.81435" lon="-1.56834">
        <ele>20.4</ele>
        <time>2024-01-25T15:49:14Z</time>
      </trkpt>
      <trkpt lat="48.81441" lon="-1.56841">
        <ele>20.6</ele>
        <time>2024-01-25T15:49:15Z</time>
      </trkpt>
      <trkpt lat="48.81446" lon="-1.56848">
        <ele>20.8</ele>
        <time>2024-01-25T15:49:16Z</time>
      </trkpt>
      <trkpt lat="48.81451" lon="-1.56855">
        <ele>21</ele>
        <time>2024-01-25T15:49:17Z</time>
      </trkpt>
      <trkpt lat="48.81455" lon="-1.56862">
        <ele>21.3</ele>
        <time>2024-01-25T15:49:18Z</time>
      </trkpt>
      <trkpt lat="48.81459" lon="-1.56869">
        <ele>21.6</ele>
        <time>2024-01-25T15:49:19Z</time>
      </trkpt>
      <trkpt lat="48.81463" lon="-1.56875">
        <ele>21.9</ele>
        <time>2024-01-25T15:49:20Z</time>
      </trkpt>
      <trkpt lat="48.81467" lon="-1.56881">
        <ele>22.2</ele>
        <time>2024-01-25T15:49:21Z</time>
      </trkpt>
      <trkpt lat="48.81471" lon="-1.56886">
        <ele>22.4</ele>
        <time>2024-01-25T15:49:22Z</time>
      </trkpt>
      <trkpt lat="48.81475" lon="-1.56891">
        <ele>22.7</ele>
        <time>2024-01-25T15:49:23Z</time>
      </trkpt>
      <trkpt lat="48.81478" lon="-1.56896">
        <ele>23</ele>
        <time>2024-01-25T15:49:24Z</time>
      </trkpt>
      <trkpt lat="48.81482" lon="-1.569">
        <ele>23.3</ele>
        <time>2024-01-25T15:49:25Z</time>
      </trkpt>
      <trkpt lat="48.81486" lon="-1.56905">
        <ele>23.5</ele>
        <time>2024-01-25T15:49:26Z</time>
      </trkpt>
      <trkpt lat="48.81489" lon="-1.56909">
        <ele>23.7</ele>
        <time>2024-01-25T15:49:27Z</time>
      </trkpt>
      <trkpt lat="48.81492" lon="-1.56913">
        <ele>23.9</ele>
        <time>2024-01-25T15:49:28Z</time>
      </trkpt>
      <trkpt lat="48.81495" lon="-1.56919">
        <ele>24</ele>
        <time>2024-01-25T15:49:29Z</time>
      </trkpt>
      <trkpt lat="48.81498" lon="-1.56924">
        <ele>24.2</ele>
        <time>2024-01-25T15:49:30Z</time>
      </trkpt>
      <trkpt lat="48.81501" lon="-1.5693">
        <ele>24.3</ele>
        <time>2024-01-25T15:49:31Z</time>
      </trkpt>
      <trkpt lat="48.81504" lon="-1.56936">
        <ele>24.4</ele>
        <time>2024-01-25T15:49:32Z</time>
      </trkpt>
      <trkpt lat="48.81508" lon="-1.56941">
        <ele>24.4</ele>
        <time>2024-01-25T15:49:33Z</time>
      </trkpt>
      <trkpt lat="48.81511" lon="-1.56947">
        <ele>24.4</ele>
        <time>2024-01-25T15:49:34Z</time>
      </trkpt>
      <trkpt lat="48.81514" lon="-1.56954">
        <ele>24.5</ele>
        <time>2024-01-25T15:49:35Z</time>
      </trkpt>
      <trkpt lat="48.81517" lon="-1.56961">
        <ele>24.3</ele>
        <time>2024-01-25T15:49:36Z</time>
      </trkpt>
      <trkpt lat="48.8152" lon="-1.56969">
        <ele>24.2</ele>
        <time>2024-01-25T15:49:37Z</time>
      </trkpt>
      <trkpt lat="48.81522" lon="-1.56977">
        <ele>24</ele>
        <time>2024-01-25T15:49:38Z</time>
      </trkpt>
      <trkpt lat="48.81526" lon="-1.56985">
        <ele>23.7</ele>
        <time>2024-01-25T15:49:39Z</time>
      </trkpt>
      <trkpt lat="48.81529" lon="-1.56994">
        <ele>23.3</ele>
        <time>2024-01-25T15:49:40Z</time>
      </trkpt>
      <trkpt lat="48.81533" lon="-1.57002">
        <ele>22.8</ele>
        <time>2024-01-25T15:49:41Z</time>
      </trkpt>
      <trkpt lat="48.81538" lon="-1.5701">
        <ele>22.4</ele>
        <time>2024-01-25T15:49:42Z</time>
      </trkpt>
      <trkpt lat="48.81543" lon="-1.57017">
        <ele>22.1</ele>
        <time>2024-01-25T15:49:43Z</time>
      </trkpt>
      <trkpt lat="48.81547" lon="-1.57023">
        <ele>21.9</ele>
        <time>2024-01-25T15:49:44Z</time>
      </trkpt>
      <trkpt lat="48.81553" lon="-1.57028">
        <ele>21.6</ele>
        <time>2024-01-25T15:49:45Z</time>
      </trkpt>
      <trkpt lat="48.81558" lon="-1.57033">
        <ele>21.3</ele>
        <time>2024-01-25T15:49:46Z</time>
      </trkpt>
      <trkpt lat="48.81565" lon="-1.57037">
        <ele>20.8</ele>
        <time>2024-01-25T15:49:47Z</time>
      </trkpt>
      <trkpt lat="48.81571" lon="-1.5704">
        <ele>20.1</ele>
        <time>2024-01-25T15:49:48Z</time>
      </trkpt>
      <trkpt lat="48.81579" lon="-1.57042">
        <ele>19.4</ele>
        <time>2024-01-25T15:49:49Z</time>
      </trkpt>
      <trkpt lat="48.81586" lon="-1.57044">
        <ele>18.7</ele>
        <time>2024-01-25T15:49:50Z</time>
      </trkpt>
      <trkpt lat="48.81593" lon="-1.57047">
        <ele>18</ele>
        <time>2024-01-25T15:49:51Z</time>
      </trkpt>
      <trkpt lat="48.816" lon="-1.5705">
        <ele>17.3</ele>
        <time>2024-01-25T15:49:52Z</time>
      </trkpt>
      <trkpt lat="48.81606" lon="-1.57053">
        <ele>16.7</ele>
        <time>2024-01-25T15:49:53Z</time>
      </trkpt>
      <trkpt lat="48.81613" lon="-1.57056">
        <ele>16.2</ele>
        <time>2024-01-25T15:49:54Z</time>
      </trkpt>
      <trkpt lat="48.81619" lon="-1.57059">
        <ele>15.8</ele>
        <time>2024-01-25T15:49:55Z</time>
      </trkpt>
      <trkpt lat="48.81625" lon="-1.57061">
        <ele>15.5</ele>
        <time>2024-01-25T15:49:56Z</time>
      </trkpt>
      <trkpt lat="48.8163" lon="-1.57064">
        <ele>15.1</ele>
        <time>2024-01-25T15:49:57Z</time>
      </trkpt>
      <trkpt lat="48.81634" lon="-1.57069">
        <ele>14.8</ele>
        <time>2024-01-25T15:49:58Z</time>
      </trkpt>
      <trkpt lat="48.81636" lon="-1.57075">
        <ele>14.4</ele>
        <time>2024-01-25T15:49:59Z</time>
      </trkpt>
      <trkpt lat="48.81636" lon="-1.57083">
        <ele>14</ele>
        <time>2024-01-25T15:50:00Z</time>
      </trkpt>
      <trkpt lat="48.81636" lon="-1.57092">
        <ele>13.5</ele>
        <time>2024-01-25T15:50:01Z</time>
      </trkpt>
      <trkpt lat="48.81637" lon="-1.57103">
        <ele>13.1</ele>
        <time>2024-01-25T15:50:02Z</time>
      </trkpt>
      <trkpt lat="48.81638" lon="-1.57113">
        <ele>12.6</ele>
        <time>2024-01-25T15:50:03Z</time>
      </trkpt>
      <trkpt lat="48.8164" lon="-1.57125">
        <ele>12.2</ele>
        <time>2024-01-25T15:50:04Z</time>
      </trkpt>
      <trkpt lat="48.81641" lon="-1.57137">
        <ele>11.9</ele>
        <time>2024-01-25T15:50:05Z</time>
      </trkpt>
      <trkpt lat="48.81643" lon="-1.57149">
        <ele>11.8</ele>
        <time>2024-01-25T15:50:06Z</time>
      </trkpt>
      <trkpt lat="48.81646" lon="-1.57161">
        <ele>11.6</ele>
        <time>2024-01-25T15:50:07Z</time>
      </trkpt>
      <trkpt lat="48.8165" lon="-1.57172">
        <ele>11.5</ele>
        <time>2024-01-25T15:50:08Z</time>
      </trkpt>
      <trkpt lat="48.81655" lon="-1.57181">
        <ele>11.3</ele>
        <time>2024-01-25T15:50:09Z</time>
      </trkpt>
      <trkpt lat="48.81662" lon="-1.57187">
        <ele>11.2</ele>
        <time>2024-01-25T15:50:10Z</time>
      </trkpt>
      <trkpt lat="48.81669" lon="-1.57192">
        <ele>11</ele>
        <time>2024-01-25T15:50:11Z</time>
      </trkpt>
      <trkpt lat="48.81676" lon="-1.57196">
        <ele>10.9</ele>
        <time>2024-01-25T15:50:12Z</time>
      </trkpt>
      <trkpt lat="48.81683" lon="-1.572">
        <ele>10.8</ele>
        <time>2024-01-25T15:50:13Z</time>
      </trkpt>
      <trkpt lat="48.81691" lon="-1.57203">
        <ele>10.7</ele>
        <time>2024-01-25T15:50:14Z</time>
      </trkpt>
      <trkpt lat="48.81698" lon="-1.57205">
        <ele>10.6</ele>
        <time>2024-01-25T15:50:15Z</time>
      </trkpt>
      <trkpt lat="48.81706" lon="-1.57206">
        <ele>10.5</ele>
        <time>2024-01-25T15:50:16Z</time>
      </trkpt>
      <trkpt lat="48.81713" lon="-1.57209">
        <ele>10.5</ele>
        <time>2024-01-25T15:50:17Z</time>
      </trkpt>
      <trkpt lat="48.81721" lon="-1.57212">
        <ele>10.5</ele>
        <time>2024-01-25T15:50:18Z</time>
      </trkpt>
      <trkpt lat="48.81729" lon="-1.57214">
        <ele>10.6</ele>
        <time>2024-01-25T15:50:19Z</time>
      </trkpt>
      <trkpt lat="48.81737" lon="-1.57217">
        <ele>10.6</ele>
        <time>2024-01-25T15:50:20Z</time>
      </trkpt>
      <trkpt lat="48.81745" lon="-1.57219">
        <ele>10.7</ele>
        <time>2024-01-25T15:50:21Z</time>
      </trkpt>
      <trkpt lat="48.81752" lon="-1.57221">
        <ele>10.8</ele>
        <time>2024-01-25T15:50:22Z</time>
      </trkpt>
      <trkpt lat="48.81759" lon="-1.57223">
        <ele>10.8</ele>
        <time>2024-01-25T15:50:23Z</time>
      </trkpt>
      <trkpt lat="48.81765" lon="-1.57226">
        <ele>10.9</ele>
        <time>2024-01-25T15:50:24Z</time>
      </trkpt>
      <trkpt lat="48.81771" lon="-1.57228">
        <ele>11</ele>
        <time>2024-01-25T15:50:25Z</time>
      </trkpt>
      <trkpt lat="48.81778" lon="-1.57229">
        <ele>11.1</ele>
        <time>2024-01-25T15:50:26Z</time>
      </trkpt>
      <trkpt lat="48.81784" lon="-1.57231">
        <ele>11.1</ele>
        <time>2024-01-25T15:50:27Z</time>
      </trkpt>
      <trkpt lat="48.81791" lon="-1.57234">
        <ele>11.2</ele>
        <time>2024-01-25T15:50:28Z</time>
      </trkpt>
      <trkpt lat="48.81798" lon="-1.57236">
        <ele>11.2</ele>
        <time>2024-01-25T15:50:29Z</time>
      </trkpt>
      <trkpt lat="48.81805" lon="-1.57237">
        <ele>11.3</ele>
        <time>2024-01-25T15:50:30Z</time>
      </trkpt>
      <trkpt lat="48.81812" lon="-1.57238">
        <ele>11.3</ele>
        <time>2024-01-25T15:50:31Z</time>
      </trkpt>
      <trkpt lat="48.81819" lon="-1.57239">
        <ele>11.4</ele>
        <time>2024-01-25T15:50:32Z</time>
      </trkpt>
      <trkpt lat="48.81826" lon="-1.5724">
        <ele>11.4</ele>
        <time>2024-01-25T15:50:33Z</time>
      </trkpt>
      <trkpt lat="48.81832" lon="-1.57242">
        <ele>11.5</ele>
        <time>2024-01-25T15:50:34Z</time>
      </trkpt>
      <trkpt lat="48.81839" lon="-1.57245">
        <ele>11.5</ele>
        <time>2024-01-25T15:50:35Z</time>
      </trkpt>
      <trkpt lat="48.81845" lon="-1.57247">
        <ele>11.5</ele>
        <time>2024-01-25T15:50:36Z</time>
      </trkpt>
      <trkpt lat="48.8185" lon="-1.57249">
        <ele>11.5</ele>
        <time>2024-01-25T15:50:37Z</time>
      </trkpt>
      <trkpt lat="48.81856" lon="-1.57252">
        <ele>11.6</ele>
        <time>2024-01-25T15:50:38Z</time>
      </trkpt>
      <trkpt lat="48.81862" lon="-1.57255">
        <ele>11.6</ele>
        <time>2024-01-25T15:50:39Z</time>
      </trkpt>
      <trkpt lat="48.81868" lon="-1.57257">
        <ele>11.6</ele>
        <time>2024-01-25T15:50:40Z</time>
      </trkpt>
      <trkpt lat="48.81875" lon="-1.57258">
        <ele>11.6</ele>
        <time>2024-01-25T15:50:41Z</time>
      </trkpt>
      <trkpt lat="48.81881" lon="-1.5726">
        <ele>11.6</ele>
        <time>2024-01-25T15:50:42Z</time>
      </trkpt>
      <trkpt lat="48.81888" lon="-1.57262">
        <ele>11.6</ele>
        <time>2024-01-25T15:50:43Z</time>
      </trkpt>
      <trkpt lat="48.81894" lon="-1.57264">
        <ele>11.6</ele>
        <time>2024-01-25T15:50:44Z</time>
      </trkpt>
      <trkpt lat="48.81901" lon="-1.57267">
        <ele>11.7</ele>
        <time>2024-01-25T15:50:45Z</time>
      </trkpt>
      <trkpt lat="48.81907" lon="-1.57269">
        <ele>11.7</ele>
        <time>2024-01-25T15:50:46Z</time>
      </trkpt>
      <trkpt lat="48.81914" lon="-1.57271">
        <ele>11.7</ele>
        <time>2024-01-25T15:50:47Z</time>
      </trkpt>
      <trkpt lat="48.81921" lon="-1.57274">
        <ele>11.8</ele>
        <time>2024-01-25T15:50:48Z</time>
      </trkpt>
      <trkpt lat="48.81927" lon="-1.57276">
        <ele>11.8</ele>
        <time>2024-01-25T15:50:49Z</time>
      </trkpt>
      <trkpt lat="48.81934" lon="-1.57278">
        <ele>11.8</ele>
        <time>2024-01-25T15:50:50Z</time>
      </trkpt>
      <trkpt lat="48.8194" lon="-1.5728">
        <ele>11.8</ele>
        <time>2024-01-25T15:50:51Z</time>
      </trkpt>
      <trkpt lat="48.81947" lon="-1.57281">
        <ele>11.7</ele>
        <time>2024-01-25T15:50:52Z</time>
      </trkpt>
      <trkpt lat="48.81954" lon="-1.57282">
        <ele>11.7</ele>
        <time>2024-01-25T15:50:53Z</time>
      </trkpt>
      <trkpt lat="48.81961" lon="-1.57283">
        <ele>11.7</ele>
        <time>2024-01-25T15:50:54Z</time>
      </trkpt>
      <trkpt lat="48.81967" lon="-1.57285">
        <ele>11.7</ele>
        <time>2024-01-25T15:50:55Z</time>
      </trkpt>
      <trkpt lat="48.81974" lon="-1.57286">
        <ele>11.7</ele>
        <time>2024-01-25T15:50:56Z</time>
      </trkpt>
      <trkpt lat="48.8198" lon="-1.57288">
        <ele>11.7</ele>
        <time>2024-01-25T15:50:57Z</time>
      </trkpt>
      <trkpt lat="48.81986" lon="-1.5729">
        <ele>11.7</ele>
        <time>2024-01-25T15:50:58Z</time>
      </trkpt>
      <trkpt lat="48.81992" lon="-1.57292">
        <ele>11.6</ele>
        <time>2024-01-25T15:50:59Z</time>
      </trkpt>
      <trkpt lat="48.81997" lon="-1.57294">
        <ele>11.6</ele>
        <time>2024-01-25T15:51:00Z</time>
      </trkpt>
      <trkpt lat="48.82003" lon="-1.57296">
        <ele>11.6</ele>
        <time>2024-01-25T15:51:01Z</time>
      </trkpt>
      <trkpt lat="48.82009" lon="-1.57298">
        <ele>11.6</ele>
        <time>2024-01-25T15:51:02Z</time>
      </trkpt>
      <trkpt lat="48.82015" lon="-1.573">
        <ele>11.6</ele>
        <time>2024-01-25T15:51:03Z</time>
      </trkpt>
      <trkpt lat="48.82021" lon="-1.57302">
        <ele>11.6</ele>
        <time>2024-01-25T15:51:04Z</time>
      </trkpt>
      <trkpt lat="48.82027" lon="-1.57303">
        <ele>11.7</ele>
        <time>2024-01-25T15:51:05Z</time>
      </trkpt>
      <trkpt lat="48.82033" lon="-1.57305">
        <ele>11.7</ele>
        <time>2024-01-25T15:51:06Z</time>
      </trkpt>
      <trkpt lat="48.82039" lon="-1.57306">
        <ele>11.8</ele>
        <time>2024-01-25T15:51:07Z</time>
      </trkpt>
      <trkpt lat="48.82045" lon="-1.57307">
        <ele>11.9</ele>
        <time>2024-01-25T15:51:08Z</time>
      </trkpt>
      <trkpt lat="48.8205" lon="-1.57309">
        <ele>12</ele>
        <time>2024-01-25T15:51:09Z</time>
      </trkpt>
      <trkpt lat="48.82056" lon="-1.5731">
        <ele>12</ele>
        <time>2024-01-25T15:51:10Z</time>
      </trkpt>
      <trkpt lat="48.82062" lon="-1.5731">
        <ele>12.1</ele>
        <time>2024-01-25T15:51:11Z</time>
      </trkpt>
      <trkpt lat="48.82068" lon="-1.57311">
        <ele>12.2</ele>
        <time>2024-01-25T15:51:12Z</time>
      </trkpt>
      <trkpt lat="48.82073" lon="-1.57312">
        <ele>12.4</ele>
        <time>2024-01-25T15:51:13Z</time>
      </trkpt>
      <trkpt lat="48.82079" lon="-1.57313">
        <ele>12.5</ele>
        <time>2024-01-25T15:51:14Z</time>
      </trkpt>
      <trkpt lat="48.82084" lon="-1.57314">
        <ele>12.7</ele>
        <time>2024-01-25T15:51:15Z</time>
      </trkpt>
      <trkpt lat="48.82088" lon="-1.57317">
        <ele>12.8</ele>
        <time>2024-01-25T15:51:16Z</time>
      </trkpt>
      <trkpt lat="48.82093" lon="-1.57319">
        <ele>13</ele>
        <time>2024-01-25T15:51:17Z</time>
      </trkpt>
      <trkpt lat="48.82098" lon="-1.57321">
        <ele>13.1</ele>
        <time>2024-01-25T15:51:18Z</time>
      </trkpt>
      <trkpt lat="48.82103" lon="-1.57323">
        <ele>13.3</ele>
        <time>2024-01-25T15:51:19Z</time>
      </trkpt>
      <trkpt lat="48.82107" lon="-1.57324">
        <ele>13.4</ele>
        <time>2024-01-25T15:51:20Z</time>
      </trkpt>
      <trkpt lat="48.82112" lon="-1.57326">
        <ele>13.6</ele>
        <time>2024-01-25T15:51:21Z</time>
      </trkpt>
      <trkpt lat="48.82117" lon="-1.57327">
        <ele>13.8</ele>
        <time>2024-01-25T15:51:22Z</time>
      </trkpt>
      <trkpt lat="48.82122" lon="-1.57328">
        <ele>13.9</ele>
        <time>2024-01-25T15:51:23Z</time>
      </trkpt>
      <trkpt lat="48.82127" lon="-1.57331">
        <ele>14.1</ele>
        <time>2024-01-25T15:51:24Z</time>
      </trkpt>
      <trkpt lat="48.82131" lon="-1.57333">
        <ele>14.3</ele>
        <time>2024-01-25T15:51:25Z</time>
      </trkpt>
      <trkpt lat="48.82135" lon="-1.57335">
        <ele>14.5</ele>
        <time>2024-01-25T15:51:26Z</time>
      </trkpt>
      <trkpt lat="48.8214" lon="-1.57336">
        <ele>14.7</ele>
        <time>2024-01-25T15:51:27Z</time>
      </trkpt>
      <trkpt lat="48.82144" lon="-1.57338">
        <ele>14.9</ele>
        <time>2024-01-25T15:51:28Z</time>
      </trkpt>
      <trkpt lat="48.82149" lon="-1.57339">
        <ele>15.2</ele>
        <time>2024-01-25T15:51:29Z</time>
      </trkpt>
      <trkpt lat="48.82153" lon="-1.57338">
        <ele>15.5</ele>
        <time>2024-01-25T15:51:30Z</time>
      </trkpt>
      <trkpt lat="48.82156" lon="-1.57339">
        <ele>15.8</ele>
        <time>2024-01-25T15:51:31Z</time>
      </trkpt>
      <trkpt lat="48.8216" lon="-1.57341">
        <ele>16.1</ele>
        <time>2024-01-25T15:51:32Z</time>
      </trkpt>
      <trkpt lat="48.82163" lon="-1.57346">
        <ele>16.1</ele>
        <time>2024-01-25T15:51:34Z</time>
      </trkpt>
      <trkpt lat="48.82165" lon="-1.57356">
        <ele>16.2</ele>
        <time>2024-01-25T15:51:35Z</time>
      </trkpt>
      <trkpt lat="48.82164" lon="-1.57362">
        <ele>16.2</ele>
        <time>2024-01-25T15:51:36Z</time>
      </trkpt>
      <trkpt lat="48.82163" lon="-1.57369">
        <ele>16.2</ele>
        <time>2024-01-25T15:51:37Z</time>
      </trkpt>
      <trkpt lat="48.82164" lon="-1.57373">
        <ele>16.5</ele>
        <time>2024-01-25T15:51:38Z</time>
      </trkpt>
      <trkpt lat="48.82164" lon="-1.57375">
        <ele>16.6</ele>
        <time>2024-01-25T15:51:39Z</time>
      </trkpt>
      <trkpt lat="48.82165" lon="-1.57378">
        <ele>16.7</ele>
        <time>2024-01-25T15:51:40Z</time>
      </trkpt>
      <trkpt lat="48.82166" lon="-1.57382">
        <ele>16.9</ele>
        <time>2024-01-25T15:51:41Z</time>
      </trkpt>
      <trkpt lat="48.82166" lon="-1.57383">
        <ele>17</ele>
        <time>2024-01-25T15:51:42Z</time>
      </trkpt>
      <trkpt lat="48.82167" lon="-1.57388">
        <ele>17.2</ele>
        <time>2024-01-25T15:51:43Z</time>
      </trkpt>
      <trkpt lat="48.82167" lon="-1.5739">
        <ele>17.3</ele>
        <time>2024-01-25T15:51:44Z</time>
      </trkpt>
      <trkpt lat="48.82167" lon="-1.57395">
        <ele>17.6</ele>
        <time>2024-01-25T15:51:45Z</time>
      </trkpt>
      <trkpt lat="48.82169" lon="-1.57399">
        <ele>17.8</ele>
        <time>2024-01-25T15:51:46Z</time>
      </trkpt>
      <trkpt lat="48.8217" lon="-1.57403">
        <ele>18</ele>
        <time>2024-01-25T15:51:47Z</time>
      </trkpt>
      <trkpt lat="48.82172" lon="-1.57407">
        <ele>18.2</ele>
        <time>2024-01-25T15:51:48Z</time>
      </trkpt>
      <trkpt lat="48.82174" lon="-1.5741">
        <ele>18.4</ele>
        <time>2024-01-25T15:51:49Z</time>
      </trkpt>
      <trkpt lat="48.82175" lon="-1.57414">
        <ele>18.6</ele>
        <time>2024-01-25T15:51:50Z</time>
      </trkpt>
      <trkpt lat="48.82177" lon="-1.57418">
        <ele>18.8</ele>
        <time>2024-01-25T15:51:51Z</time>
      </trkpt>
      <trkpt lat="48.82181" lon="-1.57421">
        <ele>19.1</ele>
        <time>2024-01-25T15:51:52Z</time>
      </trkpt>
      <trkpt lat="48.82184" lon="-1.57422">
        <ele>19.4</ele>
        <time>2024-01-25T15:51:53Z</time>
      </trkpt>
      <trkpt lat="48.82188" lon="-1.57423">
        <ele>19.6</ele>
        <time>2024-01-25T15:51:54Z</time>
      </trkpt>
      <trkpt lat="48.8219" lon="-1.57426">
        <ele>19.8</ele>
        <time>2024-01-25T15:51:55Z</time>
      </trkpt>
      <trkpt lat="48.82194" lon="-1.57428">
        <ele>20.1</ele>
        <time>2024-01-25T15:51:56Z</time>
      </trkpt>
      <trkpt lat="48.82196" lon="-1.57429">
        <ele>20.2</ele>
        <time>2024-01-25T15:51:57Z</time>
      </trkpt>
      <trkpt lat="48.82199" lon="-1.57431">
        <ele>20.4</ele>
        <time>2024-01-25T15:51:58Z</time>
      </trkpt>
      <trkpt lat="48.822" lon="-1.57432">
        <ele>20.5</ele>
        <time>2024-01-25T15:51:59Z</time>
      </trkpt>
      <trkpt lat="48.82203" lon="-1.57434">
        <ele>20.7</ele>
        <time>2024-01-25T15:52:00Z</time>
      </trkpt>
      <trkpt lat="48.82208" lon="-1.57439">
        <ele>21.1</ele>
        <time>2024-01-25T15:52:02Z</time>
      </trkpt>
      <trkpt lat="48.82211" lon="-1.57443">
        <ele>21.3</ele>
        <time>2024-01-25T15:52:04Z</time>
      </trkpt>
      <trkpt lat="48.82214" lon="-1.57445">
        <ele>21.5</ele>
        <time>2024-01-25T15:52:05Z</time>
      </trkpt>
      <trkpt lat="48.82219" lon="-1.57448">
        <ele>21.8</ele>
        <time>2024-01-25T15:52:06Z</time>
      </trkpt>
      <trkpt lat="48.82223" lon="-1.5745">
        <ele>22.1</ele>
        <time>2024-01-25T15:52:07Z</time>
      </trkpt>
      <trkpt lat="48.82226" lon="-1.57452">
        <ele>22.3</ele>
        <time>2024-01-25T15:52:08Z</time>
      </trkpt>
      <trkpt lat="48.82229" lon="-1.57454">
        <ele>22.5</ele>
        <time>2024-01-25T15:52:09Z</time>
      </trkpt>
      <trkpt lat="48.82232" lon="-1.57456">
        <ele>22.8</ele>
        <time>2024-01-25T15:52:10Z</time>
      </trkpt>
      <trkpt lat="48.82236" lon="-1.57459">
        <ele>23.1</ele>
        <time>2024-01-25T15:52:11Z</time>
      </trkpt>
      <trkpt lat="48.82239" lon="-1.57462">
        <ele>23.3</ele>
        <time>2024-01-25T15:52:12Z</time>
      </trkpt>
      <trkpt lat="48.82242" lon="-1.57464">
        <ele>23.6</ele>
        <time>2024-01-25T15:52:13Z</time>
      </trkpt>
      <trkpt lat="48.82245" lon="-1.57467">
        <ele>23.9</ele>
        <time>2024-01-25T15:52:14Z</time>
      </trkpt>
      <trkpt lat="48.82249" lon="-1.5747">
        <ele>24.2</ele>
        <time>2024-01-25T15:52:15Z</time>
      </trkpt>
      <trkpt lat="48.82251" lon="-1.57472">
        <ele>24.4</ele>
        <time>2024-01-25T15:52:16Z</time>
      </trkpt>
      <trkpt lat="48.82254" lon="-1.57474">
        <ele>24.6</ele>
        <time>2024-01-25T15:52:17Z</time>
      </trkpt>
      <trkpt lat="48.82257" lon="-1.57476">
        <ele>24.8</ele>
        <time>2024-01-25T15:52:18Z</time>
      </trkpt>
      <trkpt lat="48.82261" lon="-1.57478">
        <ele>25.1</ele>
        <time>2024-01-25T15:52:19Z</time>
      </trkpt>
      <trkpt lat="48.82263" lon="-1.57479">
        <ele>25.3</ele>
        <time>2024-01-25T15:52:20Z</time>
      </trkpt>
      <trkpt lat="48.82266" lon="-1.57481">
        <ele>25.5</ele>
        <time>2024-01-25T15:52:21Z</time>
      </trkpt>
      <trkpt lat="48.82269" lon="-1.57483">
        <ele>25.7</ele>
        <time>2024-01-25T15:52:22Z</time>
      </trkpt>
      <trkpt lat="48.82272" lon="-1.57485">
        <ele>25.9</ele>
        <time>2024-01-25T15:52:23Z</time>
      </trkpt>
      <trkpt lat="48.82275" lon="-1.57487">
        <ele>26</ele>
        <time>2024-01-25T15:52:24Z</time>
      </trkpt>
      <trkpt lat="48.82278" lon="-1.57489">
        <ele>26.2</ele>
        <time>2024-01-25T15:52:25Z</time>
      </trkpt>
      <trkpt lat="48.82281" lon="-1.57491">
        <ele>26.3</ele>
        <time>2024-01-25T15:52:26Z</time>
      </trkpt>
      <trkpt lat="48.82285" lon="-1.57493">
        <ele>26.5</ele>
        <time>2024-01-25T15:52:27Z</time>
      </trkpt>
      <trkpt lat="48.82289" lon="-1.57495">
        <ele>26.6</ele>
        <time>2024-01-25T15:52:28Z</time>
      </trkpt>
      <trkpt lat="48.82292" lon="-1.57497">
        <ele>26.7</ele>
        <time>2024-01-25T15:52:29Z</time>
      </trkpt>
      <trkpt lat="48.82296" lon="-1.57498">
        <ele>26.7</ele>
        <time>2024-01-25T15:52:30Z</time>
      </trkpt>
      <trkpt lat="48.823" lon="-1.575">
        <ele>26.8</ele>
        <time>2024-01-25T15:52:31Z</time>
      </trkpt>
      <trkpt lat="48.82304" lon="-1.57501">
        <ele>26.8</ele>
        <time>2024-01-25T15:52:32Z</time>
      </trkpt>
      <trkpt lat="48.8231" lon="-1.57503">
        <ele>26.8</ele>
        <time>2024-01-25T15:52:33Z</time>
      </trkpt>
      <trkpt lat="48.82315" lon="-1.57505">
        <ele>26.8</ele>
        <time>2024-01-25T15:52:34Z</time>
      </trkpt>
      <trkpt lat="48.8232" lon="-1.57508">
        <ele>26.8</ele>
        <time>2024-01-25T15:52:35Z</time>
      </trkpt>
      <trkpt lat="48.82324" lon="-1.57511">
        <ele>26.8</ele>
        <time>2024-01-25T15:52:36Z</time>
      </trkpt>
      <trkpt lat="48.82329" lon="-1.57513">
        <ele>26.8</ele>
        <time>2024-01-25T15:52:37Z</time>
      </trkpt>
      <trkpt lat="48.82334" lon="-1.57515">
        <ele>26.8</ele>
        <time>2024-01-25T15:52:38Z</time>
      </trkpt>
      <trkpt lat="48.82339" lon="-1.57518">
        <ele>26.8</ele>
        <time>2024-01-25T15:52:39Z</time>
      </trkpt>
      <trkpt lat="48.82343" lon="-1.57521">
        <ele>26.8</ele>
        <time>2024-01-25T15:52:40Z</time>
      </trkpt>
      <trkpt lat="48.82348" lon="-1.57524">
        <ele>26.8</ele>
        <time>2024-01-25T15:52:41Z</time>
      </trkpt>
      <trkpt lat="48.82353" lon="-1.57527">
        <ele>26.8</ele>
        <time>2024-01-25T15:52:42Z</time>
      </trkpt>
      <trkpt lat="48.82358" lon="-1.5753">
        <ele>26.8</ele>
        <time>2024-01-25T15:52:43Z</time>
      </trkpt>
      <trkpt lat="48.82363" lon="-1.57533">
        <ele>26.7</ele>
        <time>2024-01-25T15:52:44Z</time>
      </trkpt>
      <trkpt lat="48.82368" lon="-1.57537">
        <ele>26.7</ele>
        <time>2024-01-25T15:52:45Z</time>
      </trkpt>
      <trkpt lat="48.82372" lon="-1.57541">
        <ele>26.6</ele>
        <time>2024-01-25T15:52:46Z</time>
      </trkpt>
      <trkpt lat="48.82377" lon="-1.57545">
        <ele>26.5</ele>
        <time>2024-01-25T15:52:47Z</time>
      </trkpt>
      <trkpt lat="48.82382" lon="-1.5755">
        <ele>26.5</ele>
        <time>2024-01-25T15:52:48Z</time>
      </trkpt>
      <trkpt lat="48.82386" lon="-1.57554">
        <ele>26.5</ele>
        <time>2024-01-25T15:52:49Z</time>
      </trkpt>
      <trkpt lat="48.8239" lon="-1.57559">
        <ele>26.4</ele>
        <time>2024-01-25T15:52:50Z</time>
      </trkpt>
      <trkpt lat="48.82394" lon="-1.57564">
        <ele>26.4</ele>
        <time>2024-01-25T15:52:51Z</time>
      </trkpt>
      <trkpt lat="48.82398" lon="-1.5757">
        <ele>26.4</ele>
        <time>2024-01-25T15:52:52Z</time>
      </trkpt>
      <trkpt lat="48.82402" lon="-1.57576">
        <ele>26.4</ele>
        <time>2024-01-25T15:52:53Z</time>
      </trkpt>
      <trkpt lat="48.82407" lon="-1.57582">
        <ele>26.4</ele>
        <time>2024-01-25T15:52:54Z</time>
      </trkpt>
      <trkpt lat="48.82411" lon="-1.57588">
        <ele>26.4</ele>
        <time>2024-01-25T15:52:55Z</time>
      </trkpt>
      <trkpt lat="48.82415" lon="-1.57594">
        <ele>26.4</ele>
        <time>2024-01-25T15:52:56Z</time>
      </trkpt>
      <trkpt lat="48.82419" lon="-1.57601">
        <ele>26.4</ele>
        <time>2024-01-25T15:52:57Z</time>
      </trkpt>
      <trkpt lat="48.82423" lon="-1.57607">
        <ele>26.4</ele>
        <time>2024-01-25T15:52:58Z</time>
      </trkpt>
      <trkpt lat="48.82427" lon="-1.57613">
        <ele>26.4</ele>
        <time>2024-01-25T15:52:59Z</time>
      </trkpt>
      <trkpt lat="48.82432" lon="-1.57619">
        <ele>26.3</ele>
        <time>2024-01-25T15:53:00Z</time>
      </trkpt>
      <trkpt lat="48.82436" lon="-1.57625">
        <ele>26.3</ele>
        <time>2024-01-25T15:53:01Z</time>
      </trkpt>
      <trkpt lat="48.82439" lon="-1.57631">
        <ele>26.3</ele>
        <time>2024-01-25T15:53:02Z</time>
      </trkpt>
      <trkpt lat="48.82443" lon="-1.57638">
        <ele>26.2</ele>
        <time>2024-01-25T15:53:03Z</time>
      </trkpt>
      <trkpt lat="48.82447" lon="-1.57644">
        <ele>26.1</ele>
        <time>2024-01-25T15:53:04Z</time>
      </trkpt>
      <trkpt lat="48.82452" lon="-1.5765">
        <ele>26</ele>
        <time>2024-01-25T15:53:05Z</time>
      </trkpt>
      <trkpt lat="48.82457" lon="-1.57657">
        <ele>25.9</ele>
        <time>2024-01-25T15:53:06Z</time>
      </trkpt>
      <trkpt lat="48.82461" lon="-1.57663">
        <ele>25.8</ele>
        <time>2024-01-25T15:53:07Z</time>
      </trkpt>
      <trkpt lat="48.82466" lon="-1.57669">
        <ele>25.7</ele>
        <time>2024-01-25T15:53:08Z</time>
      </trkpt>
      <trkpt lat="48.82472" lon="-1.57675">
        <ele>25.6</ele>
        <time>2024-01-25T15:53:09Z</time>
      </trkpt>
      <trkpt lat="48.82477" lon="-1.57681">
        <ele>25.4</ele>
        <time>2024-01-25T15:53:10Z</time>
      </trkpt>
      <trkpt lat="48.82483" lon="-1.57687">
        <ele>25.2</ele>
        <time>2024-01-25T15:53:11Z</time>
      </trkpt>
      <trkpt lat="48.82488" lon="-1.57693">
        <ele>25</ele>
        <time>2024-01-25T15:53:12Z</time>
      </trkpt>
      <trkpt lat="48.82493" lon="-1.57698">
        <ele>24.9</ele>
        <time>2024-01-25T15:53:13Z</time>
      </trkpt>
      <trkpt lat="48.82499" lon="-1.57703">
        <ele>24.7</ele>
        <time>2024-01-25T15:53:14Z</time>
      </trkpt>
      <trkpt lat="48.82505" lon="-1.57709">
        <ele>24.5</ele>
        <time>2024-01-25T15:53:15Z</time>
      </trkpt>
      <trkpt lat="48.82511" lon="-1.57714">
        <ele>24.4</ele>
        <time>2024-01-25T15:53:16Z</time>
      </trkpt>
      <trkpt lat="48.82516" lon="-1.57719">
        <ele>24.2</ele>
        <time>2024-01-25T15:53:17Z</time>
      </trkpt>
      <trkpt lat="48.82522" lon="-1.57725">
        <ele>24.1</ele>
        <time>2024-01-25T15:53:18Z</time>
      </trkpt>
      <trkpt lat="48.82528" lon="-1.5773">
        <ele>24.1</ele>
        <time>2024-01-25T15:53:19Z</time>
      </trkpt>
      <trkpt lat="48.82533" lon="-1.57736">
        <ele>24.1</ele>
        <time>2024-01-25T15:53:20Z</time>
      </trkpt>
      <trkpt lat="48.82538" lon="-1.57741">
        <ele>24.1</ele>
        <time>2024-01-25T15:53:21Z</time>
      </trkpt>
      <trkpt lat="48.82543" lon="-1.57746">
        <ele>24.1</ele>
        <time>2024-01-25T15:53:22Z</time>
      </trkpt>
      <trkpt lat="48.82548" lon="-1.57751">
        <ele>24.1</ele>
        <time>2024-01-25T15:53:23Z</time>
      </trkpt>
      <trkpt lat="48.82554" lon="-1.57757">
        <ele>24.1</ele>
        <time>2024-01-25T15:53:24Z</time>
      </trkpt>
      <trkpt lat="48.82559" lon="-1.57762">
        <ele>24.2</ele>
        <time>2024-01-25T15:53:25Z</time>
      </trkpt>
      <trkpt lat="48.82564" lon="-1.57767">
        <ele>24.2</ele>
        <time>2024-01-25T15:53:26Z</time>
      </trkpt>
      <trkpt lat="48.82569" lon="-1.57772">
        <ele>24.3</ele>
        <time>2024-01-25T15:53:27Z</time>
      </trkpt>
      <trkpt lat="48.82574" lon="-1.57776">
        <ele>24.3</ele>
        <time>2024-01-25T15:53:28Z</time>
      </trkpt>
      <trkpt lat="48.82579" lon="-1.57781">
        <ele>24.4</ele>
        <time>2024-01-25T15:53:29Z</time>
      </trkpt>
      <trkpt lat="48.82583" lon="-1.57785">
        <ele>24.5</ele>
        <time>2024-01-25T15:53:30Z</time>
      </trkpt>
      <trkpt lat="48.82588" lon="-1.5779">
        <ele>24.6</ele>
        <time>2024-01-25T15:53:31Z</time>
      </trkpt>
      <trkpt lat="48.82593" lon="-1.57794">
        <ele>24.8</ele>
        <time>2024-01-25T15:53:32Z</time>
      </trkpt>
      <trkpt lat="48.82597" lon="-1.57797">
        <ele>25</ele>
        <time>2024-01-25T15:53:33Z</time>
      </trkpt>
      <trkpt lat="48.82602" lon="-1.57801">
        <ele>25.2</ele>
        <time>2024-01-25T15:53:34Z</time>
      </trkpt>
      <trkpt lat="48.82606" lon="-1.57804">
        <ele>25.3</ele>
        <time>2024-01-25T15:53:35Z</time>
      </trkpt>
      <trkpt lat="48.8261" lon="-1.57807">
        <ele>25.5</ele>
        <time>2024-01-25T15:53:36Z</time>
      </trkpt>
      <trkpt lat="48.82614" lon="-1.57809">
        <ele>25.7</ele>
        <time>2024-01-25T15:53:37Z</time>
      </trkpt>
      <trkpt lat="48.82618" lon="-1.57811">
        <ele>26</ele>
        <time>2024-01-25T15:53:38Z</time>
      </trkpt>
      <trkpt lat="48.82622" lon="-1.57814">
        <ele>26.2</ele>
        <time>2024-01-25T15:53:39Z</time>
      </trkpt>
      <trkpt lat="48.82626" lon="-1.57816">
        <ele>26.4</ele>
        <time>2024-01-25T15:53:40Z</time>
      </trkpt>
      <trkpt lat="48.82629" lon="-1.57818">
        <ele>26.6</ele>
        <time>2024-01-25T15:53:41Z</time>
      </trkpt>
      <trkpt lat="48.82633" lon="-1.57821">
        <ele>26.9</ele>
        <time>2024-01-25T15:53:42Z</time>
      </trkpt>
      <trkpt lat="48.82637" lon="-1.57823">
        <ele>27.1</ele>
        <time>2024-01-25T15:53:43Z</time>
      </trkpt>
      <trkpt lat="48.82641" lon="-1.57825">
        <ele>27.4</ele>
        <time>2024-01-25T15:53:44Z</time>
      </trkpt>
      <trkpt lat="48.82645" lon="-1.57826">
        <ele>27.6</ele>
        <time>2024-01-25T15:53:46Z</time>
      </trkpt>
      <trkpt lat="48.82649" lon="-1.57829">
        <ele>27.9</ele>
        <time>2024-01-25T15:53:47Z</time>
      </trkpt>
      <trkpt lat="48.82653" lon="-1.57832">
        <ele>28.2</ele>
        <time>2024-01-25T15:53:48Z</time>
      </trkpt>
      <trkpt lat="48.82658" lon="-1.57837">
        <ele>28.6</ele>
        <time>2024-01-25T15:53:49Z</time>
      </trkpt>
      <trkpt lat="48.82662" lon="-1.57838">
        <ele>28.8</ele>
        <time>2024-01-25T15:53:50Z</time>
      </trkpt>
      <trkpt lat="48.82666" lon="-1.57841">
        <ele>29.1</ele>
        <time>2024-01-25T15:53:51Z</time>
      </trkpt>
      <trkpt lat="48.82669" lon="-1.57843">
        <ele>29.3</ele>
        <time>2024-01-25T15:53:52Z</time>
      </trkpt>
      <trkpt lat="48.82672" lon="-1.57844">
        <ele>29.6</ele>
        <time>2024-01-25T15:53:53Z</time>
      </trkpt>
      <trkpt lat="48.82675" lon="-1.57846">
        <ele>29.8</ele>
        <time>2024-01-25T15:53:54Z</time>
      </trkpt>
      <trkpt lat="48.82679" lon="-1.57847">
        <ele>30</ele>
        <time>2024-01-25T15:53:55Z</time>
      </trkpt>
      <trkpt lat="48.82683" lon="-1.57848">
        <ele>30.3</ele>
        <time>2024-01-25T15:53:56Z</time>
      </trkpt>
      <trkpt lat="48.82686" lon="-1.5785">
        <ele>30.6</ele>
        <time>2024-01-25T15:53:57Z</time>
      </trkpt>
      <trkpt lat="48.82689" lon="-1.57852">
        <ele>30.8</ele>
        <time>2024-01-25T15:53:58Z</time>
      </trkpt>
      <trkpt lat="48.82692" lon="-1.57853">
        <ele>31</ele>
        <time>2024-01-25T15:53:59Z</time>
      </trkpt>
      <trkpt lat="48.82696" lon="-1.57855">
        <ele>31.3</ele>
        <time>2024-01-25T15:54:00Z</time>
      </trkpt>
      <trkpt lat="48.827" lon="-1.57857">
        <ele>31.6</ele>
        <time>2024-01-25T15:54:01Z</time>
      </trkpt>
      <trkpt lat="48.82703" lon="-1.57859">
        <ele>31.8</ele>
        <time>2024-01-25T15:54:02Z</time>
      </trkpt>
      <trkpt lat="48.82707" lon="-1.57861">
        <ele>32.1</ele>
        <time>2024-01-25T15:54:03Z</time>
      </trkpt>
      <trkpt lat="48.8271" lon="-1.57862">
        <ele>32.3</ele>
        <time>2024-01-25T15:54:04Z</time>
      </trkpt>
      <trkpt lat="48.82714" lon="-1.57864">
        <ele>32.6</ele>
        <time>2024-01-25T15:54:05Z</time>
      </trkpt>
      <trkpt lat="48.82718" lon="-1.57866">
        <ele>32.9</ele>
        <time>2024-01-25T15:54:06Z</time>
      </trkpt>
      <trkpt lat="48.82723" lon="-1.57867">
        <ele>33.2</ele>
        <time>2024-01-25T15:54:07Z</time>
      </trkpt>
      <trkpt lat="48.82726" lon="-1.57868">
        <ele>33.5</ele>
        <time>2024-01-25T15:54:08Z</time>
      </trkpt>
      <trkpt lat="48.8273" lon="-1.57869">
        <ele>33.7</ele>
        <time>2024-01-25T15:54:09Z</time>
      </trkpt>
      <trkpt lat="48.82733" lon="-1.57872">
        <ele>33.9</ele>
        <time>2024-01-25T15:54:10Z</time>
      </trkpt>
      <trkpt lat="48.82736" lon="-1.57874">
        <ele>34.2</ele>
        <time>2024-01-25T15:54:11Z</time>
      </trkpt>
      <trkpt lat="48.82739" lon="-1.57877">
        <ele>34.3</ele>
        <time>2024-01-25T15:54:12Z</time>
      </trkpt>
      <trkpt lat="48.82741" lon="-1.57879">
        <ele>34.5</ele>
        <time>2024-01-25T15:54:13Z</time>
      </trkpt>
      <trkpt lat="48.82745" lon="-1.57883">
        <ele>34.8</ele>
        <time>2024-01-25T15:54:14Z</time>
      </trkpt>
      <trkpt lat="48.82749" lon="-1.57886">
        <ele>35</ele>
        <time>2024-01-25T15:54:15Z</time>
      </trkpt>
      <trkpt lat="48.8275" lon="-1.57887">
        <ele>35.1</ele>
        <time>2024-01-25T15:54:16Z</time>
      </trkpt>
      <trkpt lat="48.82754" lon="-1.57889">
        <ele>35.3</ele>
        <time>2024-01-25T15:54:17Z</time>
      </trkpt>
      <trkpt lat="48.82757" lon="-1.57892">
        <ele>35.5</ele>
        <time>2024-01-25T15:54:18Z</time>
      </trkpt>
      <trkpt lat="48.82758" lon="-1.57893">
        <ele>35.6</ele>
        <time>2024-01-25T15:54:19Z</time>
      </trkpt>
      <trkpt lat="48.82761" lon="-1.57896">
        <ele>35.8</ele>
        <time>2024-01-25T15:54:20Z</time>
      </trkpt>
      <trkpt lat="48.82762" lon="-1.57897">
        <ele>35.8</ele>
        <time>2024-01-25T15:54:21Z</time>
      </trkpt>
      <trkpt lat="48.82765" lon="-1.57898">
        <ele>36</ele>
        <time>2024-01-25T15:54:22Z</time>
      </trkpt>
      <trkpt lat="48.82768" lon="-1.579">
        <ele>36.1</ele>
        <time>2024-01-25T15:54:23Z</time>
      </trkpt>
      <trkpt lat="48.82771" lon="-1.57903">
        <ele>36.3</ele>
        <time>2024-01-25T15:54:24Z</time>
      </trkpt>
      <trkpt lat="48.82775" lon="-1.57907">
        <ele>36.5</ele>
        <time>2024-01-25T15:54:26Z</time>
      </trkpt>
      <trkpt lat="48.82779" lon="-1.57909">
        <ele>36.7</ele>
        <time>2024-01-25T15:54:27Z</time>
      </trkpt>
      <trkpt lat="48.82782" lon="-1.57912">
        <ele>36.9</ele>
        <time>2024-01-25T15:54:28Z</time>
      </trkpt>
      <trkpt lat="48.82785" lon="-1.57914">
        <ele>37</ele>
        <time>2024-01-25T15:54:29Z</time>
      </trkpt>
      <trkpt lat="48.82788" lon="-1.57917">
        <ele>37.2</ele>
        <time>2024-01-25T15:54:30Z</time>
      </trkpt>
      <trkpt lat="48.82792" lon="-1.57919">
        <ele>37.3</ele>
        <time>2024-01-25T15:54:31Z</time>
      </trkpt>
      <trkpt lat="48.82795" lon="-1.57922">
        <ele>37.5</ele>
        <time>2024-01-25T15:54:32Z</time>
      </trkpt>
      <trkpt lat="48.82799" lon="-1.57924">
        <ele>37.6</ele>
        <time>2024-01-25T15:54:33Z</time>
      </trkpt>
      <trkpt lat="48.82802" lon="-1.57927">
        <ele>37.7</ele>
        <time>2024-01-25T15:54:34Z</time>
      </trkpt>
      <trkpt lat="48.82804" lon="-1.57931">
        <ele>37.8</ele>
        <time>2024-01-25T15:54:35Z</time>
      </trkpt>
      <trkpt lat="48.82807" lon="-1.57934">
        <ele>37.8</ele>
        <time>2024-01-25T15:54:36Z</time>
      </trkpt>
      <trkpt lat="48.82811" lon="-1.57938">
        <ele>37.9</ele>
        <time>2024-01-25T15:54:37Z</time>
      </trkpt>
      <trkpt lat="48.82814" lon="-1.57941">
        <ele>37.9</ele>
        <time>2024-01-25T15:54:38Z</time>
      </trkpt>
      <trkpt lat="48.82818" lon="-1.57944">
        <ele>38</ele>
        <time>2024-01-25T15:54:39Z</time>
      </trkpt>
      <trkpt lat="48.82821" lon="-1.57948">
        <ele>38</ele>
        <time>2024-01-25T15:54:40Z</time>
      </trkpt>
      <trkpt lat="48.82825" lon="-1.57953">
        <ele>38</ele>
        <time>2024-01-25T15:54:41Z</time>
      </trkpt>
      <trkpt lat="48.82828" lon="-1.57957">
        <ele>38</ele>
        <time>2024-01-25T15:54:42Z</time>
      </trkpt>
      <trkpt lat="48.82832" lon="-1.57961">
        <ele>38</ele>
        <time>2024-01-25T15:54:43Z</time>
      </trkpt>
      <trkpt lat="48.82836" lon="-1.57965">
        <ele>38</ele>
        <time>2024-01-25T15:54:44Z</time>
      </trkpt>
      <trkpt lat="48.82838" lon="-1.5797">
        <ele>38</ele>
        <time>2024-01-25T15:54:45Z</time>
      </trkpt>
      <trkpt lat="48.82842" lon="-1.57974">
        <ele>38</ele>
        <time>2024-01-25T15:54:46Z</time>
      </trkpt>
      <trkpt lat="48.82847" lon="-1.5798">
        <ele>38</ele>
        <time>2024-01-25T15:54:47Z</time>
      </trkpt>
      <trkpt lat="48.82851" lon="-1.57984">
        <ele>38</ele>
        <time>2024-01-25T15:54:48Z</time>
      </trkpt>
      <trkpt lat="48.82857" lon="-1.57991">
        <ele>38</ele>
        <time>2024-01-25T15:54:50Z</time>
      </trkpt>
      <trkpt lat="48.8286" lon="-1.57999">
        <ele>38</ele>
        <time>2024-01-25T15:54:51Z</time>
      </trkpt>
      <trkpt lat="48.82864" lon="-1.58009">
        <ele>37.9</ele>
        <time>2024-01-25T15:54:53Z</time>
      </trkpt>
      <trkpt lat="48.82868" lon="-1.58018">
        <ele>37.9</ele>
        <time>2024-01-25T15:54:55Z</time>
      </trkpt>
      <trkpt lat="48.82871" lon="-1.58023">
        <ele>37.9</ele>
        <time>2024-01-25T15:54:56Z</time>
      </trkpt>
      <trkpt lat="48.82874" lon="-1.58025">
        <ele>37.8</ele>
        <time>2024-01-25T15:54:57Z</time>
      </trkpt>
      <trkpt lat="48.82876" lon="-1.58028">
        <ele>37.8</ele>
        <time>2024-01-25T15:54:58Z</time>
      </trkpt>
      <trkpt lat="48.82878" lon="-1.58032">
        <ele>37.8</ele>
        <time>2024-01-25T15:54:59Z</time>
      </trkpt>
      <trkpt lat="48.82879" lon="-1.58033">
        <ele>37.8</ele>
        <time>2024-01-25T15:55:00Z</time>
      </trkpt>
      <trkpt lat="48.82879" lon="-1.58033">
        <ele>37.7</ele>
        <time>2024-01-25T15:55:01Z</time>
      </trkpt>
      <trkpt lat="48.82879" lon="-1.58034">
        <ele>37.7</ele>
        <time>2024-01-25T15:55:02Z</time>
      </trkpt>
      <trkpt lat="48.82879" lon="-1.58034">
        <ele>37.7</ele>
        <time>2024-01-25T15:55:03Z</time>
      </trkpt>
      <trkpt lat="48.82879" lon="-1.58034">
        <ele>37.7</ele>
        <time>2024-01-25T15:55:04Z</time>
      </trkpt>
      <trkpt lat="48.82879" lon="-1.58034">
        <ele>37.7</ele>
        <time>2024-01-25T15:55:05Z</time>
      </trkpt>
      <trkpt lat="48.82879" lon="-1.58034">
        <ele>37.7</ele>
        <time>2024-01-25T15:55:06Z</time>
      </trkpt>
      <trkpt lat="48.82879" lon="-1.58034">
        <ele>37.7</ele>
        <time>2024-01-25T15:55:07Z</time>
      </trkpt>
      <trkpt lat="48.8288" lon="-1.58034">
        <ele>37.7</ele>
        <time>2024-01-25T15:55:08Z</time>
      </trkpt>
      <trkpt lat="48.8288" lon="-1.58034">
        <ele>37.7</ele>
        <time>2024-01-25T15:55:09Z</time>
      </trkpt>
      <trkpt lat="48.8288" lon="-1.58034">
        <ele>37.7</ele>
        <time>2024-01-25T15:55:10Z</time>
      </trkpt>
      <trkpt lat="48.8288" lon="-1.58034">
        <ele>37.7</ele>
        <time>2024-01-25T15:55:11Z</time>
      </trkpt>
      <trkpt lat="48.8288" lon="-1.58034">
        <ele>37.7</ele>
        <time>2024-01-25T15:55:12Z</time>
      </trkpt>
      <trkpt lat="48.8288" lon="-1.58034">
        <ele>37.7</ele>
        <time>2024-01-25T15:55:13Z</time>
      </trkpt>
      <trkpt lat="48.82879" lon="-1.58034">
        <ele>37.7</ele>
        <time>2024-01-25T15:55:14Z</time>
      </trkpt>
      <trkpt lat="48.82879" lon="-1.58033">
        <ele>37.7</ele>
        <time>2024-01-25T15:55:15Z</time>
      </trkpt>
      <trkpt lat="48.82879" lon="-1.58033">
        <ele>37.7</ele>
        <time>2024-01-25T15:55:16Z</time>
      </trkpt>
      <trkpt lat="48.82879" lon="-1.58033">
        <ele>37.7</ele>
        <time>2024-01-25T15:55:18Z</time>
      </trkpt>
      <trkpt lat="48.82879" lon="-1.58033">
        <ele>37.7</ele>
        <time>2024-01-25T15:55:19Z</time>
      </trkpt>
      <trkpt lat="48.82879" lon="-1.58033">
        <ele>37.7</ele>
        <time>2024-01-25T15:55:20Z</time>
      </trkpt>
      <trkpt lat="48.82879" lon="-1.58033">
        <ele>37.7</ele>
        <time>2024-01-25T15:55:21Z</time>
      </trkpt>
      <trkpt lat="48.82879" lon="-1.58033">
        <ele>37.7</ele>
        <time>2024-01-25T15:55:22Z</time>
      </trkpt>
      <trkpt lat="48.82879" lon="-1.58033">
        <ele>37.7</ele>
        <time>2024-01-25T15:55:23Z</time>
      </trkpt>
      <trkpt lat="48.82879" lon="-1.58033">
        <ele>37.7</ele>
        <time>2024-01-25T15:55:24Z</time>
      </trkpt>
      <trkpt lat="48.82879" lon="-1.58033">
        <ele>37.7</ele>
        <time>2024-01-25T15:55:25Z</time>
      </trkpt>
      <trkpt lat="48.82879" lon="-1.58033">
        <ele>37.7</ele>
        <time>2024-01-25T15:55:26Z</time>
      </trkpt>
      <trkpt lat="48.82879" lon="-1.58033">
        <ele>37.7</ele>
        <time>2024-01-25T15:55:27Z</time>
      </trkpt>
      <trkpt lat="48.82879" lon="-1.58033">
        <ele>37.7</ele>
        <time>2024-01-25T15:55:28Z</time>
      </trkpt>
      <trkpt lat="48.82879" lon="-1.58033">
        <ele>37.7</ele>
        <time>2024-01-25T15:55:29Z</time>
      </trkpt>
      <trkpt lat="48.82879" lon="-1.58033">
        <ele>37.7</ele>
        <time>2024-01-25T15:55:30Z</time>
      </trkpt>
      <trkpt lat="48.82879" lon="-1.58033">
        <ele>37.7</ele>
        <time>2024-01-25T15:55:31Z</time>
      </trkpt>
      <trkpt lat="48.82879" lon="-1.58033">
        <ele>37.7</ele>
        <time>2024-01-25T15:55:32Z</time>
      </trkpt>
      <trkpt lat="48.82879" lon="-1.58033">
        <ele>37.7</ele>
        <time>2024-01-25T15:55:33Z</time>
      </trkpt>
      <trkpt lat="48.82879" lon="-1.58033">
        <ele>37.7</ele>
        <time>2024-01-25T15:55:34Z</time>
      </trkpt>
      <trkpt lat="48.82879" lon="-1.58033">
        <ele>37.7</ele>
        <time>2024-01-25T15:55:35Z</time>
      </trkpt>
      <trkpt lat="48.82879" lon="-1.58033">
        <ele>37.7</ele>
        <time>2024-01-25T15:55:36Z</time>
      </trkpt>
      <trkpt lat="48.82879" lon="-1.58033">
        <ele>37.7</ele>
        <time>2024-01-25T15:55:37Z</time>
      </trkpt>
      <trkpt lat="48.82879" lon="-1.58033">
        <ele>37.7</ele>
        <time>2024-01-25T15:55:38Z</time>
      </trkpt>
      <trkpt lat="48.82879" lon="-1.58033">
        <ele>37.7</ele>
        <time>2024-01-25T15:55:39Z</time>
      </trkpt>
      <trkpt lat="48.82879" lon="-1.58033">
        <ele>37.7</ele>
        <time>2024-01-25T15:55:40Z</time>
      </trkpt>
      <trkpt lat="48.82879" lon="-1.58033">
        <ele>37.7</ele>
        <time>2024-01-25T15:55:41Z</time>
      </trkpt>
      <trkpt lat="48.82879" lon="-1.58033">
        <ele>37.7</ele>
        <time>2024-01-25T15:55:42Z</time>
      </trkpt>
      <trkpt lat="48.82879" lon="-1.58033">
        <ele>37.7</ele>
        <time>2024-01-25T15:55:43Z</time>
      </trkpt>
      <trkpt lat="48.82879" lon="-1.58033">
        <ele>37.7</ele>
        <time>2024-01-25T15:55:44Z</time>
      </trkpt>
      <trkpt lat="48.82879" lon="-1.58033">
        <ele>37.7</ele>
        <time>2024-01-25T15:55:45Z</time>
      </trkpt>
      <trkpt lat="48.82879" lon="-1.58033">
        <ele>37.7</ele>
        <time>2024-01-25T15:55:46Z</time>
      </trkpt>
      <trkpt lat="48.82879" lon="-1.58033">
        <ele>37.7</ele>
        <time>2024-01-25T15:55:47Z</time>
      </trkpt>
      <trkpt lat="48.82879" lon="-1.58033">
        <ele>37.7</ele>
        <time>2024-01-25T15:55:48Z</time>
      </trkpt>
      <trkpt lat="48.82879" lon="-1.58033">
        <ele>37.7</ele>
        <time>2024-01-25T15:55:49Z</time>
      </trkpt>
      <trkpt lat="48.82879" lon="-1.58033">
        <ele>37.7</ele>
        <time>2024-01-25T15:55:50Z</time>
      </trkpt>
      <trkpt lat="48.82886" lon="-1.58039">
        <ele>37.6</ele>
        <time>2024-01-25T15:55:52Z</time>
      </trkpt>
      <trkpt lat="48.82894" lon="-1.58045">
        <ele>37.4</ele>
        <time>2024-01-25T15:55:54Z</time>
      </trkpt>
      <trkpt lat="48.82898" lon="-1.58048">
        <ele>37.3</ele>
        <time>2024-01-25T15:55:55Z</time>
      </trkpt>
      <trkpt lat="48.82902" lon="-1.5805">
        <ele>37.2</ele>
        <time>2024-01-25T15:55:56Z</time>
      </trkpt>
      <trkpt lat="48.82905" lon="-1.5805">
        <ele>37.2</ele>
        <time>2024-01-25T15:55:57Z</time>
      </trkpt>
      <trkpt lat="48.8291" lon="-1.5805">
        <ele>37</ele>
        <time>2024-01-25T15:55:58Z</time>
      </trkpt>
      <trkpt lat="48.8292" lon="-1.58053">
        <ele>36.4</ele>
        <time>2024-01-25T15:56:00Z</time>
      </trkpt>
      <trkpt lat="48.82925" lon="-1.58057">
        <ele>36</ele>
        <time>2024-01-25T15:56:01Z</time>
      </trkpt>
      <trkpt lat="48.8293" lon="-1.58061">
        <ele>35.5</ele>
        <time>2024-01-25T15:56:02Z</time>
      </trkpt>
      <trkpt lat="48.82935" lon="-1.58067">
        <ele>35</ele>
        <time>2024-01-25T15:56:03Z</time>
      </trkpt>
      <trkpt lat="48.82941" lon="-1.58072">
        <ele>34.4</ele>
        <time>2024-01-25T15:56:04Z</time>
      </trkpt>
      <trkpt lat="48.82946" lon="-1.58078">
        <ele>33.8</ele>
        <time>2024-01-25T15:56:05Z</time>
      </trkpt>
      <trkpt lat="48.82953" lon="-1.58085">
        <ele>33.4</ele>
        <time>2024-01-25T15:56:06Z</time>
      </trkpt>
      <trkpt lat="48.8296" lon="-1.58091">
        <ele>33</ele>
        <time>2024-01-25T15:56:07Z</time>
      </trkpt>
      <trkpt lat="48.82967" lon="-1.58098">
        <ele>32.3</ele>
        <time>2024-01-25T15:56:08Z</time>
      </trkpt>
      <trkpt lat="48.82974" lon="-1.58104">
        <ele>31.5</ele>
        <time>2024-01-25T15:56:09Z</time>
      </trkpt>
      <trkpt lat="48.82982" lon="-1.58111">
        <ele>30.5</ele>
        <time>2024-01-25T15:56:10Z</time>
      </trkpt>
      <trkpt lat="48.82991" lon="-1.58117">
        <ele>29.6</ele>
        <time>2024-01-25T15:56:11Z</time>
      </trkpt>
      <trkpt lat="48.83" lon="-1.58124">
        <ele>28.7</ele>
        <time>2024-01-25T15:56:12Z</time>
      </trkpt>
      <trkpt lat="48.83009" lon="-1.58131">
        <ele>27.7</ele>
        <time>2024-01-25T15:56:13Z</time>
      </trkpt>
      <trkpt lat="48.83018" lon="-1.58138">
        <ele>26.7</ele>
        <time>2024-01-25T15:56:14Z</time>
      </trkpt>
      <trkpt lat="48.83027" lon="-1.58145">
        <ele>25.8</ele>
        <time>2024-01-25T15:56:15Z</time>
      </trkpt>
      <trkpt lat="48.83037" lon="-1.58153">
        <ele>25</ele>
        <time>2024-01-25T15:56:16Z</time>
      </trkpt>
      <trkpt lat="48.83047" lon="-1.5816">
        <ele>24.4</ele>
        <time>2024-01-25T15:56:17Z</time>
      </trkpt>
      <trkpt lat="48.83057" lon="-1.58167">
        <ele>23.7</ele>
        <time>2024-01-25T15:56:18Z</time>
      </trkpt>
      <trkpt lat="48.83068" lon="-1.58175">
        <ele>23</ele>
        <time>2024-01-25T15:56:19Z</time>
      </trkpt>
      <trkpt lat="48.83078" lon="-1.58183">
        <ele>22.5</ele>
        <time>2024-01-25T15:56:20Z</time>
      </trkpt>
      <trkpt lat="48.83089" lon="-1.58191">
        <ele>22</ele>
        <time>2024-01-25T15:56:21Z</time>
      </trkpt>
      <trkpt lat="48.83099" lon="-1.582">
        <ele>21.7</ele>
        <time>2024-01-25T15:56:22Z</time>
      </trkpt>
      <trkpt lat="48.8311" lon="-1.58208">
        <ele>21.6</ele>
        <time>2024-01-25T15:56:23Z</time>
      </trkpt>
      <trkpt lat="48.83119" lon="-1.58217">
        <ele>21.4</ele>
        <time>2024-01-25T15:56:24Z</time>
      </trkpt>
      <trkpt lat="48.83128" lon="-1.58226">
        <ele>21.5</ele>
        <time>2024-01-25T15:56:25Z</time>
      </trkpt>
      <trkpt lat="48.83136" lon="-1.58235">
        <ele>21.7</ele>
        <time>2024-01-25T15:56:26Z</time>
      </trkpt>
      <trkpt lat="48.83143" lon="-1.58244">
        <ele>22</ele>
        <time>2024-01-25T15:56:27Z</time>
      </trkpt>
      <trkpt lat="48.83149" lon="-1.58252">
        <ele>22.3</ele>
        <time>2024-01-25T15:56:28Z</time>
      </trkpt>
      <trkpt lat="48.83155" lon="-1.58259">
        <ele>22.6</ele>
        <time>2024-01-25T15:56:29Z</time>
      </trkpt>
      <trkpt lat="48.8316" lon="-1.58265">
        <ele>22.6</ele>
        <time>2024-01-25T15:56:30Z</time>
      </trkpt>
      <trkpt lat="48.83166" lon="-1.5827">
        <ele>22.8</ele>
        <time>2024-01-25T15:56:31Z</time>
      </trkpt>
      <trkpt lat="48.83169" lon="-1.58276">
        <ele>23.1</ele>
        <time>2024-01-25T15:56:32Z</time>
      </trkpt>
      <trkpt lat="48.8317" lon="-1.58283">
        <ele>23.2</ele>
        <time>2024-01-25T15:56:33Z</time>
      </trkpt>
      <trkpt lat="48.83169" lon="-1.58291">
        <ele>23.4</ele>
        <time>2024-01-25T15:56:34Z</time>
      </trkpt>
      <trkpt lat="48.83169" lon="-1.58299">
        <ele>23.7</ele>
        <time>2024-01-25T15:56:35Z</time>
      </trkpt>
      <trkpt lat="48.8317" lon="-1.58307">
        <ele>23.9</ele>
        <time>2024-01-25T15:56:36Z</time>
      </trkpt>
      <trkpt lat="48.83172" lon="-1.58315">
        <ele>24.2</ele>
        <time>2024-01-25T15:56:37Z</time>
      </trkpt>
      <trkpt lat="48.83174" lon="-1.58322">
        <ele>24.4</ele>
        <time>2024-01-25T15:56:38Z</time>
      </trkpt>
      <trkpt lat="48.83176" lon="-1.58329">
        <ele>24.7</ele>
        <time>2024-01-25T15:56:39Z</time>
      </trkpt>
      <trkpt lat="48.83178" lon="-1.58336">
        <ele>24.9</ele>
        <time>2024-01-25T15:56:40Z</time>
      </trkpt>
      <trkpt lat="48.8318" lon="-1.58342">
        <ele>25.1</ele>
        <time>2024-01-25T15:56:41Z</time>
      </trkpt>
      <trkpt lat="48.83181" lon="-1.58349">
        <ele>25.3</ele>
        <time>2024-01-25T15:56:42Z</time>
      </trkpt>
      <trkpt lat="48.83183" lon="-1.58353">
        <ele>25.5</ele>
        <time>2024-01-25T15:56:43Z</time>
      </trkpt>
      <trkpt lat="48.83184" lon="-1.5836">
        <ele>25.7</ele>
        <time>2024-01-25T15:56:44Z</time>
      </trkpt>
      <trkpt lat="48.83186" lon="-1.58365">
        <ele>25.9</ele>
        <time>2024-01-25T15:56:45Z</time>
      </trkpt>
      <trkpt lat="48.83189" lon="-1.58371">
        <ele>26.1</ele>
        <time>2024-01-25T15:56:46Z</time>
      </trkpt>
      <trkpt lat="48.83191" lon="-1.58376">
        <ele>26.3</ele>
        <time>2024-01-25T15:56:47Z</time>
      </trkpt>
      <trkpt lat="48.83193" lon="-1.5838">
        <ele>26.5</ele>
        <time>2024-01-25T15:56:48Z</time>
      </trkpt>
      <trkpt lat="48.83195" lon="-1.58385">
        <ele>26.7</ele>
        <time>2024-01-25T15:56:50Z</time>
      </trkpt>
      <trkpt lat="48.83198" lon="-1.58391">
        <ele>27</ele>
        <time>2024-01-25T15:56:51Z</time>
      </trkpt>
      <trkpt lat="48.83201" lon="-1.58396">
        <ele>27.3</ele>
        <time>2024-01-25T15:56:52Z</time>
      </trkpt>
      <trkpt lat="48.83204" lon="-1.584">
        <ele>27.5</ele>
        <time>2024-01-25T15:56:53Z</time>
      </trkpt>
      <trkpt lat="48.83208" lon="-1.58407">
        <ele>27.9</ele>
        <time>2024-01-25T15:56:54Z</time>
      </trkpt>
      <trkpt lat="48.8321" lon="-1.58411">
        <ele>28.2</ele>
        <time>2024-01-25T15:56:55Z</time>
      </trkpt>
      <trkpt lat="48.83213" lon="-1.58415">
        <ele>28.5</ele>
        <time>2024-01-25T15:56:56Z</time>
      </trkpt>
      <trkpt lat="48.83216" lon="-1.58419">
        <ele>28.7</ele>
        <time>2024-01-25T15:56:57Z</time>
      </trkpt>
      <trkpt lat="48.83219" lon="-1.58424">
        <ele>29</ele>
        <time>2024-01-25T15:56:58Z</time>
      </trkpt>
      <trkpt lat="48.83222" lon="-1.58428">
        <ele>29.3</ele>
        <time>2024-01-25T15:56:59Z</time>
      </trkpt>
      <trkpt lat="48.83224" lon="-1.58432">
        <ele>29.5</ele>
        <time>2024-01-25T15:57:00Z</time>
      </trkpt>
      <trkpt lat="48.83227" lon="-1.58436">
        <ele>29.8</ele>
        <time>2024-01-25T15:57:01Z</time>
      </trkpt>
      <trkpt lat="48.8323" lon="-1.5844">
        <ele>30</ele>
        <time>2024-01-25T15:57:02Z</time>
      </trkpt>
      <trkpt lat="48.83233" lon="-1.58444">
        <ele>30.3</ele>
        <time>2024-01-25T15:57:03Z</time>
      </trkpt>
      <trkpt lat="48.83235" lon="-1.58447">
        <ele>30.5</ele>
        <time>2024-01-25T15:57:04Z</time>
      </trkpt>
      <trkpt lat="48.83238" lon="-1.58451">
        <ele>30.8</ele>
        <time>2024-01-25T15:57:05Z</time>
      </trkpt>
      <trkpt lat="48.8324" lon="-1.58455">
        <ele>31</ele>
        <time>2024-01-25T15:57:06Z</time>
      </trkpt>
      <trkpt lat="48.83242" lon="-1.58458">
        <ele>31.3</ele>
        <time>2024-01-25T15:57:07Z</time>
      </trkpt>
      <trkpt lat="48.83245" lon="-1.58462">
        <ele>31.6</ele>
        <time>2024-01-25T15:57:08Z</time>
      </trkpt>
      <trkpt lat="48.83248" lon="-1.58466">
        <ele>31.8</ele>
        <time>2024-01-25T15:57:09Z</time>
      </trkpt>
      <trkpt lat="48.83252" lon="-1.5847">
        <ele>32.2</ele>
        <time>2024-01-25T15:57:10Z</time>
      </trkpt>
      <trkpt lat="48.83255" lon="-1.58474">
        <ele>32.4</ele>
        <time>2024-01-25T15:57:11Z</time>
      </trkpt>
      <trkpt lat="48.83258" lon="-1.58478">
        <ele>32.7</ele>
        <time>2024-01-25T15:57:12Z</time>
      </trkpt>
      <trkpt lat="48.83261" lon="-1.58482">
        <ele>33</ele>
        <time>2024-01-25T15:57:13Z</time>
      </trkpt>
      <trkpt lat="48.83263" lon="-1.58486">
        <ele>33.2</ele>
        <time>2024-01-25T15:57:14Z</time>
      </trkpt>
      <trkpt lat="48.83266" lon="-1.58491">
        <ele>33.5</ele>
        <time>2024-01-25T15:57:15Z</time>
      </trkpt>
      <trkpt lat="48.83269" lon="-1.58496">
        <ele>33.8</ele>
        <time>2024-01-25T15:57:16Z</time>
      </trkpt>
      <trkpt lat="48.83272" lon="-1.58501">
        <ele>34.1</ele>
        <time>2024-01-25T15:57:17Z</time>
      </trkpt>
      <trkpt lat="48.83274" lon="-1.58506">
        <ele>34.3</ele>
        <time>2024-01-25T15:57:18Z</time>
      </trkpt>
      <trkpt lat="48.83277" lon="-1.58511">
        <ele>34.6</ele>
        <time>2024-01-25T15:57:19Z</time>
      </trkpt>
      <trkpt lat="48.8328" lon="-1.58516">
        <ele>34.8</ele>
        <time>2024-01-25T15:57:20Z</time>
      </trkpt>
      <trkpt lat="48.83282" lon="-1.5852">
        <ele>35</ele>
        <time>2024-01-25T15:57:21Z</time>
      </trkpt>
      <trkpt lat="48.83284" lon="-1.58524">
        <ele>35.2</ele>
        <time>2024-01-25T15:57:22Z</time>
      </trkpt>
      <trkpt lat="48.83287" lon="-1.5853">
        <ele>35.4</ele>
        <time>2024-01-25T15:57:23Z</time>
      </trkpt>
      <trkpt lat="48.83289" lon="-1.58535">
        <ele>35.7</ele>
        <time>2024-01-25T15:57:24Z</time>
      </trkpt>
      <trkpt lat="48.8329" lon="-1.58541">
        <ele>35.8</ele>
        <time>2024-01-25T15:57:25Z</time>
      </trkpt>
      <trkpt lat="48.83292" lon="-1.58546">
        <ele>36</ele>
        <time>2024-01-25T15:57:26Z</time>
      </trkpt>
      <trkpt lat="48.83294" lon="-1.58551">
        <ele>36.2</ele>
        <time>2024-01-25T15:57:27Z</time>
      </trkpt>
      <trkpt lat="48.83295" lon="-1.58557">
        <ele>36.3</ele>
        <time>2024-01-25T15:57:28Z</time>
      </trkpt>
      <trkpt lat="48.83297" lon="-1.58564">
        <ele>36.5</ele>
        <time>2024-01-25T15:57:29Z</time>
      </trkpt>
      <trkpt lat="48.83298" lon="-1.58571">
        <ele>36.6</ele>
        <time>2024-01-25T15:57:30Z</time>
      </trkpt>
      <trkpt lat="48.83299" lon="-1.58577">
        <ele>36.7</ele>
        <time>2024-01-25T15:57:31Z</time>
      </trkpt>
      <trkpt lat="48.83301" lon="-1.58583">
        <ele>36.8</ele>
        <time>2024-01-25T15:57:32Z</time>
      </trkpt>
      <trkpt lat="48.83302" lon="-1.58588">
        <ele>36.9</ele>
        <time>2024-01-25T15:57:33Z</time>
      </trkpt>
      <trkpt lat="48.83304" lon="-1.58596">
        <ele>37</ele>
        <time>2024-01-25T15:57:34Z</time>
      </trkpt>
      <trkpt lat="48.83305" lon="-1.58603">
        <ele>37.1</ele>
        <time>2024-01-25T15:57:35Z</time>
      </trkpt>
      <trkpt lat="48.83307" lon="-1.5861">
        <ele>37.2</ele>
        <time>2024-01-25T15:57:36Z</time>
      </trkpt>
      <trkpt lat="48.83309" lon="-1.58617">
        <ele>37.2</ele>
        <time>2024-01-25T15:57:37Z</time>
      </trkpt>
      <trkpt lat="48.83311" lon="-1.58624">
        <ele>37.3</ele>
        <time>2024-01-25T15:57:38Z</time>
      </trkpt>
      <trkpt lat="48.83313" lon="-1.58631">
        <ele>37.4</ele>
        <time>2024-01-25T15:57:39Z</time>
      </trkpt>
      <trkpt lat="48.83315" lon="-1.58639">
        <ele>37.4</ele>
        <time>2024-01-25T15:57:40Z</time>
      </trkpt>
      <trkpt lat="48.83317" lon="-1.58646">
        <ele>37.5</ele>
        <time>2024-01-25T15:57:41Z</time>
      </trkpt>
      <trkpt lat="48.83319" lon="-1.58653">
        <ele>37.5</ele>
        <time>2024-01-25T15:57:42Z</time>
      </trkpt>
      <trkpt lat="48.83321" lon="-1.5866">
        <ele>37.5</ele>
        <time>2024-01-25T15:57:43Z</time>
      </trkpt>
      <trkpt lat="48.83322" lon="-1.58667">
        <ele>37.6</ele>
        <time>2024-01-25T15:57:44Z</time>
      </trkpt>
      <trkpt lat="48.83324" lon="-1.58674">
        <ele>37.6</ele>
        <time>2024-01-25T15:57:45Z</time>
      </trkpt>
      <trkpt lat="48.83325" lon="-1.58681">
        <ele>37.6</ele>
        <time>2024-01-25T15:57:46Z</time>
      </trkpt>
      <trkpt lat="48.83327" lon="-1.58688">
        <ele>37.6</ele>
        <time>2024-01-25T15:57:47Z</time>
      </trkpt>
      <trkpt lat="48.83329" lon="-1.58696">
        <ele>37.5</ele>
        <time>2024-01-25T15:57:48Z</time>
      </trkpt>
      <trkpt lat="48.83332" lon="-1.58703">
        <ele>37.5</ele>
        <time>2024-01-25T15:57:49Z</time>
      </trkpt>
      <trkpt lat="48.83335" lon="-1.5871">
        <ele>37.5</ele>
        <time>2024-01-25T15:57:50Z</time>
      </trkpt>
      <trkpt lat="48.83338" lon="-1.58716">
        <ele>37.5</ele>
        <time>2024-01-25T15:57:51Z</time>
      </trkpt>
      <trkpt lat="48.83341" lon="-1.58721">
        <ele>37.4</ele>
        <time>2024-01-25T15:57:52Z</time>
      </trkpt>
      <trkpt lat="48.83344" lon="-1.58728">
        <ele>37.4</ele>
        <time>2024-01-25T15:57:53Z</time>
      </trkpt>
      <trkpt lat="48.83345" lon="-1.58736">
        <ele>37.1</ele>
        <time>2024-01-25T15:57:54Z</time>
      </trkpt>
      <trkpt lat="48.83346" lon="-1.58745">
        <ele>36.8</ele>
        <time>2024-01-25T15:57:55Z</time>
      </trkpt>
      <trkpt lat="48.83347" lon="-1.58754">
        <ele>36.5</ele>
        <time>2024-01-25T15:57:56Z</time>
      </trkpt>
      <trkpt lat="48.8335" lon="-1.58764">
        <ele>36.1</ele>
        <time>2024-01-25T15:57:57Z</time>
      </trkpt>
      <trkpt lat="48.83352" lon="-1.58773">
        <ele>35.6</ele>
        <time>2024-01-25T15:57:58Z</time>
      </trkpt>
      <trkpt lat="48.83354" lon="-1.58784">
        <ele>35</ele>
        <time>2024-01-25T15:57:59Z</time>
      </trkpt>
      <trkpt lat="48.83357" lon="-1.58796">
        <ele>34.4</ele>
        <time>2024-01-25T15:58:00Z</time>
      </trkpt>
      <trkpt lat="48.8336" lon="-1.58807">
        <ele>33.8</ele>
        <time>2024-01-25T15:58:01Z</time>
      </trkpt>
      <trkpt lat="48.83363" lon="-1.58819">
        <ele>33.1</ele>
        <time>2024-01-25T15:58:02Z</time>
      </trkpt>
      <trkpt lat="48.83366" lon="-1.58831">
        <ele>32.4</ele>
        <time>2024-01-25T15:58:03Z</time>
      </trkpt>
      <trkpt lat="48.83369" lon="-1.58844">
        <ele>31.6</ele>
        <time>2024-01-25T15:58:04Z</time>
      </trkpt>
      <trkpt lat="48.83372" lon="-1.58858">
        <ele>30.9</ele>
        <time>2024-01-25T15:58:05Z</time>
      </trkpt>
      <trkpt lat="48.83374" lon="-1.58872">
        <ele>30.1</ele>
        <time>2024-01-25T15:58:06Z</time>
      </trkpt>
      <trkpt lat="48.83376" lon="-1.58886">
        <ele>29.3</ele>
        <time>2024-01-25T15:58:07Z</time>
      </trkpt>
      <trkpt lat="48.83377" lon="-1.58901">
        <ele>28.4</ele>
        <time>2024-01-25T15:58:08Z</time>
      </trkpt>
      <trkpt lat="48.83377" lon="-1.58916">
        <ele>27.5</ele>
        <time>2024-01-25T15:58:09Z</time>
      </trkpt>
      <trkpt lat="48.83375" lon="-1.58932">
        <ele>26.5</ele>
        <time>2024-01-25T15:58:10Z</time>
      </trkpt>
      <trkpt lat="48.83372" lon="-1.58947">
        <ele>25.6</ele>
        <time>2024-01-25T15:58:11Z</time>
      </trkpt>
      <trkpt lat="48.83368" lon="-1.58963">
        <ele>24.6</ele>
        <time>2024-01-25T15:58:12Z</time>
      </trkpt>
      <trkpt lat="48.83365" lon="-1.5898">
        <ele>23.6</ele>
        <time>2024-01-25T15:58:13Z</time>
      </trkpt>
      <trkpt lat="48.83361" lon="-1.58996">
        <ele>22.8</ele>
        <time>2024-01-25T15:58:14Z</time>
      </trkpt>
      <trkpt lat="48.83358" lon="-1.59013">
        <ele>22</ele>
        <time>2024-01-25T15:58:15Z</time>
      </trkpt>
      <trkpt lat="48.83356" lon="-1.59031">
        <ele>21.1</ele>
        <time>2024-01-25T15:58:16Z</time>
      </trkpt>
      <trkpt lat="48.83357" lon="-1.59049">
        <ele>20.2</ele>
        <time>2024-01-25T15:58:17Z</time>
      </trkpt>
      <trkpt lat="48.83361" lon="-1.59066">
        <ele>19.3</ele>
        <time>2024-01-25T15:58:18Z</time>
      </trkpt>
      <trkpt lat="48.83366" lon="-1.59083">
        <ele>18.6</ele>
        <time>2024-01-25T15:58:19Z</time>
      </trkpt>
      <trkpt lat="48.83373" lon="-1.59098">
        <ele>18</ele>
        <time>2024-01-25T15:58:20Z</time>
      </trkpt>
      <trkpt lat="48.83379" lon="-1.59113">
        <ele>17.4</ele>
        <time>2024-01-25T15:58:21Z</time>
      </trkpt>
      <trkpt lat="48.83385" lon="-1.59129">
        <ele>16.9</ele>
        <time>2024-01-25T15:58:22Z</time>
      </trkpt>
      <trkpt lat="48.83391" lon="-1.59144">
        <ele>16.4</ele>
        <time>2024-01-25T15:58:23Z</time>
      </trkpt>
      <trkpt lat="48.83397" lon="-1.59159">
        <ele>16</ele>
        <time>2024-01-25T15:58:24Z</time>
      </trkpt>
      <trkpt lat="48.83403" lon="-1.59174">
        <ele>15.7</ele>
        <time>2024-01-25T15:58:25Z</time>
      </trkpt>
      <trkpt lat="48.83408" lon="-1.59189">
        <ele>15</ele>
        <time>2024-01-25T15:58:26Z</time>
      </trkpt>
      <trkpt lat="48.83413" lon="-1.59205">
        <ele>13.8</ele>
        <time>2024-01-25T15:58:27Z</time>
      </trkpt>
      <trkpt lat="48.83417" lon="-1.59221">
        <ele>12.7</ele>
        <time>2024-01-25T15:58:28Z</time>
      </trkpt>
      <trkpt lat="48.83423" lon="-1.59237">
        <ele>12</ele>
        <time>2024-01-25T15:58:29Z</time>
      </trkpt>
      <trkpt lat="48.83428" lon="-1.59254">
        <ele>11.2</ele>
        <time>2024-01-25T15:58:30Z</time>
      </trkpt>
      <trkpt lat="48.83434" lon="-1.59271">
        <ele>10.5</ele>
        <time>2024-01-25T15:58:31Z</time>
      </trkpt>
      <trkpt lat="48.83441" lon="-1.59287">
        <ele>9.9</ele>
        <time>2024-01-25T15:58:32Z</time>
      </trkpt>
      <trkpt lat="48.83448" lon="-1.59302">
        <ele>9.6</ele>
        <time>2024-01-25T15:58:33Z</time>
      </trkpt>
      <trkpt lat="48.83455" lon="-1.59317">
        <ele>9.3</ele>
        <time>2024-01-25T15:58:34Z</time>
      </trkpt>
      <trkpt lat="48.83462" lon="-1.59331">
        <ele>9.2</ele>
        <time>2024-01-25T15:58:35Z</time>
      </trkpt>
      <trkpt lat="48.8347" lon="-1.59345">
        <ele>9.2</ele>
        <time>2024-01-25T15:58:36Z</time>
      </trkpt>
      <trkpt lat="48.83476" lon="-1.59358">
        <ele>9.2</ele>
        <time>2024-01-25T15:58:37Z</time>
      </trkpt>
      <trkpt lat="48.83483" lon="-1.59371">
        <ele>9.3</ele>
        <time>2024-01-25T15:58:38Z</time>
      </trkpt>
      <trkpt lat="48.83489" lon="-1.59384">
        <ele>9.5</ele>
        <time>2024-01-25T15:58:39Z</time>
      </trkpt>
      <trkpt lat="48.83495" lon="-1.59395">
        <ele>9.6</ele>
        <time>2024-01-25T15:58:40Z</time>
      </trkpt>
      <trkpt lat="48.83501" lon="-1.59407">
        <ele>9.7</ele>
        <time>2024-01-25T15:58:41Z</time>
      </trkpt>
      <trkpt lat="48.83507" lon="-1.59418">
        <ele>9.9</ele>
        <time>2024-01-25T15:58:42Z</time>
      </trkpt>
      <trkpt lat="48.83512" lon="-1.59429">
        <ele>10</ele>
        <time>2024-01-25T15:58:43Z</time>
      </trkpt>
      <trkpt lat="48.83517" lon="-1.59439">
        <ele>10.1</ele>
        <time>2024-01-25T15:58:44Z</time>
      </trkpt>
      <trkpt lat="48.83522" lon="-1.59449">
        <ele>10.2</ele>
        <time>2024-01-25T15:58:45Z</time>
      </trkpt>
      <trkpt lat="48.83527" lon="-1.59459">
        <ele>10.2</ele>
        <time>2024-01-25T15:58:46Z</time>
      </trkpt>
      <trkpt lat="48.83531" lon="-1.59468">
        <ele>10.2</ele>
        <time>2024-01-25T15:58:47Z</time>
      </trkpt>
      <trkpt lat="48.83536" lon="-1.59477">
        <ele>10.3</ele>
        <time>2024-01-25T15:58:48Z</time>
      </trkpt>
      <trkpt lat="48.8354" lon="-1.59486">
        <ele>10.3</ele>
        <time>2024-01-25T15:58:49Z</time>
      </trkpt>
      <trkpt lat="48.83544" lon="-1.59495">
        <ele>10.3</ele>
        <time>2024-01-25T15:58:50Z</time>
      </trkpt>
      <trkpt lat="48.83548" lon="-1.59503">
        <ele>10.4</ele>
        <time>2024-01-25T15:58:51Z</time>
      </trkpt>
      <trkpt lat="48.83552" lon="-1.59512">
        <ele>10.4</ele>
        <time>2024-01-25T15:58:52Z</time>
      </trkpt>
      <trkpt lat="48.83555" lon="-1.59521">
        <ele>10.4</ele>
        <time>2024-01-25T15:58:53Z</time>
      </trkpt>
      <trkpt lat="48.83558" lon="-1.59529">
        <ele>10.4</ele>
        <time>2024-01-25T15:58:54Z</time>
      </trkpt>
      <trkpt lat="48.83561" lon="-1.59537">
        <ele>10.5</ele>
        <time>2024-01-25T15:58:55Z</time>
      </trkpt>
      <trkpt lat="48.83566" lon="-1.59544">
        <ele>10.5</ele>
        <time>2024-01-25T15:58:56Z</time>
      </trkpt>
      <trkpt lat="48.83571" lon="-1.59551">
        <ele>10.5</ele>
        <time>2024-01-25T15:58:57Z</time>
      </trkpt>
      <trkpt lat="48.83575" lon="-1.59558">
        <ele>10.4</ele>
        <time>2024-01-25T15:58:58Z</time>
      </trkpt>
      <trkpt lat="48.83577" lon="-1.59567">
        <ele>10.4</ele>
        <time>2024-01-25T15:58:59Z</time>
      </trkpt>
      <trkpt lat="48.83575" lon="-1.59576">
        <ele>10.4</ele>
        <time>2024-01-25T15:59:00Z</time>
      </trkpt>
      <trkpt lat="48.83571" lon="-1.59585">
        <ele>10.5</ele>
        <time>2024-01-25T15:59:01Z</time>
      </trkpt>
      <trkpt lat="48.83567" lon="-1.59593">
        <ele>10.5</ele>
        <time>2024-01-25T15:59:02Z</time>
      </trkpt>
      <trkpt lat="48.83564" lon="-1.59602">
        <ele>10.5</ele>
        <time>2024-01-25T15:59:03Z</time>
      </trkpt>
      <trkpt lat="48.83564" lon="-1.59611">
        <ele>10.5</ele>
        <time>2024-01-25T15:59:04Z</time>
      </trkpt>
      <trkpt lat="48.83564" lon="-1.5962">
        <ele>10.5</ele>
        <time>2024-01-25T15:59:05Z</time>
      </trkpt>
      <trkpt lat="48.83564" lon="-1.59629">
        <ele>10.5</ele>
        <time>2024-01-25T15:59:06Z</time>
      </trkpt>
      <trkpt lat="48.83564" lon="-1.59639">
        <ele>10.5</ele>
        <time>2024-01-25T15:59:07Z</time>
      </trkpt>
      <trkpt lat="48.83565" lon="-1.59648">
        <ele>10.5</ele>
        <time>2024-01-25T15:59:08Z</time>
      </trkpt>
      <trkpt lat="48.83565" lon="-1.59657">
        <ele>10.5</ele>
        <time>2024-01-25T15:59:09Z</time>
      </trkpt>
      <trkpt lat="48.83565" lon="-1.59666">
        <ele>10.5</ele>
        <time>2024-01-25T15:59:10Z</time>
      </trkpt>
      <trkpt lat="48.83565" lon="-1.59675">
        <ele>10.5</ele>
        <time>2024-01-25T15:59:11Z</time>
      </trkpt>
      <trkpt lat="48.83565" lon="-1.59685">
        <ele>10.5</ele>
        <time>2024-01-25T15:59:12Z</time>
      </trkpt>
      <trkpt lat="48.83566" lon="-1.59694">
        <ele>10.5</ele>
        <time>2024-01-25T15:59:13Z</time>
      </trkpt>
      <trkpt lat="48.83567" lon="-1.59702">
        <ele>10.5</ele>
        <time>2024-01-25T15:59:14Z</time>
      </trkpt>
      <trkpt lat="48.83569" lon="-1.59711">
        <ele>10.5</ele>
        <time>2024-01-25T15:59:15Z</time>
      </trkpt>
      <trkpt lat="48.83571" lon="-1.59719">
        <ele>10.6</ele>
        <time>2024-01-25T15:59:16Z</time>
      </trkpt>
      <trkpt lat="48.83572" lon="-1.59728">
        <ele>10.6</ele>
        <time>2024-01-25T15:59:17Z</time>
      </trkpt>
      <trkpt lat="48.83575" lon="-1.59736">
        <ele>10.6</ele>
        <time>2024-01-25T15:59:18Z</time>
      </trkpt>
      <trkpt lat="48.83577" lon="-1.59744">
        <ele>10.6</ele>
        <time>2024-01-25T15:59:19Z</time>
      </trkpt>
      <trkpt lat="48.8358" lon="-1.59753">
        <ele>10.6</ele>
        <time>2024-01-25T15:59:20Z</time>
      </trkpt>
      <trkpt lat="48.83582" lon="-1.59761">
        <ele>10.6</ele>
        <time>2024-01-25T15:59:21Z</time>
      </trkpt>
      <trkpt lat="48.83585" lon="-1.59769">
        <ele>10.6</ele>
        <time>2024-01-25T15:59:22Z</time>
      </trkpt>
      <trkpt lat="48.83588" lon="-1.59777">
        <ele>10.6</ele>
        <time>2024-01-25T15:59:23Z</time>
      </trkpt>
      <trkpt lat="48.83591" lon="-1.59785">
        <ele>10.6</ele>
        <time>2024-01-25T15:59:24Z</time>
      </trkpt>
      <trkpt lat="48.83594" lon="-1.59792">
        <ele>10.6</ele>
        <time>2024-01-25T15:59:25Z</time>
      </trkpt>
      <trkpt lat="48.83598" lon="-1.598">
        <ele>10.7</ele>
        <time>2024-01-25T15:59:26Z</time>
      </trkpt>
      <trkpt lat="48.83601" lon="-1.59808">
        <ele>10.6</ele>
        <time>2024-01-25T15:59:27Z</time>
      </trkpt>
      <trkpt lat="48.83604" lon="-1.59816">
        <ele>10.6</ele>
        <time>2024-01-25T15:59:28Z</time>
      </trkpt>
      <trkpt lat="48.83607" lon="-1.59824">
        <ele>10.6</ele>
        <time>2024-01-25T15:59:29Z</time>
      </trkpt>
      <trkpt lat="48.8361" lon="-1.59832">
        <ele>10.5</ele>
        <time>2024-01-25T15:59:30Z</time>
      </trkpt>
      <trkpt lat="48.83614" lon="-1.5984">
        <ele>10.4</ele>
        <time>2024-01-25T15:59:31Z</time>
      </trkpt>
      <trkpt lat="48.83617" lon="-1.59848">
        <ele>10.3</ele>
        <time>2024-01-25T15:59:32Z</time>
      </trkpt>
      <trkpt lat="48.8362" lon="-1.59856">
        <ele>10.2</ele>
        <time>2024-01-25T15:59:33Z</time>
      </trkpt>
      <trkpt lat="48.83624" lon="-1.59864">
        <ele>10.1</ele>
        <time>2024-01-25T15:59:34Z</time>
      </trkpt>
      <trkpt lat="48.83627" lon="-1.59871">
        <ele>10.1</ele>
        <time>2024-01-25T15:59:35Z</time>
      </trkpt>
      <trkpt lat="48.8363" lon="-1.59876">
        <ele>10</ele>
        <time>2024-01-25T15:59:36Z</time>
      </trkpt>
      <trkpt lat="48.83632" lon="-1.5988">
        <ele>10</ele>
        <time>2024-01-25T15:59:37Z</time>
      </trkpt>
      <trkpt lat="48.83634" lon="-1.59883">
        <ele>9.9</ele>
        <time>2024-01-25T15:59:38Z</time>
      </trkpt>
      <trkpt lat="48.83635" lon="-1.59884">
        <ele>9.9</ele>
        <time>2024-01-25T15:59:39Z</time>
      </trkpt>
      <trkpt lat="48.83637" lon="-1.59888">
        <ele>9.9</ele>
        <time>2024-01-25T15:59:40Z</time>
      </trkpt>
      <trkpt lat="48.83637" lon="-1.59889">
        <ele>9.9</ele>
        <time>2024-01-25T15:59:41Z</time>
      </trkpt>
      <trkpt lat="48.83637" lon="-1.59896">
        <ele>9.8</ele>
        <time>2024-01-25T15:59:42Z</time>
      </trkpt>
      <trkpt lat="48.83637" lon="-1.59898">
        <ele>9.8</ele>
        <time>2024-01-25T15:59:43Z</time>
      </trkpt>
      <trkpt lat="48.83634" lon="-1.59902">
        <ele>9.8</ele>
        <time>2024-01-25T15:59:44Z</time>
      </trkpt>
      <trkpt lat="48.8363" lon="-1.59905">
        <ele>9.8</ele>
        <time>2024-01-25T15:59:45Z</time>
      </trkpt>
      <trkpt lat="48.83626" lon="-1.5991">
        <ele>9.7</ele>
        <time>2024-01-25T15:59:46Z</time>
      </trkpt>
      <trkpt lat="48.83622" lon="-1.59915">
        <ele>9.7</ele>
        <time>2024-01-25T15:59:47Z</time>
      </trkpt>
      <trkpt lat="48.83618" lon="-1.59921">
        <ele>9.7</ele>
        <time>2024-01-25T15:59:48Z</time>
      </trkpt>
      <trkpt lat="48.83614" lon="-1.59926">
        <ele>9.6</ele>
        <time>2024-01-25T15:59:49Z</time>
      </trkpt>
      <trkpt lat="48.83609" lon="-1.59932">
        <ele>9.6</ele>
        <time>2024-01-25T15:59:50Z</time>
      </trkpt>
      <trkpt lat="48.83604" lon="-1.59938">
        <ele>9.6</ele>
        <time>2024-01-25T15:59:51Z</time>
      </trkpt>
      <trkpt lat="48.83599" lon="-1.59944">
        <ele>9.6</ele>
        <time>2024-01-25T15:59:52Z</time>
      </trkpt>
      <trkpt lat="48.83595" lon="-1.5995">
        <ele>9.6</ele>
        <time>2024-01-25T15:59:53Z</time>
      </trkpt>
      <trkpt lat="48.8359" lon="-1.59956">
        <ele>9.5</ele>
        <time>2024-01-25T15:59:54Z</time>
      </trkpt>
      <trkpt lat="48.83585" lon="-1.59962">
        <ele>9.5</ele>
        <time>2024-01-25T15:59:55Z</time>
      </trkpt>
      <trkpt lat="48.8358" lon="-1.59968">
        <ele>9.5</ele>
        <time>2024-01-25T15:59:56Z</time>
      </trkpt>
      <trkpt lat="48.83575" lon="-1.59974">
        <ele>9.5</ele>
        <time>2024-01-25T15:59:57Z</time>
      </trkpt>
      <trkpt lat="48.8357" lon="-1.5998">
        <ele>9.5</ele>
        <time>2024-01-25T15:59:58Z</time>
      </trkpt>
      <trkpt lat="48.83565" lon="-1.59987">
        <ele>9.5</ele>
        <time>2024-01-25T15:59:59Z</time>
      </trkpt>
      <trkpt lat="48.8356" lon="-1.59993">
        <ele>9.5</ele>
        <time>2024-01-25T16:00:00Z</time>
      </trkpt>
      <trkpt lat="48.83554" lon="-1.59999">
        <ele>9.5</ele>
        <time>2024-01-25T16:00:01Z</time>
      </trkpt>
      <trkpt lat="48.83549" lon="-1.60005">
        <ele>9.5</ele>
        <time>2024-01-25T16:00:02Z</time>
      </trkpt>
      <trkpt lat="48.83543" lon="-1.6001">
        <ele>9.5</ele>
        <time>2024-01-25T16:00:03Z</time>
      </trkpt>
      <trkpt lat="48.83536" lon="-1.60014">
        <ele>9.4</ele>
        <time>2024-01-25T16:00:04Z</time>
      </trkpt>
      <trkpt lat="48.8353" lon="-1.60018">
        <ele>9.4</ele>
        <time>2024-01-25T16:00:05Z</time>
      </trkpt>
      <trkpt lat="48.83524" lon="-1.60021">
        <ele>9.3</ele>
        <time>2024-01-25T16:00:06Z</time>
      </trkpt>
      <trkpt lat="48.83517" lon="-1.60025">
        <ele>9.3</ele>
        <time>2024-01-25T16:00:07Z</time>
      </trkpt>
      <trkpt lat="48.83511" lon="-1.60028">
        <ele>9.2</ele>
        <time>2024-01-25T16:00:08Z</time>
      </trkpt>
      <trkpt lat="48.83505" lon="-1.60032">
        <ele>9.2</ele>
        <time>2024-01-25T16:00:09Z</time>
      </trkpt>
      <trkpt lat="48.83499" lon="-1.60037">
        <ele>9.1</ele>
        <time>2024-01-25T16:00:10Z</time>
      </trkpt>
      <trkpt lat="48.83492" lon="-1.60041">
        <ele>9</ele>
        <time>2024-01-25T16:00:11Z</time>
      </trkpt>
      <trkpt lat="48.83486" lon="-1.60046">
        <ele>8.9</ele>
        <time>2024-01-25T16:00:12Z</time>
      </trkpt>
      <trkpt lat="48.8348" lon="-1.60051">
        <ele>8.8</ele>
        <time>2024-01-25T16:00:13Z</time>
      </trkpt>
      <trkpt lat="48.83475" lon="-1.60056">
        <ele>8.7</ele>
        <time>2024-01-25T16:00:14Z</time>
      </trkpt>
      <trkpt lat="48.83469" lon="-1.6006">
        <ele>8.7</ele>
        <time>2024-01-25T16:00:15Z</time>
      </trkpt>
      <trkpt lat="48.83463" lon="-1.60064">
        <ele>8.6</ele>
        <time>2024-01-25T16:00:16Z</time>
      </trkpt>
      <trkpt lat="48.83456" lon="-1.60068">
        <ele>8.6</ele>
        <time>2024-01-25T16:00:17Z</time>
      </trkpt>
      <trkpt lat="48.8345" lon="-1.60071">
        <ele>8.6</ele>
        <time>2024-01-25T16:00:18Z</time>
      </trkpt>
      <trkpt lat="48.83444" lon="-1.60075">
        <ele>8.6</ele>
        <time>2024-01-25T16:00:19Z</time>
      </trkpt>
      <trkpt lat="48.83438" lon="-1.60079">
        <ele>8.6</ele>
        <time>2024-01-25T16:00:20Z</time>
      </trkpt>
      <trkpt lat="48.83432" lon="-1.60083">
        <ele>8.6</ele>
        <time>2024-01-25T16:00:21Z</time>
      </trkpt>
      <trkpt lat="48.83427" lon="-1.60088">
        <ele>8.5</ele>
        <time>2024-01-25T16:00:22Z</time>
      </trkpt>
      <trkpt lat="48.83421" lon="-1.60093">
        <ele>8.5</ele>
        <time>2024-01-25T16:00:23Z</time>
      </trkpt>
      <trkpt lat="48.83417" lon="-1.60101">
        <ele>8.4</ele>
        <time>2024-01-25T16:00:24Z</time>
      </trkpt>
      <trkpt lat="48.83414" lon="-1.60109">
        <ele>8.4</ele>
        <time>2024-01-25T16:00:25Z</time>
      </trkpt>
      <trkpt lat="48.83412" lon="-1.60118">
        <ele>8.3</ele>
        <time>2024-01-25T16:00:26Z</time>
      </trkpt>
      <trkpt lat="48.83411" lon="-1.60127">
        <ele>8.3</ele>
        <time>2024-01-25T16:00:27Z</time>
      </trkpt>
      <trkpt lat="48.83409" lon="-1.60136">
        <ele>8.3</ele>
        <time>2024-01-25T16:00:28Z</time>
      </trkpt>
      <trkpt lat="48.83408" lon="-1.60145">
        <ele>8.3</ele>
        <time>2024-01-25T16:00:29Z</time>
      </trkpt>
      <trkpt lat="48.83407" lon="-1.60153">
        <ele>8.3</ele>
        <time>2024-01-25T16:00:30Z</time>
      </trkpt>
      <trkpt lat="48.83405" lon="-1.60162">
        <ele>8.3</ele>
        <time>2024-01-25T16:00:31Z</time>
      </trkpt>
      <trkpt lat="48.83403" lon="-1.6017">
        <ele>8.3</ele>
        <time>2024-01-25T16:00:32Z</time>
      </trkpt>
      <trkpt lat="48.83401" lon="-1.60178">
        <ele>8.4</ele>
        <time>2024-01-25T16:00:33Z</time>
      </trkpt>
      <trkpt lat="48.83399" lon="-1.60185">
        <ele>8.4</ele>
        <time>2024-01-25T16:00:34Z</time>
      </trkpt>
      <trkpt lat="48.83397" lon="-1.60192">
        <ele>8.4</ele>
        <time>2024-01-25T16:00:35Z</time>
      </trkpt>
      <trkpt lat="48.83396" lon="-1.602">
        <ele>8.4</ele>
        <time>2024-01-25T16:00:36Z</time>
      </trkpt>
      <trkpt lat="48.83394" lon="-1.60207">
        <ele>8.4</ele>
        <time>2024-01-25T16:00:37Z</time>
      </trkpt>
      <trkpt lat="48.83393" lon="-1.60214">
        <ele>8.4</ele>
        <time>2024-01-25T16:00:38Z</time>
      </trkpt>
      <trkpt lat="48.83393" lon="-1.60221">
        <ele>8.3</ele>
        <time>2024-01-25T16:00:39Z</time>
      </trkpt>
      <trkpt lat="48.83394" lon="-1.60229">
        <ele>8.1</ele>
        <time>2024-01-25T16:00:40Z</time>
      </trkpt>
      <trkpt lat="48.83395" lon="-1.60237">
        <ele>8</ele>
        <time>2024-01-25T16:00:41Z</time>
      </trkpt>
      <trkpt lat="48.83394" lon="-1.60244">
        <ele>7.8</ele>
        <time>2024-01-25T16:00:42Z</time>
      </trkpt>
      <trkpt lat="48.83391" lon="-1.6025">
        <ele>7.8</ele>
        <time>2024-01-25T16:00:43Z</time>
      </trkpt>
      <trkpt lat="48.83387" lon="-1.60255">
        <ele>7.8</ele>
        <time>2024-01-25T16:00:44Z</time>
      </trkpt>
      <trkpt lat="48.83383" lon="-1.60258">
        <ele>7.8</ele>
        <time>2024-01-25T16:00:45Z</time>
      </trkpt>
      <trkpt lat="48.83379" lon="-1.60261">
        <ele>7.8</ele>
        <time>2024-01-25T16:00:46Z</time>
      </trkpt>
      <trkpt lat="48.83375" lon="-1.60264">
        <ele>7.8</ele>
        <time>2024-01-25T16:00:47Z</time>
      </trkpt>
      <trkpt lat="48.83371" lon="-1.60267">
        <ele>7.8</ele>
        <time>2024-01-25T16:00:48Z</time>
      </trkpt>
      <trkpt lat="48.83368" lon="-1.6027">
        <ele>7.8</ele>
        <time>2024-01-25T16:00:49Z</time>
      </trkpt>
      <trkpt lat="48.83364" lon="-1.60274">
        <ele>7.8</ele>
        <time>2024-01-25T16:00:50Z</time>
      </trkpt>
      <trkpt lat="48.83359" lon="-1.60276">
        <ele>7.7</ele>
        <time>2024-01-25T16:00:52Z</time>
      </trkpt>
      <trkpt lat="48.83354" lon="-1.60277">
        <ele>7.7</ele>
        <time>2024-01-25T16:00:53Z</time>
      </trkpt>
      <trkpt lat="48.83351" lon="-1.60274">
        <ele>7.7</ele>
        <time>2024-01-25T16:00:54Z</time>
      </trkpt>
      <trkpt lat="48.83347" lon="-1.60268">
        <ele>7.9</ele>
        <time>2024-01-25T16:00:55Z</time>
      </trkpt>
      <trkpt lat="48.83345" lon="-1.60261">
        <ele>8</ele>
        <time>2024-01-25T16:00:56Z</time>
      </trkpt>
      <trkpt lat="48.83342" lon="-1.60256">
        <ele>8.2</ele>
        <time>2024-01-25T16:00:57Z</time>
      </trkpt>
      <trkpt lat="48.83339" lon="-1.60252">
        <ele>8.3</ele>
        <time>2024-01-25T16:00:58Z</time>
      </trkpt>
      <trkpt lat="48.83336" lon="-1.60252">
        <ele>8.3</ele>
        <time>2024-01-25T16:00:59Z</time>
      </trkpt>
      <trkpt lat="48.83332" lon="-1.60255">
        <ele>8.4</ele>
        <time>2024-01-25T16:01:00Z</time>
      </trkpt>
      <trkpt lat="48.8333" lon="-1.60256">
        <ele>8.4</ele>
        <time>2024-01-25T16:01:01Z</time>
      </trkpt>
      <trkpt lat="48.83327" lon="-1.60258">
        <ele>8.4</ele>
        <time>2024-01-25T16:01:02Z</time>
      </trkpt>
      <trkpt lat="48.83324" lon="-1.60261">
        <ele>8.4</ele>
        <time>2024-01-25T16:01:03Z</time>
      </trkpt>
      <trkpt lat="48.83321" lon="-1.60262">
        <ele>8.5</ele>
        <time>2024-01-25T16:01:04Z</time>
      </trkpt>
      <trkpt lat="48.83317" lon="-1.60263">
        <ele>8.5</ele>
        <time>2024-01-25T16:01:05Z</time>
      </trkpt>
      <trkpt lat="48.83313" lon="-1.60264">
        <ele>8.6</ele>
        <time>2024-01-25T16:01:06Z</time>
      </trkpt>
      <trkpt lat="48.8331" lon="-1.60265">
        <ele>8.6</ele>
        <time>2024-01-25T16:01:07Z</time>
      </trkpt>
      <trkpt lat="48.83306" lon="-1.60266">
        <ele>8.7</ele>
        <time>2024-01-25T16:01:08Z</time>
      </trkpt>
      <trkpt lat="48.83302" lon="-1.60269">
        <ele>8.8</ele>
        <time>2024-01-25T16:01:09Z</time>
      </trkpt>
      <trkpt lat="48.83298" lon="-1.60271">
        <ele>8.9</ele>
        <time>2024-01-25T16:01:10Z</time>
      </trkpt>
      <trkpt lat="48.83294" lon="-1.60273">
        <ele>9.1</ele>
        <time>2024-01-25T16:01:11Z</time>
      </trkpt>
      <trkpt lat="48.83291" lon="-1.60275">
        <ele>9.2</ele>
        <time>2024-01-25T16:01:12Z</time>
      </trkpt>
      <trkpt lat="48.83288" lon="-1.60277">
        <ele>9.3</ele>
        <time>2024-01-25T16:01:13Z</time>
      </trkpt>
      <trkpt lat="48.83285" lon="-1.60279">
        <ele>9.3</ele>
        <time>2024-01-25T16:01:14Z</time>
      </trkpt>
      <trkpt lat="48.83282" lon="-1.60282">
        <ele>9.4</ele>
        <time>2024-01-25T16:01:15Z</time>
      </trkpt>
      <trkpt lat="48.83278" lon="-1.60284">
        <ele>9.4</ele>
        <time>2024-01-25T16:01:16Z</time>
      </trkpt>
      <trkpt lat="48.83277" lon="-1.60285">
        <ele>9.4</ele>
        <time>2024-01-25T16:01:17Z</time>
      </trkpt>
      <trkpt lat="48.83273" lon="-1.60287">
        <ele>9.5</ele>
        <time>2024-01-25T16:01:18Z</time>
      </trkpt>
      <trkpt lat="48.8327" lon="-1.60289">
        <ele>9.5</ele>
        <time>2024-01-25T16:01:19Z</time>
      </trkpt>
      <trkpt lat="48.83268" lon="-1.60292">
        <ele>9.2</ele>
        <time>2024-01-25T16:01:20Z</time>
      </trkpt>
      <trkpt lat="48.83265" lon="-1.60295">
        <ele>8.7</ele>
        <time>2024-01-25T16:01:21Z</time>
      </trkpt>
      <trkpt lat="48.83263" lon="-1.60297">
        <ele>8.3</ele>
        <time>2024-01-25T16:01:22Z</time>
      </trkpt>
      <trkpt lat="48.8326" lon="-1.60301">
        <ele>7.8</ele>
        <time>2024-01-25T16:01:23Z</time>
      </trkpt>
      <trkpt lat="48.83257" lon="-1.60303">
        <ele>7.3</ele>
        <time>2024-01-25T16:01:24Z</time>
      </trkpt>
      <trkpt lat="48.83255" lon="-1.60306">
        <ele>6.9</ele>
        <time>2024-01-25T16:01:25Z</time>
      </trkpt>
      <trkpt lat="48.83252" lon="-1.60307">
        <ele>6.5</ele>
        <time>2024-01-25T16:01:26Z</time>
      </trkpt>
      <trkpt lat="48.8325" lon="-1.6031">
        <ele>6</ele>
        <time>2024-01-25T16:01:27Z</time>
      </trkpt>
      <trkpt lat="48.83247" lon="-1.60313">
        <ele>5.6</ele>
        <time>2024-01-25T16:01:28Z</time>
      </trkpt>
      <trkpt lat="48.83244" lon="-1.60316">
        <ele>5.1</ele>
        <time>2024-01-25T16:01:29Z</time>
      </trkpt>
      <trkpt lat="48.83242" lon="-1.60319">
        <ele>4.7</ele>
        <time>2024-01-25T16:01:30Z</time>
      </trkpt>
      <trkpt lat="48.8324" lon="-1.60322">
        <ele>4.3</ele>
        <time>2024-01-25T16:01:31Z</time>
      </trkpt>
      <trkpt lat="48.83238" lon="-1.60326">
        <ele>3.8</ele>
        <time>2024-01-25T16:01:32Z</time>
      </trkpt>
      <trkpt lat="48.83235" lon="-1.6033">
        <ele>3.3</ele>
        <time>2024-01-25T16:01:33Z</time>
      </trkpt>
      <trkpt lat="48.83233" lon="-1.60334">
        <ele>2.8</ele>
        <time>2024-01-25T16:01:34Z</time>
      </trkpt>
      <trkpt lat="48.83231" lon="-1.60337">
        <ele>2.4</ele>
        <time>2024-01-25T16:01:35Z</time>
      </trkpt>
      <trkpt lat="48.83228" lon="-1.6034">
        <ele>1.9</ele>
        <time>2024-01-25T16:01:36Z</time>
      </trkpt>
      <trkpt lat="48.83227" lon="-1.60341">
        <ele>2</ele>
        <time>2024-01-25T16:01:37Z</time>
      </trkpt>
      <trkpt lat="48.83224" lon="-1.60339">
        <ele>2.4</ele>
        <time>2024-01-25T16:01:38Z</time>
      </trkpt>
      <trkpt lat="48.83223" lon="-1.60335">
        <ele>2.7</ele>
        <time>2024-01-25T16:01:39Z</time>
      </trkpt>
      <trkpt lat="48.83223" lon="-1.6033">
        <ele>3.1</ele>
        <time>2024-01-25T16:01:40Z</time>
      </trkpt>
      <trkpt lat="48.83226" lon="-1.60324">
        <ele>3.6</ele>
        <time>2024-01-25T16:01:41Z</time>
      </trkpt>
      <trkpt lat="48.83227" lon="-1.60323">
        <ele>3.8</ele>
        <time>2024-01-25T16:01:42Z</time>
      </trkpt>
      <trkpt lat="48.83232" lon="-1.60322">
        <ele>4.3</ele>
        <time>2024-01-25T16:01:43Z</time>
      </trkpt>
      <trkpt lat="48.83235" lon="-1.60319">
        <ele>4.7</ele>
        <time>2024-01-25T16:01:44Z</time>
      </trkpt>
      <trkpt lat="48.83237" lon="-1.60316">
        <ele>5.1</ele>
        <time>2024-01-25T16:01:45Z</time>
      </trkpt>
      <trkpt lat="48.83241" lon="-1.60313">
        <ele>5.6</ele>
        <time>2024-01-25T16:01:46Z</time>
      </trkpt>
      <trkpt lat="48.83242" lon="-1.60312">
        <ele>5.8</ele>
        <time>2024-01-25T16:01:47Z</time>
      </trkpt>
      <trkpt lat="48.83246" lon="-1.6031">
        <ele>6.2</ele>
        <time>2024-01-25T16:01:48Z</time>
      </trkpt>
      <trkpt lat="48.83249" lon="-1.60308">
        <ele>6.6</ele>
        <time>2024-01-25T16:01:49Z</time>
      </trkpt>
      <trkpt lat="48.83252" lon="-1.60306">
        <ele>7</ele>
        <time>2024-01-25T16:01:50Z</time>
      </trkpt>
      <trkpt lat="48.83255" lon="-1.60304">
        <ele>7.4</ele>
        <time>2024-01-25T16:01:51Z</time>
      </trkpt>
      <trkpt lat="48.83258" lon="-1.60302">
        <ele>7.9</ele>
        <time>2024-01-25T16:01:52Z</time>
      </trkpt>
      <trkpt lat="48.83261" lon="-1.60298">
        <ele>8.3</ele>
        <time>2024-01-25T16:01:53Z</time>
      </trkpt>
      <trkpt lat="48.83264" lon="-1.60296">
        <ele>8.7</ele>
        <time>2024-01-25T16:01:54Z</time>
      </trkpt>
      <trkpt lat="48.83267" lon="-1.60293">
        <ele>9.1</ele>
        <time>2024-01-25T16:01:55Z</time>
      </trkpt>
      <trkpt lat="48.83268" lon="-1.60292">
        <ele>9.3</ele>
        <time>2024-01-25T16:01:56Z</time>
      </trkpt>
      <trkpt lat="48.83271" lon="-1.60289">
        <ele>9.5</ele>
        <time>2024-01-25T16:01:57Z</time>
      </trkpt>
      <trkpt lat="48.83274" lon="-1.60287">
        <ele>9.4</ele>
        <time>2024-01-25T16:01:58Z</time>
      </trkpt>
      <trkpt lat="48.83277" lon="-1.60284">
        <ele>9.4</ele>
        <time>2024-01-25T16:01:59Z</time>
      </trkpt>
      <trkpt lat="48.83279" lon="-1.60281">
        <ele>9.4</ele>
        <time>2024-01-25T16:02:00Z</time>
      </trkpt>
      <trkpt lat="48.83283" lon="-1.60279">
        <ele>9.4</ele>
        <time>2024-01-25T16:02:01Z</time>
      </trkpt>
      <trkpt lat="48.83286" lon="-1.60277">
        <ele>9.3</ele>
        <time>2024-01-25T16:02:02Z</time>
      </trkpt>
      <trkpt lat="48.83289" lon="-1.60274">
        <ele>9.2</ele>
        <time>2024-01-25T16:02:03Z</time>
      </trkpt>
      <trkpt lat="48.83292" lon="-1.60273">
        <ele>9.1</ele>
        <time>2024-01-25T16:02:04Z</time>
      </trkpt>
      <trkpt lat="48.83296" lon="-1.60271">
        <ele>9</ele>
        <time>2024-01-25T16:02:05Z</time>
      </trkpt>
      <trkpt lat="48.83299" lon="-1.60267">
        <ele>8.9</ele>
        <time>2024-01-25T16:02:06Z</time>
      </trkpt>
      <trkpt lat="48.83302" lon="-1.60266">
        <ele>8.8</ele>
        <time>2024-01-25T16:02:07Z</time>
      </trkpt>
      <trkpt lat="48.83305" lon="-1.60266">
        <ele>8.7</ele>
        <time>2024-01-25T16:02:08Z</time>
      </trkpt>
      <trkpt lat="48.83308" lon="-1.60265">
        <ele>8.7</ele>
        <time>2024-01-25T16:02:09Z</time>
      </trkpt>
      <trkpt lat="48.83312" lon="-1.60264">
        <ele>8.6</ele>
        <time>2024-01-25T16:02:10Z</time>
      </trkpt>
      <trkpt lat="48.83316" lon="-1.60262">
        <ele>8.5</ele>
        <time>2024-01-25T16:02:11Z</time>
      </trkpt>
      <trkpt lat="48.83321" lon="-1.6026">
        <ele>8.5</ele>
        <time>2024-01-25T16:02:12Z</time>
      </trkpt>
      <trkpt lat="48.83325" lon="-1.60259">
        <ele>8.4</ele>
        <time>2024-01-25T16:02:13Z</time>
      </trkpt>
      <trkpt lat="48.8333" lon="-1.60257">
        <ele>8.4</ele>
        <time>2024-01-25T16:02:14Z</time>
      </trkpt>
      <trkpt lat="48.83334" lon="-1.60254">
        <ele>8.3</ele>
        <time>2024-01-25T16:02:15Z</time>
      </trkpt>
      <trkpt lat="48.83338" lon="-1.60251">
        <ele>8.3</ele>
        <time>2024-01-25T16:02:16Z</time>
      </trkpt>
      <trkpt lat="48.83342" lon="-1.60249">
        <ele>8.3</ele>
        <time>2024-01-25T16:02:17Z</time>
      </trkpt>
      <trkpt lat="48.83345" lon="-1.60247">
        <ele>8.3</ele>
        <time>2024-01-25T16:02:18Z</time>
      </trkpt>
      <trkpt lat="48.83348" lon="-1.60246">
        <ele>8.3</ele>
        <time>2024-01-25T16:02:19Z</time>
      </trkpt>
      <trkpt lat="48.83351" lon="-1.60243">
        <ele>8.3</ele>
        <time>2024-01-25T16:02:20Z</time>
      </trkpt>
      <trkpt lat="48.83353" lon="-1.60242">
        <ele>8.3</ele>
        <time>2024-01-25T16:02:21Z</time>
      </trkpt>
      <trkpt lat="48.83356" lon="-1.60242">
        <ele>8.3</ele>
        <time>2024-01-25T16:02:22Z</time>
      </trkpt>
      <trkpt lat="48.8336" lon="-1.60241">
        <ele>8.2</ele>
        <time>2024-01-25T16:02:23Z</time>
      </trkpt>
      <trkpt lat="48.83364" lon="-1.6024">
        <ele>8.2</ele>
        <time>2024-01-25T16:02:24Z</time>
      </trkpt>
      <trkpt lat="48.8337" lon="-1.6024">
        <ele>8.3</ele>
        <time>2024-01-25T16:02:25Z</time>
      </trkpt>
      <trkpt lat="48.83375" lon="-1.60238">
        <ele>8.3</ele>
        <time>2024-01-25T16:02:26Z</time>
      </trkpt>
      <trkpt lat="48.8338" lon="-1.60234">
        <ele>8.3</ele>
        <time>2024-01-25T16:02:27Z</time>
      </trkpt>
      <trkpt lat="48.83385" lon="-1.6023">
        <ele>8.3</ele>
        <time>2024-01-25T16:02:28Z</time>
      </trkpt>
      <trkpt lat="48.83388" lon="-1.60224">
        <ele>8.3</ele>
        <time>2024-01-25T16:02:29Z</time>
      </trkpt>
      <trkpt lat="48.83391" lon="-1.60218">
        <ele>8.3</ele>
        <time>2024-01-25T16:02:30Z</time>
      </trkpt>
      <trkpt lat="48.83395" lon="-1.60207">
        <ele>8.4</ele>
        <time>2024-01-25T16:02:32Z</time>
      </trkpt>
      <trkpt lat="48.83398" lon="-1.60199">
        <ele>8.4</ele>
        <time>2024-01-25T16:02:33Z</time>
      </trkpt>
      <trkpt lat="48.834" lon="-1.60191">
        <ele>8.4</ele>
        <time>2024-01-25T16:02:34Z</time>
      </trkpt>
      <trkpt lat="48.83402" lon="-1.60183">
        <ele>8.4</ele>
        <time>2024-01-25T16:02:35Z</time>
      </trkpt>
      <trkpt lat="48.83404" lon="-1.60173">
        <ele>8.3</ele>
        <time>2024-01-25T16:02:36Z</time>
      </trkpt>
      <trkpt lat="48.83406" lon="-1.60163">
        <ele>8.3</ele>
        <time>2024-01-25T16:02:37Z</time>
      </trkpt>
      <trkpt lat="48.83408" lon="-1.60154">
        <ele>8.3</ele>
        <time>2024-01-25T16:02:38Z</time>
      </trkpt>
      <trkpt lat="48.8341" lon="-1.60145">
        <ele>8.3</ele>
        <time>2024-01-25T16:02:39Z</time>
      </trkpt>
      <trkpt lat="48.83412" lon="-1.60136">
        <ele>8.3</ele>
        <time>2024-01-25T16:02:40Z</time>
      </trkpt>
      <trkpt lat="48.83414" lon="-1.60126">
        <ele>8.3</ele>
        <time>2024-01-25T16:02:41Z</time>
      </trkpt>
      <trkpt lat="48.83417" lon="-1.60117">
        <ele>8.4</ele>
        <time>2024-01-25T16:02:42Z</time>
      </trkpt>
      <trkpt lat="48.8342" lon="-1.60109">
        <ele>8.4</ele>
        <time>2024-01-25T16:02:43Z</time>
      </trkpt>
      <trkpt lat="48.83424" lon="-1.60102">
        <ele>8.5</ele>
        <time>2024-01-25T16:02:44Z</time>
      </trkpt>
      <trkpt lat="48.83429" lon="-1.60094">
        <ele>8.5</ele>
        <time>2024-01-25T16:02:45Z</time>
      </trkpt>
      <trkpt lat="48.83433" lon="-1.60089">
        <ele>8.6</ele>
        <time>2024-01-25T16:02:46Z</time>
      </trkpt>
      <trkpt lat="48.83436" lon="-1.60086">
        <ele>8.6</ele>
        <time>2024-01-25T16:02:47Z</time>
      </trkpt>
      <trkpt lat="48.83439" lon="-1.60083">
        <ele>8.6</ele>
        <time>2024-01-25T16:02:48Z</time>
      </trkpt>
      <trkpt lat="48.83442" lon="-1.6008">
        <ele>8.6</ele>
        <time>2024-01-25T16:02:49Z</time>
      </trkpt>
      <trkpt lat="48.83444" lon="-1.60079">
        <ele>8.6</ele>
        <time>2024-01-25T16:02:50Z</time>
      </trkpt>
      <trkpt lat="48.83446" lon="-1.60077">
        <ele>8.6</ele>
        <time>2024-01-25T16:02:51Z</time>
      </trkpt>
      <trkpt lat="48.83449" lon="-1.60074">
        <ele>8.6</ele>
        <time>2024-01-25T16:02:52Z</time>
      </trkpt>
      <trkpt lat="48.83453" lon="-1.60072">
        <ele>8.6</ele>
        <time>2024-01-25T16:02:53Z</time>
      </trkpt>
      <trkpt lat="48.83459" lon="-1.60072">
        <ele>8.6</ele>
        <time>2024-01-25T16:02:54Z</time>
      </trkpt>
      <trkpt lat="48.83467" lon="-1.60072">
        <ele>8.6</ele>
        <time>2024-01-25T16:02:55Z</time>
      </trkpt>
      <trkpt lat="48.83475" lon="-1.6007">
        <ele>8.7</ele>
        <time>2024-01-25T16:02:56Z</time>
      </trkpt>
      <trkpt lat="48.83483" lon="-1.60067">
        <ele>8.8</ele>
        <time>2024-01-25T16:02:57Z</time>
      </trkpt>
      <trkpt lat="48.83491" lon="-1.60063">
        <ele>8.9</ele>
        <time>2024-01-25T16:02:58Z</time>
      </trkpt>
      <trkpt lat="48.83497" lon="-1.60058">
        <ele>9</ele>
        <time>2024-01-25T16:02:59Z</time>
      </trkpt>
      <trkpt lat="48.83502" lon="-1.60053">
        <ele>9</ele>
        <time>2024-01-25T16:03:00Z</time>
      </trkpt>
      <trkpt lat="48.83506" lon="-1.60048">
        <ele>9.1</ele>
        <time>2024-01-25T16:03:01Z</time>
      </trkpt>
      <trkpt lat="48.8351" lon="-1.60042">
        <ele>9.2</ele>
        <time>2024-01-25T16:03:02Z</time>
      </trkpt>
      <trkpt lat="48.83515" lon="-1.60035">
        <ele>9.2</ele>
        <time>2024-01-25T16:03:03Z</time>
      </trkpt>
      <trkpt lat="48.83521" lon="-1.60029">
        <ele>9.3</ele>
        <time>2024-01-25T16:03:04Z</time>
      </trkpt>
      <trkpt lat="48.83527" lon="-1.60025">
        <ele>9.4</ele>
        <time>2024-01-25T16:03:05Z</time>
      </trkpt>
      <trkpt lat="48.83533" lon="-1.60021">
        <ele>9.4</ele>
        <time>2024-01-25T16:03:06Z</time>
      </trkpt>
      <trkpt lat="48.83539" lon="-1.60016">
        <ele>9.5</ele>
        <time>2024-01-25T16:03:07Z</time>
      </trkpt>
      <trkpt lat="48.83546" lon="-1.60011">
        <ele>9.5</ele>
        <time>2024-01-25T16:03:08Z</time>
      </trkpt>
      <trkpt lat="48.83552" lon="-1.60004">
        <ele>9.5</ele>
        <time>2024-01-25T16:03:09Z</time>
      </trkpt>
      <trkpt lat="48.83559" lon="-1.59998">
        <ele>9.5</ele>
        <time>2024-01-25T16:03:10Z</time>
      </trkpt>
      <trkpt lat="48.83565" lon="-1.59992">
        <ele>9.5</ele>
        <time>2024-01-25T16:03:11Z</time>
      </trkpt>
      <trkpt lat="48.83571" lon="-1.59986">
        <ele>9.5</ele>
        <time>2024-01-25T16:03:12Z</time>
      </trkpt>
      <trkpt lat="48.83578" lon="-1.5998">
        <ele>9.5</ele>
        <time>2024-01-25T16:03:13Z</time>
      </trkpt>
      <trkpt lat="48.83584" lon="-1.59975">
        <ele>9.5</ele>
        <time>2024-01-25T16:03:14Z</time>
      </trkpt>
      <trkpt lat="48.8359" lon="-1.59969">
        <ele>9.5</ele>
        <time>2024-01-25T16:03:15Z</time>
      </trkpt>
      <trkpt lat="48.83595" lon="-1.59963">
        <ele>9.5</ele>
        <time>2024-01-25T16:03:16Z</time>
      </trkpt>
      <trkpt lat="48.836" lon="-1.59957">
        <ele>9.6</ele>
        <time>2024-01-25T16:03:17Z</time>
      </trkpt>
      <trkpt lat="48.83604" lon="-1.59951">
        <ele>9.6</ele>
        <time>2024-01-25T16:03:18Z</time>
      </trkpt>
      <trkpt lat="48.83608" lon="-1.59945">
        <ele>9.6</ele>
        <time>2024-01-25T16:03:19Z</time>
      </trkpt>
      <trkpt lat="48.83613" lon="-1.59939">
        <ele>9.6</ele>
        <time>2024-01-25T16:03:20Z</time>
      </trkpt>
      <trkpt lat="48.83617" lon="-1.59933">
        <ele>9.7</ele>
        <time>2024-01-25T16:03:21Z</time>
      </trkpt>
      <trkpt lat="48.83621" lon="-1.59927">
        <ele>9.7</ele>
        <time>2024-01-25T16:03:22Z</time>
      </trkpt>
      <trkpt lat="48.83625" lon="-1.59922">
        <ele>9.7</ele>
        <time>2024-01-25T16:03:23Z</time>
      </trkpt>
      <trkpt lat="48.83628" lon="-1.59917">
        <ele>9.7</ele>
        <time>2024-01-25T16:03:24Z</time>
      </trkpt>
      <trkpt lat="48.83631" lon="-1.59912">
        <ele>9.8</ele>
        <time>2024-01-25T16:03:25Z</time>
      </trkpt>
      <trkpt lat="48.83632" lon="-1.59907">
        <ele>9.8</ele>
        <time>2024-01-25T16:03:26Z</time>
      </trkpt>
      <trkpt lat="48.83634" lon="-1.59901">
        <ele>9.8</ele>
        <time>2024-01-25T16:03:27Z</time>
      </trkpt>
      <trkpt lat="48.83634" lon="-1.59896">
        <ele>9.9</ele>
        <time>2024-01-25T16:03:28Z</time>
      </trkpt>
      <trkpt lat="48.83633" lon="-1.59889">
        <ele>9.9</ele>
        <time>2024-01-25T16:03:30Z</time>
      </trkpt>
      <trkpt lat="48.83631" lon="-1.59882">
        <ele>10</ele>
        <time>2024-01-25T16:03:31Z</time>
      </trkpt>
      <trkpt lat="48.8363" lon="-1.59877">
        <ele>10</ele>
        <time>2024-01-25T16:03:32Z</time>
      </trkpt>
      <trkpt lat="48.83627" lon="-1.59871">
        <ele>10.1</ele>
        <time>2024-01-25T16:03:33Z</time>
      </trkpt>
      <trkpt lat="48.83625" lon="-1.59863">
        <ele>10.2</ele>
        <time>2024-01-25T16:03:34Z</time>
      </trkpt>
      <trkpt lat="48.83622" lon="-1.59855">
        <ele>10.3</ele>
        <time>2024-01-25T16:03:35Z</time>
      </trkpt>
      <trkpt lat="48.8362" lon="-1.59848">
        <ele>10.3</ele>
        <time>2024-01-25T16:03:36Z</time>
      </trkpt>
      <trkpt lat="48.83615" lon="-1.59838">
        <ele>10.4</ele>
        <time>2024-01-25T16:03:37Z</time>
      </trkpt>
      <trkpt lat="48.83612" lon="-1.59831">
        <ele>10.5</ele>
        <time>2024-01-25T16:03:38Z</time>
      </trkpt>
      <trkpt lat="48.8361" lon="-1.59824">
        <ele>10.6</ele>
        <time>2024-01-25T16:03:39Z</time>
      </trkpt>
      <trkpt lat="48.83607" lon="-1.59818">
        <ele>10.6</ele>
        <time>2024-01-25T16:03:40Z</time>
      </trkpt>
      <trkpt lat="48.83604" lon="-1.59811">
        <ele>10.6</ele>
        <time>2024-01-25T16:03:41Z</time>
      </trkpt>
      <trkpt lat="48.83601" lon="-1.59804">
        <ele>10.7</ele>
        <time>2024-01-25T16:03:42Z</time>
      </trkpt>
      <trkpt lat="48.83599" lon="-1.59797">
        <ele>10.7</ele>
        <time>2024-01-25T16:03:43Z</time>
      </trkpt>
      <trkpt lat="48.83596" lon="-1.59789">
        <ele>10.6</ele>
        <time>2024-01-25T16:03:44Z</time>
      </trkpt>
      <trkpt lat="48.83594" lon="-1.59782">
        <ele>10.6</ele>
        <time>2024-01-25T16:03:45Z</time>
      </trkpt>
      <trkpt lat="48.83591" lon="-1.59775">
        <ele>10.6</ele>
        <time>2024-01-25T16:03:46Z</time>
      </trkpt>
      <trkpt lat="48.83588" lon="-1.59768">
        <ele>10.6</ele>
        <time>2024-01-25T16:03:47Z</time>
      </trkpt>
      <trkpt lat="48.83586" lon="-1.5976">
        <ele>10.6</ele>
        <time>2024-01-25T16:03:48Z</time>
      </trkpt>
      <trkpt lat="48.83583" lon="-1.59752">
        <ele>10.6</ele>
        <time>2024-01-25T16:03:49Z</time>
      </trkpt>
      <trkpt lat="48.8358" lon="-1.59744">
        <ele>10.6</ele>
        <time>2024-01-25T16:03:50Z</time>
      </trkpt>
      <trkpt lat="48.83578" lon="-1.59735">
        <ele>10.6</ele>
        <time>2024-01-25T16:03:51Z</time>
      </trkpt>
      <trkpt lat="48.83575" lon="-1.59727">
        <ele>10.6</ele>
        <time>2024-01-25T16:03:52Z</time>
      </trkpt>
      <trkpt lat="48.83572" lon="-1.5972">
        <ele>10.6</ele>
        <time>2024-01-25T16:03:53Z</time>
      </trkpt>
      <trkpt lat="48.83571" lon="-1.59712">
        <ele>10.5</ele>
        <time>2024-01-25T16:03:54Z</time>
      </trkpt>
      <trkpt lat="48.83569" lon="-1.59704">
        <ele>10.5</ele>
        <time>2024-01-25T16:03:55Z</time>
      </trkpt>
      <trkpt lat="48.83569" lon="-1.59695">
        <ele>10.5</ele>
        <time>2024-01-25T16:03:56Z</time>
      </trkpt>
      <trkpt lat="48.83567" lon="-1.59687">
        <ele>10.5</ele>
        <time>2024-01-25T16:03:57Z</time>
      </trkpt>
      <trkpt lat="48.83566" lon="-1.59678">
        <ele>10.5</ele>
        <time>2024-01-25T16:03:58Z</time>
      </trkpt>
      <trkpt lat="48.83566" lon="-1.59669">
        <ele>10.5</ele>
        <time>2024-01-25T16:03:59Z</time>
      </trkpt>
      <trkpt lat="48.83566" lon="-1.5966">
        <ele>10.5</ele>
        <time>2024-01-25T16:04:00Z</time>
      </trkpt>
      <trkpt lat="48.83566" lon="-1.5965">
        <ele>10.5</ele>
        <time>2024-01-25T16:04:01Z</time>
      </trkpt>
      <trkpt lat="48.83566" lon="-1.59641">
        <ele>10.5</ele>
        <time>2024-01-25T16:04:02Z</time>
      </trkpt>
      <trkpt lat="48.83566" lon="-1.59632">
        <ele>10.5</ele>
        <time>2024-01-25T16:04:03Z</time>
      </trkpt>
      <trkpt lat="48.83565" lon="-1.59622">
        <ele>10.5</ele>
        <time>2024-01-25T16:04:04Z</time>
      </trkpt>
      <trkpt lat="48.83565" lon="-1.59613">
        <ele>10.5</ele>
        <time>2024-01-25T16:04:05Z</time>
      </trkpt>
      <trkpt lat="48.83565" lon="-1.59605">
        <ele>10.5</ele>
        <time>2024-01-25T16:04:06Z</time>
      </trkpt>
      <trkpt lat="48.83565" lon="-1.59596">
        <ele>10.5</ele>
        <time>2024-01-25T16:04:07Z</time>
      </trkpt>
      <trkpt lat="48.83565" lon="-1.59587">
        <ele>10.5</ele>
        <time>2024-01-25T16:04:08Z</time>
      </trkpt>
      <trkpt lat="48.83562" lon="-1.59579">
        <ele>10.5</ele>
        <time>2024-01-25T16:04:09Z</time>
      </trkpt>
      <trkpt lat="48.8356" lon="-1.59571">
        <ele>10.5</ele>
        <time>2024-01-25T16:04:10Z</time>
      </trkpt>
      <trkpt lat="48.83558" lon="-1.59564">
        <ele>10.5</ele>
        <time>2024-01-25T16:04:11Z</time>
      </trkpt>
      <trkpt lat="48.83558" lon="-1.59557">
        <ele>10.5</ele>
        <time>2024-01-25T16:04:12Z</time>
      </trkpt>
      <trkpt lat="48.8356" lon="-1.59551">
        <ele>10.5</ele>
        <time>2024-01-25T16:04:13Z</time>
      </trkpt>
      <trkpt lat="48.83562" lon="-1.59546">
        <ele>10.5</ele>
        <time>2024-01-25T16:04:14Z</time>
      </trkpt>
      <trkpt lat="48.83564" lon="-1.59543">
        <ele>10.5</ele>
        <time>2024-01-25T16:04:15Z</time>
      </trkpt>
      <trkpt lat="48.83567" lon="-1.59543">
        <ele>10.5</ele>
        <time>2024-01-25T16:04:16Z</time>
      </trkpt>
      <trkpt lat="48.83572" lon="-1.59545">
        <ele>10.5</ele>
        <time>2024-01-25T16:04:17Z</time>
      </trkpt>
      <trkpt lat="48.83576" lon="-1.5955">
        <ele>10.4</ele>
        <time>2024-01-25T16:04:18Z</time>
      </trkpt>
      <trkpt lat="48.83578" lon="-1.59556">
        <ele>10.4</ele>
        <time>2024-01-25T16:04:19Z</time>
      </trkpt>
      <trkpt lat="48.83579" lon="-1.59563">
        <ele>10.4</ele>
        <time>2024-01-25T16:04:20Z</time>
      </trkpt>
      <trkpt lat="48.83578" lon="-1.59569">
        <ele>10.5</ele>
        <time>2024-01-25T16:04:21Z</time>
      </trkpt>
      <trkpt lat="48.83575" lon="-1.59576">
        <ele>10.5</ele>
        <time>2024-01-25T16:04:22Z</time>
      </trkpt>
      <trkpt lat="48.83572" lon="-1.59581">
        <ele>10.5</ele>
        <time>2024-01-25T16:04:23Z</time>
      </trkpt>
      <trkpt lat="48.83569" lon="-1.59587">
        <ele>10.5</ele>
        <time>2024-01-25T16:04:24Z</time>
      </trkpt>
      <trkpt lat="48.83566" lon="-1.59593">
        <ele>10.5</ele>
        <time>2024-01-25T16:04:25Z</time>
      </trkpt>
      <trkpt lat="48.83564" lon="-1.59605">
        <ele>10.5</ele>
        <time>2024-01-25T16:04:27Z</time>
      </trkpt>
      <trkpt lat="48.83564" lon="-1.59613">
        <ele>10.5</ele>
        <time>2024-01-25T16:04:28Z</time>
      </trkpt>
      <trkpt lat="48.83565" lon="-1.5962">
        <ele>10.5</ele>
        <time>2024-01-25T16:04:29Z</time>
      </trkpt>
      <trkpt lat="48.83566" lon="-1.59627">
        <ele>10.5</ele>
        <time>2024-01-25T16:04:30Z</time>
      </trkpt>
      <trkpt lat="48.83566" lon="-1.59633">
        <ele>10.5</ele>
        <time>2024-01-25T16:04:31Z</time>
      </trkpt>
      <trkpt lat="48.83567" lon="-1.5964">
        <ele>10.5</ele>
        <time>2024-01-25T16:04:32Z</time>
      </trkpt>
      <trkpt lat="48.83567" lon="-1.59649">
        <ele>10.5</ele>
        <time>2024-01-25T16:04:33Z</time>
      </trkpt>
      <trkpt lat="48.83567" lon="-1.59658">
        <ele>10.5</ele>
        <time>2024-01-25T16:04:34Z</time>
      </trkpt>
      <trkpt lat="48.83567" lon="-1.59666">
        <ele>10.5</ele>
        <time>2024-01-25T16:04:35Z</time>
      </trkpt>
      <trkpt lat="48.83568" lon="-1.59675">
        <ele>10.5</ele>
        <time>2024-01-25T16:04:36Z</time>
      </trkpt>
      <trkpt lat="48.83568" lon="-1.59684">
        <ele>10.5</ele>
        <time>2024-01-25T16:04:37Z</time>
      </trkpt>
      <trkpt lat="48.83569" lon="-1.59693">
        <ele>10.5</ele>
        <time>2024-01-25T16:04:38Z</time>
      </trkpt>
      <trkpt lat="48.8357" lon="-1.59702">
        <ele>10.5</ele>
        <time>2024-01-25T16:04:39Z</time>
      </trkpt>
      <trkpt lat="48.83572" lon="-1.5971">
        <ele>10.5</ele>
        <time>2024-01-25T16:04:40Z</time>
      </trkpt>
      <trkpt lat="48.83574" lon="-1.59719">
        <ele>10.6</ele>
        <time>2024-01-25T16:04:41Z</time>
      </trkpt>
      <trkpt lat="48.83576" lon="-1.59727">
        <ele>10.6</ele>
        <time>2024-01-25T16:04:42Z</time>
      </trkpt>
      <trkpt lat="48.83578" lon="-1.59735">
        <ele>10.6</ele>
        <time>2024-01-25T16:04:43Z</time>
      </trkpt>
      <trkpt lat="48.83581" lon="-1.59743">
        <ele>10.6</ele>
        <time>2024-01-25T16:04:44Z</time>
      </trkpt>
      <trkpt lat="48.83584" lon="-1.59752">
        <ele>10.6</ele>
        <time>2024-01-25T16:04:45Z</time>
      </trkpt>
      <trkpt lat="48.83587" lon="-1.5976">
        <ele>10.6</ele>
        <time>2024-01-25T16:04:46Z</time>
      </trkpt>
      <trkpt lat="48.8359" lon="-1.59768">
        <ele>10.6</ele>
        <time>2024-01-25T16:04:47Z</time>
      </trkpt>
      <trkpt lat="48.83593" lon="-1.59777">
        <ele>10.6</ele>
        <time>2024-01-25T16:04:48Z</time>
      </trkpt>
      <trkpt lat="48.83595" lon="-1.59784">
        <ele>10.6</ele>
        <time>2024-01-25T16:04:49Z</time>
      </trkpt>
      <trkpt lat="48.83598" lon="-1.59792">
        <ele>10.7</ele>
        <time>2024-01-25T16:04:50Z</time>
      </trkpt>
      <trkpt lat="48.83601" lon="-1.59799">
        <ele>10.7</ele>
        <time>2024-01-25T16:04:51Z</time>
      </trkpt>
      <trkpt lat="48.83603" lon="-1.59806">
        <ele>10.7</ele>
        <time>2024-01-25T16:04:52Z</time>
      </trkpt>
      <trkpt lat="48.83607" lon="-1.59814">
        <ele>10.6</ele>
        <time>2024-01-25T16:04:53Z</time>
      </trkpt>
      <trkpt lat="48.8361" lon="-1.59821">
        <ele>10.6</ele>
        <time>2024-01-25T16:04:54Z</time>
      </trkpt>
      <trkpt lat="48.83613" lon="-1.59829">
        <ele>10.5</ele>
        <time>2024-01-25T16:04:55Z</time>
      </trkpt>
      <trkpt lat="48.83616" lon="-1.59836">
        <ele>10.4</ele>
        <time>2024-01-25T16:04:56Z</time>
      </trkpt>
      <trkpt lat="48.83619" lon="-1.59844">
        <ele>10.4</ele>
        <time>2024-01-25T16:04:57Z</time>
      </trkpt>
      <trkpt lat="48.83623" lon="-1.59851">
        <ele>10.3</ele>
        <time>2024-01-25T16:04:58Z</time>
      </trkpt>
      <trkpt lat="48.83626" lon="-1.59858">
        <ele>10.2</ele>
        <time>2024-01-25T16:04:59Z</time>
      </trkpt>
      <trkpt lat="48.83629" lon="-1.59865">
        <ele>10.1</ele>
        <time>2024-01-25T16:05:00Z</time>
      </trkpt>
      <trkpt lat="48.83633" lon="-1.59871">
        <ele>10</ele>
        <time>2024-01-25T16:05:01Z</time>
      </trkpt>
      <trkpt lat="48.83636" lon="-1.59877">
        <ele>10</ele>
        <time>2024-01-25T16:05:02Z</time>
      </trkpt>
      <trkpt lat="48.83639" lon="-1.59882">
        <ele>9.9</ele>
        <time>2024-01-25T16:05:03Z</time>
      </trkpt>
      <trkpt lat="48.83643" lon="-1.59886">
        <ele>9.9</ele>
        <time>2024-01-25T16:05:04Z</time>
      </trkpt>
      <trkpt lat="48.83646" lon="-1.59888">
        <ele>9.8</ele>
        <time>2024-01-25T16:05:05Z</time>
      </trkpt>
      <trkpt lat="48.8365" lon="-1.59888">
        <ele>9.8</ele>
        <time>2024-01-25T16:05:06Z</time>
      </trkpt>
      <trkpt lat="48.83653" lon="-1.59885">
        <ele>9.7</ele>
        <time>2024-01-25T16:05:07Z</time>
      </trkpt>
      <trkpt lat="48.83659" lon="-1.59879">
        <ele>9.7</ele>
        <time>2024-01-25T16:05:09Z</time>
      </trkpt>
      <trkpt lat="48.83662" lon="-1.59874">
        <ele>9.7</ele>
        <time>2024-01-25T16:05:10Z</time>
      </trkpt>
      <trkpt lat="48.83664" lon="-1.5987">
        <ele>9.6</ele>
        <time>2024-01-25T16:05:11Z</time>
      </trkpt>
      <trkpt lat="48.83667" lon="-1.59864">
        <ele>9.6</ele>
        <time>2024-01-25T16:05:12Z</time>
      </trkpt>
      <trkpt lat="48.8367" lon="-1.59859">
        <ele>9.6</ele>
        <time>2024-01-25T16:05:13Z</time>
      </trkpt>
      <trkpt lat="48.83673" lon="-1.59855">
        <ele>9.6</ele>
        <time>2024-01-25T16:05:14Z</time>
      </trkpt>
      <trkpt lat="48.83675" lon="-1.5985">
        <ele>9.6</ele>
        <time>2024-01-25T16:05:15Z</time>
      </trkpt>
      <trkpt lat="48.83679" lon="-1.59845">
        <ele>9.6</ele>
        <time>2024-01-25T16:05:16Z</time>
      </trkpt>
      <trkpt lat="48.83682" lon="-1.59841">
        <ele>9.7</ele>
        <time>2024-01-25T16:05:17Z</time>
      </trkpt>
      <trkpt lat="48.83686" lon="-1.59837">
        <ele>9.7</ele>
        <time>2024-01-25T16:05:18Z</time>
      </trkpt>
      <trkpt lat="48.83689" lon="-1.59834">
        <ele>9.6</ele>
        <time>2024-01-25T16:05:19Z</time>
      </trkpt>
      <trkpt lat="48.83692" lon="-1.5983">
        <ele>9.6</ele>
        <time>2024-01-25T16:05:20Z</time>
      </trkpt>
      <trkpt lat="48.83694" lon="-1.59826">
        <ele>9.6</ele>
        <time>2024-01-25T16:05:21Z</time>
      </trkpt>
      <trkpt lat="48.83697" lon="-1.59821">
        <ele>9.6</ele>
        <time>2024-01-25T16:05:22Z</time>
      </trkpt>
      <trkpt lat="48.837" lon="-1.59819">
        <ele>9.6</ele>
        <time>2024-01-25T16:05:23Z</time>
      </trkpt>
      <trkpt lat="48.83703" lon="-1.59815">
        <ele>9.6</ele>
        <time>2024-01-25T16:05:24Z</time>
      </trkpt>
      <trkpt lat="48.83705" lon="-1.59811">
        <ele>9.6</ele>
        <time>2024-01-25T16:05:25Z</time>
      </trkpt>
      <trkpt lat="48.83707" lon="-1.59807">
        <ele>9.6</ele>
        <time>2024-01-25T16:05:26Z</time>
      </trkpt>
      <trkpt lat="48.83711" lon="-1.59808">
        <ele>9.6</ele>
        <time>2024-01-25T16:05:27Z</time>
      </trkpt>
      <trkpt lat="48.83711" lon="-1.59809">
        <ele>9.6</ele>
        <time>2024-01-25T16:05:28Z</time>
      </trkpt>
      <trkpt lat="48.83709" lon="-1.59813">
        <ele>9.6</ele>
        <time>2024-01-25T16:05:29Z</time>
      </trkpt>
      <trkpt lat="48.83708" lon="-1.59814">
        <ele>9.6</ele>
        <time>2024-01-25T16:05:30Z</time>
      </trkpt>
      <trkpt lat="48.83706" lon="-1.59817">
        <ele>9.6</ele>
        <time>2024-01-25T16:05:31Z</time>
      </trkpt>
      <trkpt lat="48.83704" lon="-1.5982">
        <ele>9.6</ele>
        <time>2024-01-25T16:05:32Z</time>
      </trkpt>
      <trkpt lat="48.83701" lon="-1.59823">
        <ele>9.6</ele>
        <time>2024-01-25T16:05:33Z</time>
      </trkpt>
      <trkpt lat="48.83699" lon="-1.59827">
        <ele>9.6</ele>
        <time>2024-01-25T16:05:34Z</time>
      </trkpt>
      <trkpt lat="48.83696" lon="-1.5983">
        <ele>9.6</ele>
        <time>2024-01-25T16:05:35Z</time>
      </trkpt>
      <trkpt lat="48.83692" lon="-1.59833">
        <ele>9.6</ele>
        <time>2024-01-25T16:05:36Z</time>
      </trkpt>
      <trkpt lat="48.83689" lon="-1.59836">
        <ele>9.6</ele>
        <time>2024-01-25T16:05:37Z</time>
      </trkpt>
      <trkpt lat="48.83685" lon="-1.59839">
        <ele>9.7</ele>
        <time>2024-01-25T16:05:38Z</time>
      </trkpt>
      <trkpt lat="48.83682" lon="-1.59843">
        <ele>9.7</ele>
        <time>2024-01-25T16:05:39Z</time>
      </trkpt>
      <trkpt lat="48.8368" lon="-1.59847">
        <ele>9.6</ele>
        <time>2024-01-25T16:05:40Z</time>
      </trkpt>
      <trkpt lat="48.83676" lon="-1.59851">
        <ele>9.6</ele>
        <time>2024-01-25T16:05:41Z</time>
      </trkpt>
      <trkpt lat="48.83673" lon="-1.59854">
        <ele>9.6</ele>
        <time>2024-01-25T16:05:42Z</time>
      </trkpt>
      <trkpt lat="48.8367" lon="-1.59858">
        <ele>9.6</ele>
        <time>2024-01-25T16:05:43Z</time>
      </trkpt>
      <trkpt lat="48.83667" lon="-1.59861">
        <ele>9.6</ele>
        <time>2024-01-25T16:05:44Z</time>
      </trkpt>
      <trkpt lat="48.83664" lon="-1.59863">
        <ele>9.6</ele>
        <time>2024-01-25T16:05:45Z</time>
      </trkpt>
      <trkpt lat="48.83661" lon="-1.59866">
        <ele>9.6</ele>
        <time>2024-01-25T16:05:46Z</time>
      </trkpt>
      <trkpt lat="48.83659" lon="-1.59869">
        <ele>9.6</ele>
        <time>2024-01-25T16:05:47Z</time>
      </trkpt>
      <trkpt lat="48.83655" lon="-1.59873">
        <ele>9.6</ele>
        <time>2024-01-25T16:05:48Z</time>
      </trkpt>
      <trkpt lat="48.83654" lon="-1.59874">
        <ele>9.6</ele>
        <time>2024-01-25T16:05:49Z</time>
      </trkpt>
      <trkpt lat="48.83651" lon="-1.59877">
        <ele>9.6</ele>
        <time>2024-01-25T16:05:50Z</time>
      </trkpt>
      <trkpt lat="48.83649" lon="-1.59882">
        <ele>9.6</ele>
        <time>2024-01-25T16:05:51Z</time>
      </trkpt>
      <trkpt lat="48.83649" lon="-1.59883">
        <ele>9.6</ele>
        <time>2024-01-25T16:05:52Z</time>
      </trkpt>
      <trkpt lat="48.83648" lon="-1.59887">
        <ele>9.6</ele>
        <time>2024-01-25T16:05:53Z</time>
      </trkpt>
      <trkpt lat="48.83649" lon="-1.59888">
        <ele>9.6</ele>
        <time>2024-01-25T16:05:54Z</time>
      </trkpt>
      <trkpt lat="48.83649" lon="-1.59889">
        <ele>9.6</ele>
        <time>2024-01-25T16:05:55Z</time>
      </trkpt>
      <trkpt lat="48.8365" lon="-1.59888">
        <ele>9.6</ele>
        <time>2024-01-25T16:05:56Z</time>
      </trkpt>
      <trkpt lat="48.83651" lon="-1.59887">
        <ele>9.6</ele>
        <time>2024-01-25T16:05:57Z</time>
      </trkpt>
      <trkpt lat="48.83652" lon="-1.59886">
        <ele>9.6</ele>
        <time>2024-01-25T16:05:58Z</time>
      </trkpt>
      <trkpt lat="48.83653" lon="-1.59885">
        <ele>9.6</ele>
        <time>2024-01-25T16:05:59Z</time>
      </trkpt>
      <trkpt lat="48.83654" lon="-1.59884">
        <ele>9.6</ele>
        <time>2024-01-25T16:06:00Z</time>
      </trkpt>
      <trkpt lat="48.83655" lon="-1.59882">
        <ele>9.6</ele>
        <time>2024-01-25T16:06:01Z</time>
      </trkpt>
      <trkpt lat="48.83656" lon="-1.59881">
        <ele>9.6</ele>
        <time>2024-01-25T16:06:02Z</time>
      </trkpt>
      <trkpt lat="48.83657" lon="-1.59879">
        <ele>9.6</ele>
        <time>2024-01-25T16:06:03Z</time>
      </trkpt>
      <trkpt lat="48.83657" lon="-1.59877">
        <ele>9.6</ele>
        <time>2024-01-25T16:06:04Z</time>
      </trkpt>
      <trkpt lat="48.83657" lon="-1.59877">
        <ele>9.6</ele>
        <time>2024-01-25T16:06:05Z</time>
      </trkpt>
      <trkpt lat="48.83657" lon="-1.59877">
        <ele>9.6</ele>
        <time>2024-01-25T16:06:06Z</time>
      </trkpt>
    </trkseg>
  </trk>
</gpx>